<?xml version='1.0' encoding='UTF-8'?><gpx version="1.1" creator="JPX - https://github.com/jenetics/jpx" xmlns="http://www.topografix.com/GPX/1/1"><trk><trkseg><trkpt lat="42.6648526" lon="13.7909846"><ele>371.0</ele><time>2026-05-01T06:59:00.841Z</time></trkpt><trkpt lat="42.6648763" lon="13.7911129"><ele>371.0</ele><time>2026-05-01T06:59:03.839Z</time></trkpt><trkpt lat="42.6649186" lon="13.7911966"><ele>371.0</ele><time>2026-05-01T06:59:06.839Z</time></trkpt><trkpt lat="42.6649741" lon="13.7911182"><ele>371.0</ele><time>2026-05-01T06:59:22.838Z</time></trkpt><trkpt lat="42.6649484" lon="13.7909507"><ele>371.0</ele><time>2026-05-01T06:59:24.839Z</time></trkpt><trkpt lat="42.6649196" lon="13.7908399"><ele>371.0</ele><time>2026-05-01T06:59:25.839Z</time></trkpt><trkpt lat="42.6648883" lon="13.7907346"><ele>371.0</ele><time>2026-05-01T06:59:26.839Z</time></trkpt><trkpt lat="42.6648517" lon="13.7906184"><ele>371.0</ele><time>2026-05-01T06:59:27.839Z</time></trkpt><trkpt lat="42.6648037" lon="13.7904896"><ele>371.0</ele><time>2026-05-01T06:59:28.838Z</time></trkpt><trkpt lat="42.6647538" lon="13.7903567"><ele>371.0</ele><time>2026-05-01T06:59:29.838Z</time></trkpt><trkpt lat="42.6647199" lon="13.7902062"><ele>370.75</ele><time>2026-05-01T06:59:30.839Z</time></trkpt><trkpt lat="42.6647064" lon="13.7900475"><ele>370.5</ele><time>2026-05-01T06:59:31.839Z</time></trkpt><trkpt lat="42.6647185" lon="13.7898853"><ele>370.25</ele><time>2026-05-01T06:59:32.838Z</time></trkpt><trkpt lat="42.6647531" lon="13.789721"><ele>370.0</ele><time>2026-05-01T06:59:33.838Z</time></trkpt><trkpt lat="42.6648034" lon="13.7895534"><ele>370.0</ele><time>2026-05-01T06:59:34.839Z</time></trkpt><trkpt lat="42.6648726" lon="13.7893821"><ele>370.0</ele><time>2026-05-01T06:59:35.838Z</time></trkpt><trkpt lat="42.6649371" lon="13.7892082"><ele>370.0</ele><time>2026-05-01T06:59:36.839Z</time></trkpt><trkpt lat="42.6649901" lon="13.7890478"><ele>370.0</ele><time>2026-05-01T06:59:37.839Z</time></trkpt><trkpt lat="42.6650371" lon="13.7888869"><ele>369.0</ele><time>2026-05-01T06:59:38.839Z</time></trkpt><trkpt lat="42.6650638" lon="13.788712"><ele>368.0</ele><time>2026-05-01T06:59:39.838Z</time></trkpt><trkpt lat="42.6650586" lon="13.7885292"><ele>367.0</ele><time>2026-05-01T06:59:40.838Z</time></trkpt><trkpt lat="42.6650277" lon="13.7883433"><ele>366.0</ele><time>2026-05-01T06:59:41.839Z</time></trkpt><trkpt lat="42.6649697" lon="13.7881631"><ele>365.6666666666667</ele><time>2026-05-01T06:59:42.839Z</time></trkpt><trkpt lat="42.6648989" lon="13.7879894"><ele>365.33333333333337</ele><time>2026-05-01T06:59:43.839Z</time></trkpt><trkpt lat="42.6648181" lon="13.7878147"><ele>365.0</ele><time>2026-05-01T06:59:44.839Z</time></trkpt><trkpt lat="42.6647397" lon="13.78763"><ele>365.0</ele><time>2026-05-01T06:59:45.838Z</time></trkpt><trkpt lat="42.6646581" lon="13.7874475"><ele>365.0</ele><time>2026-05-01T06:59:46.838Z</time></trkpt><trkpt lat="42.6645757" lon="13.7872659"><ele>365.0</ele><time>2026-05-01T06:59:47.84Z</time></trkpt><trkpt lat="42.6644918" lon="13.787078"><ele>366.33333333333337</ele><time>2026-05-01T06:59:48.84Z</time></trkpt><trkpt lat="42.6644069" lon="13.78689"><ele>367.6666666666667</ele><time>2026-05-01T06:59:49.84Z</time></trkpt><trkpt lat="42.6643214" lon="13.7867062"><ele>369.0</ele><time>2026-05-01T06:59:50.84Z</time></trkpt><trkpt lat="42.6642372" lon="13.7865228"><ele>369.0</ele><time>2026-05-01T06:59:51.838Z</time></trkpt><trkpt lat="42.6641533" lon="13.7863373"><ele>369.0</ele><time>2026-05-01T06:59:52.838Z</time></trkpt><trkpt lat="42.6640709" lon="13.7861547"><ele>369.0</ele><time>2026-05-01T06:59:53.838Z</time></trkpt><trkpt lat="42.6639912" lon="13.7859749"><ele>372.3333333333333</ele><time>2026-05-01T06:59:54.839Z</time></trkpt><trkpt lat="42.6639082" lon="13.7857865"><ele>375.66666666666663</ele><time>2026-05-01T06:59:55.839Z</time></trkpt><trkpt lat="42.6638199" lon="13.7855902"><ele>379.0</ele><time>2026-05-01T06:59:56.838Z</time></trkpt><trkpt lat="42.6637271" lon="13.7853993"><ele>379.0</ele><time>2026-05-01T06:59:57.838Z</time></trkpt><trkpt lat="42.6636479" lon="13.7852121"><ele>379.0</ele><time>2026-05-01T06:59:58.839Z</time></trkpt><trkpt lat="42.6635835" lon="13.7850119"><ele>379.0</ele><time>2026-05-01T06:59:59.838Z</time></trkpt><trkpt lat="42.6635387" lon="13.7848051"><ele>378.0</ele><time>2026-05-01T07:00:00.838Z</time></trkpt><trkpt lat="42.6634922" lon="13.7846023"><ele>377.0</ele><time>2026-05-01T07:00:01.838Z</time></trkpt><trkpt lat="42.6634284" lon="13.7844046"><ele>376.0</ele><time>2026-05-01T07:00:02.838Z</time></trkpt><trkpt lat="42.6633541" lon="13.7842182"><ele>380.0</ele><time>2026-05-01T07:00:03.839Z</time></trkpt><trkpt lat="42.6632741" lon="13.7840331"><ele>384.0</ele><time>2026-05-01T07:00:04.84Z</time></trkpt><trkpt lat="42.6631849" lon="13.7838656"><ele>388.0</ele><time>2026-05-01T07:00:05.839Z</time></trkpt><trkpt lat="42.6630927" lon="13.7837135"><ele>388.0</ele><time>2026-05-01T07:00:06.839Z</time></trkpt><trkpt lat="42.663001" lon="13.7835799"><ele>388.0</ele><time>2026-05-01T07:00:07.838Z</time></trkpt><trkpt lat="42.6628925" lon="13.783461"><ele>388.0</ele><time>2026-05-01T07:00:08.839Z</time></trkpt><trkpt lat="42.6627695" lon="13.7833615"><ele>388.0</ele><time>2026-05-01T07:00:09.839Z</time></trkpt><trkpt lat="42.6626483" lon="13.7832671"><ele>389.0</ele><time>2026-05-01T07:00:10.839Z</time></trkpt><trkpt lat="42.6625354" lon="13.7831453"><ele>390.0</ele><time>2026-05-01T07:00:11.84Z</time></trkpt><trkpt lat="42.6624341" lon="13.7829934"><ele>391.0</ele><time>2026-05-01T07:00:12.838Z</time></trkpt><trkpt lat="42.6623416" lon="13.7828286"><ele>392.0</ele><time>2026-05-01T07:00:13.839Z</time></trkpt><trkpt lat="42.662253" lon="13.782659"><ele>392.75</ele><time>2026-05-01T07:00:14.839Z</time></trkpt><trkpt lat="42.662176" lon="13.7825009"><ele>393.5</ele><time>2026-05-01T07:00:15.839Z</time></trkpt><trkpt lat="42.6621108" lon="13.7823504"><ele>394.25</ele><time>2026-05-01T07:00:16.838Z</time></trkpt><trkpt lat="42.6620541" lon="13.7822146"><ele>395.0</ele><time>2026-05-01T07:00:17.839Z</time></trkpt><trkpt lat="42.6620282" lon="13.7820701"><ele>395.0</ele><time>2026-05-01T07:00:18.839Z</time></trkpt><trkpt lat="42.6620331" lon="13.7819209"><ele>395.0</ele><time>2026-05-01T07:00:19.84Z</time></trkpt><trkpt lat="42.6620757" lon="13.7817749"><ele>395.0</ele><time>2026-05-01T07:00:20.838Z</time></trkpt><trkpt lat="42.662147" lon="13.7816206"><ele>395.0</ele><time>2026-05-01T07:00:21.839Z</time></trkpt><trkpt lat="42.6622338" lon="13.7814466"><ele>395.3333333333333</ele><time>2026-05-01T07:00:22.839Z</time></trkpt><trkpt lat="42.6623264" lon="13.7812555"><ele>395.66666666666663</ele><time>2026-05-01T07:00:23.839Z</time></trkpt><trkpt lat="42.6624223" lon="13.7810602"><ele>396.0</ele><time>2026-05-01T07:00:24.838Z</time></trkpt><trkpt lat="42.6625227" lon="13.7808443"><ele>399.66666666666663</ele><time>2026-05-01T07:00:25.84Z</time></trkpt><trkpt lat="42.6626171" lon="13.7806311"><ele>403.3333333333333</ele><time>2026-05-01T07:00:26.839Z</time></trkpt><trkpt lat="42.6627059" lon="13.7804061"><ele>407.0</ele><time>2026-05-01T07:00:27.839Z</time></trkpt><trkpt lat="42.6628031" lon="13.7801859"><ele>402.3333333333333</ele><time>2026-05-01T07:00:28.839Z</time></trkpt><trkpt lat="42.662926" lon="13.7799819"><ele>397.66666666666663</ele><time>2026-05-01T07:00:29.838Z</time></trkpt><trkpt lat="42.6630679" lon="13.7797821"><ele>393.0</ele><time>2026-05-01T07:00:30.839Z</time></trkpt><trkpt lat="42.6632145" lon="13.7795777"><ele>393.0</ele><time>2026-05-01T07:00:31.839Z</time></trkpt><trkpt lat="42.6633697" lon="13.7793712"><ele>393.0</ele><time>2026-05-01T07:00:32.839Z</time></trkpt><trkpt lat="42.6635285" lon="13.7791644"><ele>393.0</ele><time>2026-05-01T07:00:33.839Z</time></trkpt><trkpt lat="42.6636724" lon="13.7789728"><ele>392.0</ele><time>2026-05-01T07:00:34.839Z</time></trkpt><trkpt lat="42.6638078" lon="13.7787875"><ele>391.0</ele><time>2026-05-01T07:00:35.839Z</time></trkpt><trkpt lat="42.6639356" lon="13.7786111"><ele>390.0</ele><time>2026-05-01T07:00:36.838Z</time></trkpt><trkpt lat="42.6640631" lon="13.7784464"><ele>391.33333333333337</ele><time>2026-05-01T07:00:37.839Z</time></trkpt><trkpt lat="42.6642047" lon="13.7783142"><ele>392.6666666666667</ele><time>2026-05-01T07:00:38.838Z</time></trkpt><trkpt lat="42.6643605" lon="13.7782109"><ele>394.0</ele><time>2026-05-01T07:00:39.839Z</time></trkpt><trkpt lat="42.6645227" lon="13.7781451"><ele>394.0</ele><time>2026-05-01T07:00:40.84Z</time></trkpt><trkpt lat="42.6646713" lon="13.7780611"><ele>394.0</ele><time>2026-05-01T07:00:41.84Z</time></trkpt><trkpt lat="42.6648103" lon="13.7779461"><ele>394.0</ele><time>2026-05-01T07:00:42.839Z</time></trkpt><trkpt lat="42.664925" lon="13.7778019"><ele>394.0</ele><time>2026-05-01T07:00:43.84Z</time></trkpt><trkpt lat="42.6650119" lon="13.777636"><ele>394.0</ele><time>2026-05-01T07:00:44.838Z</time></trkpt><trkpt lat="42.6650739" lon="13.7774741"><ele>394.0</ele><time>2026-05-01T07:00:45.839Z</time></trkpt><trkpt lat="42.6651283" lon="13.777323"><ele>394.0</ele><time>2026-05-01T07:00:46.838Z</time></trkpt><trkpt lat="42.6651858" lon="13.7771866"><ele>394.0</ele><time>2026-05-01T07:00:47.84Z</time></trkpt><trkpt lat="42.6652544" lon="13.7770776"><ele>394.0</ele><time>2026-05-01T07:00:48.838Z</time></trkpt><trkpt lat="42.6653291" lon="13.7770115"><ele>394.0</ele><time>2026-05-01T07:00:49.839Z</time></trkpt><trkpt lat="42.6654226" lon="13.7769903"><ele>394.0</ele><time>2026-05-01T07:00:50.839Z</time></trkpt><trkpt lat="42.6655317" lon="13.7770025"><ele>394.0</ele><time>2026-05-01T07:00:51.84Z</time></trkpt><trkpt lat="42.6656561" lon="13.7770326"><ele>395.33333333333337</ele><time>2026-05-01T07:00:52.839Z</time></trkpt><trkpt lat="42.6657973" lon="13.7770218"><ele>396.66666666666663</ele><time>2026-05-01T07:00:53.84Z</time></trkpt><trkpt lat="42.6659507" lon="13.7769803"><ele>398.0</ele><time>2026-05-01T07:00:54.839Z</time></trkpt><trkpt lat="42.6661071" lon="13.7769211"><ele>395.66666666666663</ele><time>2026-05-01T07:00:55.839Z</time></trkpt><trkpt lat="42.6662705" lon="13.7768476"><ele>393.33333333333337</ele><time>2026-05-01T07:00:56.838Z</time></trkpt><trkpt lat="42.666438" lon="13.7767714"><ele>391.0</ele><time>2026-05-01T07:00:57.839Z</time></trkpt><trkpt lat="42.6666039" lon="13.7766901"><ele>391.0</ele><time>2026-05-01T07:00:58.84Z</time></trkpt><trkpt lat="42.6667646" lon="13.7766123"><ele>391.0</ele><time>2026-05-01T07:00:59.838Z</time></trkpt><trkpt lat="42.6669163" lon="13.7765295"><ele>391.0</ele><time>2026-05-01T07:01:00.839Z</time></trkpt><trkpt lat="42.6670632" lon="13.7764513"><ele>391.25</ele><time>2026-05-01T07:01:01.839Z</time></trkpt><trkpt lat="42.6672015" lon="13.7763797"><ele>391.5</ele><time>2026-05-01T07:01:02.839Z</time></trkpt><trkpt lat="42.6673306" lon="13.776311"><ele>391.75</ele><time>2026-05-01T07:01:03.838Z</time></trkpt><trkpt lat="42.6674468" lon="13.7762229"><ele>392.0</ele><time>2026-05-01T07:01:04.839Z</time></trkpt><trkpt lat="42.6675526" lon="13.7760966"><ele>390.0</ele><time>2026-05-01T07:01:05.839Z</time></trkpt><trkpt lat="42.6676473" lon="13.7759523"><ele>388.0</ele><time>2026-05-01T07:01:06.838Z</time></trkpt><trkpt lat="42.6677259" lon="13.7757841"><ele>386.0</ele><time>2026-05-01T07:01:07.839Z</time></trkpt><trkpt lat="42.6677866" lon="13.7756059"><ele>384.0</ele><time>2026-05-01T07:01:08.839Z</time></trkpt><trkpt lat="42.6678233" lon="13.7754206"><ele>379.6666666666667</ele><time>2026-05-01T07:01:09.838Z</time></trkpt><trkpt lat="42.6678382" lon="13.7752189"><ele>375.33333333333337</ele><time>2026-05-01T07:01:10.838Z</time></trkpt><trkpt lat="42.6678268" lon="13.7749992"><ele>371.0</ele><time>2026-05-01T07:01:11.838Z</time></trkpt><trkpt lat="42.6677971" lon="13.7747655"><ele>371.6666666666667</ele><time>2026-05-01T07:01:12.839Z</time></trkpt><trkpt lat="42.66776" lon="13.7745225"><ele>372.3333333333333</ele><time>2026-05-01T07:01:13.838Z</time></trkpt><trkpt lat="42.6677222" lon="13.7742722"><ele>373.0</ele><time>2026-05-01T07:01:14.839Z</time></trkpt><trkpt lat="42.6676814" lon="13.7740123"><ele>373.0</ele><time>2026-05-01T07:01:15.839Z</time></trkpt><trkpt lat="42.6676411" lon="13.773745"><ele>373.0</ele><time>2026-05-01T07:01:16.839Z</time></trkpt><trkpt lat="42.6676105" lon="13.7734749"><ele>373.0</ele><time>2026-05-01T07:01:17.838Z</time></trkpt><trkpt lat="42.6675872" lon="13.7732036"><ele>370.0</ele><time>2026-05-01T07:01:18.838Z</time></trkpt><trkpt lat="42.6675704" lon="13.7729312"><ele>367.0</ele><time>2026-05-01T07:01:19.839Z</time></trkpt><trkpt lat="42.6675645" lon="13.7726583"><ele>364.0</ele><time>2026-05-01T07:01:20.838Z</time></trkpt><trkpt lat="42.6675735" lon="13.7723951"><ele>361.0</ele><time>2026-05-01T07:01:21.839Z</time></trkpt><trkpt lat="42.6675999" lon="13.7721399"><ele>358.0</ele><time>2026-05-01T07:01:22.839Z</time></trkpt><trkpt lat="42.6676325" lon="13.7718894"><ele>355.0</ele><time>2026-05-01T07:01:23.84Z</time></trkpt><trkpt lat="42.6676451" lon="13.7716344"><ele>354.3333333333333</ele><time>2026-05-01T07:01:24.84Z</time></trkpt><trkpt lat="42.6676281" lon="13.7713795"><ele>353.6666666666667</ele><time>2026-05-01T07:01:25.838Z</time></trkpt><trkpt lat="42.6675929" lon="13.7711292"><ele>353.0</ele><time>2026-05-01T07:01:26.838Z</time></trkpt><trkpt lat="42.6675485" lon="13.7708763"><ele>350.0</ele><time>2026-05-01T07:01:27.84Z</time></trkpt><trkpt lat="42.6675036" lon="13.7706369"><ele>347.0</ele><time>2026-05-01T07:01:28.84Z</time></trkpt><trkpt lat="42.667467" lon="13.7703902"><ele>344.0</ele><time>2026-05-01T07:01:29.839Z</time></trkpt><trkpt lat="42.6674517" lon="13.7701473"><ele>342.33333333333337</ele><time>2026-05-01T07:01:30.839Z</time></trkpt><trkpt lat="42.6674643" lon="13.7699057"><ele>340.6666666666667</ele><time>2026-05-01T07:01:31.839Z</time></trkpt><trkpt lat="42.6675063" lon="13.7696669"><ele>339.0</ele><time>2026-05-01T07:01:32.84Z</time></trkpt><trkpt lat="42.667565" lon="13.7694305"><ele>339.3333333333333</ele><time>2026-05-01T07:01:33.838Z</time></trkpt><trkpt lat="42.6676288" lon="13.7691989"><ele>339.66666666666663</ele><time>2026-05-01T07:01:34.839Z</time></trkpt><trkpt lat="42.6676996" lon="13.7689613"><ele>340.0</ele><time>2026-05-01T07:01:35.838Z</time></trkpt><trkpt lat="42.6677719" lon="13.7687247"><ele>332.0</ele><time>2026-05-01T07:01:36.838Z</time></trkpt><trkpt lat="42.6678427" lon="13.7684862"><ele>324.0</ele><time>2026-05-01T07:01:37.839Z</time></trkpt><trkpt lat="42.6679173" lon="13.7682528"><ele>316.0</ele><time>2026-05-01T07:01:38.838Z</time></trkpt><trkpt lat="42.6679938" lon="13.768025"><ele>316.0</ele><time>2026-05-01T07:01:39.838Z</time></trkpt><trkpt lat="42.6680729" lon="13.7677984"><ele>316.0</ele><time>2026-05-01T07:01:40.839Z</time></trkpt><trkpt lat="42.6681454" lon="13.7675741"><ele>316.0</ele><time>2026-05-01T07:01:41.839Z</time></trkpt><trkpt lat="42.6682182" lon="13.7673696"><ele>316.0</ele><time>2026-05-01T07:01:42.839Z</time></trkpt><trkpt lat="42.6683067" lon="13.7671803"><ele>316.0</ele><time>2026-05-01T07:01:43.839Z</time></trkpt><trkpt lat="42.6684165" lon="13.7670084"><ele>316.0</ele><time>2026-05-01T07:01:44.839Z</time></trkpt><trkpt lat="42.6685496" lon="13.7668558"><ele>314.3333333333333</ele><time>2026-05-01T07:01:45.838Z</time></trkpt><trkpt lat="42.66869" lon="13.7667263"><ele>312.6666666666667</ele><time>2026-05-01T07:01:46.84Z</time></trkpt><trkpt lat="42.6688319" lon="13.7666101"><ele>311.0</ele><time>2026-05-01T07:01:47.84Z</time></trkpt><trkpt lat="42.6689686" lon="13.7665054"><ele>311.0</ele><time>2026-05-01T07:01:48.839Z</time></trkpt><trkpt lat="42.6691042" lon="13.7664151"><ele>311.0</ele><time>2026-05-01T07:01:49.839Z</time></trkpt><trkpt lat="42.6692362" lon="13.7663332"><ele>311.0</ele><time>2026-05-01T07:01:50.839Z</time></trkpt><trkpt lat="42.6693525" lon="13.7662534"><ele>311.0</ele><time>2026-05-01T07:01:51.838Z</time></trkpt><trkpt lat="42.6694467" lon="13.7661565"><ele>311.0</ele><time>2026-05-01T07:01:52.839Z</time></trkpt><trkpt lat="42.6695136" lon="13.7660353"><ele>311.0</ele><time>2026-05-01T07:01:53.84Z</time></trkpt><trkpt lat="42.6695522" lon="13.7658826"><ele>311.0</ele><time>2026-05-01T07:01:54.839Z</time></trkpt><trkpt lat="42.6695634" lon="13.7657191"><ele>311.0</ele><time>2026-05-01T07:01:55.838Z</time></trkpt><trkpt lat="42.6695436" lon="13.7655389"><ele>311.0</ele><time>2026-05-01T07:01:56.839Z</time></trkpt><trkpt lat="42.6695085" lon="13.7653424"><ele>311.0</ele><time>2026-05-01T07:01:57.839Z</time></trkpt><trkpt lat="42.6694629" lon="13.7651439"><ele>311.0</ele><time>2026-05-01T07:01:58.837Z</time></trkpt><trkpt lat="42.6693978" lon="13.7649449"><ele>311.6666666666667</ele><time>2026-05-01T07:01:59.838Z</time></trkpt><trkpt lat="42.6693119" lon="13.7647494"><ele>312.3333333333333</ele><time>2026-05-01T07:02:00.837Z</time></trkpt><trkpt lat="42.6692155" lon="13.7645572"><ele>313.0</ele><time>2026-05-01T07:02:01.837Z</time></trkpt><trkpt lat="42.669114" lon="13.7643675"><ele>311.0</ele><time>2026-05-01T07:02:02.838Z</time></trkpt><trkpt lat="42.6690113" lon="13.7641823"><ele>309.0</ele><time>2026-05-01T07:02:03.837Z</time></trkpt><trkpt lat="42.6689088" lon="13.7640004"><ele>307.0</ele><time>2026-05-01T07:02:04.838Z</time></trkpt><trkpt lat="42.6688071" lon="13.763828"><ele>307.0</ele><time>2026-05-01T07:02:05.837Z</time></trkpt><trkpt lat="42.6687035" lon="13.7636633"><ele>307.0</ele><time>2026-05-01T07:02:06.837Z</time></trkpt><trkpt lat="42.6685972" lon="13.7635061"><ele>307.0</ele><time>2026-05-01T07:02:07.837Z</time></trkpt><trkpt lat="42.6684828" lon="13.7633521"><ele>309.3333333333333</ele><time>2026-05-01T07:02:08.838Z</time></trkpt><trkpt lat="42.6683612" lon="13.7631968"><ele>311.6666666666667</ele><time>2026-05-01T07:02:09.838Z</time></trkpt><trkpt lat="42.6682327" lon="13.7630419"><ele>314.0</ele><time>2026-05-01T07:02:10.837Z</time></trkpt><trkpt lat="42.6681035" lon="13.7628859"><ele>314.0</ele><time>2026-05-01T07:02:11.838Z</time></trkpt><trkpt lat="42.6679761" lon="13.7627333"><ele>314.0</ele><time>2026-05-01T07:02:12.837Z</time></trkpt><trkpt lat="42.6678579" lon="13.7625799"><ele>314.0</ele><time>2026-05-01T07:02:13.839Z</time></trkpt><trkpt lat="42.6677433" lon="13.7624202"><ele>313.6666666666667</ele><time>2026-05-01T07:02:14.838Z</time></trkpt><trkpt lat="42.6676424" lon="13.7622448"><ele>313.3333333333333</ele><time>2026-05-01T07:02:15.838Z</time></trkpt><trkpt lat="42.6675678" lon="13.7620508"><ele>313.0</ele><time>2026-05-01T07:02:16.838Z</time></trkpt><trkpt lat="42.6675084" lon="13.7618418"><ele>312.3333333333333</ele><time>2026-05-01T07:02:17.838Z</time></trkpt><trkpt lat="42.667456" lon="13.7616295"><ele>311.6666666666667</ele><time>2026-05-01T07:02:18.837Z</time></trkpt><trkpt lat="42.6674089" lon="13.7614239"><ele>311.0</ele><time>2026-05-01T07:02:19.838Z</time></trkpt><trkpt lat="42.6673457" lon="13.7612373"><ele>311.0</ele><time>2026-05-01T07:02:20.837Z</time></trkpt><trkpt lat="42.6672588" lon="13.7610472"><ele>311.0</ele><time>2026-05-01T07:02:21.837Z</time></trkpt><trkpt lat="42.6671497" lon="13.7608694"><ele>311.0</ele><time>2026-05-01T07:02:22.839Z</time></trkpt><trkpt lat="42.6670283" lon="13.7606998"><ele>309.6666666666667</ele><time>2026-05-01T07:02:23.838Z</time></trkpt><trkpt lat="42.6668982" lon="13.7605469"><ele>308.3333333333333</ele><time>2026-05-01T07:02:24.838Z</time></trkpt><trkpt lat="42.6667632" lon="13.7604157"><ele>307.0</ele><time>2026-05-01T07:02:25.839Z</time></trkpt><trkpt lat="42.6666332" lon="13.7602953"><ele>306.75</ele><time>2026-05-01T07:02:26.839Z</time></trkpt><trkpt lat="42.6665159" lon="13.7601684"><ele>306.5</ele><time>2026-05-01T07:02:27.838Z</time></trkpt><trkpt lat="42.6664153" lon="13.7600211"><ele>306.25</ele><time>2026-05-01T07:02:28.837Z</time></trkpt><trkpt lat="42.6663407" lon="13.7598461"><ele>306.0</ele><time>2026-05-01T07:02:29.838Z</time></trkpt><trkpt lat="42.6662883" lon="13.7596423"><ele>306.0</ele><time>2026-05-01T07:02:30.839Z</time></trkpt><trkpt lat="42.6662533" lon="13.7594208"><ele>306.0</ele><time>2026-05-01T07:02:31.838Z</time></trkpt><trkpt lat="42.6662142" lon="13.7591952"><ele>306.0</ele><time>2026-05-01T07:02:32.838Z</time></trkpt><trkpt lat="42.66617" lon="13.7589871"><ele>304.75</ele><time>2026-05-01T07:02:33.838Z</time></trkpt><trkpt lat="42.6661126" lon="13.7588057"><ele>303.5</ele><time>2026-05-01T07:02:34.837Z</time></trkpt><trkpt lat="42.6660265" lon="13.7586425"><ele>302.25</ele><time>2026-05-01T07:02:35.838Z</time></trkpt><trkpt lat="42.6659212" lon="13.7585027"><ele>301.0</ele><time>2026-05-01T07:02:36.839Z</time></trkpt><trkpt lat="42.6658054" lon="13.7583848"><ele>304.0</ele><time>2026-05-01T07:02:37.837Z</time></trkpt><trkpt lat="42.6656943" lon="13.7582652"><ele>307.0</ele><time>2026-05-01T07:02:38.839Z</time></trkpt><trkpt lat="42.6656048" lon="13.7581401"><ele>310.0</ele><time>2026-05-01T07:02:39.839Z</time></trkpt><trkpt lat="42.6655341" lon="13.7580042"><ele>313.0</ele><time>2026-05-01T07:02:40.837Z</time></trkpt><trkpt lat="42.6654829" lon="13.7578495"><ele>310.25</ele><time>2026-05-01T07:02:41.837Z</time></trkpt><trkpt lat="42.6654549" lon="13.7576675"><ele>307.5</ele><time>2026-05-01T07:02:42.837Z</time></trkpt><trkpt lat="42.6654405" lon="13.7574696"><ele>304.75</ele><time>2026-05-01T07:02:43.837Z</time></trkpt><trkpt lat="42.6654173" lon="13.7572626"><ele>302.0</ele><time>2026-05-01T07:02:44.839Z</time></trkpt><trkpt lat="42.6653797" lon="13.7570603"><ele>301.33333333333337</ele><time>2026-05-01T07:02:45.837Z</time></trkpt><trkpt lat="42.6653274" lon="13.7568655"><ele>300.6666666666667</ele><time>2026-05-01T07:02:46.839Z</time></trkpt><trkpt lat="42.6652633" lon="13.7566795"><ele>300.0</ele><time>2026-05-01T07:02:47.838Z</time></trkpt><trkpt lat="42.6651801" lon="13.756508"><ele>305.6666666666667</ele><time>2026-05-01T07:02:48.838Z</time></trkpt><trkpt lat="42.6650698" lon="13.7563617"><ele>311.33333333333337</ele><time>2026-05-01T07:02:49.837Z</time></trkpt><trkpt lat="42.6649487" lon="13.756244"><ele>317.0</ele><time>2026-05-01T07:02:50.839Z</time></trkpt><trkpt lat="42.6648334" lon="13.7561109"><ele>315.25</ele><time>2026-05-01T07:02:51.838Z</time></trkpt><trkpt lat="42.6647312" lon="13.7559581"><ele>313.5</ele><time>2026-05-01T07:02:52.837Z</time></trkpt><trkpt lat="42.6646575" lon="13.7557859"><ele>311.75</ele><time>2026-05-01T07:02:53.838Z</time></trkpt><trkpt lat="42.6646081" lon="13.7555933"><ele>310.0</ele><time>2026-05-01T07:02:54.838Z</time></trkpt><trkpt lat="42.6645784" lon="13.7553826"><ele>309.3333333333333</ele><time>2026-05-01T07:02:55.838Z</time></trkpt><trkpt lat="42.6645621" lon="13.7551662"><ele>308.6666666666667</ele><time>2026-05-01T07:02:56.838Z</time></trkpt><trkpt lat="42.6645572" lon="13.7549554"><ele>308.0</ele><time>2026-05-01T07:02:57.839Z</time></trkpt><trkpt lat="42.6645302" lon="13.7547499"><ele>308.0</ele><time>2026-05-01T07:02:58.838Z</time></trkpt><trkpt lat="42.6644769" lon="13.7545562"><ele>308.0</ele><time>2026-05-01T07:02:59.839Z</time></trkpt><trkpt lat="42.6643972" lon="13.7543811"><ele>308.0</ele><time>2026-05-01T07:03:00.837Z</time></trkpt><trkpt lat="42.6642896" lon="13.7542299"><ele>313.6666666666667</ele><time>2026-05-01T07:03:01.838Z</time></trkpt><trkpt lat="42.6641604" lon="13.7540977"><ele>319.3333333333333</ele><time>2026-05-01T07:03:02.838Z</time></trkpt><trkpt lat="42.6640146" lon="13.7539788"><ele>325.0</ele><time>2026-05-01T07:03:03.838Z</time></trkpt><trkpt lat="42.66386" lon="13.753864"><ele>325.0</ele><time>2026-05-01T07:03:04.838Z</time></trkpt><trkpt lat="42.663698" lon="13.7537434"><ele>325.0</ele><time>2026-05-01T07:03:05.838Z</time></trkpt><trkpt lat="42.663542" lon="13.7536167"><ele>325.0</ele><time>2026-05-01T07:03:06.837Z</time></trkpt><trkpt lat="42.6633885" lon="13.7535099"><ele>322.0</ele><time>2026-05-01T07:03:07.837Z</time></trkpt><trkpt lat="42.6632197" lon="13.7534524"><ele>319.0</ele><time>2026-05-01T07:03:08.838Z</time></trkpt><trkpt lat="42.663042" lon="13.7534283"><ele>316.0</ele><time>2026-05-01T07:03:09.837Z</time></trkpt><trkpt lat="42.6628593" lon="13.7534332"><ele>318.66666666666663</ele><time>2026-05-01T07:03:10.837Z</time></trkpt><trkpt lat="42.6626751" lon="13.753457"><ele>321.3333333333333</ele><time>2026-05-01T07:03:11.837Z</time></trkpt><trkpt lat="42.6625029" lon="13.7534852"><ele>324.0</ele><time>2026-05-01T07:03:12.839Z</time></trkpt><trkpt lat="42.6623403" lon="13.753512"><ele>323.25</ele><time>2026-05-01T07:03:13.837Z</time></trkpt><trkpt lat="42.6621883" lon="13.7535399"><ele>322.5</ele><time>2026-05-01T07:03:14.837Z</time></trkpt><trkpt lat="42.6620434" lon="13.7535597"><ele>321.75</ele><time>2026-05-01T07:03:15.837Z</time></trkpt><trkpt lat="42.6619134" lon="13.7535569"><ele>321.0</ele><time>2026-05-01T07:03:16.837Z</time></trkpt><trkpt lat="42.6618014" lon="13.7535187"><ele>321.0</ele><time>2026-05-01T07:03:17.839Z</time></trkpt><trkpt lat="42.661706" lon="13.753445"><ele>321.0</ele><time>2026-05-01T07:03:18.839Z</time></trkpt><trkpt lat="42.6616242" lon="13.7533278"><ele>321.0</ele><time>2026-05-01T07:03:19.839Z</time></trkpt><trkpt lat="42.6615494" lon="13.7531782"><ele>321.0</ele><time>2026-05-01T07:03:20.839Z</time></trkpt><trkpt lat="42.661471" lon="13.7530182"><ele>321.0</ele><time>2026-05-01T07:03:21.837Z</time></trkpt><trkpt lat="42.6613992" lon="13.7528548"><ele>321.0</ele><time>2026-05-01T07:03:22.838Z</time></trkpt><trkpt lat="42.6613546" lon="13.7526825"><ele>321.0</ele><time>2026-05-01T07:03:23.839Z</time></trkpt><trkpt lat="42.6613346" lon="13.7525072"><ele>321.0</ele><time>2026-05-01T07:03:24.839Z</time></trkpt><trkpt lat="42.6613419" lon="13.7523238"><ele>321.3333333333333</ele><time>2026-05-01T07:03:25.838Z</time></trkpt><trkpt lat="42.6613775" lon="13.7521329"><ele>321.66666666666663</ele><time>2026-05-01T07:03:26.839Z</time></trkpt><trkpt lat="42.6614327" lon="13.7519394"><ele>322.0</ele><time>2026-05-01T07:03:27.839Z</time></trkpt><trkpt lat="42.6614939" lon="13.7517473"><ele>322.0</ele><time>2026-05-01T07:03:28.839Z</time></trkpt><trkpt lat="42.6615639" lon="13.7515448"><ele>322.0</ele><time>2026-05-01T07:03:29.839Z</time></trkpt><trkpt lat="42.6616246" lon="13.7513448"><ele>322.0</ele><time>2026-05-01T07:03:30.837Z</time></trkpt><trkpt lat="42.6616715" lon="13.7511466"><ele>322.0</ele><time>2026-05-01T07:03:31.838Z</time></trkpt><trkpt lat="42.6616828" lon="13.7509446"><ele>322.0</ele><time>2026-05-01T07:03:32.839Z</time></trkpt><trkpt lat="42.6616644" lon="13.7507371"><ele>322.0</ele><time>2026-05-01T07:03:33.837Z</time></trkpt><trkpt lat="42.6616315" lon="13.7505323"><ele>322.0</ele><time>2026-05-01T07:03:34.839Z</time></trkpt><trkpt lat="42.6616166" lon="13.7503231"><ele>322.0</ele><time>2026-05-01T07:03:35.838Z</time></trkpt><trkpt lat="42.6616366" lon="13.7501155"><ele>322.0</ele><time>2026-05-01T07:03:36.837Z</time></trkpt><trkpt lat="42.661673" lon="13.749924"><ele>322.0</ele><time>2026-05-01T07:03:37.837Z</time></trkpt><trkpt lat="42.6617236" lon="13.7497491"><ele>322.0</ele><time>2026-05-01T07:03:38.839Z</time></trkpt><trkpt lat="42.6617744" lon="13.7495936"><ele>322.0</ele><time>2026-05-01T07:03:39.837Z</time></trkpt><trkpt lat="42.6618019" lon="13.7494397"><ele>322.0</ele><time>2026-05-01T07:03:40.837Z</time></trkpt><trkpt lat="42.6617944" lon="13.7492769"><ele>321.5</ele><time>2026-05-01T07:03:41.838Z</time></trkpt><trkpt lat="42.6617506" lon="13.7491108"><ele>321.0</ele><time>2026-05-01T07:03:42.839Z</time></trkpt><trkpt lat="42.6616824" lon="13.7489451"><ele>320.5</ele><time>2026-05-01T07:03:43.838Z</time></trkpt><trkpt lat="42.6616054" lon="13.7487758"><ele>320.0</ele><time>2026-05-01T07:03:44.839Z</time></trkpt><trkpt lat="42.6615269" lon="13.7486006"><ele>321.6666666666667</ele><time>2026-05-01T07:03:45.838Z</time></trkpt><trkpt lat="42.6614607" lon="13.7484119"><ele>323.3333333333333</ele><time>2026-05-01T07:03:46.837Z</time></trkpt><trkpt lat="42.6614094" lon="13.7481963"><ele>325.0</ele><time>2026-05-01T07:03:47.838Z</time></trkpt><trkpt lat="42.6613567" lon="13.7479873"><ele>325.0</ele><time>2026-05-01T07:03:48.838Z</time></trkpt><trkpt lat="42.6613508" lon="13.7477719"><ele>325.0</ele><time>2026-05-01T07:03:49.838Z</time></trkpt><trkpt lat="42.6613096" lon="13.7475785"><ele>325.0</ele><time>2026-05-01T07:03:50.839Z</time></trkpt><trkpt lat="42.6612466" lon="13.747392"><ele>326.3333333333333</ele><time>2026-05-01T07:03:51.839Z</time></trkpt><trkpt lat="42.6611574" lon="13.7472215"><ele>327.6666666666667</ele><time>2026-05-01T07:03:52.838Z</time></trkpt><trkpt lat="42.6610462" lon="13.7470752"><ele>329.0</ele><time>2026-05-01T07:03:53.838Z</time></trkpt><trkpt lat="42.6609217" lon="13.7469529"><ele>326.33333333333337</ele><time>2026-05-01T07:03:54.837Z</time></trkpt><trkpt lat="42.6607955" lon="13.746837"><ele>323.6666666666667</ele><time>2026-05-01T07:03:55.838Z</time></trkpt><trkpt lat="42.6606749" lon="13.7467018"><ele>321.0</ele><time>2026-05-01T07:03:56.839Z</time></trkpt><trkpt lat="42.6605669" lon="13.7465389"><ele>321.0</ele><time>2026-05-01T07:03:57.838Z</time></trkpt><trkpt lat="42.6604753" lon="13.7463511"><ele>321.0</ele><time>2026-05-01T07:03:58.838Z</time></trkpt><trkpt lat="42.6603899" lon="13.7461549"><ele>321.0</ele><time>2026-05-01T07:03:59.837Z</time></trkpt><trkpt lat="42.6603079" lon="13.7459695"><ele>318.75</ele><time>2026-05-01T07:04:00.837Z</time></trkpt><trkpt lat="42.6602277" lon="13.7457922"><ele>316.5</ele><time>2026-05-01T07:04:01.837Z</time></trkpt><trkpt lat="42.6601519" lon="13.7456213"><ele>314.25</ele><time>2026-05-01T07:04:02.838Z</time></trkpt><trkpt lat="42.6600902" lon="13.7454542"><ele>312.0</ele><time>2026-05-01T07:04:03.838Z</time></trkpt><trkpt lat="42.6600585" lon="13.7452804"><ele>312.25</ele><time>2026-05-01T07:04:04.837Z</time></trkpt><trkpt lat="42.6600581" lon="13.7451034"><ele>312.5</ele><time>2026-05-01T07:04:05.838Z</time></trkpt><trkpt lat="42.6600983" lon="13.744932"><ele>312.75</ele><time>2026-05-01T07:04:06.839Z</time></trkpt><trkpt lat="42.6601513" lon="13.7447661"><ele>313.0</ele><time>2026-05-01T07:04:07.838Z</time></trkpt><trkpt lat="42.6601965" lon="13.7446032"><ele>313.0</ele><time>2026-05-01T07:04:08.839Z</time></trkpt><trkpt lat="42.6602199" lon="13.7444189"><ele>313.0</ele><time>2026-05-01T07:04:09.838Z</time></trkpt><trkpt lat="42.6602103" lon="13.7442299"><ele>313.0</ele><time>2026-05-01T07:04:10.838Z</time></trkpt><trkpt lat="42.6601614" lon="13.7440435"><ele>313.0</ele><time>2026-05-01T07:04:11.838Z</time></trkpt><trkpt lat="42.6600934" lon="13.7438598"><ele>312.0</ele><time>2026-05-01T07:04:12.839Z</time></trkpt><trkpt lat="42.66003" lon="13.743663"><ele>311.0</ele><time>2026-05-01T07:04:13.839Z</time></trkpt><trkpt lat="42.6599689" lon="13.7434623"><ele>310.0</ele><time>2026-05-01T07:04:14.838Z</time></trkpt><trkpt lat="42.6599161" lon="13.7432689"><ele>310.0</ele><time>2026-05-01T07:04:15.837Z</time></trkpt><trkpt lat="42.6598542" lon="13.743079"><ele>310.0</ele><time>2026-05-01T07:04:16.838Z</time></trkpt><trkpt lat="42.6597703" lon="13.7429022"><ele>310.0</ele><time>2026-05-01T07:04:17.838Z</time></trkpt><trkpt lat="42.6596604" lon="13.7427462"><ele>309.0</ele><time>2026-05-01T07:04:18.838Z</time></trkpt><trkpt lat="42.6595339" lon="13.7426063"><ele>308.0</ele><time>2026-05-01T07:04:19.837Z</time></trkpt><trkpt lat="42.6594045" lon="13.7424736"><ele>307.0</ele><time>2026-05-01T07:04:20.837Z</time></trkpt><trkpt lat="42.6592879" lon="13.7423308"><ele>307.0</ele><time>2026-05-01T07:04:21.838Z</time></trkpt><trkpt lat="42.6591883" lon="13.7421801"><ele>307.0</ele><time>2026-05-01T07:04:22.839Z</time></trkpt><trkpt lat="42.6591077" lon="13.7420223"><ele>307.0</ele><time>2026-05-01T07:04:23.838Z</time></trkpt><trkpt lat="42.6590507" lon="13.7418503"><ele>307.0</ele><time>2026-05-01T07:04:24.837Z</time></trkpt><trkpt lat="42.6590206" lon="13.7416655"><ele>309.0</ele><time>2026-05-01T07:04:25.838Z</time></trkpt><trkpt lat="42.6590123" lon="13.7414657"><ele>311.0</ele><time>2026-05-01T07:04:26.837Z</time></trkpt><trkpt lat="42.6590231" lon="13.7412624"><ele>313.0</ele><time>2026-05-01T07:04:27.838Z</time></trkpt><trkpt lat="42.659054" lon="13.7410516"><ele>312.0</ele><time>2026-05-01T07:04:28.837Z</time></trkpt><trkpt lat="42.6591072" lon="13.7408444"><ele>311.0</ele><time>2026-05-01T07:04:29.839Z</time></trkpt><trkpt lat="42.6591888" lon="13.7406478"><ele>310.0</ele><time>2026-05-01T07:04:30.839Z</time></trkpt><trkpt lat="42.6592902" lon="13.7404679"><ele>310.0</ele><time>2026-05-01T07:04:31.837Z</time></trkpt><trkpt lat="42.659409" lon="13.7402983"><ele>310.0</ele><time>2026-05-01T07:04:32.837Z</time></trkpt><trkpt lat="42.6595352" lon="13.7401306"><ele>310.0</ele><time>2026-05-01T07:04:33.838Z</time></trkpt><trkpt lat="42.6596599" lon="13.7399572"><ele>309.66666666666663</ele><time>2026-05-01T07:04:34.837Z</time></trkpt><trkpt lat="42.6597714" lon="13.7397556"><ele>309.3333333333333</ele><time>2026-05-01T07:04:35.838Z</time></trkpt><trkpt lat="42.6598718" lon="13.7395372"><ele>309.0</ele><time>2026-05-01T07:04:36.838Z</time></trkpt><trkpt lat="42.6599644" lon="13.7393072"><ele>309.0</ele><time>2026-05-01T07:04:37.838Z</time></trkpt><trkpt lat="42.6600438" lon="13.7390699"><ele>309.0</ele><time>2026-05-01T07:04:38.838Z</time></trkpt><trkpt lat="42.660116" lon="13.7388332"><ele>309.0</ele><time>2026-05-01T07:04:39.837Z</time></trkpt><trkpt lat="42.6601732" lon="13.7386151"><ele>310.3333333333333</ele><time>2026-05-01T07:04:40.838Z</time></trkpt><trkpt lat="42.6602057" lon="13.7384022"><ele>311.66666666666663</ele><time>2026-05-01T07:04:41.838Z</time></trkpt><trkpt lat="42.6602114" lon="13.738193"><ele>313.0</ele><time>2026-05-01T07:04:42.838Z</time></trkpt><trkpt lat="42.6601925" lon="13.7379816"><ele>313.0</ele><time>2026-05-01T07:04:43.839Z</time></trkpt><trkpt lat="42.6601477" lon="13.7377828"><ele>313.0</ele><time>2026-05-01T07:04:44.838Z</time></trkpt><trkpt lat="42.6600735" lon="13.7375988"><ele>313.0</ele><time>2026-05-01T07:04:45.839Z</time></trkpt><trkpt lat="42.6599752" lon="13.7374206"><ele>314.66666666666663</ele><time>2026-05-01T07:04:46.837Z</time></trkpt><trkpt lat="42.6598676" lon="13.7372486"><ele>316.3333333333333</ele><time>2026-05-01T07:04:47.838Z</time></trkpt><trkpt lat="42.6597511" lon="13.737081"><ele>318.0</ele><time>2026-05-01T07:04:48.838Z</time></trkpt><trkpt lat="42.6596379" lon="13.7369224"><ele>321.3333333333333</ele><time>2026-05-01T07:04:49.838Z</time></trkpt><trkpt lat="42.6595307" lon="13.7367676"><ele>324.66666666666663</ele><time>2026-05-01T07:04:50.838Z</time></trkpt><trkpt lat="42.6594366" lon="13.7366119"><ele>328.0</ele><time>2026-05-01T07:04:51.838Z</time></trkpt><trkpt lat="42.6593634" lon="13.7364389"><ele>328.0</ele><time>2026-05-01T07:04:52.838Z</time></trkpt><trkpt lat="42.6593018" lon="13.7362567"><ele>328.0</ele><time>2026-05-01T07:04:53.837Z</time></trkpt><trkpt lat="42.6592487" lon="13.736086"><ele>328.0</ele><time>2026-05-01T07:04:54.839Z</time></trkpt><trkpt lat="42.6591859" lon="13.7359299"><ele>328.0</ele><time>2026-05-01T07:04:55.837Z</time></trkpt><trkpt lat="42.6590993" lon="13.735796"><ele>326.5</ele><time>2026-05-01T07:04:56.837Z</time></trkpt><trkpt lat="42.6589911" lon="13.7356862"><ele>325.0</ele><time>2026-05-01T07:04:57.837Z</time></trkpt><trkpt lat="42.65888" lon="13.7355806"><ele>323.5</ele><time>2026-05-01T07:04:58.837Z</time></trkpt><trkpt lat="42.6587794" lon="13.7354562"><ele>322.0</ele><time>2026-05-01T07:04:59.837Z</time></trkpt><trkpt lat="42.6586935" lon="13.7353181"><ele>319.75</ele><time>2026-05-01T07:05:00.838Z</time></trkpt><trkpt lat="42.6586301" lon="13.7351653"><ele>317.5</ele><time>2026-05-01T07:05:01.838Z</time></trkpt><trkpt lat="42.6585964" lon="13.7350108"><ele>315.25</ele><time>2026-05-01T07:05:02.838Z</time></trkpt><trkpt lat="42.6585766" lon="13.7348474"><ele>313.0</ele><time>2026-05-01T07:05:03.838Z</time></trkpt><trkpt lat="42.6585823" lon="13.7346713"><ele>318.0</ele><time>2026-05-01T07:05:04.838Z</time></trkpt><trkpt lat="42.6586026" lon="13.7345042"><ele>323.0</ele><time>2026-05-01T07:05:05.837Z</time></trkpt><trkpt lat="42.6586101" lon="13.7343458"><ele>328.0</ele><time>2026-05-01T07:05:06.838Z</time></trkpt><trkpt lat="42.6586009" lon="13.7341979"><ele>333.0</ele><time>2026-05-01T07:05:07.838Z</time></trkpt><trkpt lat="42.6585625" lon="13.7340505"><ele>333.5</ele><time>2026-05-01T07:05:08.838Z</time></trkpt><trkpt lat="42.6584889" lon="13.7339043"><ele>334.0</ele><time>2026-05-01T07:05:09.838Z</time></trkpt><trkpt lat="42.6583866" lon="13.7337657"><ele>334.5</ele><time>2026-05-01T07:05:10.839Z</time></trkpt><trkpt lat="42.658258" lon="13.733642"><ele>335.0</ele><time>2026-05-01T07:05:11.838Z</time></trkpt><trkpt lat="42.6581408" lon="13.733473"><ele>331.6666666666667</ele><time>2026-05-01T07:05:12.837Z</time></trkpt><trkpt lat="42.6580345" lon="13.7332874"><ele>328.3333333333333</ele><time>2026-05-01T07:05:13.837Z</time></trkpt><trkpt lat="42.6579338" lon="13.7331215"><ele>325.0</ele><time>2026-05-01T07:05:14.838Z</time></trkpt><trkpt lat="42.6578342" lon="13.7329654"><ele>326.5</ele><time>2026-05-01T07:05:15.838Z</time></trkpt><trkpt lat="42.6577357" lon="13.7328335"><ele>328.0</ele><time>2026-05-01T07:05:16.838Z</time></trkpt><trkpt lat="42.6576315" lon="13.7327308"><ele>329.5</ele><time>2026-05-01T07:05:17.837Z</time></trkpt><trkpt lat="42.6575249" lon="13.7326657"><ele>331.0</ele><time>2026-05-01T07:05:18.839Z</time></trkpt><trkpt lat="42.6574118" lon="13.7326394"><ele>331.0</ele><time>2026-05-01T07:05:19.838Z</time></trkpt><trkpt lat="42.6572877" lon="13.732664"><ele>331.0</ele><time>2026-05-01T07:05:20.838Z</time></trkpt><trkpt lat="42.657167" lon="13.732713"><ele>331.0</ele><time>2026-05-01T07:05:21.838Z</time></trkpt><trkpt lat="42.6570492" lon="13.7327627"><ele>331.0</ele><time>2026-05-01T07:05:22.838Z</time></trkpt><trkpt lat="42.656928" lon="13.732774"><ele>333.75</ele><time>2026-05-01T07:05:23.836Z</time></trkpt><trkpt lat="42.6568075" lon="13.73275"><ele>336.5</ele><time>2026-05-01T07:05:24.837Z</time></trkpt><trkpt lat="42.6566875" lon="13.732688"><ele>339.25</ele><time>2026-05-01T07:05:25.837Z</time></trkpt><trkpt lat="42.6565657" lon="13.7325892"><ele>342.0</ele><time>2026-05-01T07:05:26.837Z</time></trkpt><trkpt lat="42.6564422" lon="13.7324761"><ele>342.0</ele><time>2026-05-01T07:05:27.838Z</time></trkpt><trkpt lat="42.6563094" lon="13.7323521"><ele>342.0</ele><time>2026-05-01T07:05:28.836Z</time></trkpt><trkpt lat="42.6561796" lon="13.7322151"><ele>342.0</ele><time>2026-05-01T07:05:29.837Z</time></trkpt><trkpt lat="42.6560556" lon="13.732064"><ele>343.3333333333333</ele><time>2026-05-01T07:05:30.837Z</time></trkpt><trkpt lat="42.6559405" lon="13.7318981"><ele>344.66666666666663</ele><time>2026-05-01T07:05:31.838Z</time></trkpt><trkpt lat="42.6558352" lon="13.7317095"><ele>346.0</ele><time>2026-05-01T07:05:32.838Z</time></trkpt><trkpt lat="42.6557352" lon="13.7315173"><ele>346.0</ele><time>2026-05-01T07:05:33.836Z</time></trkpt><trkpt lat="42.6556333" lon="13.7313193"><ele>346.0</ele><time>2026-05-01T07:05:34.838Z</time></trkpt><trkpt lat="42.6555253" lon="13.7311165"><ele>346.0</ele><time>2026-05-01T07:05:35.838Z</time></trkpt><trkpt lat="42.6554221" lon="13.7309081"><ele>343.66666666666663</ele><time>2026-05-01T07:05:36.838Z</time></trkpt><trkpt lat="42.6553246" lon="13.7306987"><ele>341.3333333333333</ele><time>2026-05-01T07:05:37.837Z</time></trkpt><trkpt lat="42.6552398" lon="13.7304843"><ele>339.0</ele><time>2026-05-01T07:05:38.837Z</time></trkpt><trkpt lat="42.6551577" lon="13.730287"><ele>343.3333333333333</ele><time>2026-05-01T07:05:39.836Z</time></trkpt><trkpt lat="42.6550767" lon="13.7300958"><ele>347.66666666666663</ele><time>2026-05-01T07:05:40.837Z</time></trkpt><trkpt lat="42.6549739" lon="13.7299147"><ele>352.0</ele><time>2026-05-01T07:05:41.837Z</time></trkpt><trkpt lat="42.6548423" lon="13.7297524"><ele>352.0</ele><time>2026-05-01T07:05:42.836Z</time></trkpt><trkpt lat="42.6546944" lon="13.7296044"><ele>352.0</ele><time>2026-05-01T07:05:43.837Z</time></trkpt><trkpt lat="42.6545502" lon="13.7294677"><ele>352.0</ele><time>2026-05-01T07:05:44.836Z</time></trkpt><trkpt lat="42.6544026" lon="13.7293532"><ele>352.75</ele><time>2026-05-01T07:05:45.836Z</time></trkpt><trkpt lat="42.6542644" lon="13.7292412"><ele>353.5</ele><time>2026-05-01T07:05:46.837Z</time></trkpt><trkpt lat="42.6541388" lon="13.7291381"><ele>354.25</ele><time>2026-05-01T07:05:47.837Z</time></trkpt><trkpt lat="42.6540228" lon="13.7290333"><ele>355.0</ele><time>2026-05-01T07:05:48.837Z</time></trkpt><trkpt lat="42.6539273" lon="13.7289272"><ele>355.0</ele><time>2026-05-01T07:05:49.836Z</time></trkpt><trkpt lat="42.6538524" lon="13.7288226"><ele>355.0</ele><time>2026-05-01T07:05:50.837Z</time></trkpt><trkpt lat="42.6537873" lon="13.7287349"><ele>355.0</ele><time>2026-05-01T07:05:51.837Z</time></trkpt><trkpt lat="42.6537389" lon="13.7286637"><ele>355.0</ele><time>2026-05-01T07:05:52.836Z</time></trkpt><trkpt lat="42.6536963" lon="13.728584"><ele>355.0</ele><time>2026-05-01T07:05:53.837Z</time></trkpt><trkpt lat="42.6536425" lon="13.7284719"><ele>355.0</ele><time>2026-05-01T07:05:54.836Z</time></trkpt><trkpt lat="42.6535811" lon="13.7283419"><ele>354.75</ele><time>2026-05-01T07:05:55.836Z</time></trkpt><trkpt lat="42.6535152" lon="13.7281947"><ele>354.5</ele><time>2026-05-01T07:05:56.836Z</time></trkpt><trkpt lat="42.6534394" lon="13.7280259"><ele>354.25</ele><time>2026-05-01T07:05:57.836Z</time></trkpt><trkpt lat="42.6533562" lon="13.7278443"><ele>354.0</ele><time>2026-05-01T07:05:58.837Z</time></trkpt><trkpt lat="42.653259" lon="13.7276583"><ele>354.0</ele><time>2026-05-01T07:05:59.838Z</time></trkpt><trkpt lat="42.6531384" lon="13.7274684"><ele>354.0</ele><time>2026-05-01T07:06:00.837Z</time></trkpt><trkpt lat="42.653009" lon="13.7272801"><ele>354.0</ele><time>2026-05-01T07:06:01.838Z</time></trkpt><trkpt lat="42.6528802" lon="13.727079"><ele>351.6666666666667</ele><time>2026-05-01T07:06:02.837Z</time></trkpt><trkpt lat="42.652758" lon="13.7268512"><ele>349.33333333333337</ele><time>2026-05-01T07:06:03.838Z</time></trkpt><trkpt lat="42.6526456" lon="13.7265998"><ele>347.0</ele><time>2026-05-01T07:06:04.836Z</time></trkpt><trkpt lat="42.6525485" lon="13.7263451"><ele>347.0</ele><time>2026-05-01T07:06:05.836Z</time></trkpt><trkpt lat="42.6524566" lon="13.7260815"><ele>347.0</ele><time>2026-05-01T07:06:06.837Z</time></trkpt><trkpt lat="42.6523628" lon="13.7258154"><ele>347.0</ele><time>2026-05-01T07:06:07.837Z</time></trkpt><trkpt lat="42.6522662" lon="13.725545"><ele>347.6666666666667</ele><time>2026-05-01T07:06:08.837Z</time></trkpt><trkpt lat="42.6521619" lon="13.7252783"><ele>348.3333333333333</ele><time>2026-05-01T07:06:09.836Z</time></trkpt><trkpt lat="42.6520556" lon="13.7250113"><ele>349.0</ele><time>2026-05-01T07:06:10.836Z</time></trkpt><trkpt lat="42.6519433" lon="13.7247592"><ele>346.66666666666663</ele><time>2026-05-01T07:06:11.836Z</time></trkpt><trkpt lat="42.6518273" lon="13.724516"><ele>344.3333333333333</ele><time>2026-05-01T07:06:12.837Z</time></trkpt><trkpt lat="42.6517132" lon="13.7242832"><ele>342.0</ele><time>2026-05-01T07:06:13.837Z</time></trkpt><trkpt lat="42.6516007" lon="13.7240613"><ele>342.0</ele><time>2026-05-01T07:06:14.838Z</time></trkpt><trkpt lat="42.6514817" lon="13.7238535"><ele>342.0</ele><time>2026-05-01T07:06:15.838Z</time></trkpt><trkpt lat="42.6513426" lon="13.723669"><ele>342.0</ele><time>2026-05-01T07:06:16.838Z</time></trkpt><trkpt lat="42.6511873" lon="13.7235099"><ele>343.6666666666667</ele><time>2026-05-01T07:06:17.837Z</time></trkpt><trkpt lat="42.6510288" lon="13.7233484"><ele>345.33333333333337</ele><time>2026-05-01T07:06:18.837Z</time></trkpt><trkpt lat="42.6508853" lon="13.7231616"><ele>347.0</ele><time>2026-05-01T07:06:19.837Z</time></trkpt><trkpt lat="42.6507567" lon="13.7229464"><ele>343.6666666666667</ele><time>2026-05-01T07:06:20.837Z</time></trkpt><trkpt lat="42.6506476" lon="13.722704"><ele>340.3333333333333</ele><time>2026-05-01T07:06:21.838Z</time></trkpt><trkpt lat="42.6505489" lon="13.722452"><ele>337.0</ele><time>2026-05-01T07:06:22.837Z</time></trkpt><trkpt lat="42.6504579" lon="13.7221953"><ele>337.0</ele><time>2026-05-01T07:06:23.837Z</time></trkpt><trkpt lat="42.6503676" lon="13.7219428"><ele>337.0</ele><time>2026-05-01T07:06:24.838Z</time></trkpt><trkpt lat="42.65028" lon="13.7217065"><ele>337.0</ele><time>2026-05-01T07:06:25.837Z</time></trkpt><trkpt lat="42.6501929" lon="13.7214849"><ele>337.3333333333333</ele><time>2026-05-01T07:06:26.836Z</time></trkpt><trkpt lat="42.6501059" lon="13.7212744"><ele>337.6666666666667</ele><time>2026-05-01T07:06:27.836Z</time></trkpt><trkpt lat="42.6500173" lon="13.7210715"><ele>338.0</ele><time>2026-05-01T07:06:28.837Z</time></trkpt><trkpt lat="42.6499357" lon="13.720873"><ele>338.0</ele><time>2026-05-01T07:06:29.836Z</time></trkpt><trkpt lat="42.6498659" lon="13.7206696"><ele>338.0</ele><time>2026-05-01T07:06:30.837Z</time></trkpt><trkpt lat="42.6498131" lon="13.7204677"><ele>338.0</ele><time>2026-05-01T07:06:31.837Z</time></trkpt><trkpt lat="42.6497781" lon="13.7202768"><ele>336.5</ele><time>2026-05-01T07:06:32.837Z</time></trkpt><trkpt lat="42.6497655" lon="13.7200912"><ele>335.0</ele><time>2026-05-01T07:06:33.838Z</time></trkpt><trkpt lat="42.6497827" lon="13.7198935"><ele>333.5</ele><time>2026-05-01T07:06:34.837Z</time></trkpt><trkpt lat="42.6498157" lon="13.7196811"><ele>332.0</ele><time>2026-05-01T07:06:35.836Z</time></trkpt><trkpt lat="42.6498501" lon="13.7194524"><ele>333.0</ele><time>2026-05-01T07:06:36.836Z</time></trkpt><trkpt lat="42.6498984" lon="13.7192105"><ele>334.0</ele><time>2026-05-01T07:06:37.837Z</time></trkpt><trkpt lat="42.649956" lon="13.7189665"><ele>335.0</ele><time>2026-05-01T07:06:38.837Z</time></trkpt><trkpt lat="42.6500173" lon="13.7187223"><ele>337.6666666666667</ele><time>2026-05-01T07:06:39.837Z</time></trkpt><trkpt lat="42.6500741" lon="13.7184724"><ele>340.3333333333333</ele><time>2026-05-01T07:06:40.838Z</time></trkpt><trkpt lat="42.6501335" lon="13.7182214"><ele>343.0</ele><time>2026-05-01T07:06:41.837Z</time></trkpt><trkpt lat="42.6501852" lon="13.7179663"><ele>343.3333333333333</ele><time>2026-05-01T07:06:42.837Z</time></trkpt><trkpt lat="42.6502246" lon="13.7177019"><ele>343.6666666666667</ele><time>2026-05-01T07:06:43.837Z</time></trkpt><trkpt lat="42.6502479" lon="13.7174448"><ele>344.0</ele><time>2026-05-01T07:06:44.836Z</time></trkpt><trkpt lat="42.6502607" lon="13.7171992"><ele>344.0</ele><time>2026-05-01T07:06:45.837Z</time></trkpt><trkpt lat="42.650275" lon="13.7169647"><ele>344.0</ele><time>2026-05-01T07:06:46.838Z</time></trkpt><trkpt lat="42.650284" lon="13.7167495"><ele>344.0</ele><time>2026-05-01T07:06:47.838Z</time></trkpt><trkpt lat="42.6502809" lon="13.7165546"><ele>343.75</ele><time>2026-05-01T07:06:48.836Z</time></trkpt><trkpt lat="42.6502555" lon="13.7163809"><ele>343.5</ele><time>2026-05-01T07:06:49.836Z</time></trkpt><trkpt lat="42.6502022" lon="13.7162175"><ele>343.25</ele><time>2026-05-01T07:06:50.838Z</time></trkpt><trkpt lat="42.6501277" lon="13.7160602"><ele>343.0</ele><time>2026-05-01T07:06:51.836Z</time></trkpt><trkpt lat="42.6500463" lon="13.7158952"><ele>343.0</ele><time>2026-05-01T07:06:52.836Z</time></trkpt><trkpt lat="42.649975" lon="13.7157096"><ele>343.0</ele><time>2026-05-01T07:06:53.838Z</time></trkpt><trkpt lat="42.6499327" lon="13.7155007"><ele>343.0</ele><time>2026-05-01T07:06:54.838Z</time></trkpt><trkpt lat="42.6499117" lon="13.7152746"><ele>341.66666666666663</ele><time>2026-05-01T07:06:55.837Z</time></trkpt><trkpt lat="42.6498973" lon="13.7150467"><ele>340.3333333333333</ele><time>2026-05-01T07:06:56.837Z</time></trkpt><trkpt lat="42.6498801" lon="13.7148337"><ele>339.0</ele><time>2026-05-01T07:06:57.838Z</time></trkpt><trkpt lat="42.6498361" lon="13.714627"><ele>339.0</ele><time>2026-05-01T07:06:58.836Z</time></trkpt><trkpt lat="42.6497555" lon="13.7144411"><ele>339.0</ele><time>2026-05-01T07:06:59.836Z</time></trkpt><trkpt lat="42.6496625" lon="13.7142571"><ele>339.0</ele><time>2026-05-01T07:07:00.836Z</time></trkpt><trkpt lat="42.6495663" lon="13.7140627"><ele>338.3333333333333</ele><time>2026-05-01T07:07:01.837Z</time></trkpt><trkpt lat="42.6494823" lon="13.7138647"><ele>337.66666666666663</ele><time>2026-05-01T07:07:02.837Z</time></trkpt><trkpt lat="42.6493936" lon="13.7136826"><ele>337.0</ele><time>2026-05-01T07:07:03.837Z</time></trkpt><trkpt lat="42.6492888" lon="13.7135276"><ele>337.0</ele><time>2026-05-01T07:07:04.837Z</time></trkpt><trkpt lat="42.6491646" lon="13.7134066"><ele>337.0</ele><time>2026-05-01T07:07:05.838Z</time></trkpt><trkpt lat="42.6490212" lon="13.7133166"><ele>337.0</ele><time>2026-05-01T07:07:06.838Z</time></trkpt><trkpt lat="42.6488834" lon="13.713227"><ele>337.0</ele><time>2026-05-01T07:07:07.836Z</time></trkpt><trkpt lat="42.6487586" lon="13.7131132"><ele>337.0</ele><time>2026-05-01T07:07:08.838Z</time></trkpt><trkpt lat="42.6486553" lon="13.7129739"><ele>337.0</ele><time>2026-05-01T07:07:09.838Z</time></trkpt><trkpt lat="42.6485768" lon="13.7128167"><ele>337.0</ele><time>2026-05-01T07:07:10.838Z</time></trkpt><trkpt lat="42.6485263" lon="13.712631"><ele>341.66666666666663</ele><time>2026-05-01T07:07:11.837Z</time></trkpt><trkpt lat="42.6485061" lon="13.7124303"><ele>346.3333333333333</ele><time>2026-05-01T07:07:12.837Z</time></trkpt><trkpt lat="42.6485179" lon="13.7122198"><ele>351.0</ele><time>2026-05-01T07:07:13.837Z</time></trkpt><trkpt lat="42.6485539" lon="13.7120017"><ele>352.0</ele><time>2026-05-01T07:07:14.837Z</time></trkpt><trkpt lat="42.6485937" lon="13.7117659"><ele>353.0</ele><time>2026-05-01T07:07:15.838Z</time></trkpt><trkpt lat="42.6486348" lon="13.7115077"><ele>354.0</ele><time>2026-05-01T07:07:16.836Z</time></trkpt><trkpt lat="42.6486797" lon="13.7112475"><ele>346.0</ele><time>2026-05-01T07:07:17.836Z</time></trkpt><trkpt lat="42.6487239" lon="13.7109831"><ele>338.0</ele><time>2026-05-01T07:07:18.836Z</time></trkpt><trkpt lat="42.6487803" lon="13.7107227"><ele>330.0</ele><time>2026-05-01T07:07:19.837Z</time></trkpt><trkpt lat="42.6488585" lon="13.7104732"><ele>330.0</ele><time>2026-05-01T07:07:20.836Z</time></trkpt><trkpt lat="42.6489605" lon="13.7102438"><ele>330.0</ele><time>2026-05-01T07:07:21.838Z</time></trkpt><trkpt lat="42.649088" lon="13.7100375"><ele>330.0</ele><time>2026-05-01T07:07:22.837Z</time></trkpt><trkpt lat="42.649231" lon="13.7098504"><ele>329.0</ele><time>2026-05-01T07:07:23.837Z</time></trkpt><trkpt lat="42.6493824" lon="13.7096652"><ele>328.0</ele><time>2026-05-01T07:07:24.837Z</time></trkpt><trkpt lat="42.6495134" lon="13.7094605"><ele>327.0</ele><time>2026-05-01T07:07:25.836Z</time></trkpt><trkpt lat="42.6496361" lon="13.7092474"><ele>327.0</ele><time>2026-05-01T07:07:26.837Z</time></trkpt><trkpt lat="42.649733" lon="13.7090126"><ele>327.0</ele><time>2026-05-01T07:07:27.838Z</time></trkpt><trkpt lat="42.6498124" lon="13.7087495"><ele>327.0</ele><time>2026-05-01T07:07:28.838Z</time></trkpt><trkpt lat="42.6499071" lon="13.7084987"><ele>328.0</ele><time>2026-05-01T07:07:29.837Z</time></trkpt><trkpt lat="42.6499938" lon="13.7082606"><ele>329.0</ele><time>2026-05-01T07:07:30.838Z</time></trkpt><trkpt lat="42.6500802" lon="13.7080264"><ele>330.0</ele><time>2026-05-01T07:07:31.837Z</time></trkpt><trkpt lat="42.6501642" lon="13.7077983"><ele>331.3333333333333</ele><time>2026-05-01T07:07:32.837Z</time></trkpt><trkpt lat="42.650232" lon="13.7075594"><ele>332.66666666666663</ele><time>2026-05-01T07:07:33.837Z</time></trkpt><trkpt lat="42.6502684" lon="13.7073085"><ele>334.0</ele><time>2026-05-01T07:07:34.837Z</time></trkpt><trkpt lat="42.6502825" lon="13.7070575"><ele>333.0</ele><time>2026-05-01T07:07:35.836Z</time></trkpt><trkpt lat="42.650286" lon="13.7068041"><ele>332.0</ele><time>2026-05-01T07:07:36.837Z</time></trkpt><trkpt lat="42.650294" lon="13.7065469"><ele>331.0</ele><time>2026-05-01T07:07:37.836Z</time></trkpt><trkpt lat="42.6503423" lon="13.7062892"><ele>324.0</ele><time>2026-05-01T07:07:38.837Z</time></trkpt><trkpt lat="42.6503758" lon="13.7060354"><ele>317.0</ele><time>2026-05-01T07:07:39.837Z</time></trkpt><trkpt lat="42.6504141" lon="13.705782"><ele>310.0</ele><time>2026-05-01T07:07:40.837Z</time></trkpt><trkpt lat="42.6504664" lon="13.7055368"><ele>310.0</ele><time>2026-05-01T07:07:41.837Z</time></trkpt><trkpt lat="42.6505341" lon="13.7053022"><ele>310.0</ele><time>2026-05-01T07:07:42.837Z</time></trkpt><trkpt lat="42.6506057" lon="13.7050775"><ele>310.0</ele><time>2026-05-01T07:07:43.837Z</time></trkpt><trkpt lat="42.6506811" lon="13.7048556"><ele>311.66666666666663</ele><time>2026-05-01T07:07:44.838Z</time></trkpt><trkpt lat="42.6507542" lon="13.7046224"><ele>313.3333333333333</ele><time>2026-05-01T07:07:45.836Z</time></trkpt><trkpt lat="42.6508299" lon="13.7044238"><ele>315.0</ele><time>2026-05-01T07:07:46.836Z</time></trkpt><trkpt lat="42.6508884" lon="13.7042322"><ele>315.75</ele><time>2026-05-01T07:07:47.836Z</time></trkpt><trkpt lat="42.6509436" lon="13.7040582"><ele>316.5</ele><time>2026-05-01T07:07:48.836Z</time></trkpt><trkpt lat="42.6509896" lon="13.703898"><ele>317.25</ele><time>2026-05-01T07:07:49.838Z</time></trkpt><trkpt lat="42.6510343" lon="13.7037434"><ele>318.0</ele><time>2026-05-01T07:07:50.836Z</time></trkpt><trkpt lat="42.6510737" lon="13.703614"><ele>319.5</ele><time>2026-05-01T07:07:51.837Z</time></trkpt><trkpt lat="42.6511108" lon="13.7035107"><ele>321.0</ele><time>2026-05-01T07:07:52.836Z</time></trkpt><trkpt lat="42.6511592" lon="13.7034329"><ele>322.5</ele><time>2026-05-01T07:07:53.837Z</time></trkpt><trkpt lat="42.6512235" lon="13.7034056"><ele>324.0</ele><time>2026-05-01T07:07:54.838Z</time></trkpt><trkpt lat="42.6512873" lon="13.7034322"><ele>325.5</ele><time>2026-05-01T07:07:55.837Z</time></trkpt><trkpt lat="42.6513377" lon="13.7035103"><ele>327.0</ele><time>2026-05-01T07:07:56.837Z</time></trkpt><trkpt lat="42.6513795" lon="13.7036335"><ele>320.75</ele><time>2026-05-01T07:07:57.837Z</time></trkpt><trkpt lat="42.6514339" lon="13.7037913"><ele>314.5</ele><time>2026-05-01T07:07:58.837Z</time></trkpt><trkpt lat="42.6515069" lon="13.7039569"><ele>308.25</ele><time>2026-05-01T07:07:59.836Z</time></trkpt><trkpt lat="42.6516025" lon="13.7041128"><ele>302.0</ele><time>2026-05-01T07:08:00.837Z</time></trkpt><trkpt lat="42.6516959" lon="13.7042582"><ele>302.0</ele><time>2026-05-01T07:08:01.837Z</time></trkpt><trkpt lat="42.6517961" lon="13.7043956"><ele>302.0</ele><time>2026-05-01T07:08:02.836Z</time></trkpt><trkpt lat="42.6518943" lon="13.7045282"><ele>302.0</ele><time>2026-05-01T07:08:03.836Z</time></trkpt><trkpt lat="42.6519863" lon="13.7046522"><ele>302.0</ele><time>2026-05-01T07:08:04.836Z</time></trkpt><trkpt lat="42.6520784" lon="13.7047547"><ele>299.6</ele><time>2026-05-01T07:08:05.837Z</time></trkpt><trkpt lat="42.6521758" lon="13.7048267"><ele>297.2</ele><time>2026-05-01T07:08:06.837Z</time></trkpt><trkpt lat="42.6522744" lon="13.70486"><ele>294.8</ele><time>2026-05-01T07:08:07.838Z</time></trkpt><trkpt lat="42.6523696" lon="13.7048403"><ele>292.4</ele><time>2026-05-01T07:08:08.837Z</time></trkpt><trkpt lat="42.6524511" lon="13.7047747"><ele>290.0</ele><time>2026-05-01T07:08:09.837Z</time></trkpt><trkpt lat="42.6525183" lon="13.7046723"><ele>290.0</ele><time>2026-05-01T07:08:10.837Z</time></trkpt><trkpt lat="42.6525556" lon="13.7045395"><ele>290.0</ele><time>2026-05-01T07:08:11.837Z</time></trkpt><trkpt lat="42.6525556" lon="13.7043863"><ele>290.0</ele><time>2026-05-01T07:08:12.837Z</time></trkpt><trkpt lat="42.6525154" lon="13.7042332"><ele>290.0</ele><time>2026-05-01T07:08:13.836Z</time></trkpt><trkpt lat="42.6524448" lon="13.7040762"><ele>289.75</ele><time>2026-05-01T07:08:14.837Z</time></trkpt><trkpt lat="42.6523653" lon="13.703917"><ele>289.5</ele><time>2026-05-01T07:08:15.837Z</time></trkpt><trkpt lat="42.6522852" lon="13.7037464"><ele>289.25</ele><time>2026-05-01T07:08:16.837Z</time></trkpt><trkpt lat="42.6522085" lon="13.7035798"><ele>289.0</ele><time>2026-05-01T07:08:17.838Z</time></trkpt><trkpt lat="42.6521266" lon="13.7034331"><ele>286.75</ele><time>2026-05-01T07:08:18.838Z</time></trkpt><trkpt lat="42.6520563" lon="13.7032911"><ele>284.5</ele><time>2026-05-01T07:08:19.838Z</time></trkpt><trkpt lat="42.6520064" lon="13.7031509"><ele>282.25</ele><time>2026-05-01T07:08:20.837Z</time></trkpt><trkpt lat="42.6519854" lon="13.7030015"><ele>280.0</ele><time>2026-05-01T07:08:21.837Z</time></trkpt><trkpt lat="42.6519942" lon="13.7028585"><ele>281.0</ele><time>2026-05-01T07:08:22.837Z</time></trkpt><trkpt lat="42.6520333" lon="13.7027268"><ele>282.0</ele><time>2026-05-01T07:08:23.836Z</time></trkpt><trkpt lat="42.652106" lon="13.7026131"><ele>283.0</ele><time>2026-05-01T07:08:24.837Z</time></trkpt><trkpt lat="42.6522131" lon="13.702525"><ele>284.0</ele><time>2026-05-01T07:08:25.838Z</time></trkpt><trkpt lat="42.652345" lon="13.7024652"><ele>284.0</ele><time>2026-05-01T07:08:26.838Z</time></trkpt><trkpt lat="42.6524883" lon="13.702414"><ele>284.0</ele><time>2026-05-01T07:08:27.837Z</time></trkpt><trkpt lat="42.6526229" lon="13.7023353"><ele>284.0</ele><time>2026-05-01T07:08:28.837Z</time></trkpt><trkpt lat="42.6527471" lon="13.7022268"><ele>284.0</ele><time>2026-05-01T07:08:29.838Z</time></trkpt><trkpt lat="42.652862" lon="13.7020831"><ele>278.33333333333337</ele><time>2026-05-01T07:08:30.838Z</time></trkpt><trkpt lat="42.6529584" lon="13.7018956"><ele>272.6666666666667</ele><time>2026-05-01T07:08:31.836Z</time></trkpt><trkpt lat="42.6530463" lon="13.7016855"><ele>267.0</ele><time>2026-05-01T07:08:32.837Z</time></trkpt><trkpt lat="42.6531275" lon="13.7014598"><ele>267.0</ele><time>2026-05-01T07:08:33.837Z</time></trkpt><trkpt lat="42.6532043" lon="13.7012481"><ele>267.0</ele><time>2026-05-01T07:08:34.837Z</time></trkpt><trkpt lat="42.6532731" lon="13.7010381"><ele>267.0</ele><time>2026-05-01T07:08:35.837Z</time></trkpt><trkpt lat="42.6533407" lon="13.7008314"><ele>269.3333333333333</ele><time>2026-05-01T07:08:36.837Z</time></trkpt><trkpt lat="42.653426" lon="13.7006436"><ele>271.66666666666663</ele><time>2026-05-01T07:08:37.836Z</time></trkpt><trkpt lat="42.6535368" lon="13.7004716"><ele>274.0</ele><time>2026-05-01T07:08:38.837Z</time></trkpt><trkpt lat="42.6536661" lon="13.7003286"><ele>270.0</ele><time>2026-05-01T07:08:39.837Z</time></trkpt><trkpt lat="42.6538135" lon="13.7001988"><ele>266.0</ele><time>2026-05-01T07:08:40.837Z</time></trkpt><trkpt lat="42.6539589" lon="13.7000611"><ele>262.0</ele><time>2026-05-01T07:08:41.836Z</time></trkpt><trkpt lat="42.6540983" lon="13.6998958"><ele>262.0</ele><time>2026-05-01T07:08:42.837Z</time></trkpt><trkpt lat="42.6542245" lon="13.6997088"><ele>262.0</ele><time>2026-05-01T07:08:43.837Z</time></trkpt><trkpt lat="42.6543311" lon="13.6995032"><ele>262.0</ele><time>2026-05-01T07:08:44.838Z</time></trkpt><trkpt lat="42.654425" lon="13.6992786"><ele>257.3333333333333</ele><time>2026-05-01T07:08:45.838Z</time></trkpt><trkpt lat="42.6545023" lon="13.6990457"><ele>252.66666666666669</ele><time>2026-05-01T07:08:46.837Z</time></trkpt><trkpt lat="42.6545719" lon="13.6988046"><ele>248.0</ele><time>2026-05-01T07:08:47.838Z</time></trkpt><trkpt lat="42.6546186" lon="13.6985607"><ele>248.0</ele><time>2026-05-01T07:08:48.838Z</time></trkpt><trkpt lat="42.6546525" lon="13.6983196"><ele>248.0</ele><time>2026-05-01T07:08:49.837Z</time></trkpt><trkpt lat="42.6546689" lon="13.6980834"><ele>248.0</ele><time>2026-05-01T07:08:50.837Z</time></trkpt><trkpt lat="42.6546686" lon="13.6978551"><ele>248.0</ele><time>2026-05-01T07:08:51.836Z</time></trkpt><trkpt lat="42.6546594" lon="13.6976344"><ele>248.0</ele><time>2026-05-01T07:08:52.836Z</time></trkpt><trkpt lat="42.6546372" lon="13.6974206"><ele>248.0</ele><time>2026-05-01T07:08:53.837Z</time></trkpt><trkpt lat="42.6545807" lon="13.6972307"><ele>248.0</ele><time>2026-05-01T07:08:54.836Z</time></trkpt><trkpt lat="42.6545164" lon="13.6970474"><ele>248.0</ele><time>2026-05-01T07:08:55.836Z</time></trkpt><trkpt lat="42.6544565" lon="13.6968798"><ele>248.0</ele><time>2026-05-01T07:08:56.837Z</time></trkpt><trkpt lat="42.6544202" lon="13.6967077"><ele>248.0</ele><time>2026-05-01T07:08:57.837Z</time></trkpt><trkpt lat="42.6544139" lon="13.6965236"><ele>247.66666666666669</ele><time>2026-05-01T07:08:58.837Z</time></trkpt><trkpt lat="42.6544419" lon="13.6963319"><ele>247.33333333333331</ele><time>2026-05-01T07:08:59.837Z</time></trkpt><trkpt lat="42.654493" lon="13.6961386"><ele>247.0</ele><time>2026-05-01T07:09:00.836Z</time></trkpt><trkpt lat="42.6545492" lon="13.6959423"><ele>247.0</ele><time>2026-05-01T07:09:01.837Z</time></trkpt><trkpt lat="42.6546021" lon="13.6957512"><ele>247.0</ele><time>2026-05-01T07:09:02.836Z</time></trkpt><trkpt lat="42.6546558" lon="13.6955694"><ele>247.0</ele><time>2026-05-01T07:09:03.837Z</time></trkpt><trkpt lat="42.6547075" lon="13.6954043"><ele>247.0</ele><time>2026-05-01T07:09:04.837Z</time></trkpt><trkpt lat="42.6547652" lon="13.695253"><ele>246.75</ele><time>2026-05-01T07:09:05.837Z</time></trkpt><trkpt lat="42.6548433" lon="13.6951298"><ele>246.5</ele><time>2026-05-01T07:09:06.838Z</time></trkpt><trkpt lat="42.6549414" lon="13.6950292"><ele>246.25</ele><time>2026-05-01T07:09:07.838Z</time></trkpt><trkpt lat="42.6550482" lon="13.6949473"><ele>246.0</ele><time>2026-05-01T07:09:08.837Z</time></trkpt><trkpt lat="42.6551633" lon="13.6948629"><ele>245.75</ele><time>2026-05-01T07:09:09.837Z</time></trkpt><trkpt lat="42.6552876" lon="13.6947761"><ele>245.5</ele><time>2026-05-01T07:09:10.837Z</time></trkpt><trkpt lat="42.6554101" lon="13.6946932"><ele>245.25</ele><time>2026-05-01T07:09:11.836Z</time></trkpt><trkpt lat="42.6555219" lon="13.694613"><ele>245.0</ele><time>2026-05-01T07:09:12.838Z</time></trkpt><trkpt lat="42.6556274" lon="13.6945344"><ele>245.0</ele><time>2026-05-01T07:09:13.838Z</time></trkpt><trkpt lat="42.6557283" lon="13.6944688"><ele>245.0</ele><time>2026-05-01T07:09:14.837Z</time></trkpt><trkpt lat="42.6558238" lon="13.6944311"><ele>245.0</ele><time>2026-05-01T07:09:15.837Z</time></trkpt><trkpt lat="42.6559104" lon="13.694418"><ele>245.0</ele><time>2026-05-01T07:09:16.837Z</time></trkpt><trkpt lat="42.65598" lon="13.69441"><ele>245.0</ele><time>2026-05-01T07:09:17.836Z</time></trkpt><trkpt lat="42.6560561" lon="13.6943275"><ele>245.8</ele><time>2026-05-01T07:09:19.836Z</time></trkpt><trkpt lat="42.6560979" lon="13.6941724"><ele>246.6</ele><time>2026-05-01T07:09:21.838Z</time></trkpt><trkpt lat="42.6561363" lon="13.694102"><ele>247.39999999999998</ele><time>2026-05-01T07:09:22.837Z</time></trkpt><trkpt lat="42.6562373" lon="13.6940277"><ele>248.2</ele><time>2026-05-01T07:09:23.837Z</time></trkpt><trkpt lat="42.6563215" lon="13.6939422"><ele>249.0</ele><time>2026-05-01T07:09:24.837Z</time></trkpt><trkpt lat="42.6564119" lon="13.6938489"><ele>251.75</ele><time>2026-05-01T07:09:25.836Z</time></trkpt><trkpt lat="42.6565083" lon="13.6937534"><ele>254.5</ele><time>2026-05-01T07:09:26.837Z</time></trkpt><trkpt lat="42.6566115" lon="13.6936449"><ele>257.25</ele><time>2026-05-01T07:09:27.838Z</time></trkpt><trkpt lat="42.6567205" lon="13.6935294"><ele>260.0</ele><time>2026-05-01T07:09:28.836Z</time></trkpt><trkpt lat="42.6568271" lon="13.6934185"><ele>260.0</ele><time>2026-05-01T07:09:29.836Z</time></trkpt><trkpt lat="42.6569352" lon="13.6933126"><ele>260.0</ele><time>2026-05-01T07:09:30.837Z</time></trkpt><trkpt lat="42.6570371" lon="13.6932053"><ele>260.0</ele><time>2026-05-01T07:09:31.837Z</time></trkpt><trkpt lat="42.6571413" lon="13.6931026"><ele>260.0</ele><time>2026-05-01T07:09:32.837Z</time></trkpt><trkpt lat="42.6572411" lon="13.6930007"><ele>263.2</ele><time>2026-05-01T07:09:33.837Z</time></trkpt><trkpt lat="42.6573375" lon="13.6929032"><ele>266.4</ele><time>2026-05-01T07:09:34.837Z</time></trkpt><trkpt lat="42.6574302" lon="13.6928091"><ele>269.6</ele><time>2026-05-01T07:09:35.837Z</time></trkpt><trkpt lat="42.6575178" lon="13.6927277"><ele>272.8</ele><time>2026-05-01T07:09:36.837Z</time></trkpt><trkpt lat="42.6576048" lon="13.6926605"><ele>276.0</ele><time>2026-05-01T07:09:37.837Z</time></trkpt><trkpt lat="42.6576893" lon="13.6926029"><ele>276.1666666666667</ele><time>2026-05-01T07:09:38.837Z</time></trkpt><trkpt lat="42.657779" lon="13.6925434"><ele>276.3333333333333</ele><time>2026-05-01T07:09:39.835Z</time></trkpt><trkpt lat="42.6578671" lon="13.6924804"><ele>276.5</ele><time>2026-05-01T07:09:40.835Z</time></trkpt><trkpt lat="42.6579519" lon="13.6924242"><ele>276.66666666666663</ele><time>2026-05-01T07:09:41.836Z</time></trkpt><trkpt lat="42.6580226" lon="13.6923717"><ele>276.8333333333333</ele><time>2026-05-01T07:09:42.835Z</time></trkpt><trkpt lat="42.6580854" lon="13.6923356"><ele>277.0</ele><time>2026-05-01T07:09:43.835Z</time></trkpt><trkpt lat="42.6581615" lon="13.6922803"><ele>278.0</ele><time>2026-05-01T07:09:45.837Z</time></trkpt><trkpt lat="42.6581991" lon="13.692205"><ele>279.0</ele><time>2026-05-01T07:09:52.836Z</time></trkpt><trkpt lat="42.6582069" lon="13.6921181"><ele>280.0</ele><time>2026-05-01T07:09:53.836Z</time></trkpt><trkpt lat="42.6582072" lon="13.6920135"><ele>281.0</ele><time>2026-05-01T07:09:54.837Z</time></trkpt><trkpt lat="42.6582001" lon="13.6918611"><ele>282.0</ele><time>2026-05-01T07:09:55.837Z</time></trkpt><trkpt lat="42.6582045" lon="13.6917151"><ele>283.0</ele><time>2026-05-01T07:09:56.836Z</time></trkpt><trkpt lat="42.6582168" lon="13.6915608"><ele>283.75</ele><time>2026-05-01T07:09:57.836Z</time></trkpt><trkpt lat="42.6582341" lon="13.6914014"><ele>284.5</ele><time>2026-05-01T07:09:58.837Z</time></trkpt><trkpt lat="42.6582604" lon="13.6912407"><ele>285.25</ele><time>2026-05-01T07:09:59.837Z</time></trkpt><trkpt lat="42.6583021" lon="13.6910849"><ele>286.0</ele><time>2026-05-01T07:10:00.836Z</time></trkpt><trkpt lat="42.6583484" lon="13.6909349"><ele>287.25</ele><time>2026-05-01T07:10:01.836Z</time></trkpt><trkpt lat="42.6583864" lon="13.6907736"><ele>288.5</ele><time>2026-05-01T07:10:02.835Z</time></trkpt><trkpt lat="42.6584075" lon="13.6906022"><ele>289.75</ele><time>2026-05-01T07:10:03.836Z</time></trkpt><trkpt lat="42.6584178" lon="13.6904338"><ele>291.0</ele><time>2026-05-01T07:10:04.835Z</time></trkpt><trkpt lat="42.6584224" lon="13.6902721"><ele>291.8</ele><time>2026-05-01T07:10:05.837Z</time></trkpt><trkpt lat="42.6584153" lon="13.6901215"><ele>292.6</ele><time>2026-05-01T07:10:06.836Z</time></trkpt><trkpt lat="42.6584021" lon="13.689979"><ele>293.4</ele><time>2026-05-01T07:10:07.836Z</time></trkpt><trkpt lat="42.6583713" lon="13.6898462"><ele>294.2</ele><time>2026-05-01T07:10:08.836Z</time></trkpt><trkpt lat="42.6583214" lon="13.6897256"><ele>295.0</ele><time>2026-05-01T07:10:09.835Z</time></trkpt><trkpt lat="42.6582473" lon="13.6896198"><ele>295.0</ele><time>2026-05-01T07:10:10.836Z</time></trkpt><trkpt lat="42.6581533" lon="13.6895285"><ele>295.0</ele><time>2026-05-01T07:10:11.836Z</time></trkpt><trkpt lat="42.658044" lon="13.6894495"><ele>295.0</ele><time>2026-05-01T07:10:12.836Z</time></trkpt><trkpt lat="42.6579324" lon="13.6893684"><ele>295.0</ele><time>2026-05-01T07:10:13.836Z</time></trkpt><trkpt lat="42.6578184" lon="13.689274"><ele>295.5</ele><time>2026-05-01T07:10:14.836Z</time></trkpt><trkpt lat="42.6577145" lon="13.6891647"><ele>296.0</ele><time>2026-05-01T07:10:15.836Z</time></trkpt><trkpt lat="42.6576204" lon="13.6890344"><ele>296.5</ele><time>2026-05-01T07:10:16.836Z</time></trkpt><trkpt lat="42.6575409" lon="13.6888815"><ele>297.0</ele><time>2026-05-01T07:10:17.835Z</time></trkpt><trkpt lat="42.657467" lon="13.6887175"><ele>297.0</ele><time>2026-05-01T07:10:18.836Z</time></trkpt><trkpt lat="42.6574064" lon="13.6885385"><ele>297.0</ele><time>2026-05-01T07:10:19.835Z</time></trkpt><trkpt lat="42.6573594" lon="13.688352"><ele>297.0</ele><time>2026-05-01T07:10:20.837Z</time></trkpt><trkpt lat="42.6573271" lon="13.6881527"><ele>297.0</ele><time>2026-05-01T07:10:21.837Z</time></trkpt><trkpt lat="42.6573035" lon="13.6879543"><ele>297.0</ele><time>2026-05-01T07:10:22.837Z</time></trkpt><trkpt lat="42.6572851" lon="13.6877639"><ele>297.0</ele><time>2026-05-01T07:10:23.836Z</time></trkpt><trkpt lat="42.6572678" lon="13.687585"><ele>297.0</ele><time>2026-05-01T07:10:24.836Z</time></trkpt><trkpt lat="42.6572511" lon="13.6874149"><ele>297.0</ele><time>2026-05-01T07:10:25.837Z</time></trkpt><trkpt lat="42.6572399" lon="13.6872456"><ele>297.0</ele><time>2026-05-01T07:10:26.837Z</time></trkpt><trkpt lat="42.6572316" lon="13.687076"><ele>297.0</ele><time>2026-05-01T07:10:27.835Z</time></trkpt><trkpt lat="42.6572168" lon="13.686909"><ele>297.0</ele><time>2026-05-01T07:10:28.836Z</time></trkpt><trkpt lat="42.6572049" lon="13.6867394"><ele>297.0</ele><time>2026-05-01T07:10:29.835Z</time></trkpt><trkpt lat="42.6571815" lon="13.6865791"><ele>298.0</ele><time>2026-05-01T07:10:30.836Z</time></trkpt><trkpt lat="42.6571496" lon="13.6864333"><ele>299.0</ele><time>2026-05-01T07:10:31.836Z</time></trkpt><trkpt lat="42.65711" lon="13.6863008"><ele>300.0</ele><time>2026-05-01T07:10:32.835Z</time></trkpt><trkpt lat="42.657066" lon="13.6861799"><ele>301.0</ele><time>2026-05-01T07:10:33.836Z</time></trkpt><trkpt lat="42.6570238" lon="13.686062"><ele>302.0</ele><time>2026-05-01T07:10:34.836Z</time></trkpt><trkpt lat="42.6569788" lon="13.685946"><ele>300.6</ele><time>2026-05-01T07:10:35.836Z</time></trkpt><trkpt lat="42.6569279" lon="13.6858285"><ele>299.2</ele><time>2026-05-01T07:10:36.836Z</time></trkpt><trkpt lat="42.6568696" lon="13.6857233"><ele>297.8</ele><time>2026-05-01T07:10:37.836Z</time></trkpt><trkpt lat="42.6568047" lon="13.6856451"><ele>296.4</ele><time>2026-05-01T07:10:38.836Z</time></trkpt><trkpt lat="42.6567348" lon="13.685584"><ele>295.0</ele><time>2026-05-01T07:10:39.836Z</time></trkpt><trkpt lat="42.6566444" lon="13.6855309"><ele>295.0</ele><time>2026-05-01T07:10:40.835Z</time></trkpt><trkpt lat="42.6565236" lon="13.6854785"><ele>295.0</ele><time>2026-05-01T07:10:41.836Z</time></trkpt><trkpt lat="42.6563882" lon="13.6854165"><ele>295.0</ele><time>2026-05-01T07:10:42.835Z</time></trkpt><trkpt lat="42.6562465" lon="13.6853366"><ele>295.0</ele><time>2026-05-01T07:10:43.835Z</time></trkpt><trkpt lat="42.6561034" lon="13.6852546"><ele>295.0</ele><time>2026-05-01T07:10:44.836Z</time></trkpt><trkpt lat="42.6559671" lon="13.6851752"><ele>295.0</ele><time>2026-05-01T07:10:45.836Z</time></trkpt><trkpt lat="42.6558342" lon="13.6850944"><ele>295.0</ele><time>2026-05-01T07:10:46.836Z</time></trkpt><trkpt lat="42.6556993" lon="13.6850171"><ele>295.0</ele><time>2026-05-01T07:10:47.835Z</time></trkpt><trkpt lat="42.6555628" lon="13.6849374"><ele>295.0</ele><time>2026-05-01T07:10:48.836Z</time></trkpt><trkpt lat="42.6554313" lon="13.6848516"><ele>295.0</ele><time>2026-05-01T07:10:49.835Z</time></trkpt><trkpt lat="42.6552977" lon="13.6847592"><ele>295.0</ele><time>2026-05-01T07:10:50.835Z</time></trkpt><trkpt lat="42.655172" lon="13.6846648"><ele>295.0</ele><time>2026-05-01T07:10:51.835Z</time></trkpt><trkpt lat="42.6550616" lon="13.6845722"><ele>292.25</ele><time>2026-05-01T07:10:52.836Z</time></trkpt><trkpt lat="42.6549502" lon="13.6844876"><ele>289.5</ele><time>2026-05-01T07:10:53.836Z</time></trkpt><trkpt lat="42.6548436" lon="13.6844083"><ele>286.75</ele><time>2026-05-01T07:10:54.835Z</time></trkpt><trkpt lat="42.6547434" lon="13.6843302"><ele>284.0</ele><time>2026-05-01T07:10:55.836Z</time></trkpt><trkpt lat="42.654647" lon="13.684255"><ele>284.0</ele><time>2026-05-01T07:10:56.837Z</time></trkpt><trkpt lat="42.6545473" lon="13.6841785"><ele>284.0</ele><time>2026-05-01T07:10:57.836Z</time></trkpt><trkpt lat="42.6544478" lon="13.6841025"><ele>284.0</ele><time>2026-05-01T07:10:58.837Z</time></trkpt><trkpt lat="42.6543474" lon="13.6840283"><ele>284.0</ele><time>2026-05-01T07:10:59.836Z</time></trkpt><trkpt lat="42.654248" lon="13.6839427"><ele>281.8</ele><time>2026-05-01T07:11:00.836Z</time></trkpt><trkpt lat="42.6541461" lon="13.6838684"><ele>279.59999999999997</ele><time>2026-05-01T07:11:01.835Z</time></trkpt><trkpt lat="42.6540446" lon="13.6837939"><ele>277.4</ele><time>2026-05-01T07:11:02.836Z</time></trkpt><trkpt lat="42.6539535" lon="13.6837328"><ele>275.2</ele><time>2026-05-01T07:11:03.835Z</time></trkpt><trkpt lat="42.6538754" lon="13.6836727"><ele>273.0</ele><time>2026-05-01T07:11:04.836Z</time></trkpt><trkpt lat="42.6537996" lon="13.6836106"><ele>274.1666666666667</ele><time>2026-05-01T07:11:05.837Z</time></trkpt><trkpt lat="42.6537331" lon="13.6835538"><ele>275.3333333333333</ele><time>2026-05-01T07:11:06.837Z</time></trkpt><trkpt lat="42.6536769" lon="13.6834887"><ele>276.5</ele><time>2026-05-01T07:11:07.837Z</time></trkpt><trkpt lat="42.6536305" lon="13.6834236"><ele>277.66666666666663</ele><time>2026-05-01T07:11:08.835Z</time></trkpt><trkpt lat="42.6535526" lon="13.6833122"><ele>278.8333333333333</ele><time>2026-05-01T07:11:10.836Z</time></trkpt><trkpt lat="42.6534638" lon="13.6832444"><ele>280.0</ele><time>2026-05-01T07:11:12.836Z</time></trkpt><trkpt lat="42.6533443" lon="13.6832184"><ele>280.0</ele><time>2026-05-01T07:11:14.835Z</time></trkpt><trkpt lat="42.6532221" lon="13.683161"><ele>280.0</ele><time>2026-05-01T07:11:16.836Z</time></trkpt><trkpt lat="42.6531592" lon="13.6831095"><ele>280.0</ele><time>2026-05-01T07:11:17.836Z</time></trkpt><trkpt lat="42.6530979" lon="13.6830462"><ele>280.0</ele><time>2026-05-01T07:11:18.835Z</time></trkpt><trkpt lat="42.6530441" lon="13.6829839"><ele>280.0</ele><time>2026-05-01T07:11:19.836Z</time></trkpt><trkpt lat="42.6529921" lon="13.6829173"><ele>280.0</ele><time>2026-05-01T07:11:20.835Z</time></trkpt><trkpt lat="42.6529305" lon="13.682847"><ele>280.0</ele><time>2026-05-01T07:11:21.837Z</time></trkpt><trkpt lat="42.6528622" lon="13.682766"><ele>280.0</ele><time>2026-05-01T07:11:22.836Z</time></trkpt><trkpt lat="42.6527861" lon="13.6826768"><ele>280.0</ele><time>2026-05-01T07:11:23.836Z</time></trkpt><trkpt lat="42.6527078" lon="13.682583"><ele>280.0</ele><time>2026-05-01T07:11:24.835Z</time></trkpt><trkpt lat="42.6526301" lon="13.6824924"><ele>280.0</ele><time>2026-05-01T07:11:25.837Z</time></trkpt><trkpt lat="42.6525598" lon="13.6824101"><ele>280.3333333333333</ele><time>2026-05-01T07:11:26.836Z</time></trkpt><trkpt lat="42.6524939" lon="13.6823397"><ele>280.66666666666663</ele><time>2026-05-01T07:11:27.836Z</time></trkpt><trkpt lat="42.6524314" lon="13.6822668"><ele>281.0</ele><time>2026-05-01T07:11:28.836Z</time></trkpt><trkpt lat="42.6523743" lon="13.6821972"><ele>281.3333333333333</ele><time>2026-05-01T07:11:29.835Z</time></trkpt><trkpt lat="42.6523171" lon="13.6821326"><ele>281.6666666666667</ele><time>2026-05-01T07:11:30.837Z</time></trkpt><trkpt lat="42.6522614" lon="13.6820632"><ele>282.0</ele><time>2026-05-01T07:11:31.836Z</time></trkpt><trkpt lat="42.6522061" lon="13.6820001"><ele>282.0</ele><time>2026-05-01T07:11:32.836Z</time></trkpt><trkpt lat="42.6521615" lon="13.6819366"><ele>282.0</ele><time>2026-05-01T07:11:33.835Z</time></trkpt><trkpt lat="42.652116" lon="13.6818121"><ele>282.0</ele><time>2026-05-01T07:11:35.836Z</time></trkpt><trkpt lat="42.6521573" lon="13.6816942"><ele>282.0</ele><time>2026-05-01T07:11:38.835Z</time></trkpt><trkpt lat="42.6521627" lon="13.6816024"><ele>282.0</ele><time>2026-05-01T07:11:40.836Z</time></trkpt><trkpt lat="42.6521028" lon="13.6815649"><ele>282.0</ele><time>2026-05-01T07:14:05.836Z</time></trkpt><trkpt lat="42.6520298" lon="13.6815573"><ele>282.0</ele><time>2026-05-01T07:15:05.834Z</time></trkpt><trkpt lat="42.6519985" lon="13.6816334"><ele>282.0</ele><time>2026-05-01T07:15:08.834Z</time></trkpt><trkpt lat="42.651943" lon="13.6816965"><ele>282.0</ele><time>2026-05-01T07:16:43.834Z</time></trkpt><trkpt lat="42.6518541" lon="13.6816295"><ele>282.0</ele><time>2026-05-01T07:16:45.834Z</time></trkpt><trkpt lat="42.651784" lon="13.6815421"><ele>282.0</ele><time>2026-05-01T07:16:46.835Z</time></trkpt><trkpt lat="42.6517085" lon="13.6814579"><ele>282.0</ele><time>2026-05-01T07:16:47.835Z</time></trkpt><trkpt lat="42.6516286" lon="13.6813734"><ele>281.6</ele><time>2026-05-01T07:16:48.835Z</time></trkpt><trkpt lat="42.6515489" lon="13.6812901"><ele>281.2</ele><time>2026-05-01T07:16:49.835Z</time></trkpt><trkpt lat="42.651473" lon="13.6812039"><ele>280.8</ele><time>2026-05-01T07:16:50.835Z</time></trkpt><trkpt lat="42.6513969" lon="13.681117"><ele>280.4</ele><time>2026-05-01T07:16:51.835Z</time></trkpt><trkpt lat="42.651324" lon="13.6810414"><ele>280.0</ele><time>2026-05-01T07:16:52.835Z</time></trkpt><trkpt lat="42.6512547" lon="13.6809694"><ele>280.6</ele><time>2026-05-01T07:16:53.835Z</time></trkpt><trkpt lat="42.6511821" lon="13.68089"><ele>281.2</ele><time>2026-05-01T07:16:54.835Z</time></trkpt><trkpt lat="42.6511038" lon="13.6808049"><ele>281.8</ele><time>2026-05-01T07:16:55.835Z</time></trkpt><trkpt lat="42.6510271" lon="13.6807202"><ele>282.4</ele><time>2026-05-01T07:16:56.834Z</time></trkpt><trkpt lat="42.6509572" lon="13.6806461"><ele>283.0</ele><time>2026-05-01T07:16:57.836Z</time></trkpt><trkpt lat="42.6508926" lon="13.6805763"><ele>283.0</ele><time>2026-05-01T07:16:58.835Z</time></trkpt><trkpt lat="42.6508298" lon="13.6805055"><ele>283.0</ele><time>2026-05-01T07:16:59.835Z</time></trkpt><trkpt lat="42.650762" lon="13.680429"><ele>283.0</ele><time>2026-05-01T07:17:00.834Z</time></trkpt><trkpt lat="42.6506942" lon="13.6803555"><ele>283.0</ele><time>2026-05-01T07:17:01.835Z</time></trkpt><trkpt lat="42.6506317" lon="13.6802796"><ele>283.0</ele><time>2026-05-01T07:17:02.834Z</time></trkpt><trkpt lat="42.6505665" lon="13.6802022"><ele>283.0</ele><time>2026-05-01T07:17:03.835Z</time></trkpt><trkpt lat="42.6504954" lon="13.6801277"><ele>283.2</ele><time>2026-05-01T07:17:04.835Z</time></trkpt><trkpt lat="42.6504174" lon="13.6800402"><ele>283.4</ele><time>2026-05-01T07:17:05.836Z</time></trkpt><trkpt lat="42.6503426" lon="13.6799464"><ele>283.59999999999997</ele><time>2026-05-01T07:17:06.836Z</time></trkpt><trkpt lat="42.6502773" lon="13.6798527"><ele>283.8</ele><time>2026-05-01T07:17:07.835Z</time></trkpt><trkpt lat="42.6502174" lon="13.6797644"><ele>284.0</ele><time>2026-05-01T07:17:08.835Z</time></trkpt><trkpt lat="42.6501624" lon="13.679673"><ele>284.0</ele><time>2026-05-01T07:17:09.835Z</time></trkpt><trkpt lat="42.6501098" lon="13.6795786"><ele>284.0</ele><time>2026-05-01T07:17:10.834Z</time></trkpt><trkpt lat="42.6500629" lon="13.6794776"><ele>284.0</ele><time>2026-05-01T07:17:11.834Z</time></trkpt><trkpt lat="42.6500214" lon="13.6793834"><ele>284.0</ele><time>2026-05-01T07:17:12.835Z</time></trkpt><trkpt lat="42.6499868" lon="13.6792918"><ele>284.0</ele><time>2026-05-01T07:17:13.836Z</time></trkpt><trkpt lat="42.6499509" lon="13.679201"><ele>284.0</ele><time>2026-05-01T07:17:14.836Z</time></trkpt><trkpt lat="42.6499118" lon="13.6791268"><ele>284.0</ele><time>2026-05-01T07:17:15.836Z</time></trkpt><trkpt lat="42.6498149" lon="13.67905"><ele>284.0</ele><time>2026-05-01T07:17:17.834Z</time></trkpt><trkpt lat="42.6497182" lon="13.6790773"><ele>284.0</ele><time>2026-05-01T07:17:19.835Z</time></trkpt><trkpt lat="42.64962" lon="13.6791417"><ele>284.0</ele><time>2026-05-01T07:17:21.835Z</time></trkpt><trkpt lat="42.6494991" lon="13.6791368"><ele>284.0</ele><time>2026-05-01T07:17:23.835Z</time></trkpt><trkpt lat="42.6494287" lon="13.6791084"><ele>284.0</ele><time>2026-05-01T07:17:24.835Z</time></trkpt><trkpt lat="42.649357" lon="13.6790885"><ele>284.0</ele><time>2026-05-01T07:17:25.835Z</time></trkpt><trkpt lat="42.6492875" lon="13.6790682"><ele>284.0</ele><time>2026-05-01T07:17:26.834Z</time></trkpt><trkpt lat="42.6492228" lon="13.6790443"><ele>284.0</ele><time>2026-05-01T07:17:27.835Z</time></trkpt><trkpt lat="42.64916" lon="13.6790177"><ele>284.0</ele><time>2026-05-01T07:17:28.834Z</time></trkpt><trkpt lat="42.6490792" lon="13.6789914"><ele>284.0</ele><time>2026-05-01T07:17:29.836Z</time></trkpt><trkpt lat="42.6489897" lon="13.6789416"><ele>284.0</ele><time>2026-05-01T07:17:30.835Z</time></trkpt><trkpt lat="42.648908" lon="13.6788887"><ele>284.0</ele><time>2026-05-01T07:17:31.834Z</time></trkpt><trkpt lat="42.6488232" lon="13.6788339"><ele>284.0</ele><time>2026-05-01T07:17:32.834Z</time></trkpt><trkpt lat="42.648739" lon="13.6787743"><ele>284.0</ele><time>2026-05-01T07:17:33.835Z</time></trkpt><trkpt lat="42.6486425" lon="13.6787143"><ele>284.0</ele><time>2026-05-01T07:17:34.835Z</time></trkpt><trkpt lat="42.6485412" lon="13.6786497"><ele>282.4</ele><time>2026-05-01T07:17:35.834Z</time></trkpt><trkpt lat="42.6484402" lon="13.6785879"><ele>280.79999999999995</ele><time>2026-05-01T07:17:36.834Z</time></trkpt><trkpt lat="42.6483411" lon="13.6785195"><ele>279.20000000000005</ele><time>2026-05-01T07:17:37.834Z</time></trkpt><trkpt lat="42.6482455" lon="13.6784576"><ele>277.6</ele><time>2026-05-01T07:17:38.834Z</time></trkpt><trkpt lat="42.6481595" lon="13.6783845"><ele>276.0</ele><time>2026-05-01T07:17:39.835Z</time></trkpt><trkpt lat="42.6480846" lon="13.6782992"><ele>276.0</ele><time>2026-05-01T07:17:40.834Z</time></trkpt><trkpt lat="42.6480158" lon="13.6782094"><ele>276.0</ele><time>2026-05-01T07:17:41.834Z</time></trkpt><trkpt lat="42.6479508" lon="13.678116"><ele>276.0</ele><time>2026-05-01T07:17:42.834Z</time></trkpt><trkpt lat="42.6478891" lon="13.6780238"><ele>276.0</ele><time>2026-05-01T07:17:43.833Z</time></trkpt><trkpt lat="42.6478292" lon="13.6779424"><ele>276.0</ele><time>2026-05-01T07:17:44.834Z</time></trkpt><trkpt lat="42.6477686" lon="13.6778547"><ele>276.5</ele><time>2026-05-01T07:17:45.835Z</time></trkpt><trkpt lat="42.6477082" lon="13.6777624"><ele>277.0</ele><time>2026-05-01T07:17:46.833Z</time></trkpt><trkpt lat="42.6476521" lon="13.6776792"><ele>277.5</ele><time>2026-05-01T07:17:47.834Z</time></trkpt><trkpt lat="42.6476001" lon="13.6775978"><ele>278.0</ele><time>2026-05-01T07:17:48.833Z</time></trkpt><trkpt lat="42.6475604" lon="13.6775215"><ele>278.5</ele><time>2026-05-01T07:17:49.833Z</time></trkpt><trkpt lat="42.647534" lon="13.6774316"><ele>279.0</ele><time>2026-05-01T07:17:50.833Z</time></trkpt><trkpt lat="42.6475365" lon="13.6773314"><ele>279.0</ele><time>2026-05-01T07:17:51.834Z</time></trkpt><trkpt lat="42.6475644" lon="13.6772304"><ele>279.0</ele><time>2026-05-01T07:17:52.834Z</time></trkpt><trkpt lat="42.6476073" lon="13.6771432"><ele>279.0</ele><time>2026-05-01T07:17:53.833Z</time></trkpt><trkpt lat="42.6476559" lon="13.6770639"><ele>279.0</ele><time>2026-05-01T07:17:54.833Z</time></trkpt><trkpt lat="42.6477092" lon="13.676979"><ele>279.0</ele><time>2026-05-01T07:17:55.835Z</time></trkpt><trkpt lat="42.647776" lon="13.6768873"><ele>279.0</ele><time>2026-05-01T07:17:56.835Z</time></trkpt><trkpt lat="42.6478597" lon="13.6767934"><ele>280.4</ele><time>2026-05-01T07:17:57.834Z</time></trkpt><trkpt lat="42.6479415" lon="13.6767075"><ele>281.79999999999995</ele><time>2026-05-01T07:17:58.833Z</time></trkpt><trkpt lat="42.6480216" lon="13.6766373"><ele>283.20000000000005</ele><time>2026-05-01T07:17:59.834Z</time></trkpt><trkpt lat="42.6481093" lon="13.6765876"><ele>284.6</ele><time>2026-05-01T07:18:00.833Z</time></trkpt><trkpt lat="42.6482089" lon="13.6765559"><ele>286.0</ele><time>2026-05-01T07:18:01.834Z</time></trkpt><trkpt lat="42.6483163" lon="13.6765365"><ele>286.0</ele><time>2026-05-01T07:18:02.834Z</time></trkpt><trkpt lat="42.6484202" lon="13.6765242"><ele>286.0</ele><time>2026-05-01T07:18:03.834Z</time></trkpt><trkpt lat="42.6485231" lon="13.6765314"><ele>286.0</ele><time>2026-05-01T07:18:04.835Z</time></trkpt><trkpt lat="42.6486354" lon="13.6765375"><ele>286.0</ele><time>2026-05-01T07:18:05.834Z</time></trkpt><trkpt lat="42.6487476" lon="13.6765593"><ele>286.0</ele><time>2026-05-01T07:18:06.834Z</time></trkpt><trkpt lat="42.6488576" lon="13.6766071"><ele>285.25</ele><time>2026-05-01T07:18:07.835Z</time></trkpt><trkpt lat="42.6489674" lon="13.6766817"><ele>284.5</ele><time>2026-05-01T07:18:08.834Z</time></trkpt><trkpt lat="42.6490717" lon="13.6767717"><ele>283.75</ele><time>2026-05-01T07:18:09.833Z</time></trkpt><trkpt lat="42.6491655" lon="13.6768586"><ele>283.0</ele><time>2026-05-01T07:18:10.833Z</time></trkpt><trkpt lat="42.6492542" lon="13.6769413"><ele>283.0</ele><time>2026-05-01T07:18:11.834Z</time></trkpt><trkpt lat="42.6493448" lon="13.6770215"><ele>283.0</ele><time>2026-05-01T07:18:12.834Z</time></trkpt><trkpt lat="42.6494332" lon="13.6771067"><ele>283.0</ele><time>2026-05-01T07:18:13.835Z</time></trkpt><trkpt lat="42.649523" lon="13.6771932"><ele>283.0</ele><time>2026-05-01T07:18:14.834Z</time></trkpt><trkpt lat="42.6496225" lon="13.6772778"><ele>283.0</ele><time>2026-05-01T07:18:15.833Z</time></trkpt><trkpt lat="42.649728" lon="13.6773476"><ele>283.8</ele><time>2026-05-01T07:18:16.834Z</time></trkpt><trkpt lat="42.649833" lon="13.6773816"><ele>284.6</ele><time>2026-05-01T07:18:17.833Z</time></trkpt><trkpt lat="42.6499391" lon="13.6773766"><ele>285.4</ele><time>2026-05-01T07:18:18.834Z</time></trkpt><trkpt lat="42.6500401" lon="13.6773283"><ele>286.2</ele><time>2026-05-01T07:18:19.834Z</time></trkpt><trkpt lat="42.6501285" lon="13.6772406"><ele>287.0</ele><time>2026-05-01T07:18:20.833Z</time></trkpt><trkpt lat="42.6501984" lon="13.6771185"><ele>287.0</ele><time>2026-05-01T07:18:21.834Z</time></trkpt><trkpt lat="42.6502403" lon="13.6769755"><ele>287.0</ele><time>2026-05-01T07:18:22.835Z</time></trkpt><trkpt lat="42.6502486" lon="13.6768198"><ele>287.0</ele><time>2026-05-01T07:18:23.834Z</time></trkpt><trkpt lat="42.6502225" lon="13.676663"><ele>287.0</ele><time>2026-05-01T07:18:24.833Z</time></trkpt><trkpt lat="42.6501609" lon="13.676523"><ele>289.6666666666667</ele><time>2026-05-01T07:18:25.833Z</time></trkpt><trkpt lat="42.6500611" lon="13.676381"><ele>292.3333333333333</ele><time>2026-05-01T07:18:26.834Z</time></trkpt><trkpt lat="42.6499286" lon="13.6762288"><ele>295.0</ele><time>2026-05-01T07:18:27.834Z</time></trkpt><trkpt lat="42.6497787" lon="13.6760566"><ele>297.3333333333333</ele><time>2026-05-01T07:18:28.834Z</time></trkpt><trkpt lat="42.6496321" lon="13.6758653"><ele>299.6666666666667</ele><time>2026-05-01T07:18:29.833Z</time></trkpt><trkpt lat="42.6494891" lon="13.675643"><ele>302.0</ele><time>2026-05-01T07:18:30.833Z</time></trkpt><trkpt lat="42.6493431" lon="13.6754449"><ele>305.0</ele><time>2026-05-01T07:18:31.835Z</time></trkpt><trkpt lat="42.6492045" lon="13.6752668"><ele>308.0</ele><time>2026-05-01T07:18:32.835Z</time></trkpt><trkpt lat="42.6490733" lon="13.6751075"><ele>311.0</ele><time>2026-05-01T07:18:33.834Z</time></trkpt><trkpt lat="42.648955" lon="13.6749664"><ele>311.0</ele><time>2026-05-01T07:18:34.834Z</time></trkpt><trkpt lat="42.64885" lon="13.6748129"><ele>311.0</ele><time>2026-05-01T07:18:35.834Z</time></trkpt><trkpt lat="42.64875" lon="13.6746466"><ele>311.0</ele><time>2026-05-01T07:18:36.833Z</time></trkpt><trkpt lat="42.6486624" lon="13.6744717"><ele>310.6666666666667</ele><time>2026-05-01T07:18:37.833Z</time></trkpt><trkpt lat="42.6485807" lon="13.67429"><ele>310.3333333333333</ele><time>2026-05-01T07:18:38.834Z</time></trkpt><trkpt lat="42.6485023" lon="13.6740999"><ele>310.0</ele><time>2026-05-01T07:18:39.833Z</time></trkpt><trkpt lat="42.6484249" lon="13.67391"><ele>310.0</ele><time>2026-05-01T07:18:40.834Z</time></trkpt><trkpt lat="42.6483443" lon="13.6737159"><ele>310.0</ele><time>2026-05-01T07:18:41.835Z</time></trkpt><trkpt lat="42.6482582" lon="13.6735299"><ele>310.0</ele><time>2026-05-01T07:18:42.834Z</time></trkpt><trkpt lat="42.6481569" lon="13.6733524"><ele>314.3333333333333</ele><time>2026-05-01T07:18:43.834Z</time></trkpt><trkpt lat="42.6480502" lon="13.6731855"><ele>318.6666666666667</ele><time>2026-05-01T07:18:44.834Z</time></trkpt><trkpt lat="42.6479322" lon="13.673027"><ele>323.0</ele><time>2026-05-01T07:18:45.833Z</time></trkpt><trkpt lat="42.6477975" lon="13.6728919"><ele>325.0</ele><time>2026-05-01T07:18:46.834Z</time></trkpt><trkpt lat="42.6476422" lon="13.67279"><ele>327.0</ele><time>2026-05-01T07:18:47.833Z</time></trkpt><trkpt lat="42.6474772" lon="13.6726901"><ele>329.0</ele><time>2026-05-01T07:18:48.834Z</time></trkpt><trkpt lat="42.6473179" lon="13.67258"><ele>329.0</ele><time>2026-05-01T07:18:49.834Z</time></trkpt><trkpt lat="42.6471713" lon="13.6724614"><ele>329.0</ele><time>2026-05-01T07:18:50.833Z</time></trkpt><trkpt lat="42.6470264" lon="13.6723476"><ele>329.0</ele><time>2026-05-01T07:18:51.834Z</time></trkpt><trkpt lat="42.6468855" lon="13.6722331"><ele>325.6666666666667</ele><time>2026-05-01T07:18:52.834Z</time></trkpt><trkpt lat="42.6467509" lon="13.6721096"><ele>322.3333333333333</ele><time>2026-05-01T07:18:53.835Z</time></trkpt><trkpt lat="42.6466247" lon="13.6719745"><ele>319.0</ele><time>2026-05-01T07:18:54.834Z</time></trkpt><trkpt lat="42.6465092" lon="13.6718226"><ele>326.66666666666663</ele><time>2026-05-01T07:18:55.834Z</time></trkpt><trkpt lat="42.6463883" lon="13.6716727"><ele>334.3333333333333</ele><time>2026-05-01T07:18:56.834Z</time></trkpt><trkpt lat="42.6462788" lon="13.6715087"><ele>342.0</ele><time>2026-05-01T07:18:57.834Z</time></trkpt><trkpt lat="42.6461731" lon="13.6713546"><ele>341.25</ele><time>2026-05-01T07:18:58.835Z</time></trkpt><trkpt lat="42.6460938" lon="13.6711825"><ele>340.5</ele><time>2026-05-01T07:18:59.835Z</time></trkpt><trkpt lat="42.6460371" lon="13.6710034"><ele>339.75</ele><time>2026-05-01T07:19:00.833Z</time></trkpt><trkpt lat="42.6460159" lon="13.670836"><ele>339.0</ele><time>2026-05-01T07:19:01.834Z</time></trkpt><trkpt lat="42.6460256" lon="13.670657"><ele>339.0</ele><time>2026-05-01T07:19:02.834Z</time></trkpt><trkpt lat="42.6460646" lon="13.6704783"><ele>339.0</ele><time>2026-05-01T07:19:03.835Z</time></trkpt><trkpt lat="42.6461087" lon="13.6702922"><ele>339.0</ele><time>2026-05-01T07:19:04.835Z</time></trkpt><trkpt lat="42.6461335" lon="13.6701129"><ele>339.0</ele><time>2026-05-01T07:19:05.835Z</time></trkpt><trkpt lat="42.6461338" lon="13.6699375"><ele>340.25</ele><time>2026-05-01T07:19:06.834Z</time></trkpt><trkpt lat="42.6460769" lon="13.6697738"><ele>341.5</ele><time>2026-05-01T07:19:07.835Z</time></trkpt><trkpt lat="42.6460103" lon="13.6696205"><ele>342.75</ele><time>2026-05-01T07:19:08.834Z</time></trkpt><trkpt lat="42.6459479" lon="13.6694715"><ele>344.0</ele><time>2026-05-01T07:19:09.834Z</time></trkpt><trkpt lat="42.6459063" lon="13.669313"><ele>346.0</ele><time>2026-05-01T07:19:10.835Z</time></trkpt><trkpt lat="42.6458995" lon="13.6691609"><ele>348.0</ele><time>2026-05-01T07:19:11.834Z</time></trkpt><trkpt lat="42.6459228" lon="13.6690294"><ele>350.0</ele><time>2026-05-01T07:19:12.833Z</time></trkpt><trkpt lat="42.6459778" lon="13.6689273"><ele>352.0</ele><time>2026-05-01T07:19:13.834Z</time></trkpt><trkpt lat="42.6460633" lon="13.6688502"><ele>354.0</ele><time>2026-05-01T07:19:14.833Z</time></trkpt><trkpt lat="42.6461705" lon="13.6688144"><ele>354.5</ele><time>2026-05-01T07:19:15.834Z</time></trkpt><trkpt lat="42.6462885" lon="13.6688219"><ele>355.0</ele><time>2026-05-01T07:19:16.834Z</time></trkpt><trkpt lat="42.6464123" lon="13.6688688"><ele>355.5</ele><time>2026-05-01T07:19:17.834Z</time></trkpt><trkpt lat="42.6465296" lon="13.6689466"><ele>356.0</ele><time>2026-05-01T07:19:18.834Z</time></trkpt><trkpt lat="42.6466337" lon="13.6690548"><ele>356.0</ele><time>2026-05-01T07:19:19.834Z</time></trkpt><trkpt lat="42.6467227" lon="13.6691864"><ele>356.0</ele><time>2026-05-01T07:19:20.835Z</time></trkpt><trkpt lat="42.6468097" lon="13.6693211"><ele>356.0</ele><time>2026-05-01T07:19:21.834Z</time></trkpt><trkpt lat="42.6468927" lon="13.6694455"><ele>356.0</ele><time>2026-05-01T07:19:22.833Z</time></trkpt><trkpt lat="42.6469806" lon="13.6695442"><ele>358.6</ele><time>2026-05-01T07:19:23.834Z</time></trkpt><trkpt lat="42.6470757" lon="13.6696237"><ele>361.20000000000005</ele><time>2026-05-01T07:19:24.834Z</time></trkpt><trkpt lat="42.6471719" lon="13.6696625"><ele>363.79999999999995</ele><time>2026-05-01T07:19:25.835Z</time></trkpt><trkpt lat="42.6472758" lon="13.6696814"><ele>366.4</ele><time>2026-05-01T07:19:26.834Z</time></trkpt><trkpt lat="42.6473797" lon="13.6696618"><ele>369.0</ele><time>2026-05-01T07:19:27.834Z</time></trkpt><trkpt lat="42.6474943" lon="13.6696292"><ele>369.0</ele><time>2026-05-01T07:19:28.835Z</time></trkpt><trkpt lat="42.6476073" lon="13.6695945"><ele>369.0</ele><time>2026-05-01T07:19:29.834Z</time></trkpt><trkpt lat="42.6477289" lon="13.6695533"><ele>369.0</ele><time>2026-05-01T07:19:30.834Z</time></trkpt><trkpt lat="42.6478485" lon="13.6695165"><ele>369.0</ele><time>2026-05-01T07:19:31.834Z</time></trkpt><trkpt lat="42.6479631" lon="13.66948"><ele>368.4</ele><time>2026-05-01T07:19:32.834Z</time></trkpt><trkpt lat="42.6480696" lon="13.669445"><ele>367.79999999999995</ele><time>2026-05-01T07:19:33.835Z</time></trkpt><trkpt lat="42.6481706" lon="13.6694126"><ele>367.20000000000005</ele><time>2026-05-01T07:19:34.834Z</time></trkpt><trkpt lat="42.6482634" lon="13.6693889"><ele>366.6</ele><time>2026-05-01T07:19:35.834Z</time></trkpt><trkpt lat="42.6483526" lon="13.6693586"><ele>366.0</ele><time>2026-05-01T07:19:36.835Z</time></trkpt><trkpt lat="42.6484378" lon="13.6693128"><ele>366.0</ele><time>2026-05-01T07:19:37.834Z</time></trkpt><trkpt lat="42.6485192" lon="13.6692513"><ele>366.0</ele><time>2026-05-01T07:19:38.835Z</time></trkpt><trkpt lat="42.6485986" lon="13.6691638"><ele>366.0</ele><time>2026-05-01T07:19:39.834Z</time></trkpt><trkpt lat="42.648671" lon="13.6690581"><ele>366.0</ele><time>2026-05-01T07:19:40.834Z</time></trkpt><trkpt lat="42.6487288" lon="13.6689183"><ele>366.0</ele><time>2026-05-01T07:19:41.834Z</time></trkpt><trkpt lat="42.6487696" lon="13.6687612"><ele>368.20000000000005</ele><time>2026-05-01T07:19:42.834Z</time></trkpt><trkpt lat="42.6487966" lon="13.6686105"><ele>370.40000000000003</ele><time>2026-05-01T07:19:43.835Z</time></trkpt><trkpt lat="42.6488235" lon="13.6684574"><ele>372.6</ele><time>2026-05-01T07:19:44.833Z</time></trkpt><trkpt lat="42.6488428" lon="13.6683117"><ele>374.8</ele><time>2026-05-01T07:19:45.833Z</time></trkpt><trkpt lat="42.6488739" lon="13.6681875"><ele>377.0</ele><time>2026-05-01T07:19:46.833Z</time></trkpt><trkpt lat="42.6489261" lon="13.6680895"><ele>377.0</ele><time>2026-05-01T07:19:47.833Z</time></trkpt><trkpt lat="42.6490017" lon="13.6680187"><ele>377.0</ele><time>2026-05-01T07:19:48.835Z</time></trkpt><trkpt lat="42.6490981" lon="13.6679786"><ele>377.0</ele><time>2026-05-01T07:19:49.835Z</time></trkpt><trkpt lat="42.6492026" lon="13.6679854"><ele>377.0</ele><time>2026-05-01T07:19:50.834Z</time></trkpt><trkpt lat="42.6493124" lon="13.6680282"><ele>377.0</ele><time>2026-05-01T07:19:51.833Z</time></trkpt><trkpt lat="42.6494301" lon="13.6680836"><ele>376.25</ele><time>2026-05-01T07:19:52.833Z</time></trkpt><trkpt lat="42.6495457" lon="13.6681302"><ele>375.5</ele><time>2026-05-01T07:19:53.833Z</time></trkpt><trkpt lat="42.6496825" lon="13.6681404"><ele>374.75</ele><time>2026-05-01T07:19:54.834Z</time></trkpt><trkpt lat="42.6498163" lon="13.668146"><ele>374.0</ele><time>2026-05-01T07:19:55.834Z</time></trkpt><trkpt lat="42.6499603" lon="13.6681444"><ele>374.0</ele><time>2026-05-01T07:19:56.834Z</time></trkpt><trkpt lat="42.6501103" lon="13.668137"><ele>374.0</ele><time>2026-05-01T07:19:57.834Z</time></trkpt><trkpt lat="42.6502645" lon="13.6681277"><ele>374.0</ele><time>2026-05-01T07:19:58.833Z</time></trkpt><trkpt lat="42.6504202" lon="13.6681211"><ele>372.0</ele><time>2026-05-01T07:19:59.833Z</time></trkpt><trkpt lat="42.6505803" lon="13.6681176"><ele>370.0</ele><time>2026-05-01T07:20:00.833Z</time></trkpt><trkpt lat="42.650736" lon="13.6681083"><ele>368.0</ele><time>2026-05-01T07:20:01.833Z</time></trkpt><trkpt lat="42.6508882" lon="13.6680897"><ele>368.0</ele><time>2026-05-01T07:20:02.834Z</time></trkpt><trkpt lat="42.6510354" lon="13.6680581"><ele>368.0</ele><time>2026-05-01T07:20:03.835Z</time></trkpt><trkpt lat="42.651176" lon="13.66801"><ele>368.0</ele><time>2026-05-01T07:20:04.835Z</time></trkpt><trkpt lat="42.6513144" lon="13.6679502"><ele>368.0</ele><time>2026-05-01T07:20:05.835Z</time></trkpt><trkpt lat="42.6514518" lon="13.6678834"><ele>367.5</ele><time>2026-05-01T07:20:06.835Z</time></trkpt><trkpt lat="42.6515923" lon="13.6678134"><ele>367.0</ele><time>2026-05-01T07:20:07.834Z</time></trkpt><trkpt lat="42.651731" lon="13.6677456"><ele>366.5</ele><time>2026-05-01T07:20:08.835Z</time></trkpt><trkpt lat="42.6518616" lon="13.6676814"><ele>366.0</ele><time>2026-05-01T07:20:09.834Z</time></trkpt><trkpt lat="42.6519813" lon="13.6676073"><ele>368.25</ele><time>2026-05-01T07:20:10.834Z</time></trkpt><trkpt lat="42.6520867" lon="13.6675038"><ele>370.5</ele><time>2026-05-01T07:20:11.835Z</time></trkpt><trkpt lat="42.652175" lon="13.6673708"><ele>372.75</ele><time>2026-05-01T07:20:12.833Z</time></trkpt><trkpt lat="42.6522351" lon="13.6672052"><ele>375.0</ele><time>2026-05-01T07:20:13.833Z</time></trkpt><trkpt lat="42.6522755" lon="13.6670317"><ele>375.25</ele><time>2026-05-01T07:20:14.834Z</time></trkpt><trkpt lat="42.652307" lon="13.6668677"><ele>375.5</ele><time>2026-05-01T07:20:15.834Z</time></trkpt><trkpt lat="42.6523333" lon="13.6667051"><ele>375.75</ele><time>2026-05-01T07:20:16.834Z</time></trkpt><trkpt lat="42.6523551" lon="13.6665286"><ele>376.0</ele><time>2026-05-01T07:20:17.834Z</time></trkpt><trkpt lat="42.6523634" lon="13.6663336"><ele>376.0</ele><time>2026-05-01T07:20:18.834Z</time></trkpt><trkpt lat="42.652359" lon="13.6661207"><ele>376.0</ele><time>2026-05-01T07:20:19.833Z</time></trkpt><trkpt lat="42.6523346" lon="13.6659133"><ele>376.0</ele><time>2026-05-01T07:20:20.834Z</time></trkpt><trkpt lat="42.6522913" lon="13.6657102"><ele>377.75</ele><time>2026-05-01T07:20:21.834Z</time></trkpt><trkpt lat="42.6522233" lon="13.6655376"><ele>379.5</ele><time>2026-05-01T07:20:22.835Z</time></trkpt><trkpt lat="42.6521417" lon="13.6653811"><ele>381.25</ele><time>2026-05-01T07:20:23.835Z</time></trkpt><trkpt lat="42.6520617" lon="13.6652395"><ele>383.0</ele><time>2026-05-01T07:20:24.834Z</time></trkpt><trkpt lat="42.6519862" lon="13.6651062"><ele>383.79999999999995</ele><time>2026-05-01T07:20:25.833Z</time></trkpt><trkpt lat="42.651934" lon="13.6649769"><ele>384.6</ele><time>2026-05-01T07:20:26.834Z</time></trkpt><trkpt lat="42.6519085" lon="13.664845"><ele>385.4</ele><time>2026-05-01T07:20:27.834Z</time></trkpt><trkpt lat="42.651917" lon="13.6647082"><ele>386.20000000000005</ele><time>2026-05-01T07:20:28.835Z</time></trkpt><trkpt lat="42.6519538" lon="13.6645832"><ele>387.0</ele><time>2026-05-01T07:20:29.835Z</time></trkpt><trkpt lat="42.6520203" lon="13.6644896"><ele>387.0</ele><time>2026-05-01T07:20:30.833Z</time></trkpt><trkpt lat="42.6521019" lon="13.6644362"><ele>387.0</ele><time>2026-05-01T07:20:31.833Z</time></trkpt><trkpt lat="42.652196" lon="13.6644263"><ele>387.0</ele><time>2026-05-01T07:20:32.833Z</time></trkpt><trkpt lat="42.6522945" lon="13.6644557"><ele>387.0</ele><time>2026-05-01T07:20:33.835Z</time></trkpt><trkpt lat="42.6523905" lon="13.664537"><ele>387.0</ele><time>2026-05-01T07:20:34.835Z</time></trkpt><trkpt lat="42.6524926" lon="13.6646593"><ele>387.0</ele><time>2026-05-01T07:20:35.835Z</time></trkpt><trkpt lat="42.6525898" lon="13.6648064"><ele>387.0</ele><time>2026-05-01T07:20:36.834Z</time></trkpt><trkpt lat="42.6526862" lon="13.6649633"><ele>387.0</ele><time>2026-05-01T07:20:37.835Z</time></trkpt><trkpt lat="42.6527936" lon="13.6651232"><ele>388.66666666666663</ele><time>2026-05-01T07:20:38.834Z</time></trkpt><trkpt lat="42.6529017" lon="13.665297"><ele>390.3333333333333</ele><time>2026-05-01T07:20:39.835Z</time></trkpt><trkpt lat="42.6530058" lon="13.6654631"><ele>392.0</ele><time>2026-05-01T07:20:40.833Z</time></trkpt><trkpt lat="42.6531118" lon="13.665606"><ele>392.0</ele><time>2026-05-01T07:20:41.835Z</time></trkpt><trkpt lat="42.6532298" lon="13.6657385"><ele>392.0</ele><time>2026-05-01T07:20:42.834Z</time></trkpt><trkpt lat="42.6533782" lon="13.6658235"><ele>392.0</ele><time>2026-05-01T07:20:43.834Z</time></trkpt><trkpt lat="42.6535398" lon="13.6658891"><ele>393.66666666666663</ele><time>2026-05-01T07:20:44.835Z</time></trkpt><trkpt lat="42.6537139" lon="13.6659248"><ele>395.33333333333337</ele><time>2026-05-01T07:20:45.834Z</time></trkpt><trkpt lat="42.6538988" lon="13.6659485"><ele>397.0</ele><time>2026-05-01T07:20:46.834Z</time></trkpt><trkpt lat="42.654095" lon="13.6659763"><ele>397.0</ele><time>2026-05-01T07:20:47.834Z</time></trkpt><trkpt lat="42.6542905" lon="13.6660094"><ele>397.0</ele><time>2026-05-01T07:20:48.834Z</time></trkpt><trkpt lat="42.6544897" lon="13.6660402"><ele>397.0</ele><time>2026-05-01T07:20:49.833Z</time></trkpt><trkpt lat="42.6546833" lon="13.6660728"><ele>399.6666666666667</ele><time>2026-05-01T07:20:50.834Z</time></trkpt><trkpt lat="42.6548843" lon="13.6661011"><ele>402.33333333333337</ele><time>2026-05-01T07:20:51.834Z</time></trkpt><trkpt lat="42.655081" lon="13.6661257"><ele>405.0</ele><time>2026-05-01T07:20:52.834Z</time></trkpt><trkpt lat="42.6552725" lon="13.666144"><ele>404.0</ele><time>2026-05-01T07:20:53.833Z</time></trkpt><trkpt lat="42.6554553" lon="13.6661649"><ele>403.0</ele><time>2026-05-01T07:20:54.834Z</time></trkpt><trkpt lat="42.655624" lon="13.6661743"><ele>402.0</ele><time>2026-05-01T07:20:55.833Z</time></trkpt><trkpt lat="42.6557811" lon="13.6661837"><ele>402.0</ele><time>2026-05-01T07:20:56.834Z</time></trkpt><trkpt lat="42.6559335" lon="13.6661898"><ele>402.0</ele><time>2026-05-01T07:20:57.832Z</time></trkpt><trkpt lat="42.6560805" lon="13.6661965"><ele>402.0</ele><time>2026-05-01T07:20:58.832Z</time></trkpt><trkpt lat="42.656218" lon="13.6662"><ele>402.0</ele><time>2026-05-01T07:20:59.833Z</time></trkpt><trkpt lat="42.6563449" lon="13.6662029"><ele>402.5</ele><time>2026-05-01T07:21:00.834Z</time></trkpt><trkpt lat="42.6564668" lon="13.6661936"><ele>403.0</ele><time>2026-05-01T07:21:01.834Z</time></trkpt><trkpt lat="42.6565774" lon="13.6661485"><ele>403.5</ele><time>2026-05-01T07:21:02.833Z</time></trkpt><trkpt lat="42.6566769" lon="13.6660601"><ele>404.0</ele><time>2026-05-01T07:21:03.832Z</time></trkpt><trkpt lat="42.6567479" lon="13.6659349"><ele>404.0</ele><time>2026-05-01T07:21:04.832Z</time></trkpt><trkpt lat="42.6567955" lon="13.6657766"><ele>404.0</ele><time>2026-05-01T07:21:05.832Z</time></trkpt><trkpt lat="42.6568195" lon="13.6655839"><ele>404.0</ele><time>2026-05-01T07:21:06.832Z</time></trkpt><trkpt lat="42.6568432" lon="13.6653807"><ele>404.0</ele><time>2026-05-01T07:21:07.833Z</time></trkpt><trkpt lat="42.6568641" lon="13.6651789"><ele>404.66666666666663</ele><time>2026-05-01T07:21:08.833Z</time></trkpt><trkpt lat="42.656887" lon="13.6649806"><ele>405.33333333333337</ele><time>2026-05-01T07:21:09.832Z</time></trkpt><trkpt lat="42.6569101" lon="13.6647774"><ele>406.0</ele><time>2026-05-01T07:21:10.834Z</time></trkpt><trkpt lat="42.6569354" lon="13.6645701"><ele>406.75</ele><time>2026-05-01T07:21:11.833Z</time></trkpt><trkpt lat="42.6569563" lon="13.6643655"><ele>407.5</ele><time>2026-05-01T07:21:12.832Z</time></trkpt><trkpt lat="42.6569751" lon="13.6641677"><ele>408.25</ele><time>2026-05-01T07:21:13.832Z</time></trkpt><trkpt lat="42.6569975" lon="13.6639717"><ele>409.0</ele><time>2026-05-01T07:21:14.833Z</time></trkpt><trkpt lat="42.657033" lon="13.6637839"><ele>410.0</ele><time>2026-05-01T07:21:15.834Z</time></trkpt><trkpt lat="42.6570846" lon="13.6635961"><ele>411.0</ele><time>2026-05-01T07:21:16.833Z</time></trkpt><trkpt lat="42.6571451" lon="13.6634111"><ele>412.0</ele><time>2026-05-01T07:21:17.832Z</time></trkpt><trkpt lat="42.6572257" lon="13.6632247"><ele>412.0</ele><time>2026-05-01T07:21:18.833Z</time></trkpt><trkpt lat="42.6573006" lon="13.6630373"><ele>412.0</ele><time>2026-05-01T07:21:19.834Z</time></trkpt><trkpt lat="42.6573772" lon="13.6628504"><ele>412.0</ele><time>2026-05-01T07:21:20.833Z</time></trkpt><trkpt lat="42.6574475" lon="13.6626655"><ele>412.33333333333337</ele><time>2026-05-01T07:21:21.833Z</time></trkpt><trkpt lat="42.6575139" lon="13.6624818"><ele>412.66666666666663</ele><time>2026-05-01T07:21:22.834Z</time></trkpt><trkpt lat="42.6575586" lon="13.6622884"><ele>413.0</ele><time>2026-05-01T07:21:23.834Z</time></trkpt><trkpt lat="42.6575848" lon="13.662076"><ele>414.3333333333333</ele><time>2026-05-01T07:21:24.833Z</time></trkpt><trkpt lat="42.6575879" lon="13.6618644"><ele>415.66666666666663</ele><time>2026-05-01T07:21:25.832Z</time></trkpt><trkpt lat="42.657559" lon="13.6616551"><ele>417.0</ele><time>2026-05-01T07:21:26.832Z</time></trkpt><trkpt lat="42.6575053" lon="13.661468"><ele>417.0</ele><time>2026-05-01T07:21:27.832Z</time></trkpt><trkpt lat="42.6574279" lon="13.6613076"><ele>417.0</ele><time>2026-05-01T07:21:28.832Z</time></trkpt><trkpt lat="42.6573367" lon="13.6611694"><ele>417.0</ele><time>2026-05-01T07:21:29.834Z</time></trkpt><trkpt lat="42.6572328" lon="13.6610424"><ele>417.0</ele><time>2026-05-01T07:21:30.832Z</time></trkpt><trkpt lat="42.6571275" lon="13.6609229"><ele>416.5</ele><time>2026-05-01T07:21:31.833Z</time></trkpt><trkpt lat="42.6570383" lon="13.6607966"><ele>416.0</ele><time>2026-05-01T07:21:32.833Z</time></trkpt><trkpt lat="42.6569703" lon="13.6606587"><ele>415.5</ele><time>2026-05-01T07:21:33.833Z</time></trkpt><trkpt lat="42.6569233" lon="13.6605058"><ele>415.0</ele><time>2026-05-01T07:21:34.832Z</time></trkpt><trkpt lat="42.656898" lon="13.6603326"><ele>415.5</ele><time>2026-05-01T07:21:35.832Z</time></trkpt><trkpt lat="42.6568945" lon="13.6601449"><ele>416.0</ele><time>2026-05-01T07:21:36.833Z</time></trkpt><trkpt lat="42.6569119" lon="13.6599473"><ele>416.5</ele><time>2026-05-01T07:21:37.834Z</time></trkpt><trkpt lat="42.6569363" lon="13.6597574"><ele>417.0</ele><time>2026-05-01T07:21:38.833Z</time></trkpt><trkpt lat="42.6569684" lon="13.6595819"><ele>419.5</ele><time>2026-05-01T07:21:39.832Z</time></trkpt><trkpt lat="42.6570216" lon="13.6594149"><ele>422.0</ele><time>2026-05-01T07:21:40.833Z</time></trkpt><trkpt lat="42.6570929" lon="13.6592619"><ele>424.5</ele><time>2026-05-01T07:21:41.832Z</time></trkpt><trkpt lat="42.6571894" lon="13.6591309"><ele>427.0</ele><time>2026-05-01T07:21:42.832Z</time></trkpt><trkpt lat="42.6572941" lon="13.6590054"><ele>427.0</ele><time>2026-05-01T07:21:43.834Z</time></trkpt><trkpt lat="42.6574038" lon="13.6588793"><ele>427.0</ele><time>2026-05-01T07:21:44.833Z</time></trkpt><trkpt lat="42.6575156" lon="13.6587508"><ele>427.0</ele><time>2026-05-01T07:21:45.833Z</time></trkpt><trkpt lat="42.6576201" lon="13.6586266"><ele>427.0</ele><time>2026-05-01T07:21:46.832Z</time></trkpt><trkpt lat="42.6577153" lon="13.6584936"><ele>428.75</ele><time>2026-05-01T07:21:47.833Z</time></trkpt><trkpt lat="42.6577963" lon="13.6583457"><ele>430.5</ele><time>2026-05-01T07:21:48.833Z</time></trkpt><trkpt lat="42.657861" lon="13.6581856"><ele>432.25</ele><time>2026-05-01T07:21:49.832Z</time></trkpt><trkpt lat="42.6579107" lon="13.658005"><ele>434.0</ele><time>2026-05-01T07:21:50.832Z</time></trkpt><trkpt lat="42.6579558" lon="13.6578204"><ele>434.0</ele><time>2026-05-01T07:21:51.832Z</time></trkpt><trkpt lat="42.6579986" lon="13.6576325"><ele>434.0</ele><time>2026-05-01T07:21:52.833Z</time></trkpt><trkpt lat="42.6580403" lon="13.6574439"><ele>434.0</ele><time>2026-05-01T07:21:53.834Z</time></trkpt><trkpt lat="42.658078" lon="13.6572618"><ele>434.0</ele><time>2026-05-01T07:21:54.834Z</time></trkpt><trkpt lat="42.6581183" lon="13.6570853"><ele>434.0</ele><time>2026-05-01T07:21:55.833Z</time></trkpt><trkpt lat="42.6581568" lon="13.6569229"><ele>434.0</ele><time>2026-05-01T07:21:56.833Z</time></trkpt><trkpt lat="42.6581893" lon="13.6567733"><ele>434.0</ele><time>2026-05-01T07:21:57.833Z</time></trkpt><trkpt lat="42.6582186" lon="13.6566374"><ele>434.0</ele><time>2026-05-01T07:21:58.833Z</time></trkpt><trkpt lat="42.658245" lon="13.6565204"><ele>434.0</ele><time>2026-05-01T07:21:59.833Z</time></trkpt><trkpt lat="42.6582611" lon="13.6564139"><ele>434.0</ele><time>2026-05-01T07:22:00.832Z</time></trkpt><trkpt lat="42.6582601" lon="13.6562755"><ele>434.0</ele><time>2026-05-01T07:22:02.833Z</time></trkpt><trkpt lat="42.6582345" lon="13.6561746"><ele>434.0</ele><time>2026-05-01T07:22:04.834Z</time></trkpt><trkpt lat="42.6582054" lon="13.6560702"><ele>434.0</ele><time>2026-05-01T07:22:06.833Z</time></trkpt><trkpt lat="42.65826" lon="13.6559209"><ele>434.0</ele><time>2026-05-01T07:22:08.833Z</time></trkpt><trkpt lat="42.6583126" lon="13.6558353"><ele>433.8333333333333</ele><time>2026-05-01T07:22:09.834Z</time></trkpt><trkpt lat="42.6583662" lon="13.6557466"><ele>433.66666666666663</ele><time>2026-05-01T07:22:10.834Z</time></trkpt><trkpt lat="42.6584272" lon="13.6556631"><ele>433.5</ele><time>2026-05-01T07:22:11.833Z</time></trkpt><trkpt lat="42.658491" lon="13.6555882"><ele>433.33333333333337</ele><time>2026-05-01T07:22:12.832Z</time></trkpt><trkpt lat="42.6585726" lon="13.655524"><ele>433.1666666666667</ele><time>2026-05-01T07:22:13.832Z</time></trkpt><trkpt lat="42.6586515" lon="13.6554814"><ele>433.0</ele><time>2026-05-01T07:22:14.833Z</time></trkpt><trkpt lat="42.6587275" lon="13.6554545"><ele>433.00000000000006</ele><time>2026-05-01T07:22:15.832Z</time></trkpt><trkpt lat="42.6587913" lon="13.6554296"><ele>433.0</ele><time>2026-05-01T07:22:16.833Z</time></trkpt><trkpt lat="42.6588539" lon="13.6553892"><ele>433.0</ele><time>2026-05-01T07:22:17.832Z</time></trkpt><trkpt lat="42.658918" lon="13.6553496"><ele>433.0</ele><time>2026-05-01T07:22:18.832Z</time></trkpt><trkpt lat="42.6589986" lon="13.6553178"><ele>433.00000000000006</ele><time>2026-05-01T07:22:19.833Z</time></trkpt><trkpt lat="42.6590864" lon="13.6552913"><ele>433.0</ele><time>2026-05-01T07:22:20.833Z</time></trkpt><trkpt lat="42.6591727" lon="13.6552534"><ele>429.59999999999997</ele><time>2026-05-01T07:22:21.832Z</time></trkpt><trkpt lat="42.6592485" lon="13.6551688"><ele>426.19999999999993</ele><time>2026-05-01T07:22:22.832Z</time></trkpt><trkpt lat="42.6593067" lon="13.6550418"><ele>422.8</ele><time>2026-05-01T07:22:23.833Z</time></trkpt><trkpt lat="42.6593576" lon="13.6548994"><ele>419.4</ele><time>2026-05-01T07:22:24.833Z</time></trkpt><trkpt lat="42.6594034" lon="13.6547524"><ele>416.0</ele><time>2026-05-01T07:22:25.833Z</time></trkpt><trkpt lat="42.6594506" lon="13.6546076"><ele>414.49999999999994</ele><time>2026-05-01T07:22:26.832Z</time></trkpt><trkpt lat="42.6594972" lon="13.6544916"><ele>413.0</ele><time>2026-05-01T07:22:27.832Z</time></trkpt><trkpt lat="42.6595382" lon="13.6543762"><ele>411.5</ele><time>2026-05-01T07:22:28.832Z</time></trkpt><trkpt lat="42.659572" lon="13.6542699"><ele>410.0</ele><time>2026-05-01T07:22:29.833Z</time></trkpt><trkpt lat="42.6595958" lon="13.6541789"><ele>408.49999999999994</ele><time>2026-05-01T07:22:30.832Z</time></trkpt><trkpt lat="42.6596152" lon="13.6540748"><ele>407.0</ele><time>2026-05-01T07:22:32.833Z</time></trkpt><trkpt lat="42.6596381" lon="13.653971"><ele>407.0</ele><time>2026-05-01T07:22:34.833Z</time></trkpt><trkpt lat="42.6596685" lon="13.6538789"><ele>407.0</ele><time>2026-05-01T07:22:35.833Z</time></trkpt><trkpt lat="42.6597032" lon="13.6537651"><ele>407.0</ele><time>2026-05-01T07:22:36.833Z</time></trkpt><trkpt lat="42.6597321" lon="13.6536318"><ele>407.0</ele><time>2026-05-01T07:22:37.832Z</time></trkpt><trkpt lat="42.6597552" lon="13.6534909"><ele>407.0</ele><time>2026-05-01T07:22:38.833Z</time></trkpt><trkpt lat="42.6597723" lon="13.6533335"><ele>408.5</ele><time>2026-05-01T07:22:39.833Z</time></trkpt><trkpt lat="42.6597768" lon="13.6531568"><ele>410.0</ele><time>2026-05-01T07:22:40.833Z</time></trkpt><trkpt lat="42.6597691" lon="13.6529669"><ele>411.5</ele><time>2026-05-01T07:22:41.832Z</time></trkpt><trkpt lat="42.6597421" lon="13.6527771"><ele>413.0</ele><time>2026-05-01T07:22:42.832Z</time></trkpt><trkpt lat="42.659704" lon="13.6525905"><ele>413.5</ele><time>2026-05-01T07:22:43.832Z</time></trkpt><trkpt lat="42.6596665" lon="13.6524031"><ele>414.0</ele><time>2026-05-01T07:22:44.833Z</time></trkpt><trkpt lat="42.6596314" lon="13.652222"><ele>414.5</ele><time>2026-05-01T07:22:45.833Z</time></trkpt><trkpt lat="42.6596016" lon="13.6520436"><ele>415.0</ele><time>2026-05-01T07:22:46.833Z</time></trkpt><trkpt lat="42.6595648" lon="13.6518816"><ele>414.0</ele><time>2026-05-01T07:22:47.833Z</time></trkpt><trkpt lat="42.6595118" lon="13.651736"><ele>413.0</ele><time>2026-05-01T07:22:48.832Z</time></trkpt><trkpt lat="42.6594707" lon="13.6515876"><ele>412.0</ele><time>2026-05-01T07:22:49.832Z</time></trkpt><trkpt lat="42.6594595" lon="13.6514285"><ele>411.0</ele><time>2026-05-01T07:22:50.833Z</time></trkpt><trkpt lat="42.6594679" lon="13.6512586"><ele>409.0</ele><time>2026-05-01T07:22:51.833Z</time></trkpt><trkpt lat="42.6595063" lon="13.6510922"><ele>407.0</ele><time>2026-05-01T07:22:52.832Z</time></trkpt><trkpt lat="42.6595714" lon="13.6509313"><ele>405.0</ele><time>2026-05-01T07:22:53.833Z</time></trkpt><trkpt lat="42.6596589" lon="13.6507883"><ele>403.0</ele><time>2026-05-01T07:22:54.832Z</time></trkpt><trkpt lat="42.6597565" lon="13.6506639"><ele>403.0</ele><time>2026-05-01T07:22:55.833Z</time></trkpt><trkpt lat="42.65986" lon="13.6505499"><ele>403.0</ele><time>2026-05-01T07:22:56.833Z</time></trkpt><trkpt lat="42.659953" lon="13.6504267"><ele>403.0</ele><time>2026-05-01T07:22:57.832Z</time></trkpt><trkpt lat="42.6600307" lon="13.6502786"><ele>403.0</ele><time>2026-05-01T07:22:58.833Z</time></trkpt><trkpt lat="42.6600941" lon="13.6501104"><ele>404.0</ele><time>2026-05-01T07:22:59.832Z</time></trkpt><trkpt lat="42.6601413" lon="13.6499446"><ele>405.0</ele><time>2026-05-01T07:23:00.832Z</time></trkpt><trkpt lat="42.6601854" lon="13.6497755"><ele>406.0</ele><time>2026-05-01T07:23:01.834Z</time></trkpt><trkpt lat="42.6602145" lon="13.6496173"><ele>407.0</ele><time>2026-05-01T07:23:02.833Z</time></trkpt><trkpt lat="42.6602166" lon="13.6494656"><ele>406.8</ele><time>2026-05-01T07:23:03.833Z</time></trkpt><trkpt lat="42.660192" lon="13.6493525"><ele>406.6</ele><time>2026-05-01T07:23:04.832Z</time></trkpt><trkpt lat="42.6601462" lon="13.6492326"><ele>406.40000000000003</ele><time>2026-05-01T07:23:05.833Z</time></trkpt><trkpt lat="42.6600781" lon="13.6491002"><ele>406.20000000000005</ele><time>2026-05-01T07:23:06.833Z</time></trkpt><trkpt lat="42.6599941" lon="13.6489555"><ele>406.0</ele><time>2026-05-01T07:23:07.833Z</time></trkpt><trkpt lat="42.6598962" lon="13.6487926"><ele>404.6666666666667</ele><time>2026-05-01T07:23:08.832Z</time></trkpt><trkpt lat="42.6597943" lon="13.6486182"><ele>403.33333333333337</ele><time>2026-05-01T07:23:09.833Z</time></trkpt><trkpt lat="42.6596942" lon="13.6484347"><ele>402.0</ele><time>2026-05-01T07:23:10.832Z</time></trkpt><trkpt lat="42.6595841" lon="13.6482436"><ele>402.0</ele><time>2026-05-01T07:23:11.834Z</time></trkpt><trkpt lat="42.6594631" lon="13.6480505"><ele>402.0</ele><time>2026-05-01T07:23:12.833Z</time></trkpt><trkpt lat="42.6593392" lon="13.6478548"><ele>402.0</ele><time>2026-05-01T07:23:13.833Z</time></trkpt><trkpt lat="42.6592178" lon="13.6476593"><ele>406.33333333333337</ele><time>2026-05-01T07:23:14.833Z</time></trkpt><trkpt lat="42.6591024" lon="13.6474627"><ele>410.6666666666667</ele><time>2026-05-01T07:23:15.834Z</time></trkpt><trkpt lat="42.6589918" lon="13.6472673"><ele>415.0</ele><time>2026-05-01T07:23:16.832Z</time></trkpt><trkpt lat="42.6588829" lon="13.6470778"><ele>412.33333333333337</ele><time>2026-05-01T07:23:17.833Z</time></trkpt><trkpt lat="42.6587848" lon="13.6468858"><ele>409.66666666666663</ele><time>2026-05-01T07:23:18.833Z</time></trkpt><trkpt lat="42.6586833" lon="13.6466909"><ele>407.0</ele><time>2026-05-01T07:23:19.832Z</time></trkpt><trkpt lat="42.6585681" lon="13.6464939"><ele>412.0</ele><time>2026-05-01T07:23:20.833Z</time></trkpt><trkpt lat="42.6584513" lon="13.6462979"><ele>417.0</ele><time>2026-05-01T07:23:21.833Z</time></trkpt><trkpt lat="42.6583244" lon="13.6460971"><ele>422.0</ele><time>2026-05-01T07:23:22.834Z</time></trkpt><trkpt lat="42.658199" lon="13.6458884"><ele>422.0</ele><time>2026-05-01T07:23:23.833Z</time></trkpt><trkpt lat="42.6580803" lon="13.6456894"><ele>422.0</ele><time>2026-05-01T07:23:24.833Z</time></trkpt><trkpt lat="42.6579692" lon="13.6455032"><ele>422.0</ele><time>2026-05-01T07:23:25.832Z</time></trkpt><trkpt lat="42.6578633" lon="13.645333"><ele>425.25</ele><time>2026-05-01T07:23:26.832Z</time></trkpt><trkpt lat="42.6577686" lon="13.6451773"><ele>428.5</ele><time>2026-05-01T07:23:27.833Z</time></trkpt><trkpt lat="42.6576706" lon="13.6450331"><ele>431.75</ele><time>2026-05-01T07:23:28.833Z</time></trkpt><trkpt lat="42.6575662" lon="13.6449085"><ele>435.0</ele><time>2026-05-01T07:23:29.833Z</time></trkpt><trkpt lat="42.6574697" lon="13.6447813"><ele>435.0</ele><time>2026-05-01T07:23:30.833Z</time></trkpt><trkpt lat="42.6573871" lon="13.6446319"><ele>435.0</ele><time>2026-05-01T07:23:31.833Z</time></trkpt><trkpt lat="42.6573114" lon="13.6444669"><ele>435.0</ele><time>2026-05-01T07:23:32.834Z</time></trkpt><trkpt lat="42.6572498" lon="13.6442847"><ele>435.0</ele><time>2026-05-01T07:23:33.832Z</time></trkpt><trkpt lat="42.6571926" lon="13.6441"><ele>432.75</ele><time>2026-05-01T07:23:34.834Z</time></trkpt><trkpt lat="42.6571308" lon="13.643919"><ele>430.5</ele><time>2026-05-01T07:23:35.834Z</time></trkpt><trkpt lat="42.6570737" lon="13.6437414"><ele>428.25</ele><time>2026-05-01T07:23:36.833Z</time></trkpt><trkpt lat="42.6570241" lon="13.6435641"><ele>426.0</ele><time>2026-05-01T07:23:37.834Z</time></trkpt><trkpt lat="42.6569646" lon="13.6433888"><ele>430.75</ele><time>2026-05-01T07:23:38.833Z</time></trkpt><trkpt lat="42.6569055" lon="13.6432238"><ele>435.5</ele><time>2026-05-01T07:23:39.832Z</time></trkpt><trkpt lat="42.6568477" lon="13.6430771"><ele>440.25</ele><time>2026-05-01T07:23:40.833Z</time></trkpt><trkpt lat="42.6567886" lon="13.6429559"><ele>445.0</ele><time>2026-05-01T07:23:41.832Z</time></trkpt><trkpt lat="42.656724" lon="13.6428621"><ele>445.0</ele><time>2026-05-01T07:23:42.833Z</time></trkpt><trkpt lat="42.6566437" lon="13.6428057"><ele>445.0</ele><time>2026-05-01T07:23:43.833Z</time></trkpt><trkpt lat="42.6565467" lon="13.642796"><ele>445.0</ele><time>2026-05-01T07:23:44.833Z</time></trkpt><trkpt lat="42.6564488" lon="13.6428287"><ele>445.0</ele><time>2026-05-01T07:23:45.832Z</time></trkpt><trkpt lat="42.6563454" lon="13.6429114"><ele>445.0</ele><time>2026-05-01T07:23:46.832Z</time></trkpt><trkpt lat="42.6562338" lon="13.6430216"><ele>445.0</ele><time>2026-05-01T07:23:47.833Z</time></trkpt><trkpt lat="42.6561271" lon="13.6431304"><ele>445.0</ele><time>2026-05-01T07:23:48.834Z</time></trkpt><trkpt lat="42.6560167" lon="13.6432269"><ele>445.0</ele><time>2026-05-01T07:23:49.834Z</time></trkpt><trkpt lat="42.6558861" lon="13.6433049"><ele>445.0</ele><time>2026-05-01T07:23:50.833Z</time></trkpt><trkpt lat="42.655738" lon="13.6433645"><ele>447.5</ele><time>2026-05-01T07:23:51.833Z</time></trkpt><trkpt lat="42.6555983" lon="13.6434081"><ele>450.0</ele><time>2026-05-01T07:23:52.833Z</time></trkpt><trkpt lat="42.6554763" lon="13.6434347"><ele>452.5</ele><time>2026-05-01T07:23:53.833Z</time></trkpt><trkpt lat="42.6553682" lon="13.6434496"><ele>455.0</ele><time>2026-05-01T07:23:54.832Z</time></trkpt><trkpt lat="42.6552759" lon="13.64347"><ele>457.75</ele><time>2026-05-01T07:23:55.832Z</time></trkpt><trkpt lat="42.6551917" lon="13.6434869"><ele>460.5</ele><time>2026-05-01T07:23:56.832Z</time></trkpt><trkpt lat="42.6550927" lon="13.6435467"><ele>463.25</ele><time>2026-05-01T07:23:58.833Z</time></trkpt><trkpt lat="42.6552076" lon="13.6436937"><ele>466.0</ele><time>2026-05-01T07:24:01.833Z</time></trkpt><trkpt lat="42.6553099" lon="13.6437507"><ele>466.1666666666667</ele><time>2026-05-01T07:24:02.832Z</time></trkpt><trkpt lat="42.6554017" lon="13.643823"><ele>466.33333333333337</ele><time>2026-05-01T07:24:03.833Z</time></trkpt><trkpt lat="42.6554897" lon="13.6438822"><ele>466.5</ele><time>2026-05-01T07:24:04.833Z</time></trkpt><trkpt lat="42.655557" lon="13.6439354"><ele>466.66666666666663</ele><time>2026-05-01T07:24:05.833Z</time></trkpt><trkpt lat="42.6556078" lon="13.6439965"><ele>466.8333333333333</ele><time>2026-05-01T07:24:06.833Z</time></trkpt><trkpt lat="42.6556087" lon="13.6441307"><ele>467.0</ele><time>2026-05-01T07:24:08.833Z</time></trkpt><trkpt lat="42.6555566" lon="13.644214"><ele>467.0</ele><time>2026-05-01T07:24:09.833Z</time></trkpt><trkpt lat="42.655478" lon="13.6442938"><ele>467.00000000000006</ele><time>2026-05-01T07:24:10.833Z</time></trkpt><trkpt lat="42.6553939" lon="13.6443709"><ele>467.00000000000006</ele><time>2026-05-01T07:24:11.833Z</time></trkpt><trkpt lat="42.6552922" lon="13.6444411"><ele>467.0</ele><time>2026-05-01T07:24:12.832Z</time></trkpt><trkpt lat="42.6551693" lon="13.6444997"><ele>467.0</ele><time>2026-05-01T07:24:13.832Z</time></trkpt><trkpt lat="42.6550414" lon="13.6445499"><ele>470.40000000000003</ele><time>2026-05-01T07:24:14.832Z</time></trkpt><trkpt lat="42.6549212" lon="13.6445833"><ele>473.80000000000007</ele><time>2026-05-01T07:24:15.833Z</time></trkpt><trkpt lat="42.6548135" lon="13.644629"><ele>477.2</ele><time>2026-05-01T07:24:16.832Z</time></trkpt><trkpt lat="42.6547193" lon="13.6446774"><ele>480.6</ele><time>2026-05-01T07:24:17.832Z</time></trkpt><trkpt lat="42.6546463" lon="13.6447549"><ele>484.0</ele><time>2026-05-01T07:24:18.833Z</time></trkpt><trkpt lat="42.6545987" lon="13.644862"><ele>484.0</ele><time>2026-05-01T07:24:19.832Z</time></trkpt><trkpt lat="42.6545695" lon="13.6449838"><ele>484.0</ele><time>2026-05-01T07:24:20.833Z</time></trkpt><trkpt lat="42.6545416" lon="13.6450832"><ele>484.0</ele><time>2026-05-01T07:24:21.833Z</time></trkpt><trkpt lat="42.6544518" lon="13.6451386"><ele>484.0</ele><time>2026-05-01T07:24:23.833Z</time></trkpt><trkpt lat="42.6543666" lon="13.6450046"><ele>484.0</ele><time>2026-05-01T07:24:25.834Z</time></trkpt><trkpt lat="42.6543336" lon="13.6449181"><ele>488.2</ele><time>2026-05-01T07:24:26.834Z</time></trkpt><trkpt lat="42.6542953" lon="13.6448115"><ele>492.4</ele><time>2026-05-01T07:24:27.833Z</time></trkpt><trkpt lat="42.6542321" lon="13.6446733"><ele>496.6</ele><time>2026-05-01T07:24:29.833Z</time></trkpt><trkpt lat="42.6541199" lon="13.6446248"><ele>500.8</ele><time>2026-05-01T07:24:31.832Z</time></trkpt><trkpt lat="42.654053" lon="13.6446556"><ele>505.0</ele><time>2026-05-01T07:24:32.833Z</time></trkpt><trkpt lat="42.6539339" lon="13.6448272"><ele>505.0</ele><time>2026-05-01T07:24:33.832Z</time></trkpt><trkpt lat="42.6538422" lon="13.6449156"><ele>505.0</ele><time>2026-05-01T07:24:34.833Z</time></trkpt><trkpt lat="42.653752" lon="13.6449655"><ele>505.0</ele><time>2026-05-01T07:24:35.832Z</time></trkpt><trkpt lat="42.6536649" lon="13.6449991"><ele>505.0</ele><time>2026-05-01T07:24:36.834Z</time></trkpt><trkpt lat="42.6535733" lon="13.6450377"><ele>505.0</ele><time>2026-05-01T07:24:37.833Z</time></trkpt><trkpt lat="42.6534903" lon="13.6450987"><ele>507.8</ele><time>2026-05-01T07:24:38.832Z</time></trkpt><trkpt lat="42.6534176" lon="13.6451595"><ele>510.6</ele><time>2026-05-01T07:24:39.832Z</time></trkpt><trkpt lat="42.653334" lon="13.6452059"><ele>513.4</ele><time>2026-05-01T07:24:40.833Z</time></trkpt><trkpt lat="42.6532453" lon="13.6452132"><ele>516.2</ele><time>2026-05-01T07:24:41.833Z</time></trkpt><trkpt lat="42.6531852" lon="13.6450855"><ele>519.0</ele><time>2026-05-01T07:24:42.832Z</time></trkpt><trkpt lat="42.6531197" lon="13.6450138"><ele>519.0</ele><time>2026-05-01T07:24:43.834Z</time></trkpt><trkpt lat="42.6530638" lon="13.6449019"><ele>519.0</ele><time>2026-05-01T07:24:44.832Z</time></trkpt><trkpt lat="42.6530028" lon="13.6447897"><ele>519.0</ele><time>2026-05-01T07:24:45.833Z</time></trkpt><trkpt lat="42.6529584" lon="13.6446597"><ele>519.0</ele><time>2026-05-01T07:24:46.833Z</time></trkpt><trkpt lat="42.6529254" lon="13.6445298"><ele>519.0</ele><time>2026-05-01T07:24:47.833Z</time></trkpt><trkpt lat="42.6529002" lon="13.6443888"><ele>514.8</ele><time>2026-05-01T07:24:48.833Z</time></trkpt><trkpt lat="42.6528929" lon="13.6442466"><ele>510.59999999999997</ele><time>2026-05-01T07:24:49.833Z</time></trkpt><trkpt lat="42.6528835" lon="13.6441234"><ele>506.4</ele><time>2026-05-01T07:24:50.833Z</time></trkpt><trkpt lat="42.6528863" lon="13.6439994"><ele>502.2</ele><time>2026-05-01T07:24:51.834Z</time></trkpt><trkpt lat="42.6528747" lon="13.643883"><ele>498.0</ele><time>2026-05-01T07:24:52.834Z</time></trkpt><trkpt lat="42.6528588" lon="13.6437702"><ele>498.0</ele><time>2026-05-01T07:24:53.834Z</time></trkpt><trkpt lat="42.6528348" lon="13.6436753"><ele>498.0</ele><time>2026-05-01T07:24:54.833Z</time></trkpt><trkpt lat="42.6527765" lon="13.6435554"><ele>498.0</ele><time>2026-05-01T07:24:56.833Z</time></trkpt><trkpt lat="42.6527429" lon="13.6434602"><ele>498.0</ele><time>2026-05-01T07:24:59.833Z</time></trkpt><trkpt lat="42.6527699" lon="13.643344"><ele>498.0</ele><time>2026-05-01T07:25:01.833Z</time></trkpt><trkpt lat="42.6527982" lon="13.6432479"><ele>498.0</ele><time>2026-05-01T07:25:02.833Z</time></trkpt><trkpt lat="42.6528257" lon="13.6431291"><ele>499.5</ele><time>2026-05-01T07:25:03.832Z</time></trkpt><trkpt lat="42.6528394" lon="13.6429881"><ele>501.0</ele><time>2026-05-01T07:25:04.833Z</time></trkpt><trkpt lat="42.6528354" lon="13.6428328"><ele>502.5</ele><time>2026-05-01T07:25:05.834Z</time></trkpt><trkpt lat="42.6527964" lon="13.6426712"><ele>504.0</ele><time>2026-05-01T07:25:06.833Z</time></trkpt><trkpt lat="42.6527246" lon="13.6425185"><ele>506.5</ele><time>2026-05-01T07:25:07.834Z</time></trkpt><trkpt lat="42.6526231" lon="13.6423759"><ele>509.0</ele><time>2026-05-01T07:25:08.833Z</time></trkpt><trkpt lat="42.6525165" lon="13.6422369"><ele>511.5</ele><time>2026-05-01T07:25:09.834Z</time></trkpt><trkpt lat="42.6524328" lon="13.6420972"><ele>514.0</ele><time>2026-05-01T07:25:10.832Z</time></trkpt><trkpt lat="42.6523769" lon="13.641929"><ele>518.0</ele><time>2026-05-01T07:25:11.833Z</time></trkpt><trkpt lat="42.6523335" lon="13.6417515"><ele>522.0</ele><time>2026-05-01T07:25:12.833Z</time></trkpt><trkpt lat="42.652271" lon="13.6415848"><ele>526.0</ele><time>2026-05-01T07:25:13.832Z</time></trkpt><trkpt lat="42.6521755" lon="13.6414651"><ele>530.0</ele><time>2026-05-01T07:25:14.832Z</time></trkpt><trkpt lat="42.6520679" lon="13.6413762"><ele>530.5</ele><time>2026-05-01T07:25:15.832Z</time></trkpt><trkpt lat="42.6519399" lon="13.6413294"><ele>531.0</ele><time>2026-05-01T07:25:16.831Z</time></trkpt><trkpt lat="42.6518081" lon="13.6412753"><ele>531.5</ele><time>2026-05-01T07:25:17.833Z</time></trkpt><trkpt lat="42.6516903" lon="13.6411992"><ele>532.0</ele><time>2026-05-01T07:25:18.832Z</time></trkpt><trkpt lat="42.6515855" lon="13.6411033"><ele>532.0</ele><time>2026-05-01T07:25:19.832Z</time></trkpt><trkpt lat="42.6515062" lon="13.6409838"><ele>532.0</ele><time>2026-05-01T07:25:20.832Z</time></trkpt><trkpt lat="42.6514482" lon="13.6408373"><ele>532.0</ele><time>2026-05-01T07:25:21.832Z</time></trkpt><trkpt lat="42.6513842" lon="13.6406954"><ele>532.0</ele><time>2026-05-01T07:25:22.832Z</time></trkpt><trkpt lat="42.6513017" lon="13.6405948"><ele>532.0</ele><time>2026-05-01T07:25:23.832Z</time></trkpt><trkpt lat="42.6512026" lon="13.6405401"><ele>532.0</ele><time>2026-05-01T07:25:24.833Z</time></trkpt><trkpt lat="42.6510924" lon="13.6405144"><ele>532.0</ele><time>2026-05-01T07:25:25.833Z</time></trkpt><trkpt lat="42.650979" lon="13.6404831"><ele>532.0</ele><time>2026-05-01T07:25:26.832Z</time></trkpt><trkpt lat="42.6508655" lon="13.6404393"><ele>533.8000000000001</ele><time>2026-05-01T07:25:27.831Z</time></trkpt><trkpt lat="42.6507656" lon="13.6403869"><ele>535.6</ele><time>2026-05-01T07:25:28.833Z</time></trkpt><trkpt lat="42.650682" lon="13.6403047"><ele>537.4000000000001</ele><time>2026-05-01T07:25:29.832Z</time></trkpt><trkpt lat="42.6506203" lon="13.6401878"><ele>539.2</ele><time>2026-05-01T07:25:30.832Z</time></trkpt><trkpt lat="42.6505838" lon="13.640037"><ele>541.0</ele><time>2026-05-01T07:25:31.833Z</time></trkpt><trkpt lat="42.6505717" lon="13.6398585"><ele>541.0</ele><time>2026-05-01T07:25:32.832Z</time></trkpt><trkpt lat="42.6505585" lon="13.6396736"><ele>541.0</ele><time>2026-05-01T07:25:33.832Z</time></trkpt><trkpt lat="42.6505212" lon="13.6394974"><ele>541.0</ele><time>2026-05-01T07:25:34.832Z</time></trkpt><trkpt lat="42.6504588" lon="13.6393434"><ele>541.0</ele><time>2026-05-01T07:25:35.833Z</time></trkpt><trkpt lat="42.6504113" lon="13.6392039"><ele>541.0</ele><time>2026-05-01T07:25:36.831Z</time></trkpt><trkpt lat="42.6503915" lon="13.6390722"><ele>541.0</ele><time>2026-05-01T07:25:37.831Z</time></trkpt><trkpt lat="42.6504122" lon="13.6389306"><ele>541.0</ele><time>2026-05-01T07:25:38.833Z</time></trkpt><trkpt lat="42.6504666" lon="13.6387995"><ele>541.0</ele><time>2026-05-01T07:25:39.832Z</time></trkpt><trkpt lat="42.6505511" lon="13.6386761"><ele>541.0</ele><time>2026-05-01T07:25:40.831Z</time></trkpt><trkpt lat="42.6506545" lon="13.6385517"><ele>541.0</ele><time>2026-05-01T07:25:41.833Z</time></trkpt><trkpt lat="42.6507563" lon="13.6384162"><ele>541.0</ele><time>2026-05-01T07:25:42.832Z</time></trkpt><trkpt lat="42.6508539" lon="13.638272"><ele>541.0</ele><time>2026-05-01T07:25:43.831Z</time></trkpt><trkpt lat="42.6509444" lon="13.638132"><ele>541.0</ele><time>2026-05-01T07:25:44.832Z</time></trkpt><trkpt lat="42.6510195" lon="13.6379685"><ele>539.75</ele><time>2026-05-01T07:25:45.832Z</time></trkpt><trkpt lat="42.6510718" lon="13.6377728"><ele>538.5</ele><time>2026-05-01T07:25:46.831Z</time></trkpt><trkpt lat="42.6511106" lon="13.6375967"><ele>537.25</ele><time>2026-05-01T07:25:47.832Z</time></trkpt><trkpt lat="42.6511389" lon="13.6374303"><ele>536.0</ele><time>2026-05-01T07:25:48.833Z</time></trkpt><trkpt lat="42.6511643" lon="13.6372807"><ele>536.0</ele><time>2026-05-01T07:25:49.832Z</time></trkpt><trkpt lat="42.6511559" lon="13.6371502"><ele>536.0</ele><time>2026-05-01T07:25:50.832Z</time></trkpt><trkpt lat="42.6511048" lon="13.6370278"><ele>536.0</ele><time>2026-05-01T07:25:51.831Z</time></trkpt><trkpt lat="42.6510216" lon="13.6369247"><ele>536.0</ele><time>2026-05-01T07:25:52.833Z</time></trkpt><trkpt lat="42.6509294" lon="13.6368315"><ele>536.0</ele><time>2026-05-01T07:25:53.832Z</time></trkpt><trkpt lat="42.6508246" lon="13.6367246"><ele>540.25</ele><time>2026-05-01T07:25:54.832Z</time></trkpt><trkpt lat="42.6507282" lon="13.6365889"><ele>544.5</ele><time>2026-05-01T07:25:55.832Z</time></trkpt><trkpt lat="42.6506279" lon="13.6364373"><ele>548.75</ele><time>2026-05-01T07:25:56.831Z</time></trkpt><trkpt lat="42.6505237" lon="13.6362758"><ele>553.0</ele><time>2026-05-01T07:25:57.832Z</time></trkpt><trkpt lat="42.6504126" lon="13.6361185"><ele>552.3333333333334</ele><time>2026-05-01T07:25:58.833Z</time></trkpt><trkpt lat="42.6502955" lon="13.6359626"><ele>551.6666666666666</ele><time>2026-05-01T07:25:59.831Z</time></trkpt><trkpt lat="42.6501743" lon="13.6358088"><ele>551.0</ele><time>2026-05-01T07:26:00.831Z</time></trkpt><trkpt lat="42.650052" lon="13.6356621"><ele>551.0</ele><time>2026-05-01T07:26:01.832Z</time></trkpt><trkpt lat="42.6499292" lon="13.6355236"><ele>551.0</ele><time>2026-05-01T07:26:02.833Z</time></trkpt><trkpt lat="42.6498116" lon="13.6354009"><ele>551.0</ele><time>2026-05-01T07:26:03.832Z</time></trkpt><trkpt lat="42.6496945" lon="13.6352833"><ele>549.75</ele><time>2026-05-01T07:26:04.832Z</time></trkpt><trkpt lat="42.6495877" lon="13.6351723"><ele>548.5</ele><time>2026-05-01T07:26:05.832Z</time></trkpt><trkpt lat="42.6495076" lon="13.6350344"><ele>547.25</ele><time>2026-05-01T07:26:06.833Z</time></trkpt><trkpt lat="42.6494483" lon="13.6348677"><ele>546.0</ele><time>2026-05-01T07:26:07.832Z</time></trkpt><trkpt lat="42.6493986" lon="13.6346831"><ele>546.0</ele><time>2026-05-01T07:26:08.831Z</time></trkpt><trkpt lat="42.6493447" lon="13.6344952"><ele>546.0</ele><time>2026-05-01T07:26:09.833Z</time></trkpt><trkpt lat="42.6492874" lon="13.6343021"><ele>546.0</ele><time>2026-05-01T07:26:10.832Z</time></trkpt><trkpt lat="42.6492343" lon="13.6341095"><ele>551.0</ele><time>2026-05-01T07:26:11.832Z</time></trkpt><trkpt lat="42.6491763" lon="13.6339288"><ele>556.0</ele><time>2026-05-01T07:26:12.832Z</time></trkpt><trkpt lat="42.6491092" lon="13.6337739"><ele>561.0</ele><time>2026-05-01T07:26:13.832Z</time></trkpt><trkpt lat="42.6490299" lon="13.6336319"><ele>566.0</ele><time>2026-05-01T07:26:14.832Z</time></trkpt><trkpt lat="42.6489466" lon="13.6335018"><ele>561.75</ele><time>2026-05-01T07:26:15.832Z</time></trkpt><trkpt lat="42.6488594" lon="13.6333755"><ele>557.5</ele><time>2026-05-01T07:26:16.832Z</time></trkpt><trkpt lat="42.6487765" lon="13.6332611"><ele>553.25</ele><time>2026-05-01T07:26:17.832Z</time></trkpt><trkpt lat="42.6486967" lon="13.6331588"><ele>549.0</ele><time>2026-05-01T07:26:18.832Z</time></trkpt><trkpt lat="42.6486158" lon="13.6330596"><ele>549.0</ele><time>2026-05-01T07:26:19.831Z</time></trkpt><trkpt lat="42.6485322" lon="13.6329709"><ele>549.0</ele><time>2026-05-01T07:26:20.833Z</time></trkpt><trkpt lat="42.6484602" lon="13.6328872"><ele>549.0</ele><time>2026-05-01T07:26:21.832Z</time></trkpt><trkpt lat="42.6484034" lon="13.6327992"><ele>549.0</ele><time>2026-05-01T07:26:22.832Z</time></trkpt><trkpt lat="42.6483708" lon="13.6326979"><ele>549.0</ele><time>2026-05-01T07:26:23.831Z</time></trkpt><trkpt lat="42.6483643" lon="13.6325742"><ele>552.0</ele><time>2026-05-01T07:26:24.833Z</time></trkpt><trkpt lat="42.6483889" lon="13.6324565"><ele>555.0</ele><time>2026-05-01T07:26:25.833Z</time></trkpt><trkpt lat="42.6484435" lon="13.6323639"><ele>558.0</ele><time>2026-05-01T07:26:26.832Z</time></trkpt><trkpt lat="42.6485128" lon="13.6323023"><ele>561.0</ele><time>2026-05-01T07:26:27.832Z</time></trkpt><trkpt lat="42.6485919" lon="13.6322601"><ele>564.0</ele><time>2026-05-01T07:26:28.832Z</time></trkpt><trkpt lat="42.6486766" lon="13.6322132"><ele>567.0</ele><time>2026-05-01T07:26:29.832Z</time></trkpt><trkpt lat="42.6487674" lon="13.632102"><ele>571.0</ele><time>2026-05-01T07:26:30.831Z</time></trkpt><trkpt lat="42.6488511" lon="13.6319406"><ele>575.0</ele><time>2026-05-01T07:26:31.833Z</time></trkpt><trkpt lat="42.6489437" lon="13.6318073"><ele>579.0</ele><time>2026-05-01T07:26:32.833Z</time></trkpt><trkpt lat="42.6490681" lon="13.6316915"><ele>583.0</ele><time>2026-05-01T07:26:33.832Z</time></trkpt><trkpt lat="42.6491872" lon="13.6316041"><ele>583.0</ele><time>2026-05-01T07:26:34.833Z</time></trkpt><trkpt lat="42.6492906" lon="13.6315081"><ele>583.0</ele><time>2026-05-01T07:26:35.832Z</time></trkpt><trkpt lat="42.6493629" lon="13.6313858"><ele>583.0</ele><time>2026-05-01T07:26:36.832Z</time></trkpt><trkpt lat="42.6494103" lon="13.6312368"><ele>583.0</ele><time>2026-05-01T07:26:37.833Z</time></trkpt><trkpt lat="42.6494395" lon="13.6310669"><ele>582.0</ele><time>2026-05-01T07:26:38.832Z</time></trkpt><trkpt lat="42.6494656" lon="13.6308902"><ele>581.0</ele><time>2026-05-01T07:26:39.832Z</time></trkpt><trkpt lat="42.6494789" lon="13.6307068"><ele>580.0</ele><time>2026-05-01T07:26:40.833Z</time></trkpt><trkpt lat="42.6494667" lon="13.6305103"><ele>579.0</ele><time>2026-05-01T07:26:41.831Z</time></trkpt><trkpt lat="42.6494398" lon="13.6303073"><ele>579.0</ele><time>2026-05-01T07:26:42.833Z</time></trkpt><trkpt lat="42.6494087" lon="13.6301063"><ele>579.0</ele><time>2026-05-01T07:26:43.832Z</time></trkpt><trkpt lat="42.6493762" lon="13.6299145"><ele>579.0</ele><time>2026-05-01T07:26:44.832Z</time></trkpt><trkpt lat="42.6493303" lon="13.6297274"><ele>579.0</ele><time>2026-05-01T07:26:45.832Z</time></trkpt><trkpt lat="42.6492751" lon="13.6295415"><ele>581.5</ele><time>2026-05-01T07:26:46.832Z</time></trkpt><trkpt lat="42.6492118" lon="13.6293633"><ele>584.0</ele><time>2026-05-01T07:26:47.832Z</time></trkpt><trkpt lat="42.6491494" lon="13.6292001"><ele>586.5</ele><time>2026-05-01T07:26:48.832Z</time></trkpt><trkpt lat="42.649103" lon="13.6290514"><ele>589.0</ele><time>2026-05-01T07:26:49.832Z</time></trkpt><trkpt lat="42.6490776" lon="13.6289087"><ele>589.0</ele><time>2026-05-01T07:26:50.831Z</time></trkpt><trkpt lat="42.649075" lon="13.6287557"><ele>589.0</ele><time>2026-05-01T07:26:51.832Z</time></trkpt><trkpt lat="42.6490938" lon="13.628589"><ele>589.0</ele><time>2026-05-01T07:26:52.831Z</time></trkpt><trkpt lat="42.6491278" lon="13.6284168"><ele>589.0</ele><time>2026-05-01T07:26:53.831Z</time></trkpt><trkpt lat="42.6491587" lon="13.6282261"><ele>590.3333333333334</ele><time>2026-05-01T07:26:54.831Z</time></trkpt><trkpt lat="42.6491761" lon="13.6280182"><ele>591.6666666666666</ele><time>2026-05-01T07:26:55.831Z</time></trkpt><trkpt lat="42.6491739" lon="13.6278053"><ele>593.0</ele><time>2026-05-01T07:26:56.832Z</time></trkpt><trkpt lat="42.6491513" lon="13.627594"><ele>596.3333333333333</ele><time>2026-05-01T07:26:57.832Z</time></trkpt><trkpt lat="42.6491168" lon="13.6273768"><ele>599.6666666666666</ele><time>2026-05-01T07:26:58.832Z</time></trkpt><trkpt lat="42.6490802" lon="13.6271556"><ele>603.0</ele><time>2026-05-01T07:26:59.832Z</time></trkpt><trkpt lat="42.6490393" lon="13.6269315"><ele>606.6666666666666</ele><time>2026-05-01T07:27:00.832Z</time></trkpt><trkpt lat="42.6489894" lon="13.6267175"><ele>610.3333333333333</ele><time>2026-05-01T07:27:01.831Z</time></trkpt><trkpt lat="42.6489356" lon="13.6265226"><ele>614.0</ele><time>2026-05-01T07:27:02.833Z</time></trkpt><trkpt lat="42.648884" lon="13.6263416"><ele>614.0</ele><time>2026-05-01T07:27:03.831Z</time></trkpt><trkpt lat="42.6488389" lon="13.6261647"><ele>614.0</ele><time>2026-05-01T07:27:04.833Z</time></trkpt><trkpt lat="42.648803" lon="13.62599"><ele>614.0</ele><time>2026-05-01T07:27:05.833Z</time></trkpt><trkpt lat="42.6487707" lon="13.6258108"><ele>614.0</ele><time>2026-05-01T07:27:06.831Z</time></trkpt><trkpt lat="42.6487381" lon="13.6256319"><ele>614.5</ele><time>2026-05-01T07:27:07.832Z</time></trkpt><trkpt lat="42.6487147" lon="13.6254438"><ele>615.0</ele><time>2026-05-01T07:27:08.832Z</time></trkpt><trkpt lat="42.6486824" lon="13.6252544"><ele>615.5</ele><time>2026-05-01T07:27:09.833Z</time></trkpt><trkpt lat="42.6486413" lon="13.6250728"><ele>616.0</ele><time>2026-05-01T07:27:10.832Z</time></trkpt><trkpt lat="42.648589" lon="13.6249005"><ele>611.0</ele><time>2026-05-01T07:27:11.831Z</time></trkpt><trkpt lat="42.6485392" lon="13.6247359"><ele>606.0</ele><time>2026-05-01T07:27:12.832Z</time></trkpt><trkpt lat="42.6485017" lon="13.6245829"><ele>601.0</ele><time>2026-05-01T07:27:13.831Z</time></trkpt><trkpt lat="42.6484863" lon="13.6244317"><ele>596.0</ele><time>2026-05-01T07:27:14.833Z</time></trkpt><trkpt lat="42.6485027" lon="13.624295"><ele>595.75</ele><time>2026-05-01T07:27:15.832Z</time></trkpt><trkpt lat="42.6485483" lon="13.6241752"><ele>595.5</ele><time>2026-05-01T07:27:16.833Z</time></trkpt><trkpt lat="42.648626" lon="13.6240672"><ele>595.25</ele><time>2026-05-01T07:27:17.832Z</time></trkpt><trkpt lat="42.6487278" lon="13.6239664"><ele>595.0</ele><time>2026-05-01T07:27:18.833Z</time></trkpt><trkpt lat="42.6488448" lon="13.6238743"><ele>601.0</ele><time>2026-05-01T07:27:19.833Z</time></trkpt><trkpt lat="42.6489619" lon="13.6237624"><ele>607.0</ele><time>2026-05-01T07:27:20.832Z</time></trkpt><trkpt lat="42.6490649" lon="13.623609"><ele>613.0</ele><time>2026-05-01T07:27:21.832Z</time></trkpt><trkpt lat="42.6491548" lon="13.623428"><ele>613.0</ele><time>2026-05-01T07:27:22.832Z</time></trkpt><trkpt lat="42.6492361" lon="13.6232453"><ele>613.0</ele><time>2026-05-01T07:27:23.833Z</time></trkpt><trkpt lat="42.6493248" lon="13.6230783"><ele>613.0</ele><time>2026-05-01T07:27:24.832Z</time></trkpt><trkpt lat="42.6494312" lon="13.6229277"><ele>614.6666666666667</ele><time>2026-05-01T07:27:25.833Z</time></trkpt><trkpt lat="42.6495579" lon="13.6227958"><ele>616.3333333333334</ele><time>2026-05-01T07:27:26.833Z</time></trkpt><trkpt lat="42.6496991" lon="13.6226796"><ele>618.0</ele><time>2026-05-01T07:27:27.832Z</time></trkpt><trkpt lat="42.649843" lon="13.6225792"><ele>618.0</ele><time>2026-05-01T07:27:28.832Z</time></trkpt><trkpt lat="42.6499806" lon="13.622483"><ele>618.0</ele><time>2026-05-01T07:27:29.831Z</time></trkpt><trkpt lat="42.6501025" lon="13.6223821"><ele>618.0</ele><time>2026-05-01T07:27:30.831Z</time></trkpt><trkpt lat="42.6502018" lon="13.62228"><ele>618.0</ele><time>2026-05-01T07:27:31.833Z</time></trkpt><trkpt lat="42.6502745" lon="13.6221665"><ele>619.5</ele><time>2026-05-01T07:27:32.832Z</time></trkpt><trkpt lat="42.6503211" lon="13.6220329"><ele>621.0</ele><time>2026-05-01T07:27:33.832Z</time></trkpt><trkpt lat="42.6503331" lon="13.6218726"><ele>622.5</ele><time>2026-05-01T07:27:34.833Z</time></trkpt><trkpt lat="42.650319" lon="13.6216913"><ele>624.0</ele><time>2026-05-01T07:27:35.832Z</time></trkpt><trkpt lat="42.650285" lon="13.6215076"><ele>624.0</ele><time>2026-05-01T07:27:36.832Z</time></trkpt><trkpt lat="42.6502335" lon="13.6213239"><ele>624.0</ele><time>2026-05-01T07:27:37.833Z</time></trkpt><trkpt lat="42.650165" lon="13.6211459"><ele>624.0</ele><time>2026-05-01T07:27:38.831Z</time></trkpt><trkpt lat="42.6500996" lon="13.6209746"><ele>624.0</ele><time>2026-05-01T07:27:39.832Z</time></trkpt><trkpt lat="42.6500397" lon="13.6208172"><ele>624.25</ele><time>2026-05-01T07:27:40.831Z</time></trkpt><trkpt lat="42.6499801" lon="13.6206703"><ele>624.5</ele><time>2026-05-01T07:27:41.832Z</time></trkpt><trkpt lat="42.6499451" lon="13.6205153"><ele>624.75</ele><time>2026-05-01T07:27:42.831Z</time></trkpt><trkpt lat="42.6499314" lon="13.6203561"><ele>625.0</ele><time>2026-05-01T07:27:43.833Z</time></trkpt><trkpt lat="42.6499562" lon="13.6201954"><ele>623.5</ele><time>2026-05-01T07:27:44.832Z</time></trkpt><trkpt lat="42.6500092" lon="13.6200251"><ele>622.0</ele><time>2026-05-01T07:27:45.833Z</time></trkpt><trkpt lat="42.6500792" lon="13.619847"><ele>620.5</ele><time>2026-05-01T07:27:46.832Z</time></trkpt><trkpt lat="42.6501678" lon="13.6196713"><ele>619.0</ele><time>2026-05-01T07:27:47.831Z</time></trkpt><trkpt lat="42.6502674" lon="13.6195054"><ele>624.6666666666667</ele><time>2026-05-01T07:27:48.831Z</time></trkpt><trkpt lat="42.6503767" lon="13.6193459"><ele>630.3333333333334</ele><time>2026-05-01T07:27:49.833Z</time></trkpt><trkpt lat="42.6504941" lon="13.6192075"><ele>636.0</ele><time>2026-05-01T07:27:50.831Z</time></trkpt><trkpt lat="42.6506186" lon="13.6190959"><ele>636.0</ele><time>2026-05-01T07:27:51.831Z</time></trkpt><trkpt lat="42.6507565" lon="13.6190205"><ele>636.0</ele><time>2026-05-01T07:27:52.832Z</time></trkpt><trkpt lat="42.6508986" lon="13.6189647"><ele>636.0</ele><time>2026-05-01T07:27:53.831Z</time></trkpt><trkpt lat="42.6510462" lon="13.6189336"><ele>636.0</ele><time>2026-05-01T07:27:54.832Z</time></trkpt><trkpt lat="42.6511851" lon="13.6189193"><ele>635.0</ele><time>2026-05-01T07:27:55.832Z</time></trkpt><trkpt lat="42.651311" lon="13.6189008"><ele>634.0</ele><time>2026-05-01T07:27:56.832Z</time></trkpt><trkpt lat="42.6514243" lon="13.6188568"><ele>633.0</ele><time>2026-05-01T07:27:57.832Z</time></trkpt><trkpt lat="42.6515329" lon="13.6187726"><ele>632.0</ele><time>2026-05-01T07:27:58.832Z</time></trkpt><trkpt lat="42.6516367" lon="13.6186512"><ele>633.5</ele><time>2026-05-01T07:27:59.833Z</time></trkpt><trkpt lat="42.6517445" lon="13.6185156"><ele>635.0</ele><time>2026-05-01T07:28:00.832Z</time></trkpt><trkpt lat="42.6518621" lon="13.6183987"><ele>636.5</ele><time>2026-05-01T07:28:01.833Z</time></trkpt><trkpt lat="42.6519741" lon="13.6183124"><ele>638.0</ele><time>2026-05-01T07:28:02.831Z</time></trkpt><trkpt lat="42.6520786" lon="13.6182444"><ele>638.0</ele><time>2026-05-01T07:28:03.831Z</time></trkpt><trkpt lat="42.6521604" lon="13.6181758"><ele>638.0</ele><time>2026-05-01T07:28:04.832Z</time></trkpt><trkpt lat="42.652217" lon="13.6180932"><ele>638.0</ele><time>2026-05-01T07:28:05.832Z</time></trkpt><trkpt lat="42.6522382" lon="13.6180011"><ele>638.0</ele><time>2026-05-01T07:28:06.832Z</time></trkpt><trkpt lat="42.6522197" lon="13.6179085"><ele>638.0</ele><time>2026-05-01T07:28:07.833Z</time></trkpt><trkpt lat="42.6521638" lon="13.6178509"><ele>638.0</ele><time>2026-05-01T07:28:08.832Z</time></trkpt><trkpt lat="42.6520795" lon="13.6178292"><ele>638.0</ele><time>2026-05-01T07:28:09.831Z</time></trkpt><trkpt lat="42.6519842" lon="13.617867"><ele>638.0</ele><time>2026-05-01T07:28:10.832Z</time></trkpt><trkpt lat="42.6518791" lon="13.61794"><ele>638.0</ele><time>2026-05-01T07:28:11.832Z</time></trkpt><trkpt lat="42.6517562" lon="13.6180076"><ele>638.0</ele><time>2026-05-01T07:28:12.831Z</time></trkpt><trkpt lat="42.6516358" lon="13.6180621"><ele>639.5999999999999</ele><time>2026-05-01T07:28:13.831Z</time></trkpt><trkpt lat="42.651525" lon="13.6181028"><ele>641.1999999999999</ele><time>2026-05-01T07:28:14.832Z</time></trkpt><trkpt lat="42.6514199" lon="13.6181429"><ele>642.8</ele><time>2026-05-01T07:28:15.832Z</time></trkpt><trkpt lat="42.651336" lon="13.6181684"><ele>644.4</ele><time>2026-05-01T07:28:16.832Z</time></trkpt><trkpt lat="42.6512582" lon="13.6181613"><ele>646.0</ele><time>2026-05-01T07:28:17.833Z</time></trkpt><trkpt lat="42.651176" lon="13.6180435"><ele>646.0</ele><time>2026-05-01T07:28:19.832Z</time></trkpt><trkpt lat="42.6512207" lon="13.6178902"><ele>646.0</ele><time>2026-05-01T07:28:21.831Z</time></trkpt><trkpt lat="42.6512989" lon="13.6178271"><ele>646.0</ele><time>2026-05-01T07:28:22.833Z</time></trkpt><trkpt lat="42.6513961" lon="13.6177795"><ele>646.0</ele><time>2026-05-01T07:28:23.831Z</time></trkpt><trkpt lat="42.6515176" lon="13.6177226"><ele>646.0</ele><time>2026-05-01T07:28:24.831Z</time></trkpt><trkpt lat="42.6516416" lon="13.6176693"><ele>647.5</ele><time>2026-05-01T07:28:25.833Z</time></trkpt><trkpt lat="42.6517608" lon="13.6175973"><ele>649.0</ele><time>2026-05-01T07:28:26.832Z</time></trkpt><trkpt lat="42.6518697" lon="13.6175004"><ele>650.5</ele><time>2026-05-01T07:28:27.832Z</time></trkpt><trkpt lat="42.6519581" lon="13.6173835"><ele>652.0</ele><time>2026-05-01T07:28:28.832Z</time></trkpt><trkpt lat="42.6520292" lon="13.6172357"><ele>652.0</ele><time>2026-05-01T07:28:29.831Z</time></trkpt><trkpt lat="42.6520919" lon="13.6170735"><ele>652.0</ele><time>2026-05-01T07:28:30.831Z</time></trkpt><trkpt lat="42.6521668" lon="13.6169164"><ele>652.0</ele><time>2026-05-01T07:28:31.831Z</time></trkpt><trkpt lat="42.65226" lon="13.6167781"><ele>652.0</ele><time>2026-05-01T07:28:32.833Z</time></trkpt><trkpt lat="42.6523604" lon="13.6166622"><ele>655.75</ele><time>2026-05-01T07:28:33.831Z</time></trkpt><trkpt lat="42.6524617" lon="13.616575"><ele>659.5</ele><time>2026-05-01T07:28:34.831Z</time></trkpt><trkpt lat="42.6525603" lon="13.6165124"><ele>663.25</ele><time>2026-05-01T07:28:35.831Z</time></trkpt><trkpt lat="42.6526675" lon="13.6164941"><ele>667.0</ele><time>2026-05-01T07:28:36.833Z</time></trkpt><trkpt lat="42.6527804" lon="13.6165167"><ele>670.75</ele><time>2026-05-01T07:28:37.833Z</time></trkpt><trkpt lat="42.6528937" lon="13.6165834"><ele>674.5</ele><time>2026-05-01T07:28:38.831Z</time></trkpt><trkpt lat="42.6529883" lon="13.6166826"><ele>678.25</ele><time>2026-05-01T07:28:39.831Z</time></trkpt><trkpt lat="42.6530711" lon="13.6167822"><ele>682.0</ele><time>2026-05-01T07:28:40.832Z</time></trkpt><trkpt lat="42.6531471" lon="13.6168655"><ele>682.0</ele><time>2026-05-01T07:28:41.832Z</time></trkpt><trkpt lat="42.6532263" lon="13.616911"><ele>682.0</ele><time>2026-05-01T07:28:42.831Z</time></trkpt><trkpt lat="42.6533063" lon="13.6169062"><ele>682.0</ele><time>2026-05-01T07:28:43.833Z</time></trkpt><trkpt lat="42.6533716" lon="13.6168432"><ele>682.0</ele><time>2026-05-01T07:28:44.833Z</time></trkpt><trkpt lat="42.6533961" lon="13.6167449"><ele>682.0</ele><time>2026-05-01T07:28:45.831Z</time></trkpt><trkpt lat="42.6533722" lon="13.6166274"><ele>682.0</ele><time>2026-05-01T07:28:46.831Z</time></trkpt><trkpt lat="42.6533035" lon="13.616514"><ele>682.0</ele><time>2026-05-01T07:28:47.831Z</time></trkpt><trkpt lat="42.6532008" lon="13.6163926"><ele>682.0</ele><time>2026-05-01T07:28:48.832Z</time></trkpt><trkpt lat="42.6530919" lon="13.6162607"><ele>682.0</ele><time>2026-05-01T07:28:49.832Z</time></trkpt><trkpt lat="42.6529732" lon="13.6161094"><ele>682.0</ele><time>2026-05-01T07:28:50.832Z</time></trkpt><trkpt lat="42.6528531" lon="13.6159543"><ele>680.0</ele><time>2026-05-01T07:28:51.832Z</time></trkpt><trkpt lat="42.6527207" lon="13.6158181"><ele>678.0</ele><time>2026-05-01T07:28:52.833Z</time></trkpt><trkpt lat="42.6525877" lon="13.6156888"><ele>676.0</ele><time>2026-05-01T07:28:53.833Z</time></trkpt><trkpt lat="42.6524627" lon="13.6155582"><ele>676.0</ele><time>2026-05-01T07:28:54.831Z</time></trkpt><trkpt lat="42.6523467" lon="13.6154269"><ele>676.0</ele><time>2026-05-01T07:28:55.831Z</time></trkpt><trkpt lat="42.6522309" lon="13.6153145"><ele>676.0</ele><time>2026-05-01T07:28:56.832Z</time></trkpt><trkpt lat="42.6521025" lon="13.6152377"><ele>676.0</ele><time>2026-05-01T07:28:57.831Z</time></trkpt><trkpt lat="42.6519595" lon="13.6151863"><ele>678.0</ele><time>2026-05-01T07:28:58.833Z</time></trkpt><trkpt lat="42.6518266" lon="13.6151469"><ele>680.0</ele><time>2026-05-01T07:28:59.833Z</time></trkpt><trkpt lat="42.6517051" lon="13.6151126"><ele>682.0</ele><time>2026-05-01T07:29:00.831Z</time></trkpt><trkpt lat="42.6516025" lon="13.6150588"><ele>684.0</ele><time>2026-05-01T07:29:01.831Z</time></trkpt><trkpt lat="42.6515172" lon="13.6149739"><ele>684.0</ele><time>2026-05-01T07:29:02.831Z</time></trkpt><trkpt lat="42.651455" lon="13.6148506"><ele>684.0</ele><time>2026-05-01T07:29:03.831Z</time></trkpt><trkpt lat="42.6514202" lon="13.6146926"><ele>684.0</ele><time>2026-05-01T07:29:04.833Z</time></trkpt><trkpt lat="42.6514046" lon="13.6145093"><ele>684.0</ele><time>2026-05-01T07:29:05.833Z</time></trkpt><trkpt lat="42.6514068" lon="13.6143079"><ele>687.6666666666666</ele><time>2026-05-01T07:29:06.833Z</time></trkpt><trkpt lat="42.651408" lon="13.6140838"><ele>691.3333333333333</ele><time>2026-05-01T07:29:07.832Z</time></trkpt><trkpt lat="42.6513879" lon="13.6138615"><ele>695.0</ele><time>2026-05-01T07:29:08.832Z</time></trkpt><trkpt lat="42.6513522" lon="13.613641"><ele>697.0</ele><time>2026-05-01T07:29:09.833Z</time></trkpt><trkpt lat="42.6513002" lon="13.6134358"><ele>699.0</ele><time>2026-05-01T07:29:10.831Z</time></trkpt><trkpt lat="42.6512327" lon="13.6132496"><ele>701.0</ele><time>2026-05-01T07:29:11.832Z</time></trkpt><trkpt lat="42.6511531" lon="13.6130756"><ele>699.25</ele><time>2026-05-01T07:29:12.832Z</time></trkpt><trkpt lat="42.651075" lon="13.6129034"><ele>697.5</ele><time>2026-05-01T07:29:13.831Z</time></trkpt><trkpt lat="42.6509967" lon="13.6127442"><ele>695.75</ele><time>2026-05-01T07:29:14.833Z</time></trkpt><trkpt lat="42.6509207" lon="13.6125886"><ele>694.0</ele><time>2026-05-01T07:29:15.833Z</time></trkpt><trkpt lat="42.6508554" lon="13.6124368"><ele>694.0</ele><time>2026-05-01T07:29:16.831Z</time></trkpt><trkpt lat="42.6507895" lon="13.6122799"><ele>694.0</ele><time>2026-05-01T07:29:17.831Z</time></trkpt><trkpt lat="42.6507367" lon="13.6121236"><ele>694.0</ele><time>2026-05-01T07:29:18.832Z</time></trkpt><trkpt lat="42.6506875" lon="13.611975"><ele>694.0</ele><time>2026-05-01T07:29:19.833Z</time></trkpt><trkpt lat="42.6506447" lon="13.6118445"><ele>695.0</ele><time>2026-05-01T07:29:20.832Z</time></trkpt><trkpt lat="42.6505885" lon="13.6117453"><ele>696.0</ele><time>2026-05-01T07:29:21.831Z</time></trkpt><trkpt lat="42.6505192" lon="13.6116727"><ele>697.0</ele><time>2026-05-01T07:29:22.831Z</time></trkpt><trkpt lat="42.650434" lon="13.6116241"><ele>698.0</ele><time>2026-05-01T07:29:23.832Z</time></trkpt><trkpt lat="42.6503481" lon="13.6116063"><ele>699.0</ele><time>2026-05-01T07:29:24.832Z</time></trkpt><trkpt lat="42.6502545" lon="13.6116229"><ele>699.0</ele><time>2026-05-01T07:29:25.832Z</time></trkpt><trkpt lat="42.6501506" lon="13.6116477"><ele>699.0</ele><time>2026-05-01T07:29:26.831Z</time></trkpt><trkpt lat="42.6500253" lon="13.6116663"><ele>699.0</ele><time>2026-05-01T07:29:27.832Z</time></trkpt><trkpt lat="42.6498857" lon="13.6116857"><ele>699.0</ele><time>2026-05-01T07:29:28.833Z</time></trkpt><trkpt lat="42.6497308" lon="13.611707"><ele>699.0</ele><time>2026-05-01T07:29:29.832Z</time></trkpt><trkpt lat="42.6495736" lon="13.6117332"><ele>699.0</ele><time>2026-05-01T07:29:30.831Z</time></trkpt><trkpt lat="42.6494225" lon="13.6117656"><ele>699.0</ele><time>2026-05-01T07:29:31.831Z</time></trkpt><trkpt lat="42.6492751" lon="13.6117988"><ele>697.5</ele><time>2026-05-01T07:29:32.832Z</time></trkpt><trkpt lat="42.6491365" lon="13.6118316"><ele>696.0</ele><time>2026-05-01T07:29:33.832Z</time></trkpt><trkpt lat="42.6490069" lon="13.6118685"><ele>694.5</ele><time>2026-05-01T07:29:34.831Z</time></trkpt><trkpt lat="42.6488948" lon="13.6118863"><ele>693.0</ele><time>2026-05-01T07:29:35.832Z</time></trkpt><trkpt lat="42.6487969" lon="13.6118826"><ele>693.0</ele><time>2026-05-01T07:29:36.832Z</time></trkpt><trkpt lat="42.6487095" lon="13.6118382"><ele>693.0</ele><time>2026-05-01T07:29:37.831Z</time></trkpt><trkpt lat="42.6486359" lon="13.6117472"><ele>693.0</ele><time>2026-05-01T07:29:38.831Z</time></trkpt><trkpt lat="42.6485755" lon="13.6116105"><ele>693.0</ele><time>2026-05-01T07:29:39.832Z</time></trkpt><trkpt lat="42.6485148" lon="13.611453"><ele>693.0</ele><time>2026-05-01T07:29:40.833Z</time></trkpt><trkpt lat="42.6484608" lon="13.6112944"><ele>689.25</ele><time>2026-05-01T07:29:41.833Z</time></trkpt><trkpt lat="42.6484216" lon="13.611128"><ele>685.5</ele><time>2026-05-01T07:29:42.832Z</time></trkpt><trkpt lat="42.648417" lon="13.6109528"><ele>681.75</ele><time>2026-05-01T07:29:43.831Z</time></trkpt><trkpt lat="42.6484432" lon="13.6107747"><ele>678.0</ele><time>2026-05-01T07:29:44.832Z</time></trkpt><trkpt lat="42.6484809" lon="13.6106057"><ele>678.0</ele><time>2026-05-01T07:29:45.832Z</time></trkpt><trkpt lat="42.6485204" lon="13.6104387"><ele>678.0</ele><time>2026-05-01T07:29:46.831Z</time></trkpt><trkpt lat="42.6485401" lon="13.6102776"><ele>678.0</ele><time>2026-05-01T07:29:47.832Z</time></trkpt><trkpt lat="42.6485502" lon="13.6101346"><ele>678.0</ele><time>2026-05-01T07:29:48.831Z</time></trkpt><trkpt lat="42.648552" lon="13.6100094"><ele>678.0</ele><time>2026-05-01T07:29:49.832Z</time></trkpt><trkpt lat="42.6485579" lon="13.6098994"><ele>678.1666666666666</ele><time>2026-05-01T07:29:50.832Z</time></trkpt><trkpt lat="42.6485622" lon="13.6097948"><ele>678.3333333333334</ele><time>2026-05-01T07:29:51.832Z</time></trkpt><trkpt lat="42.6485366" lon="13.6097092"><ele>678.5</ele><time>2026-05-01T07:29:52.833Z</time></trkpt><trkpt lat="42.64848" lon="13.6096481"><ele>678.6666666666667</ele><time>2026-05-01T07:29:53.832Z</time></trkpt><trkpt lat="42.6484069" lon="13.6096312"><ele>678.8333333333334</ele><time>2026-05-01T07:29:54.832Z</time></trkpt><trkpt lat="42.6483301" lon="13.6096505"><ele>679.0</ele><time>2026-05-01T07:29:55.833Z</time></trkpt><trkpt lat="42.6482388" lon="13.6096823"><ele>679.0</ele><time>2026-05-01T07:29:56.833Z</time></trkpt><trkpt lat="42.6481462" lon="13.6096796"><ele>679.0</ele><time>2026-05-01T07:29:57.832Z</time></trkpt><trkpt lat="42.6480678" lon="13.6096393"><ele>679.0</ele><time>2026-05-01T07:29:58.832Z</time></trkpt><trkpt lat="42.6480032" lon="13.6095663"><ele>679.0</ele><time>2026-05-01T07:29:59.832Z</time></trkpt><trkpt lat="42.6479457" lon="13.6094429"><ele>679.0</ele><time>2026-05-01T07:30:00.832Z</time></trkpt><trkpt lat="42.6479002" lon="13.6092952"><ele>679.5</ele><time>2026-05-01T07:30:01.832Z</time></trkpt><trkpt lat="42.6478548" lon="13.6091616"><ele>680.0</ele><time>2026-05-01T07:30:02.832Z</time></trkpt><trkpt lat="42.6477958" lon="13.6090448"><ele>680.5</ele><time>2026-05-01T07:30:03.831Z</time></trkpt><trkpt lat="42.6477019" lon="13.6089511"><ele>681.0</ele><time>2026-05-01T07:30:04.832Z</time></trkpt><trkpt lat="42.6475845" lon="13.6088868"><ele>681.0</ele><time>2026-05-01T07:30:05.832Z</time></trkpt><trkpt lat="42.647465" lon="13.6088214"><ele>681.0</ele><time>2026-05-01T07:30:06.832Z</time></trkpt><trkpt lat="42.6473504" lon="13.6087366"><ele>681.0</ele><time>2026-05-01T07:30:07.833Z</time></trkpt><trkpt lat="42.6472542" lon="13.608624"><ele>681.0</ele><time>2026-05-01T07:30:08.832Z</time></trkpt><trkpt lat="42.6471783" lon="13.6085085"><ele>683.4</ele><time>2026-05-01T07:30:09.831Z</time></trkpt><trkpt lat="42.6471262" lon="13.6083583"><ele>685.8</ele><time>2026-05-01T07:30:10.831Z</time></trkpt><trkpt lat="42.647092" lon="13.6082226"><ele>688.1999999999999</ele><time>2026-05-01T07:30:11.83Z</time></trkpt><trkpt lat="42.647043" lon="13.6081101"><ele>690.5999999999999</ele><time>2026-05-01T07:30:12.831Z</time></trkpt><trkpt lat="42.6469691" lon="13.608024"><ele>693.0</ele><time>2026-05-01T07:30:13.831Z</time></trkpt><trkpt lat="42.6468731" lon="13.607956"><ele>693.0</ele><time>2026-05-01T07:30:14.831Z</time></trkpt><trkpt lat="42.6467693" lon="13.6078802"><ele>693.0</ele><time>2026-05-01T07:30:15.83Z</time></trkpt><trkpt lat="42.6466698" lon="13.6077863"><ele>693.0</ele><time>2026-05-01T07:30:16.831Z</time></trkpt><trkpt lat="42.646586" lon="13.6076875"><ele>693.0</ele><time>2026-05-01T07:30:17.831Z</time></trkpt><trkpt lat="42.6465063" lon="13.6076092"><ele>693.0</ele><time>2026-05-01T07:30:18.831Z</time></trkpt><trkpt lat="42.6464239" lon="13.6075615"><ele>696.5</ele><time>2026-05-01T07:30:19.83Z</time></trkpt><trkpt lat="42.6463247" lon="13.6075642"><ele>700.0</ele><time>2026-05-01T07:30:20.83Z</time></trkpt><trkpt lat="42.6462213" lon="13.6076116"><ele>703.5</ele><time>2026-05-01T07:30:21.831Z</time></trkpt><trkpt lat="42.6461163" lon="13.607703"><ele>707.0</ele><time>2026-05-01T07:30:22.83Z</time></trkpt><trkpt lat="42.6460213" lon="13.6077975"><ele>706.25</ele><time>2026-05-01T07:30:23.832Z</time></trkpt><trkpt lat="42.645933" lon="13.6079166"><ele>705.5</ele><time>2026-05-01T07:30:24.831Z</time></trkpt><trkpt lat="42.6458656" lon="13.6080461"><ele>704.75</ele><time>2026-05-01T07:30:25.831Z</time></trkpt><trkpt lat="42.64582" lon="13.6081809"><ele>704.0</ele><time>2026-05-01T07:30:26.832Z</time></trkpt><trkpt lat="42.6457829" lon="13.608316"><ele>704.0</ele><time>2026-05-01T07:30:27.831Z</time></trkpt><trkpt lat="42.6457491" lon="13.6084315"><ele>704.0</ele><time>2026-05-01T07:30:28.831Z</time></trkpt><trkpt lat="42.6457099" lon="13.6085275"><ele>704.0</ele><time>2026-05-01T07:30:29.831Z</time></trkpt><trkpt lat="42.6456578" lon="13.6085999"><ele>704.0</ele><time>2026-05-01T07:30:30.831Z</time></trkpt><trkpt lat="42.6455973" lon="13.6086533"><ele>704.0</ele><time>2026-05-01T07:30:31.831Z</time></trkpt><trkpt lat="42.6454945" lon="13.6086701"><ele>704.0</ele><time>2026-05-01T07:30:33.832Z</time></trkpt><trkpt lat="42.645439" lon="13.608582"><ele>704.0</ele><time>2026-05-01T07:30:36.83Z</time></trkpt><trkpt lat="42.6454585" lon="13.6084739"><ele>704.0</ele><time>2026-05-01T07:30:38.831Z</time></trkpt><trkpt lat="42.6455013" lon="13.6084045"><ele>704.0</ele><time>2026-05-01T07:30:40.831Z</time></trkpt><trkpt lat="42.6455062" lon="13.6082986"><ele>704.0</ele><time>2026-05-01T07:30:42.83Z</time></trkpt><trkpt lat="42.645507" lon="13.6082099"><ele>704.0</ele><time>2026-05-01T07:30:44.83Z</time></trkpt><trkpt lat="42.6455162" lon="13.6080687"><ele>704.0</ele><time>2026-05-01T07:30:46.831Z</time></trkpt><trkpt lat="42.6455341" lon="13.6079862"><ele>704.0</ele><time>2026-05-01T07:30:47.831Z</time></trkpt><trkpt lat="42.6455569" lon="13.6079009"><ele>704.0</ele><time>2026-05-01T07:30:48.831Z</time></trkpt><trkpt lat="42.6455808" lon="13.6078159"><ele>704.0</ele><time>2026-05-01T07:30:49.832Z</time></trkpt><trkpt lat="42.6455942" lon="13.6077207"><ele>704.0</ele><time>2026-05-01T07:30:50.831Z</time></trkpt><trkpt lat="42.645584" lon="13.6076205"><ele>704.0</ele><time>2026-05-01T07:30:51.832Z</time></trkpt><trkpt lat="42.6455499" lon="13.6075367"><ele>704.0</ele><time>2026-05-01T07:30:52.831Z</time></trkpt><trkpt lat="42.6455124" lon="13.6074524"><ele>704.0</ele><time>2026-05-01T07:30:53.831Z</time></trkpt><trkpt lat="42.6454241" lon="13.6073626"><ele>707.4000000000001</ele><time>2026-05-01T07:30:54.831Z</time></trkpt><trkpt lat="42.6453529" lon="13.6073146"><ele>710.8</ele><time>2026-05-01T07:30:55.831Z</time></trkpt><trkpt lat="42.6452556" lon="13.6072188"><ele>714.2</ele><time>2026-05-01T07:30:57.83Z</time></trkpt><trkpt lat="42.645213" lon="13.6071526"><ele>717.5999999999999</ele><time>2026-05-01T07:30:58.831Z</time></trkpt><trkpt lat="42.6452021" lon="13.607031"><ele>721.0</ele><time>2026-05-01T07:31:00.831Z</time></trkpt><trkpt lat="42.6452865" lon="13.6069311"><ele>725.3333333333334</ele><time>2026-05-01T07:31:02.831Z</time></trkpt><trkpt lat="42.6453542" lon="13.6068902"><ele>729.6666666666667</ele><time>2026-05-01T07:31:03.831Z</time></trkpt><trkpt lat="42.6454157" lon="13.606866"><ele>734.0</ele><time>2026-05-01T07:31:04.831Z</time></trkpt><trkpt lat="42.6455075" lon="13.6068168"><ele>738.3333333333334</ele><time>2026-05-01T07:31:06.83Z</time></trkpt><trkpt lat="42.6455176" lon="13.6067199"><ele>742.6666666666666</ele><time>2026-05-01T07:31:08.831Z</time></trkpt><trkpt lat="42.6454339" lon="13.6066452"><ele>747.0</ele><time>2026-05-01T07:31:10.83Z</time></trkpt><trkpt lat="42.6453625" lon="13.6066184"><ele>747.0</ele><time>2026-05-01T07:31:12.831Z</time></trkpt><trkpt lat="42.6452976" lon="13.6065526"><ele>747.0</ele><time>2026-05-01T07:32:07.83Z</time></trkpt><trkpt lat="42.64536" lon="13.6066171"><ele>747.0</ele><time>2026-05-01T07:32:17.832Z</time></trkpt><trkpt lat="42.6454377" lon="13.6066465"><ele>747.0</ele><time>2026-05-01T07:32:19.832Z</time></trkpt><trkpt lat="42.6455041" lon="13.6066914"><ele>747.0</ele><time>2026-05-01T07:32:21.832Z</time></trkpt><trkpt lat="42.6455456" lon="13.606763"><ele>747.0</ele><time>2026-05-01T07:32:24.831Z</time></trkpt><trkpt lat="42.6454675" lon="13.6068294"><ele>747.0</ele><time>2026-05-01T07:32:27.83Z</time></trkpt><trkpt lat="42.6453665" lon="13.6068871"><ele>747.0</ele><time>2026-05-01T07:32:29.83Z</time></trkpt><trkpt lat="42.6452616" lon="13.6069386"><ele>747.0</ele><time>2026-05-01T07:32:31.83Z</time></trkpt><trkpt lat="42.6451929" lon="13.6070136"><ele>747.0</ele><time>2026-05-01T07:32:33.832Z</time></trkpt><trkpt lat="42.645193" lon="13.6071282"><ele>747.0</ele><time>2026-05-01T07:32:35.831Z</time></trkpt><trkpt lat="42.6452729" lon="13.6072409"><ele>743.0</ele><time>2026-05-01T07:32:37.832Z</time></trkpt><trkpt lat="42.6453288" lon="13.6072857"><ele>739.0</ele><time>2026-05-01T07:32:38.831Z</time></trkpt><trkpt lat="42.645393" lon="13.6073335"><ele>735.0</ele><time>2026-05-01T07:32:39.831Z</time></trkpt><trkpt lat="42.645448" lon="13.6073849"><ele>731.0</ele><time>2026-05-01T07:32:40.83Z</time></trkpt><trkpt lat="42.6455296" lon="13.6074856"><ele>727.0</ele><time>2026-05-01T07:32:42.831Z</time></trkpt><trkpt lat="42.6455847" lon="13.6075989"><ele>723.0</ele><time>2026-05-01T07:32:44.831Z</time></trkpt><trkpt lat="42.6455881" lon="13.607757"><ele>719.2</ele><time>2026-05-01T07:32:46.831Z</time></trkpt><trkpt lat="42.6455543" lon="13.6079045"><ele>715.4</ele><time>2026-05-01T07:32:48.831Z</time></trkpt><trkpt lat="42.6455137" lon="13.6080618"><ele>711.6</ele><time>2026-05-01T07:32:50.831Z</time></trkpt><trkpt lat="42.6455076" lon="13.6082182"><ele>707.8000000000001</ele><time>2026-05-01T07:32:52.832Z</time></trkpt><trkpt lat="42.6455033" lon="13.6083502"><ele>704.0</ele><time>2026-05-01T07:32:54.831Z</time></trkpt><trkpt lat="42.6454781" lon="13.6084671"><ele>704.0</ele><time>2026-05-01T07:32:56.83Z</time></trkpt><trkpt lat="42.6454271" lon="13.6085723"><ele>704.0</ele><time>2026-05-01T07:32:58.831Z</time></trkpt><trkpt lat="42.6454271" lon="13.6086659"><ele>704.0</ele><time>2026-05-01T07:33:00.831Z</time></trkpt><trkpt lat="42.6455008" lon="13.6087139"><ele>704.0</ele><time>2026-05-01T07:33:02.83Z</time></trkpt><trkpt lat="42.6456329" lon="13.608665"><ele>704.0</ele><time>2026-05-01T07:33:04.83Z</time></trkpt><trkpt lat="42.6456891" lon="13.608625"><ele>704.0</ele><time>2026-05-01T07:33:05.831Z</time></trkpt><trkpt lat="42.6457374" lon="13.6085073"><ele>704.0</ele><time>2026-05-01T07:33:06.83Z</time></trkpt><trkpt lat="42.6457737" lon="13.6083897"><ele>704.0</ele><time>2026-05-01T07:33:07.83Z</time></trkpt><trkpt lat="42.6458025" lon="13.6082561"><ele>704.0</ele><time>2026-05-01T07:33:08.83Z</time></trkpt><trkpt lat="42.6458393" lon="13.6081271"><ele>704.0</ele><time>2026-05-01T07:33:09.831Z</time></trkpt><trkpt lat="42.6458978" lon="13.6080142"><ele>704.0</ele><time>2026-05-01T07:33:10.83Z</time></trkpt><trkpt lat="42.64597" lon="13.6079005"><ele>704.5</ele><time>2026-05-01T07:33:11.832Z</time></trkpt><trkpt lat="42.6460462" lon="13.6077986"><ele>705.0</ele><time>2026-05-01T07:33:12.832Z</time></trkpt><trkpt lat="42.6461186" lon="13.6077127"><ele>705.5</ele><time>2026-05-01T07:33:13.831Z</time></trkpt><trkpt lat="42.6461913" lon="13.6076459"><ele>706.0</ele><time>2026-05-01T07:33:14.831Z</time></trkpt><trkpt lat="42.6462622" lon="13.6075941"><ele>706.5</ele><time>2026-05-01T07:33:15.83Z</time></trkpt><trkpt lat="42.6463329" lon="13.6075692"><ele>707.0</ele><time>2026-05-01T07:33:16.831Z</time></trkpt><trkpt lat="42.6464091" lon="13.6075844"><ele>707.0</ele><time>2026-05-01T07:33:17.831Z</time></trkpt><trkpt lat="42.6464754" lon="13.6076336"><ele>707.0</ele><time>2026-05-01T07:33:18.832Z</time></trkpt><trkpt lat="42.6465441" lon="13.6077037"><ele>707.0</ele><time>2026-05-01T07:33:19.831Z</time></trkpt><trkpt lat="42.6466101" lon="13.6077779"><ele>707.0</ele><time>2026-05-01T07:33:20.831Z</time></trkpt><trkpt lat="42.6466801" lon="13.6078444"><ele>707.0</ele><time>2026-05-01T07:33:21.831Z</time></trkpt><trkpt lat="42.646758" lon="13.6078978"><ele>707.0</ele><time>2026-05-01T07:33:22.831Z</time></trkpt><trkpt lat="42.6468327" lon="13.6079446"><ele>705.0</ele><time>2026-05-01T07:33:23.83Z</time></trkpt><trkpt lat="42.6469037" lon="13.6079926"><ele>703.0</ele><time>2026-05-01T07:33:24.831Z</time></trkpt><trkpt lat="42.646968" lon="13.6080475"><ele>701.0</ele><time>2026-05-01T07:33:25.832Z</time></trkpt><trkpt lat="42.6470205" lon="13.6081245"><ele>699.0</ele><time>2026-05-01T07:33:26.83Z</time></trkpt><trkpt lat="42.6470563" lon="13.6082154"><ele>697.0</ele><time>2026-05-01T07:33:27.83Z</time></trkpt><trkpt lat="42.6470815" lon="13.6083168"><ele>695.0</ele><time>2026-05-01T07:33:28.831Z</time></trkpt><trkpt lat="42.6471109" lon="13.608418"><ele>695.0</ele><time>2026-05-01T07:33:29.831Z</time></trkpt><trkpt lat="42.6471527" lon="13.6085107"><ele>695.0</ele><time>2026-05-01T07:33:30.831Z</time></trkpt><trkpt lat="42.6472057" lon="13.6085965"><ele>695.0</ele><time>2026-05-01T07:33:31.831Z</time></trkpt><trkpt lat="42.6472716" lon="13.6086794"><ele>695.0</ele><time>2026-05-01T07:33:32.832Z</time></trkpt><trkpt lat="42.6473535" lon="13.6087531"><ele>695.0</ele><time>2026-05-01T07:33:33.832Z</time></trkpt><trkpt lat="42.6474392" lon="13.6088183"><ele>695.0</ele><time>2026-05-01T07:33:34.831Z</time></trkpt><trkpt lat="42.6475299" lon="13.6088653"><ele>693.4</ele><time>2026-05-01T07:33:35.831Z</time></trkpt><trkpt lat="42.6476239" lon="13.6089175"><ele>691.8</ele><time>2026-05-01T07:33:36.831Z</time></trkpt><trkpt lat="42.6477138" lon="13.6089842"><ele>690.2</ele><time>2026-05-01T07:33:37.83Z</time></trkpt><trkpt lat="42.6477844" lon="13.6090833"><ele>688.6</ele><time>2026-05-01T07:33:38.83Z</time></trkpt><trkpt lat="42.6478362" lon="13.6091927"><ele>687.0</ele><time>2026-05-01T07:33:39.832Z</time></trkpt><trkpt lat="42.6478766" lon="13.6093082"><ele>687.0</ele><time>2026-05-01T07:33:40.83Z</time></trkpt><trkpt lat="42.647908" lon="13.6094085"><ele>687.0</ele><time>2026-05-01T07:33:41.832Z</time></trkpt><trkpt lat="42.6479367" lon="13.6094935"><ele>687.0</ele><time>2026-05-01T07:33:42.832Z</time></trkpt><trkpt lat="42.647989" lon="13.6096228"><ele>687.0</ele><time>2026-05-01T07:33:44.83Z</time></trkpt><trkpt lat="42.6480352" lon="13.6096935"><ele>687.0</ele><time>2026-05-01T07:33:46.83Z</time></trkpt><trkpt lat="42.6481143" lon="13.6097356"><ele>687.0</ele><time>2026-05-01T07:33:48.83Z</time></trkpt><trkpt lat="42.6482455" lon="13.6097141"><ele>685.6666666666666</ele><time>2026-05-01T07:33:50.831Z</time></trkpt><trkpt lat="42.6483183" lon="13.6096736"><ele>684.3333333333334</ele><time>2026-05-01T07:33:51.831Z</time></trkpt><trkpt lat="42.6483904" lon="13.6096484"><ele>683.0</ele><time>2026-05-01T07:33:52.83Z</time></trkpt><trkpt lat="42.6485049" lon="13.609713"><ele>681.6666666666667</ele><time>2026-05-01T07:33:54.831Z</time></trkpt><trkpt lat="42.6485352" lon="13.6097913"><ele>680.3333333333334</ele><time>2026-05-01T07:33:55.832Z</time></trkpt><trkpt lat="42.6485457" lon="13.6098917"><ele>679.0</ele><time>2026-05-01T07:33:56.83Z</time></trkpt><trkpt lat="42.6485454" lon="13.6100151"><ele>679.0</ele><time>2026-05-01T07:33:57.83Z</time></trkpt><trkpt lat="42.6485347" lon="13.6101746"><ele>679.0</ele><time>2026-05-01T07:33:58.831Z</time></trkpt><trkpt lat="42.6485026" lon="13.6103528"><ele>679.0</ele><time>2026-05-01T07:33:59.831Z</time></trkpt><trkpt lat="42.6484555" lon="13.6105321"><ele>679.0</ele><time>2026-05-01T07:34:00.83Z</time></trkpt><trkpt lat="42.6484103" lon="13.6106977"><ele>678.75</ele><time>2026-05-01T07:34:01.831Z</time></trkpt><trkpt lat="42.6483831" lon="13.6108715"><ele>678.5</ele><time>2026-05-01T07:34:02.831Z</time></trkpt><trkpt lat="42.6483862" lon="13.6110621"><ele>678.25</ele><time>2026-05-01T07:34:03.831Z</time></trkpt><trkpt lat="42.6484269" lon="13.6112505"><ele>678.0</ele><time>2026-05-01T07:34:04.832Z</time></trkpt><trkpt lat="42.6484794" lon="13.6114218"><ele>677.2</ele><time>2026-05-01T07:34:05.832Z</time></trkpt><trkpt lat="42.6485281" lon="13.611578"><ele>676.4</ele><time>2026-05-01T07:34:06.83Z</time></trkpt><trkpt lat="42.6485664" lon="13.6117157"><ele>675.6</ele><time>2026-05-01T07:34:07.83Z</time></trkpt><trkpt lat="42.6486206" lon="13.6118243"><ele>674.8000000000001</ele><time>2026-05-01T07:34:08.832Z</time></trkpt><trkpt lat="42.6487008" lon="13.6118961"><ele>674.0</ele><time>2026-05-01T07:34:09.831Z</time></trkpt><trkpt lat="42.6488015" lon="13.6119257"><ele>678.75</ele><time>2026-05-01T07:34:10.83Z</time></trkpt><trkpt lat="42.6489255" lon="13.6119093"><ele>683.5</ele><time>2026-05-01T07:34:11.83Z</time></trkpt><trkpt lat="42.6490682" lon="13.6118723"><ele>688.25</ele><time>2026-05-01T07:34:12.831Z</time></trkpt><trkpt lat="42.649218" lon="13.6118378"><ele>693.0</ele><time>2026-05-01T07:34:13.831Z</time></trkpt><trkpt lat="42.6493726" lon="13.6118083"><ele>694.5</ele><time>2026-05-01T07:34:14.83Z</time></trkpt><trkpt lat="42.6495222" lon="13.6117755"><ele>696.0</ele><time>2026-05-01T07:34:15.83Z</time></trkpt><trkpt lat="42.6496573" lon="13.6117527"><ele>697.5</ele><time>2026-05-01T07:34:16.832Z</time></trkpt><trkpt lat="42.6497846" lon="13.6117316"><ele>699.0</ele><time>2026-05-01T07:34:17.832Z</time></trkpt><trkpt lat="42.6498973" lon="13.6117113"><ele>699.0</ele><time>2026-05-01T07:34:18.83Z</time></trkpt><trkpt lat="42.6499961" lon="13.611695"><ele>699.0</ele><time>2026-05-01T07:34:19.831Z</time></trkpt><trkpt lat="42.6500831" lon="13.6116831"><ele>699.0</ele><time>2026-05-01T07:34:20.831Z</time></trkpt><trkpt lat="42.650147" lon="13.6116734"><ele>699.0</ele><time>2026-05-01T07:34:21.831Z</time></trkpt><trkpt lat="42.6502083" lon="13.6116236"><ele>699.0</ele><time>2026-05-01T07:34:23.832Z</time></trkpt><trkpt lat="42.6501473" lon="13.6115043"><ele>699.0</ele><time>2026-05-01T07:34:26.83Z</time></trkpt><trkpt lat="42.6500571" lon="13.6114992"><ele>699.0</ele><time>2026-05-01T07:34:27.831Z</time></trkpt><trkpt lat="42.6499575" lon="13.6115109"><ele>699.0</ele><time>2026-05-01T07:34:28.83Z</time></trkpt><trkpt lat="42.6498599" lon="13.6114935"><ele>699.0</ele><time>2026-05-01T07:34:29.83Z</time></trkpt><trkpt lat="42.6497493" lon="13.6114577"><ele>699.0</ele><time>2026-05-01T07:34:30.831Z</time></trkpt><trkpt lat="42.6496487" lon="13.6114176"><ele>699.0</ele><time>2026-05-01T07:34:31.831Z</time></trkpt><trkpt lat="42.6495577" lon="13.611378"><ele>699.0</ele><time>2026-05-01T07:34:32.831Z</time></trkpt><trkpt lat="42.649473" lon="13.6113344"><ele>699.0</ele><time>2026-05-01T07:34:33.831Z</time></trkpt><trkpt lat="42.6493935" lon="13.6112924"><ele>699.0</ele><time>2026-05-01T07:34:34.831Z</time></trkpt><trkpt lat="42.6493199" lon="13.6112314"><ele>699.0</ele><time>2026-05-01T07:34:35.83Z</time></trkpt><trkpt lat="42.6492613" lon="13.6111496"><ele>699.0</ele><time>2026-05-01T07:34:36.831Z</time></trkpt><trkpt lat="42.6492291" lon="13.611044"><ele>699.0</ele><time>2026-05-01T07:34:37.83Z</time></trkpt><trkpt lat="42.6492159" lon="13.6109146"><ele>699.25</ele><time>2026-05-01T07:34:38.83Z</time></trkpt><trkpt lat="42.6492263" lon="13.6107742"><ele>699.5</ele><time>2026-05-01T07:34:39.832Z</time></trkpt><trkpt lat="42.6492588" lon="13.6106114"><ele>699.75</ele><time>2026-05-01T07:34:40.831Z</time></trkpt><trkpt lat="42.6492989" lon="13.6104316"><ele>700.0</ele><time>2026-05-01T07:34:41.831Z</time></trkpt><trkpt lat="42.6493414" lon="13.6102399"><ele>700.0</ele><time>2026-05-01T07:34:42.83Z</time></trkpt><trkpt lat="42.6493739" lon="13.6100427"><ele>700.0</ele><time>2026-05-01T07:34:43.83Z</time></trkpt><trkpt lat="42.6494011" lon="13.6098423"><ele>700.0</ele><time>2026-05-01T07:34:44.831Z</time></trkpt><trkpt lat="42.6494305" lon="13.6096529"><ele>700.0</ele><time>2026-05-01T07:34:45.832Z</time></trkpt><trkpt lat="42.6494664" lon="13.6094848"><ele>704.75</ele><time>2026-05-01T07:34:46.832Z</time></trkpt><trkpt lat="42.6495229" lon="13.6093411"><ele>709.5</ele><time>2026-05-01T07:34:47.831Z</time></trkpt><trkpt lat="42.6496075" lon="13.6091998"><ele>714.25</ele><time>2026-05-01T07:34:48.83Z</time></trkpt><trkpt lat="42.6497129" lon="13.6090747"><ele>719.0</ele><time>2026-05-01T07:34:49.831Z</time></trkpt><trkpt lat="42.649833" lon="13.6089651"><ele>719.0</ele><time>2026-05-01T07:34:50.831Z</time></trkpt><trkpt lat="42.6499619" lon="13.6088717"><ele>719.0</ele><time>2026-05-01T07:34:51.83Z</time></trkpt><trkpt lat="42.6500829" lon="13.6087729"><ele>719.0</ele><time>2026-05-01T07:34:52.83Z</time></trkpt><trkpt lat="42.6501846" lon="13.6086514"><ele>719.0</ele><time>2026-05-01T07:34:53.831Z</time></trkpt><trkpt lat="42.6502748" lon="13.6085255"><ele>720.6</ele><time>2026-05-01T07:34:54.832Z</time></trkpt><trkpt lat="42.6503517" lon="13.6083974"><ele>722.2</ele><time>2026-05-01T07:34:55.83Z</time></trkpt><trkpt lat="42.6503994" lon="13.6082671"><ele>723.8000000000001</ele><time>2026-05-01T07:34:56.831Z</time></trkpt><trkpt lat="42.6504164" lon="13.6081309"><ele>725.4000000000001</ele><time>2026-05-01T07:34:57.832Z</time></trkpt><trkpt lat="42.650412" lon="13.6080006"><ele>727.0</ele><time>2026-05-01T07:34:58.831Z</time></trkpt><trkpt lat="42.6504125" lon="13.6078866"><ele>727.0</ele><time>2026-05-01T07:34:59.83Z</time></trkpt><trkpt lat="42.6504324" lon="13.6077877"><ele>727.0</ele><time>2026-05-01T07:35:00.831Z</time></trkpt><trkpt lat="42.6504755" lon="13.6077163"><ele>727.0</ele><time>2026-05-01T07:35:01.832Z</time></trkpt><trkpt lat="42.6505395" lon="13.6076907"><ele>727.0</ele><time>2026-05-01T07:35:02.832Z</time></trkpt><trkpt lat="42.6505981" lon="13.6077253"><ele>727.0</ele><time>2026-05-01T07:35:03.83Z</time></trkpt><trkpt lat="42.6506353" lon="13.6078114"><ele>727.0</ele><time>2026-05-01T07:35:04.83Z</time></trkpt><trkpt lat="42.6506494" lon="13.6079315"><ele>727.0</ele><time>2026-05-01T07:35:05.83Z</time></trkpt><trkpt lat="42.6506544" lon="13.6080921"><ele>727.0</ele><time>2026-05-01T07:35:06.83Z</time></trkpt><trkpt lat="42.6506526" lon="13.6082905"><ele>727.0</ele><time>2026-05-01T07:35:07.831Z</time></trkpt><trkpt lat="42.650652" lon="13.6084939"><ele>727.0</ele><time>2026-05-01T07:35:08.83Z</time></trkpt><trkpt lat="42.6506513" lon="13.6087212"><ele>727.75</ele><time>2026-05-01T07:35:09.83Z</time></trkpt><trkpt lat="42.6506529" lon="13.6089425"><ele>728.5</ele><time>2026-05-01T07:35:10.83Z</time></trkpt><trkpt lat="42.6506493" lon="13.6091344"><ele>729.25</ele><time>2026-05-01T07:35:11.83Z</time></trkpt><trkpt lat="42.6506478" lon="13.6092975"><ele>730.0</ele><time>2026-05-01T07:35:12.83Z</time></trkpt><trkpt lat="42.6506643" lon="13.609435"><ele>729.5</ele><time>2026-05-01T07:35:13.831Z</time></trkpt><trkpt lat="42.6507027" lon="13.6095412"><ele>729.0</ele><time>2026-05-01T07:35:14.829Z</time></trkpt><trkpt lat="42.6507625" lon="13.6096157"><ele>728.5</ele><time>2026-05-01T07:35:15.83Z</time></trkpt><trkpt lat="42.6508356" lon="13.6096512"><ele>728.0</ele><time>2026-05-01T07:35:16.829Z</time></trkpt><trkpt lat="42.6509228" lon="13.6096349"><ele>727.5</ele><time>2026-05-01T07:35:17.83Z</time></trkpt><trkpt lat="42.6510272" lon="13.6095843"><ele>727.0</ele><time>2026-05-01T07:35:18.83Z</time></trkpt><trkpt lat="42.651143" lon="13.6095065"><ele>731.25</ele><time>2026-05-01T07:35:19.83Z</time></trkpt><trkpt lat="42.6512603" lon="13.6094198"><ele>735.5</ele><time>2026-05-01T07:35:20.83Z</time></trkpt><trkpt lat="42.6513884" lon="13.6093604"><ele>739.75</ele><time>2026-05-01T07:35:21.831Z</time></trkpt><trkpt lat="42.6515239" lon="13.6093326"><ele>744.0</ele><time>2026-05-01T07:35:22.83Z</time></trkpt><trkpt lat="42.6516738" lon="13.609341"><ele>744.0</ele><time>2026-05-01T07:35:23.83Z</time></trkpt><trkpt lat="42.6518343" lon="13.6093906"><ele>744.0</ele><time>2026-05-01T07:35:24.83Z</time></trkpt><trkpt lat="42.6519988" lon="13.609449"><ele>744.0</ele><time>2026-05-01T07:35:25.83Z</time></trkpt><trkpt lat="42.6521573" lon="13.6095045"><ele>743.6666666666666</ele><time>2026-05-01T07:35:26.829Z</time></trkpt><trkpt lat="42.6522996" lon="13.6095767"><ele>743.3333333333333</ele><time>2026-05-01T07:35:27.831Z</time></trkpt><trkpt lat="42.6524344" lon="13.6096729"><ele>743.0</ele><time>2026-05-01T07:35:28.83Z</time></trkpt><trkpt lat="42.6525505" lon="13.6098076"><ele>743.0</ele><time>2026-05-01T07:35:29.83Z</time></trkpt><trkpt lat="42.6526531" lon="13.6099764"><ele>743.0</ele><time>2026-05-01T07:35:30.831Z</time></trkpt><trkpt lat="42.6527324" lon="13.6101642"><ele>743.0</ele><time>2026-05-01T07:35:31.83Z</time></trkpt><trkpt lat="42.6527842" lon="13.6103636"><ele>745.5</ele><time>2026-05-01T07:35:32.83Z</time></trkpt><trkpt lat="42.6528144" lon="13.6105534"><ele>748.0</ele><time>2026-05-01T07:35:33.831Z</time></trkpt><trkpt lat="42.6528571" lon="13.610717"><ele>750.5</ele><time>2026-05-01T07:35:34.83Z</time></trkpt><trkpt lat="42.6529383" lon="13.6108605"><ele>753.0</ele><time>2026-05-01T07:35:35.83Z</time></trkpt><trkpt lat="42.6530518" lon="13.6109757"><ele>753.0</ele><time>2026-05-01T07:35:36.829Z</time></trkpt><trkpt lat="42.6531749" lon="13.611072"><ele>753.0</ele><time>2026-05-01T07:35:37.83Z</time></trkpt><trkpt lat="42.6533007" lon="13.6111498"><ele>753.0</ele><time>2026-05-01T07:35:38.831Z</time></trkpt><trkpt lat="42.6534316" lon="13.6112041"><ele>753.0</ele><time>2026-05-01T07:35:39.83Z</time></trkpt><trkpt lat="42.6535646" lon="13.6112621"><ele>754.25</ele><time>2026-05-01T07:35:40.829Z</time></trkpt><trkpt lat="42.6536902" lon="13.6113664"><ele>755.5</ele><time>2026-05-01T07:35:41.829Z</time></trkpt><trkpt lat="42.6538029" lon="13.6115072"><ele>756.75</ele><time>2026-05-01T07:35:42.83Z</time></trkpt><trkpt lat="42.653902" lon="13.6116588"><ele>758.0</ele><time>2026-05-01T07:35:43.831Z</time></trkpt><trkpt lat="42.653983" lon="13.6118078"><ele>758.0</ele><time>2026-05-01T07:35:44.829Z</time></trkpt><trkpt lat="42.6540234" lon="13.6119703"><ele>758.0</ele><time>2026-05-01T07:35:45.831Z</time></trkpt><trkpt lat="42.6540373" lon="13.6121374"><ele>758.0</ele><time>2026-05-01T07:35:46.831Z</time></trkpt><trkpt lat="42.6540636" lon="13.6122881"><ele>758.0</ele><time>2026-05-01T07:35:47.83Z</time></trkpt><trkpt lat="42.6541151" lon="13.6124116"><ele>756.4</ele><time>2026-05-01T07:35:48.831Z</time></trkpt><trkpt lat="42.6541926" lon="13.6124866"><ele>754.8</ele><time>2026-05-01T07:35:49.83Z</time></trkpt><trkpt lat="42.6542838" lon="13.612508"><ele>753.2</ele><time>2026-05-01T07:35:50.829Z</time></trkpt><trkpt lat="42.654367" lon="13.612475"><ele>751.6</ele><time>2026-05-01T07:35:51.831Z</time></trkpt><trkpt lat="42.6544375" lon="13.6123796"><ele>750.0</ele><time>2026-05-01T07:35:52.83Z</time></trkpt><trkpt lat="42.6544664" lon="13.6122367"><ele>746.25</ele><time>2026-05-01T07:35:53.829Z</time></trkpt><trkpt lat="42.6544656" lon="13.612065"><ele>742.5</ele><time>2026-05-01T07:35:54.83Z</time></trkpt><trkpt lat="42.6544661" lon="13.611871"><ele>738.75</ele><time>2026-05-01T07:35:55.829Z</time></trkpt><trkpt lat="42.6545047" lon="13.6116638"><ele>735.0</ele><time>2026-05-01T07:35:56.831Z</time></trkpt><trkpt lat="42.6545654" lon="13.6114484"><ele>735.0</ele><time>2026-05-01T07:35:57.83Z</time></trkpt><trkpt lat="42.6546366" lon="13.6112245"><ele>735.0</ele><time>2026-05-01T07:35:58.83Z</time></trkpt><trkpt lat="42.6547094" lon="13.6109941"><ele>735.0</ele><time>2026-05-01T07:35:59.83Z</time></trkpt><trkpt lat="42.6547806" lon="13.6107703"><ele>742.6666666666666</ele><time>2026-05-01T07:36:00.829Z</time></trkpt><trkpt lat="42.654853" lon="13.6105702"><ele>750.3333333333333</ele><time>2026-05-01T07:36:01.831Z</time></trkpt><trkpt lat="42.6549378" lon="13.6103948"><ele>758.0</ele><time>2026-05-01T07:36:02.831Z</time></trkpt><trkpt lat="42.655017" lon="13.6102319"><ele>760.5</ele><time>2026-05-01T07:36:03.83Z</time></trkpt><trkpt lat="42.6550719" lon="13.6100741"><ele>763.0</ele><time>2026-05-01T07:36:04.829Z</time></trkpt><trkpt lat="42.6550845" lon="13.6099079"><ele>765.5</ele><time>2026-05-01T07:36:05.83Z</time></trkpt><trkpt lat="42.6550576" lon="13.609728"><ele>768.0</ele><time>2026-05-01T07:36:06.83Z</time></trkpt><trkpt lat="42.6550238" lon="13.6095357"><ele>769.3333333333333</ele><time>2026-05-01T07:36:07.829Z</time></trkpt><trkpt lat="42.6550149" lon="13.6093157"><ele>770.6666666666666</ele><time>2026-05-01T07:36:08.83Z</time></trkpt><trkpt lat="42.655031" lon="13.6090999"><ele>772.0</ele><time>2026-05-01T07:36:09.829Z</time></trkpt><trkpt lat="42.6550438" lon="13.6088809"><ele>772.0</ele><time>2026-05-01T07:36:10.83Z</time></trkpt><trkpt lat="42.6550476" lon="13.6086719"><ele>772.0</ele><time>2026-05-01T07:36:11.831Z</time></trkpt><trkpt lat="42.6550323" lon="13.6084557"><ele>772.0</ele><time>2026-05-01T07:36:12.831Z</time></trkpt><trkpt lat="42.6550097" lon="13.6082447"><ele>772.3333333333333</ele><time>2026-05-01T07:36:13.83Z</time></trkpt><trkpt lat="42.6549803" lon="13.6080349"><ele>772.6666666666667</ele><time>2026-05-01T07:36:14.83Z</time></trkpt><trkpt lat="42.6549643" lon="13.6078132"><ele>773.0</ele><time>2026-05-01T07:36:15.829Z</time></trkpt><trkpt lat="42.6549558" lon="13.6075886"><ele>774.0</ele><time>2026-05-01T07:36:16.831Z</time></trkpt><trkpt lat="42.6549389" lon="13.6073706"><ele>775.0</ele><time>2026-05-01T07:36:17.831Z</time></trkpt><trkpt lat="42.6549248" lon="13.6071487"><ele>776.0</ele><time>2026-05-01T07:36:18.83Z</time></trkpt><trkpt lat="42.6549136" lon="13.6069361"><ele>777.0</ele><time>2026-05-01T07:36:19.83Z</time></trkpt><trkpt lat="42.6549094" lon="13.6067199"><ele>778.0</ele><time>2026-05-01T07:36:20.83Z</time></trkpt><trkpt lat="42.6548969" lon="13.6064907"><ele>779.0</ele><time>2026-05-01T07:36:21.829Z</time></trkpt><trkpt lat="42.6548681" lon="13.6062566"><ele>779.6666666666667</ele><time>2026-05-01T07:36:22.83Z</time></trkpt><trkpt lat="42.6548272" lon="13.6060159"><ele>780.3333333333333</ele><time>2026-05-01T07:36:23.831Z</time></trkpt><trkpt lat="42.6547817" lon="13.605765"><ele>781.0</ele><time>2026-05-01T07:36:24.829Z</time></trkpt><trkpt lat="42.6547405" lon="13.6055249"><ele>783.0</ele><time>2026-05-01T07:36:25.83Z</time></trkpt><trkpt lat="42.6547078" lon="13.6052868"><ele>785.0</ele><time>2026-05-01T07:36:26.831Z</time></trkpt><trkpt lat="42.6546752" lon="13.6050662"><ele>787.0</ele><time>2026-05-01T07:36:27.831Z</time></trkpt><trkpt lat="42.6546577" lon="13.6048563"><ele>787.0</ele><time>2026-05-01T07:36:28.831Z</time></trkpt><trkpt lat="42.654668" lon="13.6046514"><ele>787.0</ele><time>2026-05-01T07:36:29.829Z</time></trkpt><trkpt lat="42.6547034" lon="13.6044454"><ele>787.0</ele><time>2026-05-01T07:36:30.83Z</time></trkpt><trkpt lat="42.654766" lon="13.6042501"><ele>789.5</ele><time>2026-05-01T07:36:31.829Z</time></trkpt><trkpt lat="42.6548457" lon="13.6040585"><ele>792.0</ele><time>2026-05-01T07:36:32.829Z</time></trkpt><trkpt lat="42.6549146" lon="13.6038848"><ele>794.5</ele><time>2026-05-01T07:36:33.829Z</time></trkpt><trkpt lat="42.6549833" lon="13.6037266"><ele>797.0</ele><time>2026-05-01T07:36:34.829Z</time></trkpt><trkpt lat="42.6550645" lon="13.6035959"><ele>799.5</ele><time>2026-05-01T07:36:35.829Z</time></trkpt><trkpt lat="42.6551648" lon="13.6034934"><ele>802.0</ele><time>2026-05-01T07:36:36.829Z</time></trkpt><trkpt lat="42.6552792" lon="13.6034338"><ele>804.5</ele><time>2026-05-01T07:36:37.831Z</time></trkpt><trkpt lat="42.6554086" lon="13.6034115"><ele>807.0</ele><time>2026-05-01T07:36:38.83Z</time></trkpt><trkpt lat="42.6555467" lon="13.6034196"><ele>807.0</ele><time>2026-05-01T07:36:39.831Z</time></trkpt><trkpt lat="42.655688" lon="13.6034379"><ele>807.0</ele><time>2026-05-01T07:36:40.83Z</time></trkpt><trkpt lat="42.6558282" lon="13.6034572"><ele>807.0</ele><time>2026-05-01T07:36:41.829Z</time></trkpt><trkpt lat="42.6559635" lon="13.6034785"><ele>807.0</ele><time>2026-05-01T07:36:42.831Z</time></trkpt><trkpt lat="42.6560792" lon="13.6035044"><ele>808.0</ele><time>2026-05-01T07:36:43.83Z</time></trkpt><trkpt lat="42.6561816" lon="13.6035213"><ele>809.0</ele><time>2026-05-01T07:36:44.83Z</time></trkpt><trkpt lat="42.6562686" lon="13.6034993"><ele>810.0</ele><time>2026-05-01T07:36:45.831Z</time></trkpt><trkpt lat="42.6563516" lon="13.6034437"><ele>811.0</ele><time>2026-05-01T07:36:46.83Z</time></trkpt><trkpt lat="42.6564012" lon="13.603349"><ele>812.0</ele><time>2026-05-01T07:36:47.83Z</time></trkpt><trkpt lat="42.6564091" lon="13.6032434"><ele>813.0</ele><time>2026-05-01T07:36:48.831Z</time></trkpt><trkpt lat="42.6563747" lon="13.6031413"><ele>813.0</ele><time>2026-05-01T07:36:49.829Z</time></trkpt><trkpt lat="42.656297" lon="13.6030788"><ele>813.0</ele><time>2026-05-01T07:36:50.83Z</time></trkpt><trkpt lat="42.6561931" lon="13.6030499"><ele>813.0</ele><time>2026-05-01T07:36:51.83Z</time></trkpt><trkpt lat="42.6560781" lon="13.6030305"><ele>813.0</ele><time>2026-05-01T07:36:52.829Z</time></trkpt><trkpt lat="42.6559538" lon="13.6029982"><ele>813.0</ele><time>2026-05-01T07:36:53.831Z</time></trkpt><trkpt lat="42.6558234" lon="13.602957"><ele>811.75</ele><time>2026-05-01T07:36:54.831Z</time></trkpt><trkpt lat="42.6556869" lon="13.6029068"><ele>810.5</ele><time>2026-05-01T07:36:55.829Z</time></trkpt><trkpt lat="42.6555502" lon="13.6028572"><ele>809.25</ele><time>2026-05-01T07:36:56.829Z</time></trkpt><trkpt lat="42.6554055" lon="13.6028338"><ele>808.0</ele><time>2026-05-01T07:36:57.829Z</time></trkpt><trkpt lat="42.6552571" lon="13.6028339"><ele>808.0</ele><time>2026-05-01T07:36:58.831Z</time></trkpt><trkpt lat="42.6551135" lon="13.6028439"><ele>808.0</ele><time>2026-05-01T07:36:59.831Z</time></trkpt><trkpt lat="42.654983" lon="13.6028573"><ele>808.0</ele><time>2026-05-01T07:37:00.83Z</time></trkpt><trkpt lat="42.6548624" lon="13.6028655"><ele>808.0</ele><time>2026-05-01T07:37:01.83Z</time></trkpt><trkpt lat="42.6547674" lon="13.6028727"><ele>808.0</ele><time>2026-05-01T07:37:02.83Z</time></trkpt><trkpt lat="42.6546944" lon="13.6028952"><ele>808.0</ele><time>2026-05-01T07:37:03.83Z</time></trkpt><trkpt lat="42.6546136" lon="13.6028939"><ele>808.0</ele><time>2026-05-01T07:37:05.829Z</time></trkpt><trkpt lat="42.6546275" lon="13.6028047"><ele>808.0</ele><time>2026-05-01T07:37:08.83Z</time></trkpt><trkpt lat="42.6546861" lon="13.6027707"><ele>808.0</ele><time>2026-05-01T07:37:09.83Z</time></trkpt><trkpt lat="42.6547507" lon="13.6027242"><ele>808.0</ele><time>2026-05-01T07:37:10.83Z</time></trkpt><trkpt lat="42.6548215" lon="13.6026658"><ele>808.0</ele><time>2026-05-01T07:37:11.829Z</time></trkpt><trkpt lat="42.654891" lon="13.6026059"><ele>810.8</ele><time>2026-05-01T07:37:12.83Z</time></trkpt><trkpt lat="42.6549572" lon="13.6025263"><ele>813.5999999999999</ele><time>2026-05-01T07:37:13.829Z</time></trkpt><trkpt lat="42.6550231" lon="13.6024193"><ele>816.4000000000001</ele><time>2026-05-01T07:37:14.829Z</time></trkpt><trkpt lat="42.6550821" lon="13.6022928"><ele>819.2</ele><time>2026-05-01T07:37:15.829Z</time></trkpt><trkpt lat="42.6551376" lon="13.6021611"><ele>822.0</ele><time>2026-05-01T07:37:16.829Z</time></trkpt><trkpt lat="42.6551959" lon="13.6020259"><ele>821.8</ele><time>2026-05-01T07:37:17.831Z</time></trkpt><trkpt lat="42.6552486" lon="13.6019007"><ele>821.6</ele><time>2026-05-01T07:37:18.831Z</time></trkpt><trkpt lat="42.6552913" lon="13.6017764"><ele>821.4</ele><time>2026-05-01T07:37:19.83Z</time></trkpt><trkpt lat="42.6553292" lon="13.6016551"><ele>821.1999999999999</ele><time>2026-05-01T07:37:20.83Z</time></trkpt><trkpt lat="42.6553623" lon="13.6015322"><ele>821.0</ele><time>2026-05-01T07:37:21.83Z</time></trkpt><trkpt lat="42.6553828" lon="13.6013972"><ele>821.0</ele><time>2026-05-01T07:37:22.83Z</time></trkpt><trkpt lat="42.655399" lon="13.6012463"><ele>821.0</ele><time>2026-05-01T07:37:23.829Z</time></trkpt><trkpt lat="42.6554056" lon="13.6010781"><ele>821.0</ele><time>2026-05-01T07:37:24.829Z</time></trkpt><trkpt lat="42.6554082" lon="13.6008942"><ele>821.0</ele><time>2026-05-01T07:37:25.829Z</time></trkpt><trkpt lat="42.6554111" lon="13.600719"><ele>820.0</ele><time>2026-05-01T07:37:26.829Z</time></trkpt><trkpt lat="42.6554093" lon="13.6005449"><ele>819.0</ele><time>2026-05-01T07:37:27.831Z</time></trkpt><trkpt lat="42.6554013" lon="13.6003786"><ele>818.0</ele><time>2026-05-01T07:37:28.829Z</time></trkpt><trkpt lat="42.6553893" lon="13.6002164"><ele>817.0</ele><time>2026-05-01T07:37:29.83Z</time></trkpt><trkpt lat="42.6553779" lon="13.6000619"><ele>816.8</ele><time>2026-05-01T07:37:30.829Z</time></trkpt><trkpt lat="42.6553737" lon="13.5999033"><ele>816.6</ele><time>2026-05-01T07:37:31.829Z</time></trkpt><trkpt lat="42.6553718" lon="13.5997563"><ele>816.4</ele><time>2026-05-01T07:37:32.829Z</time></trkpt><trkpt lat="42.6553694" lon="13.5996104"><ele>816.1999999999999</ele><time>2026-05-01T07:37:33.83Z</time></trkpt><trkpt lat="42.6553752" lon="13.5994706"><ele>816.0</ele><time>2026-05-01T07:37:34.831Z</time></trkpt><trkpt lat="42.6553917" lon="13.5993383"><ele>816.0</ele><time>2026-05-01T07:37:35.829Z</time></trkpt><trkpt lat="42.6554143" lon="13.5992313"><ele>816.0</ele><time>2026-05-01T07:37:36.829Z</time></trkpt><trkpt lat="42.6554585" lon="13.5991398"><ele>816.0</ele><time>2026-05-01T07:37:37.829Z</time></trkpt><trkpt lat="42.6555069" lon="13.5990522"><ele>816.0</ele><time>2026-05-01T07:37:38.83Z</time></trkpt><trkpt lat="42.6555767" lon="13.5989776"><ele>816.0</ele><time>2026-05-01T07:37:39.83Z</time></trkpt><trkpt lat="42.6556519" lon="13.5989044"><ele>816.0</ele><time>2026-05-01T07:37:40.831Z</time></trkpt><trkpt lat="42.655735" lon="13.5988257"><ele>816.0</ele><time>2026-05-01T07:37:41.83Z</time></trkpt><trkpt lat="42.6558217" lon="13.5987392"><ele>816.0</ele><time>2026-05-01T07:37:42.831Z</time></trkpt><trkpt lat="42.6559066" lon="13.5986596"><ele>816.0</ele><time>2026-05-01T07:37:43.83Z</time></trkpt><trkpt lat="42.6560031" lon="13.5985879"><ele>816.0</ele><time>2026-05-01T07:37:44.83Z</time></trkpt><trkpt lat="42.6560985" lon="13.598502"><ele>816.0</ele><time>2026-05-01T07:37:45.83Z</time></trkpt><trkpt lat="42.6561899" lon="13.5984368"><ele>817.1999999999999</ele><time>2026-05-01T07:37:46.83Z</time></trkpt><trkpt lat="42.6562795" lon="13.5983667"><ele>818.4</ele><time>2026-05-01T07:37:47.831Z</time></trkpt><trkpt lat="42.6563644" lon="13.598285"><ele>819.6</ele><time>2026-05-01T07:37:48.83Z</time></trkpt><trkpt lat="42.6564323" lon="13.5982195"><ele>820.8</ele><time>2026-05-01T07:37:49.829Z</time></trkpt><trkpt lat="42.6565054" lon="13.598149"><ele>822.0</ele><time>2026-05-01T07:37:50.83Z</time></trkpt><trkpt lat="42.6565748" lon="13.5980787"><ele>822.0</ele><time>2026-05-01T07:37:51.831Z</time></trkpt><trkpt lat="42.6566198" lon="13.5979252"><ele>822.0</ele><time>2026-05-01T07:37:53.829Z</time></trkpt><trkpt lat="42.6566202" lon="13.5978313"><ele>822.0</ele><time>2026-05-01T07:37:54.83Z</time></trkpt><trkpt lat="42.6566244" lon="13.5977266"><ele>822.0</ele><time>2026-05-01T07:37:55.831Z</time></trkpt><trkpt lat="42.6566784" lon="13.5975747"><ele>822.0</ele><time>2026-05-01T07:37:57.831Z</time></trkpt><trkpt lat="42.6567239" lon="13.5975117"><ele>824.1666666666666</ele><time>2026-05-01T07:37:58.829Z</time></trkpt><trkpt lat="42.6567795" lon="13.5974683"><ele>826.3333333333333</ele><time>2026-05-01T07:37:59.83Z</time></trkpt><trkpt lat="42.65686" lon="13.597436"><ele>828.5</ele><time>2026-05-01T07:38:00.829Z</time></trkpt><trkpt lat="42.6569504" lon="13.5974178"><ele>830.6666666666666</ele><time>2026-05-01T07:38:01.829Z</time></trkpt><trkpt lat="42.6570442" lon="13.5974074"><ele>832.8333333333333</ele><time>2026-05-01T07:38:02.83Z</time></trkpt><trkpt lat="42.6571452" lon="13.5973928"><ele>835.0</ele><time>2026-05-01T07:38:03.83Z</time></trkpt><trkpt lat="42.6572504" lon="13.5973847"><ele>835.0</ele><time>2026-05-01T07:38:04.83Z</time></trkpt><trkpt lat="42.6573561" lon="13.5973745"><ele>835.0</ele><time>2026-05-01T07:38:05.83Z</time></trkpt><trkpt lat="42.6574666" lon="13.5973661"><ele>835.0</ele><time>2026-05-01T07:38:06.831Z</time></trkpt><trkpt lat="42.6575693" lon="13.5973601"><ele>835.0</ele><time>2026-05-01T07:38:07.83Z</time></trkpt><trkpt lat="42.6576755" lon="13.5973596"><ele>835.0</ele><time>2026-05-01T07:38:08.83Z</time></trkpt><trkpt lat="42.6577733" lon="13.5973586"><ele>834.6</ele><time>2026-05-01T07:38:09.83Z</time></trkpt><trkpt lat="42.657856" lon="13.5973391"><ele>834.2</ele><time>2026-05-01T07:38:10.83Z</time></trkpt><trkpt lat="42.6579263" lon="13.5973041"><ele>833.8</ele><time>2026-05-01T07:38:11.829Z</time></trkpt><trkpt lat="42.6579936" lon="13.5972275"><ele>833.4</ele><time>2026-05-01T07:38:12.83Z</time></trkpt><trkpt lat="42.658054" lon="13.5971165"><ele>833.0</ele><time>2026-05-01T07:38:13.83Z</time></trkpt><trkpt lat="42.6581121" lon="13.5969867"><ele>835.5</ele><time>2026-05-01T07:38:14.831Z</time></trkpt><trkpt lat="42.6581681" lon="13.5968304"><ele>838.0</ele><time>2026-05-01T07:38:15.831Z</time></trkpt><trkpt lat="42.6582099" lon="13.5966854"><ele>840.5</ele><time>2026-05-01T07:38:16.83Z</time></trkpt><trkpt lat="42.6582603" lon="13.5965557"><ele>843.0</ele><time>2026-05-01T07:38:17.829Z</time></trkpt><trkpt lat="42.6583125" lon="13.596424"><ele>843.0</ele><time>2026-05-01T07:38:18.829Z</time></trkpt><trkpt lat="42.6583624" lon="13.5962981"><ele>843.0</ele><time>2026-05-01T07:38:19.829Z</time></trkpt><trkpt lat="42.6584125" lon="13.5961824"><ele>843.0</ele><time>2026-05-01T07:38:20.83Z</time></trkpt><trkpt lat="42.6584612" lon="13.5960725"><ele>843.0</ele><time>2026-05-01T07:38:21.831Z</time></trkpt><trkpt lat="42.6585102" lon="13.5959836"><ele>843.0</ele><time>2026-05-01T07:38:22.829Z</time></trkpt><trkpt lat="42.6585636" lon="13.595917"><ele>844.6666666666666</ele><time>2026-05-01T07:38:23.83Z</time></trkpt><trkpt lat="42.6586167" lon="13.5958684"><ele>846.3333333333333</ele><time>2026-05-01T07:38:24.829Z</time></trkpt><trkpt lat="42.6587312" lon="13.5958476"><ele>848.0</ele><time>2026-05-01T07:38:26.829Z</time></trkpt><trkpt lat="42.6588193" lon="13.5958916"><ele>849.6666666666666</ele><time>2026-05-01T07:38:28.83Z</time></trkpt><trkpt lat="42.6588885" lon="13.595925"><ele>851.3333333333333</ele><time>2026-05-01T07:38:30.83Z</time></trkpt><trkpt lat="42.6589507" lon="13.5959388"><ele>853.0</ele><time>2026-05-01T07:39:56.829Z</time></trkpt><trkpt lat="42.6590659" lon="13.5959853"><ele>852.9999999999999</ele><time>2026-05-01T07:39:58.829Z</time></trkpt><trkpt lat="42.659148" lon="13.5960034"><ele>853.0</ele><time>2026-05-01T07:39:59.829Z</time></trkpt><trkpt lat="42.6592418" lon="13.5960114"><ele>853.0</ele><time>2026-05-01T07:40:00.829Z</time></trkpt><trkpt lat="42.6593312" lon="13.596017"><ele>853.0</ele><time>2026-05-01T07:40:01.829Z</time></trkpt><trkpt lat="42.6594086" lon="13.5960052"><ele>852.9999999999999</ele><time>2026-05-01T07:40:02.829Z</time></trkpt><trkpt lat="42.6594749" lon="13.5959613"><ele>853.0</ele><time>2026-05-01T07:40:03.831Z</time></trkpt><trkpt lat="42.6595372" lon="13.5958985"><ele>852.2</ele><time>2026-05-01T07:40:04.831Z</time></trkpt><trkpt lat="42.6596033" lon="13.5957962"><ele>851.4</ele><time>2026-05-01T07:40:05.829Z</time></trkpt><trkpt lat="42.6596644" lon="13.5956838"><ele>850.6</ele><time>2026-05-01T07:40:06.831Z</time></trkpt><trkpt lat="42.6597139" lon="13.5955545"><ele>849.8000000000001</ele><time>2026-05-01T07:40:07.83Z</time></trkpt><trkpt lat="42.6597454" lon="13.5953974"><ele>849.0</ele><time>2026-05-01T07:40:08.831Z</time></trkpt><trkpt lat="42.6597739" lon="13.5952517"><ele>849.0</ele><time>2026-05-01T07:40:09.83Z</time></trkpt><trkpt lat="42.6598024" lon="13.5951029"><ele>849.0</ele><time>2026-05-01T07:40:10.83Z</time></trkpt><trkpt lat="42.6598276" lon="13.5949476"><ele>849.0</ele><time>2026-05-01T07:40:11.83Z</time></trkpt><trkpt lat="42.6598405" lon="13.5947902"><ele>849.0</ele><time>2026-05-01T07:40:12.83Z</time></trkpt><trkpt lat="42.6598342" lon="13.5946142"><ele>849.25</ele><time>2026-05-01T07:40:13.83Z</time></trkpt><trkpt lat="42.6598215" lon="13.5944361"><ele>849.5</ele><time>2026-05-01T07:40:14.83Z</time></trkpt><trkpt lat="42.6598024" lon="13.5942617"><ele>849.75</ele><time>2026-05-01T07:40:15.83Z</time></trkpt><trkpt lat="42.6597869" lon="13.5940985"><ele>850.0</ele><time>2026-05-01T07:40:16.829Z</time></trkpt><trkpt lat="42.6597738" lon="13.5939454"><ele>850.0</ele><time>2026-05-01T07:40:17.83Z</time></trkpt><trkpt lat="42.6597641" lon="13.5938028"><ele>850.0</ele><time>2026-05-01T07:40:18.83Z</time></trkpt><trkpt lat="42.6597514" lon="13.593653"><ele>850.0</ele><time>2026-05-01T07:40:19.83Z</time></trkpt><trkpt lat="42.6597367" lon="13.5934844"><ele>850.0</ele><time>2026-05-01T07:40:20.831Z</time></trkpt><trkpt lat="42.6597198" lon="13.5933152"><ele>849.8</ele><time>2026-05-01T07:40:21.83Z</time></trkpt><trkpt lat="42.6597052" lon="13.5931602"><ele>849.6</ele><time>2026-05-01T07:40:22.83Z</time></trkpt><trkpt lat="42.6596969" lon="13.5930115"><ele>849.4000000000001</ele><time>2026-05-01T07:40:23.831Z</time></trkpt><trkpt lat="42.6596991" lon="13.5928595"><ele>849.2</ele><time>2026-05-01T07:40:24.831Z</time></trkpt><trkpt lat="42.6597001" lon="13.5927087"><ele>849.0</ele><time>2026-05-01T07:40:25.83Z</time></trkpt><trkpt lat="42.659725" lon="13.5925721"><ele>849.4000000000001</ele><time>2026-05-01T07:40:26.83Z</time></trkpt><trkpt lat="42.659788" lon="13.5924512"><ele>849.8</ele><time>2026-05-01T07:40:27.829Z</time></trkpt><trkpt lat="42.6598312" lon="13.5923295"><ele>850.2</ele><time>2026-05-01T07:40:28.829Z</time></trkpt><trkpt lat="42.6598926" lon="13.5922215"><ele>850.5999999999999</ele><time>2026-05-01T07:40:29.828Z</time></trkpt><trkpt lat="42.6599747" lon="13.5921191"><ele>851.0</ele><time>2026-05-01T07:40:30.829Z</time></trkpt><trkpt lat="42.660077" lon="13.5920197"><ele>852.0</ele><time>2026-05-01T07:40:31.828Z</time></trkpt><trkpt lat="42.6602001" lon="13.5919128"><ele>853.0</ele><time>2026-05-01T07:40:32.829Z</time></trkpt><trkpt lat="42.6603161" lon="13.5917933"><ele>854.0</ele><time>2026-05-01T07:40:33.829Z</time></trkpt><trkpt lat="42.6604416" lon="13.5916761"><ele>855.0</ele><time>2026-05-01T07:40:34.829Z</time></trkpt><trkpt lat="42.6605637" lon="13.5915778"><ele>855.0</ele><time>2026-05-01T07:40:35.83Z</time></trkpt><trkpt lat="42.660693" lon="13.5914865"><ele>855.0</ele><time>2026-05-01T07:40:36.83Z</time></trkpt><trkpt lat="42.6608232" lon="13.5913931"><ele>855.0</ele><time>2026-05-01T07:40:37.83Z</time></trkpt><trkpt lat="42.6609545" lon="13.5913158"><ele>855.0</ele><time>2026-05-01T07:40:38.829Z</time></trkpt><trkpt lat="42.6610847" lon="13.5912573"><ele>857.0</ele><time>2026-05-01T07:40:39.829Z</time></trkpt><trkpt lat="42.6612032" lon="13.5911984"><ele>859.0</ele><time>2026-05-01T07:40:40.829Z</time></trkpt><trkpt lat="42.6613176" lon="13.5911368"><ele>861.0</ele><time>2026-05-01T07:40:41.828Z</time></trkpt><trkpt lat="42.661418" lon="13.5910599"><ele>863.0</ele><time>2026-05-01T07:40:42.829Z</time></trkpt><trkpt lat="42.6615072" lon="13.5909748"><ele>863.0</ele><time>2026-05-01T07:40:43.829Z</time></trkpt><trkpt lat="42.6615847" lon="13.5908726"><ele>863.0</ele><time>2026-05-01T07:40:44.829Z</time></trkpt><trkpt lat="42.6616566" lon="13.5907725"><ele>863.0</ele><time>2026-05-01T07:40:45.829Z</time></trkpt><trkpt lat="42.6616988" lon="13.5906691"><ele>863.0</ele><time>2026-05-01T07:40:46.828Z</time></trkpt><trkpt lat="42.6617425" lon="13.5905585"><ele>863.0</ele><time>2026-05-01T07:40:47.829Z</time></trkpt><trkpt lat="42.6617031" lon="13.5903848"><ele>865.25</ele><time>2026-05-01T07:40:48.828Z</time></trkpt><trkpt lat="42.6617091" lon="13.5902483"><ele>867.5</ele><time>2026-05-01T07:40:49.828Z</time></trkpt><trkpt lat="42.6616932" lon="13.5900534"><ele>869.75</ele><time>2026-05-01T07:40:50.828Z</time></trkpt><trkpt lat="42.6617014" lon="13.5899061"><ele>872.0</ele><time>2026-05-01T07:40:51.828Z</time></trkpt><trkpt lat="42.6617335" lon="13.5897625"><ele>872.0</ele><time>2026-05-01T07:40:52.829Z</time></trkpt><trkpt lat="42.6617758" lon="13.5896282"><ele>872.0</ele><time>2026-05-01T07:40:53.829Z</time></trkpt><trkpt lat="42.6618364" lon="13.5894986"><ele>872.0</ele><time>2026-05-01T07:40:54.829Z</time></trkpt><trkpt lat="42.6618869" lon="13.5893816"><ele>872.0</ele><time>2026-05-01T07:40:55.829Z</time></trkpt><trkpt lat="42.6619247" lon="13.5892634"><ele>872.0</ele><time>2026-05-01T07:40:56.829Z</time></trkpt><trkpt lat="42.6619443" lon="13.5891639"><ele>872.5000000000001</ele><time>2026-05-01T07:40:57.828Z</time></trkpt><trkpt lat="42.6619501" lon="13.5890545"><ele>873.0</ele><time>2026-05-01T07:40:58.829Z</time></trkpt><trkpt lat="42.6619269" lon="13.5889703"><ele>873.5</ele><time>2026-05-01T07:40:59.83Z</time></trkpt><trkpt lat="42.6618761" lon="13.5888627"><ele>874.0</ele><time>2026-05-01T07:41:00.83Z</time></trkpt><trkpt lat="42.6618104" lon="13.588762"><ele>874.5000000000001</ele><time>2026-05-01T07:41:01.829Z</time></trkpt><trkpt lat="42.6617552" lon="13.5886624"><ele>875.0</ele><time>2026-05-01T07:41:02.829Z</time></trkpt><trkpt lat="42.6617123" lon="13.588536"><ele>876.0000000000001</ele><time>2026-05-01T07:41:03.83Z</time></trkpt><trkpt lat="42.6616843" lon="13.5884268"><ele>877.0</ele><time>2026-05-01T07:41:04.83Z</time></trkpt><trkpt lat="42.661671" lon="13.588319"><ele>878.0</ele><time>2026-05-01T07:41:05.829Z</time></trkpt><trkpt lat="42.6616747" lon="13.5882253"><ele>879.0</ele><time>2026-05-01T07:41:06.828Z</time></trkpt><trkpt lat="42.6617046" lon="13.5881371"><ele>880.0000000000001</ele><time>2026-05-01T07:41:07.829Z</time></trkpt><trkpt lat="42.6617512" lon="13.5880583"><ele>881.0</ele><time>2026-05-01T07:41:08.829Z</time></trkpt><trkpt lat="42.6618324" lon="13.5879749"><ele>881.0</ele><time>2026-05-01T07:41:09.828Z</time></trkpt><trkpt lat="42.6619383" lon="13.5878882"><ele>881.0</ele><time>2026-05-01T07:41:10.829Z</time></trkpt><trkpt lat="42.6620431" lon="13.5878025"><ele>881.0</ele><time>2026-05-01T07:41:11.829Z</time></trkpt><trkpt lat="42.6621472" lon="13.5877182"><ele>881.0</ele><time>2026-05-01T07:41:12.829Z</time></trkpt><trkpt lat="42.6622442" lon="13.5876494"><ele>880.5999999999999</ele><time>2026-05-01T07:41:13.828Z</time></trkpt><trkpt lat="42.6623407" lon="13.587583"><ele>880.1999999999999</ele><time>2026-05-01T07:41:14.828Z</time></trkpt><trkpt lat="42.6624417" lon="13.5875122"><ele>879.8000000000001</ele><time>2026-05-01T07:41:15.829Z</time></trkpt><trkpt lat="42.6625414" lon="13.5874556"><ele>879.4000000000001</ele><time>2026-05-01T07:41:16.829Z</time></trkpt><trkpt lat="42.662643" lon="13.5874299"><ele>879.0</ele><time>2026-05-01T07:41:17.828Z</time></trkpt><trkpt lat="42.6627549" lon="13.5874231"><ele>878.4000000000001</ele><time>2026-05-01T07:41:18.83Z</time></trkpt><trkpt lat="42.6628607" lon="13.5874452"><ele>877.8000000000001</ele><time>2026-05-01T07:41:19.83Z</time></trkpt><trkpt lat="42.6629615" lon="13.5875021"><ele>877.1999999999999</ele><time>2026-05-01T07:41:20.83Z</time></trkpt><trkpt lat="42.6630585" lon="13.5875835"><ele>876.5999999999999</ele><time>2026-05-01T07:41:21.829Z</time></trkpt><trkpt lat="42.6631557" lon="13.5876582"><ele>876.0</ele><time>2026-05-01T07:41:22.828Z</time></trkpt><trkpt lat="42.6632387" lon="13.5876916"><ele>876.0</ele><time>2026-05-01T07:41:23.829Z</time></trkpt><trkpt lat="42.6633039" lon="13.5877122"><ele>876.0</ele><time>2026-05-01T07:41:24.828Z</time></trkpt><trkpt lat="42.6633682" lon="13.5877067"><ele>876.0</ele><time>2026-05-01T07:41:25.829Z</time></trkpt><trkpt lat="42.6634352" lon="13.5876719"><ele>876.0</ele><time>2026-05-01T07:41:26.829Z</time></trkpt><trkpt lat="42.6635022" lon="13.587615"><ele>876.0</ele><time>2026-05-01T07:41:27.83Z</time></trkpt><trkpt lat="42.6635572" lon="13.5875194"><ele>876.0</ele><time>2026-05-01T07:41:28.829Z</time></trkpt><trkpt lat="42.6636001" lon="13.5874183"><ele>877.0</ele><time>2026-05-01T07:41:29.829Z</time></trkpt><trkpt lat="42.6636239" lon="13.5873046"><ele>877.9999999999999</ele><time>2026-05-01T07:41:30.829Z</time></trkpt><trkpt lat="42.6636232" lon="13.5871575"><ele>878.9999999999999</ele><time>2026-05-01T07:41:31.829Z</time></trkpt><trkpt lat="42.6636021" lon="13.5869963"><ele>880.0</ele><time>2026-05-01T07:41:32.829Z</time></trkpt><trkpt lat="42.663566" lon="13.5868311"><ele>881.0</ele><time>2026-05-01T07:41:33.829Z</time></trkpt><trkpt lat="42.6635302" lon="13.5866524"><ele>881.0</ele><time>2026-05-01T07:41:34.83Z</time></trkpt><trkpt lat="42.6634899" lon="13.5864779"><ele>881.0</ele><time>2026-05-01T07:41:35.83Z</time></trkpt><trkpt lat="42.6634557" lon="13.586306"><ele>881.0</ele><time>2026-05-01T07:41:36.829Z</time></trkpt><trkpt lat="42.6634217" lon="13.5861355"><ele>881.0</ele><time>2026-05-01T07:41:37.829Z</time></trkpt><trkpt lat="42.6633839" lon="13.5859751"><ele>880.0</ele><time>2026-05-01T07:41:38.83Z</time></trkpt><trkpt lat="42.6633428" lon="13.5858111"><ele>879.0</ele><time>2026-05-01T07:41:39.829Z</time></trkpt><trkpt lat="42.6633094" lon="13.5856287"><ele>878.0</ele><time>2026-05-01T07:41:40.829Z</time></trkpt><trkpt lat="42.6632738" lon="13.5854378"><ele>877.0</ele><time>2026-05-01T07:41:41.829Z</time></trkpt><trkpt lat="42.6632436" lon="13.5852496"><ele>875.75</ele><time>2026-05-01T07:41:42.828Z</time></trkpt><trkpt lat="42.6632241" lon="13.5850656"><ele>874.5</ele><time>2026-05-01T07:41:43.828Z</time></trkpt><trkpt lat="42.6632111" lon="13.5849019"><ele>873.25</ele><time>2026-05-01T07:41:44.828Z</time></trkpt><trkpt lat="42.6632108" lon="13.5847489"><ele>872.0</ele><time>2026-05-01T07:41:45.828Z</time></trkpt><trkpt lat="42.6632244" lon="13.5846039"><ele>872.6</ele><time>2026-05-01T07:41:46.829Z</time></trkpt><trkpt lat="42.6632577" lon="13.5844612"><ele>873.2</ele><time>2026-05-01T07:41:47.829Z</time></trkpt><trkpt lat="42.6633117" lon="13.5843256"><ele>873.8</ele><time>2026-05-01T07:41:48.828Z</time></trkpt><trkpt lat="42.6633768" lon="13.5842089"><ele>874.4</ele><time>2026-05-01T07:41:49.829Z</time></trkpt><trkpt lat="42.6634603" lon="13.5841134"><ele>875.0</ele><time>2026-05-01T07:41:50.829Z</time></trkpt><trkpt lat="42.6635602" lon="13.5840296"><ele>871.25</ele><time>2026-05-01T07:41:51.829Z</time></trkpt><trkpt lat="42.663686" lon="13.5839524"><ele>867.5</ele><time>2026-05-01T07:41:52.83Z</time></trkpt><trkpt lat="42.663813" lon="13.5838659"><ele>863.75</ele><time>2026-05-01T07:41:53.829Z</time></trkpt><trkpt lat="42.6639474" lon="13.5837786"><ele>860.0</ele><time>2026-05-01T07:41:54.829Z</time></trkpt><trkpt lat="42.6640782" lon="13.5836947"><ele>860.0</ele><time>2026-05-01T07:41:55.829Z</time></trkpt><trkpt lat="42.6641999" lon="13.5836233"><ele>860.0</ele><time>2026-05-01T07:41:56.83Z</time></trkpt><trkpt lat="42.6643142" lon="13.5835467"><ele>860.0</ele><time>2026-05-01T07:41:57.83Z</time></trkpt><trkpt lat="42.6644221" lon="13.5834751"><ele>860.0</ele><time>2026-05-01T07:41:58.829Z</time></trkpt><trkpt lat="42.6645274" lon="13.5834108"><ele>860.0</ele><time>2026-05-01T07:41:59.83Z</time></trkpt><trkpt lat="42.6646194" lon="13.5833514"><ele>860.0</ele><time>2026-05-01T07:42:00.83Z</time></trkpt><trkpt lat="42.6646959" lon="13.5833024"><ele>860.0</ele><time>2026-05-01T07:42:01.829Z</time></trkpt><trkpt lat="42.6647626" lon="13.583261"><ele>860.0</ele><time>2026-05-01T07:42:02.828Z</time></trkpt><trkpt lat="42.6648611" lon="13.5831638"><ele>860.0</ele><time>2026-05-01T07:42:04.828Z</time></trkpt><trkpt lat="42.6649121" lon="13.5830705"><ele>860.0</ele><time>2026-05-01T07:42:05.828Z</time></trkpt><trkpt lat="42.664959" lon="13.5829506"><ele>860.0</ele><time>2026-05-01T07:42:06.828Z</time></trkpt><trkpt lat="42.6650011" lon="13.5828137"><ele>860.0</ele><time>2026-05-01T07:42:07.829Z</time></trkpt><trkpt lat="42.6650472" lon="13.5826787"><ele>860.0</ele><time>2026-05-01T07:42:08.829Z</time></trkpt><trkpt lat="42.6650893" lon="13.5825488"><ele>860.0</ele><time>2026-05-01T07:42:09.828Z</time></trkpt><trkpt lat="42.6651213" lon="13.5824184"><ele>860.0</ele><time>2026-05-01T07:42:10.828Z</time></trkpt><trkpt lat="42.6651444" lon="13.5822826"><ele>860.0</ele><time>2026-05-01T07:42:11.828Z</time></trkpt><trkpt lat="42.6651567" lon="13.5821364"><ele>860.0</ele><time>2026-05-01T07:42:12.828Z</time></trkpt><trkpt lat="42.6651583" lon="13.5819924"><ele>860.0</ele><time>2026-05-01T07:42:13.829Z</time></trkpt><trkpt lat="42.6651559" lon="13.581842"><ele>860.0</ele><time>2026-05-01T07:42:14.829Z</time></trkpt><trkpt lat="42.6651474" lon="13.5816971"><ele>860.0</ele><time>2026-05-01T07:42:15.828Z</time></trkpt><trkpt lat="42.6651341" lon="13.5815545"><ele>860.0</ele><time>2026-05-01T07:42:16.828Z</time></trkpt><trkpt lat="42.6651177" lon="13.5814109"><ele>860.0</ele><time>2026-05-01T07:42:17.829Z</time></trkpt><trkpt lat="42.6650904" lon="13.5812626"><ele>860.0</ele><time>2026-05-01T07:42:18.829Z</time></trkpt><trkpt lat="42.6650528" lon="13.5811073"><ele>860.0</ele><time>2026-05-01T07:42:19.83Z</time></trkpt><trkpt lat="42.6650105" lon="13.5809489"><ele>857.75</ele><time>2026-05-01T07:42:20.83Z</time></trkpt><trkpt lat="42.6649649" lon="13.5807877"><ele>855.5</ele><time>2026-05-01T07:42:21.83Z</time></trkpt><trkpt lat="42.6649166" lon="13.5806281"><ele>853.25</ele><time>2026-05-01T07:42:22.829Z</time></trkpt><trkpt lat="42.6648706" lon="13.5804691"><ele>851.0</ele><time>2026-05-01T07:42:23.83Z</time></trkpt><trkpt lat="42.6648235" lon="13.5803174"><ele>849.25</ele><time>2026-05-01T07:42:24.83Z</time></trkpt><trkpt lat="42.664775" lon="13.580168"><ele>847.5</ele><time>2026-05-01T07:42:25.83Z</time></trkpt><trkpt lat="42.6647275" lon="13.580013"><ele>845.75</ele><time>2026-05-01T07:42:26.829Z</time></trkpt><trkpt lat="42.6646792" lon="13.5798486"><ele>844.0</ele><time>2026-05-01T07:42:27.83Z</time></trkpt><trkpt lat="42.6646392" lon="13.5796866"><ele>844.0</ele><time>2026-05-01T07:42:28.83Z</time></trkpt><trkpt lat="42.6646028" lon="13.5795232"><ele>844.0</ele><time>2026-05-01T07:42:29.829Z</time></trkpt><trkpt lat="42.6645665" lon="13.5793657"><ele>844.0</ele><time>2026-05-01T07:42:30.83Z</time></trkpt><trkpt lat="42.6645299" lon="13.5792059"><ele>844.0</ele><time>2026-05-01T07:42:31.829Z</time></trkpt><trkpt lat="42.6644969" lon="13.5790478"><ele>843.2</ele><time>2026-05-01T07:42:32.83Z</time></trkpt><trkpt lat="42.6644539" lon="13.5788968"><ele>842.4000000000001</ele><time>2026-05-01T07:42:33.829Z</time></trkpt><trkpt lat="42.6644144" lon="13.5787653"><ele>841.6</ele><time>2026-05-01T07:42:34.829Z</time></trkpt><trkpt lat="42.664374" lon="13.5786365"><ele>840.8</ele><time>2026-05-01T07:42:35.829Z</time></trkpt><trkpt lat="42.6643441" lon="13.5785049"><ele>840.0</ele><time>2026-05-01T07:42:36.83Z</time></trkpt><trkpt lat="42.6643277" lon="13.5783712"><ele>838.8333333333334</ele><time>2026-05-01T07:42:37.83Z</time></trkpt><trkpt lat="42.6643276" lon="13.5782494"><ele>837.6666666666667</ele><time>2026-05-01T07:42:38.828Z</time></trkpt><trkpt lat="42.6643472" lon="13.5781377"><ele>836.5</ele><time>2026-05-01T07:42:39.829Z</time></trkpt><trkpt lat="42.6643864" lon="13.57804"><ele>835.3333333333334</ele><time>2026-05-01T07:42:40.829Z</time></trkpt><trkpt lat="42.6644372" lon="13.5779537"><ele>834.1666666666667</ele><time>2026-05-01T07:42:41.828Z</time></trkpt><trkpt lat="42.6644994" lon="13.5778808"><ele>833.0</ele><time>2026-05-01T07:42:42.83Z</time></trkpt><trkpt lat="42.6645707" lon="13.5778191"><ele>831.5999999999999</ele><time>2026-05-01T07:42:43.83Z</time></trkpt><trkpt lat="42.6646513" lon="13.5777772"><ele>830.1999999999999</ele><time>2026-05-01T07:42:44.829Z</time></trkpt><trkpt lat="42.6647333" lon="13.5777549"><ele>828.8</ele><time>2026-05-01T07:42:45.828Z</time></trkpt><trkpt lat="42.6648057" lon="13.5777485"><ele>827.4</ele><time>2026-05-01T07:42:46.829Z</time></trkpt><trkpt lat="42.664924" lon="13.5777425"><ele>826.0</ele><time>2026-05-01T07:42:48.83Z</time></trkpt><trkpt lat="42.6650299" lon="13.577668"><ele>826.0</ele><time>2026-05-01T07:42:50.828Z</time></trkpt><trkpt lat="42.6650855" lon="13.5775177"><ele>826.0</ele><time>2026-05-01T07:42:52.828Z</time></trkpt><trkpt lat="42.6650959" lon="13.5774098"><ele>826.0</ele><time>2026-05-01T07:42:53.829Z</time></trkpt><trkpt lat="42.6650946" lon="13.577295"><ele>826.0</ele><time>2026-05-01T07:42:54.829Z</time></trkpt><trkpt lat="42.6650835" lon="13.5771835"><ele>826.0</ele><time>2026-05-01T07:42:55.829Z</time></trkpt><trkpt lat="42.6650806" lon="13.5770726"><ele>823.5999999999999</ele><time>2026-05-01T07:42:56.829Z</time></trkpt><trkpt lat="42.6650678" lon="13.5769708"><ele>821.2</ele><time>2026-05-01T07:42:57.828Z</time></trkpt><trkpt lat="42.6650636" lon="13.5768524"><ele>818.8</ele><time>2026-05-01T07:42:59.83Z</time></trkpt><trkpt lat="42.6651333" lon="13.5767542"><ele>816.4000000000001</ele><time>2026-05-01T07:43:01.829Z</time></trkpt><trkpt lat="42.665231" lon="13.5767403"><ele>814.0</ele><time>2026-05-01T07:43:03.829Z</time></trkpt><trkpt lat="42.66532" lon="13.5767692"><ele>811.6666666666666</ele><time>2026-05-01T07:43:05.828Z</time></trkpt><trkpt lat="42.6653951" lon="13.576787"><ele>809.3333333333333</ele><time>2026-05-01T07:43:08.828Z</time></trkpt><trkpt lat="42.6654506" lon="13.5767408"><ele>807.0</ele><time>2026-05-01T07:43:10.828Z</time></trkpt><trkpt lat="42.6654908" lon="13.576614"><ele>804.6666666666667</ele><time>2026-05-01T07:43:12.83Z</time></trkpt><trkpt lat="42.6655165" lon="13.5764734"><ele>802.3333333333334</ele><time>2026-05-01T07:43:14.828Z</time></trkpt><trkpt lat="42.6655204" lon="13.5763479"><ele>800.0</ele><time>2026-05-01T07:43:16.829Z</time></trkpt><trkpt lat="42.6654979" lon="13.5762379"><ele>798.6666666666667</ele><time>2026-05-01T07:43:18.829Z</time></trkpt><trkpt lat="42.6654404" lon="13.5760854"><ele>797.3333333333334</ele><time>2026-05-01T07:43:20.83Z</time></trkpt><trkpt lat="42.6654136" lon="13.5759903"><ele>796.0</ele><time>2026-05-01T07:43:21.828Z</time></trkpt><trkpt lat="42.6653857" lon="13.5758997"><ele>794.6666666666667</ele><time>2026-05-01T07:43:22.828Z</time></trkpt><trkpt lat="42.6653585" lon="13.5758016"><ele>793.3333333333334</ele><time>2026-05-01T07:43:23.829Z</time></trkpt><trkpt lat="42.6653273" lon="13.5757124"><ele>792.0</ele><time>2026-05-01T07:43:24.83Z</time></trkpt><trkpt lat="42.665286" lon="13.5756343"><ele>792.0</ele><time>2026-05-01T07:43:25.829Z</time></trkpt><trkpt lat="42.6652314" lon="13.5755675"><ele>792.0</ele><time>2026-05-01T07:43:26.829Z</time></trkpt><trkpt lat="42.6651554" lon="13.5755012"><ele>792.0</ele><time>2026-05-01T07:43:27.829Z</time></trkpt><trkpt lat="42.6650673" lon="13.5754325"><ele>792.0</ele><time>2026-05-01T07:43:28.829Z</time></trkpt><trkpt lat="42.6649873" lon="13.5753591"><ele>792.0</ele><time>2026-05-01T07:43:29.828Z</time></trkpt><trkpt lat="42.664909" lon="13.5752741"><ele>792.0</ele><time>2026-05-01T07:43:30.83Z</time></trkpt><trkpt lat="42.6648342" lon="13.5751769"><ele>792.0</ele><time>2026-05-01T07:43:31.828Z</time></trkpt><trkpt lat="42.6647738" lon="13.5750836"><ele>792.0</ele><time>2026-05-01T07:43:32.829Z</time></trkpt><trkpt lat="42.6647317" lon="13.5749943"><ele>792.0</ele><time>2026-05-01T07:43:33.829Z</time></trkpt><trkpt lat="42.6647082" lon="13.5749099"><ele>792.0</ele><time>2026-05-01T07:43:34.829Z</time></trkpt><trkpt lat="42.6646922" lon="13.574817"><ele>792.0</ele><time>2026-05-01T07:43:35.828Z</time></trkpt><trkpt lat="42.6646933" lon="13.5747206"><ele>792.0</ele><time>2026-05-01T07:43:36.828Z</time></trkpt><trkpt lat="42.6647203" lon="13.5746234"><ele>792.0</ele><time>2026-05-01T07:43:37.829Z</time></trkpt><trkpt lat="42.6647569" lon="13.5745287"><ele>792.0</ele><time>2026-05-01T07:43:38.829Z</time></trkpt><trkpt lat="42.6648157" lon="13.5744238"><ele>792.0</ele><time>2026-05-01T07:43:39.83Z</time></trkpt><trkpt lat="42.6648685" lon="13.5743158"><ele>792.0</ele><time>2026-05-01T07:43:40.83Z</time></trkpt><trkpt lat="42.6649077" lon="13.574207"><ele>792.0</ele><time>2026-05-01T07:43:41.828Z</time></trkpt><trkpt lat="42.6649372" lon="13.574092"><ele>790.0</ele><time>2026-05-01T07:43:42.829Z</time></trkpt><trkpt lat="42.6649569" lon="13.573982"><ele>788.0</ele><time>2026-05-01T07:43:43.829Z</time></trkpt><trkpt lat="42.6649748" lon="13.5738638"><ele>786.0</ele><time>2026-05-01T07:43:44.829Z</time></trkpt><trkpt lat="42.6649884" lon="13.5737434"><ele>784.0</ele><time>2026-05-01T07:43:45.83Z</time></trkpt><trkpt lat="42.6650011" lon="13.57362"><ele>782.0</ele><time>2026-05-01T07:43:46.829Z</time></trkpt><trkpt lat="42.6650176" lon="13.5734895"><ele>781.6</ele><time>2026-05-01T07:43:47.829Z</time></trkpt><trkpt lat="42.6650308" lon="13.5733596"><ele>781.2</ele><time>2026-05-01T07:43:48.829Z</time></trkpt><trkpt lat="42.6650547" lon="13.5732278"><ele>780.8</ele><time>2026-05-01T07:43:49.83Z</time></trkpt><trkpt lat="42.6650709" lon="13.5730969"><ele>780.4</ele><time>2026-05-01T07:43:50.829Z</time></trkpt><trkpt lat="42.6650917" lon="13.5729676"><ele>780.0</ele><time>2026-05-01T07:43:51.828Z</time></trkpt><trkpt lat="42.6651154" lon="13.5728391"><ele>780.0</ele><time>2026-05-01T07:43:52.829Z</time></trkpt><trkpt lat="42.6651518" lon="13.5727319"><ele>780.0</ele><time>2026-05-01T07:43:53.83Z</time></trkpt><trkpt lat="42.6651986" lon="13.5726393"><ele>780.0</ele><time>2026-05-01T07:43:54.83Z</time></trkpt><trkpt lat="42.6652608" lon="13.5725594"><ele>780.0</ele><time>2026-05-01T07:43:55.828Z</time></trkpt><trkpt lat="42.665344" lon="13.5724996"><ele>780.0</ele><time>2026-05-01T07:43:56.828Z</time></trkpt><trkpt lat="42.6654239" lon="13.5724389"><ele>780.0</ele><time>2026-05-01T07:43:57.828Z</time></trkpt><trkpt lat="42.6654979" lon="13.5723802"><ele>777.5</ele><time>2026-05-01T07:43:58.829Z</time></trkpt><trkpt lat="42.665549" lon="13.5722914"><ele>775.0</ele><time>2026-05-01T07:43:59.829Z</time></trkpt><trkpt lat="42.6655862" lon="13.5722168"><ele>772.5</ele><time>2026-05-01T07:44:00.829Z</time></trkpt><trkpt lat="42.6656227" lon="13.5721218"><ele>770.0</ele><time>2026-05-01T07:44:01.829Z</time></trkpt><trkpt lat="42.6656632" lon="13.5720216"><ele>767.5</ele><time>2026-05-01T07:44:02.829Z</time></trkpt><trkpt lat="42.6657101" lon="13.5719171"><ele>765.0</ele><time>2026-05-01T07:44:03.828Z</time></trkpt><trkpt lat="42.665757" lon="13.57182"><ele>765.0</ele><time>2026-05-01T07:44:04.829Z</time></trkpt><trkpt lat="42.6658192" lon="13.5717399"><ele>765.0</ele><time>2026-05-01T07:44:05.828Z</time></trkpt><trkpt lat="42.6658881" lon="13.5716773"><ele>765.0</ele><time>2026-05-01T07:44:06.828Z</time></trkpt><trkpt lat="42.66597" lon="13.5716386"><ele>765.0</ele><time>2026-05-01T07:44:07.828Z</time></trkpt><trkpt lat="42.6660665" lon="13.5716255"><ele>765.0</ele><time>2026-05-01T07:44:08.829Z</time></trkpt><trkpt lat="42.6661713" lon="13.5716251"><ele>765.4</ele><time>2026-05-01T07:44:09.829Z</time></trkpt><trkpt lat="42.6662717" lon="13.5716511"><ele>765.8</ele><time>2026-05-01T07:44:10.828Z</time></trkpt><trkpt lat="42.6663654" lon="13.5716858"><ele>766.2</ele><time>2026-05-01T07:44:11.829Z</time></trkpt><trkpt lat="42.6664587" lon="13.571719"><ele>766.6</ele><time>2026-05-01T07:44:12.828Z</time></trkpt><trkpt lat="42.6665501" lon="13.5717737"><ele>767.0</ele><time>2026-05-01T07:44:13.829Z</time></trkpt><trkpt lat="42.6666458" lon="13.5718553"><ele>767.0</ele><time>2026-05-01T07:44:14.828Z</time></trkpt><trkpt lat="42.6667346" lon="13.5719523"><ele>767.0</ele><time>2026-05-01T07:44:15.83Z</time></trkpt><trkpt lat="42.6668164" lon="13.5720539"><ele>767.0</ele><time>2026-05-01T07:44:16.829Z</time></trkpt><trkpt lat="42.6668946" lon="13.5721586"><ele>767.0</ele><time>2026-05-01T07:44:17.829Z</time></trkpt><trkpt lat="42.6669506" lon="13.5722529"><ele>767.0</ele><time>2026-05-01T07:44:18.829Z</time></trkpt><trkpt lat="42.6670317" lon="13.5723309"><ele>764.2</ele><time>2026-05-01T07:44:19.828Z</time></trkpt><trkpt lat="42.6671195" lon="13.572393"><ele>761.4000000000001</ele><time>2026-05-01T07:44:20.829Z</time></trkpt><trkpt lat="42.6672205" lon="13.5724362"><ele>758.5999999999999</ele><time>2026-05-01T07:44:21.828Z</time></trkpt><trkpt lat="42.667322" lon="13.5724494"><ele>755.8</ele><time>2026-05-01T07:44:22.829Z</time></trkpt><trkpt lat="42.667417" lon="13.5724343"><ele>753.0</ele><time>2026-05-01T07:44:23.828Z</time></trkpt><trkpt lat="42.6675024" lon="13.5724021"><ele>753.0</ele><time>2026-05-01T07:44:24.828Z</time></trkpt><trkpt lat="42.6675807" lon="13.572345"><ele>753.0</ele><time>2026-05-01T07:44:25.829Z</time></trkpt><trkpt lat="42.66765" lon="13.572276"><ele>753.0</ele><time>2026-05-01T07:44:26.83Z</time></trkpt><trkpt lat="42.6677104" lon="13.5721942"><ele>753.0</ele><time>2026-05-01T07:44:27.829Z</time></trkpt><trkpt lat="42.6677503" lon="13.5720985"><ele>753.0</ele><time>2026-05-01T07:44:28.829Z</time></trkpt><trkpt lat="42.6677726" lon="13.571979"><ele>753.0</ele><time>2026-05-01T07:44:29.83Z</time></trkpt><trkpt lat="42.6677668" lon="13.5718425"><ele>753.2</ele><time>2026-05-01T07:44:30.83Z</time></trkpt><trkpt lat="42.6677537" lon="13.5716938"><ele>753.4</ele><time>2026-05-01T07:44:31.83Z</time></trkpt><trkpt lat="42.6677397" lon="13.5715521"><ele>753.6</ele><time>2026-05-01T07:44:32.829Z</time></trkpt><trkpt lat="42.6677168" lon="13.5714083"><ele>753.8000000000001</ele><time>2026-05-01T07:44:33.828Z</time></trkpt><trkpt lat="42.6676998" lon="13.5712742"><ele>754.0</ele><time>2026-05-01T07:44:34.829Z</time></trkpt><trkpt lat="42.6676915" lon="13.5711458"><ele>754.8000000000001</ele><time>2026-05-01T07:44:35.829Z</time></trkpt><trkpt lat="42.6676874" lon="13.5710179"><ele>755.6</ele><time>2026-05-01T07:44:36.83Z</time></trkpt><trkpt lat="42.6677003" lon="13.5708879"><ele>756.4</ele><time>2026-05-01T07:44:37.828Z</time></trkpt><trkpt lat="42.6677259" lon="13.5707655"><ele>757.2</ele><time>2026-05-01T07:44:38.829Z</time></trkpt><trkpt lat="42.6677569" lon="13.5706512"><ele>758.0</ele><time>2026-05-01T07:44:39.829Z</time></trkpt><trkpt lat="42.6677912" lon="13.5705282"><ele>750.8333333333333</ele><time>2026-05-01T07:44:40.828Z</time></trkpt><trkpt lat="42.6678165" lon="13.5704085"><ele>743.6666666666666</ele><time>2026-05-01T07:44:41.829Z</time></trkpt><trkpt lat="42.6678483" lon="13.5702886"><ele>736.5</ele><time>2026-05-01T07:44:42.83Z</time></trkpt><trkpt lat="42.6678603" lon="13.5701634"><ele>729.3333333333334</ele><time>2026-05-01T07:44:43.829Z</time></trkpt><trkpt lat="42.6678448" lon="13.5700607"><ele>722.1666666666667</ele><time>2026-05-01T07:44:44.829Z</time></trkpt><trkpt lat="42.6678325" lon="13.5699528"><ele>715.0</ele><time>2026-05-01T07:44:45.828Z</time></trkpt><trkpt lat="42.6678139" lon="13.5698582"><ele>715.0</ele><time>2026-05-01T07:44:46.83Z</time></trkpt><trkpt lat="42.6677964" lon="13.5697635"><ele>715.0</ele><time>2026-05-01T07:44:47.828Z</time></trkpt><trkpt lat="42.6677948" lon="13.5696729"><ele>715.0</ele><time>2026-05-01T07:44:48.829Z</time></trkpt><trkpt lat="42.6678271" lon="13.5695477"><ele>715.0</ele><time>2026-05-01T07:44:50.829Z</time></trkpt><trkpt lat="42.6679345" lon="13.5694835"><ele>715.0</ele><time>2026-05-01T07:44:52.83Z</time></trkpt><trkpt lat="42.6680233" lon="13.5694775"><ele>715.0</ele><time>2026-05-01T07:44:53.829Z</time></trkpt><trkpt lat="42.6681305" lon="13.5694871"><ele>717.25</ele><time>2026-05-01T07:44:54.829Z</time></trkpt><trkpt lat="42.6682518" lon="13.5694818"><ele>719.5</ele><time>2026-05-01T07:44:55.829Z</time></trkpt><trkpt lat="42.6683863" lon="13.5694587"><ele>721.75</ele><time>2026-05-01T07:44:56.83Z</time></trkpt><trkpt lat="42.6685184" lon="13.5694299"><ele>724.0</ele><time>2026-05-01T07:44:57.828Z</time></trkpt><trkpt lat="42.6686506" lon="13.5693983"><ele>724.0</ele><time>2026-05-01T07:44:58.828Z</time></trkpt><trkpt lat="42.6687743" lon="13.5693656"><ele>724.0</ele><time>2026-05-01T07:44:59.829Z</time></trkpt><trkpt lat="42.6688947" lon="13.5693351"><ele>724.0</ele><time>2026-05-01T07:45:00.828Z</time></trkpt><trkpt lat="42.6690269" lon="13.569303"><ele>724.0</ele><time>2026-05-01T07:45:01.828Z</time></trkpt><trkpt lat="42.6691573" lon="13.5692746"><ele>724.0</ele><time>2026-05-01T07:45:02.829Z</time></trkpt><trkpt lat="42.669275" lon="13.5692869"><ele>724.0</ele><time>2026-05-01T07:45:03.83Z</time></trkpt><trkpt lat="42.6694041" lon="13.5693023"><ele>724.0</ele><time>2026-05-01T07:45:04.829Z</time></trkpt><trkpt lat="42.6695238" lon="13.5693008"><ele>724.0</ele><time>2026-05-01T07:45:05.829Z</time></trkpt><trkpt lat="42.6696553" lon="13.5692893"><ele>719.25</ele><time>2026-05-01T07:45:06.828Z</time></trkpt><trkpt lat="42.669782" lon="13.5692762"><ele>714.5</ele><time>2026-05-01T07:45:07.83Z</time></trkpt><trkpt lat="42.6699175" lon="13.5692561"><ele>709.75</ele><time>2026-05-01T07:45:08.83Z</time></trkpt><trkpt lat="42.6700564" lon="13.5692241"><ele>705.0</ele><time>2026-05-01T07:45:09.829Z</time></trkpt><trkpt lat="42.6701923" lon="13.5691995"><ele>706.0</ele><time>2026-05-01T07:45:10.83Z</time></trkpt><trkpt lat="42.6703435" lon="13.5691562"><ele>707.0</ele><time>2026-05-01T07:45:11.83Z</time></trkpt><trkpt lat="42.6704842" lon="13.5691237"><ele>708.0</ele><time>2026-05-01T07:45:12.83Z</time></trkpt><trkpt lat="42.6706112" lon="13.5690932"><ele>709.0</ele><time>2026-05-01T07:45:13.83Z</time></trkpt><trkpt lat="42.6707253" lon="13.5690606"><ele>709.0</ele><time>2026-05-01T07:45:14.83Z</time></trkpt><trkpt lat="42.6708272" lon="13.5690384"><ele>709.0</ele><time>2026-05-01T07:45:15.829Z</time></trkpt><trkpt lat="42.6709197" lon="13.5690173"><ele>709.0</ele><time>2026-05-01T07:45:16.829Z</time></trkpt><trkpt lat="42.6709996" lon="13.5689886"><ele>709.0</ele><time>2026-05-01T07:45:17.83Z</time></trkpt><trkpt lat="42.6710749" lon="13.568934"><ele>709.0</ele><time>2026-05-01T07:45:18.83Z</time></trkpt><trkpt lat="42.6711155" lon="13.5688611"><ele>709.0</ele><time>2026-05-01T07:45:19.828Z</time></trkpt><trkpt lat="42.6711323" lon="13.5687741"><ele>708.8000000000001</ele><time>2026-05-01T07:45:20.829Z</time></trkpt><trkpt lat="42.6711308" lon="13.5686722"><ele>708.6</ele><time>2026-05-01T07:45:21.828Z</time></trkpt><trkpt lat="42.671112" lon="13.5685582"><ele>708.4</ele><time>2026-05-01T07:45:22.829Z</time></trkpt><trkpt lat="42.6710871" lon="13.5684248"><ele>708.2</ele><time>2026-05-01T07:45:23.829Z</time></trkpt><trkpt lat="42.6710707" lon="13.5682649"><ele>708.0</ele><time>2026-05-01T07:45:24.828Z</time></trkpt><trkpt lat="42.6710534" lon="13.5681013"><ele>708.0</ele><time>2026-05-01T07:45:25.829Z</time></trkpt><trkpt lat="42.6710369" lon="13.5679455"><ele>708.0</ele><time>2026-05-01T07:45:26.829Z</time></trkpt><trkpt lat="42.6710429" lon="13.567802"><ele>708.0</ele><time>2026-05-01T07:45:27.829Z</time></trkpt><trkpt lat="42.6710533" lon="13.5676803"><ele>708.0</ele><time>2026-05-01T07:45:28.828Z</time></trkpt><trkpt lat="42.671081" lon="13.5675675"><ele>708.0</ele><time>2026-05-01T07:45:29.829Z</time></trkpt><trkpt lat="42.6711318" lon="13.5674666"><ele>711.2</ele><time>2026-05-01T07:45:30.829Z</time></trkpt><trkpt lat="42.6712009" lon="13.5673669"><ele>714.4</ele><time>2026-05-01T07:45:31.828Z</time></trkpt><trkpt lat="42.6712871" lon="13.5672782"><ele>717.6</ele><time>2026-05-01T07:45:32.829Z</time></trkpt><trkpt lat="42.6713835" lon="13.5671954"><ele>720.8000000000001</ele><time>2026-05-01T07:45:33.828Z</time></trkpt><trkpt lat="42.6714633" lon="13.5671156"><ele>724.0</ele><time>2026-05-01T07:45:34.828Z</time></trkpt><trkpt lat="42.6715408" lon="13.567045"><ele>724.0</ele><time>2026-05-01T07:45:35.83Z</time></trkpt><trkpt lat="42.6716107" lon="13.566977"><ele>724.0</ele><time>2026-05-01T07:45:36.828Z</time></trkpt><trkpt lat="42.6716701" lon="13.5669334"><ele>724.0</ele><time>2026-05-01T07:45:37.829Z</time></trkpt><trkpt lat="42.6717329" lon="13.5669037"><ele>724.0</ele><time>2026-05-01T07:45:38.828Z</time></trkpt><trkpt lat="42.6718375" lon="13.5669596"><ele>724.0</ele><time>2026-05-01T07:45:40.828Z</time></trkpt><trkpt lat="42.6718682" lon="13.5670437"><ele>724.0</ele><time>2026-05-01T07:45:41.83Z</time></trkpt><trkpt lat="42.6718667" lon="13.5671509"><ele>724.0</ele><time>2026-05-01T07:45:42.829Z</time></trkpt><trkpt lat="42.671832" lon="13.5672774"><ele>724.0</ele><time>2026-05-01T07:45:43.829Z</time></trkpt><trkpt lat="42.6717767" lon="13.5674156"><ele>724.0</ele><time>2026-05-01T07:45:44.828Z</time></trkpt><trkpt lat="42.6717262" lon="13.5675521"><ele>724.0</ele><time>2026-05-01T07:45:45.829Z</time></trkpt><trkpt lat="42.6716851" lon="13.5676685"><ele>724.0</ele><time>2026-05-01T07:45:46.83Z</time></trkpt><trkpt lat="42.6716611" lon="13.5677834"><ele>724.3333333333334</ele><time>2026-05-01T07:45:47.829Z</time></trkpt><trkpt lat="42.6716594" lon="13.5679038"><ele>724.6666666666667</ele><time>2026-05-01T07:45:48.828Z</time></trkpt><trkpt lat="42.6716785" lon="13.5680219"><ele>725.0</ele><time>2026-05-01T07:45:49.829Z</time></trkpt><trkpt lat="42.6717146" lon="13.5681115"><ele>725.3333333333334</ele><time>2026-05-01T07:45:50.829Z</time></trkpt><trkpt lat="42.6717629" lon="13.5681758"><ele>725.6666666666666</ele><time>2026-05-01T07:45:51.828Z</time></trkpt><trkpt lat="42.671818" lon="13.5682218"><ele>726.0</ele><time>2026-05-01T07:45:52.829Z</time></trkpt><trkpt lat="42.671922" lon="13.5682222"><ele>728.6666666666666</ele><time>2026-05-01T07:45:54.829Z</time></trkpt><trkpt lat="42.6719803" lon="13.5681878"><ele>731.3333333333334</ele><time>2026-05-01T07:45:55.83Z</time></trkpt><trkpt lat="42.6720467" lon="13.5681266"><ele>734.0</ele><time>2026-05-01T07:45:56.83Z</time></trkpt><trkpt lat="42.6721155" lon="13.5680474"><ele>736.6666666666667</ele><time>2026-05-01T07:45:57.828Z</time></trkpt><trkpt lat="42.6721828" lon="13.5679621"><ele>739.3333333333334</ele><time>2026-05-01T07:45:58.829Z</time></trkpt><trkpt lat="42.672254" lon="13.5678704"><ele>742.0</ele><time>2026-05-01T07:45:59.83Z</time></trkpt><trkpt lat="42.672325" lon="13.5677664"><ele>742.0</ele><time>2026-05-01T07:46:00.83Z</time></trkpt><trkpt lat="42.6724005" lon="13.5676597"><ele>742.0</ele><time>2026-05-01T07:46:01.829Z</time></trkpt><trkpt lat="42.6724624" lon="13.5675483"><ele>742.0</ele><time>2026-05-01T07:46:02.829Z</time></trkpt><trkpt lat="42.6725041" lon="13.5674303"><ele>742.0</ele><time>2026-05-01T07:46:03.829Z</time></trkpt><trkpt lat="42.672534" lon="13.5673173"><ele>742.0</ele><time>2026-05-01T07:46:04.829Z</time></trkpt><trkpt lat="42.6725408" lon="13.5672306"><ele>742.0</ele><time>2026-05-01T07:46:05.829Z</time></trkpt><trkpt lat="42.6725602" lon="13.5671467"><ele>742.0</ele><time>2026-05-01T07:46:06.829Z</time></trkpt><trkpt lat="42.6726331" lon="13.5670314"><ele>742.0</ele><time>2026-05-01T07:46:08.83Z</time></trkpt><trkpt lat="42.6727269" lon="13.567055"><ele>742.0</ele><time>2026-05-01T07:46:10.83Z</time></trkpt><trkpt lat="42.6727927" lon="13.5671835"><ele>742.0</ele><time>2026-05-01T07:46:12.829Z</time></trkpt><trkpt lat="42.6727974" lon="13.567278"><ele>742.0</ele><time>2026-05-01T07:46:13.829Z</time></trkpt><trkpt lat="42.6727898" lon="13.5673867"><ele>742.0</ele><time>2026-05-01T07:46:14.83Z</time></trkpt><trkpt lat="42.6727756" lon="13.5674916"><ele>742.0</ele><time>2026-05-01T07:46:15.83Z</time></trkpt><trkpt lat="42.6727632" lon="13.5675789"><ele>742.0</ele><time>2026-05-01T07:46:16.83Z</time></trkpt><trkpt lat="42.6727536" lon="13.567667"><ele>742.0</ele><time>2026-05-01T07:46:17.828Z</time></trkpt><trkpt lat="42.672755" lon="13.567759"><ele>742.0</ele><time>2026-05-01T07:46:18.828Z</time></trkpt><trkpt lat="42.6728168" lon="13.5678927"><ele>747.4000000000001</ele><time>2026-05-01T07:46:20.829Z</time></trkpt><trkpt lat="42.6729283" lon="13.5678951"><ele>752.8000000000001</ele><time>2026-05-01T07:46:22.83Z</time></trkpt><trkpt lat="42.6729934" lon="13.567773"><ele>758.2</ele><time>2026-05-01T07:46:24.828Z</time></trkpt><trkpt lat="42.67302" lon="13.5676528"><ele>763.6</ele><time>2026-05-01T07:46:25.829Z</time></trkpt><trkpt lat="42.673033" lon="13.5675311"><ele>769.0</ele><time>2026-05-01T07:46:26.829Z</time></trkpt><trkpt lat="42.6730459" lon="13.5674215"><ele>769.6666666666666</ele><time>2026-05-01T07:46:27.829Z</time></trkpt><trkpt lat="42.6730851" lon="13.5672749"><ele>770.3333333333333</ele><time>2026-05-01T07:46:29.829Z</time></trkpt><trkpt lat="42.6731601" lon="13.5672469"><ele>771.0</ele><time>2026-05-01T07:46:31.829Z</time></trkpt><trkpt lat="42.6732114" lon="13.5673348"><ele>771.6666666666667</ele><time>2026-05-01T07:46:33.83Z</time></trkpt><trkpt lat="42.6732263" lon="13.5674301"><ele>772.3333333333334</ele><time>2026-05-01T07:46:34.83Z</time></trkpt><trkpt lat="42.6732236" lon="13.5675613"><ele>773.0</ele><time>2026-05-01T07:46:35.828Z</time></trkpt><trkpt lat="42.6732211" lon="13.5677151"><ele>772.0</ele><time>2026-05-01T07:46:36.83Z</time></trkpt><trkpt lat="42.673235" lon="13.5678699"><ele>771.0</ele><time>2026-05-01T07:46:37.83Z</time></trkpt><trkpt lat="42.6732553" lon="13.5680381"><ele>770.0</ele><time>2026-05-01T07:46:38.828Z</time></trkpt><trkpt lat="42.6732788" lon="13.5682251"><ele>769.0</ele><time>2026-05-01T07:46:39.829Z</time></trkpt><trkpt lat="42.6733009" lon="13.5684004"><ele>769.0</ele><time>2026-05-01T07:46:40.829Z</time></trkpt><trkpt lat="42.6733149" lon="13.5685678"><ele>769.0</ele><time>2026-05-01T07:46:41.829Z</time></trkpt><trkpt lat="42.6733203" lon="13.5687522"><ele>769.0</ele><time>2026-05-01T07:46:42.829Z</time></trkpt><trkpt lat="42.6733231" lon="13.568929"><ele>769.0</ele><time>2026-05-01T07:46:43.829Z</time></trkpt><trkpt lat="42.6733214" lon="13.5690818"><ele>769.6</ele><time>2026-05-01T07:46:44.83Z</time></trkpt><trkpt lat="42.6733163" lon="13.569222"><ele>770.2</ele><time>2026-05-01T07:46:45.829Z</time></trkpt><trkpt lat="42.673304" lon="13.5693502"><ele>770.8000000000001</ele><time>2026-05-01T07:46:46.829Z</time></trkpt><trkpt lat="42.6732777" lon="13.5694798"><ele>771.4000000000001</ele><time>2026-05-01T07:46:47.828Z</time></trkpt><trkpt lat="42.6732438" lon="13.5695998"><ele>772.0</ele><time>2026-05-01T07:46:48.829Z</time></trkpt><trkpt lat="42.6731906" lon="13.5697102"><ele>773.0</ele><time>2026-05-01T07:46:49.828Z</time></trkpt><trkpt lat="42.6731218" lon="13.5698164"><ele>774.0</ele><time>2026-05-01T07:46:50.827Z</time></trkpt><trkpt lat="42.6730524" lon="13.5699173"><ele>775.0</ele><time>2026-05-01T07:46:51.829Z</time></trkpt><trkpt lat="42.6729868" lon="13.5700446"><ele>776.0</ele><time>2026-05-01T07:46:52.829Z</time></trkpt><trkpt lat="42.6729321" lon="13.5701867"><ele>777.0</ele><time>2026-05-01T07:46:53.827Z</time></trkpt><trkpt lat="42.6728896" lon="13.5703322"><ele>778.6</ele><time>2026-05-01T07:46:54.828Z</time></trkpt><trkpt lat="42.6728564" lon="13.5704623"><ele>780.2</ele><time>2026-05-01T07:46:55.828Z</time></trkpt><trkpt lat="42.6728299" lon="13.5705828"><ele>781.8</ele><time>2026-05-01T07:46:56.828Z</time></trkpt><trkpt lat="42.6727944" lon="13.5707133"><ele>783.4</ele><time>2026-05-01T07:46:57.827Z</time></trkpt><trkpt lat="42.672761" lon="13.5708233"><ele>785.0</ele><time>2026-05-01T07:46:58.828Z</time></trkpt><trkpt lat="42.672719" lon="13.5709283"><ele>785.0</ele><time>2026-05-01T07:46:59.829Z</time></trkpt><trkpt lat="42.672667" lon="13.5710241"><ele>785.0</ele><time>2026-05-01T07:47:00.829Z</time></trkpt><trkpt lat="42.6726014" lon="13.5711006"><ele>785.0</ele><time>2026-05-01T07:47:01.827Z</time></trkpt><trkpt lat="42.6725218" lon="13.5711657"><ele>785.0</ele><time>2026-05-01T07:47:02.827Z</time></trkpt><trkpt lat="42.6724228" lon="13.5712362"><ele>785.0</ele><time>2026-05-01T07:47:03.828Z</time></trkpt><trkpt lat="42.6723481" lon="13.571294"><ele>786.5000000000001</ele><time>2026-05-01T07:47:04.828Z</time></trkpt><trkpt lat="42.6722918" lon="13.5713653"><ele>788.0</ele><time>2026-05-01T07:47:05.829Z</time></trkpt><trkpt lat="42.672259" lon="13.5714486"><ele>789.5</ele><time>2026-05-01T07:47:06.828Z</time></trkpt><trkpt lat="42.672246" lon="13.5715364"><ele>791.0</ele><time>2026-05-01T07:47:07.827Z</time></trkpt><trkpt lat="42.6722838" lon="13.5716908"><ele>792.5000000000001</ele><time>2026-05-01T07:47:09.828Z</time></trkpt><trkpt lat="42.6723278" lon="13.5717796"><ele>794.0</ele><time>2026-05-01T07:47:10.828Z</time></trkpt><trkpt lat="42.6723827" lon="13.5718561"><ele>794.0</ele><time>2026-05-01T07:47:11.829Z</time></trkpt><trkpt lat="42.6724443" lon="13.5719314"><ele>794.0</ele><time>2026-05-01T07:47:12.827Z</time></trkpt><trkpt lat="42.6725148" lon="13.5720001"><ele>794.0</ele><time>2026-05-01T07:47:13.828Z</time></trkpt><trkpt lat="42.6725992" lon="13.572063"><ele>794.0</ele><time>2026-05-01T07:47:14.828Z</time></trkpt><trkpt lat="42.6726825" lon="13.57211"><ele>794.0</ele><time>2026-05-01T07:47:15.828Z</time></trkpt><trkpt lat="42.6727734" lon="13.572151"><ele>798.2</ele><time>2026-05-01T07:47:16.828Z</time></trkpt><trkpt lat="42.6728727" lon="13.5721599"><ele>802.4000000000001</ele><time>2026-05-01T07:47:17.827Z</time></trkpt><trkpt lat="42.6729816" lon="13.5721535"><ele>806.6</ele><time>2026-05-01T07:47:18.827Z</time></trkpt><trkpt lat="42.6730947" lon="13.5721323"><ele>810.8</ele><time>2026-05-01T07:47:19.828Z</time></trkpt><trkpt lat="42.6732043" lon="13.5721073"><ele>815.0</ele><time>2026-05-01T07:47:20.827Z</time></trkpt><trkpt lat="42.6733126" lon="13.5720824"><ele>815.0</ele><time>2026-05-01T07:47:21.829Z</time></trkpt><trkpt lat="42.6734186" lon="13.572058"><ele>815.0</ele><time>2026-05-01T07:47:22.829Z</time></trkpt><trkpt lat="42.6735259" lon="13.5720371"><ele>815.0</ele><time>2026-05-01T07:47:23.828Z</time></trkpt><trkpt lat="42.6736347" lon="13.5720086"><ele>815.0</ele><time>2026-05-01T07:47:24.827Z</time></trkpt><trkpt lat="42.6737342" lon="13.5719797"><ele>815.0</ele><time>2026-05-01T07:47:25.829Z</time></trkpt><trkpt lat="42.673831" lon="13.5719586"><ele>814.4</ele><time>2026-05-01T07:47:26.829Z</time></trkpt><trkpt lat="42.6739232" lon="13.5719429"><ele>813.8</ele><time>2026-05-01T07:47:27.827Z</time></trkpt><trkpt lat="42.6740172" lon="13.5719339"><ele>813.2</ele><time>2026-05-01T07:47:28.827Z</time></trkpt><trkpt lat="42.674108" lon="13.5719351"><ele>812.6</ele><time>2026-05-01T07:47:29.828Z</time></trkpt><trkpt lat="42.6742014" lon="13.5719287"><ele>812.0</ele><time>2026-05-01T07:47:30.828Z</time></trkpt><trkpt lat="42.6742967" lon="13.5719094"><ele>812.0000000000001</ele><time>2026-05-01T07:47:31.827Z</time></trkpt><trkpt lat="42.674379" lon="13.5719083"><ele>812.0</ele><time>2026-05-01T07:47:32.827Z</time></trkpt><trkpt lat="42.67446" lon="13.5719326"><ele>812.0</ele><time>2026-05-01T07:47:33.828Z</time></trkpt><trkpt lat="42.6745404" lon="13.5719686"><ele>812.0</ele><time>2026-05-01T07:47:34.828Z</time></trkpt><trkpt lat="42.6746185" lon="13.5720158"><ele>812.0000000000001</ele><time>2026-05-01T07:47:35.827Z</time></trkpt><trkpt lat="42.6747004" lon="13.5720707"><ele>812.0</ele><time>2026-05-01T07:47:36.828Z</time></trkpt><trkpt lat="42.6747808" lon="13.5721346"><ele>815.1666666666667</ele><time>2026-05-01T07:47:37.828Z</time></trkpt><trkpt lat="42.6748529" lon="13.5722045"><ele>818.3333333333334</ele><time>2026-05-01T07:47:38.827Z</time></trkpt><trkpt lat="42.6749243" lon="13.5722665"><ele>821.5</ele><time>2026-05-01T07:47:39.829Z</time></trkpt><trkpt lat="42.6749855" lon="13.5723238"><ele>824.6666666666667</ele><time>2026-05-01T07:47:40.828Z</time></trkpt><trkpt lat="42.6750508" lon="13.5723654"><ele>827.8333333333334</ele><time>2026-05-01T07:47:41.828Z</time></trkpt><trkpt lat="42.6751221" lon="13.5723981"><ele>831.0</ele><time>2026-05-01T07:47:42.827Z</time></trkpt><trkpt lat="42.6751996" lon="13.5724089"><ele>833.4</ele><time>2026-05-01T07:47:43.828Z</time></trkpt><trkpt lat="42.6752851" lon="13.5724055"><ele>835.8</ele><time>2026-05-01T07:47:44.827Z</time></trkpt><trkpt lat="42.6753703" lon="13.572393"><ele>838.1999999999999</ele><time>2026-05-01T07:47:45.828Z</time></trkpt><trkpt lat="42.6754646" lon="13.5723713"><ele>840.5999999999999</ele><time>2026-05-01T07:47:46.829Z</time></trkpt><trkpt lat="42.6755628" lon="13.572345"><ele>843.0</ele><time>2026-05-01T07:47:47.828Z</time></trkpt><trkpt lat="42.6756626" lon="13.5723221"><ele>843.0</ele><time>2026-05-01T07:47:48.827Z</time></trkpt><trkpt lat="42.6757692" lon="13.5722999"><ele>843.0</ele><time>2026-05-01T07:47:49.829Z</time></trkpt><trkpt lat="42.675882" lon="13.5722743"><ele>843.0</ele><time>2026-05-01T07:47:50.829Z</time></trkpt><trkpt lat="42.6759892" lon="13.5722518"><ele>843.0</ele><time>2026-05-01T07:47:51.827Z</time></trkpt><trkpt lat="42.6760993" lon="13.572231"><ele>843.0</ele><time>2026-05-01T07:47:52.829Z</time></trkpt><trkpt lat="42.676211" lon="13.5722048"><ele>845.25</ele><time>2026-05-01T07:47:53.827Z</time></trkpt><trkpt lat="42.6763219" lon="13.5721823"><ele>847.5</ele><time>2026-05-01T07:47:54.828Z</time></trkpt><trkpt lat="42.676438" lon="13.5721557"><ele>849.75</ele><time>2026-05-01T07:47:55.827Z</time></trkpt><trkpt lat="42.6765571" lon="13.5721295"><ele>852.0</ele><time>2026-05-01T07:47:56.827Z</time></trkpt><trkpt lat="42.6766754" lon="13.5721092"><ele>852.0</ele><time>2026-05-01T07:47:57.828Z</time></trkpt><trkpt lat="42.6768053" lon="13.5720953"><ele>852.0</ele><time>2026-05-01T07:47:58.827Z</time></trkpt><trkpt lat="42.6769468" lon="13.5720816"><ele>852.0</ele><time>2026-05-01T07:47:59.828Z</time></trkpt><trkpt lat="42.6770903" lon="13.5720706"><ele>852.0</ele><time>2026-05-01T07:48:00.828Z</time></trkpt><trkpt lat="42.6772324" lon="13.5720577"><ele>851.75</ele><time>2026-05-01T07:48:01.827Z</time></trkpt><trkpt lat="42.6773576" lon="13.5720389"><ele>851.5</ele><time>2026-05-01T07:48:02.827Z</time></trkpt><trkpt lat="42.6774731" lon="13.5720157"><ele>851.25</ele><time>2026-05-01T07:48:03.829Z</time></trkpt><trkpt lat="42.6775833" lon="13.5719915"><ele>851.0</ele><time>2026-05-01T07:48:04.828Z</time></trkpt><trkpt lat="42.6776845" lon="13.5719575"><ele>853.0</ele><time>2026-05-01T07:48:05.827Z</time></trkpt><trkpt lat="42.6777762" lon="13.5719111"><ele>855.0</ele><time>2026-05-01T07:48:06.828Z</time></trkpt><trkpt lat="42.6778591" lon="13.571858"><ele>856.9999999999999</ele><time>2026-05-01T07:48:07.828Z</time></trkpt><trkpt lat="42.6779337" lon="13.571803"><ele>859.0</ele><time>2026-05-01T07:48:08.827Z</time></trkpt><trkpt lat="42.6779901" lon="13.5717568"><ele>861.0</ele><time>2026-05-01T07:48:09.828Z</time></trkpt><trkpt lat="42.6780847" lon="13.5716777"><ele>861.0</ele><time>2026-05-01T07:48:11.827Z</time></trkpt><trkpt lat="42.6781481" lon="13.5716216"><ele>861.0</ele><time>2026-05-01T07:48:13.828Z</time></trkpt><trkpt lat="42.6782156" lon="13.5715623"><ele>861.0</ele><time>2026-05-01T07:48:16.827Z</time></trkpt><trkpt lat="42.6782701" lon="13.5715031"><ele>861.0</ele><time>2026-05-01T07:51:07.827Z</time></trkpt><trkpt lat="42.6783397" lon="13.5715102"><ele>861.0</ele><time>2026-05-01T07:51:12.828Z</time></trkpt><trkpt lat="42.6782695" lon="13.57153"><ele>861.0</ele><time>2026-05-01T07:51:26.828Z</time></trkpt><trkpt lat="42.678206" lon="13.5715283"><ele>861.0</ele><time>2026-05-01T07:51:32.827Z</time></trkpt><trkpt lat="42.6781333" lon="13.5716253"><ele>861.0</ele><time>2026-05-01T07:56:01.827Z</time></trkpt><trkpt lat="42.6780535" lon="13.571719"><ele>860.9999999999999</ele><time>2026-05-01T07:56:03.826Z</time></trkpt><trkpt lat="42.6779754" lon="13.5717896"><ele>860.9999999999999</ele><time>2026-05-01T07:56:05.828Z</time></trkpt><trkpt lat="42.677892" lon="13.5718561"><ele>861.0</ele><time>2026-05-01T07:56:07.827Z</time></trkpt><trkpt lat="42.6777782" lon="13.5719281"><ele>861.0</ele><time>2026-05-01T07:56:09.827Z</time></trkpt><trkpt lat="42.6777186" lon="13.5719623"><ele>861.1999999999999</ele><time>2026-05-01T07:56:10.828Z</time></trkpt><trkpt lat="42.6775996" lon="13.5720082"><ele>861.3999999999999</ele><time>2026-05-01T07:56:12.826Z</time></trkpt><trkpt lat="42.6774851" lon="13.5720284"><ele>861.6</ele><time>2026-05-01T07:56:14.828Z</time></trkpt><trkpt lat="42.6773589" lon="13.5720418"><ele>861.8</ele><time>2026-05-01T07:56:16.826Z</time></trkpt><trkpt lat="42.677283" lon="13.5720552"><ele>862.0</ele><time>2026-05-01T07:56:17.827Z</time></trkpt><trkpt lat="42.6771972" lon="13.5720679"><ele>862.0</ele><time>2026-05-01T07:56:18.828Z</time></trkpt><trkpt lat="42.6771021" lon="13.5720801"><ele>862.0</ele><time>2026-05-01T07:56:19.827Z</time></trkpt><trkpt lat="42.6769973" lon="13.5720969"><ele>862.0</ele><time>2026-05-01T07:56:20.827Z</time></trkpt><trkpt lat="42.6768896" lon="13.5721097"><ele>862.0</ele><time>2026-05-01T07:56:21.828Z</time></trkpt><trkpt lat="42.6767799" lon="13.5721195"><ele>862.0</ele><time>2026-05-01T07:56:22.827Z</time></trkpt><trkpt lat="42.676666" lon="13.5721311"><ele>859.5</ele><time>2026-05-01T07:56:23.827Z</time></trkpt><trkpt lat="42.6765548" lon="13.5721477"><ele>857.0</ele><time>2026-05-01T07:56:24.826Z</time></trkpt><trkpt lat="42.676445" lon="13.5721657"><ele>854.5</ele><time>2026-05-01T07:56:25.828Z</time></trkpt><trkpt lat="42.6763272" lon="13.5721871"><ele>852.0</ele><time>2026-05-01T07:56:26.826Z</time></trkpt><trkpt lat="42.6762112" lon="13.5722111"><ele>850.2</ele><time>2026-05-01T07:56:27.826Z</time></trkpt><trkpt lat="42.6761" lon="13.5722369"><ele>848.4000000000001</ele><time>2026-05-01T07:56:28.827Z</time></trkpt><trkpt lat="42.6759883" lon="13.5722608"><ele>846.5999999999999</ele><time>2026-05-01T07:56:29.826Z</time></trkpt><trkpt lat="42.675885" lon="13.5722815"><ele>844.8</ele><time>2026-05-01T07:56:30.827Z</time></trkpt><trkpt lat="42.6757862" lon="13.5723074"><ele>843.0</ele><time>2026-05-01T07:56:31.827Z</time></trkpt><trkpt lat="42.6756983" lon="13.5723278"><ele>843.0</ele><time>2026-05-01T07:56:32.827Z</time></trkpt><trkpt lat="42.6756011" lon="13.5723463"><ele>843.0</ele><time>2026-05-01T07:56:33.827Z</time></trkpt><trkpt lat="42.675511" lon="13.5723679"><ele>843.0</ele><time>2026-05-01T07:56:34.827Z</time></trkpt><trkpt lat="42.6754305" lon="13.5723873"><ele>843.0</ele><time>2026-05-01T07:56:35.827Z</time></trkpt><trkpt lat="42.6753523" lon="13.5724026"><ele>843.0</ele><time>2026-05-01T07:56:36.826Z</time></trkpt><trkpt lat="42.6752792" lon="13.5724119"><ele>843.0</ele><time>2026-05-01T07:56:37.827Z</time></trkpt><trkpt lat="42.6752068" lon="13.5724099"><ele>841.2857142857142</ele><time>2026-05-01T07:56:38.827Z</time></trkpt><trkpt lat="42.6751375" lon="13.5724062"><ele>839.5714285714286</ele><time>2026-05-01T07:56:39.826Z</time></trkpt><trkpt lat="42.6750712" lon="13.5723848"><ele>837.8571428571429</ele><time>2026-05-01T07:56:40.826Z</time></trkpt><trkpt lat="42.6750039" lon="13.572349"><ele>836.1428571428571</ele><time>2026-05-01T07:56:41.827Z</time></trkpt><trkpt lat="42.6749409" lon="13.5722959"><ele>834.4285714285714</ele><time>2026-05-01T07:56:42.828Z</time></trkpt><trkpt lat="42.6748719" lon="13.5722329"><ele>832.7142857142857</ele><time>2026-05-01T07:56:43.828Z</time></trkpt><trkpt lat="42.6748026" lon="13.5721734"><ele>831.0</ele><time>2026-05-01T07:56:44.827Z</time></trkpt><trkpt lat="42.6747337" lon="13.5721179"><ele>830.9999999999999</ele><time>2026-05-01T07:56:45.827Z</time></trkpt><trkpt lat="42.6746645" lon="13.572069"><ele>831.0</ele><time>2026-05-01T07:56:46.828Z</time></trkpt><trkpt lat="42.6745964" lon="13.5720284"><ele>831.0</ele><time>2026-05-01T07:56:47.827Z</time></trkpt><trkpt lat="42.6745317" lon="13.5719845"><ele>831.0</ele><time>2026-05-01T07:56:48.828Z</time></trkpt><trkpt lat="42.6744691" lon="13.5719508"><ele>831.0</ele><time>2026-05-01T07:56:49.827Z</time></trkpt><trkpt lat="42.6744019" lon="13.5719301"><ele>830.9999999999999</ele><time>2026-05-01T07:56:50.826Z</time></trkpt><trkpt lat="42.6743291" lon="13.5719277"><ele>831.0</ele><time>2026-05-01T07:56:51.828Z</time></trkpt><trkpt lat="42.6742449" lon="13.5719362"><ele>827.1999999999999</ele><time>2026-05-01T07:56:52.827Z</time></trkpt><trkpt lat="42.67415" lon="13.5719432"><ele>823.4</ele><time>2026-05-01T07:56:53.826Z</time></trkpt><trkpt lat="42.6740479" lon="13.5719436"><ele>819.6</ele><time>2026-05-01T07:56:54.828Z</time></trkpt><trkpt lat="42.6739499" lon="13.5719428"><ele>815.8</ele><time>2026-05-01T07:56:55.827Z</time></trkpt><trkpt lat="42.6738489" lon="13.5719592"><ele>812.0</ele><time>2026-05-01T07:56:56.828Z</time></trkpt><trkpt lat="42.6737498" lon="13.5719749"><ele>812.0</ele><time>2026-05-01T07:56:57.826Z</time></trkpt><trkpt lat="42.6736471" lon="13.5719931"><ele>812.0</ele><time>2026-05-01T07:56:58.826Z</time></trkpt><trkpt lat="42.673545" lon="13.5720175"><ele>812.0</ele><time>2026-05-01T07:56:59.827Z</time></trkpt><trkpt lat="42.6734364" lon="13.5720372"><ele>812.0</ele><time>2026-05-01T07:57:00.827Z</time></trkpt><trkpt lat="42.6733337" lon="13.5720723"><ele>812.0</ele><time>2026-05-01T07:57:01.828Z</time></trkpt><trkpt lat="42.6732317" lon="13.5720959"><ele>812.5000000000001</ele><time>2026-05-01T07:57:02.826Z</time></trkpt><trkpt lat="42.6731385" lon="13.5721189"><ele>813.0</ele><time>2026-05-01T07:57:03.827Z</time></trkpt><trkpt lat="42.6730545" lon="13.5721402"><ele>813.5</ele><time>2026-05-01T07:57:04.826Z</time></trkpt><trkpt lat="42.6729717" lon="13.5721588"><ele>814.0</ele><time>2026-05-01T07:57:05.826Z</time></trkpt><trkpt lat="42.6728872" lon="13.5721607"><ele>814.5000000000001</ele><time>2026-05-01T07:57:06.826Z</time></trkpt><trkpt lat="42.6728023" lon="13.5721498"><ele>815.0</ele><time>2026-05-01T07:57:07.827Z</time></trkpt><trkpt lat="42.6727177" lon="13.5721249"><ele>812.5000000000001</ele><time>2026-05-01T07:57:08.826Z</time></trkpt><trkpt lat="42.6726402" lon="13.5720857"><ele>810.0</ele><time>2026-05-01T07:57:09.828Z</time></trkpt><trkpt lat="42.672558" lon="13.5720275"><ele>807.5</ele><time>2026-05-01T07:57:10.826Z</time></trkpt><trkpt lat="42.6724799" lon="13.5719537"><ele>805.0</ele><time>2026-05-01T07:57:11.827Z</time></trkpt><trkpt lat="42.6724137" lon="13.5718825"><ele>802.5000000000001</ele><time>2026-05-01T07:57:12.827Z</time></trkpt><trkpt lat="42.6723553" lon="13.5718126"><ele>800.0</ele><time>2026-05-01T07:57:13.828Z</time></trkpt><trkpt lat="42.6722821" lon="13.5716848"><ele>799.0000000000001</ele><time>2026-05-01T07:57:15.827Z</time></trkpt><trkpt lat="42.6722465" lon="13.5715571"><ele>798.0</ele><time>2026-05-01T07:57:17.828Z</time></trkpt><trkpt lat="42.6722726" lon="13.571413"><ele>797.0</ele><time>2026-05-01T07:57:19.827Z</time></trkpt><trkpt lat="42.6723152" lon="13.5713464"><ele>796.0</ele><time>2026-05-01T07:57:20.828Z</time></trkpt><trkpt lat="42.6723796" lon="13.5712908"><ele>795.0000000000001</ele><time>2026-05-01T07:57:21.826Z</time></trkpt><trkpt lat="42.6724486" lon="13.571244"><ele>794.0</ele><time>2026-05-01T07:57:22.826Z</time></trkpt><trkpt lat="42.6725188" lon="13.5711967"><ele>793.0000000000001</ele><time>2026-05-01T07:57:23.827Z</time></trkpt><trkpt lat="42.6725811" lon="13.5711364"><ele>792.0</ele><time>2026-05-01T07:57:24.827Z</time></trkpt><trkpt lat="42.6726392" lon="13.5710578"><ele>791.0</ele><time>2026-05-01T07:57:25.828Z</time></trkpt><trkpt lat="42.6726894" lon="13.5709637"><ele>790.0</ele><time>2026-05-01T07:57:26.827Z</time></trkpt><trkpt lat="42.6727279" lon="13.5708666"><ele>789.0000000000001</ele><time>2026-05-01T07:57:27.827Z</time></trkpt><trkpt lat="42.6727617" lon="13.5707602"><ele>788.0</ele><time>2026-05-01T07:57:28.827Z</time></trkpt><trkpt lat="42.6727914" lon="13.5706569"><ele>788.0000000000001</ele><time>2026-05-01T07:57:29.827Z</time></trkpt><trkpt lat="42.6728193" lon="13.5705517"><ele>788.0</ele><time>2026-05-01T07:57:30.828Z</time></trkpt><trkpt lat="42.6728466" lon="13.5704456"><ele>788.0</ele><time>2026-05-01T07:57:31.826Z</time></trkpt><trkpt lat="42.6728758" lon="13.5703341"><ele>788.0</ele><time>2026-05-01T07:57:32.828Z</time></trkpt><trkpt lat="42.6729029" lon="13.5702295"><ele>788.0000000000001</ele><time>2026-05-01T07:57:33.828Z</time></trkpt><trkpt lat="42.6729373" lon="13.5701293"><ele>788.0</ele><time>2026-05-01T07:57:34.826Z</time></trkpt><trkpt lat="42.6729798" lon="13.5700404"><ele>786.1666666666667</ele><time>2026-05-01T07:57:35.827Z</time></trkpt><trkpt lat="42.6730361" lon="13.5699532"><ele>784.3333333333334</ele><time>2026-05-01T07:57:36.827Z</time></trkpt><trkpt lat="42.6730961" lon="13.5698709"><ele>782.5</ele><time>2026-05-01T07:57:37.826Z</time></trkpt><trkpt lat="42.673153" lon="13.5697817"><ele>780.6666666666667</ele><time>2026-05-01T07:57:38.826Z</time></trkpt><trkpt lat="42.673205" lon="13.569683"><ele>778.8333333333334</ele><time>2026-05-01T07:57:39.826Z</time></trkpt><trkpt lat="42.6732435" lon="13.5695782"><ele>777.0</ele><time>2026-05-01T07:57:40.828Z</time></trkpt><trkpt lat="42.6732735" lon="13.5694713"><ele>776.0</ele><time>2026-05-01T07:57:41.827Z</time></trkpt><trkpt lat="42.6732949" lon="13.5693596"><ele>775.0</ele><time>2026-05-01T07:57:42.827Z</time></trkpt><trkpt lat="42.6733086" lon="13.5692436"><ele>774.0</ele><time>2026-05-01T07:57:43.826Z</time></trkpt><trkpt lat="42.6733172" lon="13.5691235"><ele>773.0</ele><time>2026-05-01T07:57:44.827Z</time></trkpt><trkpt lat="42.6733199" lon="13.5689928"><ele>772.0</ele><time>2026-05-01T07:57:45.827Z</time></trkpt><trkpt lat="42.6733214" lon="13.5688558"><ele>772.0</ele><time>2026-05-01T07:57:46.827Z</time></trkpt><trkpt lat="42.6733198" lon="13.5687109"><ele>772.0</ele><time>2026-05-01T07:57:47.827Z</time></trkpt><trkpt lat="42.6733132" lon="13.5685626"><ele>772.0</ele><time>2026-05-01T07:57:48.827Z</time></trkpt><trkpt lat="42.673295" lon="13.5684116"><ele>772.0</ele><time>2026-05-01T07:57:49.826Z</time></trkpt><trkpt lat="42.6732734" lon="13.5682507"><ele>772.0</ele><time>2026-05-01T07:57:50.826Z</time></trkpt><trkpt lat="42.6732534" lon="13.568079"><ele>772.2</ele><time>2026-05-01T07:57:51.827Z</time></trkpt><trkpt lat="42.6732386" lon="13.5679158"><ele>772.4000000000001</ele><time>2026-05-01T07:57:52.827Z</time></trkpt><trkpt lat="42.6732229" lon="13.5677511"><ele>772.5999999999999</ele><time>2026-05-01T07:57:53.826Z</time></trkpt><trkpt lat="42.6732205" lon="13.5676268"><ele>772.8</ele><time>2026-05-01T07:57:54.826Z</time></trkpt><trkpt lat="42.6732218" lon="13.567512"><ele>773.0</ele><time>2026-05-01T07:57:55.826Z</time></trkpt><trkpt lat="42.6732263" lon="13.567421"><ele>773.0000000000001</ele><time>2026-05-01T07:57:56.828Z</time></trkpt><trkpt lat="42.6732022" lon="13.5672942"><ele>773.0</ele><time>2026-05-01T07:57:58.827Z</time></trkpt><trkpt lat="42.6731236" lon="13.5672562"><ele>773.0</ele><time>2026-05-01T07:58:00.827Z</time></trkpt><trkpt lat="42.6730526" lon="13.5673243"><ele>773.0</ele><time>2026-05-01T07:58:02.826Z</time></trkpt><trkpt lat="42.6730403" lon="13.5674283"><ele>773.0000000000001</ele><time>2026-05-01T07:58:03.827Z</time></trkpt><trkpt lat="42.6730363" lon="13.5675357"><ele>773.0</ele><time>2026-05-01T07:58:04.827Z</time></trkpt><trkpt lat="42.6730285" lon="13.5676349"><ele>773.0</ele><time>2026-05-01T07:58:05.826Z</time></trkpt><trkpt lat="42.6730106" lon="13.567722"><ele>773.0</ele><time>2026-05-01T07:58:06.827Z</time></trkpt><trkpt lat="42.6729661" lon="13.5678616"><ele>773.0</ele><time>2026-05-01T07:58:08.827Z</time></trkpt><trkpt lat="42.6728781" lon="13.5679141"><ele>773.0</ele><time>2026-05-01T07:58:10.827Z</time></trkpt><trkpt lat="42.6727916" lon="13.5678427"><ele>773.0</ele><time>2026-05-01T07:58:12.828Z</time></trkpt><trkpt lat="42.6727864" lon="13.5676715"><ele>773.0000000000001</ele><time>2026-05-01T07:58:14.827Z</time></trkpt><trkpt lat="42.672805" lon="13.5675579"><ele>773.0</ele><time>2026-05-01T07:58:15.827Z</time></trkpt><trkpt lat="42.6728117" lon="13.5674401"><ele>773.0</ele><time>2026-05-01T07:58:16.827Z</time></trkpt><trkpt lat="42.6728223" lon="13.5673248"><ele>773.0</ele><time>2026-05-01T07:58:17.827Z</time></trkpt><trkpt lat="42.6728237" lon="13.5672199"><ele>773.0000000000001</ele><time>2026-05-01T07:58:18.827Z</time></trkpt><trkpt lat="42.6728087" lon="13.5671348"><ele>773.0</ele><time>2026-05-01T07:58:19.826Z</time></trkpt><trkpt lat="42.6727362" lon="13.5670244"><ele>766.8</ele><time>2026-05-01T07:58:21.826Z</time></trkpt><trkpt lat="42.6726395" lon="13.5670389"><ele>760.5999999999999</ele><time>2026-05-01T07:58:23.827Z</time></trkpt><trkpt lat="42.6725767" lon="13.5672179"><ele>754.4000000000001</ele><time>2026-05-01T07:58:25.827Z</time></trkpt><trkpt lat="42.6725515" lon="13.5673453"><ele>748.2</ele><time>2026-05-01T07:58:26.828Z</time></trkpt><trkpt lat="42.6725059" lon="13.5674642"><ele>742.0</ele><time>2026-05-01T07:58:27.827Z</time></trkpt><trkpt lat="42.6724504" lon="13.5675828"><ele>742.0</ele><time>2026-05-01T07:58:28.828Z</time></trkpt><trkpt lat="42.6723867" lon="13.5676861"><ele>742.0</ele><time>2026-05-01T07:58:29.827Z</time></trkpt><trkpt lat="42.6723263" lon="13.5677755"><ele>742.0</ele><time>2026-05-01T07:58:30.826Z</time></trkpt><trkpt lat="42.6722673" lon="13.5678607"><ele>742.0</ele><time>2026-05-01T07:58:31.828Z</time></trkpt><trkpt lat="42.6722092" lon="13.5679515"><ele>742.0</ele><time>2026-05-01T07:58:32.827Z</time></trkpt><trkpt lat="42.6721476" lon="13.5680401"><ele>742.8333333333334</ele><time>2026-05-01T07:58:33.826Z</time></trkpt><trkpt lat="42.6720926" lon="13.5681065"><ele>743.6666666666667</ele><time>2026-05-01T07:58:34.826Z</time></trkpt><trkpt lat="42.6720434" lon="13.5681653"><ele>744.5</ele><time>2026-05-01T07:58:35.825Z</time></trkpt><trkpt lat="42.6719856" lon="13.5682112"><ele>745.3333333333334</ele><time>2026-05-01T07:58:36.825Z</time></trkpt><trkpt lat="42.6719236" lon="13.5682366"><ele>746.1666666666666</ele><time>2026-05-01T07:58:37.826Z</time></trkpt><trkpt lat="42.6718075" lon="13.5682022"><ele>747.0</ele><time>2026-05-01T07:58:39.825Z</time></trkpt><trkpt lat="42.671752" lon="13.5681406"><ele>743.5</ele><time>2026-05-01T07:58:40.825Z</time></trkpt><trkpt lat="42.6717105" lon="13.5680645"><ele>740.0</ele><time>2026-05-01T07:58:41.825Z</time></trkpt><trkpt lat="42.6716848" lon="13.5679797"><ele>736.5</ele><time>2026-05-01T07:58:42.826Z</time></trkpt><trkpt lat="42.6716794" lon="13.5678767"><ele>733.0</ele><time>2026-05-01T07:58:43.825Z</time></trkpt><trkpt lat="42.6716943" lon="13.5677506"><ele>729.5</ele><time>2026-05-01T07:58:44.825Z</time></trkpt><trkpt lat="42.6717388" lon="13.5676061"><ele>726.0</ele><time>2026-05-01T07:58:45.826Z</time></trkpt><trkpt lat="42.671783" lon="13.5674775"><ele>726.0</ele><time>2026-05-01T07:58:46.826Z</time></trkpt><trkpt lat="42.6718253" lon="13.5673657"><ele>726.0</ele><time>2026-05-01T07:58:47.826Z</time></trkpt><trkpt lat="42.6718598" lon="13.5672612"><ele>726.0</ele><time>2026-05-01T07:58:48.825Z</time></trkpt><trkpt lat="42.6718885" lon="13.5671628"><ele>726.0</ele><time>2026-05-01T07:58:49.827Z</time></trkpt><trkpt lat="42.6718941" lon="13.5670694"><ele>726.0</ele><time>2026-05-01T07:58:50.827Z</time></trkpt><trkpt lat="42.6718406" lon="13.5669347"><ele>726.0</ele><time>2026-05-01T07:58:52.827Z</time></trkpt><trkpt lat="42.6717299" lon="13.5669169"><ele>726.0</ele><time>2026-05-01T07:58:54.826Z</time></trkpt><trkpt lat="42.6716578" lon="13.5669622"><ele>726.0</ele><time>2026-05-01T07:58:55.826Z</time></trkpt><trkpt lat="42.67158" lon="13.5670388"><ele>726.0</ele><time>2026-05-01T07:58:56.825Z</time></trkpt><trkpt lat="42.6714961" lon="13.5671233"><ele>726.0</ele><time>2026-05-01T07:58:57.826Z</time></trkpt><trkpt lat="42.671406" lon="13.5671881"><ele>726.0</ele><time>2026-05-01T07:58:58.826Z</time></trkpt><trkpt lat="42.6713172" lon="13.5672542"><ele>725.5999999999999</ele><time>2026-05-01T07:58:59.825Z</time></trkpt><trkpt lat="42.6712374" lon="13.5673253"><ele>725.2</ele><time>2026-05-01T07:59:00.826Z</time></trkpt><trkpt lat="42.671171" lon="13.5673983"><ele>724.8</ele><time>2026-05-01T07:59:01.826Z</time></trkpt><trkpt lat="42.6711206" lon="13.567493"><ele>724.4000000000001</ele><time>2026-05-01T07:59:02.826Z</time></trkpt><trkpt lat="42.671082" lon="13.5676084"><ele>724.0</ele><time>2026-05-01T07:59:03.825Z</time></trkpt><trkpt lat="42.6710621" lon="13.5677431"><ele>720.8000000000001</ele><time>2026-05-01T07:59:04.826Z</time></trkpt><trkpt lat="42.6710554" lon="13.567878"><ele>717.6</ele><time>2026-05-01T07:59:05.825Z</time></trkpt><trkpt lat="42.6710576" lon="13.56801"><ele>714.4</ele><time>2026-05-01T07:59:06.826Z</time></trkpt><trkpt lat="42.6710643" lon="13.5681404"><ele>711.2</ele><time>2026-05-01T07:59:07.826Z</time></trkpt><trkpt lat="42.6710729" lon="13.5682698"><ele>708.0</ele><time>2026-05-01T07:59:08.826Z</time></trkpt><trkpt lat="42.6710905" lon="13.5684006"><ele>708.1428571428572</ele><time>2026-05-01T07:59:09.826Z</time></trkpt><trkpt lat="42.6711178" lon="13.5685052"><ele>708.2857142857142</ele><time>2026-05-01T07:59:10.825Z</time></trkpt><trkpt lat="42.6711373" lon="13.5686099"><ele>708.4285714285714</ele><time>2026-05-01T07:59:11.826Z</time></trkpt><trkpt lat="42.6711615" lon="13.5686977"><ele>708.5714285714287</ele><time>2026-05-01T07:59:12.825Z</time></trkpt><trkpt lat="42.6711557" lon="13.5687939"><ele>708.7142857142858</ele><time>2026-05-01T07:59:13.825Z</time></trkpt><trkpt lat="42.6711272" lon="13.5688712"><ele>708.8571428571429</ele><time>2026-05-01T07:59:14.826Z</time></trkpt><trkpt lat="42.6710711" lon="13.5689338"><ele>709.0</ele><time>2026-05-01T07:59:15.827Z</time></trkpt><trkpt lat="42.6709947" lon="13.5689863"><ele>709.0</ele><time>2026-05-01T07:59:16.827Z</time></trkpt><trkpt lat="42.6708967" lon="13.5690194"><ele>709.0</ele><time>2026-05-01T07:59:17.827Z</time></trkpt><trkpt lat="42.6707885" lon="13.569047"><ele>709.0</ele><time>2026-05-01T07:59:18.826Z</time></trkpt><trkpt lat="42.6706759" lon="13.5690742"><ele>709.0</ele><time>2026-05-01T07:59:19.827Z</time></trkpt><trkpt lat="42.6705666" lon="13.5690963"><ele>709.0</ele><time>2026-05-01T07:59:20.827Z</time></trkpt><trkpt lat="42.6704548" lon="13.5691256"><ele>709.0</ele><time>2026-05-01T07:59:21.827Z</time></trkpt><trkpt lat="42.6703467" lon="13.5691585"><ele>709.0</ele><time>2026-05-01T07:59:22.826Z</time></trkpt><trkpt lat="42.6702353" lon="13.5691871"><ele>709.0</ele><time>2026-05-01T07:59:23.826Z</time></trkpt><trkpt lat="42.6701306" lon="13.5692143"><ele>709.0</ele><time>2026-05-01T07:59:24.826Z</time></trkpt><trkpt lat="42.6700244" lon="13.5692339"><ele>709.0</ele><time>2026-05-01T07:59:25.825Z</time></trkpt><trkpt lat="42.6699202" lon="13.5692553"><ele>708.0</ele><time>2026-05-01T07:59:26.827Z</time></trkpt><trkpt lat="42.6698131" lon="13.5692695"><ele>707.0</ele><time>2026-05-01T07:59:27.827Z</time></trkpt><trkpt lat="42.6697018" lon="13.5692779"><ele>706.0</ele><time>2026-05-01T07:59:28.825Z</time></trkpt><trkpt lat="42.6695809" lon="13.5692779"><ele>705.0</ele><time>2026-05-01T07:59:29.826Z</time></trkpt><trkpt lat="42.6694515" lon="13.5692655"><ele>709.75</ele><time>2026-05-01T07:59:30.826Z</time></trkpt><trkpt lat="42.6693181" lon="13.569257"><ele>714.5</ele><time>2026-05-01T07:59:31.825Z</time></trkpt><trkpt lat="42.6691856" lon="13.5692694"><ele>719.25</ele><time>2026-05-01T07:59:32.825Z</time></trkpt><trkpt lat="42.6690333" lon="13.5692911"><ele>724.0</ele><time>2026-05-01T07:59:33.826Z</time></trkpt><trkpt lat="42.6688969" lon="13.5693161"><ele>724.0</ele><time>2026-05-01T07:59:34.825Z</time></trkpt><trkpt lat="42.6687587" lon="13.5693532"><ele>724.0</ele><time>2026-05-01T07:59:35.826Z</time></trkpt><trkpt lat="42.6686169" lon="13.5693891"><ele>724.0</ele><time>2026-05-01T07:59:36.826Z</time></trkpt><trkpt lat="42.6684858" lon="13.5694302"><ele>724.0</ele><time>2026-05-01T07:59:37.826Z</time></trkpt><trkpt lat="42.6683462" lon="13.5694442"><ele>722.5</ele><time>2026-05-01T07:59:38.825Z</time></trkpt><trkpt lat="42.6682179" lon="13.5694387"><ele>721.0</ele><time>2026-05-01T07:59:39.826Z</time></trkpt><trkpt lat="42.6681177" lon="13.5694444"><ele>719.5</ele><time>2026-05-01T07:59:40.826Z</time></trkpt><trkpt lat="42.6680322" lon="13.5694361"><ele>718.0</ele><time>2026-05-01T07:59:41.825Z</time></trkpt><trkpt lat="42.6679661" lon="13.56943"><ele>716.5</ele><time>2026-05-01T07:59:42.827Z</time></trkpt><trkpt lat="42.6679037" lon="13.5694447"><ele>715.0</ele><time>2026-05-01T07:59:43.826Z</time></trkpt><trkpt lat="42.6678222" lon="13.569557"><ele>715.0</ele><time>2026-05-01T07:59:45.825Z</time></trkpt><trkpt lat="42.6678064" lon="13.5696498"><ele>715.0</ele><time>2026-05-01T07:59:46.826Z</time></trkpt><trkpt lat="42.6678076" lon="13.5697688"><ele>715.0</ele><time>2026-05-01T07:59:47.825Z</time></trkpt><trkpt lat="42.6678197" lon="13.5699066"><ele>715.0</ele><time>2026-05-01T07:59:48.826Z</time></trkpt><trkpt lat="42.6678385" lon="13.5700368"><ele>715.0</ele><time>2026-05-01T07:59:49.827Z</time></trkpt><trkpt lat="42.6678384" lon="13.570173"><ele>715.0</ele><time>2026-05-01T07:59:50.826Z</time></trkpt><trkpt lat="42.6678346" lon="13.5703089"><ele>715.0</ele><time>2026-05-01T07:59:51.827Z</time></trkpt><trkpt lat="42.6678153" lon="13.5704499"><ele>715.0</ele><time>2026-05-01T07:59:52.825Z</time></trkpt><trkpt lat="42.6677629" lon="13.5705894"><ele>715.0</ele><time>2026-05-01T07:59:53.827Z</time></trkpt><trkpt lat="42.6677229" lon="13.5707281"><ele>715.0</ele><time>2026-05-01T07:59:54.825Z</time></trkpt><trkpt lat="42.6676972" lon="13.5708602"><ele>722.8</ele><time>2026-05-01T07:59:55.826Z</time></trkpt><trkpt lat="42.6676794" lon="13.5709919"><ele>730.6</ele><time>2026-05-01T07:59:56.826Z</time></trkpt><trkpt lat="42.6676858" lon="13.5711238"><ele>738.4000000000001</ele><time>2026-05-01T07:59:57.826Z</time></trkpt><trkpt lat="42.6677013" lon="13.571273"><ele>746.2</ele><time>2026-05-01T07:59:58.825Z</time></trkpt><trkpt lat="42.6677262" lon="13.5714282"><ele>754.0</ele><time>2026-05-01T07:59:59.826Z</time></trkpt><trkpt lat="42.6677487" lon="13.5715897"><ele>754.0</ele><time>2026-05-01T08:00:00.826Z</time></trkpt><trkpt lat="42.6677716" lon="13.5717529"><ele>754.0</ele><time>2026-05-01T08:00:01.825Z</time></trkpt><trkpt lat="42.6677779" lon="13.5718997"><ele>754.0</ele><time>2026-05-01T08:00:02.826Z</time></trkpt><trkpt lat="42.6677608" lon="13.5720362"><ele>754.0</ele><time>2026-05-01T08:00:03.827Z</time></trkpt><trkpt lat="42.667721" lon="13.5721561"><ele>754.0</ele><time>2026-05-01T08:00:04.827Z</time></trkpt><trkpt lat="42.6676594" lon="13.5722482"><ele>753.8000000000001</ele><time>2026-05-01T08:00:05.826Z</time></trkpt><trkpt lat="42.6675885" lon="13.5723238"><ele>753.6</ele><time>2026-05-01T08:00:06.827Z</time></trkpt><trkpt lat="42.667508" lon="13.5723907"><ele>753.4</ele><time>2026-05-01T08:00:07.826Z</time></trkpt><trkpt lat="42.6674076" lon="13.5724287"><ele>753.2</ele><time>2026-05-01T08:00:08.826Z</time></trkpt><trkpt lat="42.6673112" lon="13.5724425"><ele>753.0</ele><time>2026-05-01T08:00:09.826Z</time></trkpt><trkpt lat="42.6672166" lon="13.5724199"><ele>753.0</ele><time>2026-05-01T08:00:10.826Z</time></trkpt><trkpt lat="42.6671154" lon="13.5723656"><ele>753.0</ele><time>2026-05-01T08:00:11.826Z</time></trkpt><trkpt lat="42.667005" lon="13.5723107"><ele>753.0</ele><time>2026-05-01T08:00:12.825Z</time></trkpt><trkpt lat="42.6669334" lon="13.5722041"><ele>753.0</ele><time>2026-05-01T08:00:13.825Z</time></trkpt><trkpt lat="42.6668345" lon="13.5720986"><ele>756.5</ele><time>2026-05-01T08:00:14.825Z</time></trkpt><trkpt lat="42.6667528" lon="13.5719608"><ele>760.0</ele><time>2026-05-01T08:00:15.825Z</time></trkpt><trkpt lat="42.6666621" lon="13.5718701"><ele>763.5</ele><time>2026-05-01T08:00:16.825Z</time></trkpt><trkpt lat="42.666571" lon="13.571791"><ele>767.0</ele><time>2026-05-01T08:00:17.825Z</time></trkpt><trkpt lat="42.6664618" lon="13.5717341"><ele>767.0</ele><time>2026-05-01T08:00:18.825Z</time></trkpt><trkpt lat="42.6663587" lon="13.57168"><ele>767.0</ele><time>2026-05-01T08:00:19.826Z</time></trkpt><trkpt lat="42.6662522" lon="13.5716398"><ele>767.0</ele><time>2026-05-01T08:00:20.826Z</time></trkpt><trkpt lat="42.6661503" lon="13.5716078"><ele>767.0</ele><time>2026-05-01T08:00:21.827Z</time></trkpt><trkpt lat="42.6660564" lon="13.571594"><ele>767.0</ele><time>2026-05-01T08:00:22.827Z</time></trkpt><trkpt lat="42.6659693" lon="13.5716144"><ele>766.6</ele><time>2026-05-01T08:00:23.826Z</time></trkpt><trkpt lat="42.6658903" lon="13.5716662"><ele>766.2</ele><time>2026-05-01T08:00:24.826Z</time></trkpt><trkpt lat="42.6658127" lon="13.5717194"><ele>765.8</ele><time>2026-05-01T08:00:25.826Z</time></trkpt><trkpt lat="42.6657519" lon="13.5718094"><ele>765.4</ele><time>2026-05-01T08:00:26.825Z</time></trkpt><trkpt lat="42.6656792" lon="13.5718923"><ele>765.0</ele><time>2026-05-01T08:00:27.825Z</time></trkpt><trkpt lat="42.6656668" lon="13.572074"><ele>764.4</ele><time>2026-05-01T08:00:28.827Z</time></trkpt><trkpt lat="42.6656165" lon="13.5721715"><ele>763.8</ele><time>2026-05-01T08:00:29.827Z</time></trkpt><trkpt lat="42.6655723" lon="13.5722822"><ele>763.2</ele><time>2026-05-01T08:00:30.827Z</time></trkpt><trkpt lat="42.6655224" lon="13.5723921"><ele>762.6</ele><time>2026-05-01T08:00:31.827Z</time></trkpt><trkpt lat="42.6654198" lon="13.572468"><ele>762.0</ele><time>2026-05-01T08:00:32.826Z</time></trkpt><trkpt lat="42.6653156" lon="13.5725273"><ele>764.8</ele><time>2026-05-01T08:00:33.827Z</time></trkpt><trkpt lat="42.6652414" lon="13.5726009"><ele>767.6</ele><time>2026-05-01T08:00:34.825Z</time></trkpt><trkpt lat="42.6651797" lon="13.5727167"><ele>770.4</ele><time>2026-05-01T08:00:35.825Z</time></trkpt><trkpt lat="42.6651394" lon="13.5728301"><ele>773.1999999999999</ele><time>2026-05-01T08:00:36.826Z</time></trkpt><trkpt lat="42.6651045" lon="13.5729715"><ele>776.0</ele><time>2026-05-01T08:00:37.826Z</time></trkpt><trkpt lat="42.665085" lon="13.5731144"><ele>776.0</ele><time>2026-05-01T08:00:38.826Z</time></trkpt><trkpt lat="42.6650652" lon="13.5732667"><ele>776.0</ele><time>2026-05-01T08:00:39.825Z</time></trkpt><trkpt lat="42.665053" lon="13.5734611"><ele>776.0</ele><time>2026-05-01T08:00:40.826Z</time></trkpt><trkpt lat="42.6650309" lon="13.5736315"><ele>776.0</ele><time>2026-05-01T08:00:41.826Z</time></trkpt><trkpt lat="42.6650112" lon="13.5737908"><ele>777.1999999999999</ele><time>2026-05-01T08:00:42.826Z</time></trkpt><trkpt lat="42.6649922" lon="13.5739491"><ele>778.4</ele><time>2026-05-01T08:00:43.827Z</time></trkpt><trkpt lat="42.6649597" lon="13.5740935"><ele>779.6</ele><time>2026-05-01T08:00:44.825Z</time></trkpt><trkpt lat="42.664925" lon="13.5742277"><ele>780.8</ele><time>2026-05-01T08:00:45.825Z</time></trkpt><trkpt lat="42.6648807" lon="13.5743334"><ele>782.0</ele><time>2026-05-01T08:00:46.825Z</time></trkpt><trkpt lat="42.6648164" lon="13.5744376"><ele>783.6666666666667</ele><time>2026-05-01T08:00:47.826Z</time></trkpt><trkpt lat="42.6647642" lon="13.5745408"><ele>785.3333333333334</ele><time>2026-05-01T08:00:48.826Z</time></trkpt><trkpt lat="42.6647218" lon="13.5746377"><ele>787.0</ele><time>2026-05-01T08:00:49.827Z</time></trkpt><trkpt lat="42.664688" lon="13.574737"><ele>788.6666666666667</ele><time>2026-05-01T08:00:50.827Z</time></trkpt><trkpt lat="42.6647017" lon="13.5748427"><ele>790.3333333333334</ele><time>2026-05-01T08:00:51.826Z</time></trkpt><trkpt lat="42.6647133" lon="13.5749369"><ele>792.0</ele><time>2026-05-01T08:00:52.825Z</time></trkpt><trkpt lat="42.6647436" lon="13.5750479"><ele>792.0</ele><time>2026-05-01T08:00:53.825Z</time></trkpt><trkpt lat="42.6648095" lon="13.5751682"><ele>792.0</ele><time>2026-05-01T08:00:54.825Z</time></trkpt><trkpt lat="42.6648808" lon="13.5753502"><ele>792.0</ele><time>2026-05-01T08:00:55.826Z</time></trkpt><trkpt lat="42.6649958" lon="13.5753931"><ele>792.0</ele><time>2026-05-01T08:00:56.826Z</time></trkpt><trkpt lat="42.6650624" lon="13.5754573"><ele>792.0</ele><time>2026-05-01T08:00:57.825Z</time></trkpt><trkpt lat="42.6651431" lon="13.5755245"><ele>792.0</ele><time>2026-05-01T08:00:58.825Z</time></trkpt><trkpt lat="42.6652071" lon="13.5755864"><ele>792.0</ele><time>2026-05-01T08:00:59.826Z</time></trkpt><trkpt lat="42.6652623" lon="13.5756588"><ele>792.0</ele><time>2026-05-01T08:01:00.826Z</time></trkpt><trkpt lat="42.6653112" lon="13.5757609"><ele>792.0</ele><time>2026-05-01T08:01:01.825Z</time></trkpt><trkpt lat="42.6653585" lon="13.5758843"><ele>792.0</ele><time>2026-05-01T08:01:02.826Z</time></trkpt><trkpt lat="42.6654018" lon="13.5760127"><ele>792.0</ele><time>2026-05-01T08:01:03.825Z</time></trkpt><trkpt lat="42.6654551" lon="13.5761581"><ele>792.0</ele><time>2026-05-01T08:01:04.827Z</time></trkpt><trkpt lat="42.6654864" lon="13.5762651"><ele>792.0</ele><time>2026-05-01T08:01:05.825Z</time></trkpt><trkpt lat="42.6655024" lon="13.5763612"><ele>792.0</ele><time>2026-05-01T08:01:06.826Z</time></trkpt><trkpt lat="42.6655059" lon="13.5764727"><ele>792.0</ele><time>2026-05-01T08:01:07.827Z</time></trkpt><trkpt lat="42.6654995" lon="13.5765896"><ele>792.0</ele><time>2026-05-01T08:01:08.827Z</time></trkpt><trkpt lat="42.6654891" lon="13.576683"><ele>794.0</ele><time>2026-05-01T08:01:09.826Z</time></trkpt><trkpt lat="42.6654073" lon="13.5767671"><ele>796.0</ele><time>2026-05-01T08:01:11.826Z</time></trkpt><trkpt lat="42.6652701" lon="13.5767499"><ele>798.0</ele><time>2026-05-01T08:01:13.826Z</time></trkpt><trkpt lat="42.665144" lon="13.5767549"><ele>800.0</ele><time>2026-05-01T08:01:15.825Z</time></trkpt><trkpt lat="42.6650672" lon="13.5768143"><ele>802.8</ele><time>2026-05-01T08:01:17.825Z</time></trkpt><trkpt lat="42.6650344" lon="13.5769548"><ele>805.6</ele><time>2026-05-01T08:01:19.826Z</time></trkpt><trkpt lat="42.6650347" lon="13.5770514"><ele>808.4000000000001</ele><time>2026-05-01T08:01:20.827Z</time></trkpt><trkpt lat="42.6650622" lon="13.5771871"><ele>811.2</ele><time>2026-05-01T08:01:21.825Z</time></trkpt><trkpt lat="42.6650984" lon="13.5773293"><ele>814.0</ele><time>2026-05-01T08:01:22.826Z</time></trkpt><trkpt lat="42.665099" lon="13.5774457"><ele>816.4000000000001</ele><time>2026-05-01T08:01:23.827Z</time></trkpt><trkpt lat="42.6650888" lon="13.5775305"><ele>818.8</ele><time>2026-05-01T08:01:24.826Z</time></trkpt><trkpt lat="42.6650264" lon="13.577676"><ele>821.2</ele><time>2026-05-01T08:01:26.826Z</time></trkpt><trkpt lat="42.6649589" lon="13.5776994"><ele>823.5999999999999</ele><time>2026-05-01T08:01:27.825Z</time></trkpt><trkpt lat="42.6648627" lon="13.5777158"><ele>826.0</ele><time>2026-05-01T08:01:28.826Z</time></trkpt><trkpt lat="42.664762" lon="13.5777133"><ele>826.0</ele><time>2026-05-01T08:01:29.826Z</time></trkpt><trkpt lat="42.6646698" lon="13.5777277"><ele>826.0</ele><time>2026-05-01T08:01:30.825Z</time></trkpt><trkpt lat="42.6645669" lon="13.5777518"><ele>826.0</ele><time>2026-05-01T08:01:31.826Z</time></trkpt><trkpt lat="42.6644958" lon="13.5778564"><ele>826.0</ele><time>2026-05-01T08:01:32.826Z</time></trkpt><trkpt lat="42.6644185" lon="13.5779371"><ele>826.0</ele><time>2026-05-01T08:01:33.826Z</time></trkpt><trkpt lat="42.6643552" lon="13.578031"><ele>831.1999999999999</ele><time>2026-05-01T08:01:34.825Z</time></trkpt><trkpt lat="42.6643405" lon="13.5781435"><ele>836.4</ele><time>2026-05-01T08:01:35.826Z</time></trkpt><trkpt lat="42.6643041" lon="13.5782657"><ele>841.6</ele><time>2026-05-01T08:01:36.826Z</time></trkpt><trkpt lat="42.664329" lon="13.5784132"><ele>846.8</ele><time>2026-05-01T08:01:37.825Z</time></trkpt><trkpt lat="42.6643375" lon="13.5785578"><ele>852.0</ele><time>2026-05-01T08:01:38.825Z</time></trkpt><trkpt lat="42.6643711" lon="13.5787326"><ele>849.0</ele><time>2026-05-01T08:01:39.825Z</time></trkpt><trkpt lat="42.6644479" lon="13.5789394"><ele>846.0</ele><time>2026-05-01T08:01:40.826Z</time></trkpt><trkpt lat="42.6644994" lon="13.5791169"><ele>843.0</ele><time>2026-05-01T08:01:41.826Z</time></trkpt><trkpt lat="42.6645364" lon="13.5792913"><ele>840.0</ele><time>2026-05-01T08:01:42.826Z</time></trkpt><trkpt lat="42.6645812" lon="13.5794726"><ele>841.3333333333333</ele><time>2026-05-01T08:01:43.826Z</time></trkpt><trkpt lat="42.6646305" lon="13.5796672"><ele>842.6666666666666</ele><time>2026-05-01T08:01:44.825Z</time></trkpt><trkpt lat="42.6646837" lon="13.5798703"><ele>844.0</ele><time>2026-05-01T08:01:45.826Z</time></trkpt><trkpt lat="42.6647372" lon="13.5800515"><ele>844.0</ele><time>2026-05-01T08:01:46.825Z</time></trkpt><trkpt lat="42.6647957" lon="13.580226"><ele>844.0</ele><time>2026-05-01T08:01:47.827Z</time></trkpt><trkpt lat="42.6648422" lon="13.5803829"><ele>844.0</ele><time>2026-05-01T08:01:48.827Z</time></trkpt><trkpt lat="42.6648901" lon="13.5805446"><ele>844.0</ele><time>2026-05-01T08:01:49.827Z</time></trkpt><trkpt lat="42.6649401" lon="13.5806969"><ele>845.75</ele><time>2026-05-01T08:01:50.825Z</time></trkpt><trkpt lat="42.6649954" lon="13.5808504"><ele>847.5</ele><time>2026-05-01T08:01:51.826Z</time></trkpt><trkpt lat="42.665038" lon="13.5810049"><ele>849.25</ele><time>2026-05-01T08:01:52.826Z</time></trkpt><trkpt lat="42.6650806" lon="13.5811577"><ele>851.0</ele><time>2026-05-01T08:01:53.825Z</time></trkpt><trkpt lat="42.6651074" lon="13.5813273"><ele>853.25</ele><time>2026-05-01T08:01:54.825Z</time></trkpt><trkpt lat="42.6651258" lon="13.5815064"><ele>855.5</ele><time>2026-05-01T08:01:55.826Z</time></trkpt><trkpt lat="42.6651482" lon="13.5816825"><ele>857.75</ele><time>2026-05-01T08:01:56.826Z</time></trkpt><trkpt lat="42.665156" lon="13.5818496"><ele>860.0</ele><time>2026-05-01T08:01:57.826Z</time></trkpt><trkpt lat="42.6651588" lon="13.5820205"><ele>861.75</ele><time>2026-05-01T08:01:58.825Z</time></trkpt><trkpt lat="42.6651487" lon="13.5821853"><ele>863.5</ele><time>2026-05-01T08:01:59.827Z</time></trkpt><trkpt lat="42.6651266" lon="13.5823467"><ele>865.25</ele><time>2026-05-01T08:02:00.827Z</time></trkpt><trkpt lat="42.6650895" lon="13.5825126"><ele>867.0</ele><time>2026-05-01T08:02:01.826Z</time></trkpt><trkpt lat="42.6650426" lon="13.5826794"><ele>867.0</ele><time>2026-05-01T08:02:02.826Z</time></trkpt><trkpt lat="42.6650007" lon="13.5828176"><ele>867.0</ele><time>2026-05-01T08:02:03.826Z</time></trkpt><trkpt lat="42.6649518" lon="13.5829539"><ele>867.0</ele><time>2026-05-01T08:02:04.826Z</time></trkpt><trkpt lat="42.6648857" lon="13.5830758"><ele>867.0</ele><time>2026-05-01T08:02:05.825Z</time></trkpt><trkpt lat="42.6648095" lon="13.5831689"><ele>867.0</ele><time>2026-05-01T08:02:06.825Z</time></trkpt><trkpt lat="42.6647092" lon="13.5832565"><ele>865.25</ele><time>2026-05-01T08:02:07.826Z</time></trkpt><trkpt lat="42.6645995" lon="13.5833357"><ele>863.5</ele><time>2026-05-01T08:02:08.826Z</time></trkpt><trkpt lat="42.6644854" lon="13.5834234"><ele>861.75</ele><time>2026-05-01T08:02:09.826Z</time></trkpt><trkpt lat="42.6643635" lon="13.5835157"><ele>860.0</ele><time>2026-05-01T08:02:10.825Z</time></trkpt><trkpt lat="42.6642371" lon="13.5836039"><ele>860.0</ele><time>2026-05-01T08:02:11.826Z</time></trkpt><trkpt lat="42.6641083" lon="13.5836917"><ele>860.0</ele><time>2026-05-01T08:02:12.827Z</time></trkpt><trkpt lat="42.6639882" lon="13.5837736"><ele>860.0</ele><time>2026-05-01T08:02:13.827Z</time></trkpt><trkpt lat="42.6638722" lon="13.5838446"><ele>860.0</ele><time>2026-05-01T08:02:14.826Z</time></trkpt><trkpt lat="42.6637434" lon="13.5839066"><ele>860.0</ele><time>2026-05-01T08:02:15.827Z</time></trkpt><trkpt lat="42.6636344" lon="13.583982"><ele>860.0</ele><time>2026-05-01T08:02:16.826Z</time></trkpt><trkpt lat="42.6635273" lon="13.5840539"><ele>860.0</ele><time>2026-05-01T08:02:17.825Z</time></trkpt><trkpt lat="42.6634339" lon="13.5841366"><ele>860.0</ele><time>2026-05-01T08:02:18.826Z</time></trkpt><trkpt lat="42.6633601" lon="13.5842368"><ele>863.0</ele><time>2026-05-01T08:02:19.826Z</time></trkpt><trkpt lat="42.6632808" lon="13.584338"><ele>866.0</ele><time>2026-05-01T08:02:20.826Z</time></trkpt><trkpt lat="42.6632687" lon="13.5844846"><ele>869.0</ele><time>2026-05-01T08:02:21.825Z</time></trkpt><trkpt lat="42.663241" lon="13.5846345"><ele>872.0</ele><time>2026-05-01T08:02:22.825Z</time></trkpt><trkpt lat="42.6632315" lon="13.5847987"><ele>872.0</ele><time>2026-05-01T08:02:23.826Z</time></trkpt><trkpt lat="42.6632361" lon="13.5849851"><ele>872.0</ele><time>2026-05-01T08:02:24.826Z</time></trkpt><trkpt lat="42.6632597" lon="13.5851797"><ele>872.0</ele><time>2026-05-01T08:02:25.827Z</time></trkpt><trkpt lat="42.6632903" lon="13.5853826"><ele>872.0</ele><time>2026-05-01T08:02:26.827Z</time></trkpt><trkpt lat="42.6633228" lon="13.5856055"><ele>873.6666666666667</ele><time>2026-05-01T08:02:27.826Z</time></trkpt><trkpt lat="42.6633645" lon="13.5858295"><ele>875.3333333333333</ele><time>2026-05-01T08:02:28.827Z</time></trkpt><trkpt lat="42.6634086" lon="13.5860192"><ele>877.0</ele><time>2026-05-01T08:02:29.826Z</time></trkpt><trkpt lat="42.6634397" lon="13.5861974"><ele>878.0</ele><time>2026-05-01T08:02:30.826Z</time></trkpt><trkpt lat="42.6634718" lon="13.5863661"><ele>879.0</ele><time>2026-05-01T08:02:31.826Z</time></trkpt><trkpt lat="42.6634991" lon="13.5865165"><ele>880.0</ele><time>2026-05-01T08:02:32.826Z</time></trkpt><trkpt lat="42.6635263" lon="13.5866554"><ele>881.0</ele><time>2026-05-01T08:02:33.826Z</time></trkpt><trkpt lat="42.6635588" lon="13.5867908"><ele>881.0</ele><time>2026-05-01T08:02:34.826Z</time></trkpt><trkpt lat="42.6635873" lon="13.5869265"><ele>880.9999999999999</ele><time>2026-05-01T08:02:35.827Z</time></trkpt><trkpt lat="42.6636132" lon="13.5870445"><ele>880.9999999999999</ele><time>2026-05-01T08:02:36.826Z</time></trkpt><trkpt lat="42.6636216" lon="13.5871542"><ele>881.0</ele><time>2026-05-01T08:02:37.827Z</time></trkpt><trkpt lat="42.6636098" lon="13.5872742"><ele>881.0</ele><time>2026-05-01T08:02:38.826Z</time></trkpt><trkpt lat="42.6635829" lon="13.5873967"><ele>880.1666666666667</ele><time>2026-05-01T08:02:39.827Z</time></trkpt><trkpt lat="42.6635427" lon="13.5875092"><ele>879.3333333333334</ele><time>2026-05-01T08:02:40.827Z</time></trkpt><trkpt lat="42.663497" lon="13.5875967"><ele>878.5</ele><time>2026-05-01T08:02:41.826Z</time></trkpt><trkpt lat="42.6634503" lon="13.5876744"><ele>877.6666666666667</ele><time>2026-05-01T08:02:42.826Z</time></trkpt><trkpt lat="42.6633769" lon="13.5876937"><ele>876.8333333333334</ele><time>2026-05-01T08:02:43.826Z</time></trkpt><trkpt lat="42.663302" lon="13.5877003"><ele>876.0</ele><time>2026-05-01T08:02:44.827Z</time></trkpt><trkpt lat="42.6632131" lon="13.5876696"><ele>876.0</ele><time>2026-05-01T08:02:45.825Z</time></trkpt><trkpt lat="42.6631234" lon="13.5876274"><ele>875.9999999999999</ele><time>2026-05-01T08:02:46.825Z</time></trkpt><trkpt lat="42.6630464" lon="13.5875855"><ele>875.9999999999999</ele><time>2026-05-01T08:02:47.825Z</time></trkpt><trkpt lat="42.6629544" lon="13.5874879"><ele>876.0</ele><time>2026-05-01T08:02:48.825Z</time></trkpt><trkpt lat="42.6628507" lon="13.5874471"><ele>876.0</ele><time>2026-05-01T08:02:49.825Z</time></trkpt><trkpt lat="42.6627473" lon="13.5874292"><ele>876.75</ele><time>2026-05-01T08:02:50.826Z</time></trkpt><trkpt lat="42.662638" lon="13.5874487"><ele>877.5</ele><time>2026-05-01T08:02:51.826Z</time></trkpt><trkpt lat="42.6625238" lon="13.587486"><ele>878.25</ele><time>2026-05-01T08:02:52.827Z</time></trkpt><trkpt lat="42.6624036" lon="13.5875517"><ele>879.0</ele><time>2026-05-01T08:02:53.826Z</time></trkpt><trkpt lat="42.6622849" lon="13.587625"><ele>879.0</ele><time>2026-05-01T08:02:54.826Z</time></trkpt><trkpt lat="42.6621667" lon="13.5877004"><ele>879.0</ele><time>2026-05-01T08:02:55.826Z</time></trkpt><trkpt lat="42.6620575" lon="13.5877906"><ele>879.0</ele><time>2026-05-01T08:02:56.825Z</time></trkpt><trkpt lat="42.6619559" lon="13.5878636"><ele>879.0</ele><time>2026-05-01T08:02:57.826Z</time></trkpt><trkpt lat="42.6618653" lon="13.5879346"><ele>879.3333333333334</ele><time>2026-05-01T08:02:58.826Z</time></trkpt><trkpt lat="42.6617918" lon="13.5879989"><ele>879.6666666666667</ele><time>2026-05-01T08:02:59.825Z</time></trkpt><trkpt lat="42.6617312" lon="13.5880524"><ele>880.0</ele><time>2026-05-01T08:03:00.825Z</time></trkpt><trkpt lat="42.661677" lon="13.5881216"><ele>880.3333333333334</ele><time>2026-05-01T08:03:01.825Z</time></trkpt><trkpt lat="42.6616747" lon="13.5882084"><ele>880.6666666666667</ele><time>2026-05-01T08:03:02.826Z</time></trkpt><trkpt lat="42.6616679" lon="13.5883224"><ele>881.0</ele><time>2026-05-01T08:03:03.825Z</time></trkpt><trkpt lat="42.6616848" lon="13.5884467"><ele>881.0</ele><time>2026-05-01T08:03:04.826Z</time></trkpt><trkpt lat="42.6617047" lon="13.5885665"><ele>880.9999999999999</ele><time>2026-05-01T08:03:05.825Z</time></trkpt><trkpt lat="42.6617738" lon="13.5886759"><ele>880.9999999999999</ele><time>2026-05-01T08:03:06.826Z</time></trkpt><trkpt lat="42.6618227" lon="13.5887815"><ele>881.0</ele><time>2026-05-01T08:03:07.826Z</time></trkpt><trkpt lat="42.6618702" lon="13.5888875"><ele>881.0</ele><time>2026-05-01T08:03:08.827Z</time></trkpt><trkpt lat="42.6619319" lon="13.5889633"><ele>880.0000000000001</ele><time>2026-05-01T08:03:09.826Z</time></trkpt><trkpt lat="42.6619335" lon="13.5890678"><ele>879.0</ele><time>2026-05-01T08:03:10.827Z</time></trkpt><trkpt lat="42.6619361" lon="13.5891585"><ele>878.0</ele><time>2026-05-01T08:03:11.825Z</time></trkpt><trkpt lat="42.6619293" lon="13.5892477"><ele>877.0</ele><time>2026-05-01T08:03:12.825Z</time></trkpt><trkpt lat="42.6618976" lon="13.5893543"><ele>876.0000000000001</ele><time>2026-05-01T08:03:13.826Z</time></trkpt><trkpt lat="42.6618665" lon="13.5894502"><ele>875.0</ele><time>2026-05-01T08:03:14.827Z</time></trkpt><trkpt lat="42.6617992" lon="13.5896041"><ele>874.25</ele><time>2026-05-01T08:03:15.825Z</time></trkpt><trkpt lat="42.661772" lon="13.5897605"><ele>873.5</ele><time>2026-05-01T08:03:16.826Z</time></trkpt><trkpt lat="42.6617511" lon="13.5899245"><ele>872.75</ele><time>2026-05-01T08:03:17.826Z</time></trkpt><trkpt lat="42.6617386" lon="13.5900915"><ele>872.0</ele><time>2026-05-01T08:03:18.826Z</time></trkpt><trkpt lat="42.6617251" lon="13.5902598"><ele>870.2</ele><time>2026-05-01T08:03:19.826Z</time></trkpt><trkpt lat="42.6617262" lon="13.5903783"><ele>868.4000000000001</ele><time>2026-05-01T08:03:20.826Z</time></trkpt><trkpt lat="42.6617134" lon="13.5905072"><ele>866.5999999999999</ele><time>2026-05-01T08:03:21.826Z</time></trkpt><trkpt lat="42.6616961" lon="13.5906289"><ele>864.8</ele><time>2026-05-01T08:03:22.825Z</time></trkpt><trkpt lat="42.6616537" lon="13.5907556"><ele>863.0</ele><time>2026-05-01T08:03:23.825Z</time></trkpt><trkpt lat="42.6616179" lon="13.5908866"><ele>863.0</ele><time>2026-05-01T08:03:24.825Z</time></trkpt><trkpt lat="42.6615432" lon="13.5910083"><ele>863.0</ele><time>2026-05-01T08:03:25.826Z</time></trkpt><trkpt lat="42.6614212" lon="13.5911286"><ele>863.0</ele><time>2026-05-01T08:03:26.827Z</time></trkpt><trkpt lat="42.6612919" lon="13.5911792"><ele>863.0</ele><time>2026-05-01T08:03:27.826Z</time></trkpt><trkpt lat="42.6611554" lon="13.591203"><ele>861.0</ele><time>2026-05-01T08:03:28.826Z</time></trkpt><trkpt lat="42.6610601" lon="13.5912747"><ele>859.0</ele><time>2026-05-01T08:03:29.826Z</time></trkpt><trkpt lat="42.6609133" lon="13.591349"><ele>857.0</ele><time>2026-05-01T08:03:30.826Z</time></trkpt><trkpt lat="42.6607829" lon="13.5914361"><ele>855.0</ele><time>2026-05-01T08:03:31.827Z</time></trkpt><trkpt lat="42.6606506" lon="13.5915251"><ele>855.0</ele><time>2026-05-01T08:03:32.826Z</time></trkpt><trkpt lat="42.6605248" lon="13.5916183"><ele>855.0</ele><time>2026-05-01T08:03:33.826Z</time></trkpt><trkpt lat="42.6604083" lon="13.5917325"><ele>855.0</ele><time>2026-05-01T08:03:34.825Z</time></trkpt><trkpt lat="42.6602989" lon="13.5918399"><ele>855.0</ele><time>2026-05-01T08:03:35.825Z</time></trkpt><trkpt lat="42.6601909" lon="13.591938"><ele>854.0</ele><time>2026-05-01T08:03:36.826Z</time></trkpt><trkpt lat="42.6600875" lon="13.5920262"><ele>853.0</ele><time>2026-05-01T08:03:37.825Z</time></trkpt><trkpt lat="42.6599869" lon="13.5921162"><ele>852.0</ele><time>2026-05-01T08:03:38.826Z</time></trkpt><trkpt lat="42.6599046" lon="13.5922313"><ele>851.0</ele><time>2026-05-01T08:03:39.825Z</time></trkpt><trkpt lat="42.6598338" lon="13.59236"><ele>851.0</ele><time>2026-05-01T08:03:40.826Z</time></trkpt><trkpt lat="42.6597703" lon="13.5924946"><ele>851.0</ele><time>2026-05-01T08:03:41.826Z</time></trkpt><trkpt lat="42.6597398" lon="13.5926317"><ele>851.0</ele><time>2026-05-01T08:03:42.827Z</time></trkpt><trkpt lat="42.6597035" lon="13.5928004"><ele>851.0</ele><time>2026-05-01T08:03:43.826Z</time></trkpt><trkpt lat="42.6596728" lon="13.5929727"><ele>850.75</ele><time>2026-05-01T08:03:44.826Z</time></trkpt><trkpt lat="42.659679" lon="13.5931875"><ele>850.5</ele><time>2026-05-01T08:03:45.826Z</time></trkpt><trkpt lat="42.6597317" lon="13.5933892"><ele>850.25</ele><time>2026-05-01T08:03:46.826Z</time></trkpt><trkpt lat="42.6597414" lon="13.593568"><ele>850.0</ele><time>2026-05-01T08:03:47.826Z</time></trkpt><trkpt lat="42.6597624" lon="13.5937588"><ele>850.0</ele><time>2026-05-01T08:03:48.826Z</time></trkpt><trkpt lat="42.6597773" lon="13.5939416"><ele>850.0</ele><time>2026-05-01T08:03:49.826Z</time></trkpt><trkpt lat="42.6597982" lon="13.5941198"><ele>850.0</ele><time>2026-05-01T08:03:50.825Z</time></trkpt><trkpt lat="42.6598104" lon="13.5942835"><ele>850.0</ele><time>2026-05-01T08:03:51.825Z</time></trkpt><trkpt lat="42.6598262" lon="13.5944469"><ele>849.75</ele><time>2026-05-01T08:03:52.825Z</time></trkpt><trkpt lat="42.6598388" lon="13.5946061"><ele>849.5</ele><time>2026-05-01T08:03:53.825Z</time></trkpt><trkpt lat="42.6598357" lon="13.594769"><ele>849.25</ele><time>2026-05-01T08:03:54.825Z</time></trkpt><trkpt lat="42.6598223" lon="13.5949298"><ele>849.0</ele><time>2026-05-01T08:03:55.826Z</time></trkpt><trkpt lat="42.6598087" lon="13.5950805"><ele>849.0</ele><time>2026-05-01T08:03:56.827Z</time></trkpt><trkpt lat="42.6597882" lon="13.595225"><ele>849.0</ele><time>2026-05-01T08:03:57.826Z</time></trkpt><trkpt lat="42.6597651" lon="13.5953725"><ele>849.0</ele><time>2026-05-01T08:03:58.826Z</time></trkpt><trkpt lat="42.6597229" lon="13.595508"><ele>849.0</ele><time>2026-05-01T08:03:59.825Z</time></trkpt><trkpt lat="42.6596803" lon="13.5956397"><ele>849.0</ele><time>2026-05-01T08:04:00.826Z</time></trkpt><trkpt lat="42.6596352" lon="13.5957456"><ele>849.6666666666666</ele><time>2026-05-01T08:04:01.826Z</time></trkpt><trkpt lat="42.6595858" lon="13.5958334"><ele>850.3333333333333</ele><time>2026-05-01T08:04:02.826Z</time></trkpt><trkpt lat="42.6595274" lon="13.5959165"><ele>851.0</ele><time>2026-05-01T08:04:03.825Z</time></trkpt><trkpt lat="42.6594579" lon="13.5959712"><ele>851.6666666666666</ele><time>2026-05-01T08:04:04.825Z</time></trkpt><trkpt lat="42.6593728" lon="13.5960058"><ele>852.3333333333333</ele><time>2026-05-01T08:04:05.825Z</time></trkpt><trkpt lat="42.6592651" lon="13.5960054"><ele>853.0</ele><time>2026-05-01T08:04:06.826Z</time></trkpt><trkpt lat="42.6591667" lon="13.5960065"><ele>852.9999999999999</ele><time>2026-05-01T08:04:07.825Z</time></trkpt><trkpt lat="42.6590728" lon="13.5959943"><ele>853.0</ele><time>2026-05-01T08:04:08.827Z</time></trkpt><trkpt lat="42.6589861" lon="13.5959725"><ele>853.0</ele><time>2026-05-01T08:04:09.826Z</time></trkpt><trkpt lat="42.6589065" lon="13.5959308"><ele>853.0</ele><time>2026-05-01T08:04:10.825Z</time></trkpt><trkpt lat="42.6588301" lon="13.5958992"><ele>852.9999999999999</ele><time>2026-05-01T08:04:11.826Z</time></trkpt><trkpt lat="42.6587529" lon="13.5958524"><ele>853.0</ele><time>2026-05-01T08:04:12.826Z</time></trkpt><trkpt lat="42.6586799" lon="13.5958697"><ele>854.4</ele><time>2026-05-01T08:04:13.825Z</time></trkpt><trkpt lat="42.6585976" lon="13.5958986"><ele>855.8</ele><time>2026-05-01T08:04:14.826Z</time></trkpt><trkpt lat="42.6585195" lon="13.5959441"><ele>857.2</ele><time>2026-05-01T08:04:15.826Z</time></trkpt><trkpt lat="42.6584589" lon="13.5961074"><ele>858.6</ele><time>2026-05-01T08:04:16.826Z</time></trkpt><trkpt lat="42.6583885" lon="13.5962376"><ele>860.0</ele><time>2026-05-01T08:04:17.826Z</time></trkpt><trkpt lat="42.658337" lon="13.5964191"><ele>856.6</ele><time>2026-05-01T08:04:18.826Z</time></trkpt><trkpt lat="42.6582831" lon="13.5965561"><ele>853.2</ele><time>2026-05-01T08:04:19.826Z</time></trkpt><trkpt lat="42.6582338" lon="13.5967029"><ele>849.8</ele><time>2026-05-01T08:04:20.826Z</time></trkpt><trkpt lat="42.6581901" lon="13.5968378"><ele>846.4</ele><time>2026-05-01T08:04:21.825Z</time></trkpt><trkpt lat="42.6581547" lon="13.5969566"><ele>843.0</ele><time>2026-05-01T08:04:22.827Z</time></trkpt><trkpt lat="42.6581123" lon="13.5970696"><ele>841.4</ele><time>2026-05-01T08:04:23.825Z</time></trkpt><trkpt lat="42.6580662" lon="13.5971682"><ele>839.8</ele><time>2026-05-01T08:04:24.826Z</time></trkpt><trkpt lat="42.658008" lon="13.597241"><ele>838.2</ele><time>2026-05-01T08:04:25.826Z</time></trkpt><trkpt lat="42.6579351" lon="13.5972946"><ele>836.6</ele><time>2026-05-01T08:04:26.825Z</time></trkpt><trkpt lat="42.6578501" lon="13.5973332"><ele>835.0</ele><time>2026-05-01T08:04:27.826Z</time></trkpt><trkpt lat="42.6577364" lon="13.5973467"><ele>835.0</ele><time>2026-05-01T08:04:28.826Z</time></trkpt><trkpt lat="42.6576168" lon="13.5973719"><ele>835.0</ele><time>2026-05-01T08:04:29.827Z</time></trkpt><trkpt lat="42.657499" lon="13.5973701"><ele>835.0</ele><time>2026-05-01T08:04:30.826Z</time></trkpt><trkpt lat="42.6573876" lon="13.5973715"><ele>835.0</ele><time>2026-05-01T08:04:31.826Z</time></trkpt><trkpt lat="42.6572809" lon="13.5973832"><ele>835.0</ele><time>2026-05-01T08:04:32.826Z</time></trkpt><trkpt lat="42.6571738" lon="13.59739"><ele>835.0</ele><time>2026-05-01T08:04:33.827Z</time></trkpt><trkpt lat="42.6570751" lon="13.5974082"><ele>835.0</ele><time>2026-05-01T08:04:34.825Z</time></trkpt><trkpt lat="42.656986" lon="13.5974155"><ele>835.0</ele><time>2026-05-01T08:04:35.825Z</time></trkpt><trkpt lat="42.6568989" lon="13.5974202"><ele>835.0</ele><time>2026-05-01T08:04:36.826Z</time></trkpt><trkpt lat="42.6568177" lon="13.5974305"><ele>835.8333333333333</ele><time>2026-05-01T08:04:37.825Z</time></trkpt><trkpt lat="42.6567488" lon="13.5974519"><ele>836.6666666666666</ele><time>2026-05-01T08:04:38.825Z</time></trkpt><trkpt lat="42.6566907" lon="13.5975263"><ele>837.5</ele><time>2026-05-01T08:04:39.827Z</time></trkpt><trkpt lat="42.6566387" lon="13.5975917"><ele>838.3333333333333</ele><time>2026-05-01T08:04:40.827Z</time></trkpt><trkpt lat="42.6566404" lon="13.5977281"><ele>839.1666666666666</ele><time>2026-05-01T08:04:41.826Z</time></trkpt><trkpt lat="42.6566334" lon="13.5978226"><ele>840.0</ele><time>2026-05-01T08:04:42.826Z</time></trkpt><trkpt lat="42.6566196" lon="13.5979269"><ele>836.4</ele><time>2026-05-01T08:04:43.826Z</time></trkpt><trkpt lat="42.6566098" lon="13.5980411"><ele>832.8</ele><time>2026-05-01T08:04:44.826Z</time></trkpt><trkpt lat="42.6565715" lon="13.598171"><ele>829.2</ele><time>2026-05-01T08:04:45.826Z</time></trkpt><trkpt lat="42.6564768" lon="13.5982576"><ele>825.6</ele><time>2026-05-01T08:04:46.825Z</time></trkpt><trkpt lat="42.6563894" lon="13.5983617"><ele>822.0</ele><time>2026-05-01T08:04:47.825Z</time></trkpt><trkpt lat="42.6562689" lon="13.5984639"><ele>822.0</ele><time>2026-05-01T08:04:48.826Z</time></trkpt><trkpt lat="42.6561573" lon="13.5985592"><ele>822.0</ele><time>2026-05-01T08:04:49.827Z</time></trkpt><trkpt lat="42.6560412" lon="13.5985943"><ele>822.0</ele><time>2026-05-01T08:04:50.826Z</time></trkpt><trkpt lat="42.6559423" lon="13.598694"><ele>822.0</ele><time>2026-05-01T08:04:51.825Z</time></trkpt><trkpt lat="42.6558606" lon="13.5987738"><ele>820.8</ele><time>2026-05-01T08:04:52.826Z</time></trkpt><trkpt lat="42.6557774" lon="13.598849"><ele>819.6</ele><time>2026-05-01T08:04:53.826Z</time></trkpt><trkpt lat="42.6556876" lon="13.5988934"><ele>818.4</ele><time>2026-05-01T08:04:54.825Z</time></trkpt><trkpt lat="42.6556021" lon="13.5989509"><ele>817.1999999999999</ele><time>2026-05-01T08:04:55.826Z</time></trkpt><trkpt lat="42.6555357" lon="13.5990213"><ele>816.0</ele><time>2026-05-01T08:04:56.827Z</time></trkpt><trkpt lat="42.6554667" lon="13.5990907"><ele>816.0</ele><time>2026-05-01T08:04:57.826Z</time></trkpt><trkpt lat="42.6554019" lon="13.5991743"><ele>816.0</ele><time>2026-05-01T08:04:58.826Z</time></trkpt><trkpt lat="42.6553384" lon="13.599324"><ele>816.0</ele><time>2026-05-01T08:04:59.826Z</time></trkpt><trkpt lat="42.6553868" lon="13.5994861"><ele>816.0</ele><time>2026-05-01T08:05:00.825Z</time></trkpt><trkpt lat="42.6553775" lon="13.5996409"><ele>814.5</ele><time>2026-05-01T08:05:01.826Z</time></trkpt><trkpt lat="42.6553699" lon="13.5998001"><ele>813.0</ele><time>2026-05-01T08:05:02.827Z</time></trkpt><trkpt lat="42.6553832" lon="13.5999738"><ele>811.5</ele><time>2026-05-01T08:05:03.826Z</time></trkpt><trkpt lat="42.6554003" lon="13.6001448"><ele>810.0</ele><time>2026-05-01T08:05:04.826Z</time></trkpt><trkpt lat="42.6554024" lon="13.600333"><ele>811.75</ele><time>2026-05-01T08:05:05.825Z</time></trkpt><trkpt lat="42.6554013" lon="13.6005257"><ele>813.5</ele><time>2026-05-01T08:05:06.827Z</time></trkpt><trkpt lat="42.6554006" lon="13.6007211"><ele>815.25</ele><time>2026-05-01T08:05:07.826Z</time></trkpt><trkpt lat="42.6554088" lon="13.6009001"><ele>817.0</ele><time>2026-05-01T08:05:08.825Z</time></trkpt><trkpt lat="42.6554123" lon="13.6010539"><ele>817.8</ele><time>2026-05-01T08:05:09.827Z</time></trkpt><trkpt lat="42.655411" lon="13.6011965"><ele>818.6</ele><time>2026-05-01T08:05:10.826Z</time></trkpt><trkpt lat="42.6553999" lon="13.6013366"><ele>819.4</ele><time>2026-05-01T08:05:11.826Z</time></trkpt><trkpt lat="42.6553761" lon="13.601456"><ele>820.1999999999999</ele><time>2026-05-01T08:05:12.826Z</time></trkpt><trkpt lat="42.6553477" lon="13.601568"><ele>821.0</ele><time>2026-05-01T08:05:13.825Z</time></trkpt><trkpt lat="42.655308" lon="13.6016881"><ele>821.1999999999999</ele><time>2026-05-01T08:05:14.825Z</time></trkpt><trkpt lat="42.6552666" lon="13.6018128"><ele>821.4</ele><time>2026-05-01T08:05:15.826Z</time></trkpt><trkpt lat="42.6552199" lon="13.6019358"><ele>821.6</ele><time>2026-05-01T08:05:16.826Z</time></trkpt><trkpt lat="42.6551753" lon="13.6020559"><ele>821.8</ele><time>2026-05-01T08:05:17.826Z</time></trkpt><trkpt lat="42.655126" lon="13.6021753"><ele>822.0</ele><time>2026-05-01T08:05:18.826Z</time></trkpt><trkpt lat="42.6550807" lon="13.6022904"><ele>822.0</ele><time>2026-05-01T08:05:19.825Z</time></trkpt><trkpt lat="42.6550287" lon="13.6024007"><ele>822.0</ele><time>2026-05-01T08:05:20.826Z</time></trkpt><trkpt lat="42.6549643" lon="13.6025022"><ele>822.0</ele><time>2026-05-01T08:05:21.825Z</time></trkpt><trkpt lat="42.6548915" lon="13.6025862"><ele>822.0</ele><time>2026-05-01T08:05:22.827Z</time></trkpt><trkpt lat="42.6548122" lon="13.6026581"><ele>822.0</ele><time>2026-05-01T08:05:23.826Z</time></trkpt><trkpt lat="42.65474" lon="13.6027181"><ele>822.0</ele><time>2026-05-01T08:05:24.826Z</time></trkpt><trkpt lat="42.6546742" lon="13.6027641"><ele>822.0</ele><time>2026-05-01T08:05:25.826Z</time></trkpt><trkpt lat="42.6546092" lon="13.6028103"><ele>822.0</ele><time>2026-05-01T08:05:26.826Z</time></trkpt><trkpt lat="42.6545009" lon="13.6029212"><ele>822.0</ele><time>2026-05-01T08:05:28.827Z</time></trkpt><trkpt lat="42.6544385" lon="13.6030014"><ele>822.0</ele><time>2026-05-01T08:05:29.826Z</time></trkpt><trkpt lat="42.6543624" lon="13.6030943"><ele>821.5</ele><time>2026-05-01T08:05:30.825Z</time></trkpt><trkpt lat="42.6542833" lon="13.6032141"><ele>821.0</ele><time>2026-05-01T08:05:31.827Z</time></trkpt><trkpt lat="42.6542008" lon="13.6033474"><ele>820.5</ele><time>2026-05-01T08:05:32.826Z</time></trkpt><trkpt lat="42.6541374" lon="13.6034942"><ele>820.0</ele><time>2026-05-01T08:05:33.826Z</time></trkpt><trkpt lat="42.6540828" lon="13.6036278"><ele>818.2</ele><time>2026-05-01T08:05:34.826Z</time></trkpt><trkpt lat="42.6540272" lon="13.6037459"><ele>816.4</ele><time>2026-05-01T08:05:35.826Z</time></trkpt><trkpt lat="42.6539711" lon="13.6038422"><ele>814.5999999999999</ele><time>2026-05-01T08:05:36.826Z</time></trkpt><trkpt lat="42.6538936" lon="13.6039201"><ele>812.8</ele><time>2026-05-01T08:05:37.827Z</time></trkpt><trkpt lat="42.6538086" lon="13.6039402"><ele>811.0</ele><time>2026-05-01T08:05:38.826Z</time></trkpt><trkpt lat="42.6537211" lon="13.6039496"><ele>811.0</ele><time>2026-05-01T08:05:39.826Z</time></trkpt><trkpt lat="42.6536583" lon="13.6038696"><ele>811.0</ele><time>2026-05-01T08:05:40.825Z</time></trkpt><trkpt lat="42.6536049" lon="13.6037662"><ele>811.0</ele><time>2026-05-01T08:05:41.826Z</time></trkpt><trkpt lat="42.6535701" lon="13.6036117"><ele>811.0</ele><time>2026-05-01T08:05:42.826Z</time></trkpt><trkpt lat="42.6535288" lon="13.6034197"><ele>811.0</ele><time>2026-05-01T08:05:43.826Z</time></trkpt><trkpt lat="42.6534765" lon="13.6032178"><ele>813.25</ele><time>2026-05-01T08:05:44.825Z</time></trkpt><trkpt lat="42.6534208" lon="13.603029"><ele>815.5</ele><time>2026-05-01T08:05:45.826Z</time></trkpt><trkpt lat="42.6533641" lon="13.6028472"><ele>817.75</ele><time>2026-05-01T08:05:46.826Z</time></trkpt><trkpt lat="42.6532925" lon="13.6026683"><ele>820.0</ele><time>2026-05-01T08:05:47.827Z</time></trkpt><trkpt lat="42.6531981" lon="13.6024907"><ele>822.6666666666666</ele><time>2026-05-01T08:05:48.827Z</time></trkpt><trkpt lat="42.6530748" lon="13.6023218"><ele>825.3333333333333</ele><time>2026-05-01T08:05:49.827Z</time></trkpt><trkpt lat="42.6529369" lon="13.6021494"><ele>828.0</ele><time>2026-05-01T08:05:50.826Z</time></trkpt><trkpt lat="42.6527921" lon="13.6019692"><ele>827.3333333333333</ele><time>2026-05-01T08:05:51.826Z</time></trkpt><trkpt lat="42.6526513" lon="13.6017862"><ele>826.6666666666666</ele><time>2026-05-01T08:05:52.827Z</time></trkpt><trkpt lat="42.6525041" lon="13.6016043"><ele>826.0</ele><time>2026-05-01T08:05:53.825Z</time></trkpt><trkpt lat="42.6523563" lon="13.6014229"><ele>826.0</ele><time>2026-05-01T08:05:54.825Z</time></trkpt><trkpt lat="42.6522119" lon="13.6012537"><ele>826.0</ele><time>2026-05-01T08:05:55.826Z</time></trkpt><trkpt lat="42.6520769" lon="13.6010938"><ele>826.0</ele><time>2026-05-01T08:05:56.827Z</time></trkpt><trkpt lat="42.6519449" lon="13.6009425"><ele>828.0</ele><time>2026-05-01T08:05:57.827Z</time></trkpt><trkpt lat="42.6518201" lon="13.6007963"><ele>830.0</ele><time>2026-05-01T08:05:58.826Z</time></trkpt><trkpt lat="42.6517033" lon="13.6006504"><ele>832.0</ele><time>2026-05-01T08:05:59.827Z</time></trkpt><trkpt lat="42.6515889" lon="13.600515"><ele>832.0</ele><time>2026-05-01T08:06:00.827Z</time></trkpt><trkpt lat="42.6514701" lon="13.6004003"><ele>832.0</ele><time>2026-05-01T08:06:01.826Z</time></trkpt><trkpt lat="42.6513562" lon="13.6003039"><ele>832.0</ele><time>2026-05-01T08:06:02.826Z</time></trkpt><trkpt lat="42.6512325" lon="13.6002372"><ele>832.0</ele><time>2026-05-01T08:06:03.826Z</time></trkpt><trkpt lat="42.6510985" lon="13.6001963"><ele>836.3333333333333</ele><time>2026-05-01T08:06:04.826Z</time></trkpt><trkpt lat="42.6509479" lon="13.600187"><ele>840.6666666666667</ele><time>2026-05-01T08:06:05.826Z</time></trkpt><trkpt lat="42.6507869" lon="13.6002033"><ele>845.0</ele><time>2026-05-01T08:06:06.827Z</time></trkpt><trkpt lat="42.6506164" lon="13.6002381"><ele>845.0</ele><time>2026-05-01T08:06:07.826Z</time></trkpt><trkpt lat="42.6504462" lon="13.6002836"><ele>845.0</ele><time>2026-05-01T08:06:08.826Z</time></trkpt><trkpt lat="42.6502761" lon="13.600337"><ele>845.0</ele><time>2026-05-01T08:06:09.825Z</time></trkpt><trkpt lat="42.6501045" lon="13.6003883"><ele>842.3333333333334</ele><time>2026-05-01T08:06:10.826Z</time></trkpt><trkpt lat="42.6499355" lon="13.6004473"><ele>839.6666666666667</ele><time>2026-05-01T08:06:11.826Z</time></trkpt><trkpt lat="42.649766" lon="13.6004999"><ele>837.0</ele><time>2026-05-01T08:06:12.826Z</time></trkpt><trkpt lat="42.6495979" lon="13.600545"><ele>840.0</ele><time>2026-05-01T08:06:13.826Z</time></trkpt><trkpt lat="42.6494346" lon="13.600583"><ele>843.0</ele><time>2026-05-01T08:06:14.825Z</time></trkpt><trkpt lat="42.649276" lon="13.6006216"><ele>846.0</ele><time>2026-05-01T08:06:15.826Z</time></trkpt><trkpt lat="42.6491173" lon="13.6006656"><ele>846.0</ele><time>2026-05-01T08:06:16.826Z</time></trkpt><trkpt lat="42.6489613" lon="13.6007105"><ele>846.0</ele><time>2026-05-01T08:06:17.826Z</time></trkpt><trkpt lat="42.6488054" lon="13.6007496"><ele>846.0</ele><time>2026-05-01T08:06:18.825Z</time></trkpt><trkpt lat="42.6486516" lon="13.6007947"><ele>849.75</ele><time>2026-05-01T08:06:19.825Z</time></trkpt><trkpt lat="42.6485067" lon="13.6008436"><ele>853.5</ele><time>2026-05-01T08:06:20.825Z</time></trkpt><trkpt lat="42.6483699" lon="13.6008826"><ele>857.25</ele><time>2026-05-01T08:06:21.826Z</time></trkpt><trkpt lat="42.648234" lon="13.6009214"><ele>861.0</ele><time>2026-05-01T08:06:22.825Z</time></trkpt><trkpt lat="42.6480908" lon="13.6009629"><ele>861.0</ele><time>2026-05-01T08:06:23.826Z</time></trkpt><trkpt lat="42.6479413" lon="13.6010248"><ele>861.0</ele><time>2026-05-01T08:06:24.826Z</time></trkpt><trkpt lat="42.6477826" lon="13.6010792"><ele>861.0</ele><time>2026-05-01T08:06:25.825Z</time></trkpt><trkpt lat="42.6476183" lon="13.6011413"><ele>855.6666666666667</ele><time>2026-05-01T08:06:26.825Z</time></trkpt><trkpt lat="42.6474549" lon="13.601199"><ele>850.3333333333334</ele><time>2026-05-01T08:06:27.827Z</time></trkpt><trkpt lat="42.6472912" lon="13.6012557"><ele>845.0</ele><time>2026-05-01T08:06:28.827Z</time></trkpt><trkpt lat="42.6471355" lon="13.6013197"><ele>845.0</ele><time>2026-05-01T08:06:29.826Z</time></trkpt><trkpt lat="42.6469847" lon="13.6013721"><ele>845.0</ele><time>2026-05-01T08:06:30.824Z</time></trkpt><trkpt lat="42.6468447" lon="13.601421"><ele>845.0</ele><time>2026-05-01T08:06:31.826Z</time></trkpt><trkpt lat="42.6466983" lon="13.6014744"><ele>845.5</ele><time>2026-05-01T08:06:32.826Z</time></trkpt><trkpt lat="42.6465642" lon="13.6015287"><ele>846.0</ele><time>2026-05-01T08:06:33.825Z</time></trkpt><trkpt lat="42.6464247" lon="13.6015764"><ele>846.5</ele><time>2026-05-01T08:06:34.825Z</time></trkpt><trkpt lat="42.6463232" lon="13.6016381"><ele>847.0</ele><time>2026-05-01T08:06:35.825Z</time></trkpt><trkpt lat="42.6462046" lon="13.6016975"><ele>846.8333333333333</ele><time>2026-05-01T08:06:36.825Z</time></trkpt><trkpt lat="42.6460944" lon="13.6017533"><ele>846.6666666666666</ele><time>2026-05-01T08:06:37.826Z</time></trkpt><trkpt lat="42.6460003" lon="13.6017912"><ele>846.5</ele><time>2026-05-01T08:06:38.825Z</time></trkpt><trkpt lat="42.645922" lon="13.6018228"><ele>846.3333333333333</ele><time>2026-05-01T08:06:39.825Z</time></trkpt><trkpt lat="42.6458413" lon="13.6018081"><ele>846.1666666666666</ele><time>2026-05-01T08:06:40.825Z</time></trkpt><trkpt lat="42.6458005" lon="13.6017326"><ele>846.0</ele><time>2026-05-01T08:06:41.825Z</time></trkpt><trkpt lat="42.6458015" lon="13.6015435"><ele>846.0</ele><time>2026-05-01T08:06:43.826Z</time></trkpt><trkpt lat="42.6458456" lon="13.6014144"><ele>846.0</ele><time>2026-05-01T08:06:44.825Z</time></trkpt><trkpt lat="42.6459024" lon="13.6012606"><ele>846.0</ele><time>2026-05-01T08:06:45.825Z</time></trkpt><trkpt lat="42.6459624" lon="13.6010904"><ele>846.0</ele><time>2026-05-01T08:06:46.825Z</time></trkpt><trkpt lat="42.6460253" lon="13.6009016"><ele>845.25</ele><time>2026-05-01T08:06:47.824Z</time></trkpt><trkpt lat="42.6460794" lon="13.6007057"><ele>844.5</ele><time>2026-05-01T08:06:48.825Z</time></trkpt><trkpt lat="42.6461214" lon="13.600517"><ele>843.75</ele><time>2026-05-01T08:06:49.824Z</time></trkpt><trkpt lat="42.6461491" lon="13.6003279"><ele>843.0</ele><time>2026-05-01T08:06:50.826Z</time></trkpt><trkpt lat="42.6461467" lon="13.6001433"><ele>843.75</ele><time>2026-05-01T08:06:51.824Z</time></trkpt><trkpt lat="42.6461315" lon="13.5999714"><ele>844.5</ele><time>2026-05-01T08:06:52.824Z</time></trkpt><trkpt lat="42.6461219" lon="13.5998117"><ele>845.25</ele><time>2026-05-01T08:06:53.825Z</time></trkpt><trkpt lat="42.6460986" lon="13.599668"><ele>846.0</ele><time>2026-05-01T08:06:54.826Z</time></trkpt><trkpt lat="42.6460206" lon="13.5995594"><ele>847.5999999999999</ele><time>2026-05-01T08:06:55.826Z</time></trkpt><trkpt lat="42.6459352" lon="13.5994644"><ele>849.2</ele><time>2026-05-01T08:06:56.826Z</time></trkpt><trkpt lat="42.6458706" lon="13.5993741"><ele>850.8000000000001</ele><time>2026-05-01T08:06:57.825Z</time></trkpt><trkpt lat="42.6458339" lon="13.5992745"><ele>852.4000000000001</ele><time>2026-05-01T08:06:58.825Z</time></trkpt><trkpt lat="42.6458262" lon="13.5991623"><ele>854.0</ele><time>2026-05-01T08:06:59.825Z</time></trkpt><trkpt lat="42.6458494" lon="13.5990259"><ele>854.0</ele><time>2026-05-01T08:07:00.824Z</time></trkpt><trkpt lat="42.6458846" lon="13.5988722"><ele>854.0</ele><time>2026-05-01T08:07:01.825Z</time></trkpt><trkpt lat="42.6459071" lon="13.598698"><ele>854.0</ele><time>2026-05-01T08:07:02.826Z</time></trkpt><trkpt lat="42.6459191" lon="13.5985154"><ele>854.0</ele><time>2026-05-01T08:07:03.825Z</time></trkpt><trkpt lat="42.6459312" lon="13.5983257"><ele>854.5</ele><time>2026-05-01T08:07:04.824Z</time></trkpt><trkpt lat="42.645938" lon="13.5981371"><ele>855.0</ele><time>2026-05-01T08:07:05.825Z</time></trkpt><trkpt lat="42.6459406" lon="13.597949"><ele>855.5</ele><time>2026-05-01T08:07:06.824Z</time></trkpt><trkpt lat="42.6459318" lon="13.5977643"><ele>856.0</ele><time>2026-05-01T08:07:07.825Z</time></trkpt><trkpt lat="42.6459071" lon="13.5975934"><ele>857.75</ele><time>2026-05-01T08:07:08.825Z</time></trkpt><trkpt lat="42.6458849" lon="13.5974385"><ele>859.5</ele><time>2026-05-01T08:07:09.826Z</time></trkpt><trkpt lat="42.6458683" lon="13.5972823"><ele>861.25</ele><time>2026-05-01T08:07:10.824Z</time></trkpt><trkpt lat="42.6458704" lon="13.5971155"><ele>863.0</ele><time>2026-05-01T08:07:11.826Z</time></trkpt><trkpt lat="42.6459004" lon="13.596945"><ele>863.25</ele><time>2026-05-01T08:07:12.825Z</time></trkpt><trkpt lat="42.645955" lon="13.5967774"><ele>863.5</ele><time>2026-05-01T08:07:13.824Z</time></trkpt><trkpt lat="42.6460354" lon="13.5966221"><ele>863.75</ele><time>2026-05-01T08:07:14.825Z</time></trkpt><trkpt lat="42.6461109" lon="13.5964531"><ele>864.0</ele><time>2026-05-01T08:07:15.825Z</time></trkpt><trkpt lat="42.6461495" lon="13.5962584"><ele>870.5</ele><time>2026-05-01T08:07:16.825Z</time></trkpt><trkpt lat="42.6461705" lon="13.5960524"><ele>877.0</ele><time>2026-05-01T08:07:17.826Z</time></trkpt><trkpt lat="42.6461807" lon="13.5958562"><ele>883.5</ele><time>2026-05-01T08:07:18.825Z</time></trkpt><trkpt lat="42.6461929" lon="13.5956721"><ele>890.0</ele><time>2026-05-01T08:07:19.825Z</time></trkpt><trkpt lat="42.6462236" lon="13.5955069"><ele>890.0</ele><time>2026-05-01T08:07:20.825Z</time></trkpt><trkpt lat="42.6462741" lon="13.5953578"><ele>890.0</ele><time>2026-05-01T08:07:21.824Z</time></trkpt><trkpt lat="42.6463542" lon="13.5952281"><ele>890.0</ele><time>2026-05-01T08:07:22.825Z</time></trkpt><trkpt lat="42.6464659" lon="13.5951149"><ele>890.0</ele><time>2026-05-01T08:07:23.825Z</time></trkpt><trkpt lat="42.6465842" lon="13.5950171"><ele>885.0</ele><time>2026-05-01T08:07:24.825Z</time></trkpt><trkpt lat="42.6467025" lon="13.5949353"><ele>880.0</ele><time>2026-05-01T08:07:25.826Z</time></trkpt><trkpt lat="42.646812" lon="13.5948704"><ele>875.0</ele><time>2026-05-01T08:07:26.825Z</time></trkpt><trkpt lat="42.6469141" lon="13.5948416"><ele>870.0</ele><time>2026-05-01T08:07:27.825Z</time></trkpt><trkpt lat="42.6470079" lon="13.594856"><ele>869.0</ele><time>2026-05-01T08:07:28.826Z</time></trkpt><trkpt lat="42.6471007" lon="13.5949274"><ele>868.0</ele><time>2026-05-01T08:07:29.824Z</time></trkpt><trkpt lat="42.6471886" lon="13.5950359"><ele>867.0</ele><time>2026-05-01T08:07:30.824Z</time></trkpt><trkpt lat="42.6472908" lon="13.5951662"><ele>866.0</ele><time>2026-05-01T08:07:31.825Z</time></trkpt><trkpt lat="42.647404" lon="13.5952893"><ele>870.0</ele><time>2026-05-01T08:07:32.825Z</time></trkpt><trkpt lat="42.6475305" lon="13.5954103"><ele>874.0</ele><time>2026-05-01T08:07:33.824Z</time></trkpt><trkpt lat="42.6476505" lon="13.595519"><ele>878.0</ele><time>2026-05-01T08:07:34.825Z</time></trkpt><trkpt lat="42.6477671" lon="13.5956218"><ele>882.0</ele><time>2026-05-01T08:07:35.826Z</time></trkpt><trkpt lat="42.6478883" lon="13.5957121"><ele>882.0</ele><time>2026-05-01T08:07:36.825Z</time></trkpt><trkpt lat="42.6480321" lon="13.5957649"><ele>882.0</ele><time>2026-05-01T08:07:37.825Z</time></trkpt><trkpt lat="42.6481911" lon="13.5957883"><ele>882.0</ele><time>2026-05-01T08:07:38.825Z</time></trkpt><trkpt lat="42.6483532" lon="13.5958114"><ele>882.0</ele><time>2026-05-01T08:07:39.825Z</time></trkpt><trkpt lat="42.6485168" lon="13.5958438"><ele>882.0</ele><time>2026-05-01T08:07:40.825Z</time></trkpt><trkpt lat="42.6486775" lon="13.5958916"><ele>882.0</ele><time>2026-05-01T08:07:41.824Z</time></trkpt><trkpt lat="42.6488256" lon="13.5959418"><ele>882.75</ele><time>2026-05-01T08:07:42.824Z</time></trkpt><trkpt lat="42.6489674" lon="13.5959859"><ele>883.5</ele><time>2026-05-01T08:07:43.825Z</time></trkpt><trkpt lat="42.649097" lon="13.5960189"><ele>884.25</ele><time>2026-05-01T08:07:44.825Z</time></trkpt><trkpt lat="42.6492211" lon="13.5960103"><ele>885.0</ele><time>2026-05-01T08:07:45.825Z</time></trkpt><trkpt lat="42.649339" lon="13.5959865"><ele>885.0</ele><time>2026-05-01T08:07:46.825Z</time></trkpt><trkpt lat="42.6494472" lon="13.5958194"><ele>885.0</ele><time>2026-05-01T08:07:47.824Z</time></trkpt><trkpt lat="42.6495469" lon="13.5956725"><ele>885.0</ele><time>2026-05-01T08:07:48.825Z</time></trkpt><trkpt lat="42.6496387" lon="13.5955071"><ele>887.5</ele><time>2026-05-01T08:07:49.825Z</time></trkpt><trkpt lat="42.6496871" lon="13.5953128"><ele>890.0</ele><time>2026-05-01T08:07:50.824Z</time></trkpt><trkpt lat="42.649765" lon="13.5951476"><ele>892.5</ele><time>2026-05-01T08:07:51.825Z</time></trkpt><trkpt lat="42.6498354" lon="13.5949731"><ele>895.0</ele><time>2026-05-01T08:07:52.825Z</time></trkpt><trkpt lat="42.6498889" lon="13.5947994"><ele>895.0</ele><time>2026-05-01T08:07:53.826Z</time></trkpt><trkpt lat="42.6499478" lon="13.5946251"><ele>895.0</ele><time>2026-05-01T08:07:54.826Z</time></trkpt><trkpt lat="42.650011" lon="13.5944539"><ele>895.0</ele><time>2026-05-01T08:07:55.826Z</time></trkpt><trkpt lat="42.6500806" lon="13.5942775"><ele>895.0</ele><time>2026-05-01T08:07:56.824Z</time></trkpt><trkpt lat="42.6501578" lon="13.5941021"><ele>892.6666666666666</ele><time>2026-05-01T08:07:57.824Z</time></trkpt><trkpt lat="42.6502466" lon="13.5939291"><ele>890.3333333333333</ele><time>2026-05-01T08:07:58.825Z</time></trkpt><trkpt lat="42.6503537" lon="13.5937713"><ele>888.0</ele><time>2026-05-01T08:07:59.824Z</time></trkpt><trkpt lat="42.6504719" lon="13.5936333"><ele>888.0</ele><time>2026-05-01T08:08:00.824Z</time></trkpt><trkpt lat="42.6505925" lon="13.5935287"><ele>888.0</ele><time>2026-05-01T08:08:01.824Z</time></trkpt><trkpt lat="42.6507237" lon="13.5934583"><ele>888.0</ele><time>2026-05-01T08:08:02.824Z</time></trkpt><trkpt lat="42.6508646" lon="13.5934247"><ele>888.0</ele><time>2026-05-01T08:08:03.824Z</time></trkpt><trkpt lat="42.6510079" lon="13.5934138"><ele>891.0</ele><time>2026-05-01T08:08:04.825Z</time></trkpt><trkpt lat="42.6511502" lon="13.5934215"><ele>894.0</ele><time>2026-05-01T08:08:05.824Z</time></trkpt><trkpt lat="42.6512938" lon="13.5934161"><ele>897.0</ele><time>2026-05-01T08:08:06.825Z</time></trkpt><trkpt lat="42.6514364" lon="13.5933853"><ele>900.0</ele><time>2026-05-01T08:08:07.824Z</time></trkpt><trkpt lat="42.6515774" lon="13.5933365"><ele>900.0</ele><time>2026-05-01T08:08:08.824Z</time></trkpt><trkpt lat="42.6517107" lon="13.5932834"><ele>900.0</ele><time>2026-05-01T08:08:09.826Z</time></trkpt><trkpt lat="42.6518339" lon="13.5932159"><ele>900.0</ele><time>2026-05-01T08:08:10.826Z</time></trkpt><trkpt lat="42.6519583" lon="13.5931535"><ele>900.0</ele><time>2026-05-01T08:08:11.824Z</time></trkpt><trkpt lat="42.6520806" lon="13.5930956"><ele>899.25</ele><time>2026-05-01T08:08:12.825Z</time></trkpt><trkpt lat="42.6522084" lon="13.5930366"><ele>898.5</ele><time>2026-05-01T08:08:13.825Z</time></trkpt><trkpt lat="42.6523354" lon="13.5929659"><ele>897.75</ele><time>2026-05-01T08:08:14.826Z</time></trkpt><trkpt lat="42.6524563" lon="13.5928757"><ele>897.0</ele><time>2026-05-01T08:08:15.826Z</time></trkpt><trkpt lat="42.6525582" lon="13.5927783"><ele>897.0</ele><time>2026-05-01T08:08:16.825Z</time></trkpt><trkpt lat="42.6526483" lon="13.5926489"><ele>897.0</ele><time>2026-05-01T08:08:17.824Z</time></trkpt><trkpt lat="42.6527124" lon="13.5924863"><ele>897.0</ele><time>2026-05-01T08:08:18.825Z</time></trkpt><trkpt lat="42.6527643" lon="13.5923115"><ele>897.0</ele><time>2026-05-01T08:08:19.825Z</time></trkpt><trkpt lat="42.6528146" lon="13.5921341"><ele>901.25</ele><time>2026-05-01T08:08:20.825Z</time></trkpt><trkpt lat="42.6528737" lon="13.5919678"><ele>905.5</ele><time>2026-05-01T08:08:21.824Z</time></trkpt><trkpt lat="42.6529281" lon="13.5918094"><ele>909.75</ele><time>2026-05-01T08:08:22.825Z</time></trkpt><trkpt lat="42.6529819" lon="13.5916577"><ele>914.0</ele><time>2026-05-01T08:08:23.824Z</time></trkpt><trkpt lat="42.6530323" lon="13.591509"><ele>914.0</ele><time>2026-05-01T08:08:24.824Z</time></trkpt><trkpt lat="42.6530907" lon="13.5913567"><ele>914.0</ele><time>2026-05-01T08:08:25.824Z</time></trkpt><trkpt lat="42.6531645" lon="13.5912135"><ele>914.0</ele><time>2026-05-01T08:08:26.825Z</time></trkpt><trkpt lat="42.6532603" lon="13.5910844"><ele>914.0</ele><time>2026-05-01T08:08:27.825Z</time></trkpt><trkpt lat="42.653351" lon="13.5909697"><ele>913.0</ele><time>2026-05-01T08:08:28.825Z</time></trkpt><trkpt lat="42.6534353" lon="13.5908646"><ele>912.0</ele><time>2026-05-01T08:08:29.825Z</time></trkpt><trkpt lat="42.6535221" lon="13.590762"><ele>911.0</ele><time>2026-05-01T08:08:30.825Z</time></trkpt><trkpt lat="42.6536238" lon="13.5906855"><ele>910.0</ele><time>2026-05-01T08:08:31.825Z</time></trkpt><trkpt lat="42.6537419" lon="13.5906481"><ele>910.0</ele><time>2026-05-01T08:08:32.825Z</time></trkpt><trkpt lat="42.6538655" lon="13.5906417"><ele>910.0</ele><time>2026-05-01T08:08:33.826Z</time></trkpt><trkpt lat="42.6539896" lon="13.5906389"><ele>910.0</ele><time>2026-05-01T08:08:34.825Z</time></trkpt><trkpt lat="42.6541163" lon="13.5906487"><ele>910.0</ele><time>2026-05-01T08:08:35.824Z</time></trkpt><trkpt lat="42.6542353" lon="13.5906605"><ele>910.0</ele><time>2026-05-01T08:08:36.825Z</time></trkpt><trkpt lat="42.6543458" lon="13.5906901"><ele>910.0</ele><time>2026-05-01T08:08:37.824Z</time></trkpt><trkpt lat="42.6544587" lon="13.5907275"><ele>910.0</ele><time>2026-05-01T08:08:38.825Z</time></trkpt><trkpt lat="42.6545778" lon="13.5907518"><ele>910.0</ele><time>2026-05-01T08:08:39.825Z</time></trkpt><trkpt lat="42.654707" lon="13.590744"><ele>911.0</ele><time>2026-05-01T08:08:40.824Z</time></trkpt><trkpt lat="42.6548353" lon="13.590709"><ele>912.0</ele><time>2026-05-01T08:08:41.824Z</time></trkpt><trkpt lat="42.6549548" lon="13.5906556"><ele>913.0</ele><time>2026-05-01T08:08:42.825Z</time></trkpt><trkpt lat="42.6550562" lon="13.5905923"><ele>914.0</ele><time>2026-05-01T08:08:43.826Z</time></trkpt><trkpt lat="42.6551503" lon="13.5905043"><ele>914.0</ele><time>2026-05-01T08:08:44.826Z</time></trkpt><trkpt lat="42.6552275" lon="13.5903921"><ele>914.0</ele><time>2026-05-01T08:08:45.825Z</time></trkpt><trkpt lat="42.6553088" lon="13.5902783"><ele>914.0</ele><time>2026-05-01T08:08:46.824Z</time></trkpt><trkpt lat="42.655399" lon="13.5901842"><ele>914.0</ele><time>2026-05-01T08:08:47.825Z</time></trkpt><trkpt lat="42.6555084" lon="13.5901163"><ele>913.0</ele><time>2026-05-01T08:08:48.825Z</time></trkpt><trkpt lat="42.655617" lon="13.5900873"><ele>912.0000000000001</ele><time>2026-05-01T08:08:49.824Z</time></trkpt><trkpt lat="42.6557261" lon="13.590095"><ele>911.0000000000001</ele><time>2026-05-01T08:08:50.825Z</time></trkpt><trkpt lat="42.6558295" lon="13.5901454"><ele>910.0</ele><time>2026-05-01T08:08:51.826Z</time></trkpt><trkpt lat="42.6559171" lon="13.5902251"><ele>909.0</ele><time>2026-05-01T08:08:52.826Z</time></trkpt><trkpt lat="42.6559889" lon="13.5903284"><ele>911.0</ele><time>2026-05-01T08:08:53.826Z</time></trkpt><trkpt lat="42.6560516" lon="13.5904401"><ele>913.0000000000001</ele><time>2026-05-01T08:08:54.826Z</time></trkpt><trkpt lat="42.6561203" lon="13.59055"><ele>915.0000000000001</ele><time>2026-05-01T08:08:55.826Z</time></trkpt><trkpt lat="42.6562135" lon="13.5906348"><ele>917.0</ele><time>2026-05-01T08:08:56.825Z</time></trkpt><trkpt lat="42.6563233" lon="13.5906837"><ele>919.0</ele><time>2026-05-01T08:08:57.826Z</time></trkpt><trkpt lat="42.6564369" lon="13.5906897"><ele>919.25</ele><time>2026-05-01T08:08:58.825Z</time></trkpt><trkpt lat="42.6565508" lon="13.5906512"><ele>919.5</ele><time>2026-05-01T08:08:59.825Z</time></trkpt><trkpt lat="42.6566523" lon="13.5905729"><ele>919.75</ele><time>2026-05-01T08:09:00.825Z</time></trkpt><trkpt lat="42.6567522" lon="13.5904645"><ele>920.0</ele><time>2026-05-01T08:09:01.825Z</time></trkpt><trkpt lat="42.6568305" lon="13.5903327"><ele>919.25</ele><time>2026-05-01T08:09:02.826Z</time></trkpt><trkpt lat="42.6568788" lon="13.5901764"><ele>918.5</ele><time>2026-05-01T08:09:03.825Z</time></trkpt><trkpt lat="42.6568989" lon="13.5900032"><ele>917.75</ele><time>2026-05-01T08:09:04.824Z</time></trkpt><trkpt lat="42.6568889" lon="13.5898153"><ele>917.0</ele><time>2026-05-01T08:09:05.826Z</time></trkpt><trkpt lat="42.6568582" lon="13.5896377"><ele>918.75</ele><time>2026-05-01T08:09:06.826Z</time></trkpt><trkpt lat="42.6568099" lon="13.58948"><ele>920.5</ele><time>2026-05-01T08:09:07.824Z</time></trkpt><trkpt lat="42.6567594" lon="13.5893233"><ele>922.25</ele><time>2026-05-01T08:09:08.824Z</time></trkpt><trkpt lat="42.6567031" lon="13.5891725"><ele>924.0</ele><time>2026-05-01T08:09:09.825Z</time></trkpt><trkpt lat="42.6566481" lon="13.5890228"><ele>924.0</ele><time>2026-05-01T08:09:10.824Z</time></trkpt><trkpt lat="42.656581" lon="13.5888786"><ele>924.0</ele><time>2026-05-01T08:09:11.825Z</time></trkpt><trkpt lat="42.6565029" lon="13.5887402"><ele>924.0</ele><time>2026-05-01T08:09:12.824Z</time></trkpt><trkpt lat="42.6564134" lon="13.5886236"><ele>924.0</ele><time>2026-05-01T08:09:13.824Z</time></trkpt><trkpt lat="42.6563133" lon="13.588522"><ele>926.25</ele><time>2026-05-01T08:09:14.824Z</time></trkpt><trkpt lat="42.6562155" lon="13.5884124"><ele>928.5</ele><time>2026-05-01T08:09:15.825Z</time></trkpt><trkpt lat="42.6561412" lon="13.5882871"><ele>930.75</ele><time>2026-05-01T08:09:16.824Z</time></trkpt><trkpt lat="42.6561016" lon="13.588151"><ele>933.0</ele><time>2026-05-01T08:09:17.825Z</time></trkpt><trkpt lat="42.6560954" lon="13.5880137"><ele>933.0</ele><time>2026-05-01T08:09:18.826Z</time></trkpt><trkpt lat="42.6561336" lon="13.5878749"><ele>933.0</ele><time>2026-05-01T08:09:19.825Z</time></trkpt><trkpt lat="42.6561998" lon="13.587754"><ele>933.0</ele><time>2026-05-01T08:09:20.824Z</time></trkpt><trkpt lat="42.6562778" lon="13.5876448"><ele>933.0</ele><time>2026-05-01T08:09:21.825Z</time></trkpt><trkpt lat="42.6563627" lon="13.5875324"><ele>931.5</ele><time>2026-05-01T08:09:22.825Z</time></trkpt><trkpt lat="42.6564502" lon="13.5874045"><ele>930.0</ele><time>2026-05-01T08:09:23.826Z</time></trkpt><trkpt lat="42.6565445" lon="13.5872682"><ele>928.5</ele><time>2026-05-01T08:09:24.826Z</time></trkpt><trkpt lat="42.6566484" lon="13.5871337"><ele>927.0</ele><time>2026-05-01T08:09:25.826Z</time></trkpt><trkpt lat="42.6567566" lon="13.587006"><ele>924.0</ele><time>2026-05-01T08:09:26.825Z</time></trkpt><trkpt lat="42.6568709" lon="13.5868754"><ele>921.0</ele><time>2026-05-01T08:09:27.825Z</time></trkpt><trkpt lat="42.6569853" lon="13.5867397"><ele>918.0</ele><time>2026-05-01T08:09:28.826Z</time></trkpt><trkpt lat="42.657104" lon="13.5866065"><ele>921.0</ele><time>2026-05-01T08:09:29.825Z</time></trkpt><trkpt lat="42.6572198" lon="13.5864704"><ele>924.0</ele><time>2026-05-01T08:09:30.825Z</time></trkpt><trkpt lat="42.657331" lon="13.5863172"><ele>927.0</ele><time>2026-05-01T08:09:31.825Z</time></trkpt><trkpt lat="42.6574228" lon="13.5861298"><ele>927.0</ele><time>2026-05-01T08:09:32.825Z</time></trkpt><trkpt lat="42.6574988" lon="13.5859381"><ele>927.0</ele><time>2026-05-01T08:09:33.825Z</time></trkpt><trkpt lat="42.6575502" lon="13.5857482"><ele>927.0</ele><time>2026-05-01T08:09:34.825Z</time></trkpt><trkpt lat="42.6576012" lon="13.5855567"><ele>927.0</ele><time>2026-05-01T08:09:35.824Z</time></trkpt><trkpt lat="42.6576492" lon="13.5853745"><ele>927.0</ele><time>2026-05-01T08:09:36.826Z</time></trkpt><trkpt lat="42.6577029" lon="13.5851994"><ele>927.0</ele><time>2026-05-01T08:09:37.824Z</time></trkpt><trkpt lat="42.6577722" lon="13.5850438"><ele>927.0</ele><time>2026-05-01T08:09:38.825Z</time></trkpt><trkpt lat="42.6578653" lon="13.5849077"><ele>927.0</ele><time>2026-05-01T08:09:39.825Z</time></trkpt><trkpt lat="42.6579818" lon="13.5847899"><ele>927.0</ele><time>2026-05-01T08:09:40.825Z</time></trkpt><trkpt lat="42.6581068" lon="13.58469"><ele>927.0</ele><time>2026-05-01T08:09:41.825Z</time></trkpt><trkpt lat="42.6582307" lon="13.5845999"><ele>927.0</ele><time>2026-05-01T08:09:42.824Z</time></trkpt><trkpt lat="42.6583556" lon="13.5845103"><ele>927.0</ele><time>2026-05-01T08:09:43.825Z</time></trkpt><trkpt lat="42.6584923" lon="13.5843892"><ele>927.0</ele><time>2026-05-01T08:09:44.825Z</time></trkpt><trkpt lat="42.6586177" lon="13.584231"><ele>927.0</ele><time>2026-05-01T08:09:45.824Z</time></trkpt><trkpt lat="42.6587251" lon="13.584058"><ele>929.6666666666667</ele><time>2026-05-01T08:09:46.824Z</time></trkpt><trkpt lat="42.6588225" lon="13.5838817"><ele>932.3333333333334</ele><time>2026-05-01T08:09:47.825Z</time></trkpt><trkpt lat="42.6589171" lon="13.5836779"><ele>935.0</ele><time>2026-05-01T08:09:48.824Z</time></trkpt><trkpt lat="42.6590255" lon="13.5834764"><ele>935.0</ele><time>2026-05-01T08:09:49.825Z</time></trkpt><trkpt lat="42.6591289" lon="13.5832913"><ele>935.0</ele><time>2026-05-01T08:09:50.824Z</time></trkpt><trkpt lat="42.659221" lon="13.5831039"><ele>935.0</ele><time>2026-05-01T08:09:51.825Z</time></trkpt><trkpt lat="42.6593004" lon="13.5829181"><ele>933.0</ele><time>2026-05-01T08:09:52.826Z</time></trkpt><trkpt lat="42.6593715" lon="13.5827238"><ele>931.0</ele><time>2026-05-01T08:09:53.825Z</time></trkpt><trkpt lat="42.6594364" lon="13.5824835"><ele>929.0</ele><time>2026-05-01T08:09:54.825Z</time></trkpt><trkpt lat="42.6595072" lon="13.5822118"><ele>936.3333333333334</ele><time>2026-05-01T08:09:55.824Z</time></trkpt><trkpt lat="42.6595656" lon="13.5819314"><ele>943.6666666666667</ele><time>2026-05-01T08:09:56.824Z</time></trkpt><trkpt lat="42.6596132" lon="13.5816503"><ele>951.0</ele><time>2026-05-01T08:09:57.825Z</time></trkpt><trkpt lat="42.6596501" lon="13.5813842"><ele>952.0</ele><time>2026-05-01T08:09:58.825Z</time></trkpt><trkpt lat="42.659685" lon="13.5811301"><ele>953.0</ele><time>2026-05-01T08:09:59.825Z</time></trkpt><trkpt lat="42.6597174" lon="13.5808745"><ele>954.0</ele><time>2026-05-01T08:10:00.826Z</time></trkpt><trkpt lat="42.6597456" lon="13.5806195"><ele>954.0</ele><time>2026-05-01T08:10:01.824Z</time></trkpt><trkpt lat="42.6597518" lon="13.5803607"><ele>954.0</ele><time>2026-05-01T08:10:02.824Z</time></trkpt><trkpt lat="42.6597306" lon="13.5801074"><ele>954.0</ele><time>2026-05-01T08:10:03.825Z</time></trkpt><trkpt lat="42.6596943" lon="13.5798636"><ele>956.0</ele><time>2026-05-01T08:10:04.825Z</time></trkpt><trkpt lat="42.6596524" lon="13.5796389"><ele>958.0</ele><time>2026-05-01T08:10:05.826Z</time></trkpt><trkpt lat="42.6596089" lon="13.5794257"><ele>960.0</ele><time>2026-05-01T08:10:06.825Z</time></trkpt><trkpt lat="42.6595657" lon="13.5792283"><ele>962.75</ele><time>2026-05-01T08:10:07.825Z</time></trkpt><trkpt lat="42.659495" lon="13.5790546"><ele>965.5</ele><time>2026-05-01T08:10:08.824Z</time></trkpt><trkpt lat="42.659405" lon="13.5788976"><ele>968.25</ele><time>2026-05-01T08:10:09.825Z</time></trkpt><trkpt lat="42.6593118" lon="13.578734"><ele>971.0</ele><time>2026-05-01T08:10:10.826Z</time></trkpt><trkpt lat="42.6592405" lon="13.5785565"><ele>965.0</ele><time>2026-05-01T08:10:11.825Z</time></trkpt><trkpt lat="42.6591802" lon="13.5783777"><ele>959.0</ele><time>2026-05-01T08:10:12.825Z</time></trkpt><trkpt lat="42.6591358" lon="13.5781947"><ele>953.0</ele><time>2026-05-01T08:10:13.825Z</time></trkpt><trkpt lat="42.6590988" lon="13.5780057"><ele>947.0</ele><time>2026-05-01T08:10:14.824Z</time></trkpt><trkpt lat="42.6590694" lon="13.5778088"><ele>947.0</ele><time>2026-05-01T08:10:15.825Z</time></trkpt><trkpt lat="42.6590508" lon="13.5776197"><ele>947.0</ele><time>2026-05-01T08:10:16.824Z</time></trkpt><trkpt lat="42.6590513" lon="13.5774532"><ele>947.0</ele><time>2026-05-01T08:10:17.825Z</time></trkpt><trkpt lat="42.6590691" lon="13.5773045"><ele>947.0</ele><time>2026-05-01T08:10:18.824Z</time></trkpt><trkpt lat="42.6591157" lon="13.577181"><ele>947.0</ele><time>2026-05-01T08:10:19.826Z</time></trkpt><trkpt lat="42.6591894" lon="13.5770944"><ele>947.0</ele><time>2026-05-01T08:10:20.826Z</time></trkpt><trkpt lat="42.6592855" lon="13.5770528"><ele>947.0</ele><time>2026-05-01T08:10:21.826Z</time></trkpt><trkpt lat="42.6593956" lon="13.577049"><ele>947.0</ele><time>2026-05-01T08:10:22.826Z</time></trkpt><trkpt lat="42.6595051" lon="13.5770619"><ele>947.0</ele><time>2026-05-01T08:10:23.825Z</time></trkpt><trkpt lat="42.6596078" lon="13.5770735"><ele>948.4000000000001</ele><time>2026-05-01T08:10:24.826Z</time></trkpt><trkpt lat="42.6597005" lon="13.5770762"><ele>949.8000000000001</ele><time>2026-05-01T08:10:25.826Z</time></trkpt><trkpt lat="42.6597923" lon="13.5770601"><ele>951.2</ele><time>2026-05-01T08:10:26.824Z</time></trkpt><trkpt lat="42.6598789" lon="13.5770033"><ele>952.6</ele><time>2026-05-01T08:10:27.824Z</time></trkpt><trkpt lat="42.6599466" lon="13.5769004"><ele>954.0</ele><time>2026-05-01T08:10:28.824Z</time></trkpt><trkpt lat="42.6599982" lon="13.5767807"><ele>954.0</ele><time>2026-05-01T08:10:29.825Z</time></trkpt><trkpt lat="42.6600302" lon="13.5766446"><ele>954.0000000000001</ele><time>2026-05-01T08:10:30.825Z</time></trkpt><trkpt lat="42.6600611" lon="13.576507"><ele>954.0000000000001</ele><time>2026-05-01T08:10:31.824Z</time></trkpt><trkpt lat="42.6600918" lon="13.576365"><ele>954.0</ele><time>2026-05-01T08:10:32.825Z</time></trkpt><trkpt lat="42.6601162" lon="13.5762034"><ele>954.0</ele><time>2026-05-01T08:10:33.824Z</time></trkpt><trkpt lat="42.6601077" lon="13.5760444"><ele>952.8000000000001</ele><time>2026-05-01T08:10:34.825Z</time></trkpt><trkpt lat="42.6600908" lon="13.5758979"><ele>951.6000000000001</ele><time>2026-05-01T08:10:35.826Z</time></trkpt><trkpt lat="42.6600653" lon="13.5757573"><ele>950.4</ele><time>2026-05-01T08:10:36.826Z</time></trkpt><trkpt lat="42.6600332" lon="13.5756126"><ele>949.2</ele><time>2026-05-01T08:10:37.825Z</time></trkpt><trkpt lat="42.6600046" lon="13.5754693"><ele>948.0</ele><time>2026-05-01T08:10:38.824Z</time></trkpt><trkpt lat="42.6599943" lon="13.5753268"><ele>947.25</ele><time>2026-05-01T08:10:39.825Z</time></trkpt><trkpt lat="42.6599915" lon="13.5751685"><ele>946.5</ele><time>2026-05-01T08:10:40.825Z</time></trkpt><trkpt lat="42.6600187" lon="13.5749624"><ele>945.75</ele><time>2026-05-01T08:10:41.825Z</time></trkpt><trkpt lat="42.660042" lon="13.574747"><ele>945.0</ele><time>2026-05-01T08:10:42.825Z</time></trkpt><trkpt lat="42.660076" lon="13.5744986"><ele>942.6666666666667</ele><time>2026-05-01T08:10:43.824Z</time></trkpt><trkpt lat="42.6601484" lon="13.5742256"><ele>940.3333333333334</ele><time>2026-05-01T08:10:44.824Z</time></trkpt><trkpt lat="42.6602162" lon="13.573967"><ele>938.0</ele><time>2026-05-01T08:10:45.825Z</time></trkpt><trkpt lat="42.6602791" lon="13.5737143"><ele>933.3333333333334</ele><time>2026-05-01T08:10:46.825Z</time></trkpt><trkpt lat="42.6603381" lon="13.5734613"><ele>928.6666666666667</ele><time>2026-05-01T08:10:47.825Z</time></trkpt><trkpt lat="42.6603791" lon="13.5732226"><ele>924.0</ele><time>2026-05-01T08:10:48.825Z</time></trkpt><trkpt lat="42.6604063" lon="13.5729916"><ele>928.6666666666667</ele><time>2026-05-01T08:10:49.825Z</time></trkpt><trkpt lat="42.6604309" lon="13.5727668"><ele>933.3333333333334</ele><time>2026-05-01T08:10:50.824Z</time></trkpt><trkpt lat="42.6604528" lon="13.5725375"><ele>938.0</ele><time>2026-05-01T08:10:51.825Z</time></trkpt><trkpt lat="42.6604754" lon="13.5723075"><ele>938.0</ele><time>2026-05-01T08:10:52.825Z</time></trkpt><trkpt lat="42.6605043" lon="13.572073"><ele>938.0</ele><time>2026-05-01T08:10:53.824Z</time></trkpt><trkpt lat="42.6605427" lon="13.5718367"><ele>938.0</ele><time>2026-05-01T08:10:54.825Z</time></trkpt><trkpt lat="42.6605937" lon="13.5716102"><ele>941.3333333333334</ele><time>2026-05-01T08:10:55.824Z</time></trkpt><trkpt lat="42.6606539" lon="13.5713849"><ele>944.6666666666667</ele><time>2026-05-01T08:10:56.825Z</time></trkpt><trkpt lat="42.6607184" lon="13.5711607"><ele>948.0</ele><time>2026-05-01T08:10:57.826Z</time></trkpt><trkpt lat="42.6607906" lon="13.5709402"><ele>951.0</ele><time>2026-05-01T08:10:58.826Z</time></trkpt><trkpt lat="42.6608768" lon="13.5707424"><ele>954.0</ele><time>2026-05-01T08:10:59.825Z</time></trkpt><trkpt lat="42.6609774" lon="13.5705797"><ele>957.0</ele><time>2026-05-01T08:11:00.825Z</time></trkpt><trkpt lat="42.6610783" lon="13.570439"><ele>948.3333333333333</ele><time>2026-05-01T08:11:01.825Z</time></trkpt><trkpt lat="42.661164" lon="13.5702774"><ele>939.6666666666666</ele><time>2026-05-01T08:11:02.825Z</time></trkpt><trkpt lat="42.6612454" lon="13.5700929"><ele>931.0</ele><time>2026-05-01T08:11:03.824Z</time></trkpt><trkpt lat="42.6613059" lon="13.5699041"><ele>931.0</ele><time>2026-05-01T08:11:04.824Z</time></trkpt><trkpt lat="42.6612869" lon="13.5696461"><ele>931.0</ele><time>2026-05-01T08:11:05.825Z</time></trkpt><trkpt lat="42.6613426" lon="13.5694267"><ele>931.0</ele><time>2026-05-01T08:11:06.825Z</time></trkpt><trkpt lat="42.6614096" lon="13.5692137"><ele>940.3333333333333</ele><time>2026-05-01T08:11:07.825Z</time></trkpt><trkpt lat="42.661485" lon="13.5690226"><ele>949.6666666666667</ele><time>2026-05-01T08:11:08.825Z</time></trkpt><trkpt lat="42.6615613" lon="13.5688243"><ele>959.0</ele><time>2026-05-01T08:11:09.824Z</time></trkpt><trkpt lat="42.6616503" lon="13.5686509"><ele>956.0</ele><time>2026-05-01T08:11:10.826Z</time></trkpt><trkpt lat="42.6617387" lon="13.5684825"><ele>953.0</ele><time>2026-05-01T08:11:11.826Z</time></trkpt><trkpt lat="42.661838" lon="13.5683315"><ele>950.0</ele><time>2026-05-01T08:11:12.824Z</time></trkpt><trkpt lat="42.661938" lon="13.5682067"><ele>947.0</ele><time>2026-05-01T08:11:13.824Z</time></trkpt><trkpt lat="42.6620574" lon="13.5681008"><ele>947.0</ele><time>2026-05-01T08:11:14.825Z</time></trkpt><trkpt lat="42.6621668" lon="13.5679974"><ele>947.0</ele><time>2026-05-01T08:11:15.826Z</time></trkpt><trkpt lat="42.6622759" lon="13.5678868"><ele>947.0</ele><time>2026-05-01T08:11:16.826Z</time></trkpt><trkpt lat="42.6623791" lon="13.567745"><ele>947.0</ele><time>2026-05-01T08:11:17.824Z</time></trkpt><trkpt lat="42.6624397" lon="13.5675377"><ele>954.6666666666667</ele><time>2026-05-01T08:11:18.825Z</time></trkpt><trkpt lat="42.6625116" lon="13.5673294"><ele>962.3333333333333</ele><time>2026-05-01T08:11:19.824Z</time></trkpt><trkpt lat="42.662629" lon="13.5671632"><ele>970.0</ele><time>2026-05-01T08:11:20.825Z</time></trkpt><trkpt lat="42.6627493" lon="13.5670061"><ele>970.3333333333333</ele><time>2026-05-01T08:11:21.826Z</time></trkpt><trkpt lat="42.662879" lon="13.5668483"><ele>970.6666666666667</ele><time>2026-05-01T08:11:22.825Z</time></trkpt><trkpt lat="42.6630148" lon="13.5667044"><ele>971.0</ele><time>2026-05-01T08:11:23.826Z</time></trkpt><trkpt lat="42.6631503" lon="13.5665596"><ele>971.0</ele><time>2026-05-01T08:11:24.824Z</time></trkpt><trkpt lat="42.6632859" lon="13.5664153"><ele>971.0</ele><time>2026-05-01T08:11:25.825Z</time></trkpt><trkpt lat="42.6634185" lon="13.5662605"><ele>971.0</ele><time>2026-05-01T08:11:26.825Z</time></trkpt><trkpt lat="42.6635406" lon="13.5660821"><ele>968.6666666666667</ele><time>2026-05-01T08:11:27.825Z</time></trkpt><trkpt lat="42.6636409" lon="13.565879"><ele>966.3333333333333</ele><time>2026-05-01T08:11:28.824Z</time></trkpt><trkpt lat="42.6637296" lon="13.5656644"><ele>964.0</ele><time>2026-05-01T08:11:29.826Z</time></trkpt><trkpt lat="42.6638107" lon="13.5654421"><ele>965.0</ele><time>2026-05-01T08:11:30.824Z</time></trkpt><trkpt lat="42.6638969" lon="13.5652341"><ele>966.0</ele><time>2026-05-01T08:11:31.825Z</time></trkpt><trkpt lat="42.6639877" lon="13.5650391"><ele>967.0</ele><time>2026-05-01T08:11:32.825Z</time></trkpt><trkpt lat="42.6640838" lon="13.564865"><ele>967.0</ele><time>2026-05-01T08:11:33.826Z</time></trkpt><trkpt lat="42.6641917" lon="13.5647079"><ele>967.0</ele><time>2026-05-01T08:11:34.825Z</time></trkpt><trkpt lat="42.6643029" lon="13.5645722"><ele>967.0</ele><time>2026-05-01T08:11:35.825Z</time></trkpt><trkpt lat="42.6644241" lon="13.5644686"><ele>968.25</ele><time>2026-05-01T08:11:36.825Z</time></trkpt><trkpt lat="42.6645529" lon="13.5644045"><ele>969.5</ele><time>2026-05-01T08:11:37.825Z</time></trkpt><trkpt lat="42.6646928" lon="13.5643736"><ele>970.75</ele><time>2026-05-01T08:11:38.826Z</time></trkpt><trkpt lat="42.6648441" lon="13.5643613"><ele>972.0</ele><time>2026-05-01T08:11:39.826Z</time></trkpt><trkpt lat="42.6650013" lon="13.5643406"><ele>972.0</ele><time>2026-05-01T08:11:40.825Z</time></trkpt><trkpt lat="42.6651588" lon="13.5643245"><ele>972.0</ele><time>2026-05-01T08:11:41.824Z</time></trkpt><trkpt lat="42.6653098" lon="13.5642995"><ele>972.0</ele><time>2026-05-01T08:11:42.824Z</time></trkpt><trkpt lat="42.6654569" lon="13.5642706"><ele>968.75</ele><time>2026-05-01T08:11:43.825Z</time></trkpt><trkpt lat="42.6655929" lon="13.5642208"><ele>965.5</ele><time>2026-05-01T08:11:44.825Z</time></trkpt><trkpt lat="42.6657264" lon="13.5641302"><ele>962.25</ele><time>2026-05-01T08:11:45.824Z</time></trkpt><trkpt lat="42.6658507" lon="13.5639965"><ele>959.0</ele><time>2026-05-01T08:11:46.824Z</time></trkpt><trkpt lat="42.6659705" lon="13.5638385"><ele>963.3333333333334</ele><time>2026-05-01T08:11:47.825Z</time></trkpt><trkpt lat="42.6660961" lon="13.5636629"><ele>967.6666666666667</ele><time>2026-05-01T08:11:48.824Z</time></trkpt><trkpt lat="42.6662158" lon="13.5634711"><ele>972.0</ele><time>2026-05-01T08:11:49.825Z</time></trkpt><trkpt lat="42.6663388" lon="13.5632677"><ele>965.6666666666667</ele><time>2026-05-01T08:11:50.825Z</time></trkpt><trkpt lat="42.6664373" lon="13.5630243"><ele>959.3333333333334</ele><time>2026-05-01T08:11:51.825Z</time></trkpt><trkpt lat="42.6665457" lon="13.5627752"><ele>953.0</ele><time>2026-05-01T08:11:52.826Z</time></trkpt><trkpt lat="42.6666482" lon="13.5625192"><ele>953.0</ele><time>2026-05-01T08:11:53.825Z</time></trkpt><trkpt lat="42.6667533" lon="13.5622592"><ele>953.0</ele><time>2026-05-01T08:11:54.825Z</time></trkpt><trkpt lat="42.6668526" lon="13.5619988"><ele>953.0</ele><time>2026-05-01T08:11:55.825Z</time></trkpt><trkpt lat="42.6669514" lon="13.5617372"><ele>950.6666666666667</ele><time>2026-05-01T08:11:56.825Z</time></trkpt><trkpt lat="42.6670507" lon="13.5614753"><ele>948.3333333333333</ele><time>2026-05-01T08:11:57.825Z</time></trkpt><trkpt lat="42.6671472" lon="13.5612144"><ele>946.0</ele><time>2026-05-01T08:11:58.824Z</time></trkpt><trkpt lat="42.6672449" lon="13.5609597"><ele>946.0</ele><time>2026-05-01T08:11:59.824Z</time></trkpt><trkpt lat="42.6673461" lon="13.5607109"><ele>946.0</ele><time>2026-05-01T08:12:00.826Z</time></trkpt><trkpt lat="42.6674519" lon="13.5604646"><ele>946.0</ele><time>2026-05-01T08:12:01.826Z</time></trkpt><trkpt lat="42.6675614" lon="13.5602314"><ele>946.3333333333333</ele><time>2026-05-01T08:12:02.826Z</time></trkpt><trkpt lat="42.6676789" lon="13.5600085"><ele>946.6666666666667</ele><time>2026-05-01T08:12:03.825Z</time></trkpt><trkpt lat="42.6678087" lon="13.5597952"><ele>947.0</ele><time>2026-05-01T08:12:04.825Z</time></trkpt><trkpt lat="42.6679445" lon="13.5595897"><ele>946.3333333333334</ele><time>2026-05-01T08:12:05.825Z</time></trkpt><trkpt lat="42.6680837" lon="13.5593852"><ele>945.6666666666667</ele><time>2026-05-01T08:12:06.825Z</time></trkpt><trkpt lat="42.6682165" lon="13.5591906"><ele>945.0</ele><time>2026-05-01T08:12:07.824Z</time></trkpt><trkpt lat="42.6683454" lon="13.5590064"><ele>945.0</ele><time>2026-05-01T08:12:08.824Z</time></trkpt><trkpt lat="42.6684703" lon="13.5588318"><ele>945.0</ele><time>2026-05-01T08:12:09.824Z</time></trkpt><trkpt lat="42.6685893" lon="13.5586638"><ele>945.0</ele><time>2026-05-01T08:12:10.826Z</time></trkpt><trkpt lat="42.66869" lon="13.5584841"><ele>943.0</ele><time>2026-05-01T08:12:11.825Z</time></trkpt><trkpt lat="42.6687619" lon="13.558285"><ele>941.0</ele><time>2026-05-01T08:12:12.825Z</time></trkpt><trkpt lat="42.6688167" lon="13.5580794"><ele>939.0</ele><time>2026-05-01T08:12:13.824Z</time></trkpt><trkpt lat="42.6688543" lon="13.5578683"><ele>938.3333333333333</ele><time>2026-05-01T08:12:14.825Z</time></trkpt><trkpt lat="42.6688693" lon="13.5576424"><ele>937.6666666666666</ele><time>2026-05-01T08:12:15.825Z</time></trkpt><trkpt lat="42.6688506" lon="13.5574017"><ele>937.0</ele><time>2026-05-01T08:12:16.824Z</time></trkpt><trkpt lat="42.6688037" lon="13.5571431"><ele>935.6666666666666</ele><time>2026-05-01T08:12:17.825Z</time></trkpt><trkpt lat="42.668747" lon="13.5568815"><ele>934.3333333333333</ele><time>2026-05-01T08:12:18.825Z</time></trkpt><trkpt lat="42.6686873" lon="13.5566082"><ele>933.0</ele><time>2026-05-01T08:12:19.825Z</time></trkpt><trkpt lat="42.6686265" lon="13.5563369"><ele>938.0</ele><time>2026-05-01T08:12:20.826Z</time></trkpt><trkpt lat="42.6685653" lon="13.5560738"><ele>943.0</ele><time>2026-05-01T08:12:21.824Z</time></trkpt><trkpt lat="42.6684583" lon="13.5555691"><ele>945.6666666666666</ele><time>2026-05-01T08:12:23.825Z</time></trkpt><trkpt lat="42.6684132" lon="13.5553412"><ele>948.3333333333333</ele><time>2026-05-01T08:12:24.825Z</time></trkpt><trkpt lat="42.6683686" lon="13.5551279"><ele>951.0</ele><time>2026-05-01T08:12:25.824Z</time></trkpt><trkpt lat="42.6683273" lon="13.5549297"><ele>951.0</ele><time>2026-05-01T08:12:26.825Z</time></trkpt><trkpt lat="42.6683025" lon="13.554734"><ele>951.0</ele><time>2026-05-01T08:12:27.825Z</time></trkpt><trkpt lat="42.6683011" lon="13.5545506"><ele>951.0</ele><time>2026-05-01T08:12:28.825Z</time></trkpt><trkpt lat="42.668326" lon="13.5543704"><ele>951.0</ele><time>2026-05-01T08:12:29.825Z</time></trkpt><trkpt lat="42.6683723" lon="13.5541798"><ele>953.6666666666667</ele><time>2026-05-01T08:12:30.826Z</time></trkpt><trkpt lat="42.6684367" lon="13.5539768"><ele>956.3333333333334</ele><time>2026-05-01T08:12:31.826Z</time></trkpt><trkpt lat="42.6685132" lon="13.5537678"><ele>959.0</ele><time>2026-05-01T08:12:32.824Z</time></trkpt><trkpt lat="42.66859" lon="13.5535604"><ele>956.0</ele><time>2026-05-01T08:12:33.825Z</time></trkpt><trkpt lat="42.6686611" lon="13.5533566"><ele>953.0</ele><time>2026-05-01T08:12:34.824Z</time></trkpt><trkpt lat="42.6687226" lon="13.5531441"><ele>950.0</ele><time>2026-05-01T08:12:35.824Z</time></trkpt><trkpt lat="42.6687958" lon="13.5529232"><ele>954.3333333333334</ele><time>2026-05-01T08:12:36.825Z</time></trkpt><trkpt lat="42.668883" lon="13.5527024"><ele>958.6666666666667</ele><time>2026-05-01T08:12:37.825Z</time></trkpt><trkpt lat="42.6689706" lon="13.5524846"><ele>963.0</ele><time>2026-05-01T08:12:38.825Z</time></trkpt><trkpt lat="42.6690541" lon="13.5522658"><ele>963.0</ele><time>2026-05-01T08:12:39.825Z</time></trkpt><trkpt lat="42.6691378" lon="13.5520505"><ele>963.0</ele><time>2026-05-01T08:12:40.825Z</time></trkpt><trkpt lat="42.6692269" lon="13.5518441"><ele>963.0</ele><time>2026-05-01T08:12:41.825Z</time></trkpt><trkpt lat="42.6693227" lon="13.5516479"><ele>965.0</ele><time>2026-05-01T08:12:42.824Z</time></trkpt><trkpt lat="42.6694165" lon="13.5514787"><ele>967.0</ele><time>2026-05-01T08:12:43.825Z</time></trkpt><trkpt lat="42.6695087" lon="13.5513322"><ele>969.0</ele><time>2026-05-01T08:12:44.824Z</time></trkpt><trkpt lat="42.6695919" lon="13.5511868"><ele>971.0</ele><time>2026-05-01T08:12:45.824Z</time></trkpt><trkpt lat="42.669673" lon="13.5510356"><ele>972.5</ele><time>2026-05-01T08:12:46.825Z</time></trkpt><trkpt lat="42.6697498" lon="13.550889"><ele>974.0</ele><time>2026-05-01T08:12:47.826Z</time></trkpt><trkpt lat="42.669823" lon="13.5507389"><ele>975.5</ele><time>2026-05-01T08:12:48.824Z</time></trkpt><trkpt lat="42.6698823" lon="13.5505829"><ele>977.0</ele><time>2026-05-01T08:12:49.824Z</time></trkpt><trkpt lat="42.6699298" lon="13.5504183"><ele>976.75</ele><time>2026-05-01T08:12:50.826Z</time></trkpt><trkpt lat="42.6699611" lon="13.5502432"><ele>976.5</ele><time>2026-05-01T08:12:51.826Z</time></trkpt><trkpt lat="42.6699817" lon="13.550066"><ele>976.25</ele><time>2026-05-01T08:12:52.825Z</time></trkpt><trkpt lat="42.6700042" lon="13.5498986"><ele>976.0</ele><time>2026-05-01T08:12:53.824Z</time></trkpt><trkpt lat="42.6700365" lon="13.5497458"><ele>976.0</ele><time>2026-05-01T08:12:54.824Z</time></trkpt><trkpt lat="42.670086" lon="13.5496169"><ele>976.0</ele><time>2026-05-01T08:12:55.826Z</time></trkpt><trkpt lat="42.670167" lon="13.5495111"><ele>976.0</ele><time>2026-05-01T08:12:56.824Z</time></trkpt><trkpt lat="42.6702728" lon="13.5494287"><ele>976.0</ele><time>2026-05-01T08:12:57.826Z</time></trkpt><trkpt lat="42.6703919" lon="13.5493714"><ele>976.5</ele><time>2026-05-01T08:12:58.824Z</time></trkpt><trkpt lat="42.670512" lon="13.5493174"><ele>977.0</ele><time>2026-05-01T08:12:59.825Z</time></trkpt><trkpt lat="42.670627" lon="13.5492675"><ele>977.5</ele><time>2026-05-01T08:13:00.826Z</time></trkpt><trkpt lat="42.6707303" lon="13.5492052"><ele>978.0</ele><time>2026-05-01T08:13:01.825Z</time></trkpt><trkpt lat="42.670828" lon="13.5491297"><ele>978.0</ele><time>2026-05-01T08:13:02.826Z</time></trkpt><trkpt lat="42.6709179" lon="13.5490169"><ele>978.0</ele><time>2026-05-01T08:13:03.825Z</time></trkpt><trkpt lat="42.6709983" lon="13.5488816"><ele>978.0</ele><time>2026-05-01T08:13:04.826Z</time></trkpt><trkpt lat="42.6710754" lon="13.548673"><ele>978.0</ele><time>2026-05-01T08:13:05.825Z</time></trkpt><trkpt lat="42.6711518" lon="13.5484695"><ele>977.6666666666667</ele><time>2026-05-01T08:13:06.825Z</time></trkpt><trkpt lat="42.67123" lon="13.5482713"><ele>977.3333333333334</ele><time>2026-05-01T08:13:07.825Z</time></trkpt><trkpt lat="42.6713055" lon="13.5480836"><ele>977.0</ele><time>2026-05-01T08:13:08.825Z</time></trkpt><trkpt lat="42.6713694" lon="13.5478955"><ele>982.6666666666667</ele><time>2026-05-01T08:13:09.824Z</time></trkpt><trkpt lat="42.6714218" lon="13.5476996"><ele>988.3333333333333</ele><time>2026-05-01T08:13:10.825Z</time></trkpt><trkpt lat="42.6714041" lon="13.5474729"><ele>994.0</ele><time>2026-05-01T08:13:11.825Z</time></trkpt><trkpt lat="42.671373" lon="13.547252"><ele>997.3333333333333</ele><time>2026-05-01T08:13:12.824Z</time></trkpt><trkpt lat="42.6713343" lon="13.5470392"><ele>1000.6666666666667</ele><time>2026-05-01T08:13:13.825Z</time></trkpt><trkpt lat="42.6713065" lon="13.5468329"><ele>1004.0</ele><time>2026-05-01T08:13:14.825Z</time></trkpt><trkpt lat="42.6712946" lon="13.5466377"><ele>1004.0</ele><time>2026-05-01T08:13:15.824Z</time></trkpt><trkpt lat="42.6713034" lon="13.5464622"><ele>1004.0</ele><time>2026-05-01T08:13:16.825Z</time></trkpt><trkpt lat="42.671336" lon="13.5463111"><ele>1004.0</ele><time>2026-05-01T08:13:17.825Z</time></trkpt><trkpt lat="42.6714036" lon="13.5461852"><ele>1004.0</ele><time>2026-05-01T08:13:18.826Z</time></trkpt><trkpt lat="42.6715005" lon="13.5460856"><ele>1005.5</ele><time>2026-05-01T08:13:19.826Z</time></trkpt><trkpt lat="42.6716254" lon="13.5460093"><ele>1007.0</ele><time>2026-05-01T08:13:20.826Z</time></trkpt><trkpt lat="42.6717615" lon="13.5459295"><ele>1008.5</ele><time>2026-05-01T08:13:21.824Z</time></trkpt><trkpt lat="42.6719113" lon="13.5458428"><ele>1010.0</ele><time>2026-05-01T08:13:22.825Z</time></trkpt><trkpt lat="42.6720485" lon="13.5457407"><ele>1010.0</ele><time>2026-05-01T08:13:23.825Z</time></trkpt><trkpt lat="42.6721831" lon="13.5456219"><ele>1010.0</ele><time>2026-05-01T08:13:24.826Z</time></trkpt><trkpt lat="42.6723164" lon="13.5454973"><ele>1010.0</ele><time>2026-05-01T08:13:25.826Z</time></trkpt><trkpt lat="42.67246" lon="13.5454068"><ele>1012.75</ele><time>2026-05-01T08:13:26.825Z</time></trkpt><trkpt lat="42.6726" lon="13.5453451"><ele>1015.5</ele><time>2026-05-01T08:13:27.825Z</time></trkpt><trkpt lat="42.6727251" lon="13.5452825"><ele>1018.25</ele><time>2026-05-01T08:13:28.824Z</time></trkpt><trkpt lat="42.6728253" lon="13.545184"><ele>1021.0</ele><time>2026-05-01T08:13:29.825Z</time></trkpt><trkpt lat="42.6729094" lon="13.5450497"><ele>1021.0</ele><time>2026-05-01T08:13:30.826Z</time></trkpt><trkpt lat="42.6729592" lon="13.5448879"><ele>1021.0</ele><time>2026-05-01T08:13:31.825Z</time></trkpt><trkpt lat="42.6730166" lon="13.5447283"><ele>1021.0</ele><time>2026-05-01T08:13:32.825Z</time></trkpt><trkpt lat="42.6731077" lon="13.544593"><ele>1021.0</ele><time>2026-05-01T08:13:33.825Z</time></trkpt><trkpt lat="42.6731998" lon="13.544467"><ele>1019.75</ele><time>2026-05-01T08:13:34.826Z</time></trkpt><trkpt lat="42.6732782" lon="13.5443121"><ele>1018.5</ele><time>2026-05-01T08:13:35.826Z</time></trkpt><trkpt lat="42.6733321" lon="13.5441502"><ele>1017.25</ele><time>2026-05-01T08:13:36.826Z</time></trkpt><trkpt lat="42.6733585" lon="13.5439951"><ele>1016.0</ele><time>2026-05-01T08:13:37.825Z</time></trkpt><trkpt lat="42.6733399" lon="13.5438357"><ele>1015.0</ele><time>2026-05-01T08:13:38.825Z</time></trkpt><trkpt lat="42.673294" lon="13.543679"><ele>1014.0</ele><time>2026-05-01T08:13:39.826Z</time></trkpt><trkpt lat="42.673255" lon="13.5435154"><ele>1013.0</ele><time>2026-05-01T08:13:40.826Z</time></trkpt><trkpt lat="42.6732531" lon="13.543352"><ele>1012.0</ele><time>2026-05-01T08:13:41.826Z</time></trkpt><trkpt lat="42.6732841" lon="13.5431907"><ele>1012.0</ele><time>2026-05-01T08:13:42.826Z</time></trkpt><trkpt lat="42.6733384" lon="13.5430252"><ele>1012.0</ele><time>2026-05-01T08:13:43.826Z</time></trkpt><trkpt lat="42.6733663" lon="13.5428517"><ele>1012.0</ele><time>2026-05-01T08:13:44.825Z</time></trkpt><trkpt lat="42.6733538" lon="13.5426829"><ele>1012.0</ele><time>2026-05-01T08:13:45.826Z</time></trkpt><trkpt lat="42.6733087" lon="13.5425212"><ele>1012.0</ele><time>2026-05-01T08:13:46.826Z</time></trkpt><trkpt lat="42.6733055" lon="13.5423646"><ele>1012.0</ele><time>2026-05-01T08:13:47.825Z</time></trkpt><trkpt lat="42.6733367" lon="13.5422256"><ele>1012.0</ele><time>2026-05-01T08:13:48.825Z</time></trkpt><trkpt lat="42.6734" lon="13.5421064"><ele>1012.0</ele><time>2026-05-01T08:13:49.825Z</time></trkpt><trkpt lat="42.6734595" lon="13.5419839"><ele>1012.0</ele><time>2026-05-01T08:13:50.826Z</time></trkpt><trkpt lat="42.6735036" lon="13.5418329"><ele>1012.0</ele><time>2026-05-01T08:13:51.826Z</time></trkpt><trkpt lat="42.6735021" lon="13.5416613"><ele>1012.0</ele><time>2026-05-01T08:13:52.825Z</time></trkpt><trkpt lat="42.6734911" lon="13.5414789"><ele>1012.0</ele><time>2026-05-01T08:13:53.825Z</time></trkpt><trkpt lat="42.6733768" lon="13.5412995"><ele>1012.0</ele><time>2026-05-01T08:13:54.825Z</time></trkpt><trkpt lat="42.673279" lon="13.5411476"><ele>1014.25</ele><time>2026-05-01T08:13:55.825Z</time></trkpt><trkpt lat="42.6731878" lon="13.5410073"><ele>1016.5</ele><time>2026-05-01T08:13:56.824Z</time></trkpt><trkpt lat="42.6731145" lon="13.5408711"><ele>1018.75</ele><time>2026-05-01T08:13:57.825Z</time></trkpt><trkpt lat="42.6730629" lon="13.5407396"><ele>1021.0</ele><time>2026-05-01T08:13:58.824Z</time></trkpt><trkpt lat="42.6730482" lon="13.5406076"><ele>1021.0</ele><time>2026-05-01T08:13:59.824Z</time></trkpt><trkpt lat="42.6730678" lon="13.54049"><ele>1020.9999999999999</ele><time>2026-05-01T08:14:00.825Z</time></trkpt><trkpt lat="42.673128" lon="13.5403938"><ele>1020.9999999999999</ele><time>2026-05-01T08:14:01.824Z</time></trkpt><trkpt lat="42.6732241" lon="13.5403366"><ele>1021.0</ele><time>2026-05-01T08:14:02.825Z</time></trkpt><trkpt lat="42.67335" lon="13.5403184"><ele>1021.0</ele><time>2026-05-01T08:14:03.825Z</time></trkpt><trkpt lat="42.6734947" lon="13.5403298"><ele>1019.3333333333333</ele><time>2026-05-01T08:14:04.826Z</time></trkpt><trkpt lat="42.6736427" lon="13.5403508"><ele>1017.6666666666667</ele><time>2026-05-01T08:14:05.826Z</time></trkpt><trkpt lat="42.6738221" lon="13.540363"><ele>1016.0</ele><time>2026-05-01T08:14:06.826Z</time></trkpt><trkpt lat="42.6739936" lon="13.5403731"><ele>1016.0</ele><time>2026-05-01T08:14:07.826Z</time></trkpt><trkpt lat="42.67416" lon="13.5403721"><ele>1016.0</ele><time>2026-05-01T08:14:08.824Z</time></trkpt><trkpt lat="42.6743177" lon="13.5403763"><ele>1016.0</ele><time>2026-05-01T08:14:09.825Z</time></trkpt><trkpt lat="42.6744659" lon="13.5403856"><ele>1020.25</ele><time>2026-05-01T08:14:10.826Z</time></trkpt><trkpt lat="42.6746027" lon="13.5403813"><ele>1024.5</ele><time>2026-05-01T08:14:11.824Z</time></trkpt><trkpt lat="42.6747175" lon="13.5403071"><ele>1028.75</ele><time>2026-05-01T08:14:12.824Z</time></trkpt><trkpt lat="42.6748209" lon="13.5401974"><ele>1033.0</ele><time>2026-05-01T08:14:13.825Z</time></trkpt><trkpt lat="42.674888" lon="13.5400524"><ele>1033.0</ele><time>2026-05-01T08:14:14.824Z</time></trkpt><trkpt lat="42.6749264" lon="13.5398935"><ele>1033.0</ele><time>2026-05-01T08:14:15.825Z</time></trkpt><trkpt lat="42.6749382" lon="13.5397376"><ele>1033.0</ele><time>2026-05-01T08:14:16.825Z</time></trkpt><trkpt lat="42.6749488" lon="13.5395888"><ele>1033.0</ele><time>2026-05-01T08:14:17.824Z</time></trkpt><trkpt lat="42.6749883" lon="13.5394453"><ele>1034.75</ele><time>2026-05-01T08:14:18.824Z</time></trkpt><trkpt lat="42.6750498" lon="13.5393226"><ele>1036.5</ele><time>2026-05-01T08:14:19.825Z</time></trkpt><trkpt lat="42.6751398" lon="13.5392263"><ele>1038.25</ele><time>2026-05-01T08:14:20.824Z</time></trkpt><trkpt lat="42.6752525" lon="13.5391676"><ele>1040.0</ele><time>2026-05-01T08:14:21.825Z</time></trkpt><trkpt lat="42.675381" lon="13.5391469"><ele>1040.0</ele><time>2026-05-01T08:14:22.825Z</time></trkpt><trkpt lat="42.6755126" lon="13.5391504"><ele>1040.0</ele><time>2026-05-01T08:14:23.824Z</time></trkpt><trkpt lat="42.6756414" lon="13.5391678"><ele>1040.0</ele><time>2026-05-01T08:14:24.824Z</time></trkpt><trkpt lat="42.675759" lon="13.5392043"><ele>1040.0</ele><time>2026-05-01T08:14:25.825Z</time></trkpt><trkpt lat="42.6758714" lon="13.5392276"><ele>1040.0</ele><time>2026-05-01T08:14:26.825Z</time></trkpt><trkpt lat="42.6759854" lon="13.5392127"><ele>1040.0</ele><time>2026-05-01T08:14:27.825Z</time></trkpt><trkpt lat="42.6760942" lon="13.5391577"><ele>1040.0</ele><time>2026-05-01T08:14:28.825Z</time></trkpt><trkpt lat="42.6761855" lon="13.5390086"><ele>1040.0</ele><time>2026-05-01T08:14:29.825Z</time></trkpt><trkpt lat="42.6762957" lon="13.5388476"><ele>1038.25</ele><time>2026-05-01T08:14:30.825Z</time></trkpt><trkpt lat="42.6764004" lon="13.5387224"><ele>1036.5</ele><time>2026-05-01T08:14:31.825Z</time></trkpt><trkpt lat="42.6765194" lon="13.5386073"><ele>1034.75</ele><time>2026-05-01T08:14:32.825Z</time></trkpt><trkpt lat="42.6766649" lon="13.538524"><ele>1033.0</ele><time>2026-05-01T08:14:33.825Z</time></trkpt><trkpt lat="42.6768199" lon="13.538457"><ele>1038.6666666666665</ele><time>2026-05-01T08:14:34.824Z</time></trkpt><trkpt lat="42.6769819" lon="13.538398"><ele>1044.3333333333333</ele><time>2026-05-01T08:14:35.825Z</time></trkpt><trkpt lat="42.6771556" lon="13.5383487"><ele>1050.0</ele><time>2026-05-01T08:14:36.825Z</time></trkpt><trkpt lat="42.6773316" lon="13.538314"><ele>1050.0</ele><time>2026-05-01T08:14:37.825Z</time></trkpt><trkpt lat="42.6774949" lon="13.5382901"><ele>1050.0</ele><time>2026-05-01T08:14:38.825Z</time></trkpt><trkpt lat="42.6776524" lon="13.5382526"><ele>1050.0</ele><time>2026-05-01T08:14:39.826Z</time></trkpt><trkpt lat="42.6777996" lon="13.5381894"><ele>1052.75</ele><time>2026-05-01T08:14:40.825Z</time></trkpt><trkpt lat="42.6779443" lon="13.5381178"><ele>1055.5</ele><time>2026-05-01T08:14:41.825Z</time></trkpt><trkpt lat="42.6780289" lon="13.5379974"><ele>1058.25</ele><time>2026-05-01T08:14:42.824Z</time></trkpt><trkpt lat="42.6781045" lon="13.5378693"><ele>1061.0</ele><time>2026-05-01T08:14:43.825Z</time></trkpt><trkpt lat="42.6781494" lon="13.5377296"><ele>1061.0</ele><time>2026-05-01T08:14:44.825Z</time></trkpt><trkpt lat="42.6781372" lon="13.5375512"><ele>1061.0</ele><time>2026-05-01T08:14:45.826Z</time></trkpt><trkpt lat="42.6780995" lon="13.5373667"><ele>1061.0</ele><time>2026-05-01T08:14:46.824Z</time></trkpt><trkpt lat="42.6780563" lon="13.5371881"><ele>1061.0</ele><time>2026-05-01T08:14:47.825Z</time></trkpt><trkpt lat="42.6780253" lon="13.537005"><ele>1059.8</ele><time>2026-05-01T08:14:48.825Z</time></trkpt><trkpt lat="42.6780126" lon="13.5368347"><ele>1058.6</ele><time>2026-05-01T08:14:49.824Z</time></trkpt><trkpt lat="42.6780257" lon="13.5366825"><ele>1057.4</ele><time>2026-05-01T08:14:50.823Z</time></trkpt><trkpt lat="42.6780636" lon="13.5365595"><ele>1056.2</ele><time>2026-05-01T08:14:51.823Z</time></trkpt><trkpt lat="42.6781438" lon="13.5364533"><ele>1055.0</ele><time>2026-05-01T08:14:52.824Z</time></trkpt><trkpt lat="42.6782461" lon="13.5363872"><ele>1055.0</ele><time>2026-05-01T08:14:53.824Z</time></trkpt><trkpt lat="42.6783673" lon="13.5363667"><ele>1055.0</ele><time>2026-05-01T08:14:54.825Z</time></trkpt><trkpt lat="42.6784917" lon="13.5363709"><ele>1055.0</ele><time>2026-05-01T08:14:55.824Z</time></trkpt><trkpt lat="42.6786115" lon="13.5363372"><ele>1055.0</ele><time>2026-05-01T08:14:56.824Z</time></trkpt><trkpt lat="42.6787309" lon="13.5363021"><ele>1063.3333333333335</ele><time>2026-05-01T08:14:57.823Z</time></trkpt><trkpt lat="42.6788529" lon="13.5362035"><ele>1071.6666666666667</ele><time>2026-05-01T08:14:58.823Z</time></trkpt><trkpt lat="42.6789578" lon="13.5360689"><ele>1080.0</ele><time>2026-05-01T08:14:59.825Z</time></trkpt><trkpt lat="42.6789243" lon="13.5357903"><ele>1080.0</ele><time>2026-05-01T08:15:00.825Z</time></trkpt><trkpt lat="42.6789636" lon="13.5356229"><ele>1080.0</ele><time>2026-05-01T08:15:01.824Z</time></trkpt><trkpt lat="42.6789534" lon="13.5354454"><ele>1080.0</ele><time>2026-05-01T08:15:02.824Z</time></trkpt><trkpt lat="42.6789402" lon="13.5352908"><ele>1080.0</ele><time>2026-05-01T08:15:03.823Z</time></trkpt><trkpt lat="42.6789616" lon="13.5351574"><ele>1076.0</ele><time>2026-05-01T08:15:04.824Z</time></trkpt><trkpt lat="42.679014" lon="13.5350592"><ele>1072.0</ele><time>2026-05-01T08:15:05.823Z</time></trkpt><trkpt lat="42.6790611" lon="13.5349537"><ele>1068.0</ele><time>2026-05-01T08:15:06.823Z</time></trkpt><trkpt lat="42.6792155" lon="13.5349412"><ele>1064.0</ele><time>2026-05-01T08:15:07.824Z</time></trkpt><trkpt lat="42.6793518" lon="13.5348752"><ele>1073.6666666666667</ele><time>2026-05-01T08:15:08.825Z</time></trkpt><trkpt lat="42.6794878" lon="13.5347875"><ele>1083.3333333333333</ele><time>2026-05-01T08:15:09.824Z</time></trkpt><trkpt lat="42.6796241" lon="13.5346768"><ele>1093.0</ele><time>2026-05-01T08:15:10.823Z</time></trkpt><trkpt lat="42.6797542" lon="13.5345613"><ele>1087.5</ele><time>2026-05-01T08:15:11.824Z</time></trkpt><trkpt lat="42.6798795" lon="13.5344328"><ele>1082.0</ele><time>2026-05-01T08:15:12.825Z</time></trkpt><trkpt lat="42.6799921" lon="13.5343176"><ele>1076.5</ele><time>2026-05-01T08:15:13.823Z</time></trkpt><trkpt lat="42.6801034" lon="13.5341944"><ele>1071.0</ele><time>2026-05-01T08:15:14.824Z</time></trkpt><trkpt lat="42.680153" lon="13.5340429"><ele>1071.0</ele><time>2026-05-01T08:15:15.825Z</time></trkpt><trkpt lat="42.6801832" lon="13.5338816"><ele>1071.0</ele><time>2026-05-01T08:15:16.824Z</time></trkpt><trkpt lat="42.6801763" lon="13.5337153"><ele>1071.0</ele><time>2026-05-01T08:15:17.823Z</time></trkpt><trkpt lat="42.6801509" lon="13.533526"><ele>1071.0</ele><time>2026-05-01T08:15:18.825Z</time></trkpt><trkpt lat="42.680048" lon="13.5333715"><ele>1070.5</ele><time>2026-05-01T08:15:19.823Z</time></trkpt><trkpt lat="42.6799799" lon="13.5332053"><ele>1070.0</ele><time>2026-05-01T08:15:20.824Z</time></trkpt><trkpt lat="42.6799463" lon="13.5330594"><ele>1069.5</ele><time>2026-05-01T08:15:21.825Z</time></trkpt><trkpt lat="42.6799415" lon="13.5329156"><ele>1069.0</ele><time>2026-05-01T08:15:22.823Z</time></trkpt><trkpt lat="42.6799761" lon="13.5327714"><ele>1069.0</ele><time>2026-05-01T08:15:23.824Z</time></trkpt><trkpt lat="42.6800422" lon="13.5326157"><ele>1069.0</ele><time>2026-05-01T08:15:24.824Z</time></trkpt><trkpt lat="42.680121" lon="13.5324633"><ele>1069.0</ele><time>2026-05-01T08:15:25.823Z</time></trkpt><trkpt lat="42.6802102" lon="13.5322983"><ele>1069.0</ele><time>2026-05-01T08:15:26.824Z</time></trkpt><trkpt lat="42.6803007" lon="13.5321479"><ele>1077.25</ele><time>2026-05-01T08:15:27.823Z</time></trkpt><trkpt lat="42.6803811" lon="13.5320043"><ele>1085.5</ele><time>2026-05-01T08:15:28.823Z</time></trkpt><trkpt lat="42.680441" lon="13.5318589"><ele>1093.75</ele><time>2026-05-01T08:15:29.824Z</time></trkpt><trkpt lat="42.6804678" lon="13.5317128"><ele>1102.0</ele><time>2026-05-01T08:15:30.824Z</time></trkpt><trkpt lat="42.6804431" lon="13.5315586"><ele>1102.0</ele><time>2026-05-01T08:15:31.824Z</time></trkpt><trkpt lat="42.6803734" lon="13.5314025"><ele>1102.0</ele><time>2026-05-01T08:15:32.825Z</time></trkpt><trkpt lat="42.6802654" lon="13.5312633"><ele>1102.0</ele><time>2026-05-01T08:15:33.825Z</time></trkpt><trkpt lat="42.6801489" lon="13.5311138"><ele>1102.0</ele><time>2026-05-01T08:15:34.824Z</time></trkpt><trkpt lat="42.6800471" lon="13.5309726"><ele>1097.5</ele><time>2026-05-01T08:15:35.823Z</time></trkpt><trkpt lat="42.6799611" lon="13.53083"><ele>1093.0</ele><time>2026-05-01T08:15:36.825Z</time></trkpt><trkpt lat="42.6798896" lon="13.5306949"><ele>1088.5</ele><time>2026-05-01T08:15:37.825Z</time></trkpt><trkpt lat="42.6798002" lon="13.5305938"><ele>1084.0</ele><time>2026-05-01T08:15:38.823Z</time></trkpt><trkpt lat="42.6796862" lon="13.5305785"><ele>1084.0</ele><time>2026-05-01T08:15:39.824Z</time></trkpt><trkpt lat="42.6795683" lon="13.5305972"><ele>1084.0</ele><time>2026-05-01T08:15:40.824Z</time></trkpt><trkpt lat="42.6794633" lon="13.5306009"><ele>1084.0</ele><time>2026-05-01T08:15:41.824Z</time></trkpt><trkpt lat="42.6793575" lon="13.5305637"><ele>1084.0</ele><time>2026-05-01T08:15:42.824Z</time></trkpt><trkpt lat="42.6792433" lon="13.5304855"><ele>1085.75</ele><time>2026-05-01T08:15:43.824Z</time></trkpt><trkpt lat="42.6791246" lon="13.5304057"><ele>1087.5</ele><time>2026-05-01T08:15:44.825Z</time></trkpt><trkpt lat="42.6790055" lon="13.5303457"><ele>1089.25</ele><time>2026-05-01T08:15:45.825Z</time></trkpt><trkpt lat="42.6788752" lon="13.5303155"><ele>1091.0</ele><time>2026-05-01T08:15:46.825Z</time></trkpt><trkpt lat="42.6787301" lon="13.5303295"><ele>1090.0</ele><time>2026-05-01T08:15:47.824Z</time></trkpt><trkpt lat="42.678587" lon="13.5303774"><ele>1089.0</ele><time>2026-05-01T08:15:48.823Z</time></trkpt><trkpt lat="42.6784512" lon="13.5304278"><ele>1088.0</ele><time>2026-05-01T08:15:49.824Z</time></trkpt><trkpt lat="42.6783106" lon="13.5304733"><ele>1087.0</ele><time>2026-05-01T08:15:50.823Z</time></trkpt><trkpt lat="42.6781734" lon="13.5304823"><ele>1087.0</ele><time>2026-05-01T08:15:51.825Z</time></trkpt><trkpt lat="42.6780378" lon="13.530458"><ele>1087.0</ele><time>2026-05-01T08:15:52.824Z</time></trkpt><trkpt lat="42.6779062" lon="13.5304073"><ele>1087.0</ele><time>2026-05-01T08:15:53.824Z</time></trkpt><trkpt lat="42.6777809" lon="13.5303389"><ele>1087.0</ele><time>2026-05-01T08:15:54.825Z</time></trkpt><trkpt lat="42.6776497" lon="13.5303003"><ele>1085.25</ele><time>2026-05-01T08:15:55.825Z</time></trkpt><trkpt lat="42.6775238" lon="13.5302703"><ele>1083.5</ele><time>2026-05-01T08:15:56.824Z</time></trkpt><trkpt lat="42.6774035" lon="13.5302362"><ele>1081.75</ele><time>2026-05-01T08:15:57.824Z</time></trkpt><trkpt lat="42.6772942" lon="13.5301779"><ele>1080.0</ele><time>2026-05-01T08:15:58.824Z</time></trkpt><trkpt lat="42.6772006" lon="13.5301005"><ele>1080.0</ele><time>2026-05-01T08:15:59.823Z</time></trkpt><trkpt lat="42.6771282" lon="13.5300082"><ele>1080.0</ele><time>2026-05-01T08:16:00.824Z</time></trkpt><trkpt lat="42.6770789" lon="13.5299011"><ele>1080.0</ele><time>2026-05-01T08:16:01.825Z</time></trkpt><trkpt lat="42.677045" lon="13.5297838"><ele>1080.0</ele><time>2026-05-01T08:16:02.823Z</time></trkpt><trkpt lat="42.6770304" lon="13.5296428"><ele>1080.0</ele><time>2026-05-01T08:16:03.824Z</time></trkpt><trkpt lat="42.6770181" lon="13.5295066"><ele>1079.4</ele><time>2026-05-01T08:16:04.824Z</time></trkpt><trkpt lat="42.6770065" lon="13.5293756"><ele>1078.8</ele><time>2026-05-01T08:16:05.824Z</time></trkpt><trkpt lat="42.6769946" lon="13.5292521"><ele>1078.2</ele><time>2026-05-01T08:16:06.823Z</time></trkpt><trkpt lat="42.6769924" lon="13.5291477"><ele>1077.6</ele><time>2026-05-01T08:16:07.823Z</time></trkpt><trkpt lat="42.6769721" lon="13.5290112"><ele>1077.0</ele><time>2026-05-01T08:16:09.824Z</time></trkpt><trkpt lat="42.6768584" lon="13.5288986"><ele>1076.75</ele><time>2026-05-01T08:16:11.823Z</time></trkpt><trkpt lat="42.6767721" lon="13.5288315"><ele>1076.5</ele><time>2026-05-01T08:16:12.824Z</time></trkpt><trkpt lat="42.6766664" lon="13.5287442"><ele>1076.25</ele><time>2026-05-01T08:16:13.823Z</time></trkpt><trkpt lat="42.6765614" lon="13.5286473"><ele>1076.0</ele><time>2026-05-01T08:16:14.824Z</time></trkpt><trkpt lat="42.6764437" lon="13.5285375"><ele>1074.0</ele><time>2026-05-01T08:16:15.823Z</time></trkpt><trkpt lat="42.6763231" lon="13.5284251"><ele>1072.0</ele><time>2026-05-01T08:16:16.823Z</time></trkpt><trkpt lat="42.6761916" lon="13.5283135"><ele>1070.0</ele><time>2026-05-01T08:16:17.824Z</time></trkpt><trkpt lat="42.6760425" lon="13.5282153"><ele>1070.0</ele><time>2026-05-01T08:16:18.825Z</time></trkpt><trkpt lat="42.6758827" lon="13.5281191"><ele>1070.0</ele><time>2026-05-01T08:16:19.824Z</time></trkpt><trkpt lat="42.6757143" lon="13.528028"><ele>1070.0</ele><time>2026-05-01T08:16:20.824Z</time></trkpt><trkpt lat="42.6755482" lon="13.5279342"><ele>1066.0</ele><time>2026-05-01T08:16:21.824Z</time></trkpt><trkpt lat="42.6753854" lon="13.5278476"><ele>1062.0</ele><time>2026-05-01T08:16:22.823Z</time></trkpt><trkpt lat="42.6752259" lon="13.5277524"><ele>1058.0</ele><time>2026-05-01T08:16:23.823Z</time></trkpt><trkpt lat="42.6750709" lon="13.5276484"><ele>1057.3333333333335</ele><time>2026-05-01T08:16:24.825Z</time></trkpt><trkpt lat="42.6749182" lon="13.5275428"><ele>1056.6666666666667</ele><time>2026-05-01T08:16:25.824Z</time></trkpt><trkpt lat="42.6747704" lon="13.5274317"><ele>1056.0</ele><time>2026-05-01T08:16:26.824Z</time></trkpt><trkpt lat="42.6746295" lon="13.5273193"><ele>1056.0</ele><time>2026-05-01T08:16:27.824Z</time></trkpt><trkpt lat="42.6744906" lon="13.5272021"><ele>1056.0</ele><time>2026-05-01T08:16:28.824Z</time></trkpt><trkpt lat="42.6743445" lon="13.5270844"><ele>1056.0</ele><time>2026-05-01T08:16:29.824Z</time></trkpt><trkpt lat="42.6741987" lon="13.5269673"><ele>1053.6666666666667</ele><time>2026-05-01T08:16:30.823Z</time></trkpt><trkpt lat="42.674054" lon="13.5268487"><ele>1051.3333333333335</ele><time>2026-05-01T08:16:31.824Z</time></trkpt><trkpt lat="42.673917" lon="13.5267238"><ele>1049.0</ele><time>2026-05-01T08:16:32.825Z</time></trkpt><trkpt lat="42.6737868" lon="13.5265895"><ele>1049.0</ele><time>2026-05-01T08:16:33.824Z</time></trkpt><trkpt lat="42.6736696" lon="13.5264483"><ele>1049.0</ele><time>2026-05-01T08:16:34.824Z</time></trkpt><trkpt lat="42.6735625" lon="13.5263139"><ele>1049.0</ele><time>2026-05-01T08:16:35.825Z</time></trkpt><trkpt lat="42.6734625" lon="13.5261933"><ele>1049.0</ele><time>2026-05-01T08:16:36.824Z</time></trkpt><trkpt lat="42.6733682" lon="13.5260901"><ele>1048.0</ele><time>2026-05-01T08:16:37.824Z</time></trkpt><trkpt lat="42.6732754" lon="13.5260054"><ele>1047.0</ele><time>2026-05-01T08:16:38.824Z</time></trkpt><trkpt lat="42.6731937" lon="13.5259408"><ele>1046.0</ele><time>2026-05-01T08:16:39.823Z</time></trkpt><trkpt lat="42.6731187" lon="13.5259144"><ele>1045.0</ele><time>2026-05-01T08:16:40.825Z</time></trkpt><trkpt lat="42.673048" lon="13.525931"><ele>1044.0</ele><time>2026-05-01T08:16:41.825Z</time></trkpt><trkpt lat="42.6729897" lon="13.5259853"><ele>1043.0</ele><time>2026-05-01T08:16:42.824Z</time></trkpt><trkpt lat="42.67295" lon="13.52607"><ele>1043.0</ele><time>2026-05-01T08:16:43.824Z</time></trkpt><trkpt lat="42.6729421" lon="13.5261736"><ele>1043.0</ele><time>2026-05-01T08:16:44.825Z</time></trkpt><trkpt lat="42.6729564" lon="13.5262943"><ele>1043.0</ele><time>2026-05-01T08:16:45.824Z</time></trkpt><trkpt lat="42.6729748" lon="13.5264376"><ele>1043.0</ele><time>2026-05-01T08:16:46.824Z</time></trkpt><trkpt lat="42.67297" lon="13.5266041"><ele>1043.0</ele><time>2026-05-01T08:16:47.825Z</time></trkpt><trkpt lat="42.6729389" lon="13.526776"><ele>1044.5</ele><time>2026-05-01T08:16:48.824Z</time></trkpt><trkpt lat="42.6729098" lon="13.526938"><ele>1046.0</ele><time>2026-05-01T08:16:49.823Z</time></trkpt><trkpt lat="42.6728542" lon="13.5270948"><ele>1047.5</ele><time>2026-05-01T08:16:50.823Z</time></trkpt><trkpt lat="42.6728141" lon="13.5272476"><ele>1049.0</ele><time>2026-05-01T08:16:51.824Z</time></trkpt><trkpt lat="42.6727643" lon="13.5273889"><ele>1046.2</ele><time>2026-05-01T08:16:52.825Z</time></trkpt><trkpt lat="42.6727061" lon="13.5275153"><ele>1043.4</ele><time>2026-05-01T08:16:53.824Z</time></trkpt><trkpt lat="42.6726407" lon="13.5276388"><ele>1040.6</ele><time>2026-05-01T08:16:54.824Z</time></trkpt><trkpt lat="42.6725499" lon="13.5277254"><ele>1037.8</ele><time>2026-05-01T08:16:55.825Z</time></trkpt><trkpt lat="42.6724474" lon="13.5277928"><ele>1035.0</ele><time>2026-05-01T08:16:56.825Z</time></trkpt><trkpt lat="42.6723306" lon="13.5277149"><ele>1035.0</ele><time>2026-05-01T08:16:57.825Z</time></trkpt><trkpt lat="42.6722232" lon="13.5276783"><ele>1035.0</ele><time>2026-05-01T08:16:58.825Z</time></trkpt><trkpt lat="42.6721089" lon="13.5276084"><ele>1035.0</ele><time>2026-05-01T08:16:59.825Z</time></trkpt><trkpt lat="42.6719896" lon="13.5275285"><ele>1035.0</ele><time>2026-05-01T08:17:00.824Z</time></trkpt><trkpt lat="42.671867" lon="13.5274302"><ele>1035.25</ele><time>2026-05-01T08:17:01.824Z</time></trkpt><trkpt lat="42.6717386" lon="13.5273272"><ele>1035.5</ele><time>2026-05-01T08:17:02.825Z</time></trkpt><trkpt lat="42.6716144" lon="13.5272273"><ele>1035.75</ele><time>2026-05-01T08:17:03.825Z</time></trkpt><trkpt lat="42.6714965" lon="13.5271196"><ele>1036.0</ele><time>2026-05-01T08:17:04.824Z</time></trkpt><trkpt lat="42.6713823" lon="13.5270097"><ele>1031.5</ele><time>2026-05-01T08:17:05.824Z</time></trkpt><trkpt lat="42.6712743" lon="13.5269035"><ele>1027.0</ele><time>2026-05-01T08:17:06.823Z</time></trkpt><trkpt lat="42.6711559" lon="13.5268253"><ele>1022.5</ele><time>2026-05-01T08:17:07.825Z</time></trkpt><trkpt lat="42.6710225" lon="13.5267621"><ele>1018.0</ele><time>2026-05-01T08:17:08.823Z</time></trkpt><trkpt lat="42.6708762" lon="13.5267177"><ele>1018.0</ele><time>2026-05-01T08:17:09.825Z</time></trkpt><trkpt lat="42.6707306" lon="13.5266746"><ele>1018.0</ele><time>2026-05-01T08:17:10.825Z</time></trkpt><trkpt lat="42.6706005" lon="13.5266427"><ele>1018.0</ele><time>2026-05-01T08:17:11.824Z</time></trkpt><trkpt lat="42.6704672" lon="13.5265739"><ele>1018.0</ele><time>2026-05-01T08:17:12.824Z</time></trkpt><trkpt lat="42.6703428" lon="13.5264881"><ele>1018.75</ele><time>2026-05-01T08:17:13.824Z</time></trkpt><trkpt lat="42.6702223" lon="13.5264113"><ele>1019.5</ele><time>2026-05-01T08:17:14.825Z</time></trkpt><trkpt lat="42.670096" lon="13.5263433"><ele>1020.25</ele><time>2026-05-01T08:17:15.824Z</time></trkpt><trkpt lat="42.6699718" lon="13.526268"><ele>1021.0</ele><time>2026-05-01T08:17:16.823Z</time></trkpt><trkpt lat="42.6698579" lon="13.5261755"><ele>1016.8</ele><time>2026-05-01T08:17:17.824Z</time></trkpt><trkpt lat="42.6697585" lon="13.5260889"><ele>1012.5999999999999</ele><time>2026-05-01T08:17:18.824Z</time></trkpt><trkpt lat="42.6696691" lon="13.5260139"><ele>1008.4</ele><time>2026-05-01T08:17:19.823Z</time></trkpt><trkpt lat="42.6695816" lon="13.525971"><ele>1004.2</ele><time>2026-05-01T08:17:20.824Z</time></trkpt><trkpt lat="42.6694979" lon="13.5259522"><ele>1000.0</ele><time>2026-05-01T08:17:21.825Z</time></trkpt><trkpt lat="42.6693983" lon="13.5259404"><ele>1001.2</ele><time>2026-05-01T08:17:22.824Z</time></trkpt><trkpt lat="42.6693066" lon="13.525987"><ele>1002.4</ele><time>2026-05-01T08:17:23.825Z</time></trkpt><trkpt lat="42.6692261" lon="13.5260659"><ele>1003.5999999999999</ele><time>2026-05-01T08:17:24.825Z</time></trkpt><trkpt lat="42.6691571" lon="13.5262323"><ele>1004.8</ele><time>2026-05-01T08:17:25.824Z</time></trkpt><trkpt lat="42.669077" lon="13.5263248"><ele>1006.0</ele><time>2026-05-01T08:17:26.825Z</time></trkpt><trkpt lat="42.6689849" lon="13.5263901"><ele>1006.0</ele><time>2026-05-01T08:17:27.824Z</time></trkpt><trkpt lat="42.6688972" lon="13.5264396"><ele>1005.9999999999999</ele><time>2026-05-01T08:17:28.824Z</time></trkpt><trkpt lat="42.6687999" lon="13.5264592"><ele>1005.9999999999999</ele><time>2026-05-01T08:17:29.824Z</time></trkpt><trkpt lat="42.6686943" lon="13.526477"><ele>1006.0</ele><time>2026-05-01T08:17:30.824Z</time></trkpt><trkpt lat="42.6685888" lon="13.5265039"><ele>1006.0</ele><time>2026-05-01T08:17:31.824Z</time></trkpt><trkpt lat="42.6684886" lon="13.5265345"><ele>1001.8</ele><time>2026-05-01T08:17:32.824Z</time></trkpt><trkpt lat="42.6683975" lon="13.526559"><ele>997.5999999999999</ele><time>2026-05-01T08:17:33.824Z</time></trkpt><trkpt lat="42.6683227" lon="13.5265689"><ele>993.4</ele><time>2026-05-01T08:17:34.824Z</time></trkpt><trkpt lat="42.6682419" lon="13.5264958"><ele>989.2</ele><time>2026-05-01T08:17:36.824Z</time></trkpt><trkpt lat="42.668301" lon="13.5263907"><ele>985.0</ele><time>2026-05-01T08:17:38.823Z</time></trkpt><trkpt lat="42.6684098" lon="13.5263575"><ele>985.0</ele><time>2026-05-01T08:17:39.823Z</time></trkpt><trkpt lat="42.6685355" lon="13.5263135"><ele>985.0</ele><time>2026-05-01T08:17:40.825Z</time></trkpt><trkpt lat="42.6686603" lon="13.5262622"><ele>985.0</ele><time>2026-05-01T08:17:41.825Z</time></trkpt><trkpt lat="42.6687823" lon="13.526216"><ele>985.0</ele><time>2026-05-01T08:17:42.824Z</time></trkpt><trkpt lat="42.6688923" lon="13.5261679"><ele>986.5</ele><time>2026-05-01T08:17:43.824Z</time></trkpt><trkpt lat="42.6689916" lon="13.5260752"><ele>988.0</ele><time>2026-05-01T08:17:44.825Z</time></trkpt><trkpt lat="42.6690889" lon="13.5259421"><ele>989.5</ele><time>2026-05-01T08:17:45.823Z</time></trkpt><trkpt lat="42.669156" lon="13.5257807"><ele>991.0</ele><time>2026-05-01T08:17:46.824Z</time></trkpt><trkpt lat="42.6692093" lon="13.5256248"><ele>991.0</ele><time>2026-05-01T08:17:47.823Z</time></trkpt><trkpt lat="42.6692611" lon="13.5254959"><ele>990.9999999999999</ele><time>2026-05-01T08:17:48.823Z</time></trkpt><trkpt lat="42.6693291" lon="13.5253972"><ele>990.9999999999999</ele><time>2026-05-01T08:17:49.823Z</time></trkpt><trkpt lat="42.6694243" lon="13.5253306"><ele>991.0</ele><time>2026-05-01T08:17:50.823Z</time></trkpt><trkpt lat="42.6695438" lon="13.5252817"><ele>991.0</ele><time>2026-05-01T08:17:51.824Z</time></trkpt><trkpt lat="42.6696751" lon="13.5252312"><ele>986.75</ele><time>2026-05-01T08:17:52.824Z</time></trkpt><trkpt lat="42.6698013" lon="13.5251781"><ele>982.5</ele><time>2026-05-01T08:17:53.825Z</time></trkpt><trkpt lat="42.6699328" lon="13.5251358"><ele>978.25</ele><time>2026-05-01T08:17:54.823Z</time></trkpt><trkpt lat="42.6700612" lon="13.5251038"><ele>974.0</ele><time>2026-05-01T08:17:55.824Z</time></trkpt><trkpt lat="42.6701937" lon="13.5250953"><ele>973.75</ele><time>2026-05-01T08:17:56.824Z</time></trkpt><trkpt lat="42.670332" lon="13.5251114"><ele>973.5</ele><time>2026-05-01T08:17:57.824Z</time></trkpt><trkpt lat="42.6704689" lon="13.5251298"><ele>973.25</ele><time>2026-05-01T08:17:58.824Z</time></trkpt><trkpt lat="42.6706039" lon="13.5251485"><ele>973.0</ele><time>2026-05-01T08:17:59.823Z</time></trkpt><trkpt lat="42.6707308" lon="13.525161"><ele>972.9999999999999</ele><time>2026-05-01T08:18:00.823Z</time></trkpt><trkpt lat="42.6708363" lon="13.5251666"><ele>973.0</ele><time>2026-05-01T08:18:01.824Z</time></trkpt><trkpt lat="42.670918" lon="13.5251711"><ele>973.0</ele><time>2026-05-01T08:18:02.824Z</time></trkpt><trkpt lat="42.6709997" lon="13.5251589"><ele>973.0</ele><time>2026-05-01T08:18:03.825Z</time></trkpt><trkpt lat="42.6710712" lon="13.5251036"><ele>972.9999999999999</ele><time>2026-05-01T08:18:04.824Z</time></trkpt><trkpt lat="42.6711147" lon="13.5250417"><ele>973.0</ele><time>2026-05-01T08:18:05.825Z</time></trkpt><trkpt lat="42.6710802" lon="13.5249181"><ele>973.0</ele><time>2026-05-01T08:18:06.823Z</time></trkpt><trkpt lat="42.671022" lon="13.5247755"><ele>973.0</ele><time>2026-05-01T08:18:08.824Z</time></trkpt><trkpt lat="42.6709421" lon="13.5247096"><ele>973.0</ele><time>2026-05-01T08:18:09.823Z</time></trkpt><trkpt lat="42.6708123" lon="13.5246147"><ele>973.0</ele><time>2026-05-01T08:18:10.824Z</time></trkpt><trkpt lat="42.6706635" lon="13.5246278"><ele>973.0</ele><time>2026-05-01T08:18:11.824Z</time></trkpt><trkpt lat="42.670455" lon="13.5246498"><ele>973.0</ele><time>2026-05-01T08:18:12.824Z</time></trkpt><trkpt lat="42.670319" lon="13.524646"><ele>973.0</ele><time>2026-05-01T08:18:13.824Z</time></trkpt><trkpt lat="42.6701887" lon="13.5246167"><ele>973.25</ele><time>2026-05-01T08:18:14.825Z</time></trkpt><trkpt lat="42.6700573" lon="13.5245874"><ele>973.5</ele><time>2026-05-01T08:18:15.824Z</time></trkpt><trkpt lat="42.6699266" lon="13.52451"><ele>973.75</ele><time>2026-05-01T08:18:16.825Z</time></trkpt><trkpt lat="42.6698214" lon="13.5244098"><ele>974.0</ele><time>2026-05-01T08:18:17.824Z</time></trkpt><trkpt lat="42.6697165" lon="13.5243107"><ele>969.0</ele><time>2026-05-01T08:18:18.824Z</time></trkpt><trkpt lat="42.669632" lon="13.5242065"><ele>964.0000000000001</ele><time>2026-05-01T08:18:19.823Z</time></trkpt><trkpt lat="42.6695566" lon="13.5241158"><ele>959.0000000000001</ele><time>2026-05-01T08:18:20.825Z</time></trkpt><trkpt lat="42.6694819" lon="13.5240373"><ele>954.0</ele><time>2026-05-01T08:18:21.823Z</time></trkpt><trkpt lat="42.6694067" lon="13.5239857"><ele>949.0</ele><time>2026-05-01T08:18:22.824Z</time></trkpt><trkpt lat="42.6693309" lon="13.5239824"><ele>946.4000000000001</ele><time>2026-05-01T08:18:23.824Z</time></trkpt><trkpt lat="42.6692682" lon="13.5240322"><ele>943.8000000000001</ele><time>2026-05-01T08:18:24.824Z</time></trkpt><trkpt lat="42.6692112" lon="13.5241168"><ele>941.1999999999999</ele><time>2026-05-01T08:18:25.823Z</time></trkpt><trkpt lat="42.6691456" lon="13.5242397"><ele>938.5999999999999</ele><time>2026-05-01T08:18:26.824Z</time></trkpt><trkpt lat="42.6690812" lon="13.5243644"><ele>936.0</ele><time>2026-05-01T08:18:27.823Z</time></trkpt><trkpt lat="42.6690003" lon="13.5244832"><ele>940.8</ele><time>2026-05-01T08:18:28.823Z</time></trkpt><trkpt lat="42.6689229" lon="13.5245916"><ele>945.5999999999999</ele><time>2026-05-01T08:18:29.825Z</time></trkpt><trkpt lat="42.6688544" lon="13.5247067"><ele>950.4</ele><time>2026-05-01T08:18:30.825Z</time></trkpt><trkpt lat="42.6687795" lon="13.5248024"><ele>955.2</ele><time>2026-05-01T08:18:31.825Z</time></trkpt><trkpt lat="42.6687051" lon="13.5248882"><ele>960.0</ele><time>2026-05-01T08:18:32.824Z</time></trkpt><trkpt lat="42.6686221" lon="13.5249402"><ele>955.0</ele><time>2026-05-01T08:18:33.824Z</time></trkpt><trkpt lat="42.6685273" lon="13.524958"><ele>950.0</ele><time>2026-05-01T08:18:34.824Z</time></trkpt><trkpt lat="42.6684174" lon="13.5249436"><ele>945.0</ele><time>2026-05-01T08:18:35.824Z</time></trkpt><trkpt lat="42.6683002" lon="13.5249168"><ele>940.0</ele><time>2026-05-01T08:18:36.824Z</time></trkpt><trkpt lat="42.6681723" lon="13.5248691"><ele>940.0</ele><time>2026-05-01T08:18:37.824Z</time></trkpt><trkpt lat="42.6680451" lon="13.5248053"><ele>940.0</ele><time>2026-05-01T08:18:38.824Z</time></trkpt><trkpt lat="42.6679153" lon="13.5247298"><ele>940.0</ele><time>2026-05-01T08:18:39.824Z</time></trkpt><trkpt lat="42.6677856" lon="13.524661"><ele>940.0</ele><time>2026-05-01T08:18:40.824Z</time></trkpt><trkpt lat="42.6676496" lon="13.5246037"><ele>933.0</ele><time>2026-05-01T08:18:41.823Z</time></trkpt><trkpt lat="42.6675073" lon="13.5245575"><ele>926.0</ele><time>2026-05-01T08:18:42.824Z</time></trkpt><trkpt lat="42.6673595" lon="13.5245277"><ele>919.0</ele><time>2026-05-01T08:18:43.824Z</time></trkpt><trkpt lat="42.6672222" lon="13.5245069"><ele>912.0</ele><time>2026-05-01T08:18:44.824Z</time></trkpt><trkpt lat="42.667065" lon="13.5244726"><ele>912.0</ele><time>2026-05-01T08:18:45.825Z</time></trkpt><trkpt lat="42.6669758" lon="13.5244379"><ele>912.0</ele><time>2026-05-01T08:18:46.824Z</time></trkpt><trkpt lat="42.6668555" lon="13.5243597"><ele>912.0</ele><time>2026-05-01T08:18:47.824Z</time></trkpt><trkpt lat="42.666743" lon="13.5242948"><ele>912.0</ele><time>2026-05-01T08:18:48.825Z</time></trkpt><trkpt lat="42.6666363" lon="13.5242099"><ele>912.0</ele><time>2026-05-01T08:18:49.825Z</time></trkpt><trkpt lat="42.6665493" lon="13.5241268"><ele>912.0</ele><time>2026-05-01T08:18:50.824Z</time></trkpt><trkpt lat="42.6664807" lon="13.5240577"><ele>912.0</ele><time>2026-05-01T08:18:51.823Z</time></trkpt><trkpt lat="42.666419" lon="13.5240022"><ele>912.0</ele><time>2026-05-01T08:18:52.823Z</time></trkpt><trkpt lat="42.666353" lon="13.5239556"><ele>912.0</ele><time>2026-05-01T08:18:53.824Z</time></trkpt><trkpt lat="42.6662853" lon="13.5239356"><ele>912.0</ele><time>2026-05-01T08:18:54.825Z</time></trkpt><trkpt lat="42.6661545" lon="13.5239824"><ele>910.8</ele><time>2026-05-01T08:18:56.823Z</time></trkpt><trkpt lat="42.666087" lon="13.524004"><ele>909.6</ele><time>2026-05-01T08:18:57.824Z</time></trkpt><trkpt lat="42.6660215" lon="13.523988"><ele>908.3999999999999</ele><time>2026-05-01T08:18:58.824Z</time></trkpt><trkpt lat="42.6659609" lon="13.5238716"><ele>907.1999999999999</ele><time>2026-05-01T08:19:00.824Z</time></trkpt><trkpt lat="42.6660375" lon="13.523706"><ele>906.0</ele><time>2026-05-01T08:19:02.824Z</time></trkpt><trkpt lat="42.6661062" lon="13.5236248"><ele>903.8</ele><time>2026-05-01T08:19:03.824Z</time></trkpt><trkpt lat="42.6661836" lon="13.5235494"><ele>901.5999999999999</ele><time>2026-05-01T08:19:04.823Z</time></trkpt><trkpt lat="42.6662713" lon="13.5234885"><ele>899.4</ele><time>2026-05-01T08:19:05.823Z</time></trkpt><trkpt lat="42.666366" lon="13.5234484"><ele>897.2</ele><time>2026-05-01T08:19:06.824Z</time></trkpt><trkpt lat="42.6664635" lon="13.5234231"><ele>895.0</ele><time>2026-05-01T08:19:07.824Z</time></trkpt><trkpt lat="42.666568" lon="13.5234274"><ele>895.0</ele><time>2026-05-01T08:19:08.825Z</time></trkpt><trkpt lat="42.6666782" lon="13.5234432"><ele>895.0</ele><time>2026-05-01T08:19:09.824Z</time></trkpt><trkpt lat="42.6667971" lon="13.5234606"><ele>895.0</ele><time>2026-05-01T08:19:10.823Z</time></trkpt><trkpt lat="42.666909" lon="13.5234772"><ele>895.0</ele><time>2026-05-01T08:19:11.824Z</time></trkpt><trkpt lat="42.6670218" lon="13.523497"><ele>893.0</ele><time>2026-05-01T08:19:12.824Z</time></trkpt><trkpt lat="42.6671443" lon="13.5235313"><ele>891.0</ele><time>2026-05-01T08:19:13.824Z</time></trkpt><trkpt lat="42.667269" lon="13.5235596"><ele>889.0</ele><time>2026-05-01T08:19:14.824Z</time></trkpt><trkpt lat="42.6673941" lon="13.5235899"><ele>887.0</ele><time>2026-05-01T08:19:15.823Z</time></trkpt><trkpt lat="42.6675173" lon="13.5236235"><ele>887.0</ele><time>2026-05-01T08:19:16.823Z</time></trkpt><trkpt lat="42.6676354" lon="13.5236624"><ele>887.0</ele><time>2026-05-01T08:19:17.823Z</time></trkpt><trkpt lat="42.6677533" lon="13.5236884"><ele>887.0</ele><time>2026-05-01T08:19:18.823Z</time></trkpt><trkpt lat="42.6678692" lon="13.5236909"><ele>887.0</ele><time>2026-05-01T08:19:19.824Z</time></trkpt><trkpt lat="42.6679799" lon="13.5236813"><ele>886.8</ele><time>2026-05-01T08:19:20.824Z</time></trkpt><trkpt lat="42.6680808" lon="13.5236581"><ele>886.6</ele><time>2026-05-01T08:19:21.823Z</time></trkpt><trkpt lat="42.6681731" lon="13.5236133"><ele>886.3999999999999</ele><time>2026-05-01T08:19:22.824Z</time></trkpt><trkpt lat="42.6682509" lon="13.5235465"><ele>886.1999999999999</ele><time>2026-05-01T08:19:23.825Z</time></trkpt><trkpt lat="42.6683248" lon="13.5234425"><ele>886.0</ele><time>2026-05-01T08:19:24.825Z</time></trkpt><trkpt lat="42.6683912" lon="13.5233055"><ele>886.0</ele><time>2026-05-01T08:19:25.823Z</time></trkpt><trkpt lat="42.6684437" lon="13.5231691"><ele>885.9999999999999</ele><time>2026-05-01T08:19:26.823Z</time></trkpt><trkpt lat="42.6684866" lon="13.5230393"><ele>885.9999999999999</ele><time>2026-05-01T08:19:27.823Z</time></trkpt><trkpt lat="42.6685332" lon="13.5229256"><ele>886.0</ele><time>2026-05-01T08:19:28.823Z</time></trkpt><trkpt lat="42.6686039" lon="13.5228227"><ele>886.0</ele><time>2026-05-01T08:19:29.823Z</time></trkpt><trkpt lat="42.668676" lon="13.5227082"><ele>886.8</ele><time>2026-05-01T08:19:30.824Z</time></trkpt><trkpt lat="42.6687347" lon="13.522592"><ele>887.5999999999999</ele><time>2026-05-01T08:19:31.825Z</time></trkpt><trkpt lat="42.6687895" lon="13.5224755"><ele>888.4</ele><time>2026-05-01T08:19:32.823Z</time></trkpt><trkpt lat="42.6688543" lon="13.5223769"><ele>889.2</ele><time>2026-05-01T08:19:33.825Z</time></trkpt><trkpt lat="42.6689309" lon="13.5222964"><ele>890.0</ele><time>2026-05-01T08:19:34.824Z</time></trkpt><trkpt lat="42.6689951" lon="13.5221998"><ele>890.0</ele><time>2026-05-01T08:19:35.823Z</time></trkpt><trkpt lat="42.6690346" lon="13.5220913"><ele>890.0</ele><time>2026-05-01T08:19:36.824Z</time></trkpt><trkpt lat="42.669043" lon="13.521956"><ele>890.0</ele><time>2026-05-01T08:19:37.824Z</time></trkpt><trkpt lat="42.6690377" lon="13.5218256"><ele>890.0</ele><time>2026-05-01T08:19:38.825Z</time></trkpt><trkpt lat="42.6689893" lon="13.5216787"><ele>890.0</ele><time>2026-05-01T08:19:39.825Z</time></trkpt><trkpt lat="42.66896" lon="13.5215343"><ele>886.4</ele><time>2026-05-01T08:19:40.824Z</time></trkpt><trkpt lat="42.6689397" lon="13.5214428"><ele>882.8</ele><time>2026-05-01T08:19:41.825Z</time></trkpt><trkpt lat="42.6689406" lon="13.5213259"><ele>879.2</ele><time>2026-05-01T08:19:42.825Z</time></trkpt><trkpt lat="42.6689715" lon="13.5212138"><ele>875.6</ele><time>2026-05-01T08:19:43.824Z</time></trkpt><trkpt lat="42.6690233" lon="13.5211006"><ele>872.0</ele><time>2026-05-01T08:19:44.824Z</time></trkpt><trkpt lat="42.6690848" lon="13.5209806"><ele>868.8333333333334</ele><time>2026-05-01T08:19:45.824Z</time></trkpt><trkpt lat="42.6691475" lon="13.5208656"><ele>865.6666666666667</ele><time>2026-05-01T08:19:46.824Z</time></trkpt><trkpt lat="42.6692052" lon="13.5207585"><ele>862.5</ele><time>2026-05-01T08:19:47.824Z</time></trkpt><trkpt lat="42.6692565" lon="13.5206842"><ele>859.3333333333333</ele><time>2026-05-01T08:19:48.824Z</time></trkpt><trkpt lat="42.6693241" lon="13.5206457"><ele>856.1666666666666</ele><time>2026-05-01T08:19:49.824Z</time></trkpt><trkpt lat="42.6693993" lon="13.5206415"><ele>853.0</ele><time>2026-05-01T08:19:50.823Z</time></trkpt><trkpt lat="42.6694922" lon="13.5206716"><ele>852.25</ele><time>2026-05-01T08:19:51.824Z</time></trkpt><trkpt lat="42.6695901" lon="13.5207347"><ele>851.5</ele><time>2026-05-01T08:19:52.824Z</time></trkpt><trkpt lat="42.6696955" lon="13.5208156"><ele>850.75</ele><time>2026-05-01T08:19:53.824Z</time></trkpt><trkpt lat="42.6698024" lon="13.5208837"><ele>850.0</ele><time>2026-05-01T08:19:54.824Z</time></trkpt><trkpt lat="42.6699046" lon="13.5209553"><ele>850.0</ele><time>2026-05-01T08:19:55.823Z</time></trkpt><trkpt lat="42.669998" lon="13.5210072"><ele>850.0</ele><time>2026-05-01T08:19:56.823Z</time></trkpt><trkpt lat="42.67009" lon="13.521016"><ele>850.0</ele><time>2026-05-01T08:19:57.824Z</time></trkpt><trkpt lat="42.6701824" lon="13.5209921"><ele>850.0</ele><time>2026-05-01T08:19:58.825Z</time></trkpt><trkpt lat="42.6702772" lon="13.5209615"><ele>850.0</ele><time>2026-05-01T08:19:59.825Z</time></trkpt><trkpt lat="42.6703733" lon="13.5209326"><ele>850.8333333333333</ele><time>2026-05-01T08:20:00.824Z</time></trkpt><trkpt lat="42.6704632" lon="13.5208871"><ele>851.6666666666666</ele><time>2026-05-01T08:20:01.825Z</time></trkpt><trkpt lat="42.6705497" lon="13.5208341"><ele>852.5</ele><time>2026-05-01T08:20:02.825Z</time></trkpt><trkpt lat="42.6706281" lon="13.5207666"><ele>853.3333333333333</ele><time>2026-05-01T08:20:03.825Z</time></trkpt><trkpt lat="42.6706902" lon="13.5206957"><ele>854.1666666666666</ele><time>2026-05-01T08:20:04.823Z</time></trkpt><trkpt lat="42.6707351" lon="13.520612"><ele>855.0</ele><time>2026-05-01T08:20:05.825Z</time></trkpt><trkpt lat="42.6707563" lon="13.5205222"><ele>855.0</ele><time>2026-05-01T08:20:06.824Z</time></trkpt><trkpt lat="42.6707522" lon="13.5204341"><ele>855.0</ele><time>2026-05-01T08:20:07.825Z</time></trkpt><trkpt lat="42.6707298" lon="13.5203524"><ele>855.0</ele><time>2026-05-01T08:20:08.825Z</time></trkpt><trkpt lat="42.6706808" lon="13.5202888"><ele>855.0</ele><time>2026-05-01T08:20:09.825Z</time></trkpt><trkpt lat="42.6706337" lon="13.5202319"><ele>855.0</ele><time>2026-05-01T08:20:10.823Z</time></trkpt><trkpt lat="42.6705383" lon="13.5202674"><ele>855.0</ele><time>2026-05-01T08:20:11.824Z</time></trkpt><trkpt lat="42.6704653" lon="13.5203037"><ele>855.0</ele><time>2026-05-01T08:20:12.823Z</time></trkpt><trkpt lat="42.6703857" lon="13.5203517"><ele>854.1666666666666</ele><time>2026-05-01T08:20:13.824Z</time></trkpt><trkpt lat="42.6703013" lon="13.5203857"><ele>853.3333333333333</ele><time>2026-05-01T08:20:14.825Z</time></trkpt><trkpt lat="42.6702117" lon="13.5204082"><ele>852.5</ele><time>2026-05-01T08:20:15.824Z</time></trkpt><trkpt lat="42.6701379" lon="13.5204317"><ele>851.6666666666666</ele><time>2026-05-01T08:20:16.823Z</time></trkpt><trkpt lat="42.6700741" lon="13.5204336"><ele>850.8333333333333</ele><time>2026-05-01T08:20:17.823Z</time></trkpt><trkpt lat="42.6700101" lon="13.5203946"><ele>850.0</ele><time>2026-05-01T08:20:18.824Z</time></trkpt><trkpt lat="42.6699457" lon="13.520317"><ele>847.25</ele><time>2026-05-01T08:20:19.824Z</time></trkpt><trkpt lat="42.6698842" lon="13.520208"><ele>844.5</ele><time>2026-05-01T08:20:20.823Z</time></trkpt><trkpt lat="42.6698129" lon="13.5200824"><ele>841.75</ele><time>2026-05-01T08:20:21.824Z</time></trkpt><trkpt lat="42.6697319" lon="13.5199637"><ele>839.0</ele><time>2026-05-01T08:20:22.825Z</time></trkpt><trkpt lat="42.6696508" lon="13.5198513"><ele>839.0</ele><time>2026-05-01T08:20:23.825Z</time></trkpt><trkpt lat="42.6695689" lon="13.5197387"><ele>839.0</ele><time>2026-05-01T08:20:24.824Z</time></trkpt><trkpt lat="42.669488" lon="13.5196276"><ele>839.0</ele><time>2026-05-01T08:20:25.824Z</time></trkpt><trkpt lat="42.669421" lon="13.5195222"><ele>839.0</ele><time>2026-05-01T08:20:26.825Z</time></trkpt><trkpt lat="42.6693632" lon="13.5194367"><ele>839.0</ele><time>2026-05-01T08:20:27.825Z</time></trkpt><trkpt lat="42.6693072" lon="13.5193738"><ele>838.2</ele><time>2026-05-01T08:20:28.825Z</time></trkpt><trkpt lat="42.6692465" lon="13.519345"><ele>837.4000000000001</ele><time>2026-05-01T08:20:29.823Z</time></trkpt><trkpt lat="42.6691219" lon="13.5193934"><ele>836.6</ele><time>2026-05-01T08:20:31.824Z</time></trkpt><trkpt lat="42.6690497" lon="13.5194712"><ele>835.8</ele><time>2026-05-01T08:20:32.824Z</time></trkpt><trkpt lat="42.6689801" lon="13.519582"><ele>835.0</ele><time>2026-05-01T08:20:33.824Z</time></trkpt><trkpt lat="42.6689134" lon="13.5196929"><ele>835.0</ele><time>2026-05-01T08:20:34.825Z</time></trkpt><trkpt lat="42.6688621" lon="13.5198336"><ele>835.0</ele><time>2026-05-01T08:20:35.825Z</time></trkpt><trkpt lat="42.6688201" lon="13.519975"><ele>835.0</ele><time>2026-05-01T08:20:36.823Z</time></trkpt><trkpt lat="42.6687707" lon="13.5201103"><ele>835.0</ele><time>2026-05-01T08:20:37.823Z</time></trkpt><trkpt lat="42.6687231" lon="13.5202476"><ele>835.0</ele><time>2026-05-01T08:20:38.824Z</time></trkpt><trkpt lat="42.6686704" lon="13.5203815"><ele>835.0</ele><time>2026-05-01T08:20:39.825Z</time></trkpt><trkpt lat="42.6686036" lon="13.5204985"><ele>835.0</ele><time>2026-05-01T08:20:40.823Z</time></trkpt><trkpt lat="42.6685181" lon="13.5206141"><ele>835.0</ele><time>2026-05-01T08:20:41.824Z</time></trkpt><trkpt lat="42.668426" lon="13.5206951"><ele>833.4</ele><time>2026-05-01T08:20:42.823Z</time></trkpt><trkpt lat="42.6683259" lon="13.5207497"><ele>831.8</ele><time>2026-05-01T08:20:43.825Z</time></trkpt><trkpt lat="42.6682153" lon="13.5207734"><ele>830.2</ele><time>2026-05-01T08:20:44.823Z</time></trkpt><trkpt lat="42.6681112" lon="13.520784"><ele>828.6</ele><time>2026-05-01T08:20:45.823Z</time></trkpt><trkpt lat="42.6680197" lon="13.5207774"><ele>827.0</ele><time>2026-05-01T08:20:46.823Z</time></trkpt><trkpt lat="42.667937" lon="13.5207439"><ele>827.0</ele><time>2026-05-01T08:20:47.823Z</time></trkpt><trkpt lat="42.6678681" lon="13.5206393"><ele>827.0</ele><time>2026-05-01T08:20:48.823Z</time></trkpt><trkpt lat="42.6678141" lon="13.5205054"><ele>827.0</ele><time>2026-05-01T08:20:49.823Z</time></trkpt><trkpt lat="42.6677782" lon="13.5203636"><ele>827.0</ele><time>2026-05-01T08:20:50.822Z</time></trkpt><trkpt lat="42.6677387" lon="13.5202351"><ele>827.0</ele><time>2026-05-01T08:20:51.823Z</time></trkpt><trkpt lat="42.6676716" lon="13.5201217"><ele>821.5</ele><time>2026-05-01T08:20:52.823Z</time></trkpt><trkpt lat="42.667571" lon="13.5200349"><ele>816.0</ele><time>2026-05-01T08:20:53.823Z</time></trkpt><trkpt lat="42.6674627" lon="13.5199731"><ele>810.5</ele><time>2026-05-01T08:20:54.824Z</time></trkpt><trkpt lat="42.6673514" lon="13.5198974"><ele>805.0</ele><time>2026-05-01T08:20:55.824Z</time></trkpt><trkpt lat="42.6672445" lon="13.5198024"><ele>805.0</ele><time>2026-05-01T08:20:56.824Z</time></trkpt><trkpt lat="42.6671522" lon="13.519695"><ele>805.0</ele><time>2026-05-01T08:20:57.824Z</time></trkpt><trkpt lat="42.6670701" lon="13.5195875"><ele>805.0</ele><time>2026-05-01T08:20:58.823Z</time></trkpt><trkpt lat="42.6669974" lon="13.5194925"><ele>805.0</ele><time>2026-05-01T08:20:59.824Z</time></trkpt><trkpt lat="42.6669249" lon="13.5194067"><ele>805.0</ele><time>2026-05-01T08:21:00.822Z</time></trkpt><trkpt lat="42.6668555" lon="13.519342"><ele>802.6</ele><time>2026-05-01T08:21:01.824Z</time></trkpt><trkpt lat="42.6667657" lon="13.5193147"><ele>800.2</ele><time>2026-05-01T08:21:02.823Z</time></trkpt><trkpt lat="42.6666628" lon="13.5193147"><ele>797.8</ele><time>2026-05-01T08:21:03.824Z</time></trkpt><trkpt lat="42.6665523" lon="13.5193333"><ele>795.4</ele><time>2026-05-01T08:21:04.823Z</time></trkpt><trkpt lat="42.6664472" lon="13.5193622"><ele>793.0</ele><time>2026-05-01T08:21:05.823Z</time></trkpt><trkpt lat="42.6663423" lon="13.5194011"><ele>793.0</ele><time>2026-05-01T08:21:06.823Z</time></trkpt><trkpt lat="42.6662412" lon="13.5194375"><ele>793.0</ele><time>2026-05-01T08:21:07.823Z</time></trkpt><trkpt lat="42.6661473" lon="13.5194837"><ele>793.0</ele><time>2026-05-01T08:21:08.823Z</time></trkpt><trkpt lat="42.6660651" lon="13.5195423"><ele>793.0</ele><time>2026-05-01T08:21:09.824Z</time></trkpt><trkpt lat="42.665984" lon="13.5196079"><ele>793.0</ele><time>2026-05-01T08:21:10.823Z</time></trkpt><trkpt lat="42.6659087" lon="13.5196731"><ele>790.6666666666666</ele><time>2026-05-01T08:21:11.824Z</time></trkpt><trkpt lat="42.6658477" lon="13.519769"><ele>788.3333333333333</ele><time>2026-05-01T08:21:12.823Z</time></trkpt><trkpt lat="42.6657894" lon="13.5198262"><ele>786.0</ele><time>2026-05-01T08:21:13.822Z</time></trkpt><trkpt lat="42.6656833" lon="13.5198493"><ele>783.6666666666667</ele><time>2026-05-01T08:21:15.823Z</time></trkpt><trkpt lat="42.6656882" lon="13.5197237"><ele>781.3333333333334</ele><time>2026-05-01T08:21:17.823Z</time></trkpt><trkpt lat="42.6657379" lon="13.5196312"><ele>779.0</ele><time>2026-05-01T08:21:18.823Z</time></trkpt><trkpt lat="42.6658058" lon="13.5195099"><ele>779.0</ele><time>2026-05-01T08:21:19.823Z</time></trkpt><trkpt lat="42.6658727" lon="13.5194021"><ele>779.0</ele><time>2026-05-01T08:21:20.822Z</time></trkpt><trkpt lat="42.665963" lon="13.5193158"><ele>779.0</ele><time>2026-05-01T08:21:21.823Z</time></trkpt><trkpt lat="42.6660567" lon="13.5192364"><ele>779.0</ele><time>2026-05-01T08:21:22.823Z</time></trkpt><trkpt lat="42.6661508" lon="13.5191497"><ele>779.0</ele><time>2026-05-01T08:21:23.822Z</time></trkpt><trkpt lat="42.6662486" lon="13.5190794"><ele>781.8000000000001</ele><time>2026-05-01T08:21:24.823Z</time></trkpt><trkpt lat="42.6663469" lon="13.5190097"><ele>784.6</ele><time>2026-05-01T08:21:25.823Z</time></trkpt><trkpt lat="42.6664422" lon="13.5189377"><ele>787.4</ele><time>2026-05-01T08:21:26.822Z</time></trkpt><trkpt lat="42.6665383" lon="13.5188716"><ele>790.2</ele><time>2026-05-01T08:21:27.824Z</time></trkpt><trkpt lat="42.6666393" lon="13.5187981"><ele>793.0</ele><time>2026-05-01T08:21:28.824Z</time></trkpt><trkpt lat="42.6667435" lon="13.5187101"><ele>788.0</ele><time>2026-05-01T08:21:29.824Z</time></trkpt><trkpt lat="42.6668515" lon="13.518617"><ele>783.0</ele><time>2026-05-01T08:21:30.824Z</time></trkpt><trkpt lat="42.6669568" lon="13.5185133"><ele>778.0</ele><time>2026-05-01T08:21:31.824Z</time></trkpt><trkpt lat="42.6670567" lon="13.518406"><ele>773.0</ele><time>2026-05-01T08:21:32.824Z</time></trkpt><trkpt lat="42.667162" lon="13.5183125"><ele>773.0</ele><time>2026-05-01T08:21:33.824Z</time></trkpt><trkpt lat="42.6672678" lon="13.5182169"><ele>773.0</ele><time>2026-05-01T08:21:34.824Z</time></trkpt><trkpt lat="42.6673727" lon="13.5181354"><ele>773.0</ele><time>2026-05-01T08:21:35.824Z</time></trkpt><trkpt lat="42.6674678" lon="13.5180632"><ele>773.0</ele><time>2026-05-01T08:21:36.824Z</time></trkpt><trkpt lat="42.6675658" lon="13.5180157"><ele>773.0000000000001</ele><time>2026-05-01T08:21:37.824Z</time></trkpt><trkpt lat="42.6676578" lon="13.5180003"><ele>773.0</ele><time>2026-05-01T08:21:38.823Z</time></trkpt><trkpt lat="42.6677406" lon="13.5180199"><ele>773.0</ele><time>2026-05-01T08:21:39.824Z</time></trkpt><trkpt lat="42.6678129" lon="13.5180434"><ele>773.0</ele><time>2026-05-01T08:21:40.824Z</time></trkpt><trkpt lat="42.6678746" lon="13.5180261"><ele>773.0000000000001</ele><time>2026-05-01T08:21:41.824Z</time></trkpt><trkpt lat="42.6679256" lon="13.5178969"><ele>773.0</ele><time>2026-05-01T08:21:43.824Z</time></trkpt><trkpt lat="42.6678895" lon="13.517808"><ele>770.4</ele><time>2026-05-01T08:21:44.824Z</time></trkpt><trkpt lat="42.6678188" lon="13.5177178"><ele>767.8</ele><time>2026-05-01T08:21:45.824Z</time></trkpt><trkpt lat="42.6677329" lon="13.5176465"><ele>765.2</ele><time>2026-05-01T08:21:46.823Z</time></trkpt><trkpt lat="42.6676392" lon="13.5175923"><ele>762.6</ele><time>2026-05-01T08:21:47.824Z</time></trkpt><trkpt lat="42.6675381" lon="13.5175772"><ele>760.0</ele><time>2026-05-01T08:21:48.823Z</time></trkpt><trkpt lat="42.6674366" lon="13.5175786"><ele>758.0</ele><time>2026-05-01T08:21:49.824Z</time></trkpt><trkpt lat="42.6673508" lon="13.5176009"><ele>756.0</ele><time>2026-05-01T08:21:50.823Z</time></trkpt><trkpt lat="42.6672621" lon="13.5176357"><ele>754.0</ele><time>2026-05-01T08:21:51.823Z</time></trkpt><trkpt lat="42.6671741" lon="13.5177675"><ele>752.0</ele><time>2026-05-01T08:21:52.824Z</time></trkpt><trkpt lat="42.6670802" lon="13.5178491"><ele>750.0</ele><time>2026-05-01T08:21:53.823Z</time></trkpt><trkpt lat="42.6669949" lon="13.5179332"><ele>751.6</ele><time>2026-05-01T08:21:54.824Z</time></trkpt><trkpt lat="42.6669064" lon="13.5180146"><ele>753.2</ele><time>2026-05-01T08:21:55.824Z</time></trkpt><trkpt lat="42.6668164" lon="13.518081"><ele>754.8</ele><time>2026-05-01T08:21:56.824Z</time></trkpt><trkpt lat="42.666735" lon="13.5181366"><ele>756.4</ele><time>2026-05-01T08:21:57.823Z</time></trkpt><trkpt lat="42.6666015" lon="13.518134"><ele>758.0</ele><time>2026-05-01T08:21:58.822Z</time></trkpt><trkpt lat="42.6664827" lon="13.5181466"><ele>758.0</ele><time>2026-05-01T08:21:59.823Z</time></trkpt><trkpt lat="42.6663332" lon="13.518143"><ele>758.0</ele><time>2026-05-01T08:22:00.824Z</time></trkpt><trkpt lat="42.6662051" lon="13.5181282"><ele>758.0</ele><time>2026-05-01T08:22:01.824Z</time></trkpt><trkpt lat="42.6660803" lon="13.5181179"><ele>758.0</ele><time>2026-05-01T08:22:02.824Z</time></trkpt><trkpt lat="42.6659703" lon="13.5181063"><ele>756.2</ele><time>2026-05-01T08:22:03.824Z</time></trkpt><trkpt lat="42.6658709" lon="13.518091"><ele>754.4</ele><time>2026-05-01T08:22:04.823Z</time></trkpt><trkpt lat="42.6657835" lon="13.5180778"><ele>752.6</ele><time>2026-05-01T08:22:05.823Z</time></trkpt><trkpt lat="42.6657167" lon="13.5180589"><ele>750.8000000000001</ele><time>2026-05-01T08:22:06.824Z</time></trkpt><trkpt lat="42.6656292" lon="13.5179486"><ele>749.0</ele><time>2026-05-01T08:22:08.824Z</time></trkpt><trkpt lat="42.6656924" lon="13.5178863"><ele>745.2</ele><time>2026-05-01T08:22:09.823Z</time></trkpt><trkpt lat="42.6657701" lon="13.5178409"><ele>741.4000000000001</ele><time>2026-05-01T08:22:10.823Z</time></trkpt><trkpt lat="42.6658823" lon="13.5178066"><ele>737.6</ele><time>2026-05-01T08:22:11.823Z</time></trkpt><trkpt lat="42.6659989" lon="13.5177737"><ele>733.8</ele><time>2026-05-01T08:22:12.822Z</time></trkpt><trkpt lat="42.6661141" lon="13.5177525"><ele>730.0</ele><time>2026-05-01T08:22:13.823Z</time></trkpt><trkpt lat="42.6662222" lon="13.5177556"><ele>730.0</ele><time>2026-05-01T08:22:14.822Z</time></trkpt><trkpt lat="42.6663207" lon="13.517778"><ele>730.0</ele><time>2026-05-01T08:22:15.822Z</time></trkpt><trkpt lat="42.6664158" lon="13.5177805"><ele>730.0</ele><time>2026-05-01T08:22:16.822Z</time></trkpt><trkpt lat="42.6664965" lon="13.5177238"><ele>730.0</ele><time>2026-05-01T08:22:17.823Z</time></trkpt><trkpt lat="42.6665751" lon="13.5176665"><ele>730.0</ele><time>2026-05-01T08:22:18.824Z</time></trkpt><trkpt lat="42.6666386" lon="13.5175909"><ele>730.0</ele><time>2026-05-01T08:22:19.823Z</time></trkpt><trkpt lat="42.6666796" lon="13.5174989"><ele>730.0</ele><time>2026-05-01T08:22:20.824Z</time></trkpt><trkpt lat="42.6666848" lon="13.5174028"><ele>730.0</ele><time>2026-05-01T08:22:21.823Z</time></trkpt><trkpt lat="42.6666792" lon="13.5172929"><ele>730.0</ele><time>2026-05-01T08:22:22.824Z</time></trkpt><trkpt lat="42.6666068" lon="13.5172246"><ele>730.0</ele><time>2026-05-01T08:22:23.824Z</time></trkpt><trkpt lat="42.6665272" lon="13.5171399"><ele>730.0</ele><time>2026-05-01T08:22:24.823Z</time></trkpt><trkpt lat="42.6664123" lon="13.5170931"><ele>729.75</ele><time>2026-05-01T08:22:25.824Z</time></trkpt><trkpt lat="42.6662825" lon="13.5170226"><ele>729.5</ele><time>2026-05-01T08:22:26.823Z</time></trkpt><trkpt lat="42.6661476" lon="13.5169522"><ele>729.25</ele><time>2026-05-01T08:22:27.824Z</time></trkpt><trkpt lat="42.6660103" lon="13.5168879"><ele>729.0</ele><time>2026-05-01T08:22:28.822Z</time></trkpt><trkpt lat="42.6658744" lon="13.5168443"><ele>730.5</ele><time>2026-05-01T08:22:29.822Z</time></trkpt><trkpt lat="42.6657514" lon="13.5168073"><ele>732.0</ele><time>2026-05-01T08:22:30.822Z</time></trkpt><trkpt lat="42.6656354" lon="13.5167881"><ele>733.5</ele><time>2026-05-01T08:22:31.823Z</time></trkpt><trkpt lat="42.6655108" lon="13.5167953"><ele>735.0</ele><time>2026-05-01T08:22:32.822Z</time></trkpt><trkpt lat="42.6653833" lon="13.5168039"><ele>736.5</ele><time>2026-05-01T08:22:33.824Z</time></trkpt><trkpt lat="42.6652532" lon="13.5168271"><ele>738.0</ele><time>2026-05-01T08:22:34.822Z</time></trkpt><trkpt lat="42.6651256" lon="13.5168654"><ele>739.5</ele><time>2026-05-01T08:22:35.822Z</time></trkpt><trkpt lat="42.6650124" lon="13.5169315"><ele>741.0</ele><time>2026-05-01T08:22:36.822Z</time></trkpt><trkpt lat="42.6648999" lon="13.5170086"><ele>741.0</ele><time>2026-05-01T08:22:37.823Z</time></trkpt><trkpt lat="42.6648026" lon="13.5170642"><ele>741.0</ele><time>2026-05-01T08:22:38.823Z</time></trkpt><trkpt lat="42.6646958" lon="13.5170694"><ele>741.0</ele><time>2026-05-01T08:22:39.824Z</time></trkpt><trkpt lat="42.6645834" lon="13.5170396"><ele>741.0</ele><time>2026-05-01T08:22:40.822Z</time></trkpt><trkpt lat="42.664457" lon="13.5170007"><ele>744.75</ele><time>2026-05-01T08:22:41.823Z</time></trkpt><trkpt lat="42.6643237" lon="13.5169887"><ele>748.5</ele><time>2026-05-01T08:22:42.822Z</time></trkpt><trkpt lat="42.6641836" lon="13.5170087"><ele>752.25</ele><time>2026-05-01T08:22:43.823Z</time></trkpt><trkpt lat="42.6640503" lon="13.5170363"><ele>756.0</ele><time>2026-05-01T08:22:44.822Z</time></trkpt><trkpt lat="42.6639169" lon="13.5170443"><ele>756.0</ele><time>2026-05-01T08:22:45.824Z</time></trkpt><trkpt lat="42.6637869" lon="13.5170188"><ele>756.0</ele><time>2026-05-01T08:22:46.823Z</time></trkpt><trkpt lat="42.6636675" lon="13.516968"><ele>756.0</ele><time>2026-05-01T08:22:47.824Z</time></trkpt><trkpt lat="42.6635455" lon="13.5169377"><ele>756.0</ele><time>2026-05-01T08:22:48.822Z</time></trkpt><trkpt lat="42.6634298" lon="13.5169343"><ele>754.8</ele><time>2026-05-01T08:22:49.822Z</time></trkpt><trkpt lat="42.6633061" lon="13.5169793"><ele>753.5999999999999</ele><time>2026-05-01T08:22:50.823Z</time></trkpt><trkpt lat="42.6631882" lon="13.5170089"><ele>752.4</ele><time>2026-05-01T08:22:51.823Z</time></trkpt><trkpt lat="42.6631129" lon="13.5170212"><ele>751.2</ele><time>2026-05-01T08:22:52.823Z</time></trkpt><trkpt lat="42.6630513" lon="13.5169999"><ele>750.0</ele><time>2026-05-01T08:22:53.823Z</time></trkpt><trkpt lat="42.6630136" lon="13.5168848"><ele>750.0</ele><time>2026-05-01T08:22:55.823Z</time></trkpt><trkpt lat="42.6630264" lon="13.5167863"><ele>750.0</ele><time>2026-05-01T08:22:56.823Z</time></trkpt><trkpt lat="42.6630367" lon="13.5166585"><ele>750.0</ele><time>2026-05-01T08:22:57.824Z</time></trkpt><trkpt lat="42.6630424" lon="13.5164992"><ele>750.0</ele><time>2026-05-01T08:22:58.822Z</time></trkpt><trkpt lat="42.6630439" lon="13.5163204"><ele>750.0</ele><time>2026-05-01T08:22:59.822Z</time></trkpt><trkpt lat="42.6630515" lon="13.5161294"><ele>753.0</ele><time>2026-05-01T08:23:00.824Z</time></trkpt><trkpt lat="42.6630862" lon="13.5159296"><ele>756.0</ele><time>2026-05-01T08:23:01.824Z</time></trkpt><trkpt lat="42.6631293" lon="13.5157252"><ele>759.0</ele><time>2026-05-01T08:23:02.823Z</time></trkpt><trkpt lat="42.6631662" lon="13.515526"><ele>757.25</ele><time>2026-05-01T08:23:03.823Z</time></trkpt><trkpt lat="42.6632065" lon="13.5153448"><ele>755.5</ele><time>2026-05-01T08:23:04.823Z</time></trkpt><trkpt lat="42.6632481" lon="13.5151819"><ele>753.75</ele><time>2026-05-01T08:23:05.823Z</time></trkpt><trkpt lat="42.6633101" lon="13.5150407"><ele>752.0</ele><time>2026-05-01T08:23:06.824Z</time></trkpt><trkpt lat="42.6633926" lon="13.5149365"><ele>752.0</ele><time>2026-05-01T08:23:07.824Z</time></trkpt><trkpt lat="42.6634855" lon="13.5148661"><ele>752.0</ele><time>2026-05-01T08:23:08.822Z</time></trkpt><trkpt lat="42.6635581" lon="13.5147914"><ele>752.0</ele><time>2026-05-01T08:23:09.823Z</time></trkpt><trkpt lat="42.6635967" lon="13.5146831"><ele>752.0</ele><time>2026-05-01T08:23:10.823Z</time></trkpt><trkpt lat="42.6636375" lon="13.5145676"><ele>752.0</ele><time>2026-05-01T08:23:11.823Z</time></trkpt><trkpt lat="42.6636693" lon="13.5144481"><ele>757.2</ele><time>2026-05-01T08:23:12.822Z</time></trkpt><trkpt lat="42.6636291" lon="13.5143248"><ele>762.4000000000001</ele><time>2026-05-01T08:23:13.822Z</time></trkpt><trkpt lat="42.6636514" lon="13.5142249"><ele>767.5999999999999</ele><time>2026-05-01T08:23:14.823Z</time></trkpt><trkpt lat="42.6636524" lon="13.5141236"><ele>772.8</ele><time>2026-05-01T08:23:15.823Z</time></trkpt><trkpt lat="42.6636966" lon="13.5139869"><ele>778.0</ele><time>2026-05-01T08:23:16.822Z</time></trkpt><trkpt lat="42.6638286" lon="13.51391"><ele>778.0</ele><time>2026-05-01T08:23:17.822Z</time></trkpt><trkpt lat="42.6639133" lon="13.5138102"><ele>778.0</ele><time>2026-05-01T08:23:18.823Z</time></trkpt><trkpt lat="42.6639996" lon="13.5137342"><ele>778.0</ele><time>2026-05-01T08:23:19.823Z</time></trkpt><trkpt lat="42.6640866" lon="13.51369"><ele>778.0</ele><time>2026-05-01T08:23:20.822Z</time></trkpt><trkpt lat="42.6641442" lon="13.5136239"><ele>778.0</ele><time>2026-05-01T08:23:21.823Z</time></trkpt><trkpt lat="42.66417" lon="13.5135391"><ele>775.3333333333333</ele><time>2026-05-01T08:23:22.822Z</time></trkpt><trkpt lat="42.6641978" lon="13.51345"><ele>772.6666666666666</ele><time>2026-05-01T08:23:23.823Z</time></trkpt><trkpt lat="42.6641184" lon="13.513358"><ele>770.0</ele><time>2026-05-01T08:23:24.824Z</time></trkpt><trkpt lat="42.6640637" lon="13.5132698"><ele>767.3333333333333</ele><time>2026-05-01T08:23:25.824Z</time></trkpt><trkpt lat="42.6640126" lon="13.5131914"><ele>764.6666666666666</ele><time>2026-05-01T08:23:26.823Z</time></trkpt><trkpt lat="42.663968" lon="13.5131141"><ele>762.0</ele><time>2026-05-01T08:23:27.823Z</time></trkpt><trkpt lat="42.6639316" lon="13.5130419"><ele>760.6</ele><time>2026-05-01T08:23:28.824Z</time></trkpt><trkpt lat="42.6639307" lon="13.5128675"><ele>759.2</ele><time>2026-05-01T08:23:30.823Z</time></trkpt><trkpt lat="42.6639562" lon="13.5127491"><ele>757.8</ele><time>2026-05-01T08:23:31.823Z</time></trkpt><trkpt lat="42.66398" lon="13.5126257"><ele>756.4</ele><time>2026-05-01T08:23:32.822Z</time></trkpt><trkpt lat="42.6639953" lon="13.5124952"><ele>755.0</ele><time>2026-05-01T08:23:33.822Z</time></trkpt><trkpt lat="42.6640064" lon="13.5123626"><ele>755.0</ele><time>2026-05-01T08:23:34.823Z</time></trkpt><trkpt lat="42.6640117" lon="13.5122275"><ele>755.0</ele><time>2026-05-01T08:23:35.823Z</time></trkpt><trkpt lat="42.6640207" lon="13.5120872"><ele>755.0</ele><time>2026-05-01T08:23:36.822Z</time></trkpt><trkpt lat="42.6640428" lon="13.5119542"><ele>755.0</ele><time>2026-05-01T08:23:37.823Z</time></trkpt><trkpt lat="42.6640747" lon="13.511835"><ele>755.0</ele><time>2026-05-01T08:23:38.823Z</time></trkpt><trkpt lat="42.6641104" lon="13.5117352"><ele>757.6666666666666</ele><time>2026-05-01T08:23:39.822Z</time></trkpt><trkpt lat="42.6641516" lon="13.5116423"><ele>760.3333333333333</ele><time>2026-05-01T08:23:40.823Z</time></trkpt><trkpt lat="42.6641935" lon="13.5115675"><ele>763.0</ele><time>2026-05-01T08:23:41.822Z</time></trkpt><trkpt lat="42.6642455" lon="13.5115141"><ele>765.6666666666666</ele><time>2026-05-01T08:23:42.824Z</time></trkpt><trkpt lat="42.6643095" lon="13.5114771"><ele>768.3333333333334</ele><time>2026-05-01T08:23:43.822Z</time></trkpt><trkpt lat="42.6643915" lon="13.5114471"><ele>771.0</ele><time>2026-05-01T08:23:44.823Z</time></trkpt><trkpt lat="42.6644774" lon="13.5114139"><ele>771.0</ele><time>2026-05-01T08:23:45.824Z</time></trkpt><trkpt lat="42.6645539" lon="13.51138"><ele>771.0</ele><time>2026-05-01T08:23:46.823Z</time></trkpt><trkpt lat="42.6646125" lon="13.5113283"><ele>771.0</ele><time>2026-05-01T08:23:47.824Z</time></trkpt><trkpt lat="42.664673" lon="13.511269"><ele>771.0</ele><time>2026-05-01T08:23:48.823Z</time></trkpt><trkpt lat="42.6646699" lon="13.5111581"><ele>771.0</ele><time>2026-05-01T08:23:49.823Z</time></trkpt><trkpt lat="42.6646602" lon="13.5110637"><ele>771.0</ele><time>2026-05-01T08:23:50.823Z</time></trkpt><trkpt lat="42.6646488" lon="13.5109612"><ele>770.8</ele><time>2026-05-01T08:23:51.824Z</time></trkpt><trkpt lat="42.664617" lon="13.5108559"><ele>770.5999999999999</ele><time>2026-05-01T08:23:52.822Z</time></trkpt><trkpt lat="42.6645669" lon="13.510711"><ele>770.4</ele><time>2026-05-01T08:23:53.822Z</time></trkpt><trkpt lat="42.6645607" lon="13.5105816"><ele>770.2</ele><time>2026-05-01T08:23:54.824Z</time></trkpt><trkpt lat="42.6645553" lon="13.5104335"><ele>770.0</ele><time>2026-05-01T08:23:55.823Z</time></trkpt><trkpt lat="42.6645636" lon="13.5102816"><ele>770.0</ele><time>2026-05-01T08:23:56.823Z</time></trkpt><trkpt lat="42.6645923" lon="13.510125"><ele>770.0</ele><time>2026-05-01T08:23:57.823Z</time></trkpt><trkpt lat="42.6646323" lon="13.5099692"><ele>770.0</ele><time>2026-05-01T08:23:58.822Z</time></trkpt><trkpt lat="42.6646807" lon="13.5098216"><ele>770.0</ele><time>2026-05-01T08:23:59.823Z</time></trkpt><trkpt lat="42.6647105" lon="13.5096435"><ele>766.5</ele><time>2026-05-01T08:24:00.823Z</time></trkpt><trkpt lat="42.664737" lon="13.5094564"><ele>763.0</ele><time>2026-05-01T08:24:01.822Z</time></trkpt><trkpt lat="42.6647502" lon="13.5092617"><ele>759.5</ele><time>2026-05-01T08:24:02.823Z</time></trkpt><trkpt lat="42.664753" lon="13.5090711"><ele>756.0</ele><time>2026-05-01T08:24:03.823Z</time></trkpt><trkpt lat="42.6647514" lon="13.5088832"><ele>753.5</ele><time>2026-05-01T08:24:04.822Z</time></trkpt><trkpt lat="42.6647398" lon="13.5086974"><ele>751.0</ele><time>2026-05-01T08:24:05.823Z</time></trkpt><trkpt lat="42.6647175" lon="13.5085103"><ele>748.5</ele><time>2026-05-01T08:24:06.822Z</time></trkpt><trkpt lat="42.6646998" lon="13.5083261"><ele>746.0</ele><time>2026-05-01T08:24:07.823Z</time></trkpt><trkpt lat="42.6646872" lon="13.5081413"><ele>746.0</ele><time>2026-05-01T08:24:08.823Z</time></trkpt><trkpt lat="42.6646782" lon="13.5079557"><ele>746.0</ele><time>2026-05-01T08:24:09.823Z</time></trkpt><trkpt lat="42.6646805" lon="13.5077853"><ele>746.0</ele><time>2026-05-01T08:24:10.823Z</time></trkpt><trkpt lat="42.6646975" lon="13.5076184"><ele>746.0</ele><time>2026-05-01T08:24:11.823Z</time></trkpt><trkpt lat="42.664725" lon="13.5074583"><ele>745.0</ele><time>2026-05-01T08:24:12.824Z</time></trkpt><trkpt lat="42.6647507" lon="13.5073111"><ele>744.0</ele><time>2026-05-01T08:24:13.824Z</time></trkpt><trkpt lat="42.6647493" lon="13.5071794"><ele>743.0</ele><time>2026-05-01T08:24:14.823Z</time></trkpt><trkpt lat="42.664723" lon="13.5070629"><ele>742.0</ele><time>2026-05-01T08:24:15.822Z</time></trkpt><trkpt lat="42.6646768" lon="13.5069698"><ele>741.0</ele><time>2026-05-01T08:24:16.822Z</time></trkpt><trkpt lat="42.6646153" lon="13.5069056"><ele>739.1666666666666</ele><time>2026-05-01T08:24:17.824Z</time></trkpt><trkpt lat="42.6645484" lon="13.5068707"><ele>737.3333333333334</ele><time>2026-05-01T08:24:18.823Z</time></trkpt><trkpt lat="42.6644803" lon="13.5068607"><ele>735.5</ele><time>2026-05-01T08:24:19.823Z</time></trkpt><trkpt lat="42.6644048" lon="13.5068847"><ele>733.6666666666667</ele><time>2026-05-01T08:24:20.823Z</time></trkpt><trkpt lat="42.6643293" lon="13.5069343"><ele>731.8333333333334</ele><time>2026-05-01T08:24:21.824Z</time></trkpt><trkpt lat="42.6642613" lon="13.5070005"><ele>730.0</ele><time>2026-05-01T08:24:22.822Z</time></trkpt><trkpt lat="42.6642081" lon="13.5070573"><ele>726.2</ele><time>2026-05-01T08:24:23.822Z</time></trkpt><trkpt lat="42.664126" lon="13.5071508"><ele>722.4</ele><time>2026-05-01T08:24:25.823Z</time></trkpt><trkpt lat="42.6640758" lon="13.5072084"><ele>718.5999999999999</ele><time>2026-05-01T08:24:27.822Z</time></trkpt><trkpt lat="42.6639849" lon="13.5073047"><ele>714.8</ele><time>2026-05-01T08:27:54.823Z</time></trkpt><trkpt lat="42.6639183" lon="13.5073796"><ele>711.0</ele><time>2026-05-01T08:27:55.822Z</time></trkpt><trkpt lat="42.6638396" lon="13.507459"><ele>711.0</ele><time>2026-05-01T08:27:56.822Z</time></trkpt><trkpt lat="42.663755" lon="13.5075436"><ele>711.0</ele><time>2026-05-01T08:27:57.821Z</time></trkpt><trkpt lat="42.6636776" lon="13.507636"><ele>711.0</ele><time>2026-05-01T08:27:58.823Z</time></trkpt><trkpt lat="42.6636025" lon="13.5077366"><ele>711.0</ele><time>2026-05-01T08:27:59.821Z</time></trkpt><trkpt lat="42.6635492" lon="13.5078524"><ele>711.0</ele><time>2026-05-01T08:28:00.822Z</time></trkpt><trkpt lat="42.6635087" lon="13.5079909"><ele>715.0</ele><time>2026-05-01T08:28:01.822Z</time></trkpt><trkpt lat="42.6634711" lon="13.5081401"><ele>719.0</ele><time>2026-05-01T08:28:02.822Z</time></trkpt><trkpt lat="42.663432" lon="13.5082903"><ele>723.0</ele><time>2026-05-01T08:28:03.822Z</time></trkpt><trkpt lat="42.6633903" lon="13.5084455"><ele>727.0</ele><time>2026-05-01T08:28:04.822Z</time></trkpt><trkpt lat="42.6633593" lon="13.5085913"><ele>727.0</ele><time>2026-05-01T08:28:05.822Z</time></trkpt><trkpt lat="42.6632948" lon="13.5087341"><ele>727.0</ele><time>2026-05-01T08:28:06.822Z</time></trkpt><trkpt lat="42.6632264" lon="13.5088949"><ele>727.0</ele><time>2026-05-01T08:28:07.822Z</time></trkpt><trkpt lat="42.6631367" lon="13.5090365"><ele>727.0</ele><time>2026-05-01T08:28:08.822Z</time></trkpt><trkpt lat="42.6630459" lon="13.5092"><ele>724.3333333333334</ele><time>2026-05-01T08:28:09.821Z</time></trkpt><trkpt lat="42.6629558" lon="13.5093669"><ele>721.6666666666666</ele><time>2026-05-01T08:28:10.823Z</time></trkpt><trkpt lat="42.6628909" lon="13.5095588"><ele>719.0</ele><time>2026-05-01T08:28:11.823Z</time></trkpt><trkpt lat="42.6628126" lon="13.50974"><ele>725.0</ele><time>2026-05-01T08:28:12.823Z</time></trkpt><trkpt lat="42.6627558" lon="13.5099219"><ele>731.0</ele><time>2026-05-01T08:28:13.822Z</time></trkpt><trkpt lat="42.6627068" lon="13.5100768"><ele>737.0</ele><time>2026-05-01T08:28:14.823Z</time></trkpt><trkpt lat="42.662649" lon="13.5101964"><ele>743.0</ele><time>2026-05-01T08:28:15.821Z</time></trkpt><trkpt lat="42.6625712" lon="13.5102856"><ele>743.0</ele><time>2026-05-01T08:28:16.822Z</time></trkpt><trkpt lat="42.6624806" lon="13.5103269"><ele>743.0</ele><time>2026-05-01T08:28:17.821Z</time></trkpt><trkpt lat="42.6624046" lon="13.5103733"><ele>743.0</ele><time>2026-05-01T08:28:18.823Z</time></trkpt><trkpt lat="42.6623449" lon="13.5104427"><ele>743.0</ele><time>2026-05-01T08:28:19.823Z</time></trkpt><trkpt lat="42.6622999" lon="13.5105507"><ele>743.0</ele><time>2026-05-01T08:28:20.823Z</time></trkpt><trkpt lat="42.6622696" lon="13.5106914"><ele>739.0</ele><time>2026-05-01T08:28:21.821Z</time></trkpt><trkpt lat="42.6622451" lon="13.5108435"><ele>735.0</ele><time>2026-05-01T08:28:22.822Z</time></trkpt><trkpt lat="42.6622037" lon="13.5109942"><ele>731.0</ele><time>2026-05-01T08:28:23.821Z</time></trkpt><trkpt lat="42.6621335" lon="13.5111467"><ele>727.0</ele><time>2026-05-01T08:28:24.822Z</time></trkpt><trkpt lat="42.6620411" lon="13.5112942"><ele>734.25</ele><time>2026-05-01T08:28:25.822Z</time></trkpt><trkpt lat="42.6619327" lon="13.5114258"><ele>741.5</ele><time>2026-05-01T08:28:26.821Z</time></trkpt><trkpt lat="42.6618248" lon="13.5115493"><ele>748.75</ele><time>2026-05-01T08:28:27.823Z</time></trkpt><trkpt lat="42.6617183" lon="13.5116911"><ele>756.0</ele><time>2026-05-01T08:28:28.823Z</time></trkpt><trkpt lat="42.6616188" lon="13.5118471"><ele>756.0</ele><time>2026-05-01T08:28:29.821Z</time></trkpt><trkpt lat="42.6615244" lon="13.5120243"><ele>756.0</ele><time>2026-05-01T08:28:30.822Z</time></trkpt><trkpt lat="42.6614475" lon="13.5122035"><ele>756.0</ele><time>2026-05-01T08:28:31.822Z</time></trkpt><trkpt lat="42.6613796" lon="13.5123761"><ele>758.0</ele><time>2026-05-01T08:28:32.821Z</time></trkpt><trkpt lat="42.6612971" lon="13.5125379"><ele>760.0</ele><time>2026-05-01T08:28:33.821Z</time></trkpt><trkpt lat="42.6612105" lon="13.5126891"><ele>762.0</ele><time>2026-05-01T08:28:34.823Z</time></trkpt><trkpt lat="42.6611043" lon="13.5128242"><ele>764.0</ele><time>2026-05-01T08:28:35.823Z</time></trkpt><trkpt lat="42.660974" lon="13.5129418"><ele>764.0</ele><time>2026-05-01T08:28:36.821Z</time></trkpt><trkpt lat="42.6608884" lon="13.5130618"><ele>764.0</ele><time>2026-05-01T08:28:37.822Z</time></trkpt><trkpt lat="42.6608236" lon="13.5132004"><ele>764.0</ele><time>2026-05-01T08:28:38.822Z</time></trkpt><trkpt lat="42.6607821" lon="13.5133389"><ele>764.0</ele><time>2026-05-01T08:28:39.822Z</time></trkpt><trkpt lat="42.6607548" lon="13.5134946"><ele>764.0</ele><time>2026-05-01T08:28:40.821Z</time></trkpt><trkpt lat="42.6607438" lon="13.5136389"><ele>764.0</ele><time>2026-05-01T08:28:41.823Z</time></trkpt><trkpt lat="42.660791" lon="13.5137728"><ele>764.0</ele><time>2026-05-01T08:28:42.822Z</time></trkpt><trkpt lat="42.6607872" lon="13.5138858"><ele>764.0</ele><time>2026-05-01T08:28:43.821Z</time></trkpt><trkpt lat="42.6607679" lon="13.5139835"><ele>764.0</ele><time>2026-05-01T08:28:44.823Z</time></trkpt><trkpt lat="42.6606663" lon="13.514034"><ele>764.0</ele><time>2026-05-01T08:28:46.822Z</time></trkpt><trkpt lat="42.6605847" lon="13.5138771"><ele>764.0</ele><time>2026-05-01T08:28:48.823Z</time></trkpt><trkpt lat="42.6605639" lon="13.5137413"><ele>764.0</ele><time>2026-05-01T08:28:49.822Z</time></trkpt><trkpt lat="42.6605222" lon="13.5135716"><ele>764.0</ele><time>2026-05-01T08:28:50.822Z</time></trkpt><trkpt lat="42.6604859" lon="13.5134197"><ele>764.0</ele><time>2026-05-01T08:28:51.821Z</time></trkpt><trkpt lat="42.6604605" lon="13.5132792"><ele>764.0</ele><time>2026-05-01T08:28:52.822Z</time></trkpt><trkpt lat="42.6604778" lon="13.5131505"><ele>764.0</ele><time>2026-05-01T08:28:53.822Z</time></trkpt><trkpt lat="42.6604737" lon="13.5130309"><ele>764.0</ele><time>2026-05-01T08:28:54.821Z</time></trkpt><trkpt lat="42.660594" lon="13.5129542"><ele>764.0</ele><time>2026-05-01T08:28:55.822Z</time></trkpt><trkpt lat="42.6606829" lon="13.5128637"><ele>770.0</ele><time>2026-05-01T08:28:56.821Z</time></trkpt><trkpt lat="42.6607654" lon="13.5127727"><ele>776.0</ele><time>2026-05-01T08:28:57.822Z</time></trkpt><trkpt lat="42.6608598" lon="13.5126756"><ele>782.0</ele><time>2026-05-01T08:28:58.821Z</time></trkpt><trkpt lat="42.6609375" lon="13.5125657"><ele>788.0</ele><time>2026-05-01T08:28:59.822Z</time></trkpt><trkpt lat="42.6610026" lon="13.5124232"><ele>788.0</ele><time>2026-05-01T08:29:00.821Z</time></trkpt><trkpt lat="42.6610612" lon="13.5122556"><ele>788.0</ele><time>2026-05-01T08:29:01.823Z</time></trkpt><trkpt lat="42.6611013" lon="13.5120829"><ele>788.0</ele><time>2026-05-01T08:29:02.823Z</time></trkpt><trkpt lat="42.6611318" lon="13.5119088"><ele>788.0</ele><time>2026-05-01T08:29:03.821Z</time></trkpt><trkpt lat="42.6611599" lon="13.511747"><ele>782.75</ele><time>2026-05-01T08:29:04.822Z</time></trkpt><trkpt lat="42.6611779" lon="13.5115835"><ele>777.5</ele><time>2026-05-01T08:29:05.821Z</time></trkpt><trkpt lat="42.6611701" lon="13.5114089"><ele>772.25</ele><time>2026-05-01T08:29:06.821Z</time></trkpt><trkpt lat="42.6611471" lon="13.5112289"><ele>767.0</ele><time>2026-05-01T08:29:07.823Z</time></trkpt><trkpt lat="42.6611151" lon="13.5110382"><ele>779.25</ele><time>2026-05-01T08:29:08.821Z</time></trkpt><trkpt lat="42.6610771" lon="13.5108571"><ele>791.5</ele><time>2026-05-01T08:29:09.821Z</time></trkpt><trkpt lat="42.6610427" lon="13.5106865"><ele>803.75</ele><time>2026-05-01T08:29:10.821Z</time></trkpt><trkpt lat="42.6610343" lon="13.5105208"><ele>816.0</ele><time>2026-05-01T08:29:11.823Z</time></trkpt><trkpt lat="42.6610353" lon="13.5103554"><ele>818.0</ele><time>2026-05-01T08:29:12.823Z</time></trkpt><trkpt lat="42.6610601" lon="13.5102023"><ele>820.0</ele><time>2026-05-01T08:29:13.822Z</time></trkpt><trkpt lat="42.6611128" lon="13.5100758"><ele>822.0</ele><time>2026-05-01T08:29:14.821Z</time></trkpt><trkpt lat="42.6611929" lon="13.5099535"><ele>824.0</ele><time>2026-05-01T08:29:15.822Z</time></trkpt><trkpt lat="42.6612847" lon="13.5098358"><ele>818.75</ele><time>2026-05-01T08:29:16.822Z</time></trkpt><trkpt lat="42.6613647" lon="13.5097036"><ele>813.5</ele><time>2026-05-01T08:29:17.823Z</time></trkpt><trkpt lat="42.6614426" lon="13.5095685"><ele>808.25</ele><time>2026-05-01T08:29:18.822Z</time></trkpt><trkpt lat="42.6614607" lon="13.5093644"><ele>803.0</ele><time>2026-05-01T08:29:19.822Z</time></trkpt><trkpt lat="42.6615063" lon="13.5091884"><ele>803.0</ele><time>2026-05-01T08:29:20.822Z</time></trkpt><trkpt lat="42.6615598" lon="13.5090107"><ele>803.0</ele><time>2026-05-01T08:29:21.822Z</time></trkpt><trkpt lat="42.6616376" lon="13.508865"><ele>803.0</ele><time>2026-05-01T08:29:22.822Z</time></trkpt><trkpt lat="42.6617249" lon="13.5087474"><ele>803.0</ele><time>2026-05-01T08:29:23.822Z</time></trkpt><trkpt lat="42.6617981" lon="13.5086246"><ele>806.75</ele><time>2026-05-01T08:29:24.821Z</time></trkpt><trkpt lat="42.6618763" lon="13.5084769"><ele>810.5</ele><time>2026-05-01T08:29:25.822Z</time></trkpt><trkpt lat="42.6618821" lon="13.5082758"><ele>814.25</ele><time>2026-05-01T08:29:26.822Z</time></trkpt><trkpt lat="42.6618953" lon="13.5081131"><ele>818.0</ele><time>2026-05-01T08:29:27.821Z</time></trkpt><trkpt lat="42.6619042" lon="13.5079749"><ele>817.1666666666667</ele><time>2026-05-01T08:29:28.821Z</time></trkpt><trkpt lat="42.6618914" lon="13.5078655"><ele>816.3333333333334</ele><time>2026-05-01T08:29:29.821Z</time></trkpt><trkpt lat="42.6618501" lon="13.5077815"><ele>815.5</ele><time>2026-05-01T08:29:30.823Z</time></trkpt><trkpt lat="42.6617827" lon="13.5077167"><ele>814.6666666666667</ele><time>2026-05-01T08:29:31.822Z</time></trkpt><trkpt lat="42.6616901" lon="13.5076687"><ele>813.8333333333334</ele><time>2026-05-01T08:29:32.82Z</time></trkpt><trkpt lat="42.6615927" lon="13.507612"><ele>813.0</ele><time>2026-05-01T08:29:33.821Z</time></trkpt><trkpt lat="42.661508" lon="13.5075187"><ele>813.0</ele><time>2026-05-01T08:29:34.82Z</time></trkpt><trkpt lat="42.6614355" lon="13.507388"><ele>813.0</ele><time>2026-05-01T08:29:35.821Z</time></trkpt><trkpt lat="42.6613632" lon="13.5072375"><ele>813.0</ele><time>2026-05-01T08:29:36.821Z</time></trkpt><trkpt lat="42.6612923" lon="13.5071008"><ele>813.0</ele><time>2026-05-01T08:29:37.822Z</time></trkpt><trkpt lat="42.6612464" lon="13.5069524"><ele>811.0</ele><time>2026-05-01T08:29:38.822Z</time></trkpt><trkpt lat="42.6612182" lon="13.5068004"><ele>809.0</ele><time>2026-05-01T08:29:39.82Z</time></trkpt><trkpt lat="42.6612219" lon="13.5066518"><ele>807.0</ele><time>2026-05-01T08:29:40.82Z</time></trkpt><trkpt lat="42.6612696" lon="13.5065022"><ele>805.0</ele><time>2026-05-01T08:29:41.821Z</time></trkpt><trkpt lat="42.6613177" lon="13.5063479"><ele>807.75</ele><time>2026-05-01T08:29:42.82Z</time></trkpt><trkpt lat="42.6613557" lon="13.5061817"><ele>810.5</ele><time>2026-05-01T08:29:43.822Z</time></trkpt><trkpt lat="42.6613688" lon="13.5060088"><ele>813.25</ele><time>2026-05-01T08:29:44.822Z</time></trkpt><trkpt lat="42.6613481" lon="13.5058266"><ele>816.0</ele><time>2026-05-01T08:29:45.821Z</time></trkpt><trkpt lat="42.6612997" lon="13.5056497"><ele>816.0</ele><time>2026-05-01T08:29:46.82Z</time></trkpt><trkpt lat="42.6612343" lon="13.505479"><ele>816.0</ele><time>2026-05-01T08:29:47.822Z</time></trkpt><trkpt lat="42.6611629" lon="13.5053107"><ele>816.0</ele><time>2026-05-01T08:29:48.822Z</time></trkpt><trkpt lat="42.6610766" lon="13.5051542"><ele>816.0</ele><time>2026-05-01T08:29:49.821Z</time></trkpt><trkpt lat="42.6609955" lon="13.5049995"><ele>817.0</ele><time>2026-05-01T08:29:50.82Z</time></trkpt><trkpt lat="42.6609102" lon="13.5048521"><ele>818.0</ele><time>2026-05-01T08:29:51.82Z</time></trkpt><trkpt lat="42.6608257" lon="13.5047049"><ele>819.0</ele><time>2026-05-01T08:29:52.821Z</time></trkpt><trkpt lat="42.6607434" lon="13.5045671"><ele>820.0</ele><time>2026-05-01T08:29:53.82Z</time></trkpt><trkpt lat="42.6606527" lon="13.5044326"><ele>820.0</ele><time>2026-05-01T08:29:54.821Z</time></trkpt><trkpt lat="42.6605506" lon="13.5043172"><ele>820.0</ele><time>2026-05-01T08:29:55.821Z</time></trkpt><trkpt lat="42.6604399" lon="13.5042048"><ele>820.0</ele><time>2026-05-01T08:29:56.82Z</time></trkpt><trkpt lat="42.6603301" lon="13.5040878"><ele>820.0</ele><time>2026-05-01T08:29:57.822Z</time></trkpt><trkpt lat="42.6602145" lon="13.5039674"><ele>822.0</ele><time>2026-05-01T08:29:58.82Z</time></trkpt><trkpt lat="42.6600967" lon="13.5038488"><ele>824.0</ele><time>2026-05-01T08:29:59.82Z</time></trkpt><trkpt lat="42.6599776" lon="13.5037294"><ele>826.0</ele><time>2026-05-01T08:30:00.822Z</time></trkpt><trkpt lat="42.6598575" lon="13.503608"><ele>828.0</ele><time>2026-05-01T08:30:01.82Z</time></trkpt><trkpt lat="42.659745" lon="13.5034941"><ele>828.0</ele><time>2026-05-01T08:30:02.821Z</time></trkpt><trkpt lat="42.6596366" lon="13.5033815"><ele>828.0</ele><time>2026-05-01T08:30:03.822Z</time></trkpt><trkpt lat="42.6595375" lon="13.5032818"><ele>828.0</ele><time>2026-05-01T08:30:04.821Z</time></trkpt><trkpt lat="42.6594403" lon="13.5031941"><ele>828.0</ele><time>2026-05-01T08:30:05.82Z</time></trkpt><trkpt lat="42.6593548" lon="13.5031292"><ele>830.0</ele><time>2026-05-01T08:30:06.821Z</time></trkpt><trkpt lat="42.6592669" lon="13.503088"><ele>832.0</ele><time>2026-05-01T08:30:07.82Z</time></trkpt><trkpt lat="42.6591862" lon="13.503081"><ele>834.0</ele><time>2026-05-01T08:30:08.821Z</time></trkpt><trkpt lat="42.6591198" lon="13.5031056"><ele>836.0</ele><time>2026-05-01T08:30:09.821Z</time></trkpt><trkpt lat="42.6590181" lon="13.5031648"><ele>838.0</ele><time>2026-05-01T08:30:11.821Z</time></trkpt><trkpt lat="42.6589429" lon="13.5032005"><ele>840.0</ele><time>2026-05-01T08:30:13.82Z</time></trkpt><trkpt lat="42.6588755" lon="13.503213"><ele>840.0</ele><time>2026-05-01T08:30:14.82Z</time></trkpt><trkpt lat="42.6587779" lon="13.503226"><ele>840.0</ele><time>2026-05-01T08:30:15.82Z</time></trkpt><trkpt lat="42.6586616" lon="13.5032525"><ele>840.0</ele><time>2026-05-01T08:30:16.821Z</time></trkpt><trkpt lat="42.658537" lon="13.5032877"><ele>840.0</ele><time>2026-05-01T08:30:17.822Z</time></trkpt><trkpt lat="42.6583961" lon="13.5033284"><ele>839.3333333333333</ele><time>2026-05-01T08:30:18.822Z</time></trkpt><trkpt lat="42.6582414" lon="13.5033682"><ele>838.6666666666666</ele><time>2026-05-01T08:30:19.821Z</time></trkpt><trkpt lat="42.6580812" lon="13.5033695"><ele>838.0</ele><time>2026-05-01T08:30:20.822Z</time></trkpt><trkpt lat="42.6579123" lon="13.5033373"><ele>839.0</ele><time>2026-05-01T08:30:21.82Z</time></trkpt><trkpt lat="42.657759" lon="13.5032917"><ele>840.0</ele><time>2026-05-01T08:30:22.822Z</time></trkpt><trkpt lat="42.6576143" lon="13.5032377"><ele>841.0</ele><time>2026-05-01T08:30:23.82Z</time></trkpt><trkpt lat="42.657475" lon="13.5031859"><ele>841.0</ele><time>2026-05-01T08:30:24.821Z</time></trkpt><trkpt lat="42.6573346" lon="13.5031547"><ele>841.0</ele><time>2026-05-01T08:30:25.822Z</time></trkpt><trkpt lat="42.6571929" lon="13.5031568"><ele>841.0</ele><time>2026-05-01T08:30:26.821Z</time></trkpt><trkpt lat="42.6570477" lon="13.5032021"><ele>841.0</ele><time>2026-05-01T08:30:27.821Z</time></trkpt><trkpt lat="42.6568988" lon="13.503293"><ele>840.6666666666666</ele><time>2026-05-01T08:30:28.821Z</time></trkpt><trkpt lat="42.6567441" lon="13.5033987"><ele>840.3333333333333</ele><time>2026-05-01T08:30:29.821Z</time></trkpt><trkpt lat="42.6565842" lon="13.5034969"><ele>840.0</ele><time>2026-05-01T08:30:30.821Z</time></trkpt><trkpt lat="42.6564168" lon="13.5035762"><ele>840.0</ele><time>2026-05-01T08:30:31.822Z</time></trkpt><trkpt lat="42.6562555" lon="13.5036333"><ele>840.0</ele><time>2026-05-01T08:30:32.822Z</time></trkpt><trkpt lat="42.6561022" lon="13.5036897"><ele>840.0</ele><time>2026-05-01T08:30:33.822Z</time></trkpt><trkpt lat="42.6559584" lon="13.5037389"><ele>840.75</ele><time>2026-05-01T08:30:34.821Z</time></trkpt><trkpt lat="42.6558266" lon="13.5037736"><ele>841.5</ele><time>2026-05-01T08:30:35.82Z</time></trkpt><trkpt lat="42.6557042" lon="13.5037758"><ele>842.25</ele><time>2026-05-01T08:30:36.821Z</time></trkpt><trkpt lat="42.6555973" lon="13.5037327"><ele>843.0</ele><time>2026-05-01T08:30:37.821Z</time></trkpt><trkpt lat="42.6555141" lon="13.5036554"><ele>843.0</ele><time>2026-05-01T08:30:38.822Z</time></trkpt><trkpt lat="42.6554539" lon="13.5035575"><ele>843.0</ele><time>2026-05-01T08:30:39.822Z</time></trkpt><trkpt lat="42.6554174" lon="13.5034481"><ele>843.0</ele><time>2026-05-01T08:30:40.822Z</time></trkpt><trkpt lat="42.6554156" lon="13.5033387"><ele>843.0</ele><time>2026-05-01T08:30:41.821Z</time></trkpt><trkpt lat="42.655461" lon="13.5032368"><ele>843.0</ele><time>2026-05-01T08:30:42.82Z</time></trkpt><trkpt lat="42.655538" lon="13.503145"><ele>843.0</ele><time>2026-05-01T08:30:43.82Z</time></trkpt><trkpt lat="42.6556406" lon="13.5030441"><ele>843.0</ele><time>2026-05-01T08:30:44.821Z</time></trkpt><trkpt lat="42.6557502" lon="13.5029293"><ele>843.0</ele><time>2026-05-01T08:30:45.821Z</time></trkpt><trkpt lat="42.655863" lon="13.502806"><ele>843.0</ele><time>2026-05-01T08:30:46.821Z</time></trkpt><trkpt lat="42.6559802" lon="13.5026881"><ele>840.0</ele><time>2026-05-01T08:30:47.822Z</time></trkpt><trkpt lat="42.6561036" lon="13.5025643"><ele>837.0</ele><time>2026-05-01T08:30:48.822Z</time></trkpt><trkpt lat="42.6562283" lon="13.5024431"><ele>834.0</ele><time>2026-05-01T08:30:49.822Z</time></trkpt><trkpt lat="42.6563526" lon="13.5023119"><ele>834.0</ele><time>2026-05-01T08:30:50.821Z</time></trkpt><trkpt lat="42.6564651" lon="13.5021674"><ele>834.0</ele><time>2026-05-01T08:30:51.822Z</time></trkpt><trkpt lat="42.6565646" lon="13.5020086"><ele>834.0</ele><time>2026-05-01T08:30:52.821Z</time></trkpt><trkpt lat="42.6566467" lon="13.5018386"><ele>831.75</ele><time>2026-05-01T08:30:53.821Z</time></trkpt><trkpt lat="42.6567256" lon="13.5016838"><ele>829.5</ele><time>2026-05-01T08:30:54.821Z</time></trkpt><trkpt lat="42.656815" lon="13.5015396"><ele>827.25</ele><time>2026-05-01T08:30:55.821Z</time></trkpt><trkpt lat="42.6569159" lon="13.5014151"><ele>825.0</ele><time>2026-05-01T08:30:56.822Z</time></trkpt><trkpt lat="42.6570176" lon="13.5012988"><ele>830.75</ele><time>2026-05-01T08:30:57.822Z</time></trkpt><trkpt lat="42.6571235" lon="13.5011834"><ele>836.5</ele><time>2026-05-01T08:30:58.821Z</time></trkpt><trkpt lat="42.6572517" lon="13.5010562"><ele>842.25</ele><time>2026-05-01T08:30:59.821Z</time></trkpt><trkpt lat="42.6573557" lon="13.5009304"><ele>848.0</ele><time>2026-05-01T08:31:00.821Z</time></trkpt><trkpt lat="42.6574508" lon="13.5008156"><ele>848.0000000000001</ele><time>2026-05-01T08:31:01.82Z</time></trkpt><trkpt lat="42.6575376" lon="13.5007128"><ele>848.0</ele><time>2026-05-01T08:31:02.821Z</time></trkpt><trkpt lat="42.6575991" lon="13.5006163"><ele>848.0</ele><time>2026-05-01T08:31:03.821Z</time></trkpt><trkpt lat="42.6576326" lon="13.5005228"><ele>848.0</ele><time>2026-05-01T08:31:04.821Z</time></trkpt><trkpt lat="42.6576343" lon="13.5004315"><ele>848.0000000000001</ele><time>2026-05-01T08:31:05.82Z</time></trkpt><trkpt lat="42.6576049" lon="13.5003319"><ele>848.0</ele><time>2026-05-01T08:31:06.821Z</time></trkpt><trkpt lat="42.6575421" lon="13.5002454"><ele>846.25</ele><time>2026-05-01T08:31:07.821Z</time></trkpt><trkpt lat="42.6574544" lon="13.5001546"><ele>844.5</ele><time>2026-05-01T08:31:08.821Z</time></trkpt><trkpt lat="42.6573539" lon="13.5000683"><ele>842.75</ele><time>2026-05-01T08:31:09.821Z</time></trkpt><trkpt lat="42.6572459" lon="13.4999752"><ele>841.0</ele><time>2026-05-01T08:31:10.822Z</time></trkpt><trkpt lat="42.6571321" lon="13.4998771"><ele>841.0</ele><time>2026-05-01T08:31:11.82Z</time></trkpt><trkpt lat="42.657021" lon="13.4997605"><ele>841.0</ele><time>2026-05-01T08:31:12.821Z</time></trkpt><trkpt lat="42.6569174" lon="13.4996138"><ele>841.0</ele><time>2026-05-01T08:31:13.821Z</time></trkpt><trkpt lat="42.6568182" lon="13.4994507"><ele>841.0</ele><time>2026-05-01T08:31:14.821Z</time></trkpt><trkpt lat="42.6567162" lon="13.4992692"><ele>839.0</ele><time>2026-05-01T08:31:15.822Z</time></trkpt><trkpt lat="42.6566146" lon="13.4990847"><ele>837.0</ele><time>2026-05-01T08:31:16.822Z</time></trkpt><trkpt lat="42.6565213" lon="13.4989035"><ele>835.0</ele><time>2026-05-01T08:31:17.82Z</time></trkpt><trkpt lat="42.6564343" lon="13.4987278"><ele>835.0</ele><time>2026-05-01T08:31:18.821Z</time></trkpt><trkpt lat="42.6563619" lon="13.498558"><ele>835.0</ele><time>2026-05-01T08:31:19.821Z</time></trkpt><trkpt lat="42.6562942" lon="13.4983965"><ele>835.0</ele><time>2026-05-01T08:31:20.82Z</time></trkpt><trkpt lat="42.656228" lon="13.4982484"><ele>835.0</ele><time>2026-05-01T08:31:21.82Z</time></trkpt><trkpt lat="42.656153" lon="13.4981187"><ele>835.0</ele><time>2026-05-01T08:31:22.821Z</time></trkpt><trkpt lat="42.6560529" lon="13.4980533"><ele>835.0</ele><time>2026-05-01T08:31:23.821Z</time></trkpt><trkpt lat="42.6559389" lon="13.4979943"><ele>835.0</ele><time>2026-05-01T08:31:24.82Z</time></trkpt><trkpt lat="42.6558154" lon="13.4979378"><ele>835.0</ele><time>2026-05-01T08:31:25.82Z</time></trkpt><trkpt lat="42.6556901" lon="13.4978501"><ele>835.0</ele><time>2026-05-01T08:31:26.82Z</time></trkpt><trkpt lat="42.6555781" lon="13.4977379"><ele>835.0</ele><time>2026-05-01T08:31:27.82Z</time></trkpt><trkpt lat="42.6554616" lon="13.4976159"><ele>835.0</ele><time>2026-05-01T08:31:28.821Z</time></trkpt><trkpt lat="42.6553366" lon="13.4975156"><ele>835.0</ele><time>2026-05-01T08:31:29.821Z</time></trkpt><trkpt lat="42.6552081" lon="13.4974279"><ele>840.5</ele><time>2026-05-01T08:31:30.821Z</time></trkpt><trkpt lat="42.6550808" lon="13.4973464"><ele>846.0</ele><time>2026-05-01T08:31:31.822Z</time></trkpt><trkpt lat="42.6549565" lon="13.497276"><ele>851.5</ele><time>2026-05-01T08:31:32.821Z</time></trkpt><trkpt lat="42.6548585" lon="13.4972233"><ele>857.0</ele><time>2026-05-01T08:31:33.82Z</time></trkpt><trkpt lat="42.6547667" lon="13.4971477"><ele>851.25</ele><time>2026-05-01T08:31:34.821Z</time></trkpt><trkpt lat="42.6546944" lon="13.4970448"><ele>845.5</ele><time>2026-05-01T08:31:35.821Z</time></trkpt><trkpt lat="42.6546667" lon="13.4969074"><ele>839.75</ele><time>2026-05-01T08:31:36.821Z</time></trkpt><trkpt lat="42.6546454" lon="13.4967477"><ele>834.0</ele><time>2026-05-01T08:31:37.821Z</time></trkpt><trkpt lat="42.6546086" lon="13.4965809"><ele>834.0</ele><time>2026-05-01T08:31:38.822Z</time></trkpt><trkpt lat="42.6545234" lon="13.4964228"><ele>834.0</ele><time>2026-05-01T08:31:39.822Z</time></trkpt><trkpt lat="42.6544176" lon="13.4962636"><ele>834.0</ele><time>2026-05-01T08:31:40.822Z</time></trkpt><trkpt lat="42.6542765" lon="13.4961152"><ele>834.0</ele><time>2026-05-01T08:31:41.821Z</time></trkpt><trkpt lat="42.6541365" lon="13.495975"><ele>834.0</ele><time>2026-05-01T08:31:42.82Z</time></trkpt><trkpt lat="42.6540028" lon="13.4958365"><ele>834.0</ele><time>2026-05-01T08:31:43.821Z</time></trkpt><trkpt lat="42.6538599" lon="13.4956972"><ele>834.0</ele><time>2026-05-01T08:31:44.821Z</time></trkpt><trkpt lat="42.6537095" lon="13.4955766"><ele>834.0</ele><time>2026-05-01T08:31:45.82Z</time></trkpt><trkpt lat="42.6535463" lon="13.495473"><ele>834.0</ele><time>2026-05-01T08:31:46.82Z</time></trkpt><trkpt lat="42.6533741" lon="13.4953933"><ele>831.3333333333333</ele><time>2026-05-01T08:31:47.82Z</time></trkpt><trkpt lat="42.6532041" lon="13.4953109"><ele>828.6666666666666</ele><time>2026-05-01T08:31:48.821Z</time></trkpt><trkpt lat="42.6530377" lon="13.4952323"><ele>826.0</ele><time>2026-05-01T08:31:49.822Z</time></trkpt><trkpt lat="42.6528758" lon="13.4951613"><ele>828.0</ele><time>2026-05-01T08:31:50.82Z</time></trkpt><trkpt lat="42.6527305" lon="13.4950935"><ele>830.0</ele><time>2026-05-01T08:31:51.822Z</time></trkpt><trkpt lat="42.6525952" lon="13.4950573"><ele>832.0</ele><time>2026-05-01T08:31:52.821Z</time></trkpt><trkpt lat="42.6524628" lon="13.4950515"><ele>834.0</ele><time>2026-05-01T08:31:53.821Z</time></trkpt><trkpt lat="42.652343" lon="13.4950669"><ele>834.0</ele><time>2026-05-01T08:31:54.821Z</time></trkpt><trkpt lat="42.6522395" lon="13.4950737"><ele>834.0</ele><time>2026-05-01T08:31:55.822Z</time></trkpt><trkpt lat="42.6521532" lon="13.4950379"><ele>834.0</ele><time>2026-05-01T08:31:56.82Z</time></trkpt><trkpt lat="42.6520764" lon="13.4949828"><ele>834.0</ele><time>2026-05-01T08:31:57.821Z</time></trkpt><trkpt lat="42.6520167" lon="13.4948559"><ele>834.0</ele><time>2026-05-01T08:31:58.822Z</time></trkpt><trkpt lat="42.6519588" lon="13.4946985"><ele>835.6666666666667</ele><time>2026-05-01T08:31:59.821Z</time></trkpt><trkpt lat="42.6518997" lon="13.4945253"><ele>837.3333333333334</ele><time>2026-05-01T08:32:00.821Z</time></trkpt><trkpt lat="42.6518308" lon="13.4943265"><ele>839.0</ele><time>2026-05-01T08:32:01.821Z</time></trkpt><trkpt lat="42.6517634" lon="13.494115"><ele>839.0</ele><time>2026-05-01T08:32:02.82Z</time></trkpt><trkpt lat="42.6516939" lon="13.4939062"><ele>839.0</ele><time>2026-05-01T08:32:03.82Z</time></trkpt><trkpt lat="42.6516238" lon="13.4936918"><ele>839.0</ele><time>2026-05-01T08:32:04.82Z</time></trkpt><trkpt lat="42.651556" lon="13.4934791"><ele>838.0</ele><time>2026-05-01T08:32:05.82Z</time></trkpt><trkpt lat="42.6514841" lon="13.4932763"><ele>837.0</ele><time>2026-05-01T08:32:06.82Z</time></trkpt><trkpt lat="42.6513878" lon="13.4930811"><ele>836.0</ele><time>2026-05-01T08:32:07.822Z</time></trkpt><trkpt lat="42.6512712" lon="13.4928987"><ele>833.3333333333334</ele><time>2026-05-01T08:32:08.822Z</time></trkpt><trkpt lat="42.6511361" lon="13.4927132"><ele>830.6666666666667</ele><time>2026-05-01T08:32:09.821Z</time></trkpt><trkpt lat="42.6509946" lon="13.4925364"><ele>828.0</ele><time>2026-05-01T08:32:10.822Z</time></trkpt><trkpt lat="42.6508478" lon="13.4923558"><ele>830.0</ele><time>2026-05-01T08:32:11.82Z</time></trkpt><trkpt lat="42.6507013" lon="13.4921721"><ele>832.0</ele><time>2026-05-01T08:32:12.822Z</time></trkpt><trkpt lat="42.6505642" lon="13.4919994"><ele>834.0</ele><time>2026-05-01T08:32:13.822Z</time></trkpt><trkpt lat="42.6504474" lon="13.4918543"><ele>834.0</ele><time>2026-05-01T08:32:14.822Z</time></trkpt><trkpt lat="42.6503313" lon="13.4917012"><ele>834.0</ele><time>2026-05-01T08:32:15.82Z</time></trkpt><trkpt lat="42.6502316" lon="13.4915683"><ele>834.0</ele><time>2026-05-01T08:32:16.821Z</time></trkpt><trkpt lat="42.6501389" lon="13.4914458"><ele>834.0</ele><time>2026-05-01T08:32:17.82Z</time></trkpt><trkpt lat="42.6500507" lon="13.4913437"><ele>834.5</ele><time>2026-05-01T08:32:18.82Z</time></trkpt><trkpt lat="42.6499532" lon="13.4912746"><ele>835.0</ele><time>2026-05-01T08:32:19.821Z</time></trkpt><trkpt lat="42.6498381" lon="13.4912503"><ele>835.5</ele><time>2026-05-01T08:32:20.821Z</time></trkpt><trkpt lat="42.6497182" lon="13.4912745"><ele>836.0</ele><time>2026-05-01T08:32:21.821Z</time></trkpt><trkpt lat="42.6495965" lon="13.4913512"><ele>842.0</ele><time>2026-05-01T08:32:22.82Z</time></trkpt><trkpt lat="42.6494743" lon="13.4914577"><ele>848.0</ele><time>2026-05-01T08:32:23.821Z</time></trkpt><trkpt lat="42.649352" lon="13.4915881"><ele>854.0</ele><time>2026-05-01T08:32:24.82Z</time></trkpt><trkpt lat="42.6492316" lon="13.4917458"><ele>854.0</ele><time>2026-05-01T08:32:25.821Z</time></trkpt><trkpt lat="42.6491178" lon="13.4919105"><ele>854.0</ele><time>2026-05-01T08:32:26.821Z</time></trkpt><trkpt lat="42.6489807" lon="13.4920712"><ele>854.0</ele><time>2026-05-01T08:32:27.822Z</time></trkpt><trkpt lat="42.6488481" lon="13.4922371"><ele>858.6666666666667</ele><time>2026-05-01T08:32:28.822Z</time></trkpt><trkpt lat="42.6487321" lon="13.4924138"><ele>863.3333333333333</ele><time>2026-05-01T08:32:29.82Z</time></trkpt><trkpt lat="42.6486182" lon="13.4925804"><ele>868.0</ele><time>2026-05-01T08:32:30.821Z</time></trkpt><trkpt lat="42.648493" lon="13.4927263"><ele>868.0</ele><time>2026-05-01T08:32:31.822Z</time></trkpt><trkpt lat="42.6483601" lon="13.4928441"><ele>868.0</ele><time>2026-05-01T08:32:32.822Z</time></trkpt><trkpt lat="42.6482218" lon="13.4929414"><ele>868.0</ele><time>2026-05-01T08:32:33.821Z</time></trkpt><trkpt lat="42.6480939" lon="13.4930572"><ele>871.25</ele><time>2026-05-01T08:32:34.82Z</time></trkpt><trkpt lat="42.6480008" lon="13.4932152"><ele>874.5</ele><time>2026-05-01T08:32:35.821Z</time></trkpt><trkpt lat="42.647891" lon="13.493329"><ele>877.75</ele><time>2026-05-01T08:32:36.822Z</time></trkpt><trkpt lat="42.6477904" lon="13.4934185"><ele>881.0</ele><time>2026-05-01T08:32:37.821Z</time></trkpt><trkpt lat="42.6476504" lon="13.4934479"><ele>881.0</ele><time>2026-05-01T08:32:38.822Z</time></trkpt><trkpt lat="42.6475238" lon="13.4934981"><ele>881.0</ele><time>2026-05-01T08:32:39.821Z</time></trkpt><trkpt lat="42.6474026" lon="13.4935787"><ele>881.0</ele><time>2026-05-01T08:32:40.821Z</time></trkpt><trkpt lat="42.6472914" lon="13.4936819"><ele>881.0</ele><time>2026-05-01T08:32:41.821Z</time></trkpt><trkpt lat="42.6471985" lon="13.4937858"><ele>885.5999999999999</ele><time>2026-05-01T08:32:42.821Z</time></trkpt><trkpt lat="42.6471057" lon="13.493867"><ele>890.1999999999999</ele><time>2026-05-01T08:32:43.822Z</time></trkpt><trkpt lat="42.6470274" lon="13.4939304"><ele>894.8000000000001</ele><time>2026-05-01T08:32:44.821Z</time></trkpt><trkpt lat="42.6469378" lon="13.4938894"><ele>899.4000000000001</ele><time>2026-05-01T08:32:45.821Z</time></trkpt><trkpt lat="42.6468859" lon="13.4938145"><ele>904.0</ele><time>2026-05-01T08:32:46.821Z</time></trkpt><trkpt lat="42.6468415" lon="13.4936873"><ele>904.0</ele><time>2026-05-01T08:32:47.821Z</time></trkpt><trkpt lat="42.646818" lon="13.4935095"><ele>904.0</ele><time>2026-05-01T08:32:48.821Z</time></trkpt><trkpt lat="42.6468175" lon="13.4933211"><ele>904.0</ele><time>2026-05-01T08:32:49.821Z</time></trkpt><trkpt lat="42.6468371" lon="13.4931052"><ele>904.0</ele><time>2026-05-01T08:32:50.822Z</time></trkpt><trkpt lat="42.6468863" lon="13.4929089"><ele>906.75</ele><time>2026-05-01T08:32:51.82Z</time></trkpt><trkpt lat="42.6469398" lon="13.4927385"><ele>909.5</ele><time>2026-05-01T08:32:52.821Z</time></trkpt><trkpt lat="42.6469953" lon="13.4925718"><ele>912.25</ele><time>2026-05-01T08:32:53.82Z</time></trkpt><trkpt lat="42.6470292" lon="13.492413"><ele>915.0</ele><time>2026-05-01T08:32:54.821Z</time></trkpt><trkpt lat="42.647064" lon="13.4922455"><ele>915.4</ele><time>2026-05-01T08:32:55.821Z</time></trkpt><trkpt lat="42.6470733" lon="13.4920989"><ele>915.8</ele><time>2026-05-01T08:32:56.821Z</time></trkpt><trkpt lat="42.6470344" lon="13.4919699"><ele>916.2</ele><time>2026-05-01T08:32:57.821Z</time></trkpt><trkpt lat="42.6470308" lon="13.4918088"><ele>916.6</ele><time>2026-05-01T08:32:58.821Z</time></trkpt><trkpt lat="42.6469672" lon="13.491676"><ele>917.0</ele><time>2026-05-01T08:32:59.821Z</time></trkpt><trkpt lat="42.6469537" lon="13.4915063"><ele>910.0</ele><time>2026-05-01T08:33:00.82Z</time></trkpt><trkpt lat="42.6469715" lon="13.4913478"><ele>903.0</ele><time>2026-05-01T08:33:01.82Z</time></trkpt><trkpt lat="42.6469806" lon="13.4911964"><ele>896.0</ele><time>2026-05-01T08:33:02.821Z</time></trkpt><trkpt lat="42.6469916" lon="13.4910425"><ele>889.0</ele><time>2026-05-01T08:33:03.822Z</time></trkpt><trkpt lat="42.6470066" lon="13.490896"><ele>889.0</ele><time>2026-05-01T08:33:04.82Z</time></trkpt><trkpt lat="42.6470167" lon="13.4907608"><ele>889.0000000000001</ele><time>2026-05-01T08:33:05.821Z</time></trkpt><trkpt lat="42.6469649" lon="13.4906627"><ele>889.0000000000001</ele><time>2026-05-01T08:33:06.822Z</time></trkpt><trkpt lat="42.646945" lon="13.4905584"><ele>889.0</ele><time>2026-05-01T08:33:07.82Z</time></trkpt><trkpt lat="42.6469129" lon="13.4904776"><ele>889.0</ele><time>2026-05-01T08:33:08.821Z</time></trkpt><trkpt lat="42.6468003" lon="13.4904363"><ele>892.25</ele><time>2026-05-01T08:33:09.82Z</time></trkpt><trkpt lat="42.6467075" lon="13.4903625"><ele>895.5</ele><time>2026-05-01T08:33:10.821Z</time></trkpt><trkpt lat="42.6466089" lon="13.4902736"><ele>898.75</ele><time>2026-05-01T08:33:11.82Z</time></trkpt><trkpt lat="42.6465022" lon="13.4901848"><ele>902.0</ele><time>2026-05-01T08:33:12.821Z</time></trkpt><trkpt lat="42.6463952" lon="13.4901029"><ele>902.0</ele><time>2026-05-01T08:33:13.82Z</time></trkpt><trkpt lat="42.6462934" lon="13.4900371"><ele>902.0</ele><time>2026-05-01T08:33:14.82Z</time></trkpt><trkpt lat="42.6461975" lon="13.4899946"><ele>902.0</ele><time>2026-05-01T08:33:15.82Z</time></trkpt><trkpt lat="42.6460968" lon="13.4899684"><ele>902.0</ele><time>2026-05-01T08:33:16.822Z</time></trkpt><trkpt lat="42.6459878" lon="13.4899662"><ele>902.0</ele><time>2026-05-01T08:33:17.821Z</time></trkpt><trkpt lat="42.6458821" lon="13.4900046"><ele>903.75</ele><time>2026-05-01T08:33:18.82Z</time></trkpt><trkpt lat="42.6457733" lon="13.4900731"><ele>905.5</ele><time>2026-05-01T08:33:19.82Z</time></trkpt><trkpt lat="42.6456626" lon="13.490163"><ele>907.25</ele><time>2026-05-01T08:33:20.821Z</time></trkpt><trkpt lat="42.6455559" lon="13.4902705"><ele>909.0</ele><time>2026-05-01T08:33:21.82Z</time></trkpt><trkpt lat="42.64544" lon="13.4903691"><ele>913.5</ele><time>2026-05-01T08:33:22.82Z</time></trkpt><trkpt lat="42.6453201" lon="13.4904648"><ele>918.0</ele><time>2026-05-01T08:33:23.821Z</time></trkpt><trkpt lat="42.645182" lon="13.4905374"><ele>922.5</ele><time>2026-05-01T08:33:24.82Z</time></trkpt><trkpt lat="42.6450353" lon="13.4905943"><ele>927.0</ele><time>2026-05-01T08:33:25.82Z</time></trkpt><trkpt lat="42.6448786" lon="13.4906391"><ele>926.6666666666667</ele><time>2026-05-01T08:33:26.822Z</time></trkpt><trkpt lat="42.6447214" lon="13.490685"><ele>926.3333333333334</ele><time>2026-05-01T08:33:27.821Z</time></trkpt><trkpt lat="42.644558" lon="13.4907178"><ele>926.0</ele><time>2026-05-01T08:33:28.822Z</time></trkpt><trkpt lat="42.6443933" lon="13.4907326"><ele>926.0</ele><time>2026-05-01T08:33:29.821Z</time></trkpt><trkpt lat="42.6442216" lon="13.4907342"><ele>926.0</ele><time>2026-05-01T08:33:30.821Z</time></trkpt><trkpt lat="42.6440513" lon="13.4907291"><ele>926.0</ele><time>2026-05-01T08:33:31.821Z</time></trkpt><trkpt lat="42.6438944" lon="13.4907198"><ele>926.0</ele><time>2026-05-01T08:33:32.821Z</time></trkpt><trkpt lat="42.6437501" lon="13.4907178"><ele>926.0</ele><time>2026-05-01T08:33:33.82Z</time></trkpt><trkpt lat="42.6436248" lon="13.4907138"><ele>926.0</ele><time>2026-05-01T08:33:34.82Z</time></trkpt><trkpt lat="42.6435216" lon="13.4906881"><ele>926.0</ele><time>2026-05-01T08:33:35.82Z</time></trkpt><trkpt lat="42.6434424" lon="13.4906289"><ele>926.0</ele><time>2026-05-01T08:33:36.821Z</time></trkpt><trkpt lat="42.6433923" lon="13.4905233"><ele>926.0</ele><time>2026-05-01T08:33:37.821Z</time></trkpt><trkpt lat="42.6433752" lon="13.4903888"><ele>926.0</ele><time>2026-05-01T08:33:38.822Z</time></trkpt><trkpt lat="42.6433826" lon="13.4902197"><ele>926.0</ele><time>2026-05-01T08:33:39.821Z</time></trkpt><trkpt lat="42.6434207" lon="13.4900296"><ele>926.0</ele><time>2026-05-01T08:33:40.82Z</time></trkpt><trkpt lat="42.6434479" lon="13.4898188"><ele>926.0</ele><time>2026-05-01T08:33:41.82Z</time></trkpt><trkpt lat="42.6434737" lon="13.4896205"><ele>926.0</ele><time>2026-05-01T08:33:42.821Z</time></trkpt><trkpt lat="42.6434958" lon="13.4894339"><ele>926.0</ele><time>2026-05-01T08:33:43.821Z</time></trkpt><trkpt lat="42.6435272" lon="13.489252"><ele>927.5</ele><time>2026-05-01T08:33:44.821Z</time></trkpt><trkpt lat="42.643572" lon="13.4890637"><ele>929.0</ele><time>2026-05-01T08:33:45.822Z</time></trkpt><trkpt lat="42.6436276" lon="13.488868"><ele>930.5</ele><time>2026-05-01T08:33:46.821Z</time></trkpt><trkpt lat="42.6436783" lon="13.48868"><ele>932.0</ele><time>2026-05-01T08:33:47.821Z</time></trkpt><trkpt lat="42.643733" lon="13.4884977"><ele>927.75</ele><time>2026-05-01T08:33:48.822Z</time></trkpt><trkpt lat="42.6437876" lon="13.4883107"><ele>923.5</ele><time>2026-05-01T08:33:49.821Z</time></trkpt><trkpt lat="42.643828" lon="13.4881125"><ele>919.25</ele><time>2026-05-01T08:33:50.821Z</time></trkpt><trkpt lat="42.6438432" lon="13.48791"><ele>915.0</ele><time>2026-05-01T08:33:51.82Z</time></trkpt><trkpt lat="42.6438489" lon="13.487701"><ele>915.0</ele><time>2026-05-01T08:33:52.82Z</time></trkpt><trkpt lat="42.6438522" lon="13.4874911"><ele>915.0</ele><time>2026-05-01T08:33:53.819Z</time></trkpt><trkpt lat="42.6438292" lon="13.4872776"><ele>915.0</ele><time>2026-05-01T08:33:54.82Z</time></trkpt><trkpt lat="42.6437756" lon="13.4870691"><ele>919.3333333333333</ele><time>2026-05-01T08:33:55.82Z</time></trkpt><trkpt lat="42.64371" lon="13.4868704"><ele>923.6666666666666</ele><time>2026-05-01T08:33:56.821Z</time></trkpt><trkpt lat="42.6436363" lon="13.4866801"><ele>928.0</ele><time>2026-05-01T08:33:57.819Z</time></trkpt><trkpt lat="42.643565" lon="13.4864966"><ele>928.0</ele><time>2026-05-01T08:33:58.819Z</time></trkpt><trkpt lat="42.6434893" lon="13.4863319"><ele>928.0</ele><time>2026-05-01T08:33:59.82Z</time></trkpt><trkpt lat="42.6434014" lon="13.4861933"><ele>928.0</ele><time>2026-05-01T08:34:00.819Z</time></trkpt><trkpt lat="42.643293" lon="13.4860886"><ele>928.0</ele><time>2026-05-01T08:34:01.82Z</time></trkpt><trkpt lat="42.6431628" lon="13.4860094"><ele>923.0</ele><time>2026-05-01T08:34:02.82Z</time></trkpt><trkpt lat="42.643022" lon="13.4859593"><ele>918.0</ele><time>2026-05-01T08:34:03.819Z</time></trkpt><trkpt lat="42.642871" lon="13.485949"><ele>913.0</ele><time>2026-05-01T08:34:04.82Z</time></trkpt><trkpt lat="42.6427099" lon="13.4859716"><ele>913.0</ele><time>2026-05-01T08:34:05.82Z</time></trkpt><trkpt lat="42.6425521" lon="13.4860114"><ele>913.0</ele><time>2026-05-01T08:34:06.819Z</time></trkpt><trkpt lat="42.6423992" lon="13.486049"><ele>913.0</ele><time>2026-05-01T08:34:07.82Z</time></trkpt><trkpt lat="42.6422467" lon="13.4860653"><ele>913.0</ele><time>2026-05-01T08:34:08.82Z</time></trkpt><trkpt lat="42.6420977" lon="13.4860753"><ele>913.0</ele><time>2026-05-01T08:34:09.819Z</time></trkpt><trkpt lat="42.6419584" lon="13.4860873"><ele>913.0</ele><time>2026-05-01T08:34:10.819Z</time></trkpt><trkpt lat="42.6418365" lon="13.4861073"><ele>913.0</ele><time>2026-05-01T08:34:11.82Z</time></trkpt><trkpt lat="42.6417278" lon="13.4861124"><ele>913.6666666666666</ele><time>2026-05-01T08:34:12.821Z</time></trkpt><trkpt lat="42.6416321" lon="13.4861036"><ele>914.3333333333333</ele><time>2026-05-01T08:34:13.82Z</time></trkpt><trkpt lat="42.6415604" lon="13.4860668"><ele>915.0</ele><time>2026-05-01T08:34:14.82Z</time></trkpt><trkpt lat="42.6415105" lon="13.4860026"><ele>915.6666666666667</ele><time>2026-05-01T08:34:15.82Z</time></trkpt><trkpt lat="42.6414862" lon="13.4859098"><ele>916.3333333333334</ele><time>2026-05-01T08:34:16.821Z</time></trkpt><trkpt lat="42.6414949" lon="13.4858149"><ele>917.0</ele><time>2026-05-01T08:34:17.819Z</time></trkpt><trkpt lat="42.6415285" lon="13.4857194"><ele>917.0</ele><time>2026-05-01T08:34:18.819Z</time></trkpt><trkpt lat="42.6415974" lon="13.4856246"><ele>917.0</ele><time>2026-05-01T08:34:19.821Z</time></trkpt><trkpt lat="42.6416746" lon="13.485516"><ele>917.0</ele><time>2026-05-01T08:34:20.821Z</time></trkpt><trkpt lat="42.6417499" lon="13.4853825"><ele>917.0</ele><time>2026-05-01T08:34:21.82Z</time></trkpt><trkpt lat="42.6418252" lon="13.4852352"><ele>916.5</ele><time>2026-05-01T08:34:22.821Z</time></trkpt><trkpt lat="42.6419" lon="13.4850828"><ele>916.0</ele><time>2026-05-01T08:34:23.82Z</time></trkpt><trkpt lat="42.6419745" lon="13.4849293"><ele>915.5</ele><time>2026-05-01T08:34:24.82Z</time></trkpt><trkpt lat="42.6420512" lon="13.4847811"><ele>915.0</ele><time>2026-05-01T08:34:25.82Z</time></trkpt><trkpt lat="42.6421274" lon="13.4846312"><ele>911.25</ele><time>2026-05-01T08:34:26.821Z</time></trkpt><trkpt lat="42.6422043" lon="13.48449"><ele>907.5</ele><time>2026-05-01T08:34:27.82Z</time></trkpt><trkpt lat="42.6422679" lon="13.4843504"><ele>903.75</ele><time>2026-05-01T08:34:28.82Z</time></trkpt><trkpt lat="42.6423226" lon="13.4842115"><ele>900.0</ele><time>2026-05-01T08:34:29.82Z</time></trkpt><trkpt lat="42.6423438" lon="13.4840679"><ele>900.0</ele><time>2026-05-01T08:34:30.821Z</time></trkpt><trkpt lat="42.6423423" lon="13.4839326"><ele>900.0</ele><time>2026-05-01T08:34:31.819Z</time></trkpt><trkpt lat="42.6423203" lon="13.4838007"><ele>900.0</ele><time>2026-05-01T08:34:32.819Z</time></trkpt><trkpt lat="42.6422822" lon="13.4836824"><ele>900.0</ele><time>2026-05-01T08:34:33.819Z</time></trkpt><trkpt lat="42.642237" lon="13.4835764"><ele>900.0</ele><time>2026-05-01T08:34:34.82Z</time></trkpt><trkpt lat="42.6421687" lon="13.483509"><ele>898.2</ele><time>2026-05-01T08:34:35.821Z</time></trkpt><trkpt lat="42.6420899" lon="13.4834727"><ele>896.4</ele><time>2026-05-01T08:34:36.82Z</time></trkpt><trkpt lat="42.6419887" lon="13.4834688"><ele>894.5999999999999</ele><time>2026-05-01T08:34:37.819Z</time></trkpt><trkpt lat="42.6418708" lon="13.4834849"><ele>892.8</ele><time>2026-05-01T08:34:38.82Z</time></trkpt><trkpt lat="42.641743" lon="13.483491"><ele>891.0</ele><time>2026-05-01T08:34:39.819Z</time></trkpt><trkpt lat="42.6416014" lon="13.4834869"><ele>891.0</ele><time>2026-05-01T08:34:40.82Z</time></trkpt><trkpt lat="42.6414482" lon="13.4834724"><ele>891.0</ele><time>2026-05-01T08:34:41.819Z</time></trkpt><trkpt lat="42.6412885" lon="13.4834287"><ele>891.0</ele><time>2026-05-01T08:34:42.82Z</time></trkpt><trkpt lat="42.6411286" lon="13.4833861"><ele>895.0</ele><time>2026-05-01T08:34:43.819Z</time></trkpt><trkpt lat="42.6409677" lon="13.4833339"><ele>899.0</ele><time>2026-05-01T08:34:44.82Z</time></trkpt><trkpt lat="42.6408093" lon="13.4832705"><ele>903.0</ele><time>2026-05-01T08:34:45.821Z</time></trkpt><trkpt lat="42.6406582" lon="13.4832161"><ele>903.0</ele><time>2026-05-01T08:34:46.82Z</time></trkpt><trkpt lat="42.6405128" lon="13.4831488"><ele>903.0</ele><time>2026-05-01T08:34:47.82Z</time></trkpt><trkpt lat="42.6403757" lon="13.4830727"><ele>903.0</ele><time>2026-05-01T08:34:48.82Z</time></trkpt><trkpt lat="42.6402467" lon="13.4829969"><ele>903.0</ele><time>2026-05-01T08:34:49.82Z</time></trkpt><trkpt lat="42.6401324" lon="13.4829258"><ele>899.8</ele><time>2026-05-01T08:34:50.819Z</time></trkpt><trkpt lat="42.6400253" lon="13.4828731"><ele>896.5999999999999</ele><time>2026-05-01T08:34:51.82Z</time></trkpt><trkpt lat="42.6399362" lon="13.4828123"><ele>893.4000000000001</ele><time>2026-05-01T08:34:52.819Z</time></trkpt><trkpt lat="42.6398649" lon="13.48273"><ele>890.2</ele><time>2026-05-01T08:34:53.821Z</time></trkpt><trkpt lat="42.6398117" lon="13.4826048"><ele>887.0</ele><time>2026-05-01T08:34:54.82Z</time></trkpt><trkpt lat="42.6397709" lon="13.4824502"><ele>887.0</ele><time>2026-05-01T08:34:55.821Z</time></trkpt><trkpt lat="42.639712" lon="13.4822804"><ele>887.0</ele><time>2026-05-01T08:34:56.82Z</time></trkpt><trkpt lat="42.6396428" lon="13.4821006"><ele>887.0</ele><time>2026-05-01T08:34:57.82Z</time></trkpt><trkpt lat="42.6395713" lon="13.4819195"><ele>887.0</ele><time>2026-05-01T08:34:58.82Z</time></trkpt><trkpt lat="42.6395102" lon="13.4817234"><ele>891.6666666666667</ele><time>2026-05-01T08:34:59.82Z</time></trkpt><trkpt lat="42.6394649" lon="13.4815107"><ele>896.3333333333333</ele><time>2026-05-01T08:35:00.82Z</time></trkpt><trkpt lat="42.6394109" lon="13.481329"><ele>901.0</ele><time>2026-05-01T08:35:01.819Z</time></trkpt><trkpt lat="42.6393524" lon="13.4811514"><ele>901.0</ele><time>2026-05-01T08:35:02.82Z</time></trkpt><trkpt lat="42.639297" lon="13.4809753"><ele>901.0</ele><time>2026-05-01T08:35:03.821Z</time></trkpt><trkpt lat="42.6392629" lon="13.4807927"><ele>901.0</ele><time>2026-05-01T08:35:04.821Z</time></trkpt><trkpt lat="42.6392311" lon="13.4806195"><ele>901.0</ele><time>2026-05-01T08:35:05.82Z</time></trkpt><trkpt lat="42.6391952" lon="13.4804367"><ele>896.3333333333333</ele><time>2026-05-01T08:35:06.821Z</time></trkpt><trkpt lat="42.639141" lon="13.4802487"><ele>891.6666666666667</ele><time>2026-05-01T08:35:07.82Z</time></trkpt><trkpt lat="42.63907" lon="13.4800561"><ele>887.0</ele><time>2026-05-01T08:35:08.819Z</time></trkpt><trkpt lat="42.6389987" lon="13.4798661"><ele>887.0</ele><time>2026-05-01T08:35:09.82Z</time></trkpt><trkpt lat="42.6389157" lon="13.4796755"><ele>887.0</ele><time>2026-05-01T08:35:10.82Z</time></trkpt><trkpt lat="42.6388363" lon="13.4794991"><ele>887.0</ele><time>2026-05-01T08:35:11.821Z</time></trkpt><trkpt lat="42.6387622" lon="13.479324"><ele>888.0</ele><time>2026-05-01T08:35:12.821Z</time></trkpt><trkpt lat="42.6386906" lon="13.4791494"><ele>889.0</ele><time>2026-05-01T08:35:13.821Z</time></trkpt><trkpt lat="42.6386332" lon="13.47898"><ele>890.0</ele><time>2026-05-01T08:35:14.82Z</time></trkpt><trkpt lat="42.6385849" lon="13.4788147"><ele>891.0</ele><time>2026-05-01T08:35:15.821Z</time></trkpt><trkpt lat="42.6385446" lon="13.4786659"><ele>892.8</ele><time>2026-05-01T08:35:16.821Z</time></trkpt><trkpt lat="42.6385253" lon="13.4785251"><ele>894.5999999999999</ele><time>2026-05-01T08:35:17.82Z</time></trkpt><trkpt lat="42.6385341" lon="13.4783976"><ele>896.4</ele><time>2026-05-01T08:35:18.82Z</time></trkpt><trkpt lat="42.6385588" lon="13.4782708"><ele>898.2</ele><time>2026-05-01T08:35:19.819Z</time></trkpt><trkpt lat="42.6385926" lon="13.4781415"><ele>900.0</ele><time>2026-05-01T08:35:20.819Z</time></trkpt><trkpt lat="42.6386268" lon="13.4780172"><ele>899.4</ele><time>2026-05-01T08:35:21.82Z</time></trkpt><trkpt lat="42.638659" lon="13.4779096"><ele>898.8</ele><time>2026-05-01T08:35:22.821Z</time></trkpt><trkpt lat="42.6386947" lon="13.4778323"><ele>898.2</ele><time>2026-05-01T08:35:23.82Z</time></trkpt><trkpt lat="42.6387836" lon="13.4777667"><ele>897.6</ele><time>2026-05-01T08:35:25.819Z</time></trkpt><trkpt lat="42.6389151" lon="13.4778394"><ele>897.0</ele><time>2026-05-01T08:35:27.819Z</time></trkpt><trkpt lat="42.6389901" lon="13.4779511"><ele>897.0</ele><time>2026-05-01T08:35:28.821Z</time></trkpt><trkpt lat="42.6390614" lon="13.4780987"><ele>897.0</ele><time>2026-05-01T08:35:29.82Z</time></trkpt><trkpt lat="42.6391297" lon="13.4782569"><ele>897.0</ele><time>2026-05-01T08:35:30.82Z</time></trkpt><trkpt lat="42.6391964" lon="13.4784149"><ele>897.0</ele><time>2026-05-01T08:35:31.821Z</time></trkpt><trkpt lat="42.6392512" lon="13.4785597"><ele>897.0</ele><time>2026-05-01T08:35:32.821Z</time></trkpt><trkpt lat="42.6393055" lon="13.4786906"><ele>897.0</ele><time>2026-05-01T08:35:33.819Z</time></trkpt><trkpt lat="42.639353" lon="13.4788076"><ele>897.0</ele><time>2026-05-01T08:35:34.819Z</time></trkpt><trkpt lat="42.6394037" lon="13.4789107"><ele>897.0</ele><time>2026-05-01T08:35:35.819Z</time></trkpt><trkpt lat="42.6394507" lon="13.4789929"><ele>897.0</ele><time>2026-05-01T08:35:36.82Z</time></trkpt><trkpt lat="42.6395103" lon="13.4790635"><ele>897.0</ele><time>2026-05-01T08:35:37.819Z</time></trkpt><trkpt lat="42.6395834" lon="13.4791091"><ele>897.0</ele><time>2026-05-01T08:35:38.819Z</time></trkpt><trkpt lat="42.6397442" lon="13.47909"><ele>897.0</ele><time>2026-05-01T08:35:40.82Z</time></trkpt><trkpt lat="42.6397908" lon="13.4790147"><ele>897.0</ele><time>2026-05-01T08:35:41.82Z</time></trkpt><trkpt lat="42.639816" lon="13.4789283"><ele>897.0</ele><time>2026-05-01T08:35:42.82Z</time></trkpt><trkpt lat="42.639813" lon="13.4788328"><ele>901.5</ele><time>2026-05-01T08:35:43.82Z</time></trkpt><trkpt lat="42.6397757" lon="13.4787173"><ele>906.0</ele><time>2026-05-01T08:35:44.821Z</time></trkpt><trkpt lat="42.6397231" lon="13.4785835"><ele>910.5</ele><time>2026-05-01T08:35:45.82Z</time></trkpt><trkpt lat="42.6396545" lon="13.4784295"><ele>915.0</ele><time>2026-05-01T08:35:46.819Z</time></trkpt><trkpt lat="42.6395871" lon="13.4782615"><ele>915.0</ele><time>2026-05-01T08:35:47.819Z</time></trkpt><trkpt lat="42.6395218" lon="13.4781112"><ele>915.0</ele><time>2026-05-01T08:35:48.819Z</time></trkpt><trkpt lat="42.6394577" lon="13.4779749"><ele>915.0</ele><time>2026-05-01T08:35:49.82Z</time></trkpt><trkpt lat="42.6394136" lon="13.4778557"><ele>915.0</ele><time>2026-05-01T08:35:50.821Z</time></trkpt><trkpt lat="42.6394006" lon="13.4777451"><ele>915.0</ele><time>2026-05-01T08:35:51.821Z</time></trkpt><trkpt lat="42.6394273" lon="13.4776548"><ele>919.0</ele><time>2026-05-01T08:35:52.82Z</time></trkpt><trkpt lat="42.6394795" lon="13.4776069"><ele>923.0</ele><time>2026-05-01T08:35:53.82Z</time></trkpt><trkpt lat="42.6395574" lon="13.4776044"><ele>927.0</ele><time>2026-05-01T08:35:54.82Z</time></trkpt><trkpt lat="42.639656" lon="13.4776401"><ele>931.0</ele><time>2026-05-01T08:35:55.819Z</time></trkpt><trkpt lat="42.6397764" lon="13.4776835"><ele>935.0</ele><time>2026-05-01T08:35:56.82Z</time></trkpt><trkpt lat="42.6399063" lon="13.4777308"><ele>935.0</ele><time>2026-05-01T08:35:57.819Z</time></trkpt><trkpt lat="42.6400565" lon="13.4777454"><ele>935.0</ele><time>2026-05-01T08:35:58.82Z</time></trkpt><trkpt lat="42.6402247" lon="13.4777128"><ele>935.0</ele><time>2026-05-01T08:35:59.82Z</time></trkpt><trkpt lat="42.6403987" lon="13.477656"><ele>936.0</ele><time>2026-05-01T08:36:00.82Z</time></trkpt><trkpt lat="42.6405792" lon="13.4775961"><ele>937.0</ele><time>2026-05-01T08:36:01.82Z</time></trkpt><trkpt lat="42.6407679" lon="13.4775292"><ele>938.0</ele><time>2026-05-01T08:36:02.819Z</time></trkpt><trkpt lat="42.640945" lon="13.4774537"><ele>938.0</ele><time>2026-05-01T08:36:03.819Z</time></trkpt><trkpt lat="42.6411107" lon="13.477366"><ele>938.0</ele><time>2026-05-01T08:36:04.82Z</time></trkpt><trkpt lat="42.6412601" lon="13.4772745"><ele>938.0</ele><time>2026-05-01T08:36:05.82Z</time></trkpt><trkpt lat="42.6414068" lon="13.4772176"><ele>937.0</ele><time>2026-05-01T08:36:06.821Z</time></trkpt><trkpt lat="42.6415599" lon="13.4771961"><ele>936.0</ele><time>2026-05-01T08:36:07.82Z</time></trkpt><trkpt lat="42.6417035" lon="13.4772033"><ele>935.0</ele><time>2026-05-01T08:36:08.82Z</time></trkpt><trkpt lat="42.6418306" lon="13.4771995"><ele>934.0</ele><time>2026-05-01T08:36:09.819Z</time></trkpt><trkpt lat="42.6419463" lon="13.4771682"><ele>934.5</ele><time>2026-05-01T08:36:10.821Z</time></trkpt><trkpt lat="42.6420585" lon="13.4771484"><ele>935.0</ele><time>2026-05-01T08:36:11.82Z</time></trkpt><trkpt lat="42.6421455" lon="13.4770851"><ele>935.5</ele><time>2026-05-01T08:36:12.82Z</time></trkpt><trkpt lat="42.6421493" lon="13.4768745"><ele>936.0</ele><time>2026-05-01T08:36:13.821Z</time></trkpt><trkpt lat="42.642196" lon="13.4767474"><ele>936.0</ele><time>2026-05-01T08:36:14.82Z</time></trkpt><trkpt lat="42.6421936" lon="13.4765067"><ele>936.0</ele><time>2026-05-01T08:36:15.821Z</time></trkpt><trkpt lat="42.6421916" lon="13.4762808"><ele>936.0</ele><time>2026-05-01T08:36:16.82Z</time></trkpt><trkpt lat="42.6422155" lon="13.4760426"><ele>937.6666666666667</ele><time>2026-05-01T08:36:17.821Z</time></trkpt><trkpt lat="42.6422531" lon="13.4758236"><ele>939.3333333333334</ele><time>2026-05-01T08:36:18.821Z</time></trkpt><trkpt lat="42.6422834" lon="13.4756191"><ele>941.0</ele><time>2026-05-01T08:36:19.82Z</time></trkpt><trkpt lat="42.6423384" lon="13.4754243"><ele>946.5</ele><time>2026-05-01T08:36:20.82Z</time></trkpt><trkpt lat="42.6424091" lon="13.475229"><ele>952.0</ele><time>2026-05-01T08:36:21.819Z</time></trkpt><trkpt lat="42.6424981" lon="13.4750615"><ele>957.5</ele><time>2026-05-01T08:36:22.82Z</time></trkpt><trkpt lat="42.6425832" lon="13.4749286"><ele>963.0</ele><time>2026-05-01T08:36:23.821Z</time></trkpt><trkpt lat="42.6426592" lon="13.4748225"><ele>963.0</ele><time>2026-05-01T08:36:24.82Z</time></trkpt><trkpt lat="42.6427263" lon="13.4747234"><ele>963.0</ele><time>2026-05-01T08:36:25.821Z</time></trkpt><trkpt lat="42.6427478" lon="13.4746152"><ele>963.0</ele><time>2026-05-01T08:36:26.821Z</time></trkpt><trkpt lat="42.6427351" lon="13.474456"><ele>963.0</ele><time>2026-05-01T08:36:27.82Z</time></trkpt><trkpt lat="42.6427515" lon="13.4743317"><ele>963.0</ele><time>2026-05-01T08:36:28.821Z</time></trkpt><trkpt lat="42.6427335" lon="13.4741846"><ele>964.0</ele><time>2026-05-01T08:36:29.821Z</time></trkpt><trkpt lat="42.6427117" lon="13.4740523"><ele>965.0</ele><time>2026-05-01T08:36:30.82Z</time></trkpt><trkpt lat="42.6426934" lon="13.4739263"><ele>966.0</ele><time>2026-05-01T08:36:31.82Z</time></trkpt><trkpt lat="42.6426815" lon="13.473789"><ele>967.0</ele><time>2026-05-01T08:36:32.821Z</time></trkpt><trkpt lat="42.6426918" lon="13.4736546"><ele>968.0</ele><time>2026-05-01T08:36:33.821Z</time></trkpt><trkpt lat="42.6427197" lon="13.4735361"><ele>968.0000000000001</ele><time>2026-05-01T08:36:34.821Z</time></trkpt><trkpt lat="42.6427717" lon="13.4734271"><ele>968.0</ele><time>2026-05-01T08:36:35.82Z</time></trkpt><trkpt lat="42.6428289" lon="13.4733364"><ele>968.0</ele><time>2026-05-01T08:36:36.821Z</time></trkpt><trkpt lat="42.6428968" lon="13.4732726"><ele>968.0</ele><time>2026-05-01T08:36:37.82Z</time></trkpt><trkpt lat="42.6429627" lon="13.4732469"><ele>968.0000000000001</ele><time>2026-05-01T08:36:38.82Z</time></trkpt><trkpt lat="42.6430414" lon="13.4732534"><ele>968.0</ele><time>2026-05-01T08:36:39.82Z</time></trkpt><trkpt lat="42.6431333" lon="13.473309"><ele>966.5</ele><time>2026-05-01T08:36:40.82Z</time></trkpt><trkpt lat="42.6432397" lon="13.4734079"><ele>965.0</ele><time>2026-05-01T08:36:41.82Z</time></trkpt><trkpt lat="42.6433492" lon="13.4735286"><ele>963.5</ele><time>2026-05-01T08:36:42.82Z</time></trkpt><trkpt lat="42.6434514" lon="13.4736598"><ele>962.0</ele><time>2026-05-01T08:36:43.82Z</time></trkpt><trkpt lat="42.6435518" lon="13.4737981"><ele>964.4000000000001</ele><time>2026-05-01T08:36:44.819Z</time></trkpt><trkpt lat="42.643625" lon="13.4739386"><ele>966.8000000000001</ele><time>2026-05-01T08:36:45.82Z</time></trkpt><trkpt lat="42.6436792" lon="13.4740819"><ele>969.2</ele><time>2026-05-01T08:36:46.82Z</time></trkpt><trkpt lat="42.6437036" lon="13.4742205"><ele>971.6</ele><time>2026-05-01T08:36:47.819Z</time></trkpt><trkpt lat="42.6437065" lon="13.4743467"><ele>974.0</ele><time>2026-05-01T08:36:48.82Z</time></trkpt><trkpt lat="42.6437293" lon="13.4744504"><ele>974.0000000000001</ele><time>2026-05-01T08:36:49.82Z</time></trkpt><trkpt lat="42.6437751" lon="13.4745339"><ele>974.0</ele><time>2026-05-01T08:36:50.819Z</time></trkpt><trkpt lat="42.6438477" lon="13.4745954"><ele>974.0</ele><time>2026-05-01T08:36:51.82Z</time></trkpt><trkpt lat="42.6439272" lon="13.4746071"><ele>974.0</ele><time>2026-05-01T08:36:52.821Z</time></trkpt><trkpt lat="42.644013" lon="13.4745769"><ele>974.0000000000001</ele><time>2026-05-01T08:36:53.819Z</time></trkpt><trkpt lat="42.6440984" lon="13.4745233"><ele>974.0</ele><time>2026-05-01T08:36:54.819Z</time></trkpt><trkpt lat="42.644181" lon="13.4744737"><ele>974.0000000000001</ele><time>2026-05-01T08:36:55.82Z</time></trkpt><trkpt lat="42.6442611" lon="13.4744712"><ele>974.0</ele><time>2026-05-01T08:36:56.82Z</time></trkpt><trkpt lat="42.6443234" lon="13.4745232"><ele>974.0</ele><time>2026-05-01T08:36:57.82Z</time></trkpt><trkpt lat="42.6443611" lon="13.474607"><ele>974.0</ele><time>2026-05-01T08:36:58.819Z</time></trkpt><trkpt lat="42.6443891" lon="13.4747362"><ele>974.0000000000001</ele><time>2026-05-01T08:36:59.821Z</time></trkpt><trkpt lat="42.644401" lon="13.4749051"><ele>974.0</ele><time>2026-05-01T08:37:00.819Z</time></trkpt><trkpt lat="42.6444117" lon="13.475049"><ele>974.3333333333334</ele><time>2026-05-01T08:37:01.819Z</time></trkpt><trkpt lat="42.64443" lon="13.4751731"><ele>974.6666666666667</ele><time>2026-05-01T08:37:02.819Z</time></trkpt><trkpt lat="42.644467" lon="13.4752698"><ele>975.0</ele><time>2026-05-01T08:37:03.82Z</time></trkpt><trkpt lat="42.6445278" lon="13.4753189"><ele>975.3333333333333</ele><time>2026-05-01T08:37:04.82Z</time></trkpt><trkpt lat="42.6446" lon="13.475335"><ele>975.6666666666666</ele><time>2026-05-01T08:37:05.82Z</time></trkpt><trkpt lat="42.6446873" lon="13.475291"><ele>976.0</ele><time>2026-05-01T08:37:06.821Z</time></trkpt><trkpt lat="42.6447835" lon="13.47521"><ele>976.0</ele><time>2026-05-01T08:37:07.82Z</time></trkpt><trkpt lat="42.6448927" lon="13.4751403"><ele>976.0</ele><time>2026-05-01T08:37:08.82Z</time></trkpt><trkpt lat="42.6450166" lon="13.4750688"><ele>976.0</ele><time>2026-05-01T08:37:09.819Z</time></trkpt><trkpt lat="42.6451453" lon="13.4749948"><ele>976.0</ele><time>2026-05-01T08:37:10.82Z</time></trkpt><trkpt lat="42.6452849" lon="13.4749401"><ele>975.25</ele><time>2026-05-01T08:37:11.82Z</time></trkpt><trkpt lat="42.6454303" lon="13.4749082"><ele>974.5</ele><time>2026-05-01T08:37:12.82Z</time></trkpt><trkpt lat="42.6455713" lon="13.4748908"><ele>973.75</ele><time>2026-05-01T08:37:13.82Z</time></trkpt><trkpt lat="42.6457189" lon="13.4748759"><ele>973.0</ele><time>2026-05-01T08:37:14.819Z</time></trkpt><trkpt lat="42.645872" lon="13.474838"><ele>973.0</ele><time>2026-05-01T08:37:15.82Z</time></trkpt><trkpt lat="42.6460238" lon="13.4747955"><ele>973.0</ele><time>2026-05-01T08:37:16.82Z</time></trkpt><trkpt lat="42.6461614" lon="13.4747687"><ele>973.0</ele><time>2026-05-01T08:37:17.819Z</time></trkpt><trkpt lat="42.6462935" lon="13.4747375"><ele>973.0</ele><time>2026-05-01T08:37:18.82Z</time></trkpt><trkpt lat="42.6464235" lon="13.4747256"><ele>972.75</ele><time>2026-05-01T08:37:19.821Z</time></trkpt><trkpt lat="42.6465583" lon="13.4746958"><ele>972.5</ele><time>2026-05-01T08:37:20.821Z</time></trkpt><trkpt lat="42.6466676" lon="13.4745944"><ele>972.25</ele><time>2026-05-01T08:37:21.821Z</time></trkpt><trkpt lat="42.6467895" lon="13.474514"><ele>972.0</ele><time>2026-05-01T08:37:22.82Z</time></trkpt><trkpt lat="42.6469061" lon="13.4744054"><ele>975.5</ele><time>2026-05-01T08:37:23.82Z</time></trkpt><trkpt lat="42.6470224" lon="13.474279"><ele>979.0</ele><time>2026-05-01T08:37:24.82Z</time></trkpt><trkpt lat="42.6471174" lon="13.4741519"><ele>982.5</ele><time>2026-05-01T08:37:25.821Z</time></trkpt><trkpt lat="42.647212" lon="13.4740203"><ele>986.0</ele><time>2026-05-01T08:37:26.819Z</time></trkpt><trkpt lat="42.6472945" lon="13.4738856"><ele>988.75</ele><time>2026-05-01T08:37:27.819Z</time></trkpt><trkpt lat="42.6473609" lon="13.4737206"><ele>991.5</ele><time>2026-05-01T08:37:28.82Z</time></trkpt><trkpt lat="42.6474177" lon="13.4735421"><ele>994.25</ele><time>2026-05-01T08:37:29.82Z</time></trkpt><trkpt lat="42.6474695" lon="13.4733678"><ele>997.0</ele><time>2026-05-01T08:37:30.819Z</time></trkpt><trkpt lat="42.6475252" lon="13.473191"><ele>997.0</ele><time>2026-05-01T08:37:31.82Z</time></trkpt><trkpt lat="42.6475772" lon="13.4730203"><ele>997.0</ele><time>2026-05-01T08:37:32.82Z</time></trkpt><trkpt lat="42.6476307" lon="13.4728682"><ele>997.0</ele><time>2026-05-01T08:37:33.819Z</time></trkpt><trkpt lat="42.6476775" lon="13.4727182"><ele>997.0</ele><time>2026-05-01T08:37:34.819Z</time></trkpt><trkpt lat="42.6477159" lon="13.4725772"><ele>997.1666666666666</ele><time>2026-05-01T08:37:35.82Z</time></trkpt><trkpt lat="42.6477559" lon="13.4724424"><ele>997.3333333333333</ele><time>2026-05-01T08:37:36.82Z</time></trkpt><trkpt lat="42.6478015" lon="13.4723246"><ele>997.5</ele><time>2026-05-01T08:37:37.82Z</time></trkpt><trkpt lat="42.6478524" lon="13.4722222"><ele>997.6666666666667</ele><time>2026-05-01T08:37:38.82Z</time></trkpt><trkpt lat="42.6478968" lon="13.4721375"><ele>997.8333333333334</ele><time>2026-05-01T08:37:39.82Z</time></trkpt><trkpt lat="42.6479384" lon="13.4720534"><ele>998.0</ele><time>2026-05-01T08:37:40.82Z</time></trkpt><trkpt lat="42.6479792" lon="13.4719698"><ele>999.5000000000001</ele><time>2026-05-01T08:37:41.821Z</time></trkpt><trkpt lat="42.6480204" lon="13.4718836"><ele>1001.0</ele><time>2026-05-01T08:37:42.819Z</time></trkpt><trkpt lat="42.6480591" lon="13.4718065"><ele>1002.5</ele><time>2026-05-01T08:37:43.819Z</time></trkpt><trkpt lat="42.6480916" lon="13.4717284"><ele>1004.0</ele><time>2026-05-01T08:37:44.819Z</time></trkpt><trkpt lat="42.6481206" lon="13.4716517"><ele>1005.5000000000001</ele><time>2026-05-01T08:37:45.819Z</time></trkpt><trkpt lat="42.6481331" lon="13.47154"><ele>1007.0</ele><time>2026-05-01T08:37:47.82Z</time></trkpt><trkpt lat="42.648049" lon="13.4714561"><ele>1007.0</ele><time>2026-05-01T08:37:50.82Z</time></trkpt><trkpt lat="42.6479357" lon="13.4713747"><ele>1007.0</ele><time>2026-05-01T08:37:52.82Z</time></trkpt><trkpt lat="42.6478678" lon="13.4713152"><ele>1007.0</ele><time>2026-05-01T08:37:53.82Z</time></trkpt><trkpt lat="42.6478042" lon="13.4712493"><ele>1007.0</ele><time>2026-05-01T08:37:54.821Z</time></trkpt><trkpt lat="42.6477482" lon="13.4711575"><ele>1007.0</ele><time>2026-05-01T08:37:55.821Z</time></trkpt><trkpt lat="42.6477269" lon="13.4710427"><ele>1011.0</ele><time>2026-05-01T08:37:56.821Z</time></trkpt><trkpt lat="42.6477191" lon="13.4709237"><ele>1015.0</ele><time>2026-05-01T08:37:57.821Z</time></trkpt><trkpt lat="42.6477242" lon="13.4707754"><ele>1019.0</ele><time>2026-05-01T08:37:58.82Z</time></trkpt><trkpt lat="42.6477411" lon="13.4706145"><ele>1023.0</ele><time>2026-05-01T08:37:59.819Z</time></trkpt><trkpt lat="42.6477599" lon="13.4704508"><ele>1027.0</ele><time>2026-05-01T08:38:00.82Z</time></trkpt><trkpt lat="42.6477791" lon="13.4702781"><ele>1028.8</ele><time>2026-05-01T08:38:01.819Z</time></trkpt><trkpt lat="42.6477706" lon="13.470114"><ele>1030.6</ele><time>2026-05-01T08:38:02.82Z</time></trkpt><trkpt lat="42.6477772" lon="13.4699518"><ele>1032.3999999999999</ele><time>2026-05-01T08:38:03.821Z</time></trkpt><trkpt lat="42.6477846" lon="13.4698084"><ele>1034.2</ele><time>2026-05-01T08:38:04.819Z</time></trkpt><trkpt lat="42.6477821" lon="13.4696693"><ele>1036.0</ele><time>2026-05-01T08:38:05.82Z</time></trkpt><trkpt lat="42.6478153" lon="13.469571"><ele>1036.0</ele><time>2026-05-01T08:38:06.819Z</time></trkpt><trkpt lat="42.6478588" lon="13.4694706"><ele>1036.0</ele><time>2026-05-01T08:38:07.82Z</time></trkpt><trkpt lat="42.64793" lon="13.4694078"><ele>1036.0</ele><time>2026-05-01T08:38:08.82Z</time></trkpt><trkpt lat="42.6480212" lon="13.4693409"><ele>1036.0</ele><time>2026-05-01T08:38:09.82Z</time></trkpt><trkpt lat="42.6480812" lon="13.4692629"><ele>1036.0</ele><time>2026-05-01T08:38:10.82Z</time></trkpt><trkpt lat="42.6481458" lon="13.4691832"><ele>1036.0</ele><time>2026-05-01T08:38:11.82Z</time></trkpt><trkpt lat="42.648195" lon="13.4691065"><ele>1036.0</ele><time>2026-05-01T08:38:12.82Z</time></trkpt><trkpt lat="42.6482545" lon="13.4690342"><ele>1036.0</ele><time>2026-05-01T08:38:13.82Z</time></trkpt><trkpt lat="42.648289" lon="13.4688453"><ele>1036.0</ele><time>2026-05-01T08:38:15.821Z</time></trkpt><trkpt lat="42.6482316" lon="13.4687719"><ele>1036.0</ele><time>2026-05-01T08:38:16.82Z</time></trkpt><trkpt lat="42.64819" lon="13.4686631"><ele>1036.0</ele><time>2026-05-01T08:38:17.821Z</time></trkpt><trkpt lat="42.6480672" lon="13.4685528"><ele>1037.2</ele><time>2026-05-01T08:38:18.819Z</time></trkpt><trkpt lat="42.6480371" lon="13.4684263"><ele>1038.3999999999999</ele><time>2026-05-01T08:38:19.819Z</time></trkpt><trkpt lat="42.6479939" lon="13.4683028"><ele>1039.6</ele><time>2026-05-01T08:38:20.82Z</time></trkpt><trkpt lat="42.6480077" lon="13.4681864"><ele>1040.8</ele><time>2026-05-01T08:38:21.82Z</time></trkpt><trkpt lat="42.6479906" lon="13.4680627"><ele>1042.0</ele><time>2026-05-01T08:38:22.821Z</time></trkpt><trkpt lat="42.6479873" lon="13.4679364"><ele>1043.0</ele><time>2026-05-01T08:38:23.819Z</time></trkpt><trkpt lat="42.6479793" lon="13.4678034"><ele>1044.0</ele><time>2026-05-01T08:38:24.821Z</time></trkpt><trkpt lat="42.6479713" lon="13.4676852"><ele>1045.0</ele><time>2026-05-01T08:38:25.819Z</time></trkpt><trkpt lat="42.6479985" lon="13.4675568"><ele>1046.0</ele><time>2026-05-01T08:38:26.82Z</time></trkpt><trkpt lat="42.6480054" lon="13.4674488"><ele>1047.0</ele><time>2026-05-01T08:38:27.821Z</time></trkpt><trkpt lat="42.6480962" lon="13.4673681"><ele>1047.0</ele><time>2026-05-01T08:38:28.821Z</time></trkpt><trkpt lat="42.6481621" lon="13.4672643"><ele>1047.0</ele><time>2026-05-01T08:38:29.819Z</time></trkpt><trkpt lat="42.6482361" lon="13.4671728"><ele>1047.0</ele><time>2026-05-01T08:38:30.819Z</time></trkpt><trkpt lat="42.6483079" lon="13.4670879"><ele>1047.0</ele><time>2026-05-01T08:38:31.819Z</time></trkpt><trkpt lat="42.6483692" lon="13.4670077"><ele>1047.0</ele><time>2026-05-01T08:38:32.819Z</time></trkpt><trkpt lat="42.6484288" lon="13.466887"><ele>1047.0</ele><time>2026-05-01T08:38:34.819Z</time></trkpt><trkpt lat="42.6484424" lon="13.4668033"><ele>1047.0</ele><time>2026-05-01T08:38:37.82Z</time></trkpt><trkpt lat="42.6484305" lon="13.4668943"><ele>1047.0</ele><time>2026-05-01T08:39:13.819Z</time></trkpt><trkpt lat="42.6483862" lon="13.4670042"><ele>1047.0</ele><time>2026-05-01T08:46:10.818Z</time></trkpt><trkpt lat="42.6483005" lon="13.46714"><ele>1047.0</ele><time>2026-05-01T08:46:12.818Z</time></trkpt><trkpt lat="42.6482442" lon="13.4672109"><ele>1047.0</ele><time>2026-05-01T08:46:13.819Z</time></trkpt><trkpt lat="42.6481994" lon="13.4672796"><ele>1047.0</ele><time>2026-05-01T08:46:14.817Z</time></trkpt><trkpt lat="42.6481498" lon="13.467351"><ele>1047.0</ele><time>2026-05-01T08:46:15.819Z</time></trkpt><trkpt lat="42.6481101" lon="13.4674232"><ele>1047.0</ele><time>2026-05-01T08:46:16.817Z</time></trkpt><trkpt lat="42.6481175" lon="13.4675629"><ele>1047.0</ele><time>2026-05-01T08:46:17.819Z</time></trkpt><trkpt lat="42.6481084" lon="13.4676604"><ele>1047.0</ele><time>2026-05-01T08:46:18.818Z</time></trkpt><trkpt lat="42.6480965" lon="13.4677864"><ele>1047.0</ele><time>2026-05-01T08:46:19.818Z</time></trkpt><trkpt lat="42.6480801" lon="13.467913"><ele>1046.0</ele><time>2026-05-01T08:46:20.819Z</time></trkpt><trkpt lat="42.6480835" lon="13.4680242"><ele>1045.0</ele><time>2026-05-01T08:46:21.817Z</time></trkpt><trkpt lat="42.6481079" lon="13.4681763"><ele>1044.0</ele><time>2026-05-01T08:46:22.818Z</time></trkpt><trkpt lat="42.6480917" lon="13.4682892"><ele>1043.0</ele><time>2026-05-01T08:46:23.818Z</time></trkpt><trkpt lat="42.6481093" lon="13.4684082"><ele>1042.0</ele><time>2026-05-01T08:46:24.818Z</time></trkpt><trkpt lat="42.6481553" lon="13.4685108"><ele>1042.0</ele><time>2026-05-01T08:46:25.819Z</time></trkpt><trkpt lat="42.6482171" lon="13.4686705"><ele>1042.0</ele><time>2026-05-01T08:46:27.817Z</time></trkpt><trkpt lat="42.6482658" lon="13.4687586"><ele>1042.0</ele><time>2026-05-01T08:46:28.818Z</time></trkpt><trkpt lat="42.6483038" lon="13.468834"><ele>1042.0</ele><time>2026-05-01T08:46:29.818Z</time></trkpt><trkpt lat="42.6483386" lon="13.4689817"><ele>1042.0</ele><time>2026-05-01T08:46:31.817Z</time></trkpt><trkpt lat="42.648287" lon="13.4690378"><ele>1041.0</ele><time>2026-05-01T08:46:32.818Z</time></trkpt><trkpt lat="42.6482283" lon="13.4691585"><ele>1040.0</ele><time>2026-05-01T08:46:34.818Z</time></trkpt><trkpt lat="42.6481778" lon="13.4692291"><ele>1039.0</ele><time>2026-05-01T08:46:35.818Z</time></trkpt><trkpt lat="42.6481112" lon="13.4692982"><ele>1038.0</ele><time>2026-05-01T08:46:36.818Z</time></trkpt><trkpt lat="42.648049" lon="13.4693766"><ele>1037.0</ele><time>2026-05-01T08:46:37.818Z</time></trkpt><trkpt lat="42.6479688" lon="13.4694288"><ele>1036.0</ele><time>2026-05-01T08:46:38.817Z</time></trkpt><trkpt lat="42.6479044" lon="13.4694985"><ele>1036.0</ele><time>2026-05-01T08:46:39.818Z</time></trkpt><trkpt lat="42.6478546" lon="13.4695827"><ele>1036.0</ele><time>2026-05-01T08:46:40.818Z</time></trkpt><trkpt lat="42.6478126" lon="13.4696793"><ele>1036.0</ele><time>2026-05-01T08:46:41.818Z</time></trkpt><trkpt lat="42.64779" lon="13.4697807"><ele>1036.0</ele><time>2026-05-01T08:46:42.818Z</time></trkpt><trkpt lat="42.6477921" lon="13.4698853"><ele>1036.0</ele><time>2026-05-01T08:46:43.819Z</time></trkpt><trkpt lat="42.647794" lon="13.4700394"><ele>1036.0</ele><time>2026-05-01T08:46:44.817Z</time></trkpt><trkpt lat="42.647802" lon="13.4701784"><ele>1034.2</ele><time>2026-05-01T08:46:45.817Z</time></trkpt><trkpt lat="42.6477951" lon="13.4703083"><ele>1032.3999999999999</ele><time>2026-05-01T08:46:46.818Z</time></trkpt><trkpt lat="42.6477894" lon="13.4704506"><ele>1030.6</ele><time>2026-05-01T08:46:47.818Z</time></trkpt><trkpt lat="42.6477947" lon="13.4705755"><ele>1028.8</ele><time>2026-05-01T08:46:48.819Z</time></trkpt><trkpt lat="42.6477766" lon="13.470693"><ele>1027.0</ele><time>2026-05-01T08:46:49.819Z</time></trkpt><trkpt lat="42.6477646" lon="13.4708019"><ele>1027.0</ele><time>2026-05-01T08:46:50.818Z</time></trkpt><trkpt lat="42.6477327" lon="13.4709136"><ele>1027.0</ele><time>2026-05-01T08:46:51.818Z</time></trkpt><trkpt lat="42.6477302" lon="13.4710222"><ele>1027.0</ele><time>2026-05-01T08:46:52.818Z</time></trkpt><trkpt lat="42.6477656" lon="13.4711112"><ele>1027.0</ele><time>2026-05-01T08:46:53.819Z</time></trkpt><trkpt lat="42.6477934" lon="13.4711936"><ele>1027.0</ele><time>2026-05-01T08:46:54.819Z</time></trkpt><trkpt lat="42.6478562" lon="13.471257"><ele>1027.0</ele><time>2026-05-01T08:46:55.819Z</time></trkpt><trkpt lat="42.6479605" lon="13.4713625"><ele>1023.0</ele><time>2026-05-01T08:46:57.817Z</time></trkpt><trkpt lat="42.648052" lon="13.4714485"><ele>1019.0</ele><time>2026-05-01T08:46:59.819Z</time></trkpt><trkpt lat="42.6481132" lon="13.4715197"><ele>1015.0</ele><time>2026-05-01T08:47:01.818Z</time></trkpt><trkpt lat="42.648125" lon="13.4716208"><ele>1011.0</ele><time>2026-05-01T08:47:03.817Z</time></trkpt><trkpt lat="42.6480717" lon="13.4717854"><ele>1007.0</ele><time>2026-05-01T08:47:05.819Z</time></trkpt><trkpt lat="42.6480283" lon="13.4718834"><ele>1007.0</ele><time>2026-05-01T08:47:06.818Z</time></trkpt><trkpt lat="42.6479697" lon="13.4719896"><ele>1007.0</ele><time>2026-05-01T08:47:07.817Z</time></trkpt><trkpt lat="42.6478966" lon="13.4721032"><ele>1007.0</ele><time>2026-05-01T08:47:08.817Z</time></trkpt><trkpt lat="42.6478278" lon="13.4722376"><ele>1007.0</ele><time>2026-05-01T08:47:09.819Z</time></trkpt><trkpt lat="42.6477575" lon="13.4723947"><ele>1006.0</ele><time>2026-05-01T08:47:10.818Z</time></trkpt><trkpt lat="42.6477073" lon="13.472565"><ele>1005.0</ele><time>2026-05-01T08:47:11.817Z</time></trkpt><trkpt lat="42.6476625" lon="13.4727525"><ele>1004.0</ele><time>2026-05-01T08:47:12.817Z</time></trkpt><trkpt lat="42.6476071" lon="13.4729355"><ele>1003.0</ele><time>2026-05-01T08:47:13.818Z</time></trkpt><trkpt lat="42.647546" lon="13.4731087"><ele>1001.5</ele><time>2026-05-01T08:47:14.818Z</time></trkpt><trkpt lat="42.6474948" lon="13.4732853"><ele>1000.0</ele><time>2026-05-01T08:47:15.818Z</time></trkpt><trkpt lat="42.647449" lon="13.4734517"><ele>998.5</ele><time>2026-05-01T08:47:16.818Z</time></trkpt><trkpt lat="42.647407" lon="13.4735978"><ele>997.0</ele><time>2026-05-01T08:47:17.818Z</time></trkpt><trkpt lat="42.6473501" lon="13.4737387"><ele>994.25</ele><time>2026-05-01T08:47:18.819Z</time></trkpt><trkpt lat="42.6472795" lon="13.473879"><ele>991.5</ele><time>2026-05-01T08:47:19.817Z</time></trkpt><trkpt lat="42.6471913" lon="13.4740132"><ele>988.75</ele><time>2026-05-01T08:47:20.818Z</time></trkpt><trkpt lat="42.6471004" lon="13.4741438"><ele>986.0</ele><time>2026-05-01T08:47:21.819Z</time></trkpt><trkpt lat="42.647009" lon="13.4742653"><ele>988.25</ele><time>2026-05-01T08:47:22.819Z</time></trkpt><trkpt lat="42.6469118" lon="13.4743744"><ele>990.5</ele><time>2026-05-01T08:47:23.818Z</time></trkpt><trkpt lat="42.6468071" lon="13.4744692"><ele>992.75</ele><time>2026-05-01T08:47:24.818Z</time></trkpt><trkpt lat="42.6467014" lon="13.4745528"><ele>995.0</ele><time>2026-05-01T08:47:25.819Z</time></trkpt><trkpt lat="42.6465892" lon="13.4746253"><ele>989.5</ele><time>2026-05-01T08:47:26.818Z</time></trkpt><trkpt lat="42.6464672" lon="13.4746764"><ele>984.0</ele><time>2026-05-01T08:47:27.817Z</time></trkpt><trkpt lat="42.6463312" lon="13.4747284"><ele>978.5</ele><time>2026-05-01T08:47:28.818Z</time></trkpt><trkpt lat="42.6461951" lon="13.4747396"><ele>973.0</ele><time>2026-05-01T08:47:29.817Z</time></trkpt><trkpt lat="42.6460625" lon="13.4747699"><ele>973.0</ele><time>2026-05-01T08:47:30.817Z</time></trkpt><trkpt lat="42.6459208" lon="13.4748094"><ele>973.0</ele><time>2026-05-01T08:47:31.818Z</time></trkpt><trkpt lat="42.6457808" lon="13.4748359"><ele>973.0</ele><time>2026-05-01T08:47:32.818Z</time></trkpt><trkpt lat="42.6456433" lon="13.4748484"><ele>973.0</ele><time>2026-05-01T08:47:33.817Z</time></trkpt><trkpt lat="42.6455083" lon="13.4748617"><ele>973.0</ele><time>2026-05-01T08:47:34.819Z</time></trkpt><trkpt lat="42.645376" lon="13.4748915"><ele>973.0</ele><time>2026-05-01T08:47:35.817Z</time></trkpt><trkpt lat="42.6452458" lon="13.4749357"><ele>973.0</ele><time>2026-05-01T08:47:36.818Z</time></trkpt><trkpt lat="42.6451241" lon="13.4749936"><ele>973.0</ele><time>2026-05-01T08:47:37.819Z</time></trkpt><trkpt lat="42.6450099" lon="13.4750612"><ele>973.5999999999999</ele><time>2026-05-01T08:47:38.819Z</time></trkpt><trkpt lat="42.644911" lon="13.4751201"><ele>974.1999999999999</ele><time>2026-05-01T08:47:39.817Z</time></trkpt><trkpt lat="42.6448166" lon="13.4751864"><ele>974.8</ele><time>2026-05-01T08:47:40.818Z</time></trkpt><trkpt lat="42.6447321" lon="13.4752556"><ele>975.4</ele><time>2026-05-01T08:47:41.819Z</time></trkpt><trkpt lat="42.6446577" lon="13.4752925"><ele>976.0</ele><time>2026-05-01T08:47:42.818Z</time></trkpt><trkpt lat="42.6445858" lon="13.4752964"><ele>975.9999999999999</ele><time>2026-05-01T08:47:43.817Z</time></trkpt><trkpt lat="42.6445199" lon="13.4752706"><ele>976.0</ele><time>2026-05-01T08:47:44.818Z</time></trkpt><trkpt lat="42.6444787" lon="13.4751966"><ele>976.0</ele><time>2026-05-01T08:47:45.817Z</time></trkpt><trkpt lat="42.6444508" lon="13.475094"><ele>976.0</ele><time>2026-05-01T08:47:46.819Z</time></trkpt><trkpt lat="42.6444403" lon="13.474955"><ele>975.9999999999999</ele><time>2026-05-01T08:47:47.818Z</time></trkpt><trkpt lat="42.6444275" lon="13.4748172"><ele>976.0</ele><time>2026-05-01T08:47:48.818Z</time></trkpt><trkpt lat="42.6444092" lon="13.474687"><ele>975.6666666666666</ele><time>2026-05-01T08:47:49.816Z</time></trkpt><trkpt lat="42.6443823" lon="13.4745803"><ele>975.3333333333333</ele><time>2026-05-01T08:47:50.816Z</time></trkpt><trkpt lat="42.6443386" lon="13.4744971"><ele>975.0</ele><time>2026-05-01T08:47:51.817Z</time></trkpt><trkpt lat="42.6442758" lon="13.4744582"><ele>974.6666666666667</ele><time>2026-05-01T08:47:52.816Z</time></trkpt><trkpt lat="42.6441956" lon="13.474465"><ele>974.3333333333334</ele><time>2026-05-01T08:47:53.817Z</time></trkpt><trkpt lat="42.6441108" lon="13.474502"><ele>974.0</ele><time>2026-05-01T08:47:54.816Z</time></trkpt><trkpt lat="42.6440295" lon="13.4745531"><ele>974.0000000000001</ele><time>2026-05-01T08:47:55.817Z</time></trkpt><trkpt lat="42.6439504" lon="13.4745805"><ele>974.0</ele><time>2026-05-01T08:47:56.817Z</time></trkpt><trkpt lat="42.643878" lon="13.4745722"><ele>974.0</ele><time>2026-05-01T08:47:57.818Z</time></trkpt><trkpt lat="42.6438124" lon="13.474534"><ele>974.0</ele><time>2026-05-01T08:47:58.817Z</time></trkpt><trkpt lat="42.6437568" lon="13.4744569"><ele>974.0000000000001</ele><time>2026-05-01T08:47:59.817Z</time></trkpt><trkpt lat="42.643744" lon="13.474343"><ele>974.0</ele><time>2026-05-01T08:48:00.817Z</time></trkpt><trkpt lat="42.6437344" lon="13.4742075"><ele>974.0</ele><time>2026-05-01T08:48:01.818Z</time></trkpt><trkpt lat="42.6437052" lon="13.4740775"><ele>974.0</ele><time>2026-05-01T08:48:02.818Z</time></trkpt><trkpt lat="42.6436447" lon="13.4739233"><ele>974.0</ele><time>2026-05-01T08:48:03.818Z</time></trkpt><trkpt lat="42.6435623" lon="13.4737814"><ele>974.0</ele><time>2026-05-01T08:48:04.817Z</time></trkpt><trkpt lat="42.6434704" lon="13.4736519"><ele>971.6</ele><time>2026-05-01T08:48:05.816Z</time></trkpt><trkpt lat="42.6433797" lon="13.4735373"><ele>969.2</ele><time>2026-05-01T08:48:06.816Z</time></trkpt><trkpt lat="42.6432947" lon="13.4734343"><ele>966.8000000000001</ele><time>2026-05-01T08:48:07.816Z</time></trkpt><trkpt lat="42.6432168" lon="13.4733444"><ele>964.4000000000001</ele><time>2026-05-01T08:48:08.817Z</time></trkpt><trkpt lat="42.6431471" lon="13.4732773"><ele>962.0</ele><time>2026-05-01T08:48:09.816Z</time></trkpt><trkpt lat="42.6430744" lon="13.4732361"><ele>962.0000000000001</ele><time>2026-05-01T08:48:10.816Z</time></trkpt><trkpt lat="42.6430025" lon="13.4732226"><ele>962.0</ele><time>2026-05-01T08:48:11.817Z</time></trkpt><trkpt lat="42.6429251" lon="13.47324"><ele>962.0</ele><time>2026-05-01T08:48:12.817Z</time></trkpt><trkpt lat="42.6428441" lon="13.4732866"><ele>962.0</ele><time>2026-05-01T08:48:13.818Z</time></trkpt><trkpt lat="42.642793" lon="13.4733801"><ele>962.0000000000001</ele><time>2026-05-01T08:48:14.818Z</time></trkpt><trkpt lat="42.6427381" lon="13.4734929"><ele>962.0</ele><time>2026-05-01T08:48:15.817Z</time></trkpt><trkpt lat="42.6427023" lon="13.4736274"><ele>965.5</ele><time>2026-05-01T08:48:16.818Z</time></trkpt><trkpt lat="42.6426959" lon="13.4737941"><ele>969.0</ele><time>2026-05-01T08:48:17.818Z</time></trkpt><trkpt lat="42.6427001" lon="13.4739752"><ele>972.5</ele><time>2026-05-01T08:48:18.818Z</time></trkpt><trkpt lat="42.6427208" lon="13.4741644"><ele>976.0</ele><time>2026-05-01T08:48:19.818Z</time></trkpt><trkpt lat="42.6427302" lon="13.4743203"><ele>976.0</ele><time>2026-05-01T08:48:20.817Z</time></trkpt><trkpt lat="42.6427405" lon="13.4744601"><ele>975.9999999999999</ele><time>2026-05-01T08:48:21.817Z</time></trkpt><trkpt lat="42.6427273" lon="13.4745825"><ele>975.9999999999999</ele><time>2026-05-01T08:48:22.817Z</time></trkpt><trkpt lat="42.6426849" lon="13.4746906"><ele>976.0</ele><time>2026-05-01T08:48:23.817Z</time></trkpt><trkpt lat="42.6426438" lon="13.474804"><ele>976.0</ele><time>2026-05-01T08:48:24.816Z</time></trkpt><trkpt lat="42.6425801" lon="13.4749095"><ele>972.75</ele><time>2026-05-01T08:48:25.816Z</time></trkpt><trkpt lat="42.6425155" lon="13.4750173"><ele>969.5</ele><time>2026-05-01T08:48:26.818Z</time></trkpt><trkpt lat="42.6424329" lon="13.4751695"><ele>966.25</ele><time>2026-05-01T08:48:27.818Z</time></trkpt><trkpt lat="42.6423845" lon="13.4753243"><ele>963.0</ele><time>2026-05-01T08:48:28.818Z</time></trkpt><trkpt lat="42.6423216" lon="13.4754898"><ele>957.5</ele><time>2026-05-01T08:48:29.818Z</time></trkpt><trkpt lat="42.6422795" lon="13.4756845"><ele>952.0</ele><time>2026-05-01T08:48:30.818Z</time></trkpt><trkpt lat="42.6422886" lon="13.4758927"><ele>946.5</ele><time>2026-05-01T08:48:31.817Z</time></trkpt><trkpt lat="42.6422332" lon="13.476076"><ele>941.0</ele><time>2026-05-01T08:48:32.816Z</time></trkpt><trkpt lat="42.6422087" lon="13.4762615"><ele>939.75</ele><time>2026-05-01T08:48:33.817Z</time></trkpt><trkpt lat="42.6421922" lon="13.4764279"><ele>938.5</ele><time>2026-05-01T08:48:34.817Z</time></trkpt><trkpt lat="42.6421827" lon="13.4765883"><ele>937.25</ele><time>2026-05-01T08:48:35.817Z</time></trkpt><trkpt lat="42.6421763" lon="13.4767327"><ele>936.0</ele><time>2026-05-01T08:48:36.817Z</time></trkpt><trkpt lat="42.6421697" lon="13.4768729"><ele>936.0</ele><time>2026-05-01T08:48:37.817Z</time></trkpt><trkpt lat="42.6421074" lon="13.4769877"><ele>935.9999999999999</ele><time>2026-05-01T08:48:38.816Z</time></trkpt><trkpt lat="42.6420598" lon="13.4770833"><ele>935.9999999999999</ele><time>2026-05-01T08:48:39.818Z</time></trkpt><trkpt lat="42.6419704" lon="13.4771308"><ele>936.0</ele><time>2026-05-01T08:48:40.817Z</time></trkpt><trkpt lat="42.6418832" lon="13.4771795"><ele>936.0</ele><time>2026-05-01T08:48:41.817Z</time></trkpt><trkpt lat="42.6417136" lon="13.477156"><ele>935.3333333333333</ele><time>2026-05-01T08:48:42.817Z</time></trkpt><trkpt lat="42.6415668" lon="13.4771721"><ele>934.6666666666666</ele><time>2026-05-01T08:48:43.816Z</time></trkpt><trkpt lat="42.6414119" lon="13.4772241"><ele>934.0</ele><time>2026-05-01T08:48:44.817Z</time></trkpt><trkpt lat="42.641259" lon="13.4772994"><ele>935.3333333333333</ele><time>2026-05-01T08:48:45.816Z</time></trkpt><trkpt lat="42.641108" lon="13.4773711"><ele>936.6666666666667</ele><time>2026-05-01T08:48:46.817Z</time></trkpt><trkpt lat="42.6409634" lon="13.4774302"><ele>938.0</ele><time>2026-05-01T08:48:47.816Z</time></trkpt><trkpt lat="42.6408181" lon="13.4774806"><ele>938.0</ele><time>2026-05-01T08:48:48.816Z</time></trkpt><trkpt lat="42.6406775" lon="13.4775391"><ele>938.0</ele><time>2026-05-01T08:48:49.817Z</time></trkpt><trkpt lat="42.6405384" lon="13.4775948"><ele>938.0</ele><time>2026-05-01T08:48:50.817Z</time></trkpt><trkpt lat="42.6404035" lon="13.4776432"><ele>938.0</ele><time>2026-05-01T08:48:51.817Z</time></trkpt><trkpt lat="42.640269" lon="13.4776926"><ele>937.25</ele><time>2026-05-01T08:48:52.817Z</time></trkpt><trkpt lat="42.6401415" lon="13.4777277"><ele>936.5</ele><time>2026-05-01T08:48:53.817Z</time></trkpt><trkpt lat="42.6400092" lon="13.477725"><ele>935.75</ele><time>2026-05-01T08:48:54.816Z</time></trkpt><trkpt lat="42.639881" lon="13.4777191"><ele>935.0</ele><time>2026-05-01T08:48:55.816Z</time></trkpt><trkpt lat="42.6397655" lon="13.4776619"><ele>935.0000000000001</ele><time>2026-05-01T08:48:56.816Z</time></trkpt><trkpt lat="42.6396703" lon="13.477614"><ele>935.0</ele><time>2026-05-01T08:48:57.817Z</time></trkpt><trkpt lat="42.6395829" lon="13.4775775"><ele>935.0</ele><time>2026-05-01T08:48:58.816Z</time></trkpt><trkpt lat="42.6395082" lon="13.4775631"><ele>935.0</ele><time>2026-05-01T08:48:59.816Z</time></trkpt><trkpt lat="42.6394428" lon="13.4775907"><ele>935.0000000000001</ele><time>2026-05-01T08:49:00.817Z</time></trkpt><trkpt lat="42.6394015" lon="13.4776684"><ele>935.0</ele><time>2026-05-01T08:49:01.816Z</time></trkpt><trkpt lat="42.6393994" lon="13.4777624"><ele>930.0</ele><time>2026-05-01T08:49:02.817Z</time></trkpt><trkpt lat="42.6394306" lon="13.4778809"><ele>925.0</ele><time>2026-05-01T08:49:03.816Z</time></trkpt><trkpt lat="42.6394853" lon="13.4780137"><ele>920.0</ele><time>2026-05-01T08:49:04.816Z</time></trkpt><trkpt lat="42.6395483" lon="13.4781561"><ele>915.0</ele><time>2026-05-01T08:49:05.818Z</time></trkpt><trkpt lat="42.6396045" lon="13.4783068"><ele>915.0</ele><time>2026-05-01T08:49:06.817Z</time></trkpt><trkpt lat="42.6396607" lon="13.4784494"><ele>915.0</ele><time>2026-05-01T08:49:07.817Z</time></trkpt><trkpt lat="42.6397093" lon="13.4785783"><ele>915.0</ele><time>2026-05-01T08:49:08.817Z</time></trkpt><trkpt lat="42.6397537" lon="13.4786853"><ele>915.0</ele><time>2026-05-01T08:49:09.817Z</time></trkpt><trkpt lat="42.639801" lon="13.4787556"><ele>915.0</ele><time>2026-05-01T08:49:10.818Z</time></trkpt><trkpt lat="42.6398574" lon="13.4787948"><ele>915.0</ele><time>2026-05-01T08:49:11.817Z</time></trkpt><trkpt lat="42.6399893" lon="13.478757"><ele>915.0</ele><time>2026-05-01T08:49:13.817Z</time></trkpt><trkpt lat="42.6400719" lon="13.4786934"><ele>915.0</ele><time>2026-05-01T08:49:14.818Z</time></trkpt><trkpt lat="42.6401574" lon="13.4786113"><ele>915.0</ele><time>2026-05-01T08:49:15.817Z</time></trkpt><trkpt lat="42.6402424" lon="13.4785274"><ele>915.0</ele><time>2026-05-01T08:49:16.817Z</time></trkpt><trkpt lat="42.6403421" lon="13.478453"><ele>915.0</ele><time>2026-05-01T08:49:17.817Z</time></trkpt><trkpt lat="42.6404454" lon="13.4783965"><ele>915.4</ele><time>2026-05-01T08:49:18.817Z</time></trkpt><trkpt lat="42.640556" lon="13.478361"><ele>915.8</ele><time>2026-05-01T08:49:19.817Z</time></trkpt><trkpt lat="42.6406688" lon="13.4783579"><ele>916.2</ele><time>2026-05-01T08:49:20.818Z</time></trkpt><trkpt lat="42.6407821" lon="13.4783683"><ele>916.6</ele><time>2026-05-01T08:49:21.817Z</time></trkpt><trkpt lat="42.6408912" lon="13.4783786"><ele>917.0</ele><time>2026-05-01T08:49:22.816Z</time></trkpt><trkpt lat="42.6409991" lon="13.4783834"><ele>917.0</ele><time>2026-05-01T08:49:23.817Z</time></trkpt><trkpt lat="42.6411089" lon="13.4783945"><ele>917.0</ele><time>2026-05-01T08:49:24.816Z</time></trkpt><trkpt lat="42.6412087" lon="13.4784065"><ele>917.0</ele><time>2026-05-01T08:49:25.817Z</time></trkpt><trkpt lat="42.6413181" lon="13.4784049"><ele>917.0</ele><time>2026-05-01T08:49:26.818Z</time></trkpt><trkpt lat="42.6414288" lon="13.4784005"><ele>917.0</ele><time>2026-05-01T08:49:27.818Z</time></trkpt><trkpt lat="42.6415349" lon="13.478406"><ele>916.3333333333334</ele><time>2026-05-01T08:49:28.817Z</time></trkpt><trkpt lat="42.6416287" lon="13.4784159"><ele>915.6666666666667</ele><time>2026-05-01T08:49:29.817Z</time></trkpt><trkpt lat="42.6417144" lon="13.4784452"><ele>915.0</ele><time>2026-05-01T08:49:30.817Z</time></trkpt><trkpt lat="42.6417928" lon="13.4784979"><ele>914.3333333333333</ele><time>2026-05-01T08:49:31.818Z</time></trkpt><trkpt lat="42.6418427" lon="13.4785781"><ele>913.6666666666666</ele><time>2026-05-01T08:49:32.817Z</time></trkpt><trkpt lat="42.641875" lon="13.4786719"><ele>913.0</ele><time>2026-05-01T08:49:33.817Z</time></trkpt><trkpt lat="42.6418843" lon="13.4787701"><ele>912.8</ele><time>2026-05-01T08:49:34.817Z</time></trkpt><trkpt lat="42.6418604" lon="13.4788748"><ele>912.5999999999999</ele><time>2026-05-01T08:49:35.818Z</time></trkpt><trkpt lat="42.6418224" lon="13.4789882"><ele>912.4000000000001</ele><time>2026-05-01T08:49:36.816Z</time></trkpt><trkpt lat="42.6417508" lon="13.4790883"><ele>912.2</ele><time>2026-05-01T08:49:37.817Z</time></trkpt><trkpt lat="42.6416898" lon="13.4791703"><ele>912.0</ele><time>2026-05-01T08:49:38.817Z</time></trkpt><trkpt lat="42.6415909" lon="13.4792118"><ele>912.0</ele><time>2026-05-01T08:49:39.817Z</time></trkpt><trkpt lat="42.6414954" lon="13.4792447"><ele>912.0</ele><time>2026-05-01T08:49:40.817Z</time></trkpt><trkpt lat="42.6413966" lon="13.4792275"><ele>912.0</ele><time>2026-05-01T08:49:41.818Z</time></trkpt><trkpt lat="42.6413001" lon="13.4791966"><ele>912.0</ele><time>2026-05-01T08:49:42.817Z</time></trkpt><trkpt lat="42.6412113" lon="13.4791587"><ele>912.0</ele><time>2026-05-01T08:49:43.816Z</time></trkpt><trkpt lat="42.6411176" lon="13.4791381"><ele>910.8333333333334</ele><time>2026-05-01T08:49:44.817Z</time></trkpt><trkpt lat="42.6410343" lon="13.4791458"><ele>909.6666666666667</ele><time>2026-05-01T08:49:45.818Z</time></trkpt><trkpt lat="42.6409631" lon="13.4791799"><ele>908.5</ele><time>2026-05-01T08:49:46.818Z</time></trkpt><trkpt lat="42.6408991" lon="13.4792327"><ele>907.3333333333334</ele><time>2026-05-01T08:49:47.817Z</time></trkpt><trkpt lat="42.6408845" lon="13.4793656"><ele>906.1666666666667</ele><time>2026-05-01T08:49:48.818Z</time></trkpt><trkpt lat="42.640874" lon="13.4794985"><ele>905.0</ele><time>2026-05-01T08:49:49.817Z</time></trkpt><trkpt lat="42.6408714" lon="13.4796448"><ele>905.0</ele><time>2026-05-01T08:49:50.817Z</time></trkpt><trkpt lat="42.6408758" lon="13.4797862"><ele>905.0</ele><time>2026-05-01T08:49:51.816Z</time></trkpt><trkpt lat="42.640891" lon="13.4799055"><ele>905.0</ele><time>2026-05-01T08:49:52.817Z</time></trkpt><trkpt lat="42.6409393" lon="13.4800028"><ele>905.0</ele><time>2026-05-01T08:49:53.817Z</time></trkpt><trkpt lat="42.6410153" lon="13.4800746"><ele>905.0</ele><time>2026-05-01T08:49:54.816Z</time></trkpt><trkpt lat="42.6411175" lon="13.4801233"><ele>907.25</ele><time>2026-05-01T08:49:55.816Z</time></trkpt><trkpt lat="42.6412274" lon="13.4801406"><ele>909.5</ele><time>2026-05-01T08:49:56.816Z</time></trkpt><trkpt lat="42.6413446" lon="13.4801349"><ele>911.75</ele><time>2026-05-01T08:49:57.817Z</time></trkpt><trkpt lat="42.6414739" lon="13.4801236"><ele>914.0</ele><time>2026-05-01T08:49:58.817Z</time></trkpt><trkpt lat="42.6416104" lon="13.4801078"><ele>914.0</ele><time>2026-05-01T08:49:59.818Z</time></trkpt><trkpt lat="42.6417599" lon="13.4800837"><ele>914.0</ele><time>2026-05-01T08:50:00.817Z</time></trkpt><trkpt lat="42.6419075" lon="13.4800653"><ele>914.0</ele><time>2026-05-01T08:50:01.817Z</time></trkpt><trkpt lat="42.6420608" lon="13.4800506"><ele>915.0</ele><time>2026-05-01T08:50:02.818Z</time></trkpt><trkpt lat="42.6422128" lon="13.4800335"><ele>916.0</ele><time>2026-05-01T08:50:03.817Z</time></trkpt><trkpt lat="42.6423629" lon="13.4800237"><ele>917.0</ele><time>2026-05-01T08:50:04.816Z</time></trkpt><trkpt lat="42.6425061" lon="13.4800199"><ele>918.0</ele><time>2026-05-01T08:50:05.817Z</time></trkpt><trkpt lat="42.6426482" lon="13.4800143"><ele>918.0</ele><time>2026-05-01T08:50:06.816Z</time></trkpt><trkpt lat="42.642787" lon="13.4800027"><ele>918.0</ele><time>2026-05-01T08:50:07.818Z</time></trkpt><trkpt lat="42.6429273" lon="13.4799905"><ele>918.0</ele><time>2026-05-01T08:50:08.817Z</time></trkpt><trkpt lat="42.6430749" lon="13.4799906"><ele>918.0</ele><time>2026-05-01T08:50:09.818Z</time></trkpt><trkpt lat="42.6432278" lon="13.4800035"><ele>920.25</ele><time>2026-05-01T08:50:10.816Z</time></trkpt><trkpt lat="42.6433813" lon="13.4800187"><ele>922.5</ele><time>2026-05-01T08:50:11.816Z</time></trkpt><trkpt lat="42.6435335" lon="13.4800493"><ele>924.75</ele><time>2026-05-01T08:50:12.816Z</time></trkpt><trkpt lat="42.6436746" lon="13.4800678"><ele>927.0</ele><time>2026-05-01T08:50:13.817Z</time></trkpt><trkpt lat="42.6438161" lon="13.4800852"><ele>930.75</ele><time>2026-05-01T08:50:14.817Z</time></trkpt><trkpt lat="42.6439473" lon="13.4801144"><ele>934.5</ele><time>2026-05-01T08:50:15.817Z</time></trkpt><trkpt lat="42.644068" lon="13.480161"><ele>938.25</ele><time>2026-05-01T08:50:16.817Z</time></trkpt><trkpt lat="42.6441824" lon="13.4802273"><ele>942.0</ele><time>2026-05-01T08:50:17.817Z</time></trkpt><trkpt lat="42.644271" lon="13.4803212"><ele>942.0</ele><time>2026-05-01T08:50:18.817Z</time></trkpt><trkpt lat="42.6443716" lon="13.4804292"><ele>942.0</ele><time>2026-05-01T08:50:19.817Z</time></trkpt><trkpt lat="42.6444777" lon="13.4805172"><ele>942.0</ele><time>2026-05-01T08:50:20.816Z</time></trkpt><trkpt lat="42.6445929" lon="13.4805838"><ele>942.0</ele><time>2026-05-01T08:50:21.816Z</time></trkpt><trkpt lat="42.6447114" lon="13.4806457"><ele>938.25</ele><time>2026-05-01T08:50:22.817Z</time></trkpt><trkpt lat="42.6448393" lon="13.4806825"><ele>934.5</ele><time>2026-05-01T08:50:23.816Z</time></trkpt><trkpt lat="42.6449712" lon="13.4807109"><ele>930.75</ele><time>2026-05-01T08:50:24.816Z</time></trkpt><trkpt lat="42.6451065" lon="13.4807266"><ele>927.0</ele><time>2026-05-01T08:50:25.817Z</time></trkpt><trkpt lat="42.6452423" lon="13.4807342"><ele>930.5</ele><time>2026-05-01T08:50:26.816Z</time></trkpt><trkpt lat="42.6453748" lon="13.4807315"><ele>934.0</ele><time>2026-05-01T08:50:27.818Z</time></trkpt><trkpt lat="42.6455087" lon="13.4807246"><ele>937.5</ele><time>2026-05-01T08:50:28.817Z</time></trkpt><trkpt lat="42.6456375" lon="13.480745"><ele>941.0</ele><time>2026-05-01T08:50:29.816Z</time></trkpt><trkpt lat="42.6457627" lon="13.4807778"><ele>941.0</ele><time>2026-05-01T08:50:30.818Z</time></trkpt><trkpt lat="42.6458657" lon="13.4808244"><ele>940.9999999999999</ele><time>2026-05-01T08:50:31.817Z</time></trkpt><trkpt lat="42.6459378" lon="13.4808787"><ele>940.9999999999999</ele><time>2026-05-01T08:50:32.817Z</time></trkpt><trkpt lat="42.6460282" lon="13.4809397"><ele>941.0</ele><time>2026-05-01T08:50:33.816Z</time></trkpt><trkpt lat="42.6461223" lon="13.4810121"><ele>941.0</ele><time>2026-05-01T08:50:34.817Z</time></trkpt><trkpt lat="42.6462207" lon="13.4811066"><ele>943.75</ele><time>2026-05-01T08:50:35.816Z</time></trkpt><trkpt lat="42.6463295" lon="13.4812012"><ele>946.5</ele><time>2026-05-01T08:50:36.816Z</time></trkpt><trkpt lat="42.6464363" lon="13.4812733"><ele>949.25</ele><time>2026-05-01T08:50:37.817Z</time></trkpt><trkpt lat="42.6465275" lon="13.4813407"><ele>952.0</ele><time>2026-05-01T08:50:38.816Z</time></trkpt><trkpt lat="42.6466067" lon="13.4814266"><ele>952.0</ele><time>2026-05-01T08:50:39.817Z</time></trkpt><trkpt lat="42.6466694" lon="13.4815273"><ele>952.0</ele><time>2026-05-01T08:50:40.817Z</time></trkpt><trkpt lat="42.6466556" lon="13.4816755"><ele>952.0</ele><time>2026-05-01T08:50:41.817Z</time></trkpt><trkpt lat="42.6466478" lon="13.4818162"><ele>952.0</ele><time>2026-05-01T08:50:42.817Z</time></trkpt><trkpt lat="42.64663" lon="13.4819573"><ele>952.0</ele><time>2026-05-01T08:50:43.817Z</time></trkpt><trkpt lat="42.6466321" lon="13.4820949"><ele>948.4000000000001</ele><time>2026-05-01T08:50:44.817Z</time></trkpt><trkpt lat="42.6466534" lon="13.4822227"><ele>944.8000000000001</ele><time>2026-05-01T08:50:45.816Z</time></trkpt><trkpt lat="42.6467055" lon="13.4823358"><ele>941.2</ele><time>2026-05-01T08:50:46.817Z</time></trkpt><trkpt lat="42.6467847" lon="13.482443"><ele>937.6</ele><time>2026-05-01T08:50:47.818Z</time></trkpt><trkpt lat="42.6468696" lon="13.4825562"><ele>934.0</ele><time>2026-05-01T08:50:48.817Z</time></trkpt><trkpt lat="42.6469422" lon="13.4826804"><ele>937.0</ele><time>2026-05-01T08:50:49.817Z</time></trkpt><trkpt lat="42.6470096" lon="13.4828306"><ele>940.0</ele><time>2026-05-01T08:50:50.816Z</time></trkpt><trkpt lat="42.6470664" lon="13.4829915"><ele>943.0</ele><time>2026-05-01T08:50:51.817Z</time></trkpt><trkpt lat="42.6471161" lon="13.4831334"><ele>946.0</ele><time>2026-05-01T08:50:52.817Z</time></trkpt><trkpt lat="42.6471619" lon="13.4832482"><ele>946.0</ele><time>2026-05-01T08:50:53.817Z</time></trkpt><trkpt lat="42.6472173" lon="13.4833238"><ele>945.9999999999999</ele><time>2026-05-01T08:50:54.816Z</time></trkpt><trkpt lat="42.6472852" lon="13.4833605"><ele>945.9999999999999</ele><time>2026-05-01T08:50:55.818Z</time></trkpt><trkpt lat="42.6473749" lon="13.4833721"><ele>946.0</ele><time>2026-05-01T08:50:56.818Z</time></trkpt><trkpt lat="42.6474748" lon="13.4833522"><ele>946.0</ele><time>2026-05-01T08:50:57.817Z</time></trkpt><trkpt lat="42.6475787" lon="13.4833004"><ele>946.0</ele><time>2026-05-01T08:50:58.817Z</time></trkpt><trkpt lat="42.6476851" lon="13.4832193"><ele>946.0</ele><time>2026-05-01T08:50:59.817Z</time></trkpt><trkpt lat="42.6477978" lon="13.4831082"><ele>946.0</ele><time>2026-05-01T08:51:00.818Z</time></trkpt><trkpt lat="42.6479046" lon="13.4829899"><ele>946.0</ele><time>2026-05-01T08:51:01.818Z</time></trkpt><trkpt lat="42.648005" lon="13.4828712"><ele>947.0</ele><time>2026-05-01T08:51:02.816Z</time></trkpt><trkpt lat="42.6481027" lon="13.4827551"><ele>948.0</ele><time>2026-05-01T08:51:03.817Z</time></trkpt><trkpt lat="42.6481988" lon="13.4826449"><ele>949.0</ele><time>2026-05-01T08:51:04.817Z</time></trkpt><trkpt lat="42.648313" lon="13.4825596"><ele>950.0</ele><time>2026-05-01T08:51:05.818Z</time></trkpt><trkpt lat="42.6484301" lon="13.4824846"><ele>950.0</ele><time>2026-05-01T08:51:06.817Z</time></trkpt><trkpt lat="42.6485425" lon="13.4824009"><ele>950.0</ele><time>2026-05-01T08:51:07.817Z</time></trkpt><trkpt lat="42.648647" lon="13.4823201"><ele>950.0</ele><time>2026-05-01T08:51:08.818Z</time></trkpt><trkpt lat="42.6487544" lon="13.4822507"><ele>950.0</ele><time>2026-05-01T08:51:09.817Z</time></trkpt><trkpt lat="42.6488574" lon="13.4822033"><ele>949.0</ele><time>2026-05-01T08:51:10.816Z</time></trkpt><trkpt lat="42.6489656" lon="13.4821873"><ele>948.0</ele><time>2026-05-01T08:51:11.817Z</time></trkpt><trkpt lat="42.6490798" lon="13.4821986"><ele>947.0</ele><time>2026-05-01T08:51:12.816Z</time></trkpt><trkpt lat="42.6491966" lon="13.4822323"><ele>946.0</ele><time>2026-05-01T08:51:13.817Z</time></trkpt><trkpt lat="42.6493007" lon="13.482267"><ele>946.0</ele><time>2026-05-01T08:51:14.818Z</time></trkpt><trkpt lat="42.6494163" lon="13.4823135"><ele>946.0</ele><time>2026-05-01T08:51:15.818Z</time></trkpt><trkpt lat="42.6495299" lon="13.4823734"><ele>946.0</ele><time>2026-05-01T08:51:16.818Z</time></trkpt><trkpt lat="42.6496429" lon="13.4824301"><ele>946.0</ele><time>2026-05-01T08:51:17.817Z</time></trkpt><trkpt lat="42.6497417" lon="13.4824741"><ele>949.8333333333333</ele><time>2026-05-01T08:51:18.818Z</time></trkpt><trkpt lat="42.6498257" lon="13.4825315"><ele>953.6666666666666</ele><time>2026-05-01T08:51:19.818Z</time></trkpt><trkpt lat="42.6498907" lon="13.4825988"><ele>957.5</ele><time>2026-05-01T08:51:20.818Z</time></trkpt><trkpt lat="42.6499222" lon="13.4826801"><ele>961.3333333333333</ele><time>2026-05-01T08:51:21.818Z</time></trkpt><trkpt lat="42.6499346" lon="13.4827824"><ele>965.1666666666666</ele><time>2026-05-01T08:51:22.817Z</time></trkpt><trkpt lat="42.6499275" lon="13.4829226"><ele>969.0</ele><time>2026-05-01T08:51:23.817Z</time></trkpt><trkpt lat="42.649913" lon="13.4830863"><ele>969.0</ele><time>2026-05-01T08:51:24.817Z</time></trkpt><trkpt lat="42.6499004" lon="13.483242"><ele>969.0</ele><time>2026-05-01T08:51:25.816Z</time></trkpt><trkpt lat="42.649875" lon="13.483401"><ele>969.0</ele><time>2026-05-01T08:51:26.816Z</time></trkpt><trkpt lat="42.649842" lon="13.4835487"><ele>969.0</ele><time>2026-05-01T08:51:27.818Z</time></trkpt><trkpt lat="42.6498111" lon="13.4836927"><ele>966.3333333333334</ele><time>2026-05-01T08:51:28.817Z</time></trkpt><trkpt lat="42.6497778" lon="13.4838239"><ele>963.6666666666667</ele><time>2026-05-01T08:51:29.817Z</time></trkpt><trkpt lat="42.6497571" lon="13.4839385"><ele>961.0</ele><time>2026-05-01T08:51:30.817Z</time></trkpt><trkpt lat="42.6497513" lon="13.4840471"><ele>958.3333333333334</ele><time>2026-05-01T08:51:31.817Z</time></trkpt><trkpt lat="42.6498023" lon="13.4840977"><ele>955.6666666666667</ele><time>2026-05-01T08:51:32.817Z</time></trkpt><trkpt lat="42.6498585" lon="13.4841399"><ele>953.0</ele><time>2026-05-01T08:51:33.816Z</time></trkpt><trkpt lat="42.6499251" lon="13.484158"><ele>953.0</ele><time>2026-05-01T08:51:34.816Z</time></trkpt><trkpt lat="42.650003" lon="13.4841513"><ele>953.0</ele><time>2026-05-01T08:51:35.817Z</time></trkpt><trkpt lat="42.6500997" lon="13.4841396"><ele>953.0</ele><time>2026-05-01T08:51:36.816Z</time></trkpt><trkpt lat="42.6501989" lon="13.4841206"><ele>953.0</ele><time>2026-05-01T08:51:37.817Z</time></trkpt><trkpt lat="42.6503105" lon="13.4841029"><ele>953.0</ele><time>2026-05-01T08:51:38.818Z</time></trkpt><trkpt lat="42.6504332" lon="13.4840794"><ele>956.0</ele><time>2026-05-01T08:51:39.816Z</time></trkpt><trkpt lat="42.6505626" lon="13.4840651"><ele>959.0</ele><time>2026-05-01T08:51:40.817Z</time></trkpt><trkpt lat="42.6506915" lon="13.4840597"><ele>962.0</ele><time>2026-05-01T08:51:41.816Z</time></trkpt><trkpt lat="42.6508214" lon="13.4840448"><ele>965.0</ele><time>2026-05-01T08:51:42.817Z</time></trkpt><trkpt lat="42.6509504" lon="13.4840274"><ele>965.0</ele><time>2026-05-01T08:51:43.817Z</time></trkpt><trkpt lat="42.6510754" lon="13.4840221"><ele>965.0</ele><time>2026-05-01T08:51:44.817Z</time></trkpt><trkpt lat="42.6512021" lon="13.4840354"><ele>965.0</ele><time>2026-05-01T08:51:45.817Z</time></trkpt><trkpt lat="42.6513311" lon="13.4840479"><ele>965.0</ele><time>2026-05-01T08:51:46.817Z</time></trkpt><trkpt lat="42.651463" lon="13.4840592"><ele>969.2</ele><time>2026-05-01T08:51:47.817Z</time></trkpt><trkpt lat="42.6515881" lon="13.4840727"><ele>973.4</ele><time>2026-05-01T08:51:48.816Z</time></trkpt><trkpt lat="42.6516929" lon="13.4841139"><ele>977.5999999999999</ele><time>2026-05-01T08:51:49.817Z</time></trkpt><trkpt lat="42.651781" lon="13.4841652"><ele>981.8</ele><time>2026-05-01T08:51:50.817Z</time></trkpt><trkpt lat="42.6518577" lon="13.4842179"><ele>986.0</ele><time>2026-05-01T08:51:51.818Z</time></trkpt><trkpt lat="42.6518961" lon="13.4842882"><ele>986.0000000000001</ele><time>2026-05-01T08:51:52.818Z</time></trkpt><trkpt lat="42.6519141" lon="13.4843754"><ele>986.0</ele><time>2026-05-01T08:51:53.816Z</time></trkpt><trkpt lat="42.6519205" lon="13.4844874"><ele>986.0</ele><time>2026-05-01T08:51:54.816Z</time></trkpt><trkpt lat="42.6519141" lon="13.4846156"><ele>986.0</ele><time>2026-05-01T08:51:55.816Z</time></trkpt><trkpt lat="42.651903" lon="13.4847371"><ele>986.0000000000001</ele><time>2026-05-01T08:51:56.817Z</time></trkpt><trkpt lat="42.6518892" lon="13.4848664"><ele>986.0</ele><time>2026-05-01T08:51:57.817Z</time></trkpt><trkpt lat="42.6518716" lon="13.4849951"><ele>986.8333333333334</ele><time>2026-05-01T08:51:58.817Z</time></trkpt><trkpt lat="42.6518506" lon="13.4851124"><ele>987.6666666666667</ele><time>2026-05-01T08:51:59.818Z</time></trkpt><trkpt lat="42.6518388" lon="13.4852138"><ele>988.5</ele><time>2026-05-01T08:52:00.818Z</time></trkpt><trkpt lat="42.6518569" lon="13.4852973"><ele>989.3333333333333</ele><time>2026-05-01T08:52:01.817Z</time></trkpt><trkpt lat="42.6519037" lon="13.4853693"><ele>990.1666666666666</ele><time>2026-05-01T08:52:02.817Z</time></trkpt><trkpt lat="42.6519884" lon="13.4854173"><ele>991.0</ele><time>2026-05-01T08:52:03.817Z</time></trkpt><trkpt lat="42.6520845" lon="13.4854562"><ele>991.0</ele><time>2026-05-01T08:52:04.817Z</time></trkpt><trkpt lat="42.6521849" lon="13.485512"><ele>990.9999999999999</ele><time>2026-05-01T08:52:05.817Z</time></trkpt><trkpt lat="42.6522852" lon="13.4855666"><ele>990.9999999999999</ele><time>2026-05-01T08:52:06.817Z</time></trkpt><trkpt lat="42.6523839" lon="13.4856092"><ele>991.0</ele><time>2026-05-01T08:52:07.817Z</time></trkpt><trkpt lat="42.6524858" lon="13.4856282"><ele>991.0</ele><time>2026-05-01T08:52:08.816Z</time></trkpt><trkpt lat="42.6526003" lon="13.4856101"><ele>991.0</ele><time>2026-05-01T08:52:09.817Z</time></trkpt><trkpt lat="42.6527094" lon="13.4855754"><ele>990.9999999999999</ele><time>2026-05-01T08:52:10.818Z</time></trkpt><trkpt lat="42.6528115" lon="13.4855518"><ele>990.9999999999999</ele><time>2026-05-01T08:52:11.817Z</time></trkpt><trkpt lat="42.6529072" lon="13.4855605"><ele>991.0</ele><time>2026-05-01T08:52:12.816Z</time></trkpt><trkpt lat="42.6530047" lon="13.4855908"><ele>991.0</ele><time>2026-05-01T08:52:13.817Z</time></trkpt><trkpt lat="42.6531004" lon="13.4855974"><ele>991.5999999999999</ele><time>2026-05-01T08:52:14.817Z</time></trkpt><trkpt lat="42.6531778" lon="13.4855717"><ele>992.1999999999999</ele><time>2026-05-01T08:52:15.818Z</time></trkpt><trkpt lat="42.6532523" lon="13.485505"><ele>992.8000000000001</ele><time>2026-05-01T08:52:16.817Z</time></trkpt><trkpt lat="42.6533128" lon="13.4853988"><ele>993.4000000000001</ele><time>2026-05-01T08:52:17.818Z</time></trkpt><trkpt lat="42.6533592" lon="13.4852652"><ele>994.0</ele><time>2026-05-01T08:52:18.818Z</time></trkpt><trkpt lat="42.6533919" lon="13.4851194"><ele>998.0</ele><time>2026-05-01T08:52:19.816Z</time></trkpt><trkpt lat="42.6534179" lon="13.4849655"><ele>1002.0000000000001</ele><time>2026-05-01T08:52:20.817Z</time></trkpt><trkpt lat="42.6534407" lon="13.4848196"><ele>1006.0000000000001</ele><time>2026-05-01T08:52:21.817Z</time></trkpt><trkpt lat="42.6534706" lon="13.484703"><ele>1010.0</ele><time>2026-05-01T08:52:22.817Z</time></trkpt><trkpt lat="42.6535083" lon="13.4846035"><ele>1014.0</ele><time>2026-05-01T08:52:23.817Z</time></trkpt><trkpt lat="42.6535469" lon="13.4845286"><ele>1014.5</ele><time>2026-05-01T08:52:24.816Z</time></trkpt><trkpt lat="42.6536419" lon="13.4844825"><ele>1015.0</ele><time>2026-05-01T08:52:26.816Z</time></trkpt><trkpt lat="42.6537016" lon="13.4845195"><ele>1015.5</ele><time>2026-05-01T08:52:27.817Z</time></trkpt><trkpt lat="42.6537585" lon="13.4845998"><ele>1016.0</ele><time>2026-05-01T08:52:28.817Z</time></trkpt><trkpt lat="42.6538218" lon="13.4846792"><ele>1016.5</ele><time>2026-05-01T08:52:29.816Z</time></trkpt><trkpt lat="42.653912" lon="13.4847319"><ele>1017.0</ele><time>2026-05-01T08:52:30.817Z</time></trkpt><trkpt lat="42.6540101" lon="13.4847716"><ele>1017.0</ele><time>2026-05-01T08:52:31.817Z</time></trkpt><trkpt lat="42.654118" lon="13.4848059"><ele>1017.0</ele><time>2026-05-01T08:52:32.817Z</time></trkpt><trkpt lat="42.6542283" lon="13.4848591"><ele>1017.0</ele><time>2026-05-01T08:52:33.817Z</time></trkpt><trkpt lat="42.6543351" lon="13.4849388"><ele>1017.0</ele><time>2026-05-01T08:52:34.817Z</time></trkpt><trkpt lat="42.6544405" lon="13.4850445"><ele>1026.75</ele><time>2026-05-01T08:52:35.817Z</time></trkpt><trkpt lat="42.6545328" lon="13.4851516"><ele>1036.5</ele><time>2026-05-01T08:52:36.816Z</time></trkpt><trkpt lat="42.6546296" lon="13.4852521"><ele>1046.25</ele><time>2026-05-01T08:52:37.818Z</time></trkpt><trkpt lat="42.6547336" lon="13.4853255"><ele>1056.0</ele><time>2026-05-01T08:52:38.817Z</time></trkpt><trkpt lat="42.6548486" lon="13.4853851"><ele>1054.0</ele><time>2026-05-01T08:52:39.818Z</time></trkpt><trkpt lat="42.6549733" lon="13.4854352"><ele>1052.0</ele><time>2026-05-01T08:52:40.817Z</time></trkpt><trkpt lat="42.6551093" lon="13.4854907"><ele>1050.0</ele><time>2026-05-01T08:52:41.817Z</time></trkpt><trkpt lat="42.655244" lon="13.4855406"><ele>1048.0</ele><time>2026-05-01T08:52:42.816Z</time></trkpt><trkpt lat="42.6553698" lon="13.4855989"><ele>1048.0</ele><time>2026-05-01T08:52:43.818Z</time></trkpt><trkpt lat="42.6554943" lon="13.4856642"><ele>1048.0</ele><time>2026-05-01T08:52:44.818Z</time></trkpt><trkpt lat="42.6556217" lon="13.4857346"><ele>1048.0</ele><time>2026-05-01T08:52:45.816Z</time></trkpt><trkpt lat="42.6557452" lon="13.4858037"><ele>1048.0</ele><time>2026-05-01T08:52:46.818Z</time></trkpt><trkpt lat="42.6558643" lon="13.4858844"><ele>1048.0</ele><time>2026-05-01T08:52:47.816Z</time></trkpt><trkpt lat="42.6559665" lon="13.4859807"><ele>1048.0</ele><time>2026-05-01T08:52:48.816Z</time></trkpt><trkpt lat="42.6560617" lon="13.4861037"><ele>1048.0</ele><time>2026-05-01T08:52:49.818Z</time></trkpt><trkpt lat="42.6561391" lon="13.486244"><ele>1048.0</ele><time>2026-05-01T08:52:50.817Z</time></trkpt><trkpt lat="42.656208" lon="13.4864006"><ele>1052.5</ele><time>2026-05-01T08:52:51.816Z</time></trkpt><trkpt lat="42.6562617" lon="13.4865613"><ele>1057.0</ele><time>2026-05-01T08:52:52.817Z</time></trkpt><trkpt lat="42.6563003" lon="13.4867197"><ele>1061.5</ele><time>2026-05-01T08:52:53.817Z</time></trkpt><trkpt lat="42.6563314" lon="13.4868586"><ele>1066.0</ele><time>2026-05-01T08:52:54.816Z</time></trkpt><trkpt lat="42.65637" lon="13.4869749"><ele>1066.0</ele><time>2026-05-01T08:52:55.817Z</time></trkpt><trkpt lat="42.6564145" lon="13.4870682"><ele>1066.0</ele><time>2026-05-01T08:52:56.818Z</time></trkpt><trkpt lat="42.6564666" lon="13.4871399"><ele>1066.0</ele><time>2026-05-01T08:52:57.817Z</time></trkpt><trkpt lat="42.6565321" lon="13.4872126"><ele>1066.0</ele><time>2026-05-01T08:52:58.817Z</time></trkpt><trkpt lat="42.6565979" lon="13.4872809"><ele>1066.0</ele><time>2026-05-01T08:52:59.817Z</time></trkpt><trkpt lat="42.6566576" lon="13.4873592"><ele>1066.0</ele><time>2026-05-01T08:53:00.817Z</time></trkpt><trkpt lat="42.6567076" lon="13.4874522"><ele>1062.5</ele><time>2026-05-01T08:53:01.817Z</time></trkpt><trkpt lat="42.6567455" lon="13.4875583"><ele>1059.0</ele><time>2026-05-01T08:53:02.817Z</time></trkpt><trkpt lat="42.6567725" lon="13.4876823"><ele>1055.5</ele><time>2026-05-01T08:53:03.816Z</time></trkpt><trkpt lat="42.6567915" lon="13.4878018"><ele>1052.0</ele><time>2026-05-01T08:53:04.817Z</time></trkpt><trkpt lat="42.656817" lon="13.4879054"><ele>1048.5</ele><time>2026-05-01T08:53:05.817Z</time></trkpt><trkpt lat="42.6568464" lon="13.487997"><ele>1045.0</ele><time>2026-05-01T08:53:06.816Z</time></trkpt><trkpt lat="42.6568898" lon="13.4880703"><ele>1043.2</ele><time>2026-05-01T08:53:07.818Z</time></trkpt><trkpt lat="42.6569507" lon="13.488128"><ele>1041.4</ele><time>2026-05-01T08:53:08.817Z</time></trkpt><trkpt lat="42.6570272" lon="13.488174"><ele>1039.6</ele><time>2026-05-01T08:53:09.816Z</time></trkpt><trkpt lat="42.6571176" lon="13.4882068"><ele>1037.8</ele><time>2026-05-01T08:53:10.817Z</time></trkpt><trkpt lat="42.6572211" lon="13.4882366"><ele>1036.0</ele><time>2026-05-01T08:53:11.816Z</time></trkpt><trkpt lat="42.6573373" lon="13.488253"><ele>1036.0</ele><time>2026-05-01T08:53:12.817Z</time></trkpt><trkpt lat="42.6574621" lon="13.4882539"><ele>1036.0</ele><time>2026-05-01T08:53:13.817Z</time></trkpt><trkpt lat="42.6575889" lon="13.4882372"><ele>1036.0</ele><time>2026-05-01T08:53:14.817Z</time></trkpt><trkpt lat="42.6577144" lon="13.4882182"><ele>1036.0</ele><time>2026-05-01T08:53:15.817Z</time></trkpt><trkpt lat="42.6578379" lon="13.4882141"><ele>1034.0</ele><time>2026-05-01T08:53:16.818Z</time></trkpt><trkpt lat="42.6579591" lon="13.4882095"><ele>1032.0</ele><time>2026-05-01T08:53:17.818Z</time></trkpt><trkpt lat="42.6580672" lon="13.4881989"><ele>1030.0</ele><time>2026-05-01T08:53:18.818Z</time></trkpt><trkpt lat="42.6581641" lon="13.4881758"><ele>1028.0</ele><time>2026-05-01T08:53:19.817Z</time></trkpt><trkpt lat="42.6582608" lon="13.4881352"><ele>1026.0</ele><time>2026-05-01T08:53:20.815Z</time></trkpt><trkpt lat="42.6583628" lon="13.4880739"><ele>1026.0</ele><time>2026-05-01T08:53:21.816Z</time></trkpt><trkpt lat="42.6584566" lon="13.4879973"><ele>1026.0</ele><time>2026-05-01T08:53:22.815Z</time></trkpt><trkpt lat="42.6585405" lon="13.4879258"><ele>1026.0</ele><time>2026-05-01T08:53:23.817Z</time></trkpt><trkpt lat="42.6586204" lon="13.4878634"><ele>1026.0</ele><time>2026-05-01T08:53:24.816Z</time></trkpt><trkpt lat="42.6586983" lon="13.4878198"><ele>1026.0</ele><time>2026-05-01T08:53:25.816Z</time></trkpt><trkpt lat="42.6587771" lon="13.4877954"><ele>1028.5</ele><time>2026-05-01T08:53:26.816Z</time></trkpt><trkpt lat="42.6588695" lon="13.4878013"><ele>1031.0</ele><time>2026-05-01T08:53:27.816Z</time></trkpt><trkpt lat="42.6589753" lon="13.4878279"><ele>1033.5</ele><time>2026-05-01T08:53:28.816Z</time></trkpt><trkpt lat="42.6590936" lon="13.4878693"><ele>1036.0</ele><time>2026-05-01T08:53:29.816Z</time></trkpt><trkpt lat="42.6592251" lon="13.4879143"><ele>1035.75</ele><time>2026-05-01T08:53:30.817Z</time></trkpt><trkpt lat="42.6593492" lon="13.4879587"><ele>1035.5</ele><time>2026-05-01T08:53:31.816Z</time></trkpt><trkpt lat="42.6594725" lon="13.4880083"><ele>1035.25</ele><time>2026-05-01T08:53:32.815Z</time></trkpt><trkpt lat="42.6595851" lon="13.4880582"><ele>1035.0</ele><time>2026-05-01T08:53:33.815Z</time></trkpt><trkpt lat="42.6596853" lon="13.4881227"><ele>1035.0</ele><time>2026-05-01T08:53:34.816Z</time></trkpt><trkpt lat="42.659774" lon="13.4882183"><ele>1035.0</ele><time>2026-05-01T08:53:35.816Z</time></trkpt><trkpt lat="42.6598433" lon="13.4883344"><ele>1035.0</ele><time>2026-05-01T08:53:36.816Z</time></trkpt><trkpt lat="42.6599008" lon="13.4884622"><ele>1035.0</ele><time>2026-05-01T08:53:37.817Z</time></trkpt><trkpt lat="42.6599477" lon="13.4885833"><ele>1035.0</ele><time>2026-05-01T08:53:38.816Z</time></trkpt><trkpt lat="42.6599971" lon="13.4886827"><ele>1035.0</ele><time>2026-05-01T08:53:39.815Z</time></trkpt><trkpt lat="42.6600464" lon="13.4887531"><ele>1035.0</ele><time>2026-05-01T08:53:40.816Z</time></trkpt><trkpt lat="42.6601154" lon="13.4888087"><ele>1035.0</ele><time>2026-05-01T08:53:41.815Z</time></trkpt><trkpt lat="42.660202" lon="13.4888523"><ele>1035.0</ele><time>2026-05-01T08:53:42.815Z</time></trkpt><trkpt lat="42.6603019" lon="13.4889022"><ele>1035.0</ele><time>2026-05-01T08:53:43.816Z</time></trkpt><trkpt lat="42.660389" lon="13.4889767"><ele>1037.0</ele><time>2026-05-01T08:53:44.816Z</time></trkpt><trkpt lat="42.6604538" lon="13.4890613"><ele>1039.0</ele><time>2026-05-01T08:53:45.817Z</time></trkpt><trkpt lat="42.6605092" lon="13.489149"><ele>1041.0</ele><time>2026-05-01T08:53:46.816Z</time></trkpt><trkpt lat="42.660568" lon="13.4892631"><ele>1043.0</ele><time>2026-05-01T08:53:47.816Z</time></trkpt><trkpt lat="42.6606275" lon="13.489385"><ele>1045.0</ele><time>2026-05-01T08:53:48.817Z</time></trkpt><trkpt lat="42.6606802" lon="13.4895189"><ele>1041.25</ele><time>2026-05-01T08:53:49.816Z</time></trkpt><trkpt lat="42.6607275" lon="13.4896712"><ele>1037.5</ele><time>2026-05-01T08:53:50.815Z</time></trkpt><trkpt lat="42.6607625" lon="13.4898271"><ele>1033.75</ele><time>2026-05-01T08:53:51.816Z</time></trkpt><trkpt lat="42.6607845" lon="13.4899945"><ele>1030.0</ele><time>2026-05-01T08:53:52.816Z</time></trkpt><trkpt lat="42.6608026" lon="13.4901723"><ele>1030.0</ele><time>2026-05-01T08:53:53.817Z</time></trkpt><trkpt lat="42.6608235" lon="13.4903333"><ele>1030.0</ele><time>2026-05-01T08:53:54.816Z</time></trkpt><trkpt lat="42.6608491" lon="13.4904787"><ele>1030.0</ele><time>2026-05-01T08:53:55.816Z</time></trkpt><trkpt lat="42.6608858" lon="13.4906133"><ele>1030.0</ele><time>2026-05-01T08:53:56.816Z</time></trkpt><trkpt lat="42.6609376" lon="13.4907335"><ele>1030.0</ele><time>2026-05-01T08:53:57.817Z</time></trkpt><trkpt lat="42.6609988" lon="13.4908349"><ele>1029.2</ele><time>2026-05-01T08:53:58.816Z</time></trkpt><trkpt lat="42.6610724" lon="13.4909158"><ele>1028.4</ele><time>2026-05-01T08:53:59.816Z</time></trkpt><trkpt lat="42.6611541" lon="13.490976"><ele>1027.6</ele><time>2026-05-01T08:54:00.816Z</time></trkpt><trkpt lat="42.6612376" lon="13.4909973"><ele>1026.8</ele><time>2026-05-01T08:54:01.815Z</time></trkpt><trkpt lat="42.6613269" lon="13.4909866"><ele>1026.0</ele><time>2026-05-01T08:54:02.815Z</time></trkpt><trkpt lat="42.6614146" lon="13.4909501"><ele>1026.0</ele><time>2026-05-01T08:54:03.815Z</time></trkpt><trkpt lat="42.6614869" lon="13.4909023"><ele>1026.0</ele><time>2026-05-01T08:54:04.816Z</time></trkpt><trkpt lat="42.6615625" lon="13.4908472"><ele>1026.0</ele><time>2026-05-01T08:54:05.816Z</time></trkpt><trkpt lat="42.661634" lon="13.4908059"><ele>1026.0</ele><time>2026-05-01T08:54:06.816Z</time></trkpt><trkpt lat="42.6617072" lon="13.4907651"><ele>1026.0</ele><time>2026-05-01T08:54:07.816Z</time></trkpt><trkpt lat="42.6617771" lon="13.4907254"><ele>1026.0</ele><time>2026-05-01T08:54:08.815Z</time></trkpt><trkpt lat="42.6618501" lon="13.4906889"><ele>1026.0</ele><time>2026-05-01T08:54:09.815Z</time></trkpt><trkpt lat="42.6619223" lon="13.4906563"><ele>1026.0</ele><time>2026-05-01T08:54:10.815Z</time></trkpt><trkpt lat="42.6620049" lon="13.4906345"><ele>1026.0</ele><time>2026-05-01T08:54:11.815Z</time></trkpt><trkpt lat="42.6620947" lon="13.4906313"><ele>1026.0</ele><time>2026-05-01T08:54:12.816Z</time></trkpt><trkpt lat="42.6621812" lon="13.4906534"><ele>1026.0</ele><time>2026-05-01T08:54:13.816Z</time></trkpt><trkpt lat="42.6622626" lon="13.4906759"><ele>1026.0</ele><time>2026-05-01T08:54:14.816Z</time></trkpt><trkpt lat="42.6623347" lon="13.490711"><ele>1024.3999999999999</ele><time>2026-05-01T08:54:15.816Z</time></trkpt><trkpt lat="42.6623965" lon="13.490754"><ele>1022.8</ele><time>2026-05-01T08:54:16.816Z</time></trkpt><trkpt lat="42.6624906" lon="13.4908545"><ele>1021.1999999999999</ele><time>2026-05-01T08:54:18.816Z</time></trkpt><trkpt lat="42.662568" lon="13.4909829"><ele>1019.5999999999999</ele><time>2026-05-01T08:54:20.816Z</time></trkpt><trkpt lat="42.6626199" lon="13.4910455"><ele>1018.0</ele><time>2026-05-01T08:54:21.815Z</time></trkpt><trkpt lat="42.6626831" lon="13.4911097"><ele>1017.9999999999999</ele><time>2026-05-01T08:54:22.815Z</time></trkpt><trkpt lat="42.6627444" lon="13.4911705"><ele>1018.0</ele><time>2026-05-01T08:54:23.817Z</time></trkpt><trkpt lat="42.6628044" lon="13.4912288"><ele>1018.0</ele><time>2026-05-01T08:54:24.816Z</time></trkpt><trkpt lat="42.6628604" lon="13.4912965"><ele>1018.0</ele><time>2026-05-01T08:54:25.816Z</time></trkpt><trkpt lat="42.6629059" lon="13.4913726"><ele>1017.9999999999999</ele><time>2026-05-01T08:54:26.816Z</time></trkpt><trkpt lat="42.6629505" lon="13.4914611"><ele>1018.0</ele><time>2026-05-01T08:54:27.817Z</time></trkpt><trkpt lat="42.6629937" lon="13.4915541"><ele>1014.4999999999999</ele><time>2026-05-01T08:54:28.816Z</time></trkpt><trkpt lat="42.6630346" lon="13.4916389"><ele>1011.0</ele><time>2026-05-01T08:54:29.815Z</time></trkpt><trkpt lat="42.6630888" lon="13.491704"><ele>1007.5</ele><time>2026-05-01T08:54:30.817Z</time></trkpt><trkpt lat="42.6631474" lon="13.4917663"><ele>1004.0</ele><time>2026-05-01T08:54:31.815Z</time></trkpt><trkpt lat="42.6632008" lon="13.4918209"><ele>1000.4999999999999</ele><time>2026-05-01T08:54:32.816Z</time></trkpt><trkpt lat="42.6632894" lon="13.491934"><ele>997.0</ele><time>2026-05-01T08:54:34.816Z</time></trkpt><trkpt lat="42.663333" lon="13.4919961"><ele>996.9999999999999</ele><time>2026-05-01T08:54:35.816Z</time></trkpt><trkpt lat="42.6633846" lon="13.4920531"><ele>997.0</ele><time>2026-05-01T08:54:36.817Z</time></trkpt><trkpt lat="42.6634406" lon="13.4921104"><ele>996.9999999999999</ele><time>2026-05-01T08:54:37.815Z</time></trkpt><trkpt lat="42.6634933" lon="13.4921822"><ele>996.9999999999999</ele><time>2026-05-01T08:54:38.816Z</time></trkpt><trkpt lat="42.6635314" lon="13.4922664"><ele>997.0</ele><time>2026-05-01T08:54:39.817Z</time></trkpt><trkpt lat="42.6635607" lon="13.492371"><ele>996.9999999999999</ele><time>2026-05-01T08:54:40.816Z</time></trkpt><trkpt lat="42.6635895" lon="13.4924688"><ele>996.9999999999999</ele><time>2026-05-01T08:54:41.815Z</time></trkpt><trkpt lat="42.6636166" lon="13.4925606"><ele>997.3333333333333</ele><time>2026-05-01T08:54:42.816Z</time></trkpt><trkpt lat="42.6636351" lon="13.4926588"><ele>997.6666666666666</ele><time>2026-05-01T08:54:43.816Z</time></trkpt><trkpt lat="42.6636549" lon="13.4927506"><ele>998.0</ele><time>2026-05-01T08:54:44.817Z</time></trkpt><trkpt lat="42.6636706" lon="13.492837"><ele>998.3333333333333</ele><time>2026-05-01T08:54:45.816Z</time></trkpt><trkpt lat="42.6636683" lon="13.4929828"><ele>998.6666666666666</ele><time>2026-05-01T08:54:47.816Z</time></trkpt><trkpt lat="42.6637072" lon="13.4931251"><ele>999.0</ele><time>2026-05-01T08:54:49.815Z</time></trkpt><trkpt lat="42.6638185" lon="13.4932185"><ele>999.0</ele><time>2026-05-01T08:54:51.817Z</time></trkpt><trkpt lat="42.6639011" lon="13.4932714"><ele>999.0000000000001</ele><time>2026-05-01T08:54:52.815Z</time></trkpt><trkpt lat="42.6639869" lon="13.493341"><ele>999.0000000000001</ele><time>2026-05-01T08:54:53.816Z</time></trkpt><trkpt lat="42.6640795" lon="13.4934263"><ele>999.0</ele><time>2026-05-01T08:54:54.817Z</time></trkpt><trkpt lat="42.6641831" lon="13.4935182"><ele>999.0</ele><time>2026-05-01T08:54:55.815Z</time></trkpt><trkpt lat="42.6642864" lon="13.4936172"><ele>999.0</ele><time>2026-05-01T08:54:56.815Z</time></trkpt><trkpt lat="42.6643977" lon="13.4937211"><ele>999.0</ele><time>2026-05-01T08:54:57.815Z</time></trkpt><trkpt lat="42.6645094" lon="13.4938225"><ele>999.0</ele><time>2026-05-01T08:54:58.817Z</time></trkpt><trkpt lat="42.6646289" lon="13.493932"><ele>999.0</ele><time>2026-05-01T08:54:59.817Z</time></trkpt><trkpt lat="42.6647432" lon="13.4940427"><ele>996.0</ele><time>2026-05-01T08:55:00.815Z</time></trkpt><trkpt lat="42.6648602" lon="13.494152"><ele>993.0</ele><time>2026-05-01T08:55:01.816Z</time></trkpt><trkpt lat="42.6649802" lon="13.4942626"><ele>990.0</ele><time>2026-05-01T08:55:02.816Z</time></trkpt><trkpt lat="42.6650997" lon="13.4943763"><ele>987.0</ele><time>2026-05-01T08:55:03.816Z</time></trkpt><trkpt lat="42.6652201" lon="13.4944976"><ele>982.75</ele><time>2026-05-01T08:55:04.817Z</time></trkpt><trkpt lat="42.6653389" lon="13.4946226"><ele>978.5</ele><time>2026-05-01T08:55:05.816Z</time></trkpt><trkpt lat="42.6654515" lon="13.4947477"><ele>974.25</ele><time>2026-05-01T08:55:06.816Z</time></trkpt><trkpt lat="42.6655645" lon="13.4948671"><ele>970.0</ele><time>2026-05-01T08:55:07.816Z</time></trkpt><trkpt lat="42.6656806" lon="13.4949717"><ele>970.0</ele><time>2026-05-01T08:55:08.816Z</time></trkpt><trkpt lat="42.6658004" lon="13.4950576"><ele>970.0</ele><time>2026-05-01T08:55:09.816Z</time></trkpt><trkpt lat="42.6659071" lon="13.4951357"><ele>970.0</ele><time>2026-05-01T08:55:10.817Z</time></trkpt><trkpt lat="42.6660001" lon="13.4952124"><ele>970.0</ele><time>2026-05-01T08:55:11.816Z</time></trkpt><trkpt lat="42.6660847" lon="13.4953028"><ele>969.75</ele><time>2026-05-01T08:55:12.815Z</time></trkpt><trkpt lat="42.6661663" lon="13.4954108"><ele>969.5</ele><time>2026-05-01T08:55:13.816Z</time></trkpt><trkpt lat="42.666235" lon="13.4955391"><ele>969.25</ele><time>2026-05-01T08:55:14.816Z</time></trkpt><trkpt lat="42.6662949" lon="13.4956781"><ele>969.0</ele><time>2026-05-01T08:55:15.815Z</time></trkpt><trkpt lat="42.6663563" lon="13.4958192"><ele>969.0</ele><time>2026-05-01T08:55:16.816Z</time></trkpt><trkpt lat="42.6664187" lon="13.4959542"><ele>969.0000000000001</ele><time>2026-05-01T08:55:17.817Z</time></trkpt><trkpt lat="42.6664838" lon="13.4960759"><ele>969.0000000000001</ele><time>2026-05-01T08:55:18.816Z</time></trkpt><trkpt lat="42.6665513" lon="13.4961778"><ele>969.0</ele><time>2026-05-01T08:55:19.815Z</time></trkpt><trkpt lat="42.6666105" lon="13.49625"><ele>969.0</ele><time>2026-05-01T08:55:20.815Z</time></trkpt><trkpt lat="42.66667" lon="13.4962905"><ele>969.0</ele><time>2026-05-01T08:55:21.817Z</time></trkpt><trkpt lat="42.6668018" lon="13.4962638"><ele>969.0</ele><time>2026-05-01T08:55:23.817Z</time></trkpt><trkpt lat="42.6668698" lon="13.4962288"><ele>969.0</ele><time>2026-05-01T08:55:24.817Z</time></trkpt><trkpt lat="42.6669217" lon="13.4961631"><ele>969.0</ele><time>2026-05-01T08:55:25.817Z</time></trkpt><trkpt lat="42.666953" lon="13.4960718"><ele>969.0</ele><time>2026-05-01T08:55:26.816Z</time></trkpt><trkpt lat="42.6669664" lon="13.4959526"><ele>969.0</ele><time>2026-05-01T08:55:27.817Z</time></trkpt><trkpt lat="42.6669804" lon="13.4958147"><ele>966.2</ele><time>2026-05-01T08:55:28.816Z</time></trkpt><trkpt lat="42.666992" lon="13.4956596"><ele>963.4000000000001</ele><time>2026-05-01T08:55:29.815Z</time></trkpt><trkpt lat="42.6670087" lon="13.4955063"><ele>960.6</ele><time>2026-05-01T08:55:30.815Z</time></trkpt><trkpt lat="42.6670193" lon="13.4953556"><ele>957.8</ele><time>2026-05-01T08:55:31.816Z</time></trkpt><trkpt lat="42.6670195" lon="13.4952231"><ele>955.0</ele><time>2026-05-01T08:55:32.817Z</time></trkpt><trkpt lat="42.6670045" lon="13.4951076"><ele>956.0</ele><time>2026-05-01T08:55:33.817Z</time></trkpt><trkpt lat="42.6669719" lon="13.4949978"><ele>957.0</ele><time>2026-05-01T08:55:34.816Z</time></trkpt><trkpt lat="42.6669021" lon="13.4948915"><ele>958.0</ele><time>2026-05-01T08:55:35.816Z</time></trkpt><trkpt lat="42.6668215" lon="13.494787"><ele>959.0</ele><time>2026-05-01T08:55:36.817Z</time></trkpt><trkpt lat="42.6667403" lon="13.4946826"><ele>960.0</ele><time>2026-05-01T08:55:37.816Z</time></trkpt><trkpt lat="42.6666516" lon="13.4945952"><ele>954.5</ele><time>2026-05-01T08:55:38.816Z</time></trkpt><trkpt lat="42.6665442" lon="13.4945293"><ele>949.0</ele><time>2026-05-01T08:55:39.816Z</time></trkpt><trkpt lat="42.666427" lon="13.4944873"><ele>943.5</ele><time>2026-05-01T08:55:40.816Z</time></trkpt><trkpt lat="42.6663078" lon="13.4944392"><ele>938.0</ele><time>2026-05-01T08:55:41.817Z</time></trkpt><trkpt lat="42.6661984" lon="13.4943775"><ele>941.8</ele><time>2026-05-01T08:55:42.816Z</time></trkpt><trkpt lat="42.6660979" lon="13.494299"><ele>945.5999999999999</ele><time>2026-05-01T08:55:43.816Z</time></trkpt><trkpt lat="42.6660089" lon="13.4942016"><ele>949.4000000000001</ele><time>2026-05-01T08:55:44.816Z</time></trkpt><trkpt lat="42.6659399" lon="13.4941"><ele>953.2</ele><time>2026-05-01T08:55:45.815Z</time></trkpt><trkpt lat="42.6658892" lon="13.4939732"><ele>957.0</ele><time>2026-05-01T08:55:46.817Z</time></trkpt><trkpt lat="42.6658586" lon="13.4938327"><ele>953.2</ele><time>2026-05-01T08:55:47.815Z</time></trkpt><trkpt lat="42.6658533" lon="13.4936903"><ele>949.4000000000001</ele><time>2026-05-01T08:55:48.816Z</time></trkpt><trkpt lat="42.6658416" lon="13.4935542"><ele>945.5999999999999</ele><time>2026-05-01T08:55:49.817Z</time></trkpt><trkpt lat="42.6658142" lon="13.4934233"><ele>941.8</ele><time>2026-05-01T08:55:50.816Z</time></trkpt><trkpt lat="42.6657589" lon="13.4933066"><ele>938.0</ele><time>2026-05-01T08:55:51.815Z</time></trkpt><trkpt lat="42.6656957" lon="13.4931889"><ele>938.0</ele><time>2026-05-01T08:55:52.815Z</time></trkpt><trkpt lat="42.6655756" lon="13.4930654"><ele>938.0</ele><time>2026-05-01T08:55:53.816Z</time></trkpt><trkpt lat="42.6654867" lon="13.4929308"><ele>938.0</ele><time>2026-05-01T08:55:54.816Z</time></trkpt><trkpt lat="42.6653944" lon="13.4927888"><ele>938.0</ele><time>2026-05-01T08:55:55.816Z</time></trkpt><trkpt lat="42.6652921" lon="13.4926634"><ele>938.25</ele><time>2026-05-01T08:55:56.816Z</time></trkpt><trkpt lat="42.6651818" lon="13.4925518"><ele>938.5</ele><time>2026-05-01T08:55:57.816Z</time></trkpt><trkpt lat="42.6650735" lon="13.4924445"><ele>938.75</ele><time>2026-05-01T08:55:58.816Z</time></trkpt><trkpt lat="42.6649705" lon="13.4923381"><ele>939.0</ele><time>2026-05-01T08:55:59.816Z</time></trkpt><trkpt lat="42.6648713" lon="13.4922383"><ele>939.0</ele><time>2026-05-01T08:56:00.816Z</time></trkpt><trkpt lat="42.6647776" lon="13.4921574"><ele>939.0000000000001</ele><time>2026-05-01T08:56:01.815Z</time></trkpt><trkpt lat="42.6646968" lon="13.4920754"><ele>939.0000000000001</ele><time>2026-05-01T08:56:02.816Z</time></trkpt><trkpt lat="42.66463" lon="13.4919834"><ele>939.0</ele><time>2026-05-01T08:56:03.816Z</time></trkpt><trkpt lat="42.664575" lon="13.4918799"><ele>939.0</ele><time>2026-05-01T08:56:04.817Z</time></trkpt><trkpt lat="42.6645277" lon="13.4917534"><ele>934.0</ele><time>2026-05-01T08:56:05.815Z</time></trkpt><trkpt lat="42.6644901" lon="13.4916243"><ele>929.0</ele><time>2026-05-01T08:56:06.815Z</time></trkpt><trkpt lat="42.6644831" lon="13.4914556"><ele>924.0</ele><time>2026-05-01T08:56:07.817Z</time></trkpt><trkpt lat="42.6644643" lon="13.4912825"><ele>919.0</ele><time>2026-05-01T08:56:08.817Z</time></trkpt><trkpt lat="42.664487" lon="13.4910922"><ele>917.75</ele><time>2026-05-01T08:56:09.816Z</time></trkpt><trkpt lat="42.6645117" lon="13.4909142"><ele>916.5</ele><time>2026-05-01T08:56:10.815Z</time></trkpt><trkpt lat="42.6645236" lon="13.4907402"><ele>915.25</ele><time>2026-05-01T08:56:11.816Z</time></trkpt><trkpt lat="42.6645392" lon="13.4905691"><ele>914.0</ele><time>2026-05-01T08:56:12.815Z</time></trkpt><trkpt lat="42.6645545" lon="13.4904043"><ele>913.5</ele><time>2026-05-01T08:56:13.817Z</time></trkpt><trkpt lat="42.6645613" lon="13.4902541"><ele>913.0</ele><time>2026-05-01T08:56:14.815Z</time></trkpt><trkpt lat="42.6645605" lon="13.4901014"><ele>912.5</ele><time>2026-05-01T08:56:15.815Z</time></trkpt><trkpt lat="42.6645292" lon="13.4899431"><ele>912.0</ele><time>2026-05-01T08:56:16.816Z</time></trkpt><trkpt lat="42.6644962" lon="13.4897764"><ele>912.0</ele><time>2026-05-01T08:56:17.817Z</time></trkpt><trkpt lat="42.6644544" lon="13.4896104"><ele>912.0</ele><time>2026-05-01T08:56:18.817Z</time></trkpt><trkpt lat="42.6644283" lon="13.4894471"><ele>912.0</ele><time>2026-05-01T08:56:19.815Z</time></trkpt><trkpt lat="42.6643972" lon="13.4892766"><ele>912.0</ele><time>2026-05-01T08:56:20.816Z</time></trkpt><trkpt lat="42.6643822" lon="13.4891121"><ele>914.4000000000001</ele><time>2026-05-01T08:56:21.815Z</time></trkpt><trkpt lat="42.6643597" lon="13.4889442"><ele>916.8000000000001</ele><time>2026-05-01T08:56:22.816Z</time></trkpt><trkpt lat="42.6643366" lon="13.4887934"><ele>919.2</ele><time>2026-05-01T08:56:23.817Z</time></trkpt><trkpt lat="42.664307" lon="13.4886579"><ele>921.6</ele><time>2026-05-01T08:56:24.816Z</time></trkpt><trkpt lat="42.6642925" lon="13.4885204"><ele>924.0</ele><time>2026-05-01T08:56:25.816Z</time></trkpt><trkpt lat="42.6642901" lon="13.4883934"><ele>924.0</ele><time>2026-05-01T08:56:26.815Z</time></trkpt><trkpt lat="42.6643051" lon="13.4882844"><ele>924.0</ele><time>2026-05-01T08:56:27.817Z</time></trkpt><trkpt lat="42.6643395" lon="13.488196"><ele>924.0</ele><time>2026-05-01T08:56:28.817Z</time></trkpt><trkpt lat="42.6643967" lon="13.4881348"><ele>924.0</ele><time>2026-05-01T08:56:29.815Z</time></trkpt><trkpt lat="42.6644642" lon="13.4880979"><ele>924.0</ele><time>2026-05-01T08:56:30.815Z</time></trkpt><trkpt lat="42.6645347" lon="13.4880908"><ele>924.0</ele><time>2026-05-01T08:56:31.816Z</time></trkpt><trkpt lat="42.6646123" lon="13.4881196"><ele>919.8000000000001</ele><time>2026-05-01T08:56:32.816Z</time></trkpt><trkpt lat="42.664698" lon="13.4881795"><ele>915.6000000000001</ele><time>2026-05-01T08:56:33.817Z</time></trkpt><trkpt lat="42.6647716" lon="13.4882626"><ele>911.4</ele><time>2026-05-01T08:56:34.817Z</time></trkpt><trkpt lat="42.6648538" lon="13.4883502"><ele>907.2</ele><time>2026-05-01T08:56:35.816Z</time></trkpt><trkpt lat="42.6649337" lon="13.4884477"><ele>903.0</ele><time>2026-05-01T08:56:36.816Z</time></trkpt><trkpt lat="42.6650125" lon="13.4885618"><ele>903.0</ele><time>2026-05-01T08:56:37.816Z</time></trkpt><trkpt lat="42.665084" lon="13.4886966"><ele>903.0</ele><time>2026-05-01T08:56:38.816Z</time></trkpt><trkpt lat="42.6651543" lon="13.4888443"><ele>903.0</ele><time>2026-05-01T08:56:39.815Z</time></trkpt><trkpt lat="42.6652326" lon="13.4889846"><ele>903.0</ele><time>2026-05-01T08:56:40.815Z</time></trkpt><trkpt lat="42.6653168" lon="13.4891252"><ele>902.5</ele><time>2026-05-01T08:56:41.815Z</time></trkpt><trkpt lat="42.6654014" lon="13.4892653"><ele>902.0</ele><time>2026-05-01T08:56:42.816Z</time></trkpt><trkpt lat="42.665478" lon="13.4894085"><ele>901.5</ele><time>2026-05-01T08:56:43.815Z</time></trkpt><trkpt lat="42.6655631" lon="13.4895431"><ele>901.0</ele><time>2026-05-01T08:56:44.816Z</time></trkpt><trkpt lat="42.6656513" lon="13.4896729"><ele>899.5</ele><time>2026-05-01T08:56:45.817Z</time></trkpt><trkpt lat="42.6657338" lon="13.489803"><ele>898.0</ele><time>2026-05-01T08:56:46.816Z</time></trkpt><trkpt lat="42.6658192" lon="13.4899211"><ele>896.5</ele><time>2026-05-01T08:56:47.816Z</time></trkpt><trkpt lat="42.6658896" lon="13.4900347"><ele>895.0</ele><time>2026-05-01T08:56:48.815Z</time></trkpt><trkpt lat="42.6659575" lon="13.4901471"><ele>895.0</ele><time>2026-05-01T08:56:49.816Z</time></trkpt><trkpt lat="42.666007" lon="13.4902556"><ele>895.0</ele><time>2026-05-01T08:56:50.816Z</time></trkpt><trkpt lat="42.6660501" lon="13.4903785"><ele>895.0</ele><time>2026-05-01T08:56:51.815Z</time></trkpt><trkpt lat="42.6660785" lon="13.4905115"><ele>895.0</ele><time>2026-05-01T08:56:52.815Z</time></trkpt><trkpt lat="42.6660964" lon="13.4906625"><ele>895.0</ele><time>2026-05-01T08:56:53.816Z</time></trkpt><trkpt lat="42.6660945" lon="13.4908225"><ele>894.4</ele><time>2026-05-01T08:56:54.816Z</time></trkpt><trkpt lat="42.6660765" lon="13.4909806"><ele>893.8</ele><time>2026-05-01T08:56:55.815Z</time></trkpt><trkpt lat="42.6660576" lon="13.4911297"><ele>893.2</ele><time>2026-05-01T08:56:56.816Z</time></trkpt><trkpt lat="42.6660299" lon="13.4912705"><ele>892.6</ele><time>2026-05-01T08:56:57.816Z</time></trkpt><trkpt lat="42.6660062" lon="13.4914135"><ele>892.0</ele><time>2026-05-01T08:56:58.816Z</time></trkpt><trkpt lat="42.6660018" lon="13.4915332"><ele>891.8333333333333</ele><time>2026-05-01T08:56:59.816Z</time></trkpt><trkpt lat="42.6659768" lon="13.4916423"><ele>891.6666666666666</ele><time>2026-05-01T08:57:00.816Z</time></trkpt><trkpt lat="42.6659783" lon="13.4917432"><ele>891.5</ele><time>2026-05-01T08:57:01.816Z</time></trkpt><trkpt lat="42.6660042" lon="13.491837"><ele>891.3333333333333</ele><time>2026-05-01T08:57:02.815Z</time></trkpt><trkpt lat="42.6660461" lon="13.4919056"><ele>891.1666666666666</ele><time>2026-05-01T08:57:03.815Z</time></trkpt><trkpt lat="42.6661161" lon="13.4919387"><ele>891.0</ele><time>2026-05-01T08:57:04.816Z</time></trkpt><trkpt lat="42.6662413" lon="13.4919096"><ele>888.0</ele><time>2026-05-01T08:57:06.816Z</time></trkpt><trkpt lat="42.6662854" lon="13.4917919"><ele>884.9999999999999</ele><time>2026-05-01T08:57:07.816Z</time></trkpt><trkpt lat="42.6663334" lon="13.4916735"><ele>881.9999999999999</ele><time>2026-05-01T08:57:08.815Z</time></trkpt><trkpt lat="42.6663748" lon="13.4915691"><ele>879.0</ele><time>2026-05-01T08:57:09.815Z</time></trkpt><trkpt lat="42.666398" lon="13.4914561"><ele>876.0</ele><time>2026-05-01T08:57:10.816Z</time></trkpt><trkpt lat="42.6664356" lon="13.49135"><ele>876.0</ele><time>2026-05-01T08:57:11.815Z</time></trkpt><trkpt lat="42.6664761" lon="13.4912678"><ele>876.0</ele><time>2026-05-01T08:57:12.816Z</time></trkpt><trkpt lat="42.6665355" lon="13.4912057"><ele>876.0</ele><time>2026-05-01T08:57:13.817Z</time></trkpt><trkpt lat="42.6666008" lon="13.4911828"><ele>876.0</ele><time>2026-05-01T08:57:14.815Z</time></trkpt><trkpt lat="42.6667191" lon="13.491238"><ele>876.0</ele><time>2026-05-01T08:57:16.815Z</time></trkpt><trkpt lat="42.6667707" lon="13.4913281"><ele>876.0</ele><time>2026-05-01T08:57:17.817Z</time></trkpt><trkpt lat="42.6668048" lon="13.4914573"><ele>876.0</ele><time>2026-05-01T08:57:18.816Z</time></trkpt><trkpt lat="42.6668271" lon="13.4915957"><ele>875.9999999999999</ele><time>2026-05-01T08:57:19.815Z</time></trkpt><trkpt lat="42.6668644" lon="13.491709"><ele>875.9999999999999</ele><time>2026-05-01T08:57:20.815Z</time></trkpt><trkpt lat="42.6669059" lon="13.4918329"><ele>876.0</ele><time>2026-05-01T08:57:21.817Z</time></trkpt><trkpt lat="42.666956" lon="13.491927"><ele>876.0</ele><time>2026-05-01T08:57:22.816Z</time></trkpt><trkpt lat="42.6670786" lon="13.4919372"><ele>879.75</ele><time>2026-05-01T08:57:23.815Z</time></trkpt><trkpt lat="42.667205" lon="13.491954"><ele>883.5</ele><time>2026-05-01T08:57:24.816Z</time></trkpt><trkpt lat="42.6673341" lon="13.4919747"><ele>887.25</ele><time>2026-05-01T08:57:25.815Z</time></trkpt><trkpt lat="42.6674729" lon="13.4919749"><ele>891.0</ele><time>2026-05-01T08:57:26.816Z</time></trkpt><trkpt lat="42.6676171" lon="13.4920016"><ele>891.0</ele><time>2026-05-01T08:57:27.816Z</time></trkpt><trkpt lat="42.6677589" lon="13.4920133"><ele>891.0</ele><time>2026-05-01T08:57:28.816Z</time></trkpt><trkpt lat="42.6679258" lon="13.4920435"><ele>891.0</ele><time>2026-05-01T08:57:29.816Z</time></trkpt><trkpt lat="42.6680852" lon="13.4920417"><ele>894.25</ele><time>2026-05-01T08:57:30.815Z</time></trkpt><trkpt lat="42.6682275" lon="13.4919991"><ele>897.5</ele><time>2026-05-01T08:57:31.817Z</time></trkpt><trkpt lat="42.6683706" lon="13.4919837"><ele>900.75</ele><time>2026-05-01T08:57:32.817Z</time></trkpt><trkpt lat="42.6684963" lon="13.4919743"><ele>904.0</ele><time>2026-05-01T08:57:33.816Z</time></trkpt><trkpt lat="42.6686346" lon="13.4919758"><ele>907.25</ele><time>2026-05-01T08:57:34.816Z</time></trkpt><trkpt lat="42.668768" lon="13.4920147"><ele>910.5</ele><time>2026-05-01T08:57:35.816Z</time></trkpt><trkpt lat="42.6689143" lon="13.4920617"><ele>913.75</ele><time>2026-05-01T08:57:36.817Z</time></trkpt><trkpt lat="42.669067" lon="13.49211"><ele>917.0</ele><time>2026-05-01T08:57:37.816Z</time></trkpt><trkpt lat="42.6692216" lon="13.4921708"><ele>905.6666666666667</ele><time>2026-05-01T08:57:38.815Z</time></trkpt><trkpt lat="42.6693676" lon="13.4922401"><ele>894.3333333333333</ele><time>2026-05-01T08:57:39.815Z</time></trkpt><trkpt lat="42.6695178" lon="13.4922817"><ele>883.0</ele><time>2026-05-01T08:57:40.816Z</time></trkpt><trkpt lat="42.669661" lon="13.4923114"><ele>883.0</ele><time>2026-05-01T08:57:41.815Z</time></trkpt><trkpt lat="42.6697928" lon="13.4923618"><ele>883.0</ele><time>2026-05-01T08:57:42.816Z</time></trkpt><trkpt lat="42.6699113" lon="13.4924254"><ele>883.0</ele><time>2026-05-01T08:57:43.816Z</time></trkpt><trkpt lat="42.6700099" lon="13.4925156"><ele>883.0</ele><time>2026-05-01T08:57:44.816Z</time></trkpt><trkpt lat="42.6701066" lon="13.4926108"><ele>883.0</ele><time>2026-05-01T08:57:45.816Z</time></trkpt><trkpt lat="42.6701909" lon="13.4927095"><ele>883.0</ele><time>2026-05-01T08:57:46.815Z</time></trkpt><trkpt lat="42.6702943" lon="13.4927843"><ele>883.0</ele><time>2026-05-01T08:57:47.816Z</time></trkpt><trkpt lat="42.6704014" lon="13.4928373"><ele>883.0</ele><time>2026-05-01T08:57:48.817Z</time></trkpt><trkpt lat="42.6705224" lon="13.4928561"><ele>884.4</ele><time>2026-05-01T08:57:49.816Z</time></trkpt><trkpt lat="42.6706292" lon="13.4928934"><ele>885.8</ele><time>2026-05-01T08:57:50.817Z</time></trkpt><trkpt lat="42.6707231" lon="13.4929343"><ele>887.2</ele><time>2026-05-01T08:57:51.816Z</time></trkpt><trkpt lat="42.6708148" lon="13.4929914"><ele>888.6</ele><time>2026-05-01T08:57:52.817Z</time></trkpt><trkpt lat="42.6709032" lon="13.4930382"><ele>890.0</ele><time>2026-05-01T08:57:53.816Z</time></trkpt><trkpt lat="42.6709847" lon="13.49309"><ele>886.8333333333334</ele><time>2026-05-01T08:57:54.816Z</time></trkpt><trkpt lat="42.6710668" lon="13.493111"><ele>883.6666666666667</ele><time>2026-05-01T08:57:55.816Z</time></trkpt><trkpt lat="42.6711311" lon="13.4931069"><ele>880.5</ele><time>2026-05-01T08:57:56.816Z</time></trkpt><trkpt lat="42.6712148" lon="13.4930933"><ele>877.3333333333333</ele><time>2026-05-01T08:57:57.815Z</time></trkpt><trkpt lat="42.6712702" lon="13.4930271"><ele>874.1666666666666</ele><time>2026-05-01T08:57:58.817Z</time></trkpt><trkpt lat="42.6713567" lon="13.4929333"><ele>871.0</ele><time>2026-05-01T08:57:59.816Z</time></trkpt><trkpt lat="42.6714478" lon="13.4929072"><ele>870.9999999999999</ele><time>2026-05-01T08:58:00.815Z</time></trkpt><trkpt lat="42.6715418" lon="13.4928883"><ele>871.0</ele><time>2026-05-01T08:58:01.816Z</time></trkpt><trkpt lat="42.6716334" lon="13.4928705"><ele>871.0</ele><time>2026-05-01T08:58:02.817Z</time></trkpt><trkpt lat="42.6717185" lon="13.4928623"><ele>871.0</ele><time>2026-05-01T08:58:03.815Z</time></trkpt><trkpt lat="42.6717964" lon="13.4928364"><ele>870.9999999999999</ele><time>2026-05-01T08:58:04.816Z</time></trkpt><trkpt lat="42.6718652" lon="13.4927914"><ele>871.0</ele><time>2026-05-01T08:58:05.816Z</time></trkpt><trkpt lat="42.6718832" lon="13.4926928"><ele>871.0</ele><time>2026-05-01T08:58:06.816Z</time></trkpt><trkpt lat="42.6718793" lon="13.4925044"><ele>870.9999999999999</ele><time>2026-05-01T08:58:08.817Z</time></trkpt><trkpt lat="42.6718714" lon="13.4923706"><ele>870.9999999999999</ele><time>2026-05-01T08:58:09.816Z</time></trkpt><trkpt lat="42.6718775" lon="13.4922459"><ele>871.0</ele><time>2026-05-01T08:58:10.815Z</time></trkpt><trkpt lat="42.6719022" lon="13.4921004"><ele>871.0</ele><time>2026-05-01T08:58:11.815Z</time></trkpt><trkpt lat="42.6719261" lon="13.4919609"><ele>866.4</ele><time>2026-05-01T08:58:12.815Z</time></trkpt><trkpt lat="42.6719508" lon="13.49182"><ele>861.8</ele><time>2026-05-01T08:58:13.816Z</time></trkpt><trkpt lat="42.6719759" lon="13.4916989"><ele>857.1999999999999</ele><time>2026-05-01T08:58:14.817Z</time></trkpt><trkpt lat="42.6719863" lon="13.4915781"><ele>852.5999999999999</ele><time>2026-05-01T08:58:15.817Z</time></trkpt><trkpt lat="42.6720089" lon="13.491455"><ele>848.0</ele><time>2026-05-01T08:58:16.815Z</time></trkpt><trkpt lat="42.6720195" lon="13.4913413"><ele>847.8</ele><time>2026-05-01T08:58:17.816Z</time></trkpt><trkpt lat="42.6719706" lon="13.4912407"><ele>847.5999999999999</ele><time>2026-05-01T08:58:18.817Z</time></trkpt><trkpt lat="42.6719283" lon="13.4911072"><ele>847.4000000000001</ele><time>2026-05-01T08:58:19.817Z</time></trkpt><trkpt lat="42.6718857" lon="13.490987"><ele>847.2</ele><time>2026-05-01T08:58:20.816Z</time></trkpt><trkpt lat="42.6718383" lon="13.4908646"><ele>847.0</ele><time>2026-05-01T08:58:21.815Z</time></trkpt><trkpt lat="42.6718435" lon="13.4907656"><ele>847.4000000000001</ele><time>2026-05-01T08:58:22.817Z</time></trkpt><trkpt lat="42.6718212" lon="13.490661"><ele>847.8000000000001</ele><time>2026-05-01T08:58:23.816Z</time></trkpt><trkpt lat="42.6718493" lon="13.4905535"><ele>848.2</ele><time>2026-05-01T08:58:24.815Z</time></trkpt><trkpt lat="42.6718839" lon="13.4904627"><ele>848.6</ele><time>2026-05-01T08:58:25.816Z</time></trkpt><trkpt lat="42.6719246" lon="13.490348"><ele>849.0</ele><time>2026-05-01T08:58:26.815Z</time></trkpt><trkpt lat="42.6720292" lon="13.4902534"><ele>849.0</ele><time>2026-05-01T08:58:27.815Z</time></trkpt><trkpt lat="42.6721128" lon="13.4901316"><ele>849.0</ele><time>2026-05-01T08:58:28.815Z</time></trkpt><trkpt lat="42.6722016" lon="13.4900164"><ele>849.0</ele><time>2026-05-01T08:58:29.815Z</time></trkpt><trkpt lat="42.6722272" lon="13.4898703"><ele>849.0</ele><time>2026-05-01T08:58:30.816Z</time></trkpt><trkpt lat="42.6722762" lon="13.4897406"><ele>849.0</ele><time>2026-05-01T08:58:31.816Z</time></trkpt><trkpt lat="42.6723258" lon="13.4896438"><ele>849.0</ele><time>2026-05-01T08:58:32.816Z</time></trkpt><trkpt lat="42.672373" lon="13.4895424"><ele>849.0</ele><time>2026-05-01T08:58:33.815Z</time></trkpt><trkpt lat="42.6724358" lon="13.48947"><ele>849.0</ele><time>2026-05-01T08:58:34.815Z</time></trkpt><trkpt lat="42.6724965" lon="13.4894214"><ele>849.0</ele><time>2026-05-01T08:58:35.815Z</time></trkpt><trkpt lat="42.6725625" lon="13.4893915"><ele>849.0</ele><time>2026-05-01T08:58:36.816Z</time></trkpt><trkpt lat="42.6726405" lon="13.489385"><ele>849.0000000000001</ele><time>2026-05-01T08:58:37.816Z</time></trkpt><trkpt lat="42.6727052" lon="13.4894232"><ele>849.0</ele><time>2026-05-01T08:58:38.816Z</time></trkpt><trkpt lat="42.6727625" lon="13.489476"><ele>849.0</ele><time>2026-05-01T08:58:39.815Z</time></trkpt><trkpt lat="42.6728008" lon="13.4895523"><ele>849.0</ele><time>2026-05-01T08:58:40.816Z</time></trkpt><trkpt lat="42.672822" lon="13.4896397"><ele>849.0</ele><time>2026-05-01T08:58:41.817Z</time></trkpt><trkpt lat="42.6727876" lon="13.4897363"><ele>849.0000000000001</ele><time>2026-05-01T08:58:42.816Z</time></trkpt><trkpt lat="42.6727402" lon="13.489843"><ele>849.0</ele><time>2026-05-01T08:58:43.816Z</time></trkpt><trkpt lat="42.6726988" lon="13.4899791"><ele>849.0</ele><time>2026-05-01T08:58:44.817Z</time></trkpt><trkpt lat="42.6726718" lon="13.4901383"><ele>849.0</ele><time>2026-05-01T08:58:45.816Z</time></trkpt><trkpt lat="42.6726483" lon="13.490294"><ele>849.0</ele><time>2026-05-01T08:58:46.816Z</time></trkpt><trkpt lat="42.6726202" lon="13.4904254"><ele>849.0</ele><time>2026-05-01T08:58:47.817Z</time></trkpt><trkpt lat="42.6725984" lon="13.4905519"><ele>849.0</ele><time>2026-05-01T08:58:48.817Z</time></trkpt><trkpt lat="42.6726081" lon="13.4906704"><ele>848.5</ele><time>2026-05-01T08:58:49.816Z</time></trkpt><trkpt lat="42.6726353" lon="13.4907977"><ele>848.0</ele><time>2026-05-01T08:58:50.816Z</time></trkpt><trkpt lat="42.6726804" lon="13.4908955"><ele>847.5</ele><time>2026-05-01T08:58:51.815Z</time></trkpt><trkpt lat="42.6727953" lon="13.4910554"><ele>847.0</ele><time>2026-05-01T08:58:52.816Z</time></trkpt><trkpt lat="42.6728508" lon="13.491201"><ele>855.0</ele><time>2026-05-01T08:58:53.816Z</time></trkpt><trkpt lat="42.672885" lon="13.4913516"><ele>863.0</ele><time>2026-05-01T08:58:54.815Z</time></trkpt><trkpt lat="42.672891" lon="13.4915114"><ele>871.0</ele><time>2026-05-01T08:58:55.817Z</time></trkpt><trkpt lat="42.6729031" lon="13.4916777"><ele>879.0</ele><time>2026-05-01T08:58:56.816Z</time></trkpt><trkpt lat="42.6729295" lon="13.4918456"><ele>879.0</ele><time>2026-05-01T08:58:57.816Z</time></trkpt><trkpt lat="42.6729733" lon="13.4920068"><ele>879.0</ele><time>2026-05-01T08:58:58.816Z</time></trkpt><trkpt lat="42.6730243" lon="13.4921667"><ele>879.0</ele><time>2026-05-01T08:58:59.817Z</time></trkpt><trkpt lat="42.6730994" lon="13.4922725"><ele>879.0</ele><time>2026-05-01T08:59:00.816Z</time></trkpt><trkpt lat="42.6731614" lon="13.4923759"><ele>878.8000000000001</ele><time>2026-05-01T08:59:01.816Z</time></trkpt><trkpt lat="42.6732295" lon="13.4924334"><ele>878.6000000000001</ele><time>2026-05-01T08:59:02.816Z</time></trkpt><trkpt lat="42.6733033" lon="13.4924863"><ele>878.4</ele><time>2026-05-01T08:59:03.815Z</time></trkpt><trkpt lat="42.6734421" lon="13.4924576"><ele>878.2</ele><time>2026-05-01T08:59:04.816Z</time></trkpt><trkpt lat="42.6735663" lon="13.4924692"><ele>878.0</ele><time>2026-05-01T08:59:05.815Z</time></trkpt><trkpt lat="42.6736983" lon="13.4924749"><ele>878.0</ele><time>2026-05-01T08:59:06.817Z</time></trkpt><trkpt lat="42.6738427" lon="13.4924842"><ele>878.0</ele><time>2026-05-01T08:59:07.816Z</time></trkpt><trkpt lat="42.6739846" lon="13.4925017"><ele>878.0</ele><time>2026-05-01T08:59:08.817Z</time></trkpt><trkpt lat="42.6741231" lon="13.4925334"><ele>878.0</ele><time>2026-05-01T08:59:09.817Z</time></trkpt><trkpt lat="42.6742658" lon="13.4925701"><ele>878.0</ele><time>2026-05-01T08:59:10.816Z</time></trkpt><trkpt lat="42.6744113" lon="13.4926075"><ele>878.0</ele><time>2026-05-01T08:59:11.815Z</time></trkpt><trkpt lat="42.6745596" lon="13.4926498"><ele>878.0</ele><time>2026-05-01T08:59:12.815Z</time></trkpt><trkpt lat="42.6747047" lon="13.492698"><ele>878.0</ele><time>2026-05-01T08:59:13.816Z</time></trkpt><trkpt lat="42.6748508" lon="13.492713"><ele>881.75</ele><time>2026-05-01T08:59:14.816Z</time></trkpt><trkpt lat="42.6749808" lon="13.4927456"><ele>885.5</ele><time>2026-05-01T08:59:15.816Z</time></trkpt><trkpt lat="42.6751099" lon="13.4927561"><ele>889.25</ele><time>2026-05-01T08:59:16.815Z</time></trkpt><trkpt lat="42.6752417" lon="13.4927527"><ele>893.0</ele><time>2026-05-01T08:59:17.816Z</time></trkpt><trkpt lat="42.6753852" lon="13.4927193"><ele>894.25</ele><time>2026-05-01T08:59:18.816Z</time></trkpt><trkpt lat="42.6755283" lon="13.4926748"><ele>895.5</ele><time>2026-05-01T08:59:19.815Z</time></trkpt><trkpt lat="42.6756701" lon="13.4926339"><ele>896.75</ele><time>2026-05-01T08:59:20.815Z</time></trkpt><trkpt lat="42.6758087" lon="13.492624"><ele>898.0</ele><time>2026-05-01T08:59:21.815Z</time></trkpt><trkpt lat="42.6759463" lon="13.4926388"><ele>898.0</ele><time>2026-05-01T08:59:22.816Z</time></trkpt><trkpt lat="42.6760716" lon="13.4926699"><ele>898.0</ele><time>2026-05-01T08:59:23.816Z</time></trkpt><trkpt lat="42.6761768" lon="13.4927321"><ele>898.0</ele><time>2026-05-01T08:59:24.816Z</time></trkpt><trkpt lat="42.6762668" lon="13.492796"><ele>898.0</ele><time>2026-05-01T08:59:25.816Z</time></trkpt><trkpt lat="42.6763437" lon="13.4928692"><ele>898.0</ele><time>2026-05-01T08:59:26.815Z</time></trkpt><trkpt lat="42.6763918" lon="13.4929525"><ele>900.4</ele><time>2026-05-01T08:59:27.815Z</time></trkpt><trkpt lat="42.6764092" lon="13.4930454"><ele>902.8</ele><time>2026-05-01T08:59:28.816Z</time></trkpt><trkpt lat="42.6763907" lon="13.4931434"><ele>905.2</ele><time>2026-05-01T08:59:29.815Z</time></trkpt><trkpt lat="42.6763437" lon="13.4932658"><ele>907.6</ele><time>2026-05-01T08:59:30.816Z</time></trkpt><trkpt lat="42.6762833" lon="13.4933976"><ele>910.0</ele><time>2026-05-01T08:59:31.817Z</time></trkpt><trkpt lat="42.676207" lon="13.4935226"><ele>909.3333333333333</ele><time>2026-05-01T08:59:32.815Z</time></trkpt><trkpt lat="42.6761029" lon="13.4936506"><ele>908.6666666666667</ele><time>2026-05-01T08:59:33.817Z</time></trkpt><trkpt lat="42.6759838" lon="13.4937921"><ele>908.0</ele><time>2026-05-01T08:59:34.817Z</time></trkpt><trkpt lat="42.6758634" lon="13.4939469"><ele>908.0</ele><time>2026-05-01T08:59:35.817Z</time></trkpt><trkpt lat="42.6757274" lon="13.494074"><ele>908.0</ele><time>2026-05-01T08:59:36.816Z</time></trkpt><trkpt lat="42.6755758" lon="13.4941942"><ele>908.0</ele><time>2026-05-01T08:59:37.815Z</time></trkpt><trkpt lat="42.6754333" lon="13.4943136"><ele>908.0</ele><time>2026-05-01T08:59:38.815Z</time></trkpt><trkpt lat="42.6752978" lon="13.494419"><ele>908.0</ele><time>2026-05-01T08:59:39.815Z</time></trkpt><trkpt lat="42.6751699" lon="13.4945049"><ele>908.0</ele><time>2026-05-01T08:59:40.816Z</time></trkpt><trkpt lat="42.6750485" lon="13.494588"><ele>908.0</ele><time>2026-05-01T08:59:41.816Z</time></trkpt><trkpt lat="42.6749327" lon="13.4946748"><ele>910.5</ele><time>2026-05-01T08:59:42.816Z</time></trkpt><trkpt lat="42.6748265" lon="13.4947707"><ele>913.0</ele><time>2026-05-01T08:59:43.816Z</time></trkpt><trkpt lat="42.6747348" lon="13.4948962"><ele>915.5</ele><time>2026-05-01T08:59:44.816Z</time></trkpt><trkpt lat="42.6746587" lon="13.4950382"><ele>918.0</ele><time>2026-05-01T08:59:45.816Z</time></trkpt><trkpt lat="42.6746143" lon="13.4952457"><ele>918.0</ele><time>2026-05-01T08:59:46.816Z</time></trkpt><trkpt lat="42.6745627" lon="13.4954195"><ele>918.0</ele><time>2026-05-01T08:59:47.815Z</time></trkpt><trkpt lat="42.6745268" lon="13.4955926"><ele>918.0</ele><time>2026-05-01T08:59:48.815Z</time></trkpt><trkpt lat="42.6745138" lon="13.4957519"><ele>918.0</ele><time>2026-05-01T08:59:49.815Z</time></trkpt><trkpt lat="42.6745301" lon="13.4958989"><ele>920.0</ele><time>2026-05-01T08:59:50.815Z</time></trkpt><trkpt lat="42.6745786" lon="13.4960434"><ele>922.0</ele><time>2026-05-01T08:59:51.816Z</time></trkpt><trkpt lat="42.6746333" lon="13.4961803"><ele>924.0</ele><time>2026-05-01T08:59:52.816Z</time></trkpt><trkpt lat="42.6747166" lon="13.4963248"><ele>926.0</ele><time>2026-05-01T08:59:53.815Z</time></trkpt><trkpt lat="42.6748541" lon="13.4964437"><ele>926.0</ele><time>2026-05-01T08:59:54.816Z</time></trkpt><trkpt lat="42.6749407" lon="13.4966056"><ele>926.0</ele><time>2026-05-01T08:59:55.815Z</time></trkpt><trkpt lat="42.6750143" lon="13.496779"><ele>926.0</ele><time>2026-05-01T08:59:56.815Z</time></trkpt><trkpt lat="42.6750873" lon="13.496937"><ele>926.0</ele><time>2026-05-01T08:59:57.815Z</time></trkpt><trkpt lat="42.675144" lon="13.4970772"><ele>924.5999999999999</ele><time>2026-05-01T08:59:58.815Z</time></trkpt><trkpt lat="42.6751985" lon="13.4972006"><ele>923.1999999999999</ele><time>2026-05-01T08:59:59.816Z</time></trkpt><trkpt lat="42.6752573" lon="13.4972964"><ele>921.8000000000001</ele><time>2026-05-01T09:00:00.817Z</time></trkpt><trkpt lat="42.6753268" lon="13.4973447"><ele>920.4000000000001</ele><time>2026-05-01T09:00:01.816Z</time></trkpt><trkpt lat="42.6754151" lon="13.4973421"><ele>919.0</ele><time>2026-05-01T09:00:02.816Z</time></trkpt><trkpt lat="42.6755179" lon="13.4973303"><ele>919.0</ele><time>2026-05-01T09:00:03.816Z</time></trkpt><trkpt lat="42.6756344" lon="13.4972435"><ele>919.0</ele><time>2026-05-01T09:00:04.815Z</time></trkpt><trkpt lat="42.6757533" lon="13.4971819"><ele>919.0</ele><time>2026-05-01T09:00:05.816Z</time></trkpt><trkpt lat="42.6758774" lon="13.4971398"><ele>919.0</ele><time>2026-05-01T09:00:06.815Z</time></trkpt><trkpt lat="42.6760077" lon="13.4970811"><ele>923.0</ele><time>2026-05-01T09:00:07.815Z</time></trkpt><trkpt lat="42.6761196" lon="13.4970044"><ele>927.0</ele><time>2026-05-01T09:00:08.816Z</time></trkpt><trkpt lat="42.676218" lon="13.4968988"><ele>931.0</ele><time>2026-05-01T09:00:09.816Z</time></trkpt><trkpt lat="42.6763076" lon="13.4967647"><ele>935.0</ele><time>2026-05-01T09:00:10.816Z</time></trkpt><trkpt lat="42.6763805" lon="13.4966071"><ele>935.0</ele><time>2026-05-01T09:00:11.816Z</time></trkpt><trkpt lat="42.6764436" lon="13.4964423"><ele>935.0</ele><time>2026-05-01T09:00:12.816Z</time></trkpt><trkpt lat="42.6765018" lon="13.4962784"><ele>935.0</ele><time>2026-05-01T09:00:13.816Z</time></trkpt><trkpt lat="42.6765514" lon="13.4961252"><ele>935.0</ele><time>2026-05-01T09:00:14.815Z</time></trkpt><trkpt lat="42.6765939" lon="13.4959791"><ele>935.8333333333334</ele><time>2026-05-01T09:00:15.815Z</time></trkpt><trkpt lat="42.6766041" lon="13.4958509"><ele>936.6666666666667</ele><time>2026-05-01T09:00:16.816Z</time></trkpt><trkpt lat="42.6766094" lon="13.4957291"><ele>937.5</ele><time>2026-05-01T09:00:17.816Z</time></trkpt><trkpt lat="42.6766009" lon="13.495614"><ele>938.3333333333333</ele><time>2026-05-01T09:00:18.817Z</time></trkpt><trkpt lat="42.6765907" lon="13.495505"><ele>939.1666666666666</ele><time>2026-05-01T09:00:19.817Z</time></trkpt><trkpt lat="42.6765933" lon="13.4954085"><ele>940.0</ele><time>2026-05-01T09:00:20.816Z</time></trkpt><trkpt lat="42.6766177" lon="13.4953203"><ele>939.9999999999999</ele><time>2026-05-01T09:00:21.816Z</time></trkpt><trkpt lat="42.6766635" lon="13.4952357"><ele>940.0</ele><time>2026-05-01T09:00:22.815Z</time></trkpt><trkpt lat="42.6767306" lon="13.4951684"><ele>940.0</ele><time>2026-05-01T09:00:23.817Z</time></trkpt><trkpt lat="42.6768087" lon="13.4951084"><ele>940.0</ele><time>2026-05-01T09:00:24.817Z</time></trkpt><trkpt lat="42.676892" lon="13.4950585"><ele>939.9999999999999</ele><time>2026-05-01T09:00:25.817Z</time></trkpt><trkpt lat="42.6769787" lon="13.4950366"><ele>940.0</ele><time>2026-05-01T09:00:26.816Z</time></trkpt><trkpt lat="42.6770634" lon="13.4950481"><ele>942.2</ele><time>2026-05-01T09:00:27.816Z</time></trkpt><trkpt lat="42.6771495" lon="13.4950962"><ele>944.4</ele><time>2026-05-01T09:00:28.817Z</time></trkpt><trkpt lat="42.6772536" lon="13.4951425"><ele>946.5999999999999</ele><time>2026-05-01T09:00:29.817Z</time></trkpt><trkpt lat="42.6773629" lon="13.4951633"><ele>948.8</ele><time>2026-05-01T09:00:30.817Z</time></trkpt><trkpt lat="42.677471" lon="13.4951598"><ele>951.0</ele><time>2026-05-01T09:00:31.817Z</time></trkpt><trkpt lat="42.6775728" lon="13.4951572"><ele>951.0</ele><time>2026-05-01T09:00:32.817Z</time></trkpt><trkpt lat="42.6776816" lon="13.4950654"><ele>951.0</ele><time>2026-05-01T09:00:33.816Z</time></trkpt><trkpt lat="42.6777978" lon="13.4949892"><ele>951.0</ele><time>2026-05-01T09:00:34.816Z</time></trkpt><trkpt lat="42.6779357" lon="13.4948868"><ele>951.0</ele><time>2026-05-01T09:00:35.817Z</time></trkpt><trkpt lat="42.6780744" lon="13.4947922"><ele>951.0</ele><time>2026-05-01T09:00:36.816Z</time></trkpt><trkpt lat="42.6782059" lon="13.494698"><ele>951.0</ele><time>2026-05-01T09:00:37.815Z</time></trkpt><trkpt lat="42.6783318" lon="13.4946188"><ele>951.0</ele><time>2026-05-01T09:00:38.815Z</time></trkpt><trkpt lat="42.6784619" lon="13.4945607"><ele>951.0</ele><time>2026-05-01T09:00:39.816Z</time></trkpt><trkpt lat="42.6785689" lon="13.4945444"><ele>955.5999999999999</ele><time>2026-05-01T09:00:40.816Z</time></trkpt><trkpt lat="42.6786503" lon="13.4945682"><ele>960.1999999999999</ele><time>2026-05-01T09:00:41.816Z</time></trkpt><trkpt lat="42.6787325" lon="13.4946061"><ele>964.8000000000001</ele><time>2026-05-01T09:00:42.815Z</time></trkpt><trkpt lat="42.6787659" lon="13.4947517"><ele>969.4000000000001</ele><time>2026-05-01T09:00:43.816Z</time></trkpt><trkpt lat="42.6788103" lon="13.4949045"><ele>974.0</ele><time>2026-05-01T09:00:44.817Z</time></trkpt><trkpt lat="42.6788602" lon="13.4950668"><ele>974.0</ele><time>2026-05-01T09:00:45.816Z</time></trkpt><trkpt lat="42.6789249" lon="13.495248"><ele>974.0</ele><time>2026-05-01T09:00:46.816Z</time></trkpt><trkpt lat="42.6789833" lon="13.4954148"><ele>974.0</ele><time>2026-05-01T09:00:47.816Z</time></trkpt><trkpt lat="42.679047" lon="13.4955729"><ele>974.0</ele><time>2026-05-01T09:00:48.816Z</time></trkpt><trkpt lat="42.6791058" lon="13.4957003"><ele>971.8000000000001</ele><time>2026-05-01T09:00:49.817Z</time></trkpt><trkpt lat="42.679172" lon="13.4957964"><ele>969.6000000000001</ele><time>2026-05-01T09:00:50.817Z</time></trkpt><trkpt lat="42.6792623" lon="13.4958521"><ele>967.4</ele><time>2026-05-01T09:00:51.814Z</time></trkpt><trkpt lat="42.679378" lon="13.4958767"><ele>965.2</ele><time>2026-05-01T09:00:52.816Z</time></trkpt><trkpt lat="42.679509" lon="13.4958829"><ele>963.0</ele><time>2026-05-01T09:00:53.815Z</time></trkpt><trkpt lat="42.6796452" lon="13.495867"><ele>963.0</ele><time>2026-05-01T09:00:54.814Z</time></trkpt><trkpt lat="42.6797912" lon="13.4958302"><ele>963.0</ele><time>2026-05-01T09:00:55.814Z</time></trkpt><trkpt lat="42.6799251" lon="13.49578"><ele>963.0</ele><time>2026-05-01T09:00:56.814Z</time></trkpt><trkpt lat="42.6800506" lon="13.4957422"><ele>963.0</ele><time>2026-05-01T09:00:57.814Z</time></trkpt><trkpt lat="42.6801727" lon="13.4957349"><ele>964.5</ele><time>2026-05-01T09:00:58.815Z</time></trkpt><trkpt lat="42.6802979" lon="13.4957607"><ele>966.0</ele><time>2026-05-01T09:00:59.816Z</time></trkpt><trkpt lat="42.6804268" lon="13.495808"><ele>967.5</ele><time>2026-05-01T09:01:00.815Z</time></trkpt><trkpt lat="42.6805472" lon="13.4958557"><ele>969.0</ele><time>2026-05-01T09:01:01.814Z</time></trkpt><trkpt lat="42.68064" lon="13.4958979"><ele>969.0</ele><time>2026-05-01T09:01:02.816Z</time></trkpt><trkpt lat="42.6807253" lon="13.4958981"><ele>969.0</ele><time>2026-05-01T09:01:03.816Z</time></trkpt><trkpt lat="42.6808255" lon="13.4958591"><ele>969.0</ele><time>2026-05-01T09:01:04.814Z</time></trkpt><trkpt lat="42.6809227" lon="13.4958154"><ele>969.0</ele><time>2026-05-01T09:01:05.815Z</time></trkpt><trkpt lat="42.6810303" lon="13.4956307"><ele>965.3333333333333</ele><time>2026-05-01T09:01:06.815Z</time></trkpt><trkpt lat="42.6811462" lon="13.4955072"><ele>961.6666666666666</ele><time>2026-05-01T09:01:07.816Z</time></trkpt><trkpt lat="42.6812703" lon="13.4953583"><ele>958.0</ele><time>2026-05-01T09:01:08.815Z</time></trkpt><trkpt lat="42.6813934" lon="13.4952044"><ele>965.6666666666666</ele><time>2026-05-01T09:01:09.816Z</time></trkpt><trkpt lat="42.6815107" lon="13.4950439"><ele>973.3333333333333</ele><time>2026-05-01T09:01:10.814Z</time></trkpt><trkpt lat="42.6816253" lon="13.4948949"><ele>981.0</ele><time>2026-05-01T09:01:11.815Z</time></trkpt><trkpt lat="42.6817331" lon="13.4947662"><ele>981.0</ele><time>2026-05-01T09:01:12.815Z</time></trkpt><trkpt lat="42.6818598" lon="13.4946703"><ele>981.0</ele><time>2026-05-01T09:01:13.815Z</time></trkpt><trkpt lat="42.6819993" lon="13.494603"><ele>981.0</ele><time>2026-05-01T09:01:14.815Z</time></trkpt><trkpt lat="42.6821243" lon="13.4945272"><ele>981.0</ele><time>2026-05-01T09:01:15.815Z</time></trkpt><trkpt lat="42.6822305" lon="13.4944683"><ele>979.8</ele><time>2026-05-01T09:01:16.815Z</time></trkpt><trkpt lat="42.6823091" lon="13.4943794"><ele>978.5999999999999</ele><time>2026-05-01T09:01:17.815Z</time></trkpt><trkpt lat="42.6823771" lon="13.4942862"><ele>977.4</ele><time>2026-05-01T09:01:18.815Z</time></trkpt><trkpt lat="42.6823858" lon="13.4941539"><ele>976.2</ele><time>2026-05-01T09:01:19.816Z</time></trkpt><trkpt lat="42.6824107" lon="13.4940195"><ele>975.0</ele><time>2026-05-01T09:01:20.814Z</time></trkpt><trkpt lat="42.6824289" lon="13.493885"><ele>978.0</ele><time>2026-05-01T09:01:21.814Z</time></trkpt><trkpt lat="42.6824333" lon="13.4937416"><ele>981.0</ele><time>2026-05-01T09:01:22.816Z</time></trkpt><trkpt lat="42.6823469" lon="13.4934826"><ele>984.0</ele><time>2026-05-01T09:01:23.814Z</time></trkpt><trkpt lat="42.6823244" lon="13.4933008"><ele>984.0</ele><time>2026-05-01T09:01:24.815Z</time></trkpt><trkpt lat="42.6823022" lon="13.4931299"><ele>984.0000000000001</ele><time>2026-05-01T09:01:25.816Z</time></trkpt><trkpt lat="42.6822952" lon="13.4929782"><ele>984.0000000000001</ele><time>2026-05-01T09:01:26.815Z</time></trkpt><trkpt lat="42.6822764" lon="13.4928167"><ele>984.0</ele><time>2026-05-01T09:01:27.815Z</time></trkpt><trkpt lat="42.6822618" lon="13.4927121"><ele>984.0</ele><time>2026-05-01T09:01:28.815Z</time></trkpt><trkpt lat="42.682265" lon="13.4926141"><ele>987.6</ele><time>2026-05-01T09:01:29.815Z</time></trkpt><trkpt lat="42.6823084" lon="13.4924717"><ele>991.2</ele><time>2026-05-01T09:01:31.815Z</time></trkpt><trkpt lat="42.6823667" lon="13.4924247"><ele>994.8000000000001</ele><time>2026-05-01T09:01:32.816Z</time></trkpt><trkpt lat="42.6824531" lon="13.4924181"><ele>998.4000000000001</ele><time>2026-05-01T09:01:33.816Z</time></trkpt><trkpt lat="42.6825411" lon="13.4924405"><ele>1002.0</ele><time>2026-05-01T09:01:34.814Z</time></trkpt><trkpt lat="42.6826433" lon="13.4925182"><ele>1004.5</ele><time>2026-05-01T09:01:35.816Z</time></trkpt><trkpt lat="42.6827644" lon="13.4926251"><ele>1007.0</ele><time>2026-05-01T09:01:36.814Z</time></trkpt><trkpt lat="42.6828837" lon="13.4927182"><ele>1009.5</ele><time>2026-05-01T09:01:37.815Z</time></trkpt><trkpt lat="42.6830096" lon="13.4928027"><ele>1012.0</ele><time>2026-05-01T09:01:38.815Z</time></trkpt><trkpt lat="42.6831442" lon="13.4928569"><ele>1012.0</ele><time>2026-05-01T09:01:39.815Z</time></trkpt><trkpt lat="42.6832729" lon="13.4928903"><ele>1012.0</ele><time>2026-05-01T09:01:40.816Z</time></trkpt><trkpt lat="42.6833883" lon="13.4929551"><ele>1012.0</ele><time>2026-05-01T09:01:41.816Z</time></trkpt><trkpt lat="42.683502" lon="13.4930621"><ele>1012.0</ele><time>2026-05-01T09:01:42.815Z</time></trkpt><trkpt lat="42.6836083" lon="13.493196"><ele>1013.6666666666666</ele><time>2026-05-01T09:01:43.816Z</time></trkpt><trkpt lat="42.6837164" lon="13.4933402"><ele>1015.3333333333333</ele><time>2026-05-01T09:01:44.815Z</time></trkpt><trkpt lat="42.6838264" lon="13.4934849"><ele>1017.0</ele><time>2026-05-01T09:01:45.816Z</time></trkpt><trkpt lat="42.683959" lon="13.4935908"><ele>1017.0</ele><time>2026-05-01T09:01:46.814Z</time></trkpt><trkpt lat="42.684064" lon="13.4937219"><ele>1017.0</ele><time>2026-05-01T09:01:47.815Z</time></trkpt><trkpt lat="42.6841545" lon="13.4938475"><ele>1017.0</ele><time>2026-05-01T09:01:48.815Z</time></trkpt><trkpt lat="42.6842256" lon="13.4939554"><ele>1017.0</ele><time>2026-05-01T09:01:49.815Z</time></trkpt><trkpt lat="42.6842411" lon="13.4940919"><ele>1013.25</ele><time>2026-05-01T09:01:50.814Z</time></trkpt><trkpt lat="42.6842038" lon="13.4942548"><ele>1009.5</ele><time>2026-05-01T09:01:51.814Z</time></trkpt><trkpt lat="42.6841704" lon="13.4944332"><ele>1005.75</ele><time>2026-05-01T09:01:52.816Z</time></trkpt><trkpt lat="42.6841529" lon="13.4946171"><ele>1002.0</ele><time>2026-05-01T09:01:53.815Z</time></trkpt><trkpt lat="42.6841538" lon="13.4948009"><ele>998.5</ele><time>2026-05-01T09:01:54.816Z</time></trkpt><trkpt lat="42.6841774" lon="13.4949834"><ele>995.0</ele><time>2026-05-01T09:01:55.815Z</time></trkpt><trkpt lat="42.6842182" lon="13.4951489"><ele>991.5</ele><time>2026-05-01T09:01:56.816Z</time></trkpt><trkpt lat="42.6842674" lon="13.4952788"><ele>988.0</ele><time>2026-05-01T09:01:57.814Z</time></trkpt><trkpt lat="42.6843238" lon="13.4953715"><ele>987.25</ele><time>2026-05-01T09:01:58.814Z</time></trkpt><trkpt lat="42.6843965" lon="13.495429"><ele>986.5</ele><time>2026-05-01T09:01:59.815Z</time></trkpt><trkpt lat="42.6845072" lon="13.4954623"><ele>985.75</ele><time>2026-05-01T09:02:00.815Z</time></trkpt><trkpt lat="42.6846325" lon="13.4954766"><ele>985.0</ele><time>2026-05-01T09:02:01.815Z</time></trkpt><trkpt lat="42.6847705" lon="13.495506"><ele>985.0</ele><time>2026-05-01T09:02:02.814Z</time></trkpt><trkpt lat="42.6849169" lon="13.4955571"><ele>985.0</ele><time>2026-05-01T09:02:03.815Z</time></trkpt><trkpt lat="42.6850498" lon="13.4955758"><ele>985.0</ele><time>2026-05-01T09:02:04.815Z</time></trkpt><trkpt lat="42.6851763" lon="13.4955647"><ele>985.0</ele><time>2026-05-01T09:02:05.816Z</time></trkpt><trkpt lat="42.6852983" lon="13.4955323"><ele>989.6</ele><time>2026-05-01T09:02:06.815Z</time></trkpt><trkpt lat="42.6854139" lon="13.4955117"><ele>994.2</ele><time>2026-05-01T09:02:07.815Z</time></trkpt><trkpt lat="42.6855164" lon="13.4955174"><ele>998.8</ele><time>2026-05-01T09:02:08.814Z</time></trkpt><trkpt lat="42.6856125" lon="13.4955492"><ele>1003.4</ele><time>2026-05-01T09:02:09.814Z</time></trkpt><trkpt lat="42.6857033" lon="13.4956017"><ele>1008.0</ele><time>2026-05-01T09:02:10.815Z</time></trkpt><trkpt lat="42.6857795" lon="13.4956723"><ele>1008.0</ele><time>2026-05-01T09:02:11.815Z</time></trkpt><trkpt lat="42.6858477" lon="13.4957758"><ele>1008.0</ele><time>2026-05-01T09:02:12.815Z</time></trkpt><trkpt lat="42.6859139" lon="13.495909"><ele>1008.0</ele><time>2026-05-01T09:02:13.815Z</time></trkpt><trkpt lat="42.6859879" lon="13.4960509"><ele>1008.0</ele><time>2026-05-01T09:02:14.815Z</time></trkpt><trkpt lat="42.6860551" lon="13.4961813"><ele>1007.2</ele><time>2026-05-01T09:02:15.816Z</time></trkpt><trkpt lat="42.6861119" lon="13.4963091"><ele>1006.4</ele><time>2026-05-01T09:02:16.815Z</time></trkpt><trkpt lat="42.6861444" lon="13.4964298"><ele>1005.6000000000001</ele><time>2026-05-01T09:02:17.815Z</time></trkpt><trkpt lat="42.6861424" lon="13.4965624"><ele>1004.8000000000001</ele><time>2026-05-01T09:02:18.816Z</time></trkpt><trkpt lat="42.6861147" lon="13.4966881"><ele>1004.0</ele><time>2026-05-01T09:02:19.816Z</time></trkpt><trkpt lat="42.6860563" lon="13.496806"><ele>1004.0</ele><time>2026-05-01T09:02:20.816Z</time></trkpt><trkpt lat="42.6859776" lon="13.4969173"><ele>1004.0</ele><time>2026-05-01T09:02:21.814Z</time></trkpt><trkpt lat="42.6858847" lon="13.4970362"><ele>1004.0</ele><time>2026-05-01T09:02:22.816Z</time></trkpt><trkpt lat="42.685796" lon="13.4971922"><ele>1004.0</ele><time>2026-05-01T09:02:23.815Z</time></trkpt><trkpt lat="42.6857105" lon="13.4973471"><ele>1008.0</ele><time>2026-05-01T09:02:24.815Z</time></trkpt><trkpt lat="42.6856349" lon="13.4974887"><ele>1012.0</ele><time>2026-05-01T09:02:25.814Z</time></trkpt><trkpt lat="42.685559" lon="13.4976356"><ele>1016.0</ele><time>2026-05-01T09:02:26.814Z</time></trkpt><trkpt lat="42.6854831" lon="13.4977857"><ele>1020.0</ele><time>2026-05-01T09:02:27.814Z</time></trkpt><trkpt lat="42.6854074" lon="13.497939"><ele>1016.5</ele><time>2026-05-01T09:02:28.815Z</time></trkpt><trkpt lat="42.6853423" lon="13.4980934"><ele>1013.0</ele><time>2026-05-01T09:02:29.814Z</time></trkpt><trkpt lat="42.6852867" lon="13.4982494"><ele>1009.5</ele><time>2026-05-01T09:02:30.815Z</time></trkpt><trkpt lat="42.6852401" lon="13.4984116"><ele>1006.0</ele><time>2026-05-01T09:02:31.814Z</time></trkpt><trkpt lat="42.6851822" lon="13.498557"><ele>1006.0</ele><time>2026-05-01T09:02:32.815Z</time></trkpt><trkpt lat="42.6851084" lon="13.4986819"><ele>1006.0</ele><time>2026-05-01T09:02:33.816Z</time></trkpt><trkpt lat="42.6850232" lon="13.4988006"><ele>1006.0</ele><time>2026-05-01T09:02:34.816Z</time></trkpt><trkpt lat="42.6849286" lon="13.4989154"><ele>1006.0</ele><time>2026-05-01T09:02:35.816Z</time></trkpt><trkpt lat="42.6848461" lon="13.4990435"><ele>1012.0</ele><time>2026-05-01T09:02:36.816Z</time></trkpt><trkpt lat="42.6847731" lon="13.499189"><ele>1018.0</ele><time>2026-05-01T09:02:37.814Z</time></trkpt><trkpt lat="42.6847059" lon="13.4993317"><ele>1024.0</ele><time>2026-05-01T09:02:38.815Z</time></trkpt><trkpt lat="42.6846423" lon="13.4994569"><ele>1030.0</ele><time>2026-05-01T09:02:39.815Z</time></trkpt><trkpt lat="42.6846022" lon="13.4995631"><ele>1030.8</ele><time>2026-05-01T09:02:40.815Z</time></trkpt><trkpt lat="42.6845814" lon="13.4996787"><ele>1031.6</ele><time>2026-05-01T09:02:41.814Z</time></trkpt><trkpt lat="42.6845845" lon="13.4998003"><ele>1032.4</ele><time>2026-05-01T09:02:42.814Z</time></trkpt><trkpt lat="42.6846066" lon="13.4999415"><ele>1033.2</ele><time>2026-05-01T09:02:43.815Z</time></trkpt><trkpt lat="42.6846389" lon="13.5000926"><ele>1034.0</ele><time>2026-05-01T09:02:44.815Z</time></trkpt><trkpt lat="42.6846668" lon="13.5002506"><ele>1034.0</ele><time>2026-05-01T09:02:45.815Z</time></trkpt><trkpt lat="42.6846806" lon="13.5004137"><ele>1034.0</ele><time>2026-05-01T09:02:46.814Z</time></trkpt><trkpt lat="42.6846785" lon="13.5005632"><ele>1034.0</ele><time>2026-05-01T09:02:47.814Z</time></trkpt><trkpt lat="42.6846589" lon="13.5006989"><ele>1034.0</ele><time>2026-05-01T09:02:48.815Z</time></trkpt><trkpt lat="42.6846152" lon="13.5008342"><ele>1034.0</ele><time>2026-05-01T09:02:49.815Z</time></trkpt><trkpt lat="42.6845495" lon="13.5009673"><ele>1033.75</ele><time>2026-05-01T09:02:50.814Z</time></trkpt><trkpt lat="42.6844623" lon="13.5011064"><ele>1033.5</ele><time>2026-05-01T09:02:51.815Z</time></trkpt><trkpt lat="42.6843731" lon="13.5012247"><ele>1033.25</ele><time>2026-05-01T09:02:52.815Z</time></trkpt><trkpt lat="42.6842945" lon="13.5013333"><ele>1033.0</ele><time>2026-05-01T09:02:53.815Z</time></trkpt><trkpt lat="42.6842295" lon="13.5014316"><ele>1033.0</ele><time>2026-05-01T09:02:54.814Z</time></trkpt><trkpt lat="42.6841861" lon="13.5015207"><ele>1033.0</ele><time>2026-05-01T09:02:55.815Z</time></trkpt><trkpt lat="42.6841649" lon="13.5016146"><ele>1033.0</ele><time>2026-05-01T09:02:56.815Z</time></trkpt><trkpt lat="42.6841571" lon="13.5017075"><ele>1033.0</ele><time>2026-05-01T09:02:57.814Z</time></trkpt><trkpt lat="42.6841686" lon="13.5017975"><ele>1033.0</ele><time>2026-05-01T09:02:58.816Z</time></trkpt><trkpt lat="42.6842434" lon="13.5019477"><ele>1033.0</ele><time>2026-05-01T09:03:00.815Z</time></trkpt><trkpt lat="42.6843064" lon="13.5019967"><ele>1033.0</ele><time>2026-05-01T09:03:01.815Z</time></trkpt><trkpt lat="42.6843829" lon="13.502015"><ele>1033.0</ele><time>2026-05-01T09:03:02.814Z</time></trkpt><trkpt lat="42.68447" lon="13.5020019"><ele>1033.0</ele><time>2026-05-01T09:03:03.815Z</time></trkpt><trkpt lat="42.6845804" lon="13.5019577"><ele>1033.0</ele><time>2026-05-01T09:03:04.816Z</time></trkpt><trkpt lat="42.6846952" lon="13.5018835"><ele>1033.0</ele><time>2026-05-01T09:03:05.816Z</time></trkpt><trkpt lat="42.6848166" lon="13.5017989"><ele>1032.5</ele><time>2026-05-01T09:03:06.816Z</time></trkpt><trkpt lat="42.6849402" lon="13.5017092"><ele>1032.0</ele><time>2026-05-01T09:03:07.815Z</time></trkpt><trkpt lat="42.6850699" lon="13.5016224"><ele>1031.5</ele><time>2026-05-01T09:03:08.814Z</time></trkpt><trkpt lat="42.6852038" lon="13.5015364"><ele>1031.0</ele><time>2026-05-01T09:03:09.814Z</time></trkpt><trkpt lat="42.6853376" lon="13.5014515"><ele>1028.75</ele><time>2026-05-01T09:03:10.815Z</time></trkpt><trkpt lat="42.6854696" lon="13.5013651"><ele>1026.5</ele><time>2026-05-01T09:03:11.815Z</time></trkpt><trkpt lat="42.6856007" lon="13.5012809"><ele>1024.25</ele><time>2026-05-01T09:03:12.816Z</time></trkpt><trkpt lat="42.68573" lon="13.5011956"><ele>1022.0</ele><time>2026-05-01T09:03:13.815Z</time></trkpt><trkpt lat="42.6858537" lon="13.5011134"><ele>1023.5</ele><time>2026-05-01T09:03:14.815Z</time></trkpt><trkpt lat="42.6859798" lon="13.5010352"><ele>1025.0</ele><time>2026-05-01T09:03:15.815Z</time></trkpt><trkpt lat="42.6861017" lon="13.5009611"><ele>1026.5</ele><time>2026-05-01T09:03:16.815Z</time></trkpt><trkpt lat="42.6862224" lon="13.5008795"><ele>1028.0</ele><time>2026-05-01T09:03:17.816Z</time></trkpt><trkpt lat="42.6863412" lon="13.5008032"><ele>1028.0</ele><time>2026-05-01T09:03:18.815Z</time></trkpt><trkpt lat="42.6864599" lon="13.5007196"><ele>1028.0</ele><time>2026-05-01T09:03:19.814Z</time></trkpt><trkpt lat="42.686581" lon="13.5006447"><ele>1028.0</ele><time>2026-05-01T09:03:20.815Z</time></trkpt><trkpt lat="42.6867093" lon="13.5005853"><ele>1028.0</ele><time>2026-05-01T09:03:21.814Z</time></trkpt><trkpt lat="42.6868355" lon="13.5005417"><ele>1028.6</ele><time>2026-05-01T09:03:22.814Z</time></trkpt><trkpt lat="42.6869569" lon="13.5005162"><ele>1029.1999999999998</ele><time>2026-05-01T09:03:23.816Z</time></trkpt><trkpt lat="42.6870666" lon="13.5004936"><ele>1029.8</ele><time>2026-05-01T09:03:24.814Z</time></trkpt><trkpt lat="42.6871674" lon="13.5004724"><ele>1030.3999999999999</ele><time>2026-05-01T09:03:25.815Z</time></trkpt><trkpt lat="42.687255" lon="13.5004516"><ele>1031.0</ele><time>2026-05-01T09:03:26.815Z</time></trkpt><trkpt lat="42.6873249" lon="13.5004353"><ele>1031.5</ele><time>2026-05-01T09:03:27.814Z</time></trkpt><trkpt lat="42.6873999" lon="13.500396"><ele>1032.0</ele><time>2026-05-01T09:03:29.814Z</time></trkpt><trkpt lat="42.6873772" lon="13.5002559"><ele>1032.5</ele><time>2026-05-01T09:03:32.814Z</time></trkpt><trkpt lat="42.6873308" lon="13.5001795"><ele>1033.0</ele><time>2026-05-01T09:03:33.815Z</time></trkpt><trkpt lat="42.6872706" lon="13.5000939"><ele>1033.5</ele><time>2026-05-01T09:03:34.814Z</time></trkpt><trkpt lat="42.6871982" lon="13.5000248"><ele>1034.0</ele><time>2026-05-01T09:03:35.815Z</time></trkpt><trkpt lat="42.687113" lon="13.4999655"><ele>1034.0</ele><time>2026-05-01T09:03:36.814Z</time></trkpt><trkpt lat="42.6870042" lon="13.4999465"><ele>1034.0</ele><time>2026-05-01T09:03:37.815Z</time></trkpt><trkpt lat="42.6868854" lon="13.4999737"><ele>1034.0</ele><time>2026-05-01T09:03:38.815Z</time></trkpt><trkpt lat="42.6867639" lon="13.5000343"><ele>1034.0</ele><time>2026-05-01T09:03:39.815Z</time></trkpt><trkpt lat="42.6866314" lon="13.500094"><ele>1034.5</ele><time>2026-05-01T09:03:40.815Z</time></trkpt><trkpt lat="42.6865069" lon="13.5001623"><ele>1035.0</ele><time>2026-05-01T09:03:41.814Z</time></trkpt><trkpt lat="42.6863965" lon="13.5002653"><ele>1035.5</ele><time>2026-05-01T09:03:42.815Z</time></trkpt><trkpt lat="42.6863079" lon="13.5003741"><ele>1036.0</ele><time>2026-05-01T09:03:43.816Z</time></trkpt><trkpt lat="42.68622" lon="13.5004531"><ele>1036.6666666666665</ele><time>2026-05-01T09:03:44.816Z</time></trkpt><trkpt lat="42.6861317" lon="13.5005005"><ele>1037.3333333333333</ele><time>2026-05-01T09:03:45.815Z</time></trkpt><trkpt lat="42.6860486" lon="13.5004979"><ele>1038.0</ele><time>2026-05-01T09:03:46.815Z</time></trkpt><trkpt lat="42.6859842" lon="13.5004479"><ele>1038.6666666666667</ele><time>2026-05-01T09:03:47.815Z</time></trkpt><trkpt lat="42.6859439" lon="13.5003576"><ele>1039.3333333333335</ele><time>2026-05-01T09:03:48.814Z</time></trkpt><trkpt lat="42.6859474" lon="13.5002638"><ele>1040.0</ele><time>2026-05-01T09:03:49.816Z</time></trkpt><trkpt lat="42.6859926" lon="13.5001605"><ele>1039.25</ele><time>2026-05-01T09:03:50.816Z</time></trkpt><trkpt lat="42.6860766" lon="13.5000578"><ele>1038.5</ele><time>2026-05-01T09:03:51.815Z</time></trkpt><trkpt lat="42.6861539" lon="13.4999427"><ele>1037.75</ele><time>2026-05-01T09:03:52.815Z</time></trkpt><trkpt lat="42.6862172" lon="13.4997806"><ele>1037.0</ele><time>2026-05-01T09:03:53.814Z</time></trkpt><trkpt lat="42.6862613" lon="13.499577"><ele>1037.0</ele><time>2026-05-01T09:03:54.815Z</time></trkpt><trkpt lat="42.6862897" lon="13.4993566"><ele>1037.0</ele><time>2026-05-01T09:03:55.815Z</time></trkpt><trkpt lat="42.686305" lon="13.499133"><ele>1037.0</ele><time>2026-05-01T09:03:56.815Z</time></trkpt><trkpt lat="42.6863311" lon="13.498908"><ele>1040.0</ele><time>2026-05-01T09:03:57.815Z</time></trkpt><trkpt lat="42.6863705" lon="13.4986771"><ele>1043.0</ele><time>2026-05-01T09:03:58.815Z</time></trkpt><trkpt lat="42.6864356" lon="13.4984505"><ele>1046.0</ele><time>2026-05-01T09:03:59.815Z</time></trkpt><trkpt lat="42.6865167" lon="13.4982434"><ele>1046.0</ele><time>2026-05-01T09:04:00.815Z</time></trkpt><trkpt lat="42.6866072" lon="13.498063"><ele>1046.0</ele><time>2026-05-01T09:04:01.816Z</time></trkpt><trkpt lat="42.6866847" lon="13.4978835"><ele>1046.0</ele><time>2026-05-01T09:04:02.816Z</time></trkpt><trkpt lat="42.6867465" lon="13.4977131"><ele>1046.0</ele><time>2026-05-01T09:04:03.815Z</time></trkpt><trkpt lat="42.6867935" lon="13.4975478"><ele>1046.0</ele><time>2026-05-01T09:04:04.815Z</time></trkpt><trkpt lat="42.6868416" lon="13.4973978"><ele>1046.0</ele><time>2026-05-01T09:04:05.814Z</time></trkpt><trkpt lat="42.6868926" lon="13.4972716"><ele>1046.0</ele><time>2026-05-01T09:04:06.815Z</time></trkpt><trkpt lat="42.6869592" lon="13.4971728"><ele>1046.5</ele><time>2026-05-01T09:04:07.814Z</time></trkpt><trkpt lat="42.6870401" lon="13.4970918"><ele>1047.0</ele><time>2026-05-01T09:04:08.815Z</time></trkpt><trkpt lat="42.6871098" lon="13.4970112"><ele>1047.5</ele><time>2026-05-01T09:04:09.814Z</time></trkpt><trkpt lat="42.6871534" lon="13.4969237"><ele>1048.0</ele><time>2026-05-01T09:04:10.814Z</time></trkpt><trkpt lat="42.6871753" lon="13.4968221"><ele>1048.5</ele><time>2026-05-01T09:04:11.816Z</time></trkpt><trkpt lat="42.6871678" lon="13.4967158"><ele>1049.0</ele><time>2026-05-01T09:04:12.816Z</time></trkpt><trkpt lat="42.6871401" lon="13.496601"><ele>1049.0</ele><time>2026-05-01T09:04:13.815Z</time></trkpt><trkpt lat="42.6870904" lon="13.4964687"><ele>1049.0</ele><time>2026-05-01T09:04:14.816Z</time></trkpt><trkpt lat="42.687026" lon="13.4963055"><ele>1049.0</ele><time>2026-05-01T09:04:15.815Z</time></trkpt><trkpt lat="42.6869439" lon="13.4961506"><ele>1049.0</ele><time>2026-05-01T09:04:16.815Z</time></trkpt><trkpt lat="42.6868531" lon="13.496006"><ele>1049.0</ele><time>2026-05-01T09:04:17.815Z</time></trkpt><trkpt lat="42.6867735" lon="13.4958729"><ele>1049.0</ele><time>2026-05-01T09:04:18.814Z</time></trkpt><trkpt lat="42.6867237" lon="13.4957394"><ele>1049.0</ele><time>2026-05-01T09:04:19.815Z</time></trkpt><trkpt lat="42.6867133" lon="13.4955991"><ele>1049.0</ele><time>2026-05-01T09:04:20.814Z</time></trkpt><trkpt lat="42.686738" lon="13.495446"><ele>1051.8</ele><time>2026-05-01T09:04:21.816Z</time></trkpt><trkpt lat="42.6867779" lon="13.4952945"><ele>1054.6000000000001</ele><time>2026-05-01T09:04:22.815Z</time></trkpt><trkpt lat="42.6867977" lon="13.4951525"><ele>1057.4</ele><time>2026-05-01T09:04:23.814Z</time></trkpt><trkpt lat="42.6867869" lon="13.4950116"><ele>1060.2</ele><time>2026-05-01T09:04:24.814Z</time></trkpt><trkpt lat="42.6867545" lon="13.4948792"><ele>1063.0</ele><time>2026-05-01T09:04:25.814Z</time></trkpt><trkpt lat="42.6867057" lon="13.4947606"><ele>1063.0</ele><time>2026-05-01T09:04:26.815Z</time></trkpt><trkpt lat="42.6866359" lon="13.4946368"><ele>1063.0</ele><time>2026-05-01T09:04:27.815Z</time></trkpt><trkpt lat="42.6865468" lon="13.4944806"><ele>1063.0</ele><time>2026-05-01T09:04:28.814Z</time></trkpt><trkpt lat="42.6864623" lon="13.4943085"><ele>1063.0</ele><time>2026-05-01T09:04:29.815Z</time></trkpt><trkpt lat="42.6863586" lon="13.4941471"><ele>1062.6666666666665</ele><time>2026-05-01T09:04:30.814Z</time></trkpt><trkpt lat="42.6862269" lon="13.4940009"><ele>1062.3333333333333</ele><time>2026-05-01T09:04:31.815Z</time></trkpt><trkpt lat="42.6861019" lon="13.4939021"><ele>1062.0</ele><time>2026-05-01T09:04:32.814Z</time></trkpt><trkpt lat="42.6859623" lon="13.493837"><ele>1062.0</ele><time>2026-05-01T09:04:33.815Z</time></trkpt><trkpt lat="42.6858266" lon="13.4938125"><ele>1062.0</ele><time>2026-05-01T09:04:34.815Z</time></trkpt><trkpt lat="42.6857027" lon="13.4938088"><ele>1062.0</ele><time>2026-05-01T09:04:35.816Z</time></trkpt><trkpt lat="42.6856001" lon="13.4937747"><ele>1062.0</ele><time>2026-05-01T09:04:36.815Z</time></trkpt><trkpt lat="42.6855226" lon="13.4937113"><ele>1070.2</ele><time>2026-05-01T09:04:37.814Z</time></trkpt><trkpt lat="42.6854661" lon="13.4936074"><ele>1078.4</ele><time>2026-05-01T09:04:38.815Z</time></trkpt><trkpt lat="42.6854411" lon="13.4934784"><ele>1086.6</ele><time>2026-05-01T09:04:39.816Z</time></trkpt><trkpt lat="42.6854315" lon="13.4933231"><ele>1094.8</ele><time>2026-05-01T09:04:40.815Z</time></trkpt><trkpt lat="42.6853796" lon="13.4931686"><ele>1103.0</ele><time>2026-05-01T09:04:41.815Z</time></trkpt><trkpt lat="42.6852962" lon="13.4930101"><ele>1097.25</ele><time>2026-05-01T09:04:42.814Z</time></trkpt><trkpt lat="42.6851895" lon="13.492871"><ele>1091.5</ele><time>2026-05-01T09:04:43.815Z</time></trkpt><trkpt lat="42.6851188" lon="13.4927228"><ele>1085.75</ele><time>2026-05-01T09:04:44.815Z</time></trkpt><trkpt lat="42.685076" lon="13.4925509"><ele>1080.0</ele><time>2026-05-01T09:04:45.815Z</time></trkpt><trkpt lat="42.6850624" lon="13.4923723"><ele>1080.0</ele><time>2026-05-01T09:04:46.815Z</time></trkpt><trkpt lat="42.6850762" lon="13.4921785"><ele>1080.0</ele><time>2026-05-01T09:04:47.815Z</time></trkpt><trkpt lat="42.6850823" lon="13.4919933"><ele>1080.0</ele><time>2026-05-01T09:04:48.814Z</time></trkpt><trkpt lat="42.6850535" lon="13.491819"><ele>1080.0</ele><time>2026-05-01T09:04:49.814Z</time></trkpt><trkpt lat="42.6849815" lon="13.4916525"><ele>1086.0</ele><time>2026-05-01T09:04:50.814Z</time></trkpt><trkpt lat="42.6848709" lon="13.4914905"><ele>1092.0</ele><time>2026-05-01T09:04:51.815Z</time></trkpt><trkpt lat="42.6847428" lon="13.491319"><ele>1098.0</ele><time>2026-05-01T09:04:52.815Z</time></trkpt><trkpt lat="42.6846115" lon="13.4911492"><ele>1096.6666666666667</ele><time>2026-05-01T09:04:53.815Z</time></trkpt><trkpt lat="42.6844548" lon="13.4909988"><ele>1095.3333333333335</ele><time>2026-05-01T09:04:54.815Z</time></trkpt><trkpt lat="42.6842812" lon="13.4908834"><ele>1094.0</ele><time>2026-05-01T09:04:55.816Z</time></trkpt><trkpt lat="42.6841133" lon="13.4907796"><ele>1094.0</ele><time>2026-05-01T09:04:56.816Z</time></trkpt><trkpt lat="42.6839464" lon="13.4906938"><ele>1094.0</ele><time>2026-05-01T09:04:57.815Z</time></trkpt><trkpt lat="42.6837931" lon="13.4906183"><ele>1094.0</ele><time>2026-05-01T09:04:58.814Z</time></trkpt><trkpt lat="42.6836618" lon="13.4905435"><ele>1094.0</ele><time>2026-05-01T09:04:59.815Z</time></trkpt><trkpt lat="42.6835454" lon="13.4904683"><ele>1094.0</ele><time>2026-05-01T09:05:00.815Z</time></trkpt><trkpt lat="42.6834619" lon="13.4903658"><ele>1094.0</ele><time>2026-05-01T09:05:01.815Z</time></trkpt><trkpt lat="42.68341" lon="13.490245"><ele>1094.0</ele><time>2026-05-01T09:05:02.815Z</time></trkpt><trkpt lat="42.6834024" lon="13.4900949"><ele>1094.0</ele><time>2026-05-01T09:05:03.815Z</time></trkpt><trkpt lat="42.6834246" lon="13.4899232"><ele>1094.0</ele><time>2026-05-01T09:05:04.815Z</time></trkpt><trkpt lat="42.6834279" lon="13.4897433"><ele>1094.0</ele><time>2026-05-01T09:05:05.816Z</time></trkpt><trkpt lat="42.6833809" lon="13.4895589"><ele>1094.0</ele><time>2026-05-01T09:05:06.815Z</time></trkpt><trkpt lat="42.6833098" lon="13.4893702"><ele>1098.5</ele><time>2026-05-01T09:05:07.815Z</time></trkpt><trkpt lat="42.6832399" lon="13.4892014"><ele>1103.0</ele><time>2026-05-01T09:05:08.816Z</time></trkpt><trkpt lat="42.6831521" lon="13.4890666"><ele>1107.5</ele><time>2026-05-01T09:05:09.816Z</time></trkpt><trkpt lat="42.6830399" lon="13.4889685"><ele>1112.0</ele><time>2026-05-01T09:05:10.815Z</time></trkpt><trkpt lat="42.6829299" lon="13.4888623"><ele>1112.0</ele><time>2026-05-01T09:05:11.814Z</time></trkpt><trkpt lat="42.6828136" lon="13.4887607"><ele>1112.0</ele><time>2026-05-01T09:05:12.816Z</time></trkpt><trkpt lat="42.6827043" lon="13.4886008"><ele>1112.0</ele><time>2026-05-01T09:05:13.814Z</time></trkpt><trkpt lat="42.6825932" lon="13.4884274"><ele>1111.0</ele><time>2026-05-01T09:05:14.814Z</time></trkpt><trkpt lat="42.6824844" lon="13.4882541"><ele>1110.0</ele><time>2026-05-01T09:05:15.815Z</time></trkpt><trkpt lat="42.6823827" lon="13.488093"><ele>1109.0</ele><time>2026-05-01T09:05:16.815Z</time></trkpt><trkpt lat="42.6822908" lon="13.4879322"><ele>1113.0</ele><time>2026-05-01T09:05:17.815Z</time></trkpt><trkpt lat="42.6822201" lon="13.4877651"><ele>1117.0</ele><time>2026-05-01T09:05:18.814Z</time></trkpt><trkpt lat="42.6821705" lon="13.4875991"><ele>1121.0</ele><time>2026-05-01T09:05:19.816Z</time></trkpt><trkpt lat="42.6821425" lon="13.4874342"><ele>1125.0</ele><time>2026-05-01T09:05:20.815Z</time></trkpt><trkpt lat="42.6821061" lon="13.4872902"><ele>1125.0</ele><time>2026-05-01T09:05:21.814Z</time></trkpt><trkpt lat="42.6820455" lon="13.4871902"><ele>1125.0</ele><time>2026-05-01T09:05:22.816Z</time></trkpt><trkpt lat="42.6819652" lon="13.4870793"><ele>1125.0</ele><time>2026-05-01T09:05:23.816Z</time></trkpt><trkpt lat="42.6818" lon="13.4870817"><ele>1125.0</ele><time>2026-05-01T09:05:24.816Z</time></trkpt><trkpt lat="42.6816643" lon="13.4870548"><ele>1128.75</ele><time>2026-05-01T09:05:25.814Z</time></trkpt><trkpt lat="42.6815154" lon="13.4870874"><ele>1132.5</ele><time>2026-05-01T09:05:26.816Z</time></trkpt><trkpt lat="42.6813746" lon="13.4871505"><ele>1136.25</ele><time>2026-05-01T09:05:27.816Z</time></trkpt><trkpt lat="42.6812423" lon="13.4872376"><ele>1140.0</ele><time>2026-05-01T09:05:28.816Z</time></trkpt><trkpt lat="42.6811234" lon="13.4873081"><ele>1134.0</ele><time>2026-05-01T09:05:29.815Z</time></trkpt><trkpt lat="42.6809905" lon="13.4873503"><ele>1128.0</ele><time>2026-05-01T09:05:30.814Z</time></trkpt><trkpt lat="42.6808597" lon="13.4873596"><ele>1122.0</ele><time>2026-05-01T09:05:31.815Z</time></trkpt><trkpt lat="42.6807372" lon="13.4873321"><ele>1116.0</ele><time>2026-05-01T09:05:32.816Z</time></trkpt><trkpt lat="42.6806413" lon="13.4872618"><ele>1116.0</ele><time>2026-05-01T09:05:33.816Z</time></trkpt><trkpt lat="42.6805589" lon="13.4871427"><ele>1116.0</ele><time>2026-05-01T09:05:34.814Z</time></trkpt><trkpt lat="42.6804915" lon="13.4869873"><ele>1116.0</ele><time>2026-05-01T09:05:35.815Z</time></trkpt><trkpt lat="42.6804399" lon="13.4868068"><ele>1116.0</ele><time>2026-05-01T09:05:36.815Z</time></trkpt><trkpt lat="42.6804081" lon="13.4866224"><ele>1121.25</ele><time>2026-05-01T09:05:37.814Z</time></trkpt><trkpt lat="42.680392" lon="13.486443"><ele>1126.5</ele><time>2026-05-01T09:05:38.814Z</time></trkpt><trkpt lat="42.6803545" lon="13.486263"><ele>1131.75</ele><time>2026-05-01T09:05:39.814Z</time></trkpt><trkpt lat="42.6802774" lon="13.4860941"><ele>1137.0</ele><time>2026-05-01T09:05:40.815Z</time></trkpt><trkpt lat="42.6801734" lon="13.4859226"><ele>1137.0</ele><time>2026-05-01T09:05:41.815Z</time></trkpt><trkpt lat="42.6800459" lon="13.4857677"><ele>1137.0</ele><time>2026-05-01T09:05:42.815Z</time></trkpt><trkpt lat="42.6799099" lon="13.4856328"><ele>1137.0</ele><time>2026-05-01T09:05:43.815Z</time></trkpt><trkpt lat="42.6797785" lon="13.4855282"><ele>1137.0</ele><time>2026-05-01T09:05:44.815Z</time></trkpt><trkpt lat="42.6796488" lon="13.4854403"><ele>1137.0</ele><time>2026-05-01T09:05:45.815Z</time></trkpt><trkpt lat="42.6795227" lon="13.4853331"><ele>1137.0</ele><time>2026-05-01T09:05:46.815Z</time></trkpt><trkpt lat="42.6794272" lon="13.485205"><ele>1137.0</ele><time>2026-05-01T09:05:47.814Z</time></trkpt><trkpt lat="42.6793596" lon="13.485071"><ele>1137.75</ele><time>2026-05-01T09:05:48.814Z</time></trkpt><trkpt lat="42.6793272" lon="13.4849115"><ele>1138.5</ele><time>2026-05-01T09:05:49.814Z</time></trkpt><trkpt lat="42.6793129" lon="13.4847449"><ele>1139.25</ele><time>2026-05-01T09:05:50.815Z</time></trkpt><trkpt lat="42.6793018" lon="13.4846011"><ele>1140.0</ele><time>2026-05-01T09:05:51.815Z</time></trkpt><trkpt lat="42.6792586" lon="13.4844655"><ele>1140.0</ele><time>2026-05-01T09:05:52.815Z</time></trkpt><trkpt lat="42.6791764" lon="13.4843555"><ele>1140.0</ele><time>2026-05-01T09:05:53.816Z</time></trkpt><trkpt lat="42.679102" lon="13.4842636"><ele>1140.0</ele><time>2026-05-01T09:05:54.815Z</time></trkpt><trkpt lat="42.6790485" lon="13.4841583"><ele>1140.0</ele><time>2026-05-01T09:05:55.815Z</time></trkpt><trkpt lat="42.6790342" lon="13.4840437"><ele>1140.0</ele><time>2026-05-01T09:05:56.815Z</time></trkpt><trkpt lat="42.6790718" lon="13.4839281"><ele>1140.0</ele><time>2026-05-01T09:05:57.816Z</time></trkpt><trkpt lat="42.6791466" lon="13.4838244"><ele>1140.0</ele><time>2026-05-01T09:05:58.816Z</time></trkpt><trkpt lat="42.6792314" lon="13.4837409"><ele>1140.0</ele><time>2026-05-01T09:05:59.815Z</time></trkpt><trkpt lat="42.6793022" lon="13.483659"><ele>1140.0</ele><time>2026-05-01T09:06:00.816Z</time></trkpt><trkpt lat="42.6793329" lon="13.483551"><ele>1140.0</ele><time>2026-05-01T09:06:01.816Z</time></trkpt><trkpt lat="42.6793208" lon="13.4834316"><ele>1142.25</ele><time>2026-05-01T09:06:02.814Z</time></trkpt><trkpt lat="42.6792512" lon="13.4833045"><ele>1144.5</ele><time>2026-05-01T09:06:03.815Z</time></trkpt><trkpt lat="42.679172" lon="13.4831686"><ele>1146.75</ele><time>2026-05-01T09:06:04.814Z</time></trkpt><trkpt lat="42.679085" lon="13.4830086"><ele>1149.0</ele><time>2026-05-01T09:06:05.814Z</time></trkpt><trkpt lat="42.6790147" lon="13.4828022"><ele>1154.6666666666667</ele><time>2026-05-01T09:06:06.814Z</time></trkpt><trkpt lat="42.6789488" lon="13.482594"><ele>1160.3333333333335</ele><time>2026-05-01T09:06:07.814Z</time></trkpt><trkpt lat="42.6788766" lon="13.4823983"><ele>1166.0</ele><time>2026-05-01T09:06:08.814Z</time></trkpt><trkpt lat="42.6787823" lon="13.482229"><ele>1168.0</ele><time>2026-05-01T09:06:09.815Z</time></trkpt><trkpt lat="42.6786636" lon="13.4820931"><ele>1170.0</ele><time>2026-05-01T09:06:10.815Z</time></trkpt><trkpt lat="42.6785437" lon="13.4819825"><ele>1172.0</ele><time>2026-05-01T09:06:11.816Z</time></trkpt><trkpt lat="42.6784307" lon="13.4818789"><ele>1174.0</ele><time>2026-05-01T09:06:12.815Z</time></trkpt><trkpt lat="42.6783291" lon="13.4817654"><ele>1171.25</ele><time>2026-05-01T09:06:13.815Z</time></trkpt><trkpt lat="42.678255" lon="13.4816321"><ele>1168.5</ele><time>2026-05-01T09:06:14.815Z</time></trkpt><trkpt lat="42.6782021" lon="13.4814649"><ele>1165.75</ele><time>2026-05-01T09:06:15.815Z</time></trkpt><trkpt lat="42.6781607" lon="13.4812792"><ele>1163.0</ele><time>2026-05-01T09:06:16.814Z</time></trkpt><trkpt lat="42.6781027" lon="13.4811094"><ele>1163.0</ele><time>2026-05-01T09:06:17.816Z</time></trkpt><trkpt lat="42.6780435" lon="13.4809503"><ele>1163.0</ele><time>2026-05-01T09:06:18.814Z</time></trkpt><trkpt lat="42.6780097" lon="13.4807882"><ele>1163.0</ele><time>2026-05-01T09:06:19.814Z</time></trkpt><trkpt lat="42.6780033" lon="13.4806254"><ele>1163.0</ele><time>2026-05-01T09:06:20.814Z</time></trkpt><trkpt lat="42.6780236" lon="13.480484"><ele>1161.25</ele><time>2026-05-01T09:06:21.816Z</time></trkpt><trkpt lat="42.6780684" lon="13.4803494"><ele>1159.5</ele><time>2026-05-01T09:06:22.815Z</time></trkpt><trkpt lat="42.6781379" lon="13.4802324"><ele>1157.75</ele><time>2026-05-01T09:06:23.814Z</time></trkpt><trkpt lat="42.6782409" lon="13.4801411"><ele>1156.0</ele><time>2026-05-01T09:06:24.815Z</time></trkpt><trkpt lat="42.6783675" lon="13.4800675"><ele>1156.0</ele><time>2026-05-01T09:06:25.815Z</time></trkpt><trkpt lat="42.6784931" lon="13.4800018"><ele>1156.0</ele><time>2026-05-01T09:06:26.816Z</time></trkpt><trkpt lat="42.6786094" lon="13.4799471"><ele>1156.0</ele><time>2026-05-01T09:06:27.816Z</time></trkpt><trkpt lat="42.6787103" lon="13.4799392"><ele>1156.0</ele><time>2026-05-01T09:06:28.815Z</time></trkpt><trkpt lat="42.6787907" lon="13.4799811"><ele>1156.0</ele><time>2026-05-01T09:06:29.815Z</time></trkpt><trkpt lat="42.6788486" lon="13.4800739"><ele>1155.0</ele><time>2026-05-01T09:06:30.815Z</time></trkpt><trkpt lat="42.6788817" lon="13.4802184"><ele>1154.0</ele><time>2026-05-01T09:06:31.814Z</time></trkpt><trkpt lat="42.6789001" lon="13.4804054"><ele>1153.0</ele><time>2026-05-01T09:06:32.815Z</time></trkpt><trkpt lat="42.6789212" lon="13.4805924"><ele>1152.0</ele><time>2026-05-01T09:06:33.816Z</time></trkpt><trkpt lat="42.6789436" lon="13.4807691"><ele>1155.0</ele><time>2026-05-01T09:06:34.816Z</time></trkpt><trkpt lat="42.6789682" lon="13.4809241"><ele>1158.0</ele><time>2026-05-01T09:06:35.815Z</time></trkpt><trkpt lat="42.679025" lon="13.4810452"><ele>1161.0</ele><time>2026-05-01T09:06:36.815Z</time></trkpt><trkpt lat="42.6791213" lon="13.4811438"><ele>1164.0</ele><time>2026-05-01T09:06:37.815Z</time></trkpt><trkpt lat="42.6792453" lon="13.4812213"><ele>1167.3333333333333</ele><time>2026-05-01T09:06:38.815Z</time></trkpt><trkpt lat="42.6793831" lon="13.4813009"><ele>1170.6666666666665</ele><time>2026-05-01T09:06:39.815Z</time></trkpt><trkpt lat="42.6795402" lon="13.481377"><ele>1174.0</ele><time>2026-05-01T09:06:40.816Z</time></trkpt><trkpt lat="42.6797042" lon="13.4814562"><ele>1175.0</ele><time>2026-05-01T09:06:41.816Z</time></trkpt><trkpt lat="42.6798697" lon="13.4815395"><ele>1176.0</ele><time>2026-05-01T09:06:42.815Z</time></trkpt><trkpt lat="42.6800301" lon="13.4816296"><ele>1177.0</ele><time>2026-05-01T09:06:43.815Z</time></trkpt><trkpt lat="42.6801777" lon="13.4817205"><ele>1178.0</ele><time>2026-05-01T09:06:44.814Z</time></trkpt><trkpt lat="42.6803082" lon="13.4818063"><ele>1179.0</ele><time>2026-05-01T09:06:45.814Z</time></trkpt><trkpt lat="42.6804198" lon="13.4818891"><ele>1180.0</ele><time>2026-05-01T09:06:46.814Z</time></trkpt><trkpt lat="42.6805339" lon="13.4819615"><ele>1181.0</ele><time>2026-05-01T09:06:47.815Z</time></trkpt><trkpt lat="42.6806448" lon="13.4820022"><ele>1181.0</ele><time>2026-05-01T09:06:48.816Z</time></trkpt><trkpt lat="42.6807288" lon="13.4819877"><ele>1181.0</ele><time>2026-05-01T09:06:49.815Z</time></trkpt><trkpt lat="42.6808208" lon="13.4819421"><ele>1181.0</ele><time>2026-05-01T09:06:50.815Z</time></trkpt><trkpt lat="42.6808973" lon="13.4817049"><ele>1181.0</ele><time>2026-05-01T09:06:51.814Z</time></trkpt><trkpt lat="42.6809998" lon="13.4815941"><ele>1185.5</ele><time>2026-05-01T09:06:52.816Z</time></trkpt><trkpt lat="42.6811095" lon="13.4815046"><ele>1190.0</ele><time>2026-05-01T09:06:53.816Z</time></trkpt><trkpt lat="42.681241" lon="13.481457"><ele>1194.5</ele><time>2026-05-01T09:06:54.815Z</time></trkpt><trkpt lat="42.6813829" lon="13.4814357"><ele>1199.0</ele><time>2026-05-01T09:06:55.816Z</time></trkpt><trkpt lat="42.6815379" lon="13.4814216"><ele>1199.0</ele><time>2026-05-01T09:06:56.815Z</time></trkpt><trkpt lat="42.6816768" lon="13.4813913"><ele>1199.0</ele><time>2026-05-01T09:06:57.815Z</time></trkpt><trkpt lat="42.6818015" lon="13.4813421"><ele>1199.0</ele><time>2026-05-01T09:06:58.814Z</time></trkpt><trkpt lat="42.6819336" lon="13.4813076"><ele>1199.0</ele><time>2026-05-01T09:06:59.814Z</time></trkpt><trkpt lat="42.6819786" lon="13.481224"><ele>1201.2</ele><time>2026-05-01T09:07:00.815Z</time></trkpt><trkpt lat="42.6820571" lon="13.4811457"><ele>1203.4</ele><time>2026-05-01T09:07:01.815Z</time></trkpt><trkpt lat="42.68204" lon="13.481024"><ele>1205.6</ele><time>2026-05-01T09:07:02.815Z</time></trkpt><trkpt lat="42.682026" lon="13.4809101"><ele>1207.8</ele><time>2026-05-01T09:07:03.815Z</time></trkpt><trkpt lat="42.6819947" lon="13.4807844"><ele>1210.0</ele><time>2026-05-01T09:07:04.816Z</time></trkpt><trkpt lat="42.6819143" lon="13.480688"><ele>1210.0</ele><time>2026-05-01T09:07:05.815Z</time></trkpt><trkpt lat="42.6818772" lon="13.4805751"><ele>1210.0</ele><time>2026-05-01T09:07:06.816Z</time></trkpt><trkpt lat="42.681879" lon="13.480433"><ele>1210.0</ele><time>2026-05-01T09:07:07.815Z</time></trkpt><trkpt lat="42.6818991" lon="13.4802981"><ele>1210.0</ele><time>2026-05-01T09:07:08.816Z</time></trkpt><trkpt lat="42.6819511" lon="13.4801269"><ele>1210.0</ele><time>2026-05-01T09:07:09.815Z</time></trkpt><trkpt lat="42.6820093" lon="13.4799507"><ele>1210.0</ele><time>2026-05-01T09:07:10.814Z</time></trkpt><trkpt lat="42.6820771" lon="13.4797666"><ele>1210.0</ele><time>2026-05-01T09:07:11.815Z</time></trkpt><trkpt lat="42.6821424" lon="13.4796023"><ele>1210.0</ele><time>2026-05-01T09:07:12.815Z</time></trkpt><trkpt lat="42.6822172" lon="13.4794615"><ele>1210.0</ele><time>2026-05-01T09:07:13.815Z</time></trkpt><trkpt lat="42.682302" lon="13.4793746"><ele>1210.0</ele><time>2026-05-01T09:07:14.814Z</time></trkpt><trkpt lat="42.6824069" lon="13.4792998"><ele>1210.0</ele><time>2026-05-01T09:07:15.814Z</time></trkpt><trkpt lat="42.6825418" lon="13.4792472"><ele>1210.0</ele><time>2026-05-01T09:07:16.813Z</time></trkpt><trkpt lat="42.6826862" lon="13.4791943"><ele>1210.0</ele><time>2026-05-01T09:07:17.815Z</time></trkpt><trkpt lat="42.6828533" lon="13.4791421"><ele>1210.0</ele><time>2026-05-01T09:07:18.813Z</time></trkpt><trkpt lat="42.6830252" lon="13.4790868"><ele>1210.0</ele><time>2026-05-01T09:07:19.813Z</time></trkpt><trkpt lat="42.6832027" lon="13.4790342"><ele>1210.0</ele><time>2026-05-01T09:07:20.815Z</time></trkpt><trkpt lat="42.6833887" lon="13.4789868"><ele>1210.0</ele><time>2026-05-01T09:07:21.814Z</time></trkpt><trkpt lat="42.6835841" lon="13.4789476"><ele>1210.0</ele><time>2026-05-01T09:07:22.814Z</time></trkpt><trkpt lat="42.6837795" lon="13.4789183"><ele>1210.0</ele><time>2026-05-01T09:07:23.814Z</time></trkpt><trkpt lat="42.6839725" lon="13.4788782"><ele>1207.6666666666665</ele><time>2026-05-01T09:07:24.813Z</time></trkpt><trkpt lat="42.6841685" lon="13.4788306"><ele>1205.3333333333333</ele><time>2026-05-01T09:07:25.813Z</time></trkpt><trkpt lat="42.6843753" lon="13.4787491"><ele>1203.0</ele><time>2026-05-01T09:07:26.815Z</time></trkpt><trkpt lat="42.6845874" lon="13.4786702"><ele>1203.0</ele><time>2026-05-01T09:07:27.815Z</time></trkpt><trkpt lat="42.6847929" lon="13.4785928"><ele>1203.0</ele><time>2026-05-01T09:07:28.814Z</time></trkpt><trkpt lat="42.6849929" lon="13.4785167"><ele>1203.0</ele><time>2026-05-01T09:07:29.814Z</time></trkpt><trkpt lat="42.6851921" lon="13.4784465"><ele>1210.3333333333333</ele><time>2026-05-01T09:07:30.814Z</time></trkpt><trkpt lat="42.6853873" lon="13.4783779"><ele>1217.6666666666665</ele><time>2026-05-01T09:07:31.815Z</time></trkpt><trkpt lat="42.6855836" lon="13.4782884"><ele>1225.0</ele><time>2026-05-01T09:07:32.814Z</time></trkpt><trkpt lat="42.6857785" lon="13.4781804"><ele>1225.0</ele><time>2026-05-01T09:07:33.813Z</time></trkpt><trkpt lat="42.6859691" lon="13.4780678"><ele>1225.0</ele><time>2026-05-01T09:07:34.813Z</time></trkpt><trkpt lat="42.6861418" lon="13.4779606"><ele>1225.0</ele><time>2026-05-01T09:07:35.814Z</time></trkpt><trkpt lat="42.6863064" lon="13.4778622"><ele>1221.3333333333333</ele><time>2026-05-01T09:07:36.813Z</time></trkpt><trkpt lat="42.6864586" lon="13.4777699"><ele>1217.6666666666667</ele><time>2026-05-01T09:07:37.813Z</time></trkpt><trkpt lat="42.6865909" lon="13.4776842"><ele>1214.0</ele><time>2026-05-01T09:07:38.814Z</time></trkpt><trkpt lat="42.686711" lon="13.477595"><ele>1214.0</ele><time>2026-05-01T09:07:39.815Z</time></trkpt><trkpt lat="42.6867994" lon="13.4774306"><ele>1214.0</ele><time>2026-05-01T09:07:40.815Z</time></trkpt><trkpt lat="42.6868944" lon="13.4772874"><ele>1214.0</ele><time>2026-05-01T09:07:41.814Z</time></trkpt><trkpt lat="42.6869289" lon="13.4770821"><ele>1214.0</ele><time>2026-05-01T09:07:42.815Z</time></trkpt><trkpt lat="42.6869811" lon="13.4768974"><ele>1211.5</ele><time>2026-05-01T09:07:43.815Z</time></trkpt><trkpt lat="42.6870198" lon="13.4767203"><ele>1209.0</ele><time>2026-05-01T09:07:44.815Z</time></trkpt><trkpt lat="42.6870374" lon="13.476521"><ele>1206.5</ele><time>2026-05-01T09:07:45.814Z</time></trkpt><trkpt lat="42.687012" lon="13.4763352"><ele>1204.0</ele><time>2026-05-01T09:07:46.814Z</time></trkpt><trkpt lat="42.6869536" lon="13.4761404"><ele>1208.6666666666665</ele><time>2026-05-01T09:07:47.813Z</time></trkpt><trkpt lat="42.6868828" lon="13.4759352"><ele>1213.3333333333333</ele><time>2026-05-01T09:07:48.813Z</time></trkpt><trkpt lat="42.6868087" lon="13.4757585"><ele>1218.0</ele><time>2026-05-01T09:07:49.814Z</time></trkpt><trkpt lat="42.6867455" lon="13.4755773"><ele>1218.0</ele><time>2026-05-01T09:07:50.815Z</time></trkpt><trkpt lat="42.6866421" lon="13.4754573"><ele>1218.0</ele><time>2026-05-01T09:07:51.814Z</time></trkpt><trkpt lat="42.6865531" lon="13.475315"><ele>1218.0</ele><time>2026-05-01T09:07:52.813Z</time></trkpt><trkpt lat="42.6864598" lon="13.4751973"><ele>1218.0</ele><time>2026-05-01T09:07:53.814Z</time></trkpt><trkpt lat="42.6862885" lon="13.4750947"><ele>1220.6666666666667</ele><time>2026-05-01T09:07:54.814Z</time></trkpt><trkpt lat="42.6861492" lon="13.474996"><ele>1223.3333333333335</ele><time>2026-05-01T09:07:55.813Z</time></trkpt><trkpt lat="42.6859965" lon="13.4748882"><ele>1226.0</ele><time>2026-05-01T09:07:56.814Z</time></trkpt><trkpt lat="42.6858497" lon="13.4747883"><ele>1226.0</ele><time>2026-05-01T09:07:57.814Z</time></trkpt><trkpt lat="42.6857206" lon="13.4746685"><ele>1226.0</ele><time>2026-05-01T09:07:58.813Z</time></trkpt><trkpt lat="42.6855799" lon="13.4745479"><ele>1226.0</ele><time>2026-05-01T09:07:59.814Z</time></trkpt><trkpt lat="42.6854561" lon="13.4743971"><ele>1231.0</ele><time>2026-05-01T09:08:00.814Z</time></trkpt><trkpt lat="42.6853477" lon="13.4742377"><ele>1236.0</ele><time>2026-05-01T09:08:01.814Z</time></trkpt><trkpt lat="42.6852266" lon="13.4740996"><ele>1241.0</ele><time>2026-05-01T09:08:02.813Z</time></trkpt><trkpt lat="42.6850749" lon="13.4739849"><ele>1241.0</ele><time>2026-05-01T09:08:03.813Z</time></trkpt><trkpt lat="42.6849209" lon="13.4738722"><ele>1241.0</ele><time>2026-05-01T09:08:04.813Z</time></trkpt><trkpt lat="42.6847684" lon="13.4737424"><ele>1241.0</ele><time>2026-05-01T09:08:05.814Z</time></trkpt><trkpt lat="42.6845992" lon="13.4736568"><ele>1239.75</ele><time>2026-05-01T09:08:06.813Z</time></trkpt><trkpt lat="42.6844543" lon="13.4735664"><ele>1238.5</ele><time>2026-05-01T09:08:07.814Z</time></trkpt><trkpt lat="42.6843381" lon="13.4735057"><ele>1237.25</ele><time>2026-05-01T09:08:08.814Z</time></trkpt><trkpt lat="42.6842229" lon="13.4734701"><ele>1236.0</ele><time>2026-05-01T09:08:09.815Z</time></trkpt><trkpt lat="42.6841621" lon="13.473369"><ele>1236.0</ele><time>2026-05-01T09:08:10.813Z</time></trkpt><trkpt lat="42.684146" lon="13.4732674"><ele>1236.0</ele><time>2026-05-01T09:08:11.815Z</time></trkpt><trkpt lat="42.6841794" lon="13.4731331"><ele>1236.0</ele><time>2026-05-01T09:08:13.814Z</time></trkpt><trkpt lat="42.6842539" lon="13.4730768"><ele>1236.0</ele><time>2026-05-01T09:08:14.814Z</time></trkpt><trkpt lat="42.684358" lon="13.4730067"><ele>1236.0</ele><time>2026-05-01T09:08:15.814Z</time></trkpt><trkpt lat="42.68449" lon="13.4729148"><ele>1241.6666666666667</ele><time>2026-05-01T09:08:16.813Z</time></trkpt><trkpt lat="42.6846304" lon="13.472807"><ele>1247.3333333333335</ele><time>2026-05-01T09:08:17.813Z</time></trkpt><trkpt lat="42.6847768" lon="13.4727031"><ele>1253.0</ele><time>2026-05-01T09:08:18.814Z</time></trkpt><trkpt lat="42.6849212" lon="13.4725971"><ele>1253.0</ele><time>2026-05-01T09:08:19.814Z</time></trkpt><trkpt lat="42.6850541" lon="13.4725031"><ele>1253.0</ele><time>2026-05-01T09:08:20.814Z</time></trkpt><trkpt lat="42.6851802" lon="13.472416"><ele>1253.0</ele><time>2026-05-01T09:08:21.815Z</time></trkpt><trkpt lat="42.6852853" lon="13.4723381"><ele>1253.0</ele><time>2026-05-01T09:08:22.813Z</time></trkpt><trkpt lat="42.6853745" lon="13.4722456"><ele>1259.0</ele><time>2026-05-01T09:08:23.814Z</time></trkpt><trkpt lat="42.6854336" lon="13.4721385"><ele>1265.0</ele><time>2026-05-01T09:08:24.814Z</time></trkpt><trkpt lat="42.6854542" lon="13.4720472"><ele>1271.0</ele><time>2026-05-01T09:08:25.814Z</time></trkpt><trkpt lat="42.6854611" lon="13.4719343"><ele>1277.0</ele><time>2026-05-01T09:08:26.815Z</time></trkpt><trkpt lat="42.6854334" lon="13.471838"><ele>1283.0</ele><time>2026-05-01T09:08:27.814Z</time></trkpt><trkpt lat="42.6853971" lon="13.4717357"><ele>1289.0</ele><time>2026-05-01T09:08:28.815Z</time></trkpt><trkpt lat="42.6853165" lon="13.4716116"><ele>1293.0</ele><time>2026-05-01T09:08:29.814Z</time></trkpt><trkpt lat="42.685121" lon="13.4713858"><ele>1297.0</ele><time>2026-05-01T09:08:30.815Z</time></trkpt><trkpt lat="42.6849333" lon="13.4712662"><ele>1297.0</ele><time>2026-05-01T09:08:31.814Z</time></trkpt><trkpt lat="42.6847798" lon="13.4711239"><ele>1297.0</ele><time>2026-05-01T09:08:32.814Z</time></trkpt><trkpt lat="42.684618" lon="13.470993"><ele>1297.0</ele><time>2026-05-01T09:08:33.813Z</time></trkpt><trkpt lat="42.6844579" lon="13.470877"><ele>1286.0</ele><time>2026-05-01T09:08:34.814Z</time></trkpt><trkpt lat="42.684307" lon="13.4707761"><ele>1275.0</ele><time>2026-05-01T09:08:35.814Z</time></trkpt><trkpt lat="42.6841616" lon="13.4706898"><ele>1264.0</ele><time>2026-05-01T09:08:36.813Z</time></trkpt><trkpt lat="42.6840256" lon="13.4706153"><ele>1264.0</ele><time>2026-05-01T09:08:37.814Z</time></trkpt><trkpt lat="42.6839074" lon="13.4705353"><ele>1264.0</ele><time>2026-05-01T09:08:38.814Z</time></trkpt><trkpt lat="42.6837945" lon="13.4704765"><ele>1264.0</ele><time>2026-05-01T09:08:39.814Z</time></trkpt><trkpt lat="42.6837073" lon="13.4703836"><ele>1264.0</ele><time>2026-05-01T09:08:40.815Z</time></trkpt><trkpt lat="42.683625" lon="13.4703075"><ele>1261.0</ele><time>2026-05-01T09:08:41.814Z</time></trkpt><trkpt lat="42.6835868" lon="13.4702117"><ele>1258.0</ele><time>2026-05-01T09:08:42.815Z</time></trkpt><trkpt lat="42.6835568" lon="13.4701162"><ele>1255.0</ele><time>2026-05-01T09:08:43.814Z</time></trkpt><trkpt lat="42.6835662" lon="13.470008"><ele>1252.0</ele><time>2026-05-01T09:08:44.814Z</time></trkpt><trkpt lat="42.6836067" lon="13.4699171"><ele>1249.0</ele><time>2026-05-01T09:08:45.814Z</time></trkpt><trkpt lat="42.6836874" lon="13.4698257"><ele>1246.0</ele><time>2026-05-01T09:08:46.813Z</time></trkpt><trkpt lat="42.6838025" lon="13.4697358"><ele>1251.75</ele><time>2026-05-01T09:08:47.814Z</time></trkpt><trkpt lat="42.6839286" lon="13.4696469"><ele>1257.5</ele><time>2026-05-01T09:08:48.813Z</time></trkpt><trkpt lat="42.6840571" lon="13.4695439"><ele>1263.25</ele><time>2026-05-01T09:08:49.814Z</time></trkpt><trkpt lat="42.6841857" lon="13.4694403"><ele>1269.0</ele><time>2026-05-01T09:08:50.814Z</time></trkpt><trkpt lat="42.6843066" lon="13.4693445"><ele>1269.0</ele><time>2026-05-01T09:08:51.813Z</time></trkpt><trkpt lat="42.684412" lon="13.4692572"><ele>1269.0</ele><time>2026-05-01T09:08:52.814Z</time></trkpt><trkpt lat="42.6844999" lon="13.4691743"><ele>1269.0</ele><time>2026-05-01T09:08:53.814Z</time></trkpt><trkpt lat="42.6845706" lon="13.4690912"><ele>1269.0</ele><time>2026-05-01T09:08:54.814Z</time></trkpt><trkpt lat="42.6846189" lon="13.4689804"><ele>1269.0</ele><time>2026-05-01T09:08:55.814Z</time></trkpt><trkpt lat="42.6846689" lon="13.4688707"><ele>1273.75</ele><time>2026-05-01T09:08:56.815Z</time></trkpt><trkpt lat="42.6846811" lon="13.4687409"><ele>1278.5</ele><time>2026-05-01T09:08:57.813Z</time></trkpt><trkpt lat="42.684651" lon="13.4686354"><ele>1283.25</ele><time>2026-05-01T09:08:58.815Z</time></trkpt><trkpt lat="42.684599" lon="13.4685674"><ele>1288.0</ele><time>2026-05-01T09:08:59.813Z</time></trkpt><trkpt lat="42.6844009" lon="13.4683738"><ele>1288.0</ele><time>2026-05-01T09:09:00.813Z</time></trkpt><trkpt lat="42.6842548" lon="13.4682762"><ele>1288.0</ele><time>2026-05-01T09:09:01.814Z</time></trkpt><trkpt lat="42.6841067" lon="13.4681913"><ele>1288.0</ele><time>2026-05-01T09:09:02.814Z</time></trkpt><trkpt lat="42.6839509" lon="13.4680849"><ele>1288.0</ele><time>2026-05-01T09:09:03.815Z</time></trkpt><trkpt lat="42.6838286" lon="13.4679507"><ele>1288.0</ele><time>2026-05-01T09:09:04.814Z</time></trkpt><trkpt lat="42.6837167" lon="13.4678227"><ele>1288.0</ele><time>2026-05-01T09:09:05.815Z</time></trkpt><trkpt lat="42.6835973" lon="13.467747"><ele>1288.0</ele><time>2026-05-01T09:09:06.814Z</time></trkpt><trkpt lat="42.6834965" lon="13.4676747"><ele>1288.2</ele><time>2026-05-01T09:09:07.814Z</time></trkpt><trkpt lat="42.6834075" lon="13.4676249"><ele>1288.4</ele><time>2026-05-01T09:09:08.815Z</time></trkpt><trkpt lat="42.683329" lon="13.4675383"><ele>1288.6000000000001</ele><time>2026-05-01T09:09:09.813Z</time></trkpt><trkpt lat="42.6832496" lon="13.4674338"><ele>1288.8000000000002</ele><time>2026-05-01T09:09:10.814Z</time></trkpt><trkpt lat="42.6831579" lon="13.4673342"><ele>1289.0</ele><time>2026-05-01T09:09:11.815Z</time></trkpt><trkpt lat="42.6830668" lon="13.4672128"><ele>1288.5</ele><time>2026-05-01T09:09:12.815Z</time></trkpt><trkpt lat="42.6829471" lon="13.4670991"><ele>1288.0</ele><time>2026-05-01T09:09:13.813Z</time></trkpt><trkpt lat="42.6828221" lon="13.4669876"><ele>1287.5</ele><time>2026-05-01T09:09:14.813Z</time></trkpt><trkpt lat="42.6827066" lon="13.4668732"><ele>1287.0</ele><time>2026-05-01T09:09:15.814Z</time></trkpt><trkpt lat="42.6825967" lon="13.4667772"><ele>1287.0</ele><time>2026-05-01T09:09:16.813Z</time></trkpt><trkpt lat="42.6824997" lon="13.4666869"><ele>1287.0</ele><time>2026-05-01T09:09:17.813Z</time></trkpt><trkpt lat="42.6824213" lon="13.4665859"><ele>1287.0</ele><time>2026-05-01T09:09:18.813Z</time></trkpt><trkpt lat="42.6823555" lon="13.4664709"><ele>1287.0</ele><time>2026-05-01T09:09:19.814Z</time></trkpt><trkpt lat="42.6822905" lon="13.466332"><ele>1294.75</ele><time>2026-05-01T09:09:20.813Z</time></trkpt><trkpt lat="42.6822269" lon="13.4661799"><ele>1302.5</ele><time>2026-05-01T09:09:21.813Z</time></trkpt><trkpt lat="42.6821625" lon="13.46602"><ele>1310.25</ele><time>2026-05-01T09:09:22.814Z</time></trkpt><trkpt lat="42.6820849" lon="13.4658741"><ele>1318.0</ele><time>2026-05-01T09:09:23.814Z</time></trkpt><trkpt lat="42.682" lon="13.4657458"><ele>1321.25</ele><time>2026-05-01T09:09:24.813Z</time></trkpt><trkpt lat="42.6818938" lon="13.4656405"><ele>1324.5</ele><time>2026-05-01T09:09:25.814Z</time></trkpt><trkpt lat="42.6817638" lon="13.4655527"><ele>1327.75</ele><time>2026-05-01T09:09:26.814Z</time></trkpt><trkpt lat="42.6816197" lon="13.4654728"><ele>1331.0</ele><time>2026-05-01T09:09:27.814Z</time></trkpt><trkpt lat="42.6814702" lon="13.4654088"><ele>1331.0</ele><time>2026-05-01T09:09:28.814Z</time></trkpt><trkpt lat="42.6813097" lon="13.4653354"><ele>1331.0</ele><time>2026-05-01T09:09:29.814Z</time></trkpt><trkpt lat="42.6811493" lon="13.4652689"><ele>1331.0</ele><time>2026-05-01T09:09:30.813Z</time></trkpt><trkpt lat="42.6809891" lon="13.4652057"><ele>1327.3333333333335</ele><time>2026-05-01T09:09:31.813Z</time></trkpt><trkpt lat="42.6808313" lon="13.4651513"><ele>1323.6666666666667</ele><time>2026-05-01T09:09:32.815Z</time></trkpt><trkpt lat="42.6806873" lon="13.4650849"><ele>1320.0</ele><time>2026-05-01T09:09:33.814Z</time></trkpt><trkpt lat="42.6805351" lon="13.4650618"><ele>1320.0</ele><time>2026-05-01T09:09:34.815Z</time></trkpt><trkpt lat="42.6804011" lon="13.4650369"><ele>1320.0</ele><time>2026-05-01T09:09:35.814Z</time></trkpt><trkpt lat="42.6802849" lon="13.4650221"><ele>1320.0</ele><time>2026-05-01T09:09:36.814Z</time></trkpt><trkpt lat="42.6801708" lon="13.4650626"><ele>1320.0</ele><time>2026-05-01T09:09:37.814Z</time></trkpt><trkpt lat="42.6800462" lon="13.4651219"><ele>1319.6666666666667</ele><time>2026-05-01T09:09:38.814Z</time></trkpt><trkpt lat="42.6799162" lon="13.4651982"><ele>1319.3333333333335</ele><time>2026-05-01T09:09:39.813Z</time></trkpt><trkpt lat="42.6797652" lon="13.4652736"><ele>1319.0</ele><time>2026-05-01T09:09:40.814Z</time></trkpt><trkpt lat="42.679614" lon="13.4653251"><ele>1319.0</ele><time>2026-05-01T09:09:41.814Z</time></trkpt><trkpt lat="42.6794585" lon="13.4653708"><ele>1319.0</ele><time>2026-05-01T09:09:42.814Z</time></trkpt><trkpt lat="42.6793097" lon="13.4654344"><ele>1319.0</ele><time>2026-05-01T09:09:43.814Z</time></trkpt><trkpt lat="42.6791665" lon="13.4655268"><ele>1312.6666666666667</ele><time>2026-05-01T09:09:44.815Z</time></trkpt><trkpt lat="42.6790275" lon="13.4656231"><ele>1306.3333333333333</ele><time>2026-05-01T09:09:45.813Z</time></trkpt><trkpt lat="42.6788916" lon="13.465732"><ele>1300.0</ele><time>2026-05-01T09:09:46.813Z</time></trkpt><trkpt lat="42.678746" lon="13.4658286"><ele>1309.3333333333333</ele><time>2026-05-01T09:09:47.813Z</time></trkpt><trkpt lat="42.678592" lon="13.4659339"><ele>1318.6666666666667</ele><time>2026-05-01T09:09:48.814Z</time></trkpt><trkpt lat="42.6784379" lon="13.4660429"><ele>1328.0</ele><time>2026-05-01T09:09:49.813Z</time></trkpt><trkpt lat="42.6782813" lon="13.4661509"><ele>1328.0</ele><time>2026-05-01T09:09:50.814Z</time></trkpt><trkpt lat="42.6781284" lon="13.466253"><ele>1328.0</ele><time>2026-05-01T09:09:51.813Z</time></trkpt><trkpt lat="42.6779748" lon="13.4663528"><ele>1328.0</ele><time>2026-05-01T09:09:52.813Z</time></trkpt><trkpt lat="42.6778348" lon="13.46645"><ele>1325.0</ele><time>2026-05-01T09:09:53.813Z</time></trkpt><trkpt lat="42.6777073" lon="13.4665538"><ele>1322.0</ele><time>2026-05-01T09:09:54.814Z</time></trkpt><trkpt lat="42.6775873" lon="13.4666645"><ele>1319.0</ele><time>2026-05-01T09:09:55.814Z</time></trkpt><trkpt lat="42.6774824" lon="13.466766"><ele>1316.0</ele><time>2026-05-01T09:09:56.814Z</time></trkpt><trkpt lat="42.6773802" lon="13.4668554"><ele>1316.0</ele><time>2026-05-01T09:09:57.814Z</time></trkpt><trkpt lat="42.6772937" lon="13.4669053"><ele>1316.0</ele><time>2026-05-01T09:09:58.813Z</time></trkpt><trkpt lat="42.6772065" lon="13.4669365"><ele>1316.0</ele><time>2026-05-01T09:09:59.814Z</time></trkpt><trkpt lat="42.6771325" lon="13.466921"><ele>1316.0</ele><time>2026-05-01T09:10:00.815Z</time></trkpt><trkpt lat="42.6770425" lon="13.4668806"><ele>1316.0</ele><time>2026-05-01T09:10:01.814Z</time></trkpt><trkpt lat="42.6769404" lon="13.4668264"><ele>1321.25</ele><time>2026-05-01T09:10:02.815Z</time></trkpt><trkpt lat="42.6768423" lon="13.4667778"><ele>1326.5</ele><time>2026-05-01T09:10:03.815Z</time></trkpt><trkpt lat="42.6767157" lon="13.4667666"><ele>1331.75</ele><time>2026-05-01T09:10:04.815Z</time></trkpt><trkpt lat="42.6765847" lon="13.4667443"><ele>1337.0</ele><time>2026-05-01T09:10:05.814Z</time></trkpt><trkpt lat="42.676452" lon="13.4667414"><ele>1337.0</ele><time>2026-05-01T09:10:06.814Z</time></trkpt><trkpt lat="42.676299" lon="13.4667961"><ele>1337.0</ele><time>2026-05-01T09:10:07.814Z</time></trkpt><trkpt lat="42.6761532" lon="13.466827"><ele>1337.0</ele><time>2026-05-01T09:10:08.814Z</time></trkpt><trkpt lat="42.6760075" lon="13.4668983"><ele>1342.0</ele><time>2026-05-01T09:10:09.815Z</time></trkpt><trkpt lat="42.6758599" lon="13.466965"><ele>1347.0</ele><time>2026-05-01T09:10:10.815Z</time></trkpt><trkpt lat="42.6757267" lon="13.4670778"><ele>1352.0</ele><time>2026-05-01T09:10:11.813Z</time></trkpt><trkpt lat="42.6755864" lon="13.4672019"><ele>1353.0</ele><time>2026-05-01T09:10:12.814Z</time></trkpt><trkpt lat="42.6754513" lon="13.4673172"><ele>1354.0</ele><time>2026-05-01T09:10:13.814Z</time></trkpt><trkpt lat="42.6753265" lon="13.467435"><ele>1355.0</ele><time>2026-05-01T09:10:14.815Z</time></trkpt><trkpt lat="42.6752075" lon="13.4675397"><ele>1355.0</ele><time>2026-05-01T09:10:15.813Z</time></trkpt><trkpt lat="42.6750981" lon="13.4676582"><ele>1355.0</ele><time>2026-05-01T09:10:16.814Z</time></trkpt><trkpt lat="42.6750065" lon="13.4677847"><ele>1355.0</ele><time>2026-05-01T09:10:17.814Z</time></trkpt><trkpt lat="42.6749255" lon="13.4678942"><ele>1355.0</ele><time>2026-05-01T09:10:18.815Z</time></trkpt><trkpt lat="42.674849" lon="13.4679814"><ele>1349.8</ele><time>2026-05-01T09:10:19.815Z</time></trkpt><trkpt lat="42.6747709" lon="13.4680578"><ele>1344.6</ele><time>2026-05-01T09:10:20.815Z</time></trkpt><trkpt lat="42.6746911" lon="13.4681061"><ele>1339.4</ele><time>2026-05-01T09:10:21.814Z</time></trkpt><trkpt lat="42.6745904" lon="13.4681158"><ele>1334.2</ele><time>2026-05-01T09:10:22.813Z</time></trkpt><trkpt lat="42.6744609" lon="13.4681113"><ele>1329.0</ele><time>2026-05-01T09:10:23.814Z</time></trkpt><trkpt lat="42.6743274" lon="13.4680986"><ele>1329.0</ele><time>2026-05-01T09:10:24.814Z</time></trkpt><trkpt lat="42.6741962" lon="13.4680805"><ele>1329.0</ele><time>2026-05-01T09:10:25.814Z</time></trkpt><trkpt lat="42.6740516" lon="13.4680571"><ele>1329.0</ele><time>2026-05-01T09:10:26.814Z</time></trkpt><trkpt lat="42.6739003" lon="13.4680843"><ele>1329.0</ele><time>2026-05-01T09:10:27.814Z</time></trkpt><trkpt lat="42.6737595" lon="13.4681203"><ele>1329.0</ele><time>2026-05-01T09:10:28.813Z</time></trkpt><trkpt lat="42.6736318" lon="13.4681611"><ele>1329.0</ele><time>2026-05-01T09:10:29.814Z</time></trkpt><trkpt lat="42.673517" lon="13.4681828"><ele>1329.0</ele><time>2026-05-01T09:10:30.813Z</time></trkpt><trkpt lat="42.673405" lon="13.4681889"><ele>1329.0</ele><time>2026-05-01T09:10:31.814Z</time></trkpt><trkpt lat="42.6733226" lon="13.4681488"><ele>1329.0</ele><time>2026-05-01T09:10:32.815Z</time></trkpt><trkpt lat="42.6732186" lon="13.4681038"><ele>1329.75</ele><time>2026-05-01T09:10:33.814Z</time></trkpt><trkpt lat="42.6731107" lon="13.46802"><ele>1330.5</ele><time>2026-05-01T09:10:34.814Z</time></trkpt><trkpt lat="42.6729908" lon="13.4679135"><ele>1331.25</ele><time>2026-05-01T09:10:35.813Z</time></trkpt><trkpt lat="42.6728518" lon="13.4677961"><ele>1332.0</ele><time>2026-05-01T09:10:36.813Z</time></trkpt><trkpt lat="42.6727123" lon="13.4676856"><ele>1337.3333333333333</ele><time>2026-05-01T09:10:37.814Z</time></trkpt><trkpt lat="42.6725784" lon="13.467576"><ele>1342.6666666666665</ele><time>2026-05-01T09:10:38.814Z</time></trkpt><trkpt lat="42.6724439" lon="13.4674725"><ele>1348.0</ele><time>2026-05-01T09:10:39.814Z</time></trkpt><trkpt lat="42.6723176" lon="13.4673604"><ele>1348.0</ele><time>2026-05-01T09:10:40.813Z</time></trkpt><trkpt lat="42.6721964" lon="13.4672572"><ele>1348.0</ele><time>2026-05-01T09:10:41.814Z</time></trkpt><trkpt lat="42.6720813" lon="13.4671716"><ele>1348.0</ele><time>2026-05-01T09:10:42.814Z</time></trkpt><trkpt lat="42.6719702" lon="13.4670834"><ele>1348.0</ele><time>2026-05-01T09:10:43.814Z</time></trkpt><trkpt lat="42.6718625" lon="13.4670125"><ele>1346.2</ele><time>2026-05-01T09:10:44.813Z</time></trkpt><trkpt lat="42.6717921" lon="13.4669155"><ele>1344.4</ele><time>2026-05-01T09:10:45.815Z</time></trkpt><trkpt lat="42.6717348" lon="13.4668153"><ele>1342.6000000000001</ele><time>2026-05-01T09:10:46.813Z</time></trkpt><trkpt lat="42.6716909" lon="13.4667109"><ele>1340.8000000000002</ele><time>2026-05-01T09:10:47.814Z</time></trkpt><trkpt lat="42.6716494" lon="13.4665984"><ele>1339.0</ele><time>2026-05-01T09:10:48.814Z</time></trkpt><trkpt lat="42.6716153" lon="13.4664902"><ele>1339.0</ele><time>2026-05-01T09:10:49.814Z</time></trkpt><trkpt lat="42.671585" lon="13.4663822"><ele>1339.0</ele><time>2026-05-01T09:10:50.814Z</time></trkpt><trkpt lat="42.6715593" lon="13.4662723"><ele>1339.0</ele><time>2026-05-01T09:10:51.814Z</time></trkpt><trkpt lat="42.6715388" lon="13.4661731"><ele>1339.0</ele><time>2026-05-01T09:10:52.814Z</time></trkpt><trkpt lat="42.6715164" lon="13.4660892"><ele>1339.0</ele><time>2026-05-01T09:10:53.815Z</time></trkpt><trkpt lat="42.6714874" lon="13.4659273"><ele>1339.0</ele><time>2026-05-01T09:10:55.814Z</time></trkpt><trkpt lat="42.6714894" lon="13.4657836"><ele>1339.3333333333333</ele><time>2026-05-01T09:10:57.814Z</time></trkpt><trkpt lat="42.6715012" lon="13.4656834"><ele>1339.6666666666665</ele><time>2026-05-01T09:10:59.815Z</time></trkpt><trkpt lat="42.6714603" lon="13.465616"><ele>1340.0</ele><time>2026-05-01T09:11:02.814Z</time></trkpt><trkpt lat="42.671403" lon="13.4656668"><ele>1340.3333333333333</ele><time>2026-05-01T09:11:06.814Z</time></trkpt><trkpt lat="42.6714192" lon="13.4657525"><ele>1340.6666666666667</ele><time>2026-05-01T09:11:20.814Z</time></trkpt><trkpt lat="42.671509" lon="13.4657359"><ele>1341.0</ele><time>2026-05-01T09:11:23.814Z</time></trkpt><trkpt lat="42.6716178" lon="13.4657428"><ele>1341.0</ele><time>2026-05-01T09:11:25.814Z</time></trkpt><trkpt lat="42.6716835" lon="13.465784"><ele>1341.0</ele><time>2026-05-01T09:11:26.814Z</time></trkpt><trkpt lat="42.6717479" lon="13.4658529"><ele>1341.0</ele><time>2026-05-01T09:11:27.814Z</time></trkpt><trkpt lat="42.6718197" lon="13.4659291"><ele>1341.0</ele><time>2026-05-01T09:11:28.815Z</time></trkpt><trkpt lat="42.6718972" lon="13.4660006"><ele>1341.0</ele><time>2026-05-01T09:11:29.813Z</time></trkpt><trkpt lat="42.6719747" lon="13.4660637"><ele>1341.0</ele><time>2026-05-01T09:11:30.814Z</time></trkpt><trkpt lat="42.6720504" lon="13.4661053"><ele>1343.8333333333333</ele><time>2026-05-01T09:11:31.813Z</time></trkpt><trkpt lat="42.6721195" lon="13.4661532"><ele>1346.6666666666667</ele><time>2026-05-01T09:11:32.813Z</time></trkpt><trkpt lat="42.6721881" lon="13.4661864"><ele>1349.5</ele><time>2026-05-01T09:11:33.814Z</time></trkpt><trkpt lat="42.6722509" lon="13.4662169"><ele>1352.3333333333335</ele><time>2026-05-01T09:11:34.815Z</time></trkpt><trkpt lat="42.6723707" lon="13.4662434"><ele>1355.1666666666667</ele><time>2026-05-01T09:11:36.813Z</time></trkpt><trkpt lat="42.6724455" lon="13.4662212"><ele>1358.0</ele><time>2026-05-01T09:11:40.814Z</time></trkpt><trkpt lat="42.6724686" lon="13.4661269"><ele>1358.0</ele><time>2026-05-01T09:11:44.813Z</time></trkpt><trkpt lat="42.6724153" lon="13.4660762"><ele>1358.0</ele><time>2026-05-01T09:12:02.815Z</time></trkpt><trkpt lat="42.6723555" lon="13.4661374"><ele>1358.0</ele><time>2026-05-01T09:12:06.813Z</time></trkpt><trkpt lat="42.6722867" lon="13.4661862"><ele>1358.0</ele><time>2026-05-01T09:12:08.814Z</time></trkpt><trkpt lat="42.6722129" lon="13.4662172"><ele>1358.0</ele><time>2026-05-01T09:12:10.813Z</time></trkpt><trkpt lat="42.6720953" lon="13.4661589"><ele>1358.0</ele><time>2026-05-01T09:12:11.815Z</time></trkpt><trkpt lat="42.6720285" lon="13.4661152"><ele>1355.1666666666667</ele><time>2026-05-01T09:12:12.815Z</time></trkpt><trkpt lat="42.6719313" lon="13.466044"><ele>1352.3333333333335</ele><time>2026-05-01T09:12:13.813Z</time></trkpt><trkpt lat="42.6718577" lon="13.4659839"><ele>1349.5</ele><time>2026-05-01T09:12:14.814Z</time></trkpt><trkpt lat="42.6717956" lon="13.465926"><ele>1346.6666666666667</ele><time>2026-05-01T09:12:15.814Z</time></trkpt><trkpt lat="42.6717446" lon="13.4658749"><ele>1343.8333333333333</ele><time>2026-05-01T09:12:16.813Z</time></trkpt><trkpt lat="42.6716671" lon="13.4657881"><ele>1341.0</ele><time>2026-05-01T09:12:18.814Z</time></trkpt><trkpt lat="42.6715911" lon="13.4657273"><ele>1341.0000000000002</ele><time>2026-05-01T09:12:20.814Z</time></trkpt><trkpt lat="42.671529" lon="13.4656926"><ele>1341.0</ele><time>2026-05-01T09:12:23.815Z</time></trkpt><trkpt lat="42.6714561" lon="13.4656749"><ele>1341.0</ele><time>2026-05-01T09:12:25.813Z</time></trkpt><trkpt lat="42.6714006" lon="13.4657377"><ele>1341.0</ele><time>2026-05-01T09:12:28.813Z</time></trkpt><trkpt lat="42.6713697" lon="13.4658282"><ele>1341.0</ele><time>2026-05-01T09:13:30.813Z</time></trkpt><trkpt lat="42.6712901" lon="13.4658147"><ele>1341.0000000000002</ele><time>2026-05-01T09:13:34.813Z</time></trkpt><trkpt lat="42.6712255" lon="13.4657998"><ele>1341.0</ele><time>2026-05-01T09:13:38.813Z</time></trkpt><trkpt lat="42.6711768" lon="13.4657305"><ele>1341.0</ele><time>2026-05-01T09:13:44.813Z</time></trkpt><trkpt lat="42.671245" lon="13.4656247"><ele>1341.0</ele><time>2026-05-01T09:13:48.813Z</time></trkpt><trkpt lat="42.6711736" lon="13.4656144"><ele>1341.0</ele><time>2026-05-01T09:13:54.813Z</time></trkpt><trkpt lat="42.6711402" lon="13.4655194"><ele>1341.0</ele><time>2026-05-01T09:13:58.814Z</time></trkpt><trkpt lat="42.6711816" lon="13.4657373"><ele>1341.0</ele><time>2026-05-01T09:14:32.598Z</time></trkpt><trkpt lat="42.6711684" lon="13.4656351"><ele>1341.0</ele><time>2026-05-01T09:16:49.813Z</time></trkpt><trkpt lat="42.6712587" lon="13.4656229"><ele>1341.0</ele><time>2026-05-01T09:16:55.812Z</time></trkpt><trkpt lat="42.6711834" lon="13.4657125"><ele>1341.0</ele><time>2026-05-01T09:19:20.898Z</time></trkpt><trkpt lat="42.6713469" lon="13.4657407"><ele>1341.0</ele><time>2026-05-01T09:19:26.812Z</time></trkpt><trkpt lat="42.6713049" lon="13.4656741"><ele>1341.0</ele><time>2026-05-01T09:19:50.811Z</time></trkpt><trkpt lat="42.6712429" lon="13.4656895"><ele>1341.0000000000002</ele><time>2026-05-01T09:24:38.812Z</time></trkpt><trkpt lat="42.6713106" lon="13.465718"><ele>1341.0</ele><time>2026-05-01T09:40:36.872Z</time></trkpt><trkpt lat="42.6713237" lon="13.4656054"><ele>1341.0</ele><time>2026-05-01T09:40:46.806Z</time></trkpt><trkpt lat="42.6713911" lon="13.4655906"><ele>1341.0</ele><time>2026-05-01T09:40:56.872Z</time></trkpt><trkpt lat="42.6714231" lon="13.4656664"><ele>1341.0</ele><time>2026-05-01T09:41:00.806Z</time></trkpt><trkpt lat="42.6713678" lon="13.4657232"><ele>1341.0000000000002</ele><time>2026-05-01T09:43:14.806Z</time></trkpt><trkpt lat="42.6714112" lon="13.4656526"><ele>1341.0</ele><time>2026-05-01T09:43:33.804Z</time></trkpt><trkpt lat="42.6713508" lon="13.4656281"><ele>1341.0</ele><time>2026-05-01T09:43:36.804Z</time></trkpt><trkpt lat="42.6712864" lon="13.4656183"><ele>1341.0</ele><time>2026-05-01T09:43:43.805Z</time></trkpt><trkpt lat="42.6711646" lon="13.4655403"><ele>1341.0</ele><time>2026-05-01T09:44:05.805Z</time></trkpt><trkpt lat="42.6710893" lon="13.4654978"><ele>1341.0</ele><time>2026-05-01T09:44:06.806Z</time></trkpt><trkpt lat="42.6710085" lon="13.4654713"><ele>1341.0</ele><time>2026-05-01T09:44:07.806Z</time></trkpt><trkpt lat="42.6709258" lon="13.4654581"><ele>1341.0</ele><time>2026-05-01T09:44:08.805Z</time></trkpt><trkpt lat="42.6708435" lon="13.4654499"><ele>1341.3333333333333</ele><time>2026-05-01T09:44:09.806Z</time></trkpt><trkpt lat="42.6707648" lon="13.4654505"><ele>1341.6666666666667</ele><time>2026-05-01T09:44:10.806Z</time></trkpt><trkpt lat="42.6706847" lon="13.4654464"><ele>1342.0</ele><time>2026-05-01T09:44:11.805Z</time></trkpt><trkpt lat="42.6705968" lon="13.4654514"><ele>1342.3333333333335</ele><time>2026-05-01T09:44:12.805Z</time></trkpt><trkpt lat="42.6705034" lon="13.465462"><ele>1342.6666666666667</ele><time>2026-05-01T09:44:13.806Z</time></trkpt><trkpt lat="42.6704054" lon="13.4654757"><ele>1343.0</ele><time>2026-05-01T09:44:14.806Z</time></trkpt><trkpt lat="42.6703165" lon="13.4655106"><ele>1344.1666666666667</ele><time>2026-05-01T09:44:15.806Z</time></trkpt><trkpt lat="42.6702271" lon="13.4655419"><ele>1345.3333333333335</ele><time>2026-05-01T09:44:16.805Z</time></trkpt><trkpt lat="42.6701376" lon="13.4655729"><ele>1346.5</ele><time>2026-05-01T09:44:17.805Z</time></trkpt><trkpt lat="42.6700565" lon="13.4656173"><ele>1347.6666666666667</ele><time>2026-05-01T09:44:18.806Z</time></trkpt><trkpt lat="42.6699744" lon="13.4656464"><ele>1348.8333333333333</ele><time>2026-05-01T09:44:19.805Z</time></trkpt><trkpt lat="42.6698899" lon="13.4656745"><ele>1350.0</ele><time>2026-05-01T09:44:20.805Z</time></trkpt><trkpt lat="42.6697803" lon="13.465715"><ele>1350.0</ele><time>2026-05-01T09:44:21.805Z</time></trkpt><trkpt lat="42.6696612" lon="13.4657409"><ele>1350.0</ele><time>2026-05-01T09:44:22.805Z</time></trkpt><trkpt lat="42.6695399" lon="13.465787"><ele>1350.0</ele><time>2026-05-01T09:44:23.805Z</time></trkpt><trkpt lat="42.6694131" lon="13.4658352"><ele>1350.0</ele><time>2026-05-01T09:44:24.805Z</time></trkpt><trkpt lat="42.6692726" lon="13.4658616"><ele>1350.25</ele><time>2026-05-01T09:44:25.806Z</time></trkpt><trkpt lat="42.6691384" lon="13.4659482"><ele>1350.5</ele><time>2026-05-01T09:44:26.804Z</time></trkpt><trkpt lat="42.6690128" lon="13.4660189"><ele>1350.75</ele><time>2026-05-01T09:44:27.804Z</time></trkpt><trkpt lat="42.6688872" lon="13.4660889"><ele>1351.0</ele><time>2026-05-01T09:44:28.805Z</time></trkpt><trkpt lat="42.6687716" lon="13.4661483"><ele>1351.0</ele><time>2026-05-01T09:44:29.805Z</time></trkpt><trkpt lat="42.6686582" lon="13.4662433"><ele>1351.0</ele><time>2026-05-01T09:44:30.805Z</time></trkpt><trkpt lat="42.6685317" lon="13.4663045"><ele>1351.0</ele><time>2026-05-01T09:44:31.805Z</time></trkpt><trkpt lat="42.6684163" lon="13.4662455"><ele>1351.0</ele><time>2026-05-01T09:44:32.804Z</time></trkpt><trkpt lat="42.668292" lon="13.4662351"><ele>1352.4</ele><time>2026-05-01T09:44:33.805Z</time></trkpt><trkpt lat="42.6681858" lon="13.4661639"><ele>1353.8</ele><time>2026-05-01T09:44:34.805Z</time></trkpt><trkpt lat="42.6681142" lon="13.4660496"><ele>1355.2</ele><time>2026-05-01T09:44:35.805Z</time></trkpt><trkpt lat="42.6680232" lon="13.4659693"><ele>1356.6000000000001</ele><time>2026-05-01T09:44:36.805Z</time></trkpt><trkpt lat="42.6679618" lon="13.4658639"><ele>1358.0</ele><time>2026-05-01T09:44:37.805Z</time></trkpt><trkpt lat="42.6678794" lon="13.4657399"><ele>1358.0</ele><time>2026-05-01T09:44:38.806Z</time></trkpt><trkpt lat="42.6678323" lon="13.4656315"><ele>1358.0</ele><time>2026-05-01T09:44:39.806Z</time></trkpt><trkpt lat="42.6677677" lon="13.465557"><ele>1358.0</ele><time>2026-05-01T09:44:40.804Z</time></trkpt><trkpt lat="42.6677145" lon="13.4654876"><ele>1358.0</ele><time>2026-05-01T09:44:41.804Z</time></trkpt><trkpt lat="42.6676598" lon="13.4654155"><ele>1358.0</ele><time>2026-05-01T09:44:42.803Z</time></trkpt><trkpt lat="42.6676158" lon="13.4653469"><ele>1358.0</ele><time>2026-05-01T09:44:43.804Z</time></trkpt><trkpt lat="42.6675328" lon="13.465351"><ele>1360.0</ele><time>2026-05-01T09:44:45.804Z</time></trkpt><trkpt lat="42.667471" lon="13.4654216"><ele>1362.0</ele><time>2026-05-01T09:44:47.803Z</time></trkpt><trkpt lat="42.6674302" lon="13.4655555"><ele>1364.0</ele><time>2026-05-01T09:44:49.803Z</time></trkpt><trkpt lat="42.6674019" lon="13.46564"><ele>1366.0</ele><time>2026-05-01T09:44:51.804Z</time></trkpt><trkpt lat="42.6673021" lon="13.4656556"><ele>1368.0</ele><time>2026-05-01T09:44:59.804Z</time></trkpt><trkpt lat="42.6671779" lon="13.4655925"><ele>1368.0</ele><time>2026-05-01T09:45:01.804Z</time></trkpt><trkpt lat="42.6670855" lon="13.4655167"><ele>1368.0</ele><time>2026-05-01T09:45:03.804Z</time></trkpt><trkpt lat="42.6670113" lon="13.4654439"><ele>1368.0</ele><time>2026-05-01T09:45:05.804Z</time></trkpt><trkpt lat="42.6669295" lon="13.4654067"><ele>1368.0</ele><time>2026-05-01T09:45:07.803Z</time></trkpt><trkpt lat="42.6668652" lon="13.4653656"><ele>1368.0</ele><time>2026-05-01T09:45:11.805Z</time></trkpt><trkpt lat="42.666795" lon="13.4653346"><ele>1368.0</ele><time>2026-05-01T09:45:17.804Z</time></trkpt><trkpt lat="42.6667358" lon="13.4653022"><ele>1369.1666666666667</ele><time>2026-05-01T09:45:18.804Z</time></trkpt><trkpt lat="42.6666443" lon="13.4652425"><ele>1370.3333333333333</ele><time>2026-05-01T09:45:20.804Z</time></trkpt><trkpt lat="42.6665779" lon="13.4652205"><ele>1371.5</ele><time>2026-05-01T09:45:21.804Z</time></trkpt><trkpt lat="42.6664737" lon="13.4651901"><ele>1372.6666666666665</ele><time>2026-05-01T09:45:23.804Z</time></trkpt><trkpt lat="42.6663984" lon="13.4651553"><ele>1373.8333333333333</ele><time>2026-05-01T09:45:24.804Z</time></trkpt><trkpt lat="42.6663364" lon="13.4651012"><ele>1375.0</ele><time>2026-05-01T09:45:25.804Z</time></trkpt><trkpt lat="42.6662574" lon="13.4651276"><ele>1375.0</ele><time>2026-05-01T09:45:27.804Z</time></trkpt><trkpt lat="42.6661616" lon="13.4650872"><ele>1375.0</ele><time>2026-05-01T09:45:29.803Z</time></trkpt><trkpt lat="42.6660732" lon="13.4650588"><ele>1375.0</ele><time>2026-05-01T09:45:31.804Z</time></trkpt><trkpt lat="42.6660174" lon="13.4649827"><ele>1375.0</ele><time>2026-05-01T09:45:33.804Z</time></trkpt><trkpt lat="42.6659571" lon="13.464908"><ele>1375.0</ele><time>2026-05-01T09:45:36.804Z</time></trkpt><trkpt lat="42.6659152" lon="13.4648364"><ele>1375.0</ele><time>2026-05-01T09:45:38.804Z</time></trkpt><trkpt lat="42.6658223" lon="13.4648125"><ele>1373.8</ele><time>2026-05-01T09:45:41.805Z</time></trkpt><trkpt lat="42.6657231" lon="13.4648659"><ele>1372.6</ele><time>2026-05-01T09:45:43.805Z</time></trkpt><trkpt lat="42.6656069" lon="13.4648315"><ele>1371.4</ele><time>2026-05-01T09:45:45.804Z</time></trkpt><trkpt lat="42.6654961" lon="13.4647926"><ele>1370.2</ele><time>2026-05-01T09:45:47.804Z</time></trkpt><trkpt lat="42.6653959" lon="13.4647471"><ele>1369.0</ele><time>2026-05-01T09:45:49.803Z</time></trkpt><trkpt lat="42.6653364" lon="13.4646987"><ele>1369.0000000000002</ele><time>2026-05-01T09:45:52.805Z</time></trkpt><trkpt lat="42.6652834" lon="13.464645"><ele>1369.0</ele><time>2026-05-01T09:45:56.804Z</time></trkpt><trkpt lat="42.6652093" lon="13.4645728"><ele>1369.0</ele><time>2026-05-01T09:46:23.804Z</time></trkpt><trkpt lat="42.6651501" lon="13.4645362"><ele>1369.0</ele><time>2026-05-01T09:46:25.804Z</time></trkpt><trkpt lat="42.6650855" lon="13.464506"><ele>1369.0</ele><time>2026-05-01T09:46:27.803Z</time></trkpt><trkpt lat="42.6650772" lon="13.4644176"><ele>1369.0000000000002</ele><time>2026-05-01T09:46:31.803Z</time></trkpt><trkpt lat="42.6651537" lon="13.4644427"><ele>1369.0</ele><time>2026-05-01T09:46:34.804Z</time></trkpt><trkpt lat="42.6652213" lon="13.4645118"><ele>1369.0</ele><time>2026-05-01T09:46:36.804Z</time></trkpt><trkpt lat="42.665286" lon="13.4645932"><ele>1369.0</ele><time>2026-05-01T09:46:37.804Z</time></trkpt><trkpt lat="42.665377" lon="13.464652"><ele>1369.0</ele><time>2026-05-01T09:46:39.804Z</time></trkpt><trkpt lat="42.6654313" lon="13.4647029"><ele>1369.0</ele><time>2026-05-01T09:46:42.803Z</time></trkpt><trkpt lat="42.6654999" lon="13.4647376"><ele>1369.0</ele><time>2026-05-01T09:46:44.805Z</time></trkpt><trkpt lat="42.6655815" lon="13.4647677"><ele>1369.0</ele><time>2026-05-01T09:46:46.804Z</time></trkpt><trkpt lat="42.6656801" lon="13.4648054"><ele>1369.0</ele><time>2026-05-01T09:46:48.804Z</time></trkpt><trkpt lat="42.6658022" lon="13.4648032"><ele>1369.0</ele><time>2026-05-01T09:46:50.803Z</time></trkpt><trkpt lat="42.6658692" lon="13.4647789"><ele>1369.0</ele><time>2026-05-01T09:46:51.803Z</time></trkpt><trkpt lat="42.6659239" lon="13.4647257"><ele>1369.0</ele><time>2026-05-01T09:46:52.804Z</time></trkpt><trkpt lat="42.6659798" lon="13.4646793"><ele>1369.0</ele><time>2026-05-01T09:46:53.803Z</time></trkpt><trkpt lat="42.6660337" lon="13.4646288"><ele>1369.0</ele><time>2026-05-01T09:46:54.803Z</time></trkpt><trkpt lat="42.6660921" lon="13.4645623"><ele>1368.8333333333333</ele><time>2026-05-01T09:46:55.803Z</time></trkpt><trkpt lat="42.6661853" lon="13.4644545"><ele>1368.6666666666665</ele><time>2026-05-01T09:46:57.803Z</time></trkpt><trkpt lat="42.6662474" lon="13.4644113"><ele>1368.5</ele><time>2026-05-01T09:46:58.803Z</time></trkpt><trkpt lat="42.6663083" lon="13.4643719"><ele>1368.3333333333333</ele><time>2026-05-01T09:46:59.803Z</time></trkpt><trkpt lat="42.66638" lon="13.4643275"><ele>1368.1666666666667</ele><time>2026-05-01T09:47:00.803Z</time></trkpt><trkpt lat="42.6664612" lon="13.4642923"><ele>1368.0</ele><time>2026-05-01T09:47:01.803Z</time></trkpt><trkpt lat="42.6665331" lon="13.4642527"><ele>1368.0</ele><time>2026-05-01T09:47:02.803Z</time></trkpt><trkpt lat="42.6666183" lon="13.4642586"><ele>1368.0</ele><time>2026-05-01T09:47:03.804Z</time></trkpt><trkpt lat="42.6667078" lon="13.4642692"><ele>1368.0</ele><time>2026-05-01T09:47:04.805Z</time></trkpt><trkpt lat="42.6668176" lon="13.4643479"><ele>1368.0</ele><time>2026-05-01T09:47:05.804Z</time></trkpt><trkpt lat="42.6669218" lon="13.4644305"><ele>1368.0</ele><time>2026-05-01T09:47:06.804Z</time></trkpt><trkpt lat="42.6669848" lon="13.4644568"><ele>1368.1666666666667</ele><time>2026-05-01T09:47:07.804Z</time></trkpt><trkpt lat="42.6670506" lon="13.4645268"><ele>1368.3333333333333</ele><time>2026-05-01T09:47:08.803Z</time></trkpt><trkpt lat="42.6671139" lon="13.4646064"><ele>1368.5</ele><time>2026-05-01T09:47:09.804Z</time></trkpt><trkpt lat="42.667176" lon="13.4646442"><ele>1368.6666666666665</ele><time>2026-05-01T09:47:10.805Z</time></trkpt><trkpt lat="42.6672344" lon="13.4647195"><ele>1368.8333333333333</ele><time>2026-05-01T09:47:11.805Z</time></trkpt><trkpt lat="42.6672835" lon="13.4648133"><ele>1369.0</ele><time>2026-05-01T09:47:13.804Z</time></trkpt><trkpt lat="42.6673222" lon="13.4648869"><ele>1369.0</ele><time>2026-05-01T09:47:15.803Z</time></trkpt><trkpt lat="42.6673842" lon="13.4649845"><ele>1369.0</ele><time>2026-05-01T09:47:18.805Z</time></trkpt><trkpt lat="42.6674104" lon="13.4650634"><ele>1369.0</ele><time>2026-05-01T09:47:21.804Z</time></trkpt><trkpt lat="42.6674595" lon="13.4651562"><ele>1369.0</ele><time>2026-05-01T09:47:23.803Z</time></trkpt><trkpt lat="42.6675209" lon="13.4652785"><ele>1369.0</ele><time>2026-05-01T09:47:24.805Z</time></trkpt><trkpt lat="42.6675722" lon="13.4653419"><ele>1369.0</ele><time>2026-05-01T09:47:25.804Z</time></trkpt><trkpt lat="42.6676304" lon="13.4654161"><ele>1368.8333333333333</ele><time>2026-05-01T09:47:26.804Z</time></trkpt><trkpt lat="42.6677204" lon="13.465499"><ele>1368.6666666666665</ele><time>2026-05-01T09:47:27.804Z</time></trkpt><trkpt lat="42.6677781" lon="13.4655754"><ele>1368.5</ele><time>2026-05-01T09:47:28.803Z</time></trkpt><trkpt lat="42.6678186" lon="13.4656411"><ele>1368.3333333333333</ele><time>2026-05-01T09:47:29.805Z</time></trkpt><trkpt lat="42.6678773" lon="13.4657171"><ele>1368.1666666666667</ele><time>2026-05-01T09:47:30.804Z</time></trkpt><trkpt lat="42.6679405" lon="13.4657977"><ele>1368.0</ele><time>2026-05-01T09:47:31.805Z</time></trkpt><trkpt lat="42.6679978" lon="13.4658633"><ele>1366.0</ele><time>2026-05-01T09:47:32.805Z</time></trkpt><trkpt lat="42.6680928" lon="13.4659152"><ele>1364.0</ele><time>2026-05-01T09:47:33.805Z</time></trkpt><trkpt lat="42.6681749" lon="13.4659592"><ele>1362.0</ele><time>2026-05-01T09:47:34.804Z</time></trkpt><trkpt lat="42.6682792" lon="13.4660005"><ele>1360.0</ele><time>2026-05-01T09:47:35.804Z</time></trkpt><trkpt lat="42.6683515" lon="13.4660502"><ele>1358.0</ele><time>2026-05-01T09:47:36.804Z</time></trkpt><trkpt lat="42.6684284" lon="13.4661075"><ele>1358.0</ele><time>2026-05-01T09:47:37.804Z</time></trkpt><trkpt lat="42.6685181" lon="13.4661793"><ele>1358.0</ele><time>2026-05-01T09:47:38.805Z</time></trkpt><trkpt lat="42.6686099" lon="13.4661741"><ele>1358.0</ele><time>2026-05-01T09:47:39.804Z</time></trkpt><trkpt lat="42.6687045" lon="13.4661909"><ele>1358.0</ele><time>2026-05-01T09:47:40.804Z</time></trkpt><trkpt lat="42.6687865" lon="13.4661013"><ele>1358.0</ele><time>2026-05-01T09:47:41.803Z</time></trkpt><trkpt lat="42.6688857" lon="13.4660569"><ele>1356.25</ele><time>2026-05-01T09:47:42.804Z</time></trkpt><trkpt lat="42.6690025" lon="13.4660149"><ele>1354.5</ele><time>2026-05-01T09:47:43.804Z</time></trkpt><trkpt lat="42.6691487" lon="13.4659486"><ele>1352.75</ele><time>2026-05-01T09:47:44.803Z</time></trkpt><trkpt lat="42.6692919" lon="13.4658768"><ele>1351.0</ele><time>2026-05-01T09:47:45.804Z</time></trkpt><trkpt lat="42.6694097" lon="13.4658439"><ele>1350.75</ele><time>2026-05-01T09:47:46.802Z</time></trkpt><trkpt lat="42.6695218" lon="13.4657962"><ele>1350.5</ele><time>2026-05-01T09:47:47.803Z</time></trkpt><trkpt lat="42.6696579" lon="13.4657592"><ele>1350.25</ele><time>2026-05-01T09:47:48.803Z</time></trkpt><trkpt lat="42.6697741" lon="13.4657188"><ele>1350.0</ele><time>2026-05-01T09:47:49.803Z</time></trkpt><trkpt lat="42.6699009" lon="13.4656792"><ele>1350.0</ele><time>2026-05-01T09:47:50.804Z</time></trkpt><trkpt lat="42.6700309" lon="13.4656338"><ele>1350.0</ele><time>2026-05-01T09:47:51.803Z</time></trkpt><trkpt lat="42.6701381" lon="13.4655924"><ele>1350.0</ele><time>2026-05-01T09:47:52.802Z</time></trkpt><trkpt lat="42.6702491" lon="13.4655527"><ele>1350.0</ele><time>2026-05-01T09:47:53.803Z</time></trkpt><trkpt lat="42.6703502" lon="13.4655258"><ele>1348.6</ele><time>2026-05-01T09:47:54.803Z</time></trkpt><trkpt lat="42.6704417" lon="13.4654963"><ele>1347.2</ele><time>2026-05-01T09:47:55.804Z</time></trkpt><trkpt lat="42.6705324" lon="13.4654704"><ele>1345.8000000000002</ele><time>2026-05-01T09:47:56.803Z</time></trkpt><trkpt lat="42.6706242" lon="13.4654618"><ele>1344.4</ele><time>2026-05-01T09:47:57.804Z</time></trkpt><trkpt lat="42.670714" lon="13.4654558"><ele>1343.0</ele><time>2026-05-01T09:47:58.804Z</time></trkpt><trkpt lat="42.6708023" lon="13.4654622"><ele>1343.0</ele><time>2026-05-01T09:47:59.803Z</time></trkpt><trkpt lat="42.6708845" lon="13.4654622"><ele>1343.0</ele><time>2026-05-01T09:48:00.804Z</time></trkpt><trkpt lat="42.670964" lon="13.4654729"><ele>1343.0</ele><time>2026-05-01T09:48:01.802Z</time></trkpt><trkpt lat="42.6710352" lon="13.4654761"><ele>1343.0</ele><time>2026-05-01T09:48:02.802Z</time></trkpt><trkpt lat="42.671104" lon="13.4654826"><ele>1343.0</ele><time>2026-05-01T09:48:03.802Z</time></trkpt><trkpt lat="42.671176" lon="13.4654791"><ele>1343.0</ele><time>2026-05-01T09:48:04.802Z</time></trkpt><trkpt lat="42.671249" lon="13.4654736"><ele>1343.0</ele><time>2026-05-01T09:48:05.803Z</time></trkpt><trkpt lat="42.671355" lon="13.4654508"><ele>1342.6000000000001</ele><time>2026-05-01T09:48:07.803Z</time></trkpt><trkpt lat="42.6714604" lon="13.4654303"><ele>1342.2</ele><time>2026-05-01T09:48:09.804Z</time></trkpt><trkpt lat="42.6715462" lon="13.465401"><ele>1341.8</ele><time>2026-05-01T09:48:11.804Z</time></trkpt><trkpt lat="42.6716491" lon="13.4652997"><ele>1341.4</ele><time>2026-05-01T09:48:13.804Z</time></trkpt><trkpt lat="42.6717155" lon="13.465195"><ele>1341.0</ele><time>2026-05-01T09:48:14.803Z</time></trkpt><trkpt lat="42.6717854" lon="13.4650796"><ele>1341.0</ele><time>2026-05-01T09:48:15.803Z</time></trkpt><trkpt lat="42.6718633" lon="13.4649387"><ele>1341.0</ele><time>2026-05-01T09:48:16.804Z</time></trkpt><trkpt lat="42.6719492" lon="13.4648022"><ele>1341.0</ele><time>2026-05-01T09:48:17.803Z</time></trkpt><trkpt lat="42.6720604" lon="13.4647167"><ele>1341.0</ele><time>2026-05-01T09:48:18.803Z</time></trkpt><trkpt lat="42.6721544" lon="13.4645887"><ele>1340.25</ele><time>2026-05-01T09:48:19.803Z</time></trkpt><trkpt lat="42.672259" lon="13.4645165"><ele>1339.5</ele><time>2026-05-01T09:48:20.803Z</time></trkpt><trkpt lat="42.6723568" lon="13.4644682"><ele>1338.75</ele><time>2026-05-01T09:48:21.802Z</time></trkpt><trkpt lat="42.6724608" lon="13.4644408"><ele>1338.0</ele><time>2026-05-01T09:48:22.804Z</time></trkpt><trkpt lat="42.6725852" lon="13.4644585"><ele>1338.0</ele><time>2026-05-01T09:48:23.804Z</time></trkpt><trkpt lat="42.6727075" lon="13.4644895"><ele>1338.0</ele><time>2026-05-01T09:48:24.803Z</time></trkpt><trkpt lat="42.6728342" lon="13.4645359"><ele>1338.0</ele><time>2026-05-01T09:48:25.803Z</time></trkpt><trkpt lat="42.6729514" lon="13.4645905"><ele>1338.0</ele><time>2026-05-01T09:48:26.804Z</time></trkpt><trkpt lat="42.6730663" lon="13.4646329"><ele>1336.4</ele><time>2026-05-01T09:48:27.803Z</time></trkpt><trkpt lat="42.6731765" lon="13.4646737"><ele>1334.8000000000002</ele><time>2026-05-01T09:48:28.803Z</time></trkpt><trkpt lat="42.6732886" lon="13.4646995"><ele>1333.2</ele><time>2026-05-01T09:48:29.803Z</time></trkpt><trkpt lat="42.6733935" lon="13.4646969"><ele>1331.6</ele><time>2026-05-01T09:48:30.803Z</time></trkpt><trkpt lat="42.6734899" lon="13.4646581"><ele>1330.0</ele><time>2026-05-01T09:48:31.804Z</time></trkpt><trkpt lat="42.6735886" lon="13.4645686"><ele>1334.25</ele><time>2026-05-01T09:48:32.804Z</time></trkpt><trkpt lat="42.6736832" lon="13.4644614"><ele>1338.5</ele><time>2026-05-01T09:48:33.802Z</time></trkpt><trkpt lat="42.673782" lon="13.4643246"><ele>1342.75</ele><time>2026-05-01T09:48:34.803Z</time></trkpt><trkpt lat="42.6738625" lon="13.4641646"><ele>1347.0</ele><time>2026-05-01T09:48:35.804Z</time></trkpt><trkpt lat="42.6739304" lon="13.4639968"><ele>1347.0</ele><time>2026-05-01T09:48:36.803Z</time></trkpt><trkpt lat="42.6739718" lon="13.4638104"><ele>1347.0</ele><time>2026-05-01T09:48:37.803Z</time></trkpt><trkpt lat="42.674015" lon="13.4636304"><ele>1347.0</ele><time>2026-05-01T09:48:38.804Z</time></trkpt><trkpt lat="42.6740673" lon="13.4634777"><ele>1347.0</ele><time>2026-05-01T09:48:39.803Z</time></trkpt><trkpt lat="42.6741379" lon="13.4633459"><ele>1346.75</ele><time>2026-05-01T09:48:40.804Z</time></trkpt><trkpt lat="42.6742118" lon="13.4632079"><ele>1346.5</ele><time>2026-05-01T09:48:41.803Z</time></trkpt><trkpt lat="42.6743367" lon="13.4631156"><ele>1346.25</ele><time>2026-05-01T09:48:42.803Z</time></trkpt><trkpt lat="42.6744531" lon="13.4629921"><ele>1346.0</ele><time>2026-05-01T09:48:43.803Z</time></trkpt><trkpt lat="42.6745906" lon="13.4628979"><ele>1338.75</ele><time>2026-05-01T09:48:44.802Z</time></trkpt><trkpt lat="42.6747212" lon="13.462813"><ele>1331.5</ele><time>2026-05-01T09:48:45.803Z</time></trkpt><trkpt lat="42.6748398" lon="13.4627558"><ele>1324.25</ele><time>2026-05-01T09:48:46.803Z</time></trkpt><trkpt lat="42.6749598" lon="13.4627234"><ele>1317.0</ele><time>2026-05-01T09:48:47.803Z</time></trkpt><trkpt lat="42.6750888" lon="13.4627074"><ele>1317.0</ele><time>2026-05-01T09:48:48.803Z</time></trkpt><trkpt lat="42.6752218" lon="13.4627021"><ele>1317.0</ele><time>2026-05-01T09:48:49.802Z</time></trkpt><trkpt lat="42.6753672" lon="13.4627087"><ele>1317.0</ele><time>2026-05-01T09:48:50.804Z</time></trkpt><trkpt lat="42.6755063" lon="13.4627144"><ele>1317.0</ele><time>2026-05-01T09:48:51.803Z</time></trkpt><trkpt lat="42.6756413" lon="13.4627238"><ele>1317.6</ele><time>2026-05-01T09:48:52.803Z</time></trkpt><trkpt lat="42.6757674" lon="13.4627307"><ele>1318.1999999999998</ele><time>2026-05-01T09:48:53.802Z</time></trkpt><trkpt lat="42.6758821" lon="13.4627313"><ele>1318.8</ele><time>2026-05-01T09:48:54.803Z</time></trkpt><trkpt lat="42.6759875" lon="13.4627236"><ele>1319.4</ele><time>2026-05-01T09:48:55.803Z</time></trkpt><trkpt lat="42.6760736" lon="13.4626919"><ele>1320.0</ele><time>2026-05-01T09:48:56.803Z</time></trkpt><trkpt lat="42.6761522" lon="13.4626393"><ele>1319.2</ele><time>2026-05-01T09:48:57.803Z</time></trkpt><trkpt lat="42.6762164" lon="13.4625688"><ele>1318.4</ele><time>2026-05-01T09:48:58.803Z</time></trkpt><trkpt lat="42.6762629" lon="13.4624722"><ele>1317.6</ele><time>2026-05-01T09:48:59.803Z</time></trkpt><trkpt lat="42.6762963" lon="13.4623602"><ele>1316.8</ele><time>2026-05-01T09:49:00.803Z</time></trkpt><trkpt lat="42.6763337" lon="13.462218"><ele>1316.0</ele><time>2026-05-01T09:49:01.803Z</time></trkpt><trkpt lat="42.6763289" lon="13.4620898"><ele>1316.0</ele><time>2026-05-01T09:49:02.803Z</time></trkpt><trkpt lat="42.6763677" lon="13.4619736"><ele>1316.0</ele><time>2026-05-01T09:49:03.802Z</time></trkpt><trkpt lat="42.6764361" lon="13.4618665"><ele>1316.0</ele><time>2026-05-01T09:49:04.802Z</time></trkpt><trkpt lat="42.6765205" lon="13.4617787"><ele>1316.0</ele><time>2026-05-01T09:49:05.804Z</time></trkpt><trkpt lat="42.6766281" lon="13.4616955"><ele>1316.0</ele><time>2026-05-01T09:49:06.804Z</time></trkpt><trkpt lat="42.6767509" lon="13.4616136"><ele>1316.0</ele><time>2026-05-01T09:49:07.802Z</time></trkpt><trkpt lat="42.6768795" lon="13.4615307"><ele>1316.0</ele><time>2026-05-01T09:49:08.803Z</time></trkpt><trkpt lat="42.677001" lon="13.4614533"><ele>1316.0</ele><time>2026-05-01T09:49:09.803Z</time></trkpt><trkpt lat="42.6771164" lon="13.4613977"><ele>1316.0</ele><time>2026-05-01T09:49:10.803Z</time></trkpt><trkpt lat="42.6772206" lon="13.461359"><ele>1314.1999999999998</ele><time>2026-05-01T09:49:11.804Z</time></trkpt><trkpt lat="42.6773076" lon="13.461322"><ele>1312.3999999999999</ele><time>2026-05-01T09:49:12.803Z</time></trkpt><trkpt lat="42.6773803" lon="13.4612734"><ele>1310.6</ele><time>2026-05-01T09:49:13.803Z</time></trkpt><trkpt lat="42.6774264" lon="13.4611751"><ele>1308.8</ele><time>2026-05-01T09:49:14.803Z</time></trkpt><trkpt lat="42.6774759" lon="13.4610837"><ele>1307.0</ele><time>2026-05-01T09:49:15.802Z</time></trkpt><trkpt lat="42.6774987" lon="13.4609395"><ele>1307.0</ele><time>2026-05-01T09:49:16.803Z</time></trkpt><trkpt lat="42.6775394" lon="13.4608084"><ele>1307.0</ele><time>2026-05-01T09:49:17.804Z</time></trkpt><trkpt lat="42.6775943" lon="13.4606872"><ele>1307.0</ele><time>2026-05-01T09:49:18.804Z</time></trkpt><trkpt lat="42.6776541" lon="13.4605571"><ele>1307.0</ele><time>2026-05-01T09:49:19.804Z</time></trkpt><trkpt lat="42.6777247" lon="13.4604363"><ele>1307.0</ele><time>2026-05-01T09:49:20.803Z</time></trkpt><trkpt lat="42.6777997" lon="13.4603096"><ele>1306.3999999999999</ele><time>2026-05-01T09:49:21.802Z</time></trkpt><trkpt lat="42.6778848" lon="13.4602056"><ele>1305.8</ele><time>2026-05-01T09:49:22.802Z</time></trkpt><trkpt lat="42.6779698" lon="13.4601067"><ele>1305.2</ele><time>2026-05-01T09:49:23.802Z</time></trkpt><trkpt lat="42.6780619" lon="13.4600207"><ele>1304.6</ele><time>2026-05-01T09:49:24.804Z</time></trkpt><trkpt lat="42.6781614" lon="13.459961"><ele>1304.0</ele><time>2026-05-01T09:49:25.802Z</time></trkpt><trkpt lat="42.6782594" lon="13.4599087"><ele>1304.0</ele><time>2026-05-01T09:49:26.802Z</time></trkpt><trkpt lat="42.6783702" lon="13.4598732"><ele>1304.0</ele><time>2026-05-01T09:49:27.803Z</time></trkpt><trkpt lat="42.6784769" lon="13.4598448"><ele>1304.0</ele><time>2026-05-01T09:49:28.804Z</time></trkpt><trkpt lat="42.6785888" lon="13.4598313"><ele>1304.0</ele><time>2026-05-01T09:49:29.803Z</time></trkpt><trkpt lat="42.6786943" lon="13.4598166"><ele>1304.0</ele><time>2026-05-01T09:49:30.804Z</time></trkpt><trkpt lat="42.6788047" lon="13.4598149"><ele>1303.25</ele><time>2026-05-01T09:49:31.803Z</time></trkpt><trkpt lat="42.6789232" lon="13.4598305"><ele>1302.5</ele><time>2026-05-01T09:49:32.802Z</time></trkpt><trkpt lat="42.6790536" lon="13.4598602"><ele>1301.75</ele><time>2026-05-01T09:49:33.802Z</time></trkpt><trkpt lat="42.6791889" lon="13.4599052"><ele>1301.0</ele><time>2026-05-01T09:49:34.804Z</time></trkpt><trkpt lat="42.6793287" lon="13.4599611"><ele>1297.5</ele><time>2026-05-01T09:49:35.803Z</time></trkpt><trkpt lat="42.6794668" lon="13.4600127"><ele>1294.0</ele><time>2026-05-01T09:49:36.802Z</time></trkpt><trkpt lat="42.6796004" lon="13.4600587"><ele>1290.5</ele><time>2026-05-01T09:49:37.804Z</time></trkpt><trkpt lat="42.6797373" lon="13.4600982"><ele>1287.0</ele><time>2026-05-01T09:49:38.804Z</time></trkpt><trkpt lat="42.6798751" lon="13.4601426"><ele>1287.0</ele><time>2026-05-01T09:49:39.802Z</time></trkpt><trkpt lat="42.6800173" lon="13.4601773"><ele>1287.0</ele><time>2026-05-01T09:49:40.803Z</time></trkpt><trkpt lat="42.6801569" lon="13.4602072"><ele>1287.0</ele><time>2026-05-01T09:49:41.804Z</time></trkpt><trkpt lat="42.6802906" lon="13.4602363"><ele>1287.0</ele><time>2026-05-01T09:49:42.803Z</time></trkpt><trkpt lat="42.6804205" lon="13.4602732"><ele>1284.25</ele><time>2026-05-01T09:49:43.803Z</time></trkpt><trkpt lat="42.6805448" lon="13.4603196"><ele>1281.5</ele><time>2026-05-01T09:49:44.802Z</time></trkpt><trkpt lat="42.6806575" lon="13.4603771"><ele>1278.75</ele><time>2026-05-01T09:49:45.803Z</time></trkpt><trkpt lat="42.6807559" lon="13.4604442"><ele>1276.0</ele><time>2026-05-01T09:49:46.802Z</time></trkpt><trkpt lat="42.6808427" lon="13.4605349"><ele>1281.8</ele><time>2026-05-01T09:49:47.804Z</time></trkpt><trkpt lat="42.6809202" lon="13.4606171"><ele>1287.6</ele><time>2026-05-01T09:49:48.803Z</time></trkpt><trkpt lat="42.6809964" lon="13.4606856"><ele>1293.4</ele><time>2026-05-01T09:49:49.802Z</time></trkpt><trkpt lat="42.6810847" lon="13.4607476"><ele>1299.2</ele><time>2026-05-01T09:49:50.803Z</time></trkpt><trkpt lat="42.6811738" lon="13.460812"><ele>1305.0</ele><time>2026-05-01T09:49:51.804Z</time></trkpt><trkpt lat="42.6813106" lon="13.4607939"><ele>1305.5</ele><time>2026-05-01T09:49:52.803Z</time></trkpt><trkpt lat="42.6814006" lon="13.4606675"><ele>1306.0</ele><time>2026-05-01T09:49:53.804Z</time></trkpt><trkpt lat="42.6815127" lon="13.4606206"><ele>1306.5</ele><time>2026-05-01T09:49:54.803Z</time></trkpt><trkpt lat="42.6816364" lon="13.4605643"><ele>1307.0</ele><time>2026-05-01T09:49:55.802Z</time></trkpt><trkpt lat="42.6817524" lon="13.4604789"><ele>1303.5</ele><time>2026-05-01T09:49:56.802Z</time></trkpt><trkpt lat="42.6818646" lon="13.4603769"><ele>1300.0</ele><time>2026-05-01T09:49:57.802Z</time></trkpt><trkpt lat="42.6819704" lon="13.4602525"><ele>1296.5</ele><time>2026-05-01T09:49:58.802Z</time></trkpt><trkpt lat="42.682065" lon="13.4601329"><ele>1293.0</ele><time>2026-05-01T09:49:59.804Z</time></trkpt><trkpt lat="42.6821479" lon="13.4600126"><ele>1293.0</ele><time>2026-05-01T09:50:00.803Z</time></trkpt><trkpt lat="42.682249" lon="13.4599167"><ele>1293.0</ele><time>2026-05-01T09:50:01.803Z</time></trkpt><trkpt lat="42.6823567" lon="13.4598664"><ele>1293.0</ele><time>2026-05-01T09:50:02.803Z</time></trkpt><trkpt lat="42.6824605" lon="13.4598025"><ele>1293.0</ele><time>2026-05-01T09:50:03.804Z</time></trkpt><trkpt lat="42.6825882" lon="13.4597702"><ele>1293.0</ele><time>2026-05-01T09:50:04.803Z</time></trkpt><trkpt lat="42.6827286" lon="13.4597584"><ele>1293.0</ele><time>2026-05-01T09:50:05.803Z</time></trkpt><trkpt lat="42.6828786" lon="13.4597506"><ele>1293.0</ele><time>2026-05-01T09:50:06.803Z</time></trkpt><trkpt lat="42.6830238" lon="13.4597472"><ele>1293.0</ele><time>2026-05-01T09:50:07.803Z</time></trkpt><trkpt lat="42.6831624" lon="13.459743"><ele>1292.75</ele><time>2026-05-01T09:50:08.803Z</time></trkpt><trkpt lat="42.6832962" lon="13.4597413"><ele>1292.5</ele><time>2026-05-01T09:50:09.803Z</time></trkpt><trkpt lat="42.6834226" lon="13.4597319"><ele>1292.25</ele><time>2026-05-01T09:50:10.803Z</time></trkpt><trkpt lat="42.6835463" lon="13.4597187"><ele>1292.0</ele><time>2026-05-01T09:50:11.803Z</time></trkpt><trkpt lat="42.6836671" lon="13.4596926"><ele>1288.0</ele><time>2026-05-01T09:50:12.804Z</time></trkpt><trkpt lat="42.6837809" lon="13.4596679"><ele>1284.0</ele><time>2026-05-01T09:50:13.804Z</time></trkpt><trkpt lat="42.683886" lon="13.459654"><ele>1280.0</ele><time>2026-05-01T09:50:14.802Z</time></trkpt><trkpt lat="42.6839788" lon="13.4596461"><ele>1276.0</ele><time>2026-05-01T09:50:15.803Z</time></trkpt><trkpt lat="42.6840656" lon="13.4596493"><ele>1272.0</ele><time>2026-05-01T09:50:16.803Z</time></trkpt><trkpt lat="42.6841731" lon="13.4597113"><ele>1272.0</ele><time>2026-05-01T09:50:18.804Z</time></trkpt><trkpt lat="42.6842064" lon="13.4598106"><ele>1272.0</ele><time>2026-05-01T09:50:19.804Z</time></trkpt><trkpt lat="42.684229" lon="13.4599474"><ele>1272.0</ele><time>2026-05-01T09:50:20.803Z</time></trkpt><trkpt lat="42.6842468" lon="13.4600884"><ele>1272.0</ele><time>2026-05-01T09:50:21.803Z</time></trkpt><trkpt lat="42.6842602" lon="13.4602372"><ele>1272.0</ele><time>2026-05-01T09:50:22.803Z</time></trkpt><trkpt lat="42.6842741" lon="13.4604089"><ele>1271.0</ele><time>2026-05-01T09:50:23.803Z</time></trkpt><trkpt lat="42.6842939" lon="13.4605349"><ele>1270.0</ele><time>2026-05-01T09:50:24.803Z</time></trkpt><trkpt lat="42.6843264" lon="13.4606556"><ele>1269.0</ele><time>2026-05-01T09:50:25.803Z</time></trkpt><trkpt lat="42.6843609" lon="13.4607687"><ele>1268.0</ele><time>2026-05-01T09:50:26.803Z</time></trkpt><trkpt lat="42.684406" lon="13.460868"><ele>1267.0</ele><time>2026-05-01T09:50:27.804Z</time></trkpt><trkpt lat="42.6845422" lon="13.4609577"><ele>1267.0</ele><time>2026-05-01T09:50:29.802Z</time></trkpt><trkpt lat="42.6846494" lon="13.4609567"><ele>1267.0</ele><time>2026-05-01T09:50:30.804Z</time></trkpt><trkpt lat="42.6847729" lon="13.4609381"><ele>1267.0</ele><time>2026-05-01T09:50:31.803Z</time></trkpt><trkpt lat="42.6848963" lon="13.4609001"><ele>1267.0</ele><time>2026-05-01T09:50:32.802Z</time></trkpt><trkpt lat="42.6850404" lon="13.4608496"><ele>1267.0</ele><time>2026-05-01T09:50:33.803Z</time></trkpt><trkpt lat="42.6851946" lon="13.4608044"><ele>1267.0</ele><time>2026-05-01T09:50:34.803Z</time></trkpt><trkpt lat="42.6853517" lon="13.4607546"><ele>1267.0</ele><time>2026-05-01T09:50:35.803Z</time></trkpt><trkpt lat="42.6855182" lon="13.4607037"><ele>1268.0</ele><time>2026-05-01T09:50:36.803Z</time></trkpt><trkpt lat="42.6856758" lon="13.4606505"><ele>1269.0</ele><time>2026-05-01T09:50:37.803Z</time></trkpt><trkpt lat="42.6858291" lon="13.460604"><ele>1270.0</ele><time>2026-05-01T09:50:38.803Z</time></trkpt><trkpt lat="42.6859809" lon="13.4605543"><ele>1269.5</ele><time>2026-05-01T09:50:39.804Z</time></trkpt><trkpt lat="42.6861292" lon="13.4605043"><ele>1269.0</ele><time>2026-05-01T09:50:40.803Z</time></trkpt><trkpt lat="42.686267" lon="13.4604481"><ele>1268.5</ele><time>2026-05-01T09:50:41.802Z</time></trkpt><trkpt lat="42.6863964" lon="13.4603852"><ele>1268.0</ele><time>2026-05-01T09:50:42.803Z</time></trkpt><trkpt lat="42.6865173" lon="13.4603331"><ele>1263.4</ele><time>2026-05-01T09:50:43.803Z</time></trkpt><trkpt lat="42.6866245" lon="13.4602843"><ele>1258.8</ele><time>2026-05-01T09:50:44.803Z</time></trkpt><trkpt lat="42.6867329" lon="13.4602447"><ele>1254.2</ele><time>2026-05-01T09:50:45.802Z</time></trkpt><trkpt lat="42.6868389" lon="13.460222"><ele>1249.6</ele><time>2026-05-01T09:50:46.803Z</time></trkpt><trkpt lat="42.686937" lon="13.4602248"><ele>1245.0</ele><time>2026-05-01T09:50:47.802Z</time></trkpt><trkpt lat="42.6870169" lon="13.4602409"><ele>1243.5</ele><time>2026-05-01T09:50:48.803Z</time></trkpt><trkpt lat="42.6870794" lon="13.4602976"><ele>1242.0</ele><time>2026-05-01T09:50:49.803Z</time></trkpt><trkpt lat="42.6871233" lon="13.4603731"><ele>1240.5</ele><time>2026-05-01T09:50:50.803Z</time></trkpt><trkpt lat="42.6871557" lon="13.4604529"><ele>1239.0</ele><time>2026-05-01T09:50:51.802Z</time></trkpt><trkpt lat="42.6871622" lon="13.4605457"><ele>1237.5</ele><time>2026-05-01T09:50:52.803Z</time></trkpt><trkpt lat="42.6871669" lon="13.4606884"><ele>1236.0</ele><time>2026-05-01T09:50:53.803Z</time></trkpt><trkpt lat="42.6871681" lon="13.4608562"><ele>1236.0</ele><time>2026-05-01T09:50:54.804Z</time></trkpt><trkpt lat="42.6871641" lon="13.4610832"><ele>1236.0</ele><time>2026-05-01T09:50:55.803Z</time></trkpt><trkpt lat="42.6871679" lon="13.4612508"><ele>1236.0</ele><time>2026-05-01T09:50:56.802Z</time></trkpt><trkpt lat="42.6871397" lon="13.4614095"><ele>1236.0</ele><time>2026-05-01T09:50:57.804Z</time></trkpt><trkpt lat="42.6871404" lon="13.4615485"><ele>1237.3333333333333</ele><time>2026-05-01T09:50:58.802Z</time></trkpt><trkpt lat="42.6871386" lon="13.4616638"><ele>1238.6666666666667</ele><time>2026-05-01T09:50:59.804Z</time></trkpt><trkpt lat="42.6871577" lon="13.4617648"><ele>1240.0</ele><time>2026-05-01T09:51:00.802Z</time></trkpt><trkpt lat="42.6871805" lon="13.4618486"><ele>1241.3333333333335</ele><time>2026-05-01T09:51:01.802Z</time></trkpt><trkpt lat="42.6872984" lon="13.4619254"><ele>1242.6666666666667</ele><time>2026-05-01T09:51:03.802Z</time></trkpt><trkpt lat="42.6873625" lon="13.4619235"><ele>1244.0</ele><time>2026-05-01T09:51:04.804Z</time></trkpt><trkpt lat="42.6874545" lon="13.4618775"><ele>1244.0</ele><time>2026-05-01T09:51:05.803Z</time></trkpt><trkpt lat="42.6875443" lon="13.4618021"><ele>1244.0</ele><time>2026-05-01T09:51:06.803Z</time></trkpt><trkpt lat="42.6876526" lon="13.4617119"><ele>1244.0</ele><time>2026-05-01T09:51:07.803Z</time></trkpt><trkpt lat="42.6877694" lon="13.4616147"><ele>1244.0</ele><time>2026-05-01T09:51:08.803Z</time></trkpt><trkpt lat="42.6878983" lon="13.4615134"><ele>1247.3333333333335</ele><time>2026-05-01T09:51:09.802Z</time></trkpt><trkpt lat="42.6880314" lon="13.4613995"><ele>1250.6666666666667</ele><time>2026-05-01T09:51:10.804Z</time></trkpt><trkpt lat="42.6881678" lon="13.4612881"><ele>1254.0</ele><time>2026-05-01T09:51:11.802Z</time></trkpt><trkpt lat="42.6882996" lon="13.4611843"><ele>1249.75</ele><time>2026-05-01T09:51:12.803Z</time></trkpt><trkpt lat="42.6884275" lon="13.4610871"><ele>1245.5</ele><time>2026-05-01T09:51:13.804Z</time></trkpt><trkpt lat="42.6885484" lon="13.4609927"><ele>1241.25</ele><time>2026-05-01T09:51:14.803Z</time></trkpt><trkpt lat="42.688666" lon="13.4608987"><ele>1237.0</ele><time>2026-05-01T09:51:15.803Z</time></trkpt><trkpt lat="42.688777" lon="13.4608092"><ele>1237.0</ele><time>2026-05-01T09:51:16.804Z</time></trkpt><trkpt lat="42.6888925" lon="13.4607407"><ele>1237.0</ele><time>2026-05-01T09:51:17.804Z</time></trkpt><trkpt lat="42.6890049" lon="13.4606929"><ele>1237.0</ele><time>2026-05-01T09:51:18.804Z</time></trkpt><trkpt lat="42.6891151" lon="13.460662"><ele>1237.0</ele><time>2026-05-01T09:51:19.803Z</time></trkpt><trkpt lat="42.6892214" lon="13.4606388"><ele>1237.0</ele><time>2026-05-01T09:51:20.803Z</time></trkpt><trkpt lat="42.6893129" lon="13.4606781"><ele>1237.0</ele><time>2026-05-01T09:51:21.803Z</time></trkpt><trkpt lat="42.6894115" lon="13.4607303"><ele>1237.0</ele><time>2026-05-01T09:51:22.803Z</time></trkpt><trkpt lat="42.689507" lon="13.4607898"><ele>1237.0</ele><time>2026-05-01T09:51:23.803Z</time></trkpt><trkpt lat="42.6895926" lon="13.4608467"><ele>1237.0</ele><time>2026-05-01T09:51:24.803Z</time></trkpt><trkpt lat="42.6896732" lon="13.4608926"><ele>1236.2</ele><time>2026-05-01T09:51:25.803Z</time></trkpt><trkpt lat="42.6897392" lon="13.4608675"><ele>1235.4</ele><time>2026-05-01T09:51:26.803Z</time></trkpt><trkpt lat="42.6898268" lon="13.4608215"><ele>1234.6</ele><time>2026-05-01T09:51:27.803Z</time></trkpt><trkpt lat="42.6899222" lon="13.4607646"><ele>1233.8</ele><time>2026-05-01T09:51:28.804Z</time></trkpt><trkpt lat="42.690023" lon="13.4607298"><ele>1233.0</ele><time>2026-05-01T09:51:29.804Z</time></trkpt><trkpt lat="42.6901268" lon="13.4607187"><ele>1233.0</ele><time>2026-05-01T09:51:30.804Z</time></trkpt><trkpt lat="42.6902263" lon="13.460717"><ele>1233.0</ele><time>2026-05-01T09:51:31.804Z</time></trkpt><trkpt lat="42.6903211" lon="13.4607217"><ele>1233.0</ele><time>2026-05-01T09:51:32.803Z</time></trkpt><trkpt lat="42.6904113" lon="13.4607342"><ele>1233.0</ele><time>2026-05-01T09:51:33.804Z</time></trkpt><trkpt lat="42.6904906" lon="13.4607307"><ele>1233.0</ele><time>2026-05-01T09:51:34.803Z</time></trkpt><trkpt lat="42.6905599" lon="13.4607057"><ele>1233.0</ele><time>2026-05-01T09:51:35.804Z</time></trkpt><trkpt lat="42.6906312" lon="13.4605989"><ele>1234.25</ele><time>2026-05-01T09:51:37.803Z</time></trkpt><trkpt lat="42.6906386" lon="13.4604543"><ele>1235.5</ele><time>2026-05-01T09:51:39.802Z</time></trkpt><trkpt lat="42.690581" lon="13.460283"><ele>1236.75</ele><time>2026-05-01T09:51:41.802Z</time></trkpt><trkpt lat="42.690517" lon="13.460172"><ele>1238.0</ele><time>2026-05-01T09:51:42.803Z</time></trkpt><trkpt lat="42.6904334" lon="13.4600568"><ele>1238.4</ele><time>2026-05-01T09:51:43.802Z</time></trkpt><trkpt lat="42.6903452" lon="13.459959"><ele>1238.8</ele><time>2026-05-01T09:51:44.803Z</time></trkpt><trkpt lat="42.6902602" lon="13.4598656"><ele>1239.2</ele><time>2026-05-01T09:51:45.803Z</time></trkpt><trkpt lat="42.6901811" lon="13.4597664"><ele>1239.6</ele><time>2026-05-01T09:51:46.803Z</time></trkpt><trkpt lat="42.69011" lon="13.4596591"><ele>1240.0</ele><time>2026-05-01T09:51:47.804Z</time></trkpt><trkpt lat="42.6900478" lon="13.4595394"><ele>1234.2</ele><time>2026-05-01T09:51:48.804Z</time></trkpt><trkpt lat="42.6899999" lon="13.4594133"><ele>1228.4</ele><time>2026-05-01T09:51:49.803Z</time></trkpt><trkpt lat="42.6899696" lon="13.4592799"><ele>1222.6</ele><time>2026-05-01T09:51:50.803Z</time></trkpt><trkpt lat="42.6899641" lon="13.4591477"><ele>1216.8</ele><time>2026-05-01T09:51:51.803Z</time></trkpt><trkpt lat="42.6899875" lon="13.4590159"><ele>1211.0</ele><time>2026-05-01T09:51:52.802Z</time></trkpt><trkpt lat="42.6900364" lon="13.4588923"><ele>1210.8</ele><time>2026-05-01T09:51:53.802Z</time></trkpt><trkpt lat="42.6900951" lon="13.4587754"><ele>1210.6</ele><time>2026-05-01T09:51:54.802Z</time></trkpt><trkpt lat="42.6901321" lon="13.458654"><ele>1210.4</ele><time>2026-05-01T09:51:55.803Z</time></trkpt><trkpt lat="42.690142" lon="13.4585306"><ele>1210.2</ele><time>2026-05-01T09:51:56.804Z</time></trkpt><trkpt lat="42.6901247" lon="13.4584115"><ele>1210.0</ele><time>2026-05-01T09:51:57.803Z</time></trkpt><trkpt lat="42.690088" lon="13.4583027"><ele>1210.0</ele><time>2026-05-01T09:51:58.802Z</time></trkpt><trkpt lat="42.6900252" lon="13.4581847"><ele>1210.0</ele><time>2026-05-01T09:51:59.803Z</time></trkpt><trkpt lat="42.6899271" lon="13.4580658"><ele>1210.0</ele><time>2026-05-01T09:52:00.802Z</time></trkpt><trkpt lat="42.6898128" lon="13.4579426"><ele>1210.0</ele><time>2026-05-01T09:52:01.803Z</time></trkpt><trkpt lat="42.6896852" lon="13.4578274"><ele>1211.5</ele><time>2026-05-01T09:52:02.803Z</time></trkpt><trkpt lat="42.6895593" lon="13.4577309"><ele>1213.0</ele><time>2026-05-01T09:52:03.804Z</time></trkpt><trkpt lat="42.689431" lon="13.4576396"><ele>1214.5</ele><time>2026-05-01T09:52:04.802Z</time></trkpt><trkpt lat="42.6893131" lon="13.4575597"><ele>1216.0</ele><time>2026-05-01T09:52:05.803Z</time></trkpt><trkpt lat="42.6892037" lon="13.457494"><ele>1212.1666666666665</ele><time>2026-05-01T09:52:06.804Z</time></trkpt><trkpt lat="42.6891079" lon="13.4574388"><ele>1208.3333333333333</ele><time>2026-05-01T09:52:07.803Z</time></trkpt><trkpt lat="42.6890402" lon="13.457381"><ele>1204.5</ele><time>2026-05-01T09:52:08.804Z</time></trkpt><trkpt lat="42.6889941" lon="13.4573047"><ele>1200.6666666666667</ele><time>2026-05-01T09:52:09.802Z</time></trkpt><trkpt lat="42.6889845" lon="13.4572164"><ele>1196.8333333333335</ele><time>2026-05-01T09:52:10.802Z</time></trkpt><trkpt lat="42.689009" lon="13.4571276"><ele>1193.0</ele><time>2026-05-01T09:52:11.802Z</time></trkpt><trkpt lat="42.689072" lon="13.4570445"><ele>1191.25</ele><time>2026-05-01T09:52:12.803Z</time></trkpt><trkpt lat="42.689165" lon="13.4569725"><ele>1189.5</ele><time>2026-05-01T09:52:13.803Z</time></trkpt><trkpt lat="42.6892882" lon="13.4568995"><ele>1187.75</ele><time>2026-05-01T09:52:14.802Z</time></trkpt><trkpt lat="42.6894125" lon="13.4568243"><ele>1186.0</ele><time>2026-05-01T09:52:15.802Z</time></trkpt><trkpt lat="42.6895189" lon="13.4567385"><ele>1187.0</ele><time>2026-05-01T09:52:16.804Z</time></trkpt><trkpt lat="42.6896095" lon="13.4566361"><ele>1188.0</ele><time>2026-05-01T09:52:17.803Z</time></trkpt><trkpt lat="42.6896831" lon="13.4565017"><ele>1189.0</ele><time>2026-05-01T09:52:18.803Z</time></trkpt><trkpt lat="42.6897443" lon="13.4563307"><ele>1190.0</ele><time>2026-05-01T09:52:19.802Z</time></trkpt><trkpt lat="42.6898015" lon="13.4561356"><ele>1190.0</ele><time>2026-05-01T09:52:20.802Z</time></trkpt><trkpt lat="42.6898598" lon="13.4559372"><ele>1190.0</ele><time>2026-05-01T09:52:21.802Z</time></trkpt><trkpt lat="42.6899068" lon="13.4557507"><ele>1190.0</ele><time>2026-05-01T09:52:22.803Z</time></trkpt><trkpt lat="42.6899452" lon="13.4555695"><ele>1190.0</ele><time>2026-05-01T09:52:23.802Z</time></trkpt><trkpt lat="42.6899736" lon="13.4554092"><ele>1187.4</ele><time>2026-05-01T09:52:24.802Z</time></trkpt><trkpt lat="42.690006" lon="13.4552788"><ele>1184.8</ele><time>2026-05-01T09:52:25.802Z</time></trkpt><trkpt lat="42.6900546" lon="13.4551722"><ele>1182.2</ele><time>2026-05-01T09:52:26.801Z</time></trkpt><trkpt lat="42.6901243" lon="13.4550876"><ele>1179.6</ele><time>2026-05-01T09:52:27.803Z</time></trkpt><trkpt lat="42.69022" lon="13.4550235"><ele>1177.0</ele><time>2026-05-01T09:52:28.802Z</time></trkpt><trkpt lat="42.6903029" lon="13.4549866"><ele>1175.4</ele><time>2026-05-01T09:52:29.802Z</time></trkpt><trkpt lat="42.6903822" lon="13.4549876"><ele>1173.8000000000002</ele><time>2026-05-01T09:52:30.801Z</time></trkpt><trkpt lat="42.6904708" lon="13.4550424"><ele>1172.2</ele><time>2026-05-01T09:52:31.802Z</time></trkpt><trkpt lat="42.6905575" lon="13.455121"><ele>1170.6000000000001</ele><time>2026-05-01T09:52:32.803Z</time></trkpt><trkpt lat="42.6906431" lon="13.4551932"><ele>1169.0</ele><time>2026-05-01T09:52:33.803Z</time></trkpt><trkpt lat="42.6907077" lon="13.4552805"><ele>1169.0</ele><time>2026-05-01T09:52:34.802Z</time></trkpt><trkpt lat="42.6907629" lon="13.4553711"><ele>1169.0</ele><time>2026-05-01T09:52:35.801Z</time></trkpt><trkpt lat="42.6908009" lon="13.4554693"><ele>1169.0</ele><time>2026-05-01T09:52:36.803Z</time></trkpt><trkpt lat="42.6908229" lon="13.4555804"><ele>1169.0</ele><time>2026-05-01T09:52:37.802Z</time></trkpt><trkpt lat="42.6908183" lon="13.4557133"><ele>1169.0</ele><time>2026-05-01T09:52:38.802Z</time></trkpt><trkpt lat="42.6908045" lon="13.4558579"><ele>1171.6000000000001</ele><time>2026-05-01T09:52:39.803Z</time></trkpt><trkpt lat="42.6907834" lon="13.4560135"><ele>1174.2</ele><time>2026-05-01T09:52:40.802Z</time></trkpt><trkpt lat="42.6907754" lon="13.4561626"><ele>1176.8000000000002</ele><time>2026-05-01T09:52:41.802Z</time></trkpt><trkpt lat="42.6907696" lon="13.4563024"><ele>1179.4</ele><time>2026-05-01T09:52:42.801Z</time></trkpt><trkpt lat="42.6907804" lon="13.4564308"><ele>1182.0</ele><time>2026-05-01T09:52:43.803Z</time></trkpt><trkpt lat="42.6908085" lon="13.4565482"><ele>1183.5</ele><time>2026-05-01T09:52:44.802Z</time></trkpt><trkpt lat="42.6908622" lon="13.4566619"><ele>1185.0</ele><time>2026-05-01T09:52:45.802Z</time></trkpt><trkpt lat="42.6909453" lon="13.4567613"><ele>1186.5</ele><time>2026-05-01T09:52:46.803Z</time></trkpt><trkpt lat="42.6910417" lon="13.4568556"><ele>1188.0</ele><time>2026-05-01T09:52:47.802Z</time></trkpt><trkpt lat="42.6911498" lon="13.4569375"><ele>1187.25</ele><time>2026-05-01T09:52:48.802Z</time></trkpt><trkpt lat="42.6912683" lon="13.4570056"><ele>1186.5</ele><time>2026-05-01T09:52:49.802Z</time></trkpt><trkpt lat="42.6913832" lon="13.4570775"><ele>1185.75</ele><time>2026-05-01T09:52:50.801Z</time></trkpt><trkpt lat="42.6915026" lon="13.457146"><ele>1185.0</ele><time>2026-05-01T09:52:51.803Z</time></trkpt><trkpt lat="42.6916178" lon="13.4572163"><ele>1185.0</ele><time>2026-05-01T09:52:52.802Z</time></trkpt><trkpt lat="42.691715" lon="13.4572862"><ele>1185.0</ele><time>2026-05-01T09:52:53.802Z</time></trkpt><trkpt lat="42.691798" lon="13.4573466"><ele>1185.0</ele><time>2026-05-01T09:52:54.802Z</time></trkpt><trkpt lat="42.6918797" lon="13.4573859"><ele>1185.0</ele><time>2026-05-01T09:52:55.802Z</time></trkpt><trkpt lat="42.6919608" lon="13.4573916"><ele>1185.0</ele><time>2026-05-01T09:52:56.802Z</time></trkpt><trkpt lat="42.6920294" lon="13.4573535"><ele>1185.0</ele><time>2026-05-01T09:52:57.803Z</time></trkpt><trkpt lat="42.6920922" lon="13.4572624"><ele>1185.0</ele><time>2026-05-01T09:52:58.801Z</time></trkpt><trkpt lat="42.6921449" lon="13.4571515"><ele>1185.0</ele><time>2026-05-01T09:52:59.802Z</time></trkpt><trkpt lat="42.6921839" lon="13.4570195"><ele>1185.0</ele><time>2026-05-01T09:53:00.802Z</time></trkpt><trkpt lat="42.6922211" lon="13.4569026"><ele>1185.0</ele><time>2026-05-01T09:53:01.802Z</time></trkpt><trkpt lat="42.692267" lon="13.4568022"><ele>1185.0</ele><time>2026-05-01T09:53:02.802Z</time></trkpt><trkpt lat="42.6923231" lon="13.4567281"><ele>1179.6</ele><time>2026-05-01T09:53:03.803Z</time></trkpt><trkpt lat="42.6923917" lon="13.4566905"><ele>1174.2</ele><time>2026-05-01T09:53:04.802Z</time></trkpt><trkpt lat="42.6924836" lon="13.4566887"><ele>1168.8</ele><time>2026-05-01T09:53:05.803Z</time></trkpt><trkpt lat="42.692596" lon="13.4567337"><ele>1163.4</ele><time>2026-05-01T09:53:06.801Z</time></trkpt><trkpt lat="42.6927212" lon="13.4568015"><ele>1158.0</ele><time>2026-05-01T09:53:07.802Z</time></trkpt><trkpt lat="42.6928463" lon="13.4568779"><ele>1158.0</ele><time>2026-05-01T09:53:08.802Z</time></trkpt><trkpt lat="42.6929682" lon="13.4569442"><ele>1158.0</ele><time>2026-05-01T09:53:09.802Z</time></trkpt><trkpt lat="42.6930812" lon="13.4570112"><ele>1158.0</ele><time>2026-05-01T09:53:10.803Z</time></trkpt><trkpt lat="42.6931845" lon="13.4570619"><ele>1158.0</ele><time>2026-05-01T09:53:11.802Z</time></trkpt><trkpt lat="42.6932782" lon="13.4570782"><ele>1158.0</ele><time>2026-05-01T09:53:12.802Z</time></trkpt><trkpt lat="42.6933689" lon="13.4570873"><ele>1158.0</ele><time>2026-05-01T09:53:13.801Z</time></trkpt><trkpt lat="42.6934493" lon="13.4570558"><ele>1158.0</ele><time>2026-05-01T09:53:14.803Z</time></trkpt><trkpt lat="42.6935158" lon="13.4570123"><ele>1158.0</ele><time>2026-05-01T09:53:15.802Z</time></trkpt><trkpt lat="42.6935683" lon="13.4569327"><ele>1158.0</ele><time>2026-05-01T09:53:16.801Z</time></trkpt><trkpt lat="42.6935953" lon="13.4568341"><ele>1158.0</ele><time>2026-05-01T09:53:17.802Z</time></trkpt><trkpt lat="42.6935988" lon="13.4567072"><ele>1158.0</ele><time>2026-05-01T09:53:18.802Z</time></trkpt><trkpt lat="42.6935855" lon="13.4565697"><ele>1158.0</ele><time>2026-05-01T09:53:19.802Z</time></trkpt><trkpt lat="42.693588" lon="13.4564528"><ele>1158.0</ele><time>2026-05-01T09:53:20.802Z</time></trkpt><trkpt lat="42.6936046" lon="13.4563361"><ele>1158.0</ele><time>2026-05-01T09:53:21.802Z</time></trkpt><trkpt lat="42.6936452" lon="13.4562313"><ele>1158.0</ele><time>2026-05-01T09:53:22.802Z</time></trkpt><trkpt lat="42.6937143" lon="13.4561451"><ele>1159.2</ele><time>2026-05-01T09:53:23.802Z</time></trkpt><trkpt lat="42.6937917" lon="13.4560628"><ele>1160.4</ele><time>2026-05-01T09:53:24.802Z</time></trkpt><trkpt lat="42.6938495" lon="13.455967"><ele>1161.6000000000001</ele><time>2026-05-01T09:53:25.801Z</time></trkpt><trkpt lat="42.693889" lon="13.4558477"><ele>1162.8</ele><time>2026-05-01T09:53:26.802Z</time></trkpt><trkpt lat="42.6939128" lon="13.4557102"><ele>1164.0</ele><time>2026-05-01T09:53:27.801Z</time></trkpt><trkpt lat="42.6939328" lon="13.4555627"><ele>1164.4</ele><time>2026-05-01T09:53:28.802Z</time></trkpt><trkpt lat="42.6939513" lon="13.4554178"><ele>1164.8000000000002</ele><time>2026-05-01T09:53:29.803Z</time></trkpt><trkpt lat="42.6939673" lon="13.4552869"><ele>1165.1999999999998</ele><time>2026-05-01T09:53:30.801Z</time></trkpt><trkpt lat="42.6939695" lon="13.4551657"><ele>1165.6</ele><time>2026-05-01T09:53:31.803Z</time></trkpt><trkpt lat="42.6939455" lon="13.4550574"><ele>1166.0</ele><time>2026-05-01T09:53:32.802Z</time></trkpt><trkpt lat="42.6938857" lon="13.4549539"><ele>1166.0</ele><time>2026-05-01T09:53:33.801Z</time></trkpt><trkpt lat="42.6937975" lon="13.4548925"><ele>1166.0</ele><time>2026-05-01T09:53:34.803Z</time></trkpt><trkpt lat="42.6937115" lon="13.4548423"><ele>1166.0</ele><time>2026-05-01T09:53:35.802Z</time></trkpt><trkpt lat="42.6936364" lon="13.4547853"><ele>1166.0</ele><time>2026-05-01T09:53:36.803Z</time></trkpt><trkpt lat="42.6935919" lon="13.4547096"><ele>1166.0</ele><time>2026-05-01T09:53:37.803Z</time></trkpt><trkpt lat="42.693579" lon="13.454616"><ele>1166.0</ele><time>2026-05-01T09:53:38.802Z</time></trkpt><trkpt lat="42.6935944" lon="13.4545009"><ele>1167.6</ele><time>2026-05-01T09:53:39.801Z</time></trkpt><trkpt lat="42.693634" lon="13.454378"><ele>1169.1999999999998</ele><time>2026-05-01T09:53:40.801Z</time></trkpt><trkpt lat="42.6937017" lon="13.4542463"><ele>1170.8000000000002</ele><time>2026-05-01T09:53:41.801Z</time></trkpt><trkpt lat="42.6937621" lon="13.4541164"><ele>1172.4</ele><time>2026-05-01T09:53:42.802Z</time></trkpt><trkpt lat="42.6938195" lon="13.4540025"><ele>1174.0</ele><time>2026-05-01T09:53:43.802Z</time></trkpt><trkpt lat="42.6938484" lon="13.4538894"><ele>1176.0</ele><time>2026-05-01T09:53:44.803Z</time></trkpt><trkpt lat="42.6938453" lon="13.4537749"><ele>1178.0</ele><time>2026-05-01T09:53:45.802Z</time></trkpt><trkpt lat="42.6938332" lon="13.4536578"><ele>1180.0</ele><time>2026-05-01T09:53:46.803Z</time></trkpt><trkpt lat="42.6938115" lon="13.4535196"><ele>1182.0</ele><time>2026-05-01T09:53:47.801Z</time></trkpt><trkpt lat="42.6937314" lon="13.4533627"><ele>1184.0</ele><time>2026-05-01T09:53:48.802Z</time></trkpt><trkpt lat="42.6935573" lon="13.4532966"><ele>1177.5</ele><time>2026-05-01T09:53:49.802Z</time></trkpt><trkpt lat="42.6934649" lon="13.4531864"><ele>1171.0</ele><time>2026-05-01T09:53:50.802Z</time></trkpt><trkpt lat="42.6933601" lon="13.4530879"><ele>1164.5</ele><time>2026-05-01T09:53:51.802Z</time></trkpt><trkpt lat="42.6932545" lon="13.4529968"><ele>1158.0</ele><time>2026-05-01T09:53:52.802Z</time></trkpt><trkpt lat="42.6931489" lon="13.4529415"><ele>1158.0</ele><time>2026-05-01T09:53:53.803Z</time></trkpt><trkpt lat="42.6930438" lon="13.4528894"><ele>1158.0</ele><time>2026-05-01T09:53:54.803Z</time></trkpt><trkpt lat="42.6929519" lon="13.4528309"><ele>1158.0</ele><time>2026-05-01T09:53:55.802Z</time></trkpt><trkpt lat="42.6928856" lon="13.4527604"><ele>1158.0</ele><time>2026-05-01T09:53:56.802Z</time></trkpt><trkpt lat="42.6928385" lon="13.4526753"><ele>1158.0</ele><time>2026-05-01T09:53:57.802Z</time></trkpt><trkpt lat="42.6928176" lon="13.4525879"><ele>1158.0</ele><time>2026-05-01T09:53:58.802Z</time></trkpt><trkpt lat="42.6928246" lon="13.4524663"><ele>1158.0</ele><time>2026-05-01T09:53:59.802Z</time></trkpt><trkpt lat="42.6928582" lon="13.4523236"><ele>1158.0</ele><time>2026-05-01T09:54:00.802Z</time></trkpt><trkpt lat="42.6929153" lon="13.4521731"><ele>1158.0</ele><time>2026-05-01T09:54:01.801Z</time></trkpt><trkpt lat="42.6929866" lon="13.4520221"><ele>1158.0</ele><time>2026-05-01T09:54:02.801Z</time></trkpt><trkpt lat="42.6930541" lon="13.4518788"><ele>1155.0</ele><time>2026-05-01T09:54:03.802Z</time></trkpt><trkpt lat="42.693127" lon="13.4517476"><ele>1152.0</ele><time>2026-05-01T09:54:04.802Z</time></trkpt><trkpt lat="42.6931883" lon="13.4516227"><ele>1149.0</ele><time>2026-05-01T09:54:05.801Z</time></trkpt><trkpt lat="42.693231" lon="13.451484"><ele>1146.0</ele><time>2026-05-01T09:54:06.801Z</time></trkpt><trkpt lat="42.6932536" lon="13.4513215"><ele>1143.0</ele><time>2026-05-01T09:54:07.802Z</time></trkpt><trkpt lat="42.6932568" lon="13.4511426"><ele>1140.0</ele><time>2026-05-01T09:54:08.801Z</time></trkpt><trkpt lat="42.6932446" lon="13.4509616"><ele>1137.0</ele><time>2026-05-01T09:54:09.802Z</time></trkpt><trkpt lat="42.6932179" lon="13.4507916"><ele>1134.0</ele><time>2026-05-01T09:54:10.802Z</time></trkpt><trkpt lat="42.6931851" lon="13.4506268"><ele>1134.0</ele><time>2026-05-01T09:54:11.802Z</time></trkpt><trkpt lat="42.6931594" lon="13.4504665"><ele>1134.0</ele><time>2026-05-01T09:54:12.801Z</time></trkpt><trkpt lat="42.6931545" lon="13.4503085"><ele>1134.0</ele><time>2026-05-01T09:54:13.801Z</time></trkpt><trkpt lat="42.6931664" lon="13.4501572"><ele>1134.0</ele><time>2026-05-01T09:54:14.802Z</time></trkpt><trkpt lat="42.6931936" lon="13.4500138"><ele>1132.0</ele><time>2026-05-01T09:54:15.802Z</time></trkpt><trkpt lat="42.693249" lon="13.4498725"><ele>1130.0</ele><time>2026-05-01T09:54:16.802Z</time></trkpt><trkpt lat="42.6933326" lon="13.4497278"><ele>1128.0</ele><time>2026-05-01T09:54:17.802Z</time></trkpt><trkpt lat="42.6934318" lon="13.4495855"><ele>1126.0</ele><time>2026-05-01T09:54:18.802Z</time></trkpt><trkpt lat="42.6935289" lon="13.4494339"><ele>1126.5</ele><time>2026-05-01T09:54:19.802Z</time></trkpt><trkpt lat="42.6936097" lon="13.449286"><ele>1127.0</ele><time>2026-05-01T09:54:20.802Z</time></trkpt><trkpt lat="42.6936826" lon="13.4491359"><ele>1127.5</ele><time>2026-05-01T09:54:21.802Z</time></trkpt><trkpt lat="42.693754" lon="13.4489888"><ele>1128.0</ele><time>2026-05-01T09:54:22.803Z</time></trkpt><trkpt lat="42.6938237" lon="13.4488485"><ele>1123.4</ele><time>2026-05-01T09:54:23.802Z</time></trkpt><trkpt lat="42.693889" lon="13.4487151"><ele>1118.8</ele><time>2026-05-01T09:54:24.801Z</time></trkpt><trkpt lat="42.6939612" lon="13.4486008"><ele>1114.2</ele><time>2026-05-01T09:54:25.802Z</time></trkpt><trkpt lat="42.6940454" lon="13.4485186"><ele>1109.6</ele><time>2026-05-01T09:54:26.801Z</time></trkpt><trkpt lat="42.6941448" lon="13.4484704"><ele>1105.0</ele><time>2026-05-01T09:54:27.802Z</time></trkpt><trkpt lat="42.6942543" lon="13.4484236"><ele>1105.0</ele><time>2026-05-01T09:54:28.802Z</time></trkpt><trkpt lat="42.694402" lon="13.4484438"><ele>1105.0</ele><time>2026-05-01T09:54:29.802Z</time></trkpt><trkpt lat="42.6945547" lon="13.4484287"><ele>1105.0</ele><time>2026-05-01T09:54:30.801Z</time></trkpt><trkpt lat="42.6947132" lon="13.4484201"><ele>1106.6666666666665</ele><time>2026-05-01T09:54:31.802Z</time></trkpt><trkpt lat="42.69487" lon="13.4484101"><ele>1108.3333333333333</ele><time>2026-05-01T09:54:32.802Z</time></trkpt><trkpt lat="42.6950238" lon="13.4484081"><ele>1110.0</ele><time>2026-05-01T09:54:33.802Z</time></trkpt><trkpt lat="42.6951705" lon="13.4484118"><ele>1108.75</ele><time>2026-05-01T09:54:34.803Z</time></trkpt><trkpt lat="42.6953075" lon="13.4484052"><ele>1107.5</ele><time>2026-05-01T09:54:35.801Z</time></trkpt><trkpt lat="42.6954342" lon="13.4484029"><ele>1106.25</ele><time>2026-05-01T09:54:36.801Z</time></trkpt><trkpt lat="42.6955444" lon="13.4483657"><ele>1105.0</ele><time>2026-05-01T09:54:37.802Z</time></trkpt><trkpt lat="42.6956488" lon="13.4483085"><ele>1105.0</ele><time>2026-05-01T09:54:38.802Z</time></trkpt><trkpt lat="42.6957587" lon="13.4482116"><ele>1105.0</ele><time>2026-05-01T09:54:39.803Z</time></trkpt><trkpt lat="42.6958595" lon="13.448114"><ele>1105.0</ele><time>2026-05-01T09:54:40.802Z</time></trkpt><trkpt lat="42.6959566" lon="13.4480134"><ele>1105.0</ele><time>2026-05-01T09:54:41.801Z</time></trkpt><trkpt lat="42.6960637" lon="13.4479315"><ele>1101.5</ele><time>2026-05-01T09:54:42.802Z</time></trkpt><trkpt lat="42.6961788" lon="13.4478693"><ele>1098.0</ele><time>2026-05-01T09:54:43.803Z</time></trkpt><trkpt lat="42.6962938" lon="13.4478159"><ele>1094.5</ele><time>2026-05-01T09:54:44.801Z</time></trkpt><trkpt lat="42.6964119" lon="13.4477724"><ele>1091.0</ele><time>2026-05-01T09:54:45.802Z</time></trkpt><trkpt lat="42.6965346" lon="13.4477553"><ele>1091.0</ele><time>2026-05-01T09:54:46.802Z</time></trkpt><trkpt lat="42.6966562" lon="13.4477626"><ele>1091.0</ele><time>2026-05-01T09:54:47.802Z</time></trkpt><trkpt lat="42.6967689" lon="13.4478018"><ele>1091.0</ele><time>2026-05-01T09:54:48.802Z</time></trkpt><trkpt lat="42.6968724" lon="13.4478672"><ele>1091.0</ele><time>2026-05-01T09:54:49.803Z</time></trkpt><trkpt lat="42.6969632" lon="13.4479651"><ele>1089.5</ele><time>2026-05-01T09:54:50.802Z</time></trkpt><trkpt lat="42.6970327" lon="13.4480918"><ele>1088.0</ele><time>2026-05-01T09:54:51.803Z</time></trkpt><trkpt lat="42.6970965" lon="13.4482588"><ele>1086.5</ele><time>2026-05-01T09:54:52.802Z</time></trkpt><trkpt lat="42.6971591" lon="13.4484506"><ele>1085.0</ele><time>2026-05-01T09:54:53.802Z</time></trkpt><trkpt lat="42.6972233" lon="13.4486413"><ele>1086.5</ele><time>2026-05-01T09:54:54.801Z</time></trkpt><trkpt lat="42.6972813" lon="13.4488225"><ele>1088.0</ele><time>2026-05-01T09:54:55.801Z</time></trkpt><trkpt lat="42.697339" lon="13.4490045"><ele>1089.5</ele><time>2026-05-01T09:54:56.802Z</time></trkpt><trkpt lat="42.6973893" lon="13.4491711"><ele>1091.0</ele><time>2026-05-01T09:54:57.802Z</time></trkpt><trkpt lat="42.6974235" lon="13.4493288"><ele>1091.0</ele><time>2026-05-01T09:54:58.803Z</time></trkpt><trkpt lat="42.6974387" lon="13.449495"><ele>1091.0</ele><time>2026-05-01T09:54:59.802Z</time></trkpt><trkpt lat="42.6974357" lon="13.4496735"><ele>1091.0</ele><time>2026-05-01T09:55:00.802Z</time></trkpt><trkpt lat="42.6974237" lon="13.4498649"><ele>1091.0</ele><time>2026-05-01T09:55:01.803Z</time></trkpt><trkpt lat="42.6974113" lon="13.4500748"><ele>1090.0</ele><time>2026-05-01T09:55:02.803Z</time></trkpt><trkpt lat="42.6974127" lon="13.4502786"><ele>1089.0</ele><time>2026-05-01T09:55:03.802Z</time></trkpt><trkpt lat="42.6974174" lon="13.4504785"><ele>1088.0</ele><time>2026-05-01T09:55:04.802Z</time></trkpt><trkpt lat="42.6974222" lon="13.4506771"><ele>1087.0</ele><time>2026-05-01T09:55:05.801Z</time></trkpt><trkpt lat="42.6974261" lon="13.4508697"><ele>1086.5</ele><time>2026-05-01T09:55:06.801Z</time></trkpt><trkpt lat="42.6974222" lon="13.4510577"><ele>1086.0</ele><time>2026-05-01T09:55:07.801Z</time></trkpt><trkpt lat="42.6974036" lon="13.4512484"><ele>1085.5</ele><time>2026-05-01T09:55:08.801Z</time></trkpt><trkpt lat="42.697374" lon="13.4514293"><ele>1085.0</ele><time>2026-05-01T09:55:09.802Z</time></trkpt><trkpt lat="42.6973315" lon="13.4516193"><ele>1084.2</ele><time>2026-05-01T09:55:10.802Z</time></trkpt><trkpt lat="42.6972775" lon="13.4517658"><ele>1083.4</ele><time>2026-05-01T09:55:11.801Z</time></trkpt><trkpt lat="42.6972298" lon="13.4519132"><ele>1082.6</ele><time>2026-05-01T09:55:12.802Z</time></trkpt><trkpt lat="42.6971984" lon="13.4520472"><ele>1081.8</ele><time>2026-05-01T09:55:13.802Z</time></trkpt><trkpt lat="42.6971896" lon="13.4521776"><ele>1081.0</ele><time>2026-05-01T09:55:14.802Z</time></trkpt><trkpt lat="42.6972108" lon="13.4523177"><ele>1079.75</ele><time>2026-05-01T09:55:15.802Z</time></trkpt><trkpt lat="42.6972586" lon="13.4524619"><ele>1078.5</ele><time>2026-05-01T09:55:16.802Z</time></trkpt><trkpt lat="42.6973292" lon="13.4526134"><ele>1077.25</ele><time>2026-05-01T09:55:17.802Z</time></trkpt><trkpt lat="42.6974063" lon="13.4527779"><ele>1076.0</ele><time>2026-05-01T09:55:18.802Z</time></trkpt><trkpt lat="42.6974646" lon="13.4529568"><ele>1076.0</ele><time>2026-05-01T09:55:19.801Z</time></trkpt><trkpt lat="42.6975142" lon="13.4531604"><ele>1076.0</ele><time>2026-05-01T09:55:20.802Z</time></trkpt><trkpt lat="42.6975562" lon="13.4533845"><ele>1076.0</ele><time>2026-05-01T09:55:21.802Z</time></trkpt><trkpt lat="42.6975968" lon="13.4536111"><ele>1078.6666666666667</ele><time>2026-05-01T09:55:22.802Z</time></trkpt><trkpt lat="42.6976357" lon="13.4538296"><ele>1081.3333333333333</ele><time>2026-05-01T09:55:23.801Z</time></trkpt><trkpt lat="42.6976715" lon="13.4540407"><ele>1084.0</ele><time>2026-05-01T09:55:24.802Z</time></trkpt><trkpt lat="42.6977157" lon="13.4542394"><ele>1080.0</ele><time>2026-05-01T09:55:25.802Z</time></trkpt><trkpt lat="42.6977747" lon="13.4544147"><ele>1076.0</ele><time>2026-05-01T09:55:26.802Z</time></trkpt><trkpt lat="42.6978561" lon="13.4545782"><ele>1072.0</ele><time>2026-05-01T09:55:27.802Z</time></trkpt><trkpt lat="42.6979441" lon="13.4547279"><ele>1068.0</ele><time>2026-05-01T09:55:28.801Z</time></trkpt><trkpt lat="42.6980314" lon="13.4548719"><ele>1068.0</ele><time>2026-05-01T09:55:29.801Z</time></trkpt><trkpt lat="42.6981107" lon="13.4550072"><ele>1068.0</ele><time>2026-05-01T09:55:30.803Z</time></trkpt><trkpt lat="42.6981827" lon="13.4551254"><ele>1068.0</ele><time>2026-05-01T09:55:31.801Z</time></trkpt><trkpt lat="42.698248" lon="13.455227"><ele>1068.0</ele><time>2026-05-01T09:55:32.802Z</time></trkpt><trkpt lat="42.6983153" lon="13.4553043"><ele>1068.0</ele><time>2026-05-01T09:55:33.802Z</time></trkpt><trkpt lat="42.6984406" lon="13.4553072"><ele>1068.0</ele><time>2026-05-01T09:55:35.802Z</time></trkpt><trkpt lat="42.6984951" lon="13.4552624"><ele>1068.0</ele><time>2026-05-01T09:55:36.801Z</time></trkpt><trkpt lat="42.6985391" lon="13.4551894"><ele>1068.0</ele><time>2026-05-01T09:55:37.802Z</time></trkpt><trkpt lat="42.6985615" lon="13.455081"><ele>1068.0</ele><time>2026-05-01T09:55:38.802Z</time></trkpt><trkpt lat="42.6985651" lon="13.4549245"><ele>1068.0</ele><time>2026-05-01T09:55:39.802Z</time></trkpt><trkpt lat="42.6985471" lon="13.4547516"><ele>1067.75</ele><time>2026-05-01T09:55:40.801Z</time></trkpt><trkpt lat="42.698522" lon="13.454568"><ele>1067.5</ele><time>2026-05-01T09:55:41.801Z</time></trkpt><trkpt lat="42.6985086" lon="13.4543704"><ele>1067.25</ele><time>2026-05-01T09:55:42.802Z</time></trkpt><trkpt lat="42.6985141" lon="13.4541684"><ele>1067.0</ele><time>2026-05-01T09:55:43.803Z</time></trkpt><trkpt lat="42.6985382" lon="13.4539626"><ele>1068.0</ele><time>2026-05-01T09:55:44.801Z</time></trkpt><trkpt lat="42.6985782" lon="13.4537606"><ele>1069.0</ele><time>2026-05-01T09:55:45.802Z</time></trkpt><trkpt lat="42.6986221" lon="13.4535683"><ele>1070.0</ele><time>2026-05-01T09:55:46.803Z</time></trkpt><trkpt lat="42.6986618" lon="13.4533857"><ele>1071.0</ele><time>2026-05-01T09:55:47.801Z</time></trkpt><trkpt lat="42.6987074" lon="13.4532046"><ele>1071.0</ele><time>2026-05-01T09:55:48.803Z</time></trkpt><trkpt lat="42.6987612" lon="13.4530452"><ele>1071.0</ele><time>2026-05-01T09:55:49.802Z</time></trkpt><trkpt lat="42.6988218" lon="13.4529051"><ele>1071.0</ele><time>2026-05-01T09:55:50.802Z</time></trkpt><trkpt lat="42.6988914" lon="13.4527978"><ele>1071.0</ele><time>2026-05-01T09:55:51.802Z</time></trkpt><trkpt lat="42.6989712" lon="13.4527242"><ele>1070.2</ele><time>2026-05-01T09:55:52.801Z</time></trkpt><trkpt lat="42.6990743" lon="13.4526854"><ele>1069.3999999999999</ele><time>2026-05-01T09:55:53.803Z</time></trkpt><trkpt lat="42.6991936" lon="13.4526823"><ele>1068.6</ele><time>2026-05-01T09:55:54.803Z</time></trkpt><trkpt lat="42.6992978" lon="13.4526818"><ele>1067.8</ele><time>2026-05-01T09:55:55.801Z</time></trkpt><trkpt lat="42.6993894" lon="13.4526421"><ele>1067.0</ele><time>2026-05-01T09:55:56.803Z</time></trkpt><trkpt lat="42.6994656" lon="13.4525687"><ele>1067.0</ele><time>2026-05-01T09:55:57.802Z</time></trkpt><trkpt lat="42.6995313" lon="13.4524576"><ele>1067.0</ele><time>2026-05-01T09:55:58.803Z</time></trkpt><trkpt lat="42.6995962" lon="13.4523268"><ele>1067.0</ele><time>2026-05-01T09:55:59.803Z</time></trkpt><trkpt lat="42.699676" lon="13.4522061"><ele>1067.0</ele><time>2026-05-01T09:56:00.802Z</time></trkpt><trkpt lat="42.6997635" lon="13.4521034"><ele>1061.4</ele><time>2026-05-01T09:56:01.803Z</time></trkpt><trkpt lat="42.6998517" lon="13.4520227"><ele>1055.8000000000002</ele><time>2026-05-01T09:56:02.801Z</time></trkpt><trkpt lat="42.6999439" lon="13.4519712"><ele>1050.2</ele><time>2026-05-01T09:56:03.802Z</time></trkpt><trkpt lat="42.7000365" lon="13.4519594"><ele>1044.6000000000001</ele><time>2026-05-01T09:56:04.802Z</time></trkpt><trkpt lat="42.7001373" lon="13.4519614"><ele>1039.0</ele><time>2026-05-01T09:56:05.802Z</time></trkpt><trkpt lat="42.7002314" lon="13.4519561"><ele>1042.6000000000001</ele><time>2026-05-01T09:56:06.802Z</time></trkpt><trkpt lat="42.7003159" lon="13.4519299"><ele>1046.2</ele><time>2026-05-01T09:56:07.802Z</time></trkpt><trkpt lat="42.7003916" lon="13.4518817"><ele>1049.8000000000002</ele><time>2026-05-01T09:56:08.801Z</time></trkpt><trkpt lat="42.7004673" lon="13.451789"><ele>1053.4</ele><time>2026-05-01T09:56:09.802Z</time></trkpt><trkpt lat="42.7005479" lon="13.4516781"><ele>1057.0</ele><time>2026-05-01T09:56:10.801Z</time></trkpt><trkpt lat="42.7006337" lon="13.4515848"><ele>1057.0</ele><time>2026-05-01T09:56:11.802Z</time></trkpt><trkpt lat="42.7007246" lon="13.4515106"><ele>1057.0</ele><time>2026-05-01T09:56:12.801Z</time></trkpt><trkpt lat="42.7008099" lon="13.4514451"><ele>1057.0</ele><time>2026-05-01T09:56:13.802Z</time></trkpt><trkpt lat="42.7008837" lon="13.4513608"><ele>1057.0</ele><time>2026-05-01T09:56:14.802Z</time></trkpt><trkpt lat="42.7009404" lon="13.451259"><ele>1057.0</ele><time>2026-05-01T09:56:15.801Z</time></trkpt><trkpt lat="42.7009799" lon="13.451135"><ele>1052.8</ele><time>2026-05-01T09:56:16.803Z</time></trkpt><trkpt lat="42.7009997" lon="13.4509948"><ele>1048.6</ele><time>2026-05-01T09:56:17.802Z</time></trkpt><trkpt lat="42.7010001" lon="13.4508485"><ele>1044.3999999999999</ele><time>2026-05-01T09:56:18.801Z</time></trkpt><trkpt lat="42.7009956" lon="13.4507081"><ele>1040.2</ele><time>2026-05-01T09:56:19.801Z</time></trkpt><trkpt lat="42.7010077" lon="13.4505667"><ele>1036.0</ele><time>2026-05-01T09:56:20.802Z</time></trkpt><trkpt lat="42.7010293" lon="13.4504254"><ele>1036.8</ele><time>2026-05-01T09:56:21.801Z</time></trkpt><trkpt lat="42.7010719" lon="13.4502944"><ele>1037.6</ele><time>2026-05-01T09:56:22.802Z</time></trkpt><trkpt lat="42.7011285" lon="13.450172"><ele>1038.4</ele><time>2026-05-01T09:56:23.802Z</time></trkpt><trkpt lat="42.7011938" lon="13.450061"><ele>1039.2</ele><time>2026-05-01T09:56:24.802Z</time></trkpt><trkpt lat="42.7012667" lon="13.4499633"><ele>1040.0</ele><time>2026-05-01T09:56:25.802Z</time></trkpt><trkpt lat="42.7013447" lon="13.4498823"><ele>1040.0</ele><time>2026-05-01T09:56:26.802Z</time></trkpt><trkpt lat="42.7014276" lon="13.4498228"><ele>1040.0</ele><time>2026-05-01T09:56:27.801Z</time></trkpt><trkpt lat="42.7015116" lon="13.4497877"><ele>1040.0</ele><time>2026-05-01T09:56:28.803Z</time></trkpt><trkpt lat="42.7015976" lon="13.4497792"><ele>1040.0</ele><time>2026-05-01T09:56:29.802Z</time></trkpt><trkpt lat="42.7016852" lon="13.4497969"><ele>1040.0</ele><time>2026-05-01T09:56:30.802Z</time></trkpt><trkpt lat="42.7017793" lon="13.4498341"><ele>1040.0</ele><time>2026-05-01T09:56:31.802Z</time></trkpt><trkpt lat="42.7018774" lon="13.4498824"><ele>1040.0</ele><time>2026-05-01T09:56:32.802Z</time></trkpt><trkpt lat="42.7019783" lon="13.4499339"><ele>1040.0</ele><time>2026-05-01T09:56:33.801Z</time></trkpt><trkpt lat="42.702083" lon="13.4499827"><ele>1040.0</ele><time>2026-05-01T09:56:34.802Z</time></trkpt><trkpt lat="42.7021839" lon="13.4500203"><ele>1040.0</ele><time>2026-05-01T09:56:35.801Z</time></trkpt><trkpt lat="42.7022903" lon="13.4500412"><ele>1038.5</ele><time>2026-05-01T09:56:36.802Z</time></trkpt><trkpt lat="42.7024004" lon="13.4500405"><ele>1037.0</ele><time>2026-05-01T09:56:37.803Z</time></trkpt><trkpt lat="42.7025178" lon="13.4500216"><ele>1035.5</ele><time>2026-05-01T09:56:38.801Z</time></trkpt><trkpt lat="42.7026343" lon="13.4499859"><ele>1034.0</ele><time>2026-05-01T09:56:39.802Z</time></trkpt><trkpt lat="42.7027505" lon="13.4499421"><ele>1034.0</ele><time>2026-05-01T09:56:40.802Z</time></trkpt><trkpt lat="42.7028671" lon="13.449897"><ele>1034.0</ele><time>2026-05-01T09:56:41.802Z</time></trkpt><trkpt lat="42.7029881" lon="13.4498547"><ele>1034.0</ele><time>2026-05-01T09:56:42.802Z</time></trkpt><trkpt lat="42.7031062" lon="13.449822"><ele>1034.0</ele><time>2026-05-01T09:56:43.801Z</time></trkpt><trkpt lat="42.7032157" lon="13.4497963"><ele>1034.0</ele><time>2026-05-01T09:56:44.803Z</time></trkpt><trkpt lat="42.7033264" lon="13.4497834"><ele>1034.0</ele><time>2026-05-01T09:56:45.803Z</time></trkpt><trkpt lat="42.7034433" lon="13.4497874"><ele>1034.0</ele><time>2026-05-01T09:56:46.802Z</time></trkpt><trkpt lat="42.7035673" lon="13.4498038"><ele>1034.0</ele><time>2026-05-01T09:56:47.802Z</time></trkpt><trkpt lat="42.7036935" lon="13.449833"><ele>1031.25</ele><time>2026-05-01T09:56:48.802Z</time></trkpt><trkpt lat="42.7038153" lon="13.4498742"><ele>1028.5</ele><time>2026-05-01T09:56:49.803Z</time></trkpt><trkpt lat="42.703922" lon="13.4499257"><ele>1025.75</ele><time>2026-05-01T09:56:50.802Z</time></trkpt><trkpt lat="42.7040322" lon="13.4499947"><ele>1023.0</ele><time>2026-05-01T09:56:51.802Z</time></trkpt><trkpt lat="42.7041439" lon="13.4500577"><ele>1023.0</ele><time>2026-05-01T09:56:52.802Z</time></trkpt><trkpt lat="42.7042578" lon="13.450111"><ele>1023.0</ele><time>2026-05-01T09:56:53.802Z</time></trkpt><trkpt lat="42.7043752" lon="13.4501396"><ele>1023.0</ele><time>2026-05-01T09:56:54.801Z</time></trkpt><trkpt lat="42.7044983" lon="13.450156"><ele>1023.0</ele><time>2026-05-01T09:56:55.801Z</time></trkpt><trkpt lat="42.7046246" lon="13.4501558"><ele>1022.0</ele><time>2026-05-01T09:56:56.802Z</time></trkpt><trkpt lat="42.7047483" lon="13.4501519"><ele>1021.0</ele><time>2026-05-01T09:56:57.802Z</time></trkpt><trkpt lat="42.7048668" lon="13.4501487"><ele>1020.0</ele><time>2026-05-01T09:56:58.802Z</time></trkpt><trkpt lat="42.7049786" lon="13.4501403"><ele>1019.0</ele><time>2026-05-01T09:56:59.803Z</time></trkpt><trkpt lat="42.7050793" lon="13.4501201"><ele>1019.0</ele><time>2026-05-01T09:57:00.802Z</time></trkpt><trkpt lat="42.7051618" lon="13.4500856"><ele>1019.0000000000001</ele><time>2026-05-01T09:57:01.802Z</time></trkpt><trkpt lat="42.705225" lon="13.4500213"><ele>1019.0000000000001</ele><time>2026-05-01T09:57:02.802Z</time></trkpt><trkpt lat="42.7052781" lon="13.4499328"><ele>1019.0</ele><time>2026-05-01T09:57:03.801Z</time></trkpt><trkpt lat="42.7053194" lon="13.4498172"><ele>1019.0</ele><time>2026-05-01T09:57:04.803Z</time></trkpt><trkpt lat="42.7053466" lon="13.449677"><ele>1022.25</ele><time>2026-05-01T09:57:05.802Z</time></trkpt><trkpt lat="42.7053794" lon="13.4495352"><ele>1025.5</ele><time>2026-05-01T09:57:06.801Z</time></trkpt><trkpt lat="42.7054097" lon="13.4493836"><ele>1028.75</ele><time>2026-05-01T09:57:07.801Z</time></trkpt><trkpt lat="42.7054424" lon="13.4492257"><ele>1032.0</ele><time>2026-05-01T09:57:08.802Z</time></trkpt><trkpt lat="42.7054761" lon="13.4490622"><ele>1032.0</ele><time>2026-05-01T09:57:09.802Z</time></trkpt><trkpt lat="42.7055097" lon="13.4488949"><ele>1032.0</ele><time>2026-05-01T09:57:10.802Z</time></trkpt><trkpt lat="42.705547" lon="13.448716"><ele>1032.0</ele><time>2026-05-01T09:57:11.802Z</time></trkpt><trkpt lat="42.7055753" lon="13.4485371"><ele>1032.0</ele><time>2026-05-01T09:57:12.801Z</time></trkpt><trkpt lat="42.7055855" lon="13.4483453"><ele>1032.0</ele><time>2026-05-01T09:57:13.801Z</time></trkpt><trkpt lat="42.7055795" lon="13.448153"><ele>1032.0</ele><time>2026-05-01T09:57:14.802Z</time></trkpt><trkpt lat="42.7055639" lon="13.4479662"><ele>1032.0</ele><time>2026-05-01T09:57:15.802Z</time></trkpt><trkpt lat="42.7055397" lon="13.4477877"><ele>1032.0</ele><time>2026-05-01T09:57:16.802Z</time></trkpt><trkpt lat="42.7055087" lon="13.4476256"><ele>1032.0</ele><time>2026-05-01T09:57:17.802Z</time></trkpt><trkpt lat="42.7054627" lon="13.4474768"><ele>1032.0</ele><time>2026-05-01T09:57:18.802Z</time></trkpt><trkpt lat="42.7054114" lon="13.4473309"><ele>1032.0</ele><time>2026-05-01T09:57:19.801Z</time></trkpt><trkpt lat="42.7053463" lon="13.4471908"><ele>1032.0</ele><time>2026-05-01T09:57:20.803Z</time></trkpt><trkpt lat="42.7052776" lon="13.4470614"><ele>1026.4</ele><time>2026-05-01T09:57:21.802Z</time></trkpt><trkpt lat="42.7052169" lon="13.4469305"><ele>1020.8000000000001</ele><time>2026-05-01T09:57:22.802Z</time></trkpt><trkpt lat="42.7051614" lon="13.4468038"><ele>1015.2</ele><time>2026-05-01T09:57:23.802Z</time></trkpt><trkpt lat="42.7051197" lon="13.4466679"><ele>1009.6</ele><time>2026-05-01T09:57:24.803Z</time></trkpt><trkpt lat="42.7050903" lon="13.4465471"><ele>1004.0</ele><time>2026-05-01T09:57:25.803Z</time></trkpt><trkpt lat="42.7050765" lon="13.4464089"><ele>1003.6</ele><time>2026-05-01T09:57:26.801Z</time></trkpt><trkpt lat="42.705078" lon="13.4462838"><ele>1003.2</ele><time>2026-05-01T09:57:27.802Z</time></trkpt><trkpt lat="42.7051019" lon="13.4461707"><ele>1002.8000000000001</ele><time>2026-05-01T09:57:28.802Z</time></trkpt><trkpt lat="42.7051404" lon="13.4460611"><ele>1002.4000000000001</ele><time>2026-05-01T09:57:29.802Z</time></trkpt><trkpt lat="42.7051881" lon="13.4459477"><ele>1002.0</ele><time>2026-05-01T09:57:30.803Z</time></trkpt><trkpt lat="42.7052363" lon="13.4458389"><ele>1001.4000000000001</ele><time>2026-05-01T09:57:31.802Z</time></trkpt><trkpt lat="42.7052896" lon="13.4457275"><ele>1000.8000000000001</ele><time>2026-05-01T09:57:32.802Z</time></trkpt><trkpt lat="42.7053577" lon="13.4456144"><ele>1000.2</ele><time>2026-05-01T09:57:33.802Z</time></trkpt><trkpt lat="42.7054414" lon="13.4455136"><ele>999.6</ele><time>2026-05-01T09:57:34.802Z</time></trkpt><trkpt lat="42.705539" lon="13.4454267"><ele>999.0</ele><time>2026-05-01T09:57:35.801Z</time></trkpt><trkpt lat="42.7056468" lon="13.4453581"><ele>999.0</ele><time>2026-05-01T09:57:36.803Z</time></trkpt><trkpt lat="42.7057531" lon="13.4453057"><ele>999.0000000000001</ele><time>2026-05-01T09:57:37.802Z</time></trkpt><trkpt lat="42.7058571" lon="13.4452573"><ele>999.0000000000001</ele><time>2026-05-01T09:57:38.801Z</time></trkpt><trkpt lat="42.7059627" lon="13.4452117"><ele>999.0</ele><time>2026-05-01T09:57:39.803Z</time></trkpt><trkpt lat="42.7060541" lon="13.4451613"><ele>999.0</ele><time>2026-05-01T09:57:40.802Z</time></trkpt><trkpt lat="42.7061289" lon="13.445097"><ele>999.8000000000001</ele><time>2026-05-01T09:57:41.802Z</time></trkpt><trkpt lat="42.7061866" lon="13.4450195"><ele>1000.6000000000001</ele><time>2026-05-01T09:57:42.802Z</time></trkpt><trkpt lat="42.7062259" lon="13.4449382"><ele>1001.4</ele><time>2026-05-01T09:57:43.801Z</time></trkpt><trkpt lat="42.7062446" lon="13.4448364"><ele>1002.2</ele><time>2026-05-01T09:57:44.802Z</time></trkpt><trkpt lat="42.7062364" lon="13.4446645"><ele>1003.0</ele><time>2026-05-01T09:57:45.802Z</time></trkpt><trkpt lat="42.7062181" lon="13.4445042"><ele>1003.0</ele><time>2026-05-01T09:57:46.801Z</time></trkpt><trkpt lat="42.7061938" lon="13.4443338"><ele>1003.0</ele><time>2026-05-01T09:57:47.801Z</time></trkpt><trkpt lat="42.7061787" lon="13.4441691"><ele>1003.0</ele><time>2026-05-01T09:57:48.801Z</time></trkpt><trkpt lat="42.7061673" lon="13.4440112"><ele>1003.0</ele><time>2026-05-01T09:57:49.803Z</time></trkpt><trkpt lat="42.7061577" lon="13.4438572"><ele>999.4</ele><time>2026-05-01T09:57:50.801Z</time></trkpt><trkpt lat="42.7061434" lon="13.4437142"><ele>995.8</ele><time>2026-05-01T09:57:51.801Z</time></trkpt><trkpt lat="42.7061362" lon="13.4435808"><ele>992.2</ele><time>2026-05-01T09:57:52.802Z</time></trkpt><trkpt lat="42.7061444" lon="13.4434585"><ele>988.6</ele><time>2026-05-01T09:57:53.802Z</time></trkpt><trkpt lat="42.7061691" lon="13.4433443"><ele>985.0</ele><time>2026-05-01T09:57:54.802Z</time></trkpt><trkpt lat="42.7062076" lon="13.4432489"><ele>984.9999999999999</ele><time>2026-05-01T09:57:55.802Z</time></trkpt><trkpt lat="42.7062617" lon="13.4431668"><ele>985.0</ele><time>2026-05-01T09:57:56.802Z</time></trkpt><trkpt lat="42.7063273" lon="13.4431067"><ele>985.0</ele><time>2026-05-01T09:57:57.801Z</time></trkpt><trkpt lat="42.7064075" lon="13.4430825"><ele>985.0</ele><time>2026-05-01T09:57:58.803Z</time></trkpt><trkpt lat="42.7064955" lon="13.4430913"><ele>984.9999999999999</ele><time>2026-05-01T09:57:59.802Z</time></trkpt><trkpt lat="42.7065859" lon="13.4431487"><ele>985.0</ele><time>2026-05-01T09:58:00.801Z</time></trkpt><trkpt lat="42.7066824" lon="13.4432519"><ele>985.0</ele><time>2026-05-01T09:58:01.802Z</time></trkpt><trkpt lat="42.7067868" lon="13.4433682"><ele>985.0</ele><time>2026-05-01T09:58:02.802Z</time></trkpt><trkpt lat="42.7069048" lon="13.4434698"><ele>985.0</ele><time>2026-05-01T09:58:03.801Z</time></trkpt><trkpt lat="42.707038" lon="13.4435308"><ele>985.0</ele><time>2026-05-01T09:58:04.802Z</time></trkpt><trkpt lat="42.7071771" lon="13.4435692"><ele>982.5</ele><time>2026-05-01T09:58:05.801Z</time></trkpt><trkpt lat="42.7073189" lon="13.4435894"><ele>980.0</ele><time>2026-05-01T09:58:06.803Z</time></trkpt><trkpt lat="42.7074577" lon="13.4436074"><ele>977.5</ele><time>2026-05-01T09:58:07.803Z</time></trkpt><trkpt lat="42.7075938" lon="13.4436189"><ele>975.0</ele><time>2026-05-01T09:58:08.802Z</time></trkpt><trkpt lat="42.7077164" lon="13.443681"><ele>972.6666666666667</ele><time>2026-05-01T09:58:09.803Z</time></trkpt><trkpt lat="42.707854" lon="13.4437512"><ele>970.3333333333334</ele><time>2026-05-01T09:58:10.802Z</time></trkpt><trkpt lat="42.7079905" lon="13.4438538"><ele>968.0</ele><time>2026-05-01T09:58:11.802Z</time></trkpt><trkpt lat="42.7081245" lon="13.443961"><ele>972.6666666666667</ele><time>2026-05-01T09:58:12.802Z</time></trkpt><trkpt lat="42.7082645" lon="13.4440863"><ele>977.3333333333333</ele><time>2026-05-01T09:58:13.801Z</time></trkpt><trkpt lat="42.7083874" lon="13.4442107"><ele>982.0</ele><time>2026-05-01T09:58:14.802Z</time></trkpt><trkpt lat="42.7085131" lon="13.4443254"><ele>978.75</ele><time>2026-05-01T09:58:15.801Z</time></trkpt><trkpt lat="42.708646" lon="13.4444249"><ele>975.5</ele><time>2026-05-01T09:58:16.801Z</time></trkpt><trkpt lat="42.708782" lon="13.4444927"><ele>972.25</ele><time>2026-05-01T09:58:17.803Z</time></trkpt><trkpt lat="42.7089295" lon="13.4445414"><ele>969.0</ele><time>2026-05-01T09:58:18.802Z</time></trkpt><trkpt lat="42.7090858" lon="13.4445712"><ele>969.0</ele><time>2026-05-01T09:58:19.801Z</time></trkpt><trkpt lat="42.709239" lon="13.444591"><ele>969.0</ele><time>2026-05-01T09:58:20.801Z</time></trkpt><trkpt lat="42.7094066" lon="13.4446"><ele>969.0</ele><time>2026-05-01T09:58:21.802Z</time></trkpt><trkpt lat="42.709568" lon="13.4446085"><ele>965.6666666666667</ele><time>2026-05-01T09:58:22.802Z</time></trkpt><trkpt lat="42.7097272" lon="13.4446016"><ele>962.3333333333334</ele><time>2026-05-01T09:58:23.802Z</time></trkpt><trkpt lat="42.709882" lon="13.4445906"><ele>959.0</ele><time>2026-05-01T09:58:24.802Z</time></trkpt><trkpt lat="42.7100338" lon="13.4445749"><ele>959.0</ele><time>2026-05-01T09:58:25.802Z</time></trkpt><trkpt lat="42.7101787" lon="13.4445541"><ele>959.0</ele><time>2026-05-01T09:58:26.802Z</time></trkpt><trkpt lat="42.7103187" lon="13.4445366"><ele>959.0</ele><time>2026-05-01T09:58:27.802Z</time></trkpt><trkpt lat="42.7104447" lon="13.444513"><ele>959.0</ele><time>2026-05-01T09:58:28.803Z</time></trkpt><trkpt lat="42.7105568" lon="13.4444797"><ele>960.25</ele><time>2026-05-01T09:58:29.802Z</time></trkpt><trkpt lat="42.7106499" lon="13.4444078"><ele>961.5</ele><time>2026-05-01T09:58:30.802Z</time></trkpt><trkpt lat="42.7107366" lon="13.4442975"><ele>962.75</ele><time>2026-05-01T09:58:31.802Z</time></trkpt><trkpt lat="42.7107992" lon="13.4441506"><ele>964.0</ele><time>2026-05-01T09:58:32.802Z</time></trkpt><trkpt lat="42.7108486" lon="13.4439729"><ele>960.75</ele><time>2026-05-01T09:58:33.801Z</time></trkpt><trkpt lat="42.710887" lon="13.44378"><ele>957.5</ele><time>2026-05-01T09:58:34.801Z</time></trkpt><trkpt lat="42.71092" lon="13.443591"><ele>954.25</ele><time>2026-05-01T09:58:35.802Z</time></trkpt><trkpt lat="42.710953" lon="13.4434125"><ele>951.0</ele><time>2026-05-01T09:58:36.802Z</time></trkpt><trkpt lat="42.7109909" lon="13.44324"><ele>951.0</ele><time>2026-05-01T09:58:37.801Z</time></trkpt><trkpt lat="42.7110325" lon="13.4430818"><ele>950.9999999999999</ele><time>2026-05-01T09:58:38.803Z</time></trkpt><trkpt lat="42.7110844" lon="13.442949"><ele>950.9999999999999</ele><time>2026-05-01T09:58:39.802Z</time></trkpt><trkpt lat="42.7111466" lon="13.442837"><ele>951.0</ele><time>2026-05-01T09:58:40.802Z</time></trkpt><trkpt lat="42.7112195" lon="13.442755"><ele>951.0</ele><time>2026-05-01T09:58:41.801Z</time></trkpt><trkpt lat="42.711306" lon="13.4427116"><ele>951.5999999999999</ele><time>2026-05-01T09:58:42.802Z</time></trkpt><trkpt lat="42.7113923" lon="13.4427092"><ele>952.1999999999999</ele><time>2026-05-01T09:58:43.803Z</time></trkpt><trkpt lat="42.7114895" lon="13.4427572"><ele>952.8000000000001</ele><time>2026-05-01T09:58:44.802Z</time></trkpt><trkpt lat="42.7115892" lon="13.4428553"><ele>953.4000000000001</ele><time>2026-05-01T09:58:45.802Z</time></trkpt><trkpt lat="42.7116822" lon="13.4429886"><ele>954.0</ele><time>2026-05-01T09:58:46.802Z</time></trkpt><trkpt lat="42.7117718" lon="13.4431396"><ele>954.0</ele><time>2026-05-01T09:58:47.801Z</time></trkpt><trkpt lat="42.7118581" lon="13.4432855"><ele>954.0</ele><time>2026-05-01T09:58:48.802Z</time></trkpt><trkpt lat="42.7119445" lon="13.443425"><ele>954.0</ele><time>2026-05-01T09:58:49.802Z</time></trkpt><trkpt lat="42.7120355" lon="13.4435422"><ele>954.0</ele><time>2026-05-01T09:58:50.801Z</time></trkpt><trkpt lat="42.7121347" lon="13.4436176"><ele>950.5</ele><time>2026-05-01T09:58:51.802Z</time></trkpt><trkpt lat="42.7122514" lon="13.4436582"><ele>947.0</ele><time>2026-05-01T09:58:52.803Z</time></trkpt><trkpt lat="42.7123869" lon="13.443676"><ele>943.5</ele><time>2026-05-01T09:58:53.802Z</time></trkpt><trkpt lat="42.7125373" lon="13.4436863"><ele>940.0</ele><time>2026-05-01T09:58:54.8Z</time></trkpt><trkpt lat="42.7126949" lon="13.443697"><ele>938.0</ele><time>2026-05-01T09:58:55.802Z</time></trkpt><trkpt lat="42.7128698" lon="13.443706"><ele>936.0</ele><time>2026-05-01T09:58:56.801Z</time></trkpt><trkpt lat="42.7130512" lon="13.4437196"><ele>934.0</ele><time>2026-05-01T09:58:57.801Z</time></trkpt><trkpt lat="42.7132374" lon="13.4437375"><ele>934.0</ele><time>2026-05-01T09:58:58.8Z</time></trkpt><trkpt lat="42.7134228" lon="13.4437535"><ele>934.0</ele><time>2026-05-01T09:58:59.801Z</time></trkpt><trkpt lat="42.7136081" lon="13.4437685"><ele>934.0</ele><time>2026-05-01T09:59:00.802Z</time></trkpt><trkpt lat="42.7137968" lon="13.4437889"><ele>936.6666666666666</ele><time>2026-05-01T09:59:01.8Z</time></trkpt><trkpt lat="42.7139794" lon="13.4438"><ele>939.3333333333333</ele><time>2026-05-01T09:59:02.802Z</time></trkpt><trkpt lat="42.7141584" lon="13.4438104"><ele>942.0</ele><time>2026-05-01T09:59:03.801Z</time></trkpt><trkpt lat="42.7143331" lon="13.4438211"><ele>940.3333333333333</ele><time>2026-05-01T09:59:04.801Z</time></trkpt><trkpt lat="42.7145091" lon="13.4438308"><ele>938.6666666666666</ele><time>2026-05-01T09:59:05.802Z</time></trkpt><trkpt lat="42.7146901" lon="13.443841"><ele>937.0</ele><time>2026-05-01T09:59:06.801Z</time></trkpt><trkpt lat="42.7148683" lon="13.4438485"><ele>937.0</ele><time>2026-05-01T09:59:07.801Z</time></trkpt><trkpt lat="42.7150426" lon="13.4438459"><ele>937.0</ele><time>2026-05-01T09:59:08.801Z</time></trkpt><trkpt lat="42.7152117" lon="13.4438511"><ele>937.0</ele><time>2026-05-01T09:59:09.801Z</time></trkpt><trkpt lat="42.7153728" lon="13.4438622"><ele>933.25</ele><time>2026-05-01T09:59:10.802Z</time></trkpt><trkpt lat="42.7155222" lon="13.4438783"><ele>929.5</ele><time>2026-05-01T09:59:11.802Z</time></trkpt><trkpt lat="42.7156577" lon="13.4439103"><ele>925.75</ele><time>2026-05-01T09:59:12.802Z</time></trkpt><trkpt lat="42.7157885" lon="13.4439791"><ele>922.0</ele><time>2026-05-01T09:59:13.801Z</time></trkpt><trkpt lat="42.7159097" lon="13.4440871"><ele>922.0</ele><time>2026-05-01T09:59:14.8Z</time></trkpt><trkpt lat="42.7160178" lon="13.4442196"><ele>922.0</ele><time>2026-05-01T09:59:15.8Z</time></trkpt><trkpt lat="42.7161158" lon="13.4443757"><ele>922.0</ele><time>2026-05-01T09:59:16.8Z</time></trkpt><trkpt lat="42.716208" lon="13.4445281"><ele>922.0</ele><time>2026-05-01T09:59:17.801Z</time></trkpt><trkpt lat="42.716288" lon="13.4446743"><ele>921.6</ele><time>2026-05-01T09:59:18.802Z</time></trkpt><trkpt lat="42.7163635" lon="13.4448022"><ele>921.2</ele><time>2026-05-01T09:59:19.802Z</time></trkpt><trkpt lat="42.7164338" lon="13.4448999"><ele>920.8</ele><time>2026-05-01T09:59:20.802Z</time></trkpt><trkpt lat="42.7165029" lon="13.4449671"><ele>920.4</ele><time>2026-05-01T09:59:21.801Z</time></trkpt><trkpt lat="42.7165873" lon="13.4450112"><ele>920.0</ele><time>2026-05-01T09:59:22.801Z</time></trkpt><trkpt lat="42.7167138" lon="13.4450321"><ele>920.0</ele><time>2026-05-01T09:59:23.801Z</time></trkpt><trkpt lat="42.7168415" lon="13.4450469"><ele>920.0</ele><time>2026-05-01T09:59:24.801Z</time></trkpt><trkpt lat="42.7169702" lon="13.4450636"><ele>920.0</ele><time>2026-05-01T09:59:25.8Z</time></trkpt><trkpt lat="42.7170933" lon="13.445081"><ele>920.0</ele><time>2026-05-01T09:59:26.8Z</time></trkpt><trkpt lat="42.7172137" lon="13.4451052"><ele>916.75</ele><time>2026-05-01T09:59:27.801Z</time></trkpt><trkpt lat="42.7173267" lon="13.4451372"><ele>913.5</ele><time>2026-05-01T09:59:28.8Z</time></trkpt><trkpt lat="42.7174336" lon="13.4452054"><ele>910.25</ele><time>2026-05-01T09:59:29.801Z</time></trkpt><trkpt lat="42.7175391" lon="13.4453122"><ele>907.0</ele><time>2026-05-01T09:59:30.8Z</time></trkpt><trkpt lat="42.7176329" lon="13.4454573"><ele>905.0</ele><time>2026-05-01T09:59:31.802Z</time></trkpt><trkpt lat="42.7177117" lon="13.4456192"><ele>903.0</ele><time>2026-05-01T09:59:32.8Z</time></trkpt><trkpt lat="42.7177799" lon="13.4457798"><ele>901.0</ele><time>2026-05-01T09:59:33.8Z</time></trkpt><trkpt lat="42.7178461" lon="13.4459339"><ele>899.0</ele><time>2026-05-01T09:59:34.8Z</time></trkpt><trkpt lat="42.7179083" lon="13.4460805"><ele>899.0</ele><time>2026-05-01T09:59:35.802Z</time></trkpt><trkpt lat="42.7179769" lon="13.4462058"><ele>899.0000000000001</ele><time>2026-05-01T09:59:36.8Z</time></trkpt><trkpt lat="42.7180571" lon="13.4462948"><ele>899.0000000000001</ele><time>2026-05-01T09:59:37.801Z</time></trkpt><trkpt lat="42.7181442" lon="13.4463399"><ele>899.0</ele><time>2026-05-01T09:59:38.801Z</time></trkpt><trkpt lat="42.71825" lon="13.4463422"><ele>899.0</ele><time>2026-05-01T09:59:39.801Z</time></trkpt><trkpt lat="42.7183531" lon="13.4462973"><ele>899.0</ele><time>2026-05-01T09:59:40.801Z</time></trkpt><trkpt lat="42.7184598" lon="13.4461996"><ele>899.0</ele><time>2026-05-01T09:59:41.801Z</time></trkpt><trkpt lat="42.7185564" lon="13.4460626"><ele>899.0</ele><time>2026-05-01T09:59:42.801Z</time></trkpt><trkpt lat="42.7186517" lon="13.4458956"><ele>899.0</ele><time>2026-05-01T09:59:43.801Z</time></trkpt><trkpt lat="42.7187446" lon="13.4457174"><ele>901.3333333333334</ele><time>2026-05-01T09:59:44.8Z</time></trkpt><trkpt lat="42.718836" lon="13.445542"><ele>903.6666666666667</ele><time>2026-05-01T09:59:45.8Z</time></trkpt><trkpt lat="42.7189256" lon="13.4453673"><ele>906.0</ele><time>2026-05-01T09:59:46.802Z</time></trkpt><trkpt lat="42.7190114" lon="13.4452017"><ele>902.5</ele><time>2026-05-01T09:59:47.802Z</time></trkpt><trkpt lat="42.7190904" lon="13.4450518"><ele>899.0</ele><time>2026-05-01T09:59:48.801Z</time></trkpt><trkpt lat="42.719177" lon="13.4449264"><ele>895.5</ele><time>2026-05-01T09:59:49.8Z</time></trkpt><trkpt lat="42.7192876" lon="13.4448283"><ele>892.0</ele><time>2026-05-01T09:59:50.801Z</time></trkpt><trkpt lat="42.7194232" lon="13.4447607"><ele>891.6666666666666</ele><time>2026-05-01T09:59:51.801Z</time></trkpt><trkpt lat="42.7195743" lon="13.4447165"><ele>891.3333333333333</ele><time>2026-05-01T09:59:52.801Z</time></trkpt><trkpt lat="42.7197417" lon="13.444687"><ele>891.0</ele><time>2026-05-01T09:59:53.802Z</time></trkpt><trkpt lat="42.7199209" lon="13.4446614"><ele>885.3333333333333</ele><time>2026-05-01T09:59:54.8Z</time></trkpt><trkpt lat="42.720103" lon="13.4446272"><ele>879.6666666666666</ele><time>2026-05-01T09:59:55.802Z</time></trkpt><trkpt lat="42.7202829" lon="13.4446002"><ele>874.0</ele><time>2026-05-01T09:59:56.801Z</time></trkpt><trkpt lat="42.7204604" lon="13.44457"><ele>873.0</ele><time>2026-05-01T09:59:57.801Z</time></trkpt><trkpt lat="42.7206332" lon="13.4445413"><ele>872.0</ele><time>2026-05-01T09:59:58.801Z</time></trkpt><trkpt lat="42.7208041" lon="13.4445132"><ele>871.0</ele><time>2026-05-01T09:59:59.8Z</time></trkpt><trkpt lat="42.7209725" lon="13.4444842"><ele>869.6666666666666</ele><time>2026-05-01T10:00:00.801Z</time></trkpt><trkpt lat="42.7211346" lon="13.4444559"><ele>868.3333333333333</ele><time>2026-05-01T10:00:01.802Z</time></trkpt><trkpt lat="42.7212956" lon="13.4444395"><ele>867.0</ele><time>2026-05-01T10:00:02.801Z</time></trkpt><trkpt lat="42.7214479" lon="13.4444256"><ele>867.0</ele><time>2026-05-01T10:00:03.802Z</time></trkpt><trkpt lat="42.7215843" lon="13.4444229"><ele>867.0</ele><time>2026-05-01T10:00:04.801Z</time></trkpt><trkpt lat="42.7217119" lon="13.4444571"><ele>867.0</ele><time>2026-05-01T10:00:05.801Z</time></trkpt><trkpt lat="42.7218364" lon="13.4445267"><ele>867.0</ele><time>2026-05-01T10:00:06.801Z</time></trkpt><trkpt lat="42.7219541" lon="13.4446711"><ele>865.6666666666667</ele><time>2026-05-01T10:00:07.802Z</time></trkpt><trkpt lat="42.7220598" lon="13.444824"><ele>864.3333333333334</ele><time>2026-05-01T10:00:08.801Z</time></trkpt><trkpt lat="42.7221677" lon="13.4449645"><ele>863.0</ele><time>2026-05-01T10:00:09.801Z</time></trkpt><trkpt lat="42.7222611" lon="13.445118"><ele>863.0</ele><time>2026-05-01T10:00:10.801Z</time></trkpt><trkpt lat="42.7223515" lon="13.4452331"><ele>863.0</ele><time>2026-05-01T10:00:11.802Z</time></trkpt><trkpt lat="42.7224475" lon="13.4453253"><ele>863.0</ele><time>2026-05-01T10:00:12.802Z</time></trkpt><trkpt lat="42.7225471" lon="13.4453828"><ele>863.0</ele><time>2026-05-01T10:00:13.801Z</time></trkpt><trkpt lat="42.7226475" lon="13.4453999"><ele>861.0</ele><time>2026-05-01T10:00:14.8Z</time></trkpt><trkpt lat="42.7227507" lon="13.4453782"><ele>859.0</ele><time>2026-05-01T10:00:15.801Z</time></trkpt><trkpt lat="42.7228581" lon="13.4453267"><ele>857.0</ele><time>2026-05-01T10:00:16.801Z</time></trkpt><trkpt lat="42.7229722" lon="13.4452634"><ele>855.0</ele><time>2026-05-01T10:00:17.801Z</time></trkpt><trkpt lat="42.7231049" lon="13.4452226"><ele>855.0</ele><time>2026-05-01T10:00:18.801Z</time></trkpt><trkpt lat="42.723246" lon="13.4452004"><ele>855.0</ele><time>2026-05-01T10:00:19.802Z</time></trkpt><trkpt lat="42.723406" lon="13.4452002"><ele>855.0</ele><time>2026-05-01T10:00:20.801Z</time></trkpt><trkpt lat="42.7235717" lon="13.4451937"><ele>852.3333333333333</ele><time>2026-05-01T10:00:21.801Z</time></trkpt><trkpt lat="42.7237422" lon="13.4451886"><ele>849.6666666666666</ele><time>2026-05-01T10:00:22.801Z</time></trkpt><trkpt lat="42.7239141" lon="13.4451682"><ele>847.0</ele><time>2026-05-01T10:00:23.801Z</time></trkpt><trkpt lat="42.7240779" lon="13.4451445"><ele>847.0</ele><time>2026-05-01T10:00:24.8Z</time></trkpt><trkpt lat="42.7242407" lon="13.445109"><ele>847.0</ele><time>2026-05-01T10:00:25.801Z</time></trkpt><trkpt lat="42.7243966" lon="13.4450467"><ele>847.0</ele><time>2026-05-01T10:00:26.8Z</time></trkpt><trkpt lat="42.7245485" lon="13.4449959"><ele>846.25</ele><time>2026-05-01T10:00:27.801Z</time></trkpt><trkpt lat="42.7246998" lon="13.4449446"><ele>845.5</ele><time>2026-05-01T10:00:28.8Z</time></trkpt><trkpt lat="42.7248383" lon="13.4448921"><ele>844.75</ele><time>2026-05-01T10:00:29.801Z</time></trkpt><trkpt lat="42.7249637" lon="13.4448461"><ele>844.0</ele><time>2026-05-01T10:00:30.802Z</time></trkpt><trkpt lat="42.7250783" lon="13.444811"><ele>844.0</ele><time>2026-05-01T10:00:31.802Z</time></trkpt><trkpt lat="42.7251853" lon="13.4448073"><ele>844.0</ele><time>2026-05-01T10:00:32.801Z</time></trkpt><trkpt lat="42.7252873" lon="13.4448305"><ele>844.0</ele><time>2026-05-01T10:00:33.801Z</time></trkpt><trkpt lat="42.7253854" lon="13.4448827"><ele>844.0</ele><time>2026-05-01T10:00:34.801Z</time></trkpt><trkpt lat="42.7254842" lon="13.4449741"><ele>844.0</ele><time>2026-05-01T10:00:35.801Z</time></trkpt><trkpt lat="42.7255768" lon="13.4450914"><ele>843.75</ele><time>2026-05-01T10:00:36.801Z</time></trkpt><trkpt lat="42.7256659" lon="13.4452244"><ele>843.5</ele><time>2026-05-01T10:00:37.802Z</time></trkpt><trkpt lat="42.725757" lon="13.4453678"><ele>843.25</ele><time>2026-05-01T10:00:38.8Z</time></trkpt><trkpt lat="42.7258537" lon="13.445526"><ele>843.0</ele><time>2026-05-01T10:00:39.8Z</time></trkpt><trkpt lat="42.7259432" lon="13.4457016"><ele>843.0</ele><time>2026-05-01T10:00:40.8Z</time></trkpt><trkpt lat="42.7260308" lon="13.4458979"><ele>843.0</ele><time>2026-05-01T10:00:41.801Z</time></trkpt><trkpt lat="42.726119" lon="13.4461135"><ele>843.0</ele><time>2026-05-01T10:00:42.801Z</time></trkpt><trkpt lat="42.7262048" lon="13.446327"><ele>837.0</ele><time>2026-05-01T10:00:43.801Z</time></trkpt><trkpt lat="42.7262818" lon="13.4465378"><ele>831.0</ele><time>2026-05-01T10:00:44.802Z</time></trkpt><trkpt lat="42.726355" lon="13.4467446"><ele>825.0</ele><time>2026-05-01T10:00:45.8Z</time></trkpt><trkpt lat="42.7264256" lon="13.4469501"><ele>826.3333333333333</ele><time>2026-05-01T10:00:46.801Z</time></trkpt><trkpt lat="42.7264975" lon="13.4471482"><ele>827.6666666666666</ele><time>2026-05-01T10:00:47.801Z</time></trkpt><trkpt lat="42.7265696" lon="13.4473422"><ele>829.0</ele><time>2026-05-01T10:00:48.802Z</time></trkpt><trkpt lat="42.7266374" lon="13.4475378"><ele>829.0</ele><time>2026-05-01T10:00:49.801Z</time></trkpt><trkpt lat="42.7266962" lon="13.4477289"><ele>829.0</ele><time>2026-05-01T10:00:50.8Z</time></trkpt><trkpt lat="42.7267449" lon="13.4479217"><ele>829.0</ele><time>2026-05-01T10:00:51.801Z</time></trkpt><trkpt lat="42.7267807" lon="13.4481147"><ele>829.0</ele><time>2026-05-01T10:00:52.802Z</time></trkpt><trkpt lat="42.7267995" lon="13.4483085"><ele>829.25</ele><time>2026-05-01T10:00:53.802Z</time></trkpt><trkpt lat="42.7268132" lon="13.4484998"><ele>829.5</ele><time>2026-05-01T10:00:54.801Z</time></trkpt><trkpt lat="42.7268277" lon="13.4486915"><ele>829.75</ele><time>2026-05-01T10:00:55.8Z</time></trkpt><trkpt lat="42.7268414" lon="13.4488864"><ele>830.0</ele><time>2026-05-01T10:00:56.801Z</time></trkpt><trkpt lat="42.726857" lon="13.4490752"><ele>830.0</ele><time>2026-05-01T10:00:57.8Z</time></trkpt><trkpt lat="42.7268651" lon="13.4492553"><ele>830.0</ele><time>2026-05-01T10:00:58.8Z</time></trkpt><trkpt lat="42.7268595" lon="13.4494359"><ele>830.0</ele><time>2026-05-01T10:00:59.802Z</time></trkpt><trkpt lat="42.7268319" lon="13.4496143"><ele>830.0</ele><time>2026-05-01T10:01:00.801Z</time></trkpt><trkpt lat="42.7267825" lon="13.4497751"><ele>829.75</ele><time>2026-05-01T10:01:01.8Z</time></trkpt><trkpt lat="42.72672" lon="13.4499224"><ele>829.5</ele><time>2026-05-01T10:01:02.801Z</time></trkpt><trkpt lat="42.726633" lon="13.4500623"><ele>829.25</ele><time>2026-05-01T10:01:03.8Z</time></trkpt><trkpt lat="42.726537" lon="13.4501908"><ele>829.0</ele><time>2026-05-01T10:01:04.801Z</time></trkpt><trkpt lat="42.7264604" lon="13.4503067"><ele>828.9999999999999</ele><time>2026-05-01T10:01:05.802Z</time></trkpt><trkpt lat="42.7263888" lon="13.4504171"><ele>829.0</ele><time>2026-05-01T10:01:06.802Z</time></trkpt><trkpt lat="42.7263261" lon="13.4505352"><ele>829.0</ele><time>2026-05-01T10:01:07.801Z</time></trkpt><trkpt lat="42.7263543" lon="13.4506163"><ele>829.0</ele><time>2026-05-01T10:01:08.8Z</time></trkpt><trkpt lat="42.7263917" lon="13.4507131"><ele>828.9999999999999</ele><time>2026-05-01T10:01:09.802Z</time></trkpt><trkpt lat="42.7264443" lon="13.4507847"><ele>829.0</ele><time>2026-05-01T10:01:10.8Z</time></trkpt><trkpt lat="42.7265228" lon="13.4508027"><ele>832.0</ele><time>2026-05-01T10:01:11.8Z</time></trkpt><trkpt lat="42.7266167" lon="13.4507849"><ele>835.0</ele><time>2026-05-01T10:01:12.8Z</time></trkpt><trkpt lat="42.726722" lon="13.4507287"><ele>838.0</ele><time>2026-05-01T10:01:13.801Z</time></trkpt><trkpt lat="42.7268395" lon="13.4506819"><ele>841.0</ele><time>2026-05-01T10:01:14.801Z</time></trkpt><trkpt lat="42.7269661" lon="13.4506405"><ele>841.0</ele><time>2026-05-01T10:01:15.801Z</time></trkpt><trkpt lat="42.7270835" lon="13.4505952"><ele>841.0</ele><time>2026-05-01T10:01:16.801Z</time></trkpt><trkpt lat="42.7272021" lon="13.4505497"><ele>841.0</ele><time>2026-05-01T10:01:17.801Z</time></trkpt><trkpt lat="42.7273119" lon="13.4504995"><ele>841.0</ele><time>2026-05-01T10:01:18.8Z</time></trkpt><trkpt lat="42.7274138" lon="13.4504483"><ele>840.9999999999999</ele><time>2026-05-01T10:01:19.801Z</time></trkpt><trkpt lat="42.7275039" lon="13.4504144"><ele>841.0</ele><time>2026-05-01T10:01:20.802Z</time></trkpt><trkpt lat="42.7275793" lon="13.450407"><ele>841.0</ele><time>2026-05-01T10:01:21.802Z</time></trkpt><trkpt lat="42.7276462" lon="13.450434"><ele>841.0</ele><time>2026-05-01T10:01:22.8Z</time></trkpt><trkpt lat="42.7277174" lon="13.4504858"><ele>840.9999999999999</ele><time>2026-05-01T10:01:23.8Z</time></trkpt><trkpt lat="42.72779" lon="13.4505347"><ele>841.0</ele><time>2026-05-01T10:01:24.801Z</time></trkpt><trkpt lat="42.7278761" lon="13.4505583"><ele>840.8</ele><time>2026-05-01T10:01:25.802Z</time></trkpt><trkpt lat="42.7279709" lon="13.4505531"><ele>840.5999999999999</ele><time>2026-05-01T10:01:26.801Z</time></trkpt><trkpt lat="42.7280772" lon="13.450524"><ele>840.4</ele><time>2026-05-01T10:01:27.801Z</time></trkpt><trkpt lat="42.7281812" lon="13.4504718"><ele>840.2</ele><time>2026-05-01T10:01:28.8Z</time></trkpt><trkpt lat="42.728299" lon="13.4504408"><ele>840.0</ele><time>2026-05-01T10:01:29.8Z</time></trkpt><trkpt lat="42.7284249" lon="13.4504207"><ele>838.8</ele><time>2026-05-01T10:01:30.8Z</time></trkpt><trkpt lat="42.7285462" lon="13.4504123"><ele>837.6</ele><time>2026-05-01T10:01:31.801Z</time></trkpt><trkpt lat="42.7286579" lon="13.45041"><ele>836.4000000000001</ele><time>2026-05-01T10:01:32.801Z</time></trkpt><trkpt lat="42.7287615" lon="13.4504106"><ele>835.2</ele><time>2026-05-01T10:01:33.8Z</time></trkpt><trkpt lat="42.7288558" lon="13.4504118"><ele>834.0</ele><time>2026-05-01T10:01:34.801Z</time></trkpt><trkpt lat="42.7289362" lon="13.4504241"><ele>834.2</ele><time>2026-05-01T10:01:35.801Z</time></trkpt><trkpt lat="42.7290103" lon="13.4504652"><ele>834.4000000000001</ele><time>2026-05-01T10:01:36.801Z</time></trkpt><trkpt lat="42.7290735" lon="13.4505389"><ele>834.6</ele><time>2026-05-01T10:01:37.8Z</time></trkpt><trkpt lat="42.7291256" lon="13.4506421"><ele>834.8</ele><time>2026-05-01T10:01:38.801Z</time></trkpt><trkpt lat="42.729166" lon="13.4507777"><ele>835.0</ele><time>2026-05-01T10:01:39.802Z</time></trkpt><trkpt lat="42.7291911" lon="13.450935"><ele>835.0</ele><time>2026-05-01T10:01:40.801Z</time></trkpt><trkpt lat="42.7292128" lon="13.4511134"><ele>835.0</ele><time>2026-05-01T10:01:41.801Z</time></trkpt><trkpt lat="42.7292381" lon="13.4513082"><ele>835.0</ele><time>2026-05-01T10:01:42.8Z</time></trkpt><trkpt lat="42.7292627" lon="13.4515095"><ele>835.0</ele><time>2026-05-01T10:01:43.801Z</time></trkpt><trkpt lat="42.7292863" lon="13.4517143"><ele>835.0</ele><time>2026-05-01T10:01:44.801Z</time></trkpt><trkpt lat="42.7293128" lon="13.4519241"><ele>835.0</ele><time>2026-05-01T10:01:45.801Z</time></trkpt><trkpt lat="42.7293381" lon="13.4521264"><ele>835.0</ele><time>2026-05-01T10:01:46.802Z</time></trkpt><trkpt lat="42.7293631" lon="13.4523342"><ele>835.0</ele><time>2026-05-01T10:01:47.802Z</time></trkpt><trkpt lat="42.7293817" lon="13.452542"><ele>835.0</ele><time>2026-05-01T10:01:48.8Z</time></trkpt><trkpt lat="42.7293863" lon="13.4527531"><ele>835.0</ele><time>2026-05-01T10:01:49.801Z</time></trkpt><trkpt lat="42.7293833" lon="13.4529589"><ele>835.0</ele><time>2026-05-01T10:01:50.8Z</time></trkpt><trkpt lat="42.7293779" lon="13.4531665"><ele>835.0</ele><time>2026-05-01T10:01:51.8Z</time></trkpt><trkpt lat="42.729373" lon="13.4533689"><ele>835.0</ele><time>2026-05-01T10:01:52.8Z</time></trkpt><trkpt lat="42.7293755" lon="13.4535609"><ele>835.0</ele><time>2026-05-01T10:01:53.8Z</time></trkpt><trkpt lat="42.7293951" lon="13.4537436"><ele>832.5</ele><time>2026-05-01T10:01:54.8Z</time></trkpt><trkpt lat="42.7294361" lon="13.4539122"><ele>830.0</ele><time>2026-05-01T10:01:55.802Z</time></trkpt><trkpt lat="42.7295063" lon="13.4540659"><ele>827.5</ele><time>2026-05-01T10:01:56.802Z</time></trkpt><trkpt lat="42.7296079" lon="13.4542055"><ele>825.0</ele><time>2026-05-01T10:01:57.801Z</time></trkpt><trkpt lat="42.729732" lon="13.4543296"><ele>825.0</ele><time>2026-05-01T10:01:58.801Z</time></trkpt><trkpt lat="42.7298707" lon="13.4544457"><ele>825.0</ele><time>2026-05-01T10:01:59.801Z</time></trkpt><trkpt lat="42.7300086" lon="13.454563"><ele>825.0</ele><time>2026-05-01T10:02:00.801Z</time></trkpt><trkpt lat="42.7301432" lon="13.4546792"><ele>826.5</ele><time>2026-05-01T10:02:01.8Z</time></trkpt><trkpt lat="42.7302588" lon="13.4548042"><ele>828.0</ele><time>2026-05-01T10:02:02.8Z</time></trkpt><trkpt lat="42.7303662" lon="13.4549349"><ele>829.5</ele><time>2026-05-01T10:02:03.801Z</time></trkpt><trkpt lat="42.7304672" lon="13.4550787"><ele>831.0</ele><time>2026-05-01T10:02:04.801Z</time></trkpt><trkpt lat="42.7305665" lon="13.4552385"><ele>831.0</ele><time>2026-05-01T10:02:05.801Z</time></trkpt><trkpt lat="42.7306671" lon="13.4554022"><ele>831.0</ele><time>2026-05-01T10:02:06.8Z</time></trkpt><trkpt lat="42.7307667" lon="13.4555739"><ele>831.0</ele><time>2026-05-01T10:02:07.8Z</time></trkpt><trkpt lat="42.7308654" lon="13.4557388"><ele>833.3333333333333</ele><time>2026-05-01T10:02:08.801Z</time></trkpt><trkpt lat="42.7309626" lon="13.4559039"><ele>835.6666666666666</ele><time>2026-05-01T10:02:09.802Z</time></trkpt><trkpt lat="42.7310503" lon="13.4560758"><ele>838.0</ele><time>2026-05-01T10:02:10.801Z</time></trkpt><trkpt lat="42.7311254" lon="13.4562549"><ele>832.75</ele><time>2026-05-01T10:02:11.801Z</time></trkpt><trkpt lat="42.7311907" lon="13.4564316"><ele>827.5</ele><time>2026-05-01T10:02:12.8Z</time></trkpt><trkpt lat="42.731244" lon="13.4565996"><ele>822.25</ele><time>2026-05-01T10:02:13.801Z</time></trkpt><trkpt lat="42.7312831" lon="13.4567581"><ele>817.0</ele><time>2026-05-01T10:02:14.801Z</time></trkpt><trkpt lat="42.7313021" lon="13.4569081"><ele>817.0</ele><time>2026-05-01T10:02:15.802Z</time></trkpt><trkpt lat="42.7312914" lon="13.4570489"><ele>817.0</ele><time>2026-05-01T10:02:16.802Z</time></trkpt><trkpt lat="42.7312501" lon="13.4571929"><ele>817.0</ele><time>2026-05-01T10:02:17.8Z</time></trkpt><trkpt lat="42.731185" lon="13.457311"><ele>817.0</ele><time>2026-05-01T10:02:18.801Z</time></trkpt><trkpt lat="42.7311026" lon="13.4574002"><ele>817.0</ele><time>2026-05-01T10:02:19.8Z</time></trkpt><trkpt lat="42.730982" lon="13.4574589"><ele>822.0</ele><time>2026-05-01T10:02:20.801Z</time></trkpt><trkpt lat="42.730837" lon="13.4574967"><ele>827.0</ele><time>2026-05-01T10:02:21.801Z</time></trkpt><trkpt lat="42.7306807" lon="13.4575311"><ele>832.0</ele><time>2026-05-01T10:02:22.801Z</time></trkpt><trkpt lat="42.7305123" lon="13.4575647"><ele>832.0</ele><time>2026-05-01T10:02:23.801Z</time></trkpt><trkpt lat="42.7303338" lon="13.4575988"><ele>832.0</ele><time>2026-05-01T10:02:24.802Z</time></trkpt><trkpt lat="42.7301574" lon="13.4576305"><ele>832.0</ele><time>2026-05-01T10:02:25.8Z</time></trkpt><trkpt lat="42.7299859" lon="13.4576687"><ele>836.0</ele><time>2026-05-01T10:02:26.8Z</time></trkpt><trkpt lat="42.7298212" lon="13.4577043"><ele>840.0</ele><time>2026-05-01T10:02:27.801Z</time></trkpt><trkpt lat="42.7296589" lon="13.4577472"><ele>844.0</ele><time>2026-05-01T10:02:28.8Z</time></trkpt><trkpt lat="42.7295057" lon="13.4577912"><ele>844.75</ele><time>2026-05-01T10:02:29.8Z</time></trkpt><trkpt lat="42.7293576" lon="13.4578425"><ele>845.5</ele><time>2026-05-01T10:02:30.801Z</time></trkpt><trkpt lat="42.7292123" lon="13.4578811"><ele>846.25</ele><time>2026-05-01T10:02:31.801Z</time></trkpt><trkpt lat="42.7290743" lon="13.45792"><ele>847.0</ele><time>2026-05-01T10:02:32.8Z</time></trkpt><trkpt lat="42.7289525" lon="13.4579599"><ele>841.4000000000001</ele><time>2026-05-01T10:02:33.802Z</time></trkpt><trkpt lat="42.728849" lon="13.4580041"><ele>835.8000000000001</ele><time>2026-05-01T10:02:34.802Z</time></trkpt><trkpt lat="42.7287653" lon="13.4580659"><ele>830.2</ele><time>2026-05-01T10:02:35.8Z</time></trkpt><trkpt lat="42.7287031" lon="13.4581435"><ele>824.6</ele><time>2026-05-01T10:02:36.801Z</time></trkpt><trkpt lat="42.7286706" lon="13.4582378"><ele>819.0</ele><time>2026-05-01T10:02:37.801Z</time></trkpt><trkpt lat="42.7286592" lon="13.4583619"><ele>819.0</ele><time>2026-05-01T10:02:38.802Z</time></trkpt><trkpt lat="42.728654" lon="13.4585074"><ele>819.0</ele><time>2026-05-01T10:02:39.8Z</time></trkpt><trkpt lat="42.7286414" lon="13.4586667"><ele>819.0</ele><time>2026-05-01T10:02:40.801Z</time></trkpt><trkpt lat="42.7286338" lon="13.4588372"><ele>819.0</ele><time>2026-05-01T10:02:41.801Z</time></trkpt><trkpt lat="42.7286367" lon="13.4590028"><ele>818.25</ele><time>2026-05-01T10:02:42.802Z</time></trkpt><trkpt lat="42.7286582" lon="13.4591636"><ele>817.5</ele><time>2026-05-01T10:02:43.802Z</time></trkpt><trkpt lat="42.7286963" lon="13.45933"><ele>816.75</ele><time>2026-05-01T10:02:44.802Z</time></trkpt><trkpt lat="42.7287461" lon="13.4595079"><ele>816.0</ele><time>2026-05-01T10:02:45.8Z</time></trkpt><trkpt lat="42.7288553" lon="13.4596357"><ele>816.0</ele><time>2026-05-01T10:02:46.8Z</time></trkpt><trkpt lat="42.728927" lon="13.4597907"><ele>816.0</ele><time>2026-05-01T10:02:47.801Z</time></trkpt><trkpt lat="42.7289989" lon="13.4599478"><ele>816.0</ele><time>2026-05-01T10:02:48.802Z</time></trkpt><trkpt lat="42.7290869" lon="13.4600995"><ele>816.0</ele><time>2026-05-01T10:02:49.802Z</time></trkpt><trkpt lat="42.7292103" lon="13.4602156"><ele>816.0</ele><time>2026-05-01T10:02:50.801Z</time></trkpt><trkpt lat="42.7293232" lon="13.4603138"><ele>816.0</ele><time>2026-05-01T10:02:51.8Z</time></trkpt><trkpt lat="42.7294398" lon="13.4604091"><ele>816.0</ele><time>2026-05-01T10:02:52.802Z</time></trkpt><trkpt lat="42.7295397" lon="13.4605183"><ele>816.0</ele><time>2026-05-01T10:02:53.801Z</time></trkpt><trkpt lat="42.7296238" lon="13.4606434"><ele>811.4</ele><time>2026-05-01T10:02:54.8Z</time></trkpt><trkpt lat="42.7296821" lon="13.4607801"><ele>806.8</ele><time>2026-05-01T10:02:55.801Z</time></trkpt><trkpt lat="42.7297073" lon="13.4609165"><ele>802.1999999999999</ele><time>2026-05-01T10:02:56.802Z</time></trkpt><trkpt lat="42.7296996" lon="13.4610288"><ele>797.5999999999999</ele><time>2026-05-01T10:02:57.8Z</time></trkpt><trkpt lat="42.7296524" lon="13.4611187"><ele>793.0</ele><time>2026-05-01T10:02:58.801Z</time></trkpt><trkpt lat="42.7296018" lon="13.4612052"><ele>793.0</ele><time>2026-05-01T10:02:59.8Z</time></trkpt><trkpt lat="42.7294365" lon="13.4612421"><ele>793.0</ele><time>2026-05-01T10:03:00.802Z</time></trkpt><trkpt lat="42.729305" lon="13.461312"><ele>793.0</ele><time>2026-05-01T10:03:01.801Z</time></trkpt><trkpt lat="42.7291579" lon="13.4613852"><ele>792.0</ele><time>2026-05-01T10:03:02.8Z</time></trkpt><trkpt lat="42.7290103" lon="13.4614503"><ele>791.0</ele><time>2026-05-01T10:03:03.802Z</time></trkpt><trkpt lat="42.7288619" lon="13.4615044"><ele>790.0</ele><time>2026-05-01T10:03:04.801Z</time></trkpt><trkpt lat="42.7287105" lon="13.4615682"><ele>790.0</ele><time>2026-05-01T10:03:05.801Z</time></trkpt><trkpt lat="42.7285671" lon="13.4616597"><ele>790.0</ele><time>2026-05-01T10:03:06.801Z</time></trkpt><trkpt lat="42.7284266" lon="13.4617587"><ele>790.0</ele><time>2026-05-01T10:03:07.8Z</time></trkpt><trkpt lat="42.7282832" lon="13.4618512"><ele>788.75</ele><time>2026-05-01T10:03:08.8Z</time></trkpt><trkpt lat="42.7281468" lon="13.4619412"><ele>787.5</ele><time>2026-05-01T10:03:09.802Z</time></trkpt><trkpt lat="42.7280344" lon="13.462035"><ele>786.25</ele><time>2026-05-01T10:03:10.8Z</time></trkpt><trkpt lat="42.7279486" lon="13.4621444"><ele>785.0</ele><time>2026-05-01T10:03:11.8Z</time></trkpt><trkpt lat="42.7278719" lon="13.4622604"><ele>785.0000000000001</ele><time>2026-05-01T10:03:12.8Z</time></trkpt><trkpt lat="42.7278419" lon="13.4623736"><ele>785.0</ele><time>2026-05-01T10:03:13.8Z</time></trkpt><trkpt lat="42.7278393" lon="13.4624974"><ele>785.0</ele><time>2026-05-01T10:03:14.801Z</time></trkpt><trkpt lat="42.7278708" lon="13.4626091"><ele>785.0</ele><time>2026-05-01T10:03:15.802Z</time></trkpt><trkpt lat="42.7279147" lon="13.4627027"><ele>785.0000000000001</ele><time>2026-05-01T10:03:16.802Z</time></trkpt><trkpt lat="42.7279678" lon="13.4627505"><ele>785.0</ele><time>2026-05-01T10:03:17.801Z</time></trkpt><trkpt lat="42.728139" lon="13.462762"><ele>785.0</ele><time>2026-05-01T10:03:18.801Z</time></trkpt><trkpt lat="42.7282647" lon="13.4627427"><ele>785.0</ele><time>2026-05-01T10:03:19.801Z</time></trkpt><trkpt lat="42.7284057" lon="13.4627214"><ele>785.0</ele><time>2026-05-01T10:03:20.801Z</time></trkpt><trkpt lat="42.7285697" lon="13.4627262"><ele>785.0</ele><time>2026-05-01T10:03:21.8Z</time></trkpt><trkpt lat="42.7287322" lon="13.4627491"><ele>781.0</ele><time>2026-05-01T10:03:22.801Z</time></trkpt><trkpt lat="42.7289006" lon="13.4627671"><ele>777.0</ele><time>2026-05-01T10:03:23.8Z</time></trkpt><trkpt lat="42.7290652" lon="13.4627843"><ele>773.0</ele><time>2026-05-01T10:03:24.801Z</time></trkpt><trkpt lat="42.7292305" lon="13.4628011"><ele>773.0</ele><time>2026-05-01T10:03:25.8Z</time></trkpt><trkpt lat="42.729386" lon="13.4628283"><ele>773.0</ele><time>2026-05-01T10:03:26.801Z</time></trkpt><trkpt lat="42.7295369" lon="13.4628803"><ele>773.0</ele><time>2026-05-01T10:03:27.801Z</time></trkpt><trkpt lat="42.7296857" lon="13.462957"><ele>775.3333333333334</ele><time>2026-05-01T10:03:28.801Z</time></trkpt><trkpt lat="42.7298315" lon="13.4630547"><ele>777.6666666666667</ele><time>2026-05-01T10:03:29.802Z</time></trkpt><trkpt lat="42.7299724" lon="13.4631467"><ele>780.0</ele><time>2026-05-01T10:03:30.801Z</time></trkpt><trkpt lat="42.7301153" lon="13.4632317"><ele>774.0</ele><time>2026-05-01T10:03:31.801Z</time></trkpt><trkpt lat="42.7302575" lon="13.4632979"><ele>768.0</ele><time>2026-05-01T10:03:32.8Z</time></trkpt><trkpt lat="42.7304007" lon="13.4633618"><ele>762.0</ele><time>2026-05-01T10:03:33.801Z</time></trkpt><trkpt lat="42.7305433" lon="13.4634118"><ele>756.0</ele><time>2026-05-01T10:03:34.8Z</time></trkpt><trkpt lat="42.7306818" lon="13.4634673"><ele>756.0</ele><time>2026-05-01T10:03:35.801Z</time></trkpt><trkpt lat="42.730829" lon="13.4635287"><ele>756.0</ele><time>2026-05-01T10:03:36.801Z</time></trkpt><trkpt lat="42.7309758" lon="13.4635956"><ele>756.0</ele><time>2026-05-01T10:03:37.8Z</time></trkpt><trkpt lat="42.731122" lon="13.4636657"><ele>758.0</ele><time>2026-05-01T10:03:38.801Z</time></trkpt><trkpt lat="42.7312681" lon="13.4637185"><ele>760.0</ele><time>2026-05-01T10:03:39.801Z</time></trkpt><trkpt lat="42.7314144" lon="13.4637711"><ele>762.0</ele><time>2026-05-01T10:03:40.802Z</time></trkpt><trkpt lat="42.7315558" lon="13.4638128"><ele>764.0</ele><time>2026-05-01T10:03:41.801Z</time></trkpt><trkpt lat="42.7316925" lon="13.4638572"><ele>764.0</ele><time>2026-05-01T10:03:42.801Z</time></trkpt><trkpt lat="42.7318227" lon="13.4638958"><ele>764.0</ele><time>2026-05-01T10:03:43.8Z</time></trkpt><trkpt lat="42.731934" lon="13.4639417"><ele>764.0</ele><time>2026-05-01T10:03:44.8Z</time></trkpt><trkpt lat="42.7320264" lon="13.4640188"><ele>764.0</ele><time>2026-05-01T10:03:45.8Z</time></trkpt><trkpt lat="42.7320942" lon="13.464109"><ele>758.0</ele><time>2026-05-01T10:03:46.801Z</time></trkpt><trkpt lat="42.7321335" lon="13.4642262"><ele>752.0</ele><time>2026-05-01T10:03:47.802Z</time></trkpt><trkpt lat="42.7321261" lon="13.4643507"><ele>746.0</ele><time>2026-05-01T10:03:48.801Z</time></trkpt><trkpt lat="42.7320806" lon="13.464499"><ele>740.0</ele><time>2026-05-01T10:03:49.801Z</time></trkpt><trkpt lat="42.7320342" lon="13.4646546"><ele>734.0</ele><time>2026-05-01T10:03:50.801Z</time></trkpt><trkpt lat="42.7319499" lon="13.4648506"><ele>737.0</ele><time>2026-05-01T10:03:51.801Z</time></trkpt><trkpt lat="42.7319011" lon="13.465057"><ele>740.0</ele><time>2026-05-01T10:03:52.8Z</time></trkpt><trkpt lat="42.7318568" lon="13.4652662"><ele>743.0</ele><time>2026-05-01T10:03:53.802Z</time></trkpt><trkpt lat="42.7318215" lon="13.4654704"><ele>743.0</ele><time>2026-05-01T10:03:54.802Z</time></trkpt><trkpt lat="42.7317783" lon="13.4656757"><ele>743.0</ele><time>2026-05-01T10:03:55.802Z</time></trkpt><trkpt lat="42.7317367" lon="13.4658743"><ele>743.0</ele><time>2026-05-01T10:03:56.801Z</time></trkpt><trkpt lat="42.7316988" lon="13.4660614"><ele>743.0</ele><time>2026-05-01T10:03:57.801Z</time></trkpt><trkpt lat="42.7316677" lon="13.4662285"><ele>743.0</ele><time>2026-05-01T10:03:58.8Z</time></trkpt><trkpt lat="42.7316264" lon="13.466377"><ele>743.0</ele><time>2026-05-01T10:03:59.8Z</time></trkpt><trkpt lat="42.7315612" lon="13.4665079"><ele>743.0</ele><time>2026-05-01T10:04:00.8Z</time></trkpt><trkpt lat="42.7314718" lon="13.4666056"><ele>741.0</ele><time>2026-05-01T10:04:01.8Z</time></trkpt><trkpt lat="42.731358" lon="13.4666537"><ele>739.0</ele><time>2026-05-01T10:04:02.801Z</time></trkpt><trkpt lat="42.731219" lon="13.4666709"><ele>737.0</ele><time>2026-05-01T10:04:03.8Z</time></trkpt><trkpt lat="42.7310594" lon="13.4666709"><ele>735.0</ele><time>2026-05-01T10:04:04.802Z</time></trkpt><trkpt lat="42.7308915" lon="13.4666583"><ele>735.0</ele><time>2026-05-01T10:04:05.801Z</time></trkpt><trkpt lat="42.7307275" lon="13.4666604"><ele>735.0</ele><time>2026-05-01T10:04:06.801Z</time></trkpt><trkpt lat="42.7305686" lon="13.4666597"><ele>735.0</ele><time>2026-05-01T10:04:07.802Z</time></trkpt><trkpt lat="42.7304123" lon="13.4666593"><ele>735.0</ele><time>2026-05-01T10:04:08.8Z</time></trkpt><trkpt lat="42.730258" lon="13.4666599"><ele>735.0</ele><time>2026-05-01T10:04:09.801Z</time></trkpt><trkpt lat="42.7301094" lon="13.4666603"><ele>735.0</ele><time>2026-05-01T10:04:10.801Z</time></trkpt><trkpt lat="42.7299691" lon="13.4666642"><ele>735.0</ele><time>2026-05-01T10:04:11.801Z</time></trkpt><trkpt lat="42.7298466" lon="13.4666727"><ele>734.25</ele><time>2026-05-01T10:04:12.8Z</time></trkpt><trkpt lat="42.7297394" lon="13.4666833"><ele>733.5</ele><time>2026-05-01T10:04:13.801Z</time></trkpt><trkpt lat="42.729645" lon="13.4667061"><ele>732.75</ele><time>2026-05-01T10:04:14.801Z</time></trkpt><trkpt lat="42.729571" lon="13.4667678"><ele>732.0</ele><time>2026-05-01T10:04:15.8Z</time></trkpt><trkpt lat="42.7295571" lon="13.4669843"><ele>732.0</ele><time>2026-05-01T10:04:17.8Z</time></trkpt><trkpt lat="42.7296049" lon="13.4670961"><ele>732.0</ele><time>2026-05-01T10:04:18.802Z</time></trkpt><trkpt lat="42.729683" lon="13.4671849"><ele>732.0</ele><time>2026-05-01T10:04:19.802Z</time></trkpt><trkpt lat="42.7297907" lon="13.4672528"><ele>732.0</ele><time>2026-05-01T10:04:20.802Z</time></trkpt><trkpt lat="42.7299117" lon="13.4672931"><ele>732.0</ele><time>2026-05-01T10:04:21.801Z</time></trkpt><trkpt lat="42.7300193" lon="13.4673794"><ele>730.0</ele><time>2026-05-01T10:04:22.802Z</time></trkpt><trkpt lat="42.7301174" lon="13.4674851"><ele>728.0</ele><time>2026-05-01T10:04:23.8Z</time></trkpt><trkpt lat="42.730213" lon="13.4676126"><ele>726.0</ele><time>2026-05-01T10:04:24.801Z</time></trkpt><trkpt lat="42.7303103" lon="13.4677753"><ele>724.0</ele><time>2026-05-01T10:04:25.8Z</time></trkpt><trkpt lat="42.7304039" lon="13.4679502"><ele>719.0</ele><time>2026-05-01T10:04:26.8Z</time></trkpt><trkpt lat="42.7305056" lon="13.4681403"><ele>714.0</ele><time>2026-05-01T10:04:27.802Z</time></trkpt><trkpt lat="42.7306076" lon="13.4683299"><ele>709.0</ele><time>2026-05-01T10:04:28.801Z</time></trkpt><trkpt lat="42.7307118" lon="13.4685018"><ele>709.0</ele><time>2026-05-01T10:04:29.802Z</time></trkpt><trkpt lat="42.7308187" lon="13.4686634"><ele>709.0</ele><time>2026-05-01T10:04:30.802Z</time></trkpt><trkpt lat="42.7309353" lon="13.4688088"><ele>709.0</ele><time>2026-05-01T10:04:31.802Z</time></trkpt><trkpt lat="42.7310464" lon="13.468929"><ele>707.5</ele><time>2026-05-01T10:04:32.8Z</time></trkpt><trkpt lat="42.7311448" lon="13.4690588"><ele>706.0</ele><time>2026-05-01T10:04:33.801Z</time></trkpt><trkpt lat="42.7312295" lon="13.4692156"><ele>704.5</ele><time>2026-05-01T10:04:34.801Z</time></trkpt><trkpt lat="42.7312977" lon="13.4694064"><ele>703.0</ele><time>2026-05-01T10:04:35.801Z</time></trkpt><trkpt lat="42.7313512" lon="13.4696209"><ele>703.0</ele><time>2026-05-01T10:04:36.801Z</time></trkpt><trkpt lat="42.7313933" lon="13.4698234"><ele>703.0</ele><time>2026-05-01T10:04:37.801Z</time></trkpt><trkpt lat="42.7314234" lon="13.4700253"><ele>703.0</ele><time>2026-05-01T10:04:38.802Z</time></trkpt><trkpt lat="42.7314413" lon="13.4702159"><ele>703.0</ele><time>2026-05-01T10:04:39.8Z</time></trkpt><trkpt lat="42.7314251" lon="13.4704105"><ele>702.5999999999999</ele><time>2026-05-01T10:04:40.8Z</time></trkpt><trkpt lat="42.7313905" lon="13.4705745"><ele>702.1999999999999</ele><time>2026-05-01T10:04:41.802Z</time></trkpt><trkpt lat="42.7313337" lon="13.4707105"><ele>701.8</ele><time>2026-05-01T10:04:42.801Z</time></trkpt><trkpt lat="42.7312794" lon="13.4708376"><ele>701.4</ele><time>2026-05-01T10:04:43.8Z</time></trkpt><trkpt lat="42.7312533" lon="13.4709338"><ele>701.0</ele><time>2026-05-01T10:04:44.802Z</time></trkpt><trkpt lat="42.7312644" lon="13.471059"><ele>701.0</ele><time>2026-05-01T10:04:45.801Z</time></trkpt><trkpt lat="42.7313046" lon="13.4711784"><ele>701.0</ele><time>2026-05-01T10:04:46.801Z</time></trkpt><trkpt lat="42.7313455" lon="13.4713049"><ele>701.0</ele><time>2026-05-01T10:04:47.8Z</time></trkpt><trkpt lat="42.7313796" lon="13.4714402"><ele>701.0</ele><time>2026-05-01T10:04:48.802Z</time></trkpt><trkpt lat="42.7313855" lon="13.4715824"><ele>701.0</ele><time>2026-05-01T10:04:49.801Z</time></trkpt><trkpt lat="42.7313687" lon="13.4717483"><ele>699.3333333333333</ele><time>2026-05-01T10:04:50.801Z</time></trkpt><trkpt lat="42.7313488" lon="13.4719419"><ele>697.6666666666666</ele><time>2026-05-01T10:04:51.801Z</time></trkpt><trkpt lat="42.731346" lon="13.4721451"><ele>696.0</ele><time>2026-05-01T10:04:52.8Z</time></trkpt><trkpt lat="42.7313546" lon="13.4723588"><ele>695.25</ele><time>2026-05-01T10:04:53.799Z</time></trkpt><trkpt lat="42.7313725" lon="13.472573"><ele>694.5</ele><time>2026-05-01T10:04:54.799Z</time></trkpt><trkpt lat="42.7313854" lon="13.4727737"><ele>693.75</ele><time>2026-05-01T10:04:55.801Z</time></trkpt><trkpt lat="42.7313938" lon="13.4729615"><ele>693.0</ele><time>2026-05-01T10:04:56.8Z</time></trkpt><trkpt lat="42.731395" lon="13.4731396"><ele>690.0</ele><time>2026-05-01T10:04:57.8Z</time></trkpt><trkpt lat="42.7313873" lon="13.473311"><ele>687.0</ele><time>2026-05-01T10:04:58.801Z</time></trkpt><trkpt lat="42.731359" lon="13.473474"><ele>684.0</ele><time>2026-05-01T10:04:59.801Z</time></trkpt><trkpt lat="42.7313025" lon="13.4736249"><ele>681.0</ele><time>2026-05-01T10:05:00.8Z</time></trkpt><trkpt lat="42.7312274" lon="13.4737578"><ele>680.0</ele><time>2026-05-01T10:05:01.801Z</time></trkpt><trkpt lat="42.7311476" lon="13.4738812"><ele>679.0</ele><time>2026-05-01T10:05:02.8Z</time></trkpt><trkpt lat="42.7310774" lon="13.473998"><ele>678.0</ele><time>2026-05-01T10:05:03.801Z</time></trkpt><trkpt lat="42.7310256" lon="13.4741091"><ele>677.0</ele><time>2026-05-01T10:05:04.799Z</time></trkpt><trkpt lat="42.7309961" lon="13.4742231"><ele>676.0</ele><time>2026-05-01T10:05:05.799Z</time></trkpt><trkpt lat="42.731011" lon="13.4743243"><ele>676.0</ele><time>2026-05-01T10:05:06.8Z</time></trkpt><trkpt lat="42.731054" lon="13.4744255"><ele>676.0</ele><time>2026-05-01T10:05:07.801Z</time></trkpt><trkpt lat="42.7311161" lon="13.4745265"><ele>676.0</ele><time>2026-05-01T10:05:08.8Z</time></trkpt><trkpt lat="42.7311772" lon="13.4746267"><ele>676.0</ele><time>2026-05-01T10:05:09.801Z</time></trkpt><trkpt lat="42.7312188" lon="13.4747584"><ele>676.0</ele><time>2026-05-01T10:05:10.801Z</time></trkpt><trkpt lat="42.7312584" lon="13.4749044"><ele>675.8</ele><time>2026-05-01T10:05:11.801Z</time></trkpt><trkpt lat="42.7313004" lon="13.4750485"><ele>675.5999999999999</ele><time>2026-05-01T10:05:12.799Z</time></trkpt><trkpt lat="42.7313345" lon="13.4751887"><ele>675.4</ele><time>2026-05-01T10:05:13.8Z</time></trkpt><trkpt lat="42.7313513" lon="13.475321"><ele>675.2</ele><time>2026-05-01T10:05:14.799Z</time></trkpt><trkpt lat="42.731364" lon="13.4754449"><ele>675.0</ele><time>2026-05-01T10:05:15.8Z</time></trkpt><trkpt lat="42.7313654" lon="13.4755677"><ele>675.0</ele><time>2026-05-01T10:05:16.8Z</time></trkpt><trkpt lat="42.7313511" lon="13.4756843"><ele>675.0</ele><time>2026-05-01T10:05:17.799Z</time></trkpt><trkpt lat="42.7313217" lon="13.4758133"><ele>675.0</ele><time>2026-05-01T10:05:18.8Z</time></trkpt><trkpt lat="42.7312807" lon="13.4759514"><ele>675.0</ele><time>2026-05-01T10:05:19.8Z</time></trkpt><trkpt lat="42.7312402" lon="13.4760911"><ele>675.0</ele><time>2026-05-01T10:05:20.8Z</time></trkpt><trkpt lat="42.7311885" lon="13.4762285"><ele>674.4</ele><time>2026-05-01T10:05:21.8Z</time></trkpt><trkpt lat="42.7311422" lon="13.4763658"><ele>673.8</ele><time>2026-05-01T10:05:22.8Z</time></trkpt><trkpt lat="42.7311028" lon="13.476503"><ele>673.2</ele><time>2026-05-01T10:05:23.799Z</time></trkpt><trkpt lat="42.731062" lon="13.4766444"><ele>672.6</ele><time>2026-05-01T10:05:24.8Z</time></trkpt><trkpt lat="42.7310276" lon="13.4767704"><ele>672.0</ele><time>2026-05-01T10:05:25.8Z</time></trkpt><trkpt lat="42.73101" lon="13.4768979"><ele>675.0</ele><time>2026-05-01T10:05:26.799Z</time></trkpt><trkpt lat="42.7309913" lon="13.4770204"><ele>678.0</ele><time>2026-05-01T10:05:27.799Z</time></trkpt><trkpt lat="42.7309824" lon="13.4771449"><ele>681.0</ele><time>2026-05-01T10:05:28.799Z</time></trkpt><trkpt lat="42.7309701" lon="13.4772585"><ele>684.0</ele><time>2026-05-01T10:05:29.8Z</time></trkpt><trkpt lat="42.7309549" lon="13.4773668"><ele>687.0</ele><time>2026-05-01T10:05:30.799Z</time></trkpt><trkpt lat="42.730936" lon="13.4774624"><ele>690.0</ele><time>2026-05-01T10:05:31.799Z</time></trkpt><trkpt lat="42.730905" lon="13.4775411"><ele>690.0</ele><time>2026-05-01T10:05:32.8Z</time></trkpt><trkpt lat="42.7308533" lon="13.47762"><ele>690.0</ele><time>2026-05-01T10:05:33.8Z</time></trkpt><trkpt lat="42.7307781" lon="13.4776768"><ele>690.0</ele><time>2026-05-01T10:05:34.8Z</time></trkpt><trkpt lat="42.7307118" lon="13.4776954"><ele>690.0</ele><time>2026-05-01T10:05:35.799Z</time></trkpt><trkpt lat="42.7306495" lon="13.4777318"><ele>690.0</ele><time>2026-05-01T10:05:36.799Z</time></trkpt><trkpt lat="42.730571" lon="13.4778607"><ele>690.0</ele><time>2026-05-01T10:05:38.8Z</time></trkpt><trkpt lat="42.7305324" lon="13.4780276"><ele>687.8</ele><time>2026-05-01T10:05:40.801Z</time></trkpt><trkpt lat="42.730525" lon="13.4781292"><ele>685.6</ele><time>2026-05-01T10:05:41.8Z</time></trkpt><trkpt lat="42.7305251" lon="13.4782553"><ele>683.4000000000001</ele><time>2026-05-01T10:05:42.8Z</time></trkpt><trkpt lat="42.7305831" lon="13.4784059"><ele>681.2</ele><time>2026-05-01T10:05:43.8Z</time></trkpt><trkpt lat="42.7305814" lon="13.4785482"><ele>679.0</ele><time>2026-05-01T10:05:44.799Z</time></trkpt><trkpt lat="42.7305858" lon="13.478705"><ele>678.5</ele><time>2026-05-01T10:05:45.799Z</time></trkpt><trkpt lat="42.7305639" lon="13.4788486"><ele>678.0</ele><time>2026-05-01T10:05:46.8Z</time></trkpt><trkpt lat="42.7305605" lon="13.4790291"><ele>677.5</ele><time>2026-05-01T10:05:47.8Z</time></trkpt><trkpt lat="42.730533" lon="13.4792058"><ele>677.0</ele><time>2026-05-01T10:05:48.8Z</time></trkpt><trkpt lat="42.7305101" lon="13.4793853"><ele>677.0</ele><time>2026-05-01T10:05:49.8Z</time></trkpt><trkpt lat="42.7304653" lon="13.4795626"><ele>677.0</ele><time>2026-05-01T10:05:50.801Z</time></trkpt><trkpt lat="42.7304139" lon="13.4797263"><ele>677.0</ele><time>2026-05-01T10:05:51.801Z</time></trkpt><trkpt lat="42.7303503" lon="13.4798766"><ele>677.0</ele><time>2026-05-01T10:05:52.799Z</time></trkpt><trkpt lat="42.7302837" lon="13.4800179"><ele>677.6</ele><time>2026-05-01T10:05:53.8Z</time></trkpt><trkpt lat="42.7302038" lon="13.4801491"><ele>678.2</ele><time>2026-05-01T10:05:54.8Z</time></trkpt><trkpt lat="42.7301141" lon="13.4802535"><ele>678.8</ele><time>2026-05-01T10:05:55.8Z</time></trkpt><trkpt lat="42.730031" lon="13.4803444"><ele>679.4</ele><time>2026-05-01T10:05:56.801Z</time></trkpt><trkpt lat="42.7299558" lon="13.480421"><ele>680.0</ele><time>2026-05-01T10:05:57.801Z</time></trkpt><trkpt lat="42.7299125" lon="13.4805139"><ele>680.0</ele><time>2026-05-01T10:05:58.801Z</time></trkpt><trkpt lat="42.7298886" lon="13.4806244"><ele>680.0</ele><time>2026-05-01T10:05:59.801Z</time></trkpt><trkpt lat="42.7299027" lon="13.4807597"><ele>680.0</ele><time>2026-05-01T10:06:00.801Z</time></trkpt><trkpt lat="42.7299465" lon="13.4808819"><ele>680.0</ele><time>2026-05-01T10:06:01.801Z</time></trkpt><trkpt lat="42.730015" lon="13.4809973"><ele>680.0</ele><time>2026-05-01T10:06:02.8Z</time></trkpt><trkpt lat="42.7300877" lon="13.4811252"><ele>681.5</ele><time>2026-05-01T10:06:03.801Z</time></trkpt><trkpt lat="42.730158" lon="13.48128"><ele>683.0</ele><time>2026-05-01T10:06:04.801Z</time></trkpt><trkpt lat="42.7302156" lon="13.4814562"><ele>684.5</ele><time>2026-05-01T10:06:05.8Z</time></trkpt><trkpt lat="42.7302653" lon="13.481648"><ele>686.0</ele><time>2026-05-01T10:06:06.801Z</time></trkpt><trkpt lat="42.7303039" lon="13.481831"><ele>679.75</ele><time>2026-05-01T10:06:07.801Z</time></trkpt><trkpt lat="42.730342" lon="13.4820039"><ele>673.5</ele><time>2026-05-01T10:06:08.801Z</time></trkpt><trkpt lat="42.7303638" lon="13.4821763"><ele>667.25</ele><time>2026-05-01T10:06:09.801Z</time></trkpt><trkpt lat="42.7303645" lon="13.4823485"><ele>661.0</ele><time>2026-05-01T10:06:10.799Z</time></trkpt><trkpt lat="42.7303411" lon="13.4825101"><ele>661.0</ele><time>2026-05-01T10:06:11.799Z</time></trkpt><trkpt lat="42.7302844" lon="13.4826583"><ele>661.0</ele><time>2026-05-01T10:06:12.801Z</time></trkpt><trkpt lat="42.7302105" lon="13.4827881"><ele>661.0</ele><time>2026-05-01T10:06:13.801Z</time></trkpt><trkpt lat="42.7301321" lon="13.4829164"><ele>661.0</ele><time>2026-05-01T10:06:14.801Z</time></trkpt><trkpt lat="42.7300601" lon="13.4830165"><ele>663.1999999999999</ele><time>2026-05-01T10:06:15.801Z</time></trkpt><trkpt lat="42.7299946" lon="13.4831323"><ele>665.4</ele><time>2026-05-01T10:06:16.8Z</time></trkpt><trkpt lat="42.7299968" lon="13.4832498"><ele>667.6</ele><time>2026-05-01T10:06:17.8Z</time></trkpt><trkpt lat="42.730009" lon="13.4833587"><ele>669.8</ele><time>2026-05-01T10:06:18.8Z</time></trkpt><trkpt lat="42.7300566" lon="13.4834489"><ele>672.0</ele><time>2026-05-01T10:06:19.799Z</time></trkpt><trkpt lat="42.730147" lon="13.4835156"><ele>667.75</ele><time>2026-05-01T10:06:20.8Z</time></trkpt><trkpt lat="42.7302655" lon="13.4835474"><ele>663.5</ele><time>2026-05-01T10:06:21.8Z</time></trkpt><trkpt lat="42.7303959" lon="13.4835858"><ele>659.25</ele><time>2026-05-01T10:06:22.801Z</time></trkpt><trkpt lat="42.7305264" lon="13.4836639"><ele>655.0</ele><time>2026-05-01T10:06:23.799Z</time></trkpt><trkpt lat="42.7306515" lon="13.4837596"><ele>653.5</ele><time>2026-05-01T10:06:24.8Z</time></trkpt><trkpt lat="42.7307782" lon="13.4838521"><ele>652.0</ele><time>2026-05-01T10:06:25.799Z</time></trkpt><trkpt lat="42.7308983" lon="13.4839505"><ele>650.5</ele><time>2026-05-01T10:06:26.799Z</time></trkpt><trkpt lat="42.7310117" lon="13.4840619"><ele>649.0</ele><time>2026-05-01T10:06:27.8Z</time></trkpt><trkpt lat="42.7311073" lon="13.4841912"><ele>649.0</ele><time>2026-05-01T10:06:28.799Z</time></trkpt><trkpt lat="42.7311883" lon="13.4843197"><ele>649.0</ele><time>2026-05-01T10:06:29.8Z</time></trkpt><trkpt lat="42.7312571" lon="13.4844597"><ele>649.0</ele><time>2026-05-01T10:06:30.799Z</time></trkpt><trkpt lat="42.7313038" lon="13.4846116"><ele>649.0</ele><time>2026-05-01T10:06:31.8Z</time></trkpt><trkpt lat="42.7313302" lon="13.4847944"><ele>650.5</ele><time>2026-05-01T10:06:32.8Z</time></trkpt><trkpt lat="42.7313301" lon="13.4849835"><ele>652.0</ele><time>2026-05-01T10:06:33.8Z</time></trkpt><trkpt lat="42.7313069" lon="13.4851637"><ele>653.5</ele><time>2026-05-01T10:06:34.799Z</time></trkpt><trkpt lat="42.7312569" lon="13.4853393"><ele>655.0</ele><time>2026-05-01T10:06:35.801Z</time></trkpt><trkpt lat="42.7311871" lon="13.4855015"><ele>655.0</ele><time>2026-05-01T10:06:36.8Z</time></trkpt><trkpt lat="42.7311192" lon="13.4856599"><ele>655.0</ele><time>2026-05-01T10:06:37.799Z</time></trkpt><trkpt lat="42.7310703" lon="13.4857979"><ele>655.0</ele><time>2026-05-01T10:06:38.801Z</time></trkpt><trkpt lat="42.7310179" lon="13.4859445"><ele>655.0</ele><time>2026-05-01T10:06:39.8Z</time></trkpt><trkpt lat="42.7310639" lon="13.4860483"><ele>655.0</ele><time>2026-05-01T10:06:40.8Z</time></trkpt><trkpt lat="42.7311069" lon="13.4861722"><ele>655.0</ele><time>2026-05-01T10:06:41.8Z</time></trkpt><trkpt lat="42.7311973" lon="13.4862978"><ele>655.0</ele><time>2026-05-01T10:06:42.8Z</time></trkpt><trkpt lat="42.7313011" lon="13.486414"><ele>655.0</ele><time>2026-05-01T10:06:43.801Z</time></trkpt><trkpt lat="42.7314177" lon="13.4864993"><ele>657.5</ele><time>2026-05-01T10:06:44.8Z</time></trkpt><trkpt lat="42.7315292" lon="13.4865563"><ele>660.0</ele><time>2026-05-01T10:06:45.8Z</time></trkpt><trkpt lat="42.7316328" lon="13.4866289"><ele>662.5</ele><time>2026-05-01T10:06:46.801Z</time></trkpt><trkpt lat="42.7317227" lon="13.486731"><ele>665.0</ele><time>2026-05-01T10:06:47.801Z</time></trkpt><trkpt lat="42.7317942" lon="13.4868639"><ele>665.0</ele><time>2026-05-01T10:06:48.8Z</time></trkpt><trkpt lat="42.7318505" lon="13.4870351"><ele>665.0</ele><time>2026-05-01T10:06:49.799Z</time></trkpt><trkpt lat="42.7319096" lon="13.4872242"><ele>665.0</ele><time>2026-05-01T10:06:50.801Z</time></trkpt><trkpt lat="42.7319785" lon="13.4874043"><ele>665.0</ele><time>2026-05-01T10:06:51.799Z</time></trkpt><trkpt lat="42.7320502" lon="13.4875837"><ele>659.0</ele><time>2026-05-01T10:06:52.799Z</time></trkpt><trkpt lat="42.7321077" lon="13.4877644"><ele>653.0</ele><time>2026-05-01T10:06:53.799Z</time></trkpt><trkpt lat="42.7321449" lon="13.4879397"><ele>647.0</ele><time>2026-05-01T10:06:54.799Z</time></trkpt><trkpt lat="42.7321534" lon="13.4881156"><ele>641.0</ele><time>2026-05-01T10:06:55.801Z</time></trkpt><trkpt lat="42.7321404" lon="13.4882887"><ele>641.0</ele><time>2026-05-01T10:06:56.801Z</time></trkpt><trkpt lat="42.7321143" lon="13.4884454"><ele>641.0</ele><time>2026-05-01T10:06:57.799Z</time></trkpt><trkpt lat="42.7321058" lon="13.4886129"><ele>641.0</ele><time>2026-05-01T10:06:58.799Z</time></trkpt><trkpt lat="42.7321564" lon="13.4887798"><ele>641.0</ele><time>2026-05-01T10:06:59.8Z</time></trkpt><trkpt lat="42.7322203" lon="13.4889582"><ele>642.25</ele><time>2026-05-01T10:07:00.8Z</time></trkpt><trkpt lat="42.7322718" lon="13.4891318"><ele>643.5</ele><time>2026-05-01T10:07:01.8Z</time></trkpt><trkpt lat="42.7323118" lon="13.4892934"><ele>644.75</ele><time>2026-05-01T10:07:02.8Z</time></trkpt><trkpt lat="42.7323353" lon="13.4894372"><ele>646.0</ele><time>2026-05-01T10:07:03.801Z</time></trkpt><trkpt lat="42.732334" lon="13.4895576"><ele>643.25</ele><time>2026-05-01T10:07:04.801Z</time></trkpt><trkpt lat="42.7322962" lon="13.4896605"><ele>640.5</ele><time>2026-05-01T10:07:05.8Z</time></trkpt><trkpt lat="42.7322159" lon="13.4897631"><ele>637.75</ele><time>2026-05-01T10:07:06.799Z</time></trkpt><trkpt lat="42.7321363" lon="13.4898665"><ele>635.0</ele><time>2026-05-01T10:07:07.801Z</time></trkpt><trkpt lat="42.7320023" lon="13.4899726"><ele>646.5</ele><time>2026-05-01T10:07:08.801Z</time></trkpt><trkpt lat="42.7318822" lon="13.4900772"><ele>658.0</ele><time>2026-05-01T10:07:09.8Z</time></trkpt><trkpt lat="42.7317679" lon="13.4901767"><ele>669.5</ele><time>2026-05-01T10:07:10.8Z</time></trkpt><trkpt lat="42.7316579" lon="13.4902626"><ele>681.0</ele><time>2026-05-01T10:07:11.8Z</time></trkpt><trkpt lat="42.7315582" lon="13.4903429"><ele>677.0</ele><time>2026-05-01T10:07:12.799Z</time></trkpt><trkpt lat="42.7314761" lon="13.4904272"><ele>673.0</ele><time>2026-05-01T10:07:13.801Z</time></trkpt><trkpt lat="42.7314323" lon="13.4905399"><ele>669.0</ele><time>2026-05-01T10:07:14.8Z</time></trkpt><trkpt lat="42.7314188" lon="13.4906729"><ele>665.0</ele><time>2026-05-01T10:07:15.8Z</time></trkpt><trkpt lat="42.7314466" lon="13.4907983"><ele>661.0</ele><time>2026-05-01T10:07:16.8Z</time></trkpt><trkpt lat="42.7315082" lon="13.4909057"><ele>661.0</ele><time>2026-05-01T10:07:17.801Z</time></trkpt><trkpt lat="42.7315967" lon="13.4909805"><ele>661.0</ele><time>2026-05-01T10:07:18.801Z</time></trkpt><trkpt lat="42.7317186" lon="13.49102"><ele>661.0</ele><time>2026-05-01T10:07:19.8Z</time></trkpt><trkpt lat="42.7318582" lon="13.4910318"><ele>661.0</ele><time>2026-05-01T10:07:20.799Z</time></trkpt><trkpt lat="42.7320133" lon="13.4910454"><ele>654.3333333333334</ele><time>2026-05-01T10:07:21.801Z</time></trkpt><trkpt lat="42.7321811" lon="13.4910609"><ele>647.6666666666666</ele><time>2026-05-01T10:07:22.801Z</time></trkpt><trkpt lat="42.7323536" lon="13.4910917"><ele>641.0</ele><time>2026-05-01T10:07:23.799Z</time></trkpt><trkpt lat="42.7325231" lon="13.4911155"><ele>641.0</ele><time>2026-05-01T10:07:24.799Z</time></trkpt><trkpt lat="42.7326843" lon="13.491136"><ele>641.0</ele><time>2026-05-01T10:07:25.799Z</time></trkpt><trkpt lat="42.7328459" lon="13.4911634"><ele>641.0</ele><time>2026-05-01T10:07:26.8Z</time></trkpt><trkpt lat="42.7329944" lon="13.4911988"><ele>644.75</ele><time>2026-05-01T10:07:27.799Z</time></trkpt><trkpt lat="42.7331336" lon="13.4912436"><ele>648.5</ele><time>2026-05-01T10:07:28.799Z</time></trkpt><trkpt lat="42.7332705" lon="13.491306"><ele>652.25</ele><time>2026-05-01T10:07:29.8Z</time></trkpt><trkpt lat="42.7334043" lon="13.4913955"><ele>656.0</ele><time>2026-05-01T10:07:30.799Z</time></trkpt><trkpt lat="42.7335279" lon="13.4914989"><ele>647.3333333333333</ele><time>2026-05-01T10:07:31.8Z</time></trkpt><trkpt lat="42.7336431" lon="13.4916245"><ele>638.6666666666666</ele><time>2026-05-01T10:07:32.799Z</time></trkpt><trkpt lat="42.7337476" lon="13.4917779"><ele>630.0</ele><time>2026-05-01T10:07:33.8Z</time></trkpt><trkpt lat="42.7338294" lon="13.491954"><ele>635.6666666666666</ele><time>2026-05-01T10:07:34.8Z</time></trkpt><trkpt lat="42.7339006" lon="13.4921551"><ele>641.3333333333333</ele><time>2026-05-01T10:07:35.799Z</time></trkpt><trkpt lat="42.733979" lon="13.4923519"><ele>647.0</ele><time>2026-05-01T10:07:36.8Z</time></trkpt><trkpt lat="42.7340649" lon="13.4925154"><ele>647.0</ele><time>2026-05-01T10:07:37.8Z</time></trkpt><trkpt lat="42.7341324" lon="13.4926848"><ele>647.0</ele><time>2026-05-01T10:07:38.801Z</time></trkpt><trkpt lat="42.7341868" lon="13.4928693"><ele>647.0</ele><time>2026-05-01T10:07:39.8Z</time></trkpt><trkpt lat="42.7342304" lon="13.4930691"><ele>647.0</ele><time>2026-05-01T10:07:40.799Z</time></trkpt><trkpt lat="42.7342631" lon="13.4932693"><ele>648.75</ele><time>2026-05-01T10:07:41.801Z</time></trkpt><trkpt lat="42.7342935" lon="13.4934716"><ele>650.5</ele><time>2026-05-01T10:07:42.801Z</time></trkpt><trkpt lat="42.7343246" lon="13.4936571"><ele>652.25</ele><time>2026-05-01T10:07:43.801Z</time></trkpt><trkpt lat="42.7343555" lon="13.4938251"><ele>654.0</ele><time>2026-05-01T10:07:44.8Z</time></trkpt><trkpt lat="42.7343786" lon="13.4939716"><ele>654.6</ele><time>2026-05-01T10:07:45.8Z</time></trkpt><trkpt lat="42.7343922" lon="13.4941048"><ele>655.2</ele><time>2026-05-01T10:07:46.799Z</time></trkpt><trkpt lat="42.7343855" lon="13.4942215"><ele>655.8000000000001</ele><time>2026-05-01T10:07:47.801Z</time></trkpt><trkpt lat="42.7343698" lon="13.494333"><ele>656.4000000000001</ele><time>2026-05-01T10:07:48.8Z</time></trkpt><trkpt lat="42.7343263" lon="13.4944413"><ele>657.0</ele><time>2026-05-01T10:07:49.799Z</time></trkpt><trkpt lat="42.7342052" lon="13.4945315"><ele>655.25</ele><time>2026-05-01T10:07:50.8Z</time></trkpt><trkpt lat="42.7341033" lon="13.494629"><ele>653.5</ele><time>2026-05-01T10:07:51.801Z</time></trkpt><trkpt lat="42.7340063" lon="13.4947296"><ele>651.75</ele><time>2026-05-01T10:07:52.8Z</time></trkpt><trkpt lat="42.7339249" lon="13.4948272"><ele>650.0</ele><time>2026-05-01T10:07:53.799Z</time></trkpt><trkpt lat="42.7338651" lon="13.4949371"><ele>650.0</ele><time>2026-05-01T10:07:54.801Z</time></trkpt><trkpt lat="42.7338432" lon="13.4950599"><ele>650.0</ele><time>2026-05-01T10:07:55.801Z</time></trkpt><trkpt lat="42.7338577" lon="13.495175"><ele>650.0</ele><time>2026-05-01T10:07:56.799Z</time></trkpt><trkpt lat="42.7339134" lon="13.4952873"><ele>650.0</ele><time>2026-05-01T10:07:57.8Z</time></trkpt><trkpt lat="42.7340093" lon="13.4953781"><ele>650.0</ele><time>2026-05-01T10:07:58.799Z</time></trkpt><trkpt lat="42.7341237" lon="13.4954438"><ele>648.5</ele><time>2026-05-01T10:07:59.801Z</time></trkpt><trkpt lat="42.7342557" lon="13.4954936"><ele>647.0</ele><time>2026-05-01T10:08:00.8Z</time></trkpt><trkpt lat="42.7343982" lon="13.4955386"><ele>645.5</ele><time>2026-05-01T10:08:01.801Z</time></trkpt><trkpt lat="42.7345424" lon="13.4955643"><ele>644.0</ele><time>2026-05-01T10:08:02.8Z</time></trkpt><trkpt lat="42.7346915" lon="13.4955868"><ele>644.0</ele><time>2026-05-01T10:08:03.8Z</time></trkpt><trkpt lat="42.734842" lon="13.4956043"><ele>644.0</ele><time>2026-05-01T10:08:04.8Z</time></trkpt><trkpt lat="42.734986" lon="13.4956177"><ele>644.0</ele><time>2026-05-01T10:08:05.8Z</time></trkpt><trkpt lat="42.735128" lon="13.4956287"><ele>644.0</ele><time>2026-05-01T10:08:06.799Z</time></trkpt><trkpt lat="42.7352724" lon="13.4956393"><ele>640.75</ele><time>2026-05-01T10:08:07.799Z</time></trkpt><trkpt lat="42.7354117" lon="13.4956546"><ele>637.5</ele><time>2026-05-01T10:08:08.799Z</time></trkpt><trkpt lat="42.7355405" lon="13.495662"><ele>634.25</ele><time>2026-05-01T10:08:09.801Z</time></trkpt><trkpt lat="42.7356595" lon="13.495671"><ele>631.0</ele><time>2026-05-01T10:08:10.801Z</time></trkpt><trkpt lat="42.7357668" lon="13.4956795"><ele>631.0</ele><time>2026-05-01T10:08:11.799Z</time></trkpt><trkpt lat="42.735861" lon="13.4956885"><ele>631.0</ele><time>2026-05-01T10:08:12.799Z</time></trkpt><trkpt lat="42.7359392" lon="13.4957068"><ele>631.0</ele><time>2026-05-01T10:08:13.8Z</time></trkpt><trkpt lat="42.7360466" lon="13.4957536"><ele>631.0</ele><time>2026-05-01T10:08:15.8Z</time></trkpt><trkpt lat="42.7361139" lon="13.4957776"><ele>631.0</ele><time>2026-05-01T10:09:06.799Z</time></trkpt><trkpt lat="42.7361262" lon="13.4958839"><ele>631.0</ele><time>2026-05-01T10:09:08.799Z</time></trkpt><trkpt lat="42.7360793" lon="13.4960871"><ele>631.0</ele><time>2026-05-01T10:09:10.8Z</time></trkpt><trkpt lat="42.7360453" lon="13.4962183"><ele>631.0</ele><time>2026-05-01T10:09:11.8Z</time></trkpt><trkpt lat="42.7360125" lon="13.4963573"><ele>631.0</ele><time>2026-05-01T10:09:12.801Z</time></trkpt><trkpt lat="42.73598" lon="13.4964994"><ele>631.0</ele><time>2026-05-01T10:09:13.801Z</time></trkpt><trkpt lat="42.7359461" lon="13.4966457"><ele>631.0</ele><time>2026-05-01T10:09:14.799Z</time></trkpt><trkpt lat="42.7359116" lon="13.4967908"><ele>631.0</ele><time>2026-05-01T10:09:15.801Z</time></trkpt><trkpt lat="42.7358771" lon="13.4969295"><ele>631.0</ele><time>2026-05-01T10:09:16.8Z</time></trkpt><trkpt lat="42.7358437" lon="13.497065"><ele>631.0</ele><time>2026-05-01T10:09:17.8Z</time></trkpt><trkpt lat="42.7358053" lon="13.4971991"><ele>631.0</ele><time>2026-05-01T10:09:18.8Z</time></trkpt><trkpt lat="42.735751" lon="13.4973344"><ele>631.0</ele><time>2026-05-01T10:09:19.8Z</time></trkpt><trkpt lat="42.7356762" lon="13.4974481"><ele>631.0</ele><time>2026-05-01T10:09:20.8Z</time></trkpt><trkpt lat="42.7355997" lon="13.4975407"><ele>631.0</ele><time>2026-05-01T10:09:21.799Z</time></trkpt><trkpt lat="42.7355293" lon="13.4976291"><ele>631.0</ele><time>2026-05-01T10:09:22.8Z</time></trkpt><trkpt lat="42.7354483" lon="13.4977095"><ele>631.0</ele><time>2026-05-01T10:09:23.799Z</time></trkpt><trkpt lat="42.7353267" lon="13.4977546"><ele>631.0</ele><time>2026-05-01T10:09:24.8Z</time></trkpt><trkpt lat="42.7352077" lon="13.4978034"><ele>631.0</ele><time>2026-05-01T10:09:25.801Z</time></trkpt><trkpt lat="42.735087" lon="13.4978488"><ele>631.0</ele><time>2026-05-01T10:09:26.801Z</time></trkpt><trkpt lat="42.7349705" lon="13.4979227"><ele>631.0</ele><time>2026-05-01T10:09:27.8Z</time></trkpt><trkpt lat="42.7348538" lon="13.4980269"><ele>631.0</ele><time>2026-05-01T10:09:28.799Z</time></trkpt><trkpt lat="42.7347442" lon="13.4981467"><ele>631.0</ele><time>2026-05-01T10:09:29.799Z</time></trkpt><trkpt lat="42.7346369" lon="13.4982655"><ele>631.0</ele><time>2026-05-01T10:09:30.8Z</time></trkpt><trkpt lat="42.7345258" lon="13.4983863"><ele>631.0</ele><time>2026-05-01T10:09:31.8Z</time></trkpt><trkpt lat="42.7344144" lon="13.4985065"><ele>631.0</ele><time>2026-05-01T10:09:32.8Z</time></trkpt><trkpt lat="42.7342933" lon="13.498618"><ele>629.5</ele><time>2026-05-01T10:09:33.801Z</time></trkpt><trkpt lat="42.7341753" lon="13.4987201"><ele>628.0</ele><time>2026-05-01T10:09:34.8Z</time></trkpt><trkpt lat="42.734047" lon="13.4988193"><ele>626.5</ele><time>2026-05-01T10:09:35.8Z</time></trkpt><trkpt lat="42.7339142" lon="13.4989128"><ele>625.0</ele><time>2026-05-01T10:09:36.799Z</time></trkpt><trkpt lat="42.7337834" lon="13.4989977"><ele>625.0</ele><time>2026-05-01T10:09:37.799Z</time></trkpt><trkpt lat="42.7336422" lon="13.4990813"><ele>625.0</ele><time>2026-05-01T10:09:38.799Z</time></trkpt><trkpt lat="42.7335012" lon="13.4991567"><ele>625.0</ele><time>2026-05-01T10:09:39.799Z</time></trkpt><trkpt lat="42.7333497" lon="13.4992244"><ele>632.6666666666667</ele><time>2026-05-01T10:09:40.8Z</time></trkpt><trkpt lat="42.733209" lon="13.4992702"><ele>640.3333333333334</ele><time>2026-05-01T10:09:41.8Z</time></trkpt><trkpt lat="42.7330646" lon="13.4993301"><ele>648.0</ele><time>2026-05-01T10:09:42.8Z</time></trkpt><trkpt lat="42.7329357" lon="13.4994647"><ele>648.0</ele><time>2026-05-01T10:09:43.8Z</time></trkpt><trkpt lat="42.7327907" lon="13.4995665"><ele>648.0</ele><time>2026-05-01T10:09:44.801Z</time></trkpt><trkpt lat="42.732634" lon="13.4996677"><ele>648.0</ele><time>2026-05-01T10:09:45.8Z</time></trkpt><trkpt lat="42.7324715" lon="13.4997439"><ele>644.6666666666666</ele><time>2026-05-01T10:09:46.799Z</time></trkpt><trkpt lat="42.7323135" lon="13.4998079"><ele>641.3333333333333</ele><time>2026-05-01T10:09:47.8Z</time></trkpt><trkpt lat="42.7321523" lon="13.4998715"><ele>638.0</ele><time>2026-05-01T10:09:48.798Z</time></trkpt><trkpt lat="42.7319863" lon="13.4999697"><ele>646.0</ele><time>2026-05-01T10:09:49.798Z</time></trkpt><trkpt lat="42.7318202" lon="13.5000929"><ele>654.0</ele><time>2026-05-01T10:09:50.798Z</time></trkpt><trkpt lat="42.7316575" lon="13.5002299"><ele>662.0</ele><time>2026-05-01T10:09:51.799Z</time></trkpt><trkpt lat="42.7314973" lon="13.5003532"><ele>659.3333333333333</ele><time>2026-05-01T10:09:52.799Z</time></trkpt><trkpt lat="42.7313319" lon="13.5004493"><ele>656.6666666666666</ele><time>2026-05-01T10:09:53.799Z</time></trkpt><trkpt lat="42.7311709" lon="13.500537"><ele>654.0</ele><time>2026-05-01T10:09:54.798Z</time></trkpt><trkpt lat="42.7310189" lon="13.5006405"><ele>654.0</ele><time>2026-05-01T10:09:55.798Z</time></trkpt><trkpt lat="42.7308683" lon="13.5007456"><ele>654.0</ele><time>2026-05-01T10:09:56.799Z</time></trkpt><trkpt lat="42.7307215" lon="13.5008596"><ele>654.0</ele><time>2026-05-01T10:09:57.798Z</time></trkpt><trkpt lat="42.7305852" lon="13.5009789"><ele>654.0</ele><time>2026-05-01T10:09:58.799Z</time></trkpt><trkpt lat="42.7304655" lon="13.5011126"><ele>654.0</ele><time>2026-05-01T10:09:59.799Z</time></trkpt><trkpt lat="42.7303656" lon="13.5012652"><ele>654.0</ele><time>2026-05-01T10:10:00.8Z</time></trkpt><trkpt lat="42.7302858" lon="13.5014286"><ele>654.0</ele><time>2026-05-01T10:10:01.798Z</time></trkpt><trkpt lat="42.7302281" lon="13.5015824"><ele>655.75</ele><time>2026-05-01T10:10:02.798Z</time></trkpt><trkpt lat="42.730191" lon="13.5017266"><ele>657.5</ele><time>2026-05-01T10:10:03.799Z</time></trkpt><trkpt lat="42.7301938" lon="13.5018761"><ele>659.25</ele><time>2026-05-01T10:10:04.798Z</time></trkpt><trkpt lat="42.7302271" lon="13.5020343"><ele>661.0</ele><time>2026-05-01T10:10:05.799Z</time></trkpt><trkpt lat="42.7302669" lon="13.502174"><ele>661.0</ele><time>2026-05-01T10:10:06.798Z</time></trkpt><trkpt lat="42.7302922" lon="13.5023094"><ele>661.0</ele><time>2026-05-01T10:10:07.798Z</time></trkpt><trkpt lat="42.7302958" lon="13.502418"><ele>661.0</ele><time>2026-05-01T10:10:08.799Z</time></trkpt><trkpt lat="42.7302593" lon="13.5025222"><ele>661.0</ele><time>2026-05-01T10:10:09.798Z</time></trkpt><trkpt lat="42.7301894" lon="13.5026233"><ele>661.0</ele><time>2026-05-01T10:10:10.798Z</time></trkpt><trkpt lat="42.7301179" lon="13.5027292"><ele>657.5999999999999</ele><time>2026-05-01T10:10:11.799Z</time></trkpt><trkpt lat="42.7300128" lon="13.5028588"><ele>654.2</ele><time>2026-05-01T10:10:12.8Z</time></trkpt><trkpt lat="42.7299392" lon="13.5029811"><ele>650.8</ele><time>2026-05-01T10:10:13.799Z</time></trkpt><trkpt lat="42.7298802" lon="13.5030951"><ele>647.4000000000001</ele><time>2026-05-01T10:10:14.798Z</time></trkpt><trkpt lat="42.7298307" lon="13.5031922"><ele>644.0</ele><time>2026-05-01T10:10:15.798Z</time></trkpt><trkpt lat="42.7297981" lon="13.5032735"><ele>644.0</ele><time>2026-05-01T10:10:16.798Z</time></trkpt><trkpt lat="42.7297924" lon="13.5033705"><ele>644.0</ele><time>2026-05-01T10:10:17.798Z</time></trkpt><trkpt lat="42.7298101" lon="13.5034986"><ele>644.0</ele><time>2026-05-01T10:10:18.799Z</time></trkpt><trkpt lat="42.7298355" lon="13.5036341"><ele>644.0</ele><time>2026-05-01T10:10:19.799Z</time></trkpt><trkpt lat="42.7298545" lon="13.5037786"><ele>644.0</ele><time>2026-05-01T10:10:20.798Z</time></trkpt><trkpt lat="42.7298882" lon="13.5039504"><ele>645.5</ele><time>2026-05-01T10:10:21.799Z</time></trkpt><trkpt lat="42.7299477" lon="13.504116"><ele>647.0</ele><time>2026-05-01T10:10:22.799Z</time></trkpt><trkpt lat="42.7300173" lon="13.5043039"><ele>648.5</ele><time>2026-05-01T10:10:23.799Z</time></trkpt><trkpt lat="42.7300817" lon="13.5044752"><ele>650.0</ele><time>2026-05-01T10:10:24.799Z</time></trkpt><trkpt lat="42.7301468" lon="13.5046352"><ele>650.0</ele><time>2026-05-01T10:10:25.8Z</time></trkpt><trkpt lat="42.730208" lon="13.5048107"><ele>650.0</ele><time>2026-05-01T10:10:26.799Z</time></trkpt><trkpt lat="42.7302456" lon="13.5050104"><ele>650.0</ele><time>2026-05-01T10:10:27.798Z</time></trkpt><trkpt lat="42.7302613" lon="13.5052261"><ele>657.6666666666666</ele><time>2026-05-01T10:10:28.799Z</time></trkpt><trkpt lat="42.7302781" lon="13.5054434"><ele>665.3333333333334</ele><time>2026-05-01T10:10:29.798Z</time></trkpt><trkpt lat="42.7303133" lon="13.5056527"><ele>673.0</ele><time>2026-05-01T10:10:30.799Z</time></trkpt><trkpt lat="42.7303485" lon="13.5058525"><ele>673.0</ele><time>2026-05-01T10:10:31.8Z</time></trkpt><trkpt lat="42.7303671" lon="13.5060497"><ele>673.0</ele><time>2026-05-01T10:10:32.799Z</time></trkpt><trkpt lat="42.7303666" lon="13.5062568"><ele>673.0</ele><time>2026-05-01T10:10:33.799Z</time></trkpt><trkpt lat="42.7303651" lon="13.5064635"><ele>674.5</ele><time>2026-05-01T10:10:34.799Z</time></trkpt><trkpt lat="42.7303587" lon="13.5066691"><ele>676.0</ele><time>2026-05-01T10:10:35.799Z</time></trkpt><trkpt lat="42.7303455" lon="13.5068569"><ele>677.5</ele><time>2026-05-01T10:10:36.798Z</time></trkpt><trkpt lat="42.730328" lon="13.5070311"><ele>679.0</ele><time>2026-05-01T10:10:37.799Z</time></trkpt><trkpt lat="42.7303177" lon="13.5071542"><ele>679.25</ele><time>2026-05-01T10:10:38.799Z</time></trkpt><trkpt lat="42.7303237" lon="13.5072601"><ele>679.5</ele><time>2026-05-01T10:10:39.8Z</time></trkpt><trkpt lat="42.7304177" lon="13.5073466"><ele>679.75</ele><time>2026-05-01T10:10:41.8Z</time></trkpt><trkpt lat="42.7305277" lon="13.5073112"><ele>680.0</ele><time>2026-05-01T10:10:43.799Z</time></trkpt><trkpt lat="42.7305489" lon="13.5070804"><ele>679.75</ele><time>2026-05-01T10:10:44.799Z</time></trkpt><trkpt lat="42.7305592" lon="13.5069112"><ele>679.5</ele><time>2026-05-01T10:10:45.799Z</time></trkpt><trkpt lat="42.7305786" lon="13.5067275"><ele>679.25</ele><time>2026-05-01T10:10:46.799Z</time></trkpt><trkpt lat="42.730615" lon="13.5065658"><ele>679.0</ele><time>2026-05-01T10:10:47.798Z</time></trkpt><trkpt lat="42.7306716" lon="13.5064084"><ele>679.0</ele><time>2026-05-01T10:10:48.798Z</time></trkpt><trkpt lat="42.7307461" lon="13.5062763"><ele>679.0</ele><time>2026-05-01T10:10:49.798Z</time></trkpt><trkpt lat="42.7308312" lon="13.5061573"><ele>679.0</ele><time>2026-05-01T10:10:50.799Z</time></trkpt><trkpt lat="42.7309209" lon="13.5060642"><ele>679.0</ele><time>2026-05-01T10:10:51.798Z</time></trkpt><trkpt lat="42.7310045" lon="13.5060154"><ele>679.0</ele><time>2026-05-01T10:10:52.799Z</time></trkpt><trkpt lat="42.7310866" lon="13.5059775"><ele>682.2</ele><time>2026-05-01T10:10:53.8Z</time></trkpt><trkpt lat="42.731152" lon="13.5059184"><ele>685.4000000000001</ele><time>2026-05-01T10:10:54.799Z</time></trkpt><trkpt lat="42.7311973" lon="13.5058306"><ele>688.6</ele><time>2026-05-01T10:10:55.799Z</time></trkpt><trkpt lat="42.7312168" lon="13.5057062"><ele>691.8</ele><time>2026-05-01T10:10:56.798Z</time></trkpt><trkpt lat="42.731218" lon="13.5055525"><ele>695.0</ele><time>2026-05-01T10:10:57.798Z</time></trkpt><trkpt lat="42.7312179" lon="13.5053925"><ele>695.0</ele><time>2026-05-01T10:10:58.798Z</time></trkpt><trkpt lat="42.7312179" lon="13.505222"><ele>695.0</ele><time>2026-05-01T10:10:59.799Z</time></trkpt><trkpt lat="42.7312163" lon="13.5050471"><ele>695.0</ele><time>2026-05-01T10:11:00.8Z</time></trkpt><trkpt lat="42.7312189" lon="13.5048836"><ele>695.0</ele><time>2026-05-01T10:11:01.799Z</time></trkpt><trkpt lat="42.7312222" lon="13.5047393"><ele>695.0</ele><time>2026-05-01T10:11:02.798Z</time></trkpt><trkpt lat="42.7312385" lon="13.504608"><ele>695.0</ele><time>2026-05-01T10:11:03.798Z</time></trkpt><trkpt lat="42.7312657" lon="13.5044767"><ele>695.0</ele><time>2026-05-01T10:11:04.798Z</time></trkpt><trkpt lat="42.731302" lon="13.5043527"><ele>695.0</ele><time>2026-05-01T10:11:05.799Z</time></trkpt><trkpt lat="42.7313603" lon="13.504237"><ele>695.0</ele><time>2026-05-01T10:11:06.798Z</time></trkpt><trkpt lat="42.7314441" lon="13.5041256"><ele>694.25</ele><time>2026-05-01T10:11:07.798Z</time></trkpt><trkpt lat="42.731544" lon="13.5040205"><ele>693.5</ele><time>2026-05-01T10:11:08.799Z</time></trkpt><trkpt lat="42.7316556" lon="13.5039032"><ele>692.75</ele><time>2026-05-01T10:11:09.798Z</time></trkpt><trkpt lat="42.7317679" lon="13.5037547"><ele>692.0</ele><time>2026-05-01T10:11:10.799Z</time></trkpt><trkpt lat="42.7318616" lon="13.5035901"><ele>695.3333333333333</ele><time>2026-05-01T10:11:11.799Z</time></trkpt><trkpt lat="42.7319467" lon="13.5034113"><ele>698.6666666666666</ele><time>2026-05-01T10:11:12.8Z</time></trkpt><trkpt lat="42.7320308" lon="13.5032287"><ele>702.0</ele><time>2026-05-01T10:11:13.8Z</time></trkpt><trkpt lat="42.7321136" lon="13.503046"><ele>699.0</ele><time>2026-05-01T10:11:14.798Z</time></trkpt><trkpt lat="42.7321914" lon="13.5028741"><ele>696.0</ele><time>2026-05-01T10:11:15.799Z</time></trkpt><trkpt lat="42.7322619" lon="13.5027226"><ele>693.0</ele><time>2026-05-01T10:11:16.798Z</time></trkpt><trkpt lat="42.7323303" lon="13.5025853"><ele>690.0</ele><time>2026-05-01T10:11:17.798Z</time></trkpt><trkpt lat="42.732403" lon="13.5024764"><ele>690.0</ele><time>2026-05-01T10:11:18.799Z</time></trkpt><trkpt lat="42.732492" lon="13.5024066"><ele>690.0</ele><time>2026-05-01T10:11:19.8Z</time></trkpt><trkpt lat="42.7325937" lon="13.5023645"><ele>690.0</ele><time>2026-05-01T10:11:20.8Z</time></trkpt><trkpt lat="42.7327129" lon="13.502355"><ele>690.0</ele><time>2026-05-01T10:11:21.799Z</time></trkpt><trkpt lat="42.7328357" lon="13.5023723"><ele>691.0</ele><time>2026-05-01T10:11:22.798Z</time></trkpt><trkpt lat="42.732968" lon="13.5024131"><ele>692.0</ele><time>2026-05-01T10:11:23.799Z</time></trkpt><trkpt lat="42.7330986" lon="13.5024592"><ele>693.0</ele><time>2026-05-01T10:11:24.798Z</time></trkpt><trkpt lat="42.7332233" lon="13.5025071"><ele>694.0</ele><time>2026-05-01T10:11:25.799Z</time></trkpt><trkpt lat="42.7333313" lon="13.5025575"><ele>694.0</ele><time>2026-05-01T10:11:26.799Z</time></trkpt><trkpt lat="42.7334152" lon="13.5026254"><ele>694.0</ele><time>2026-05-01T10:11:27.799Z</time></trkpt><trkpt lat="42.7334672" lon="13.5027161"><ele>694.0</ele><time>2026-05-01T10:11:28.798Z</time></trkpt><trkpt lat="42.7334845" lon="13.5028366"><ele>694.0</ele><time>2026-05-01T10:11:29.798Z</time></trkpt><trkpt lat="42.7334678" lon="13.5029912"><ele>694.0</ele><time>2026-05-01T10:11:30.799Z</time></trkpt><trkpt lat="42.7334511" lon="13.503176"><ele>700.3333333333334</ele><time>2026-05-01T10:11:31.799Z</time></trkpt><trkpt lat="42.733445" lon="13.5033753"><ele>706.6666666666666</ele><time>2026-05-01T10:11:32.799Z</time></trkpt><trkpt lat="42.7334434" lon="13.5035839"><ele>713.0</ele><time>2026-05-01T10:11:33.799Z</time></trkpt><trkpt lat="42.7334353" lon="13.5037991"><ele>717.3333333333333</ele><time>2026-05-01T10:11:34.799Z</time></trkpt><trkpt lat="42.7334299" lon="13.5040268"><ele>721.6666666666666</ele><time>2026-05-01T10:11:35.8Z</time></trkpt><trkpt lat="42.7334247" lon="13.5042599"><ele>726.0</ele><time>2026-05-01T10:11:36.8Z</time></trkpt><trkpt lat="42.7334169" lon="13.5044841"><ele>729.0</ele><time>2026-05-01T10:11:37.8Z</time></trkpt><trkpt lat="42.7334079" lon="13.5047032"><ele>732.0</ele><time>2026-05-01T10:11:38.8Z</time></trkpt><trkpt lat="42.733396" lon="13.5049132"><ele>735.0</ele><time>2026-05-01T10:11:39.8Z</time></trkpt><trkpt lat="42.7333808" lon="13.5051134"><ele>735.0</ele><time>2026-05-01T10:11:40.798Z</time></trkpt><trkpt lat="42.7333675" lon="13.5053007"><ele>735.0</ele><time>2026-05-01T10:11:41.799Z</time></trkpt><trkpt lat="42.7333601" lon="13.5054747"><ele>735.0</ele><time>2026-05-01T10:11:42.798Z</time></trkpt><trkpt lat="42.7333523" lon="13.5056481"><ele>735.0</ele><time>2026-05-01T10:11:43.799Z</time></trkpt><trkpt lat="42.7333461" lon="13.5058259"><ele>735.5</ele><time>2026-05-01T10:11:44.799Z</time></trkpt><trkpt lat="42.7333385" lon="13.5060189"><ele>736.0</ele><time>2026-05-01T10:11:45.8Z</time></trkpt><trkpt lat="42.7333316" lon="13.5062193"><ele>736.5</ele><time>2026-05-01T10:11:46.799Z</time></trkpt><trkpt lat="42.7333105" lon="13.506421"><ele>737.0</ele><time>2026-05-01T10:11:47.799Z</time></trkpt><trkpt lat="42.7332625" lon="13.5066197"><ele>739.3333333333333</ele><time>2026-05-01T10:11:48.799Z</time></trkpt><trkpt lat="42.73318" lon="13.5068154"><ele>741.6666666666666</ele><time>2026-05-01T10:11:49.799Z</time></trkpt><trkpt lat="42.7330708" lon="13.5070021"><ele>744.0</ele><time>2026-05-01T10:11:50.799Z</time></trkpt><trkpt lat="42.7329412" lon="13.5071777"><ele>747.6666666666666</ele><time>2026-05-01T10:11:51.799Z</time></trkpt><trkpt lat="42.7328077" lon="13.5073303"><ele>751.3333333333333</ele><time>2026-05-01T10:11:52.799Z</time></trkpt><trkpt lat="42.7326819" lon="13.5074664"><ele>755.0</ele><time>2026-05-01T10:11:53.8Z</time></trkpt><trkpt lat="42.7325694" lon="13.507602"><ele>749.4</ele><time>2026-05-01T10:11:54.798Z</time></trkpt><trkpt lat="42.7324848" lon="13.5077319"><ele>743.8</ele><time>2026-05-01T10:11:55.798Z</time></trkpt><trkpt lat="42.7324372" lon="13.5078491"><ele>738.2</ele><time>2026-05-01T10:11:56.799Z</time></trkpt><trkpt lat="42.7324273" lon="13.5079649"><ele>732.6</ele><time>2026-05-01T10:11:57.799Z</time></trkpt><trkpt lat="42.73246" lon="13.5080846"><ele>727.0</ele><time>2026-05-01T10:11:58.799Z</time></trkpt><trkpt lat="42.7325389" lon="13.5082081"><ele>726.0</ele><time>2026-05-01T10:11:59.799Z</time></trkpt><trkpt lat="42.7326469" lon="13.5083242"><ele>725.0</ele><time>2026-05-01T10:12:00.798Z</time></trkpt><trkpt lat="42.7327666" lon="13.5084422"><ele>724.0</ele><time>2026-05-01T10:12:01.799Z</time></trkpt><trkpt lat="42.7328927" lon="13.5085813"><ele>723.0</ele><time>2026-05-01T10:12:02.798Z</time></trkpt><trkpt lat="42.7330162" lon="13.5087294"><ele>729.25</ele><time>2026-05-01T10:12:03.8Z</time></trkpt><trkpt lat="42.7331204" lon="13.5088915"><ele>735.5</ele><time>2026-05-01T10:12:04.798Z</time></trkpt><trkpt lat="42.733214" lon="13.5090506"><ele>741.75</ele><time>2026-05-01T10:12:05.798Z</time></trkpt><trkpt lat="42.7332952" lon="13.5091989"><ele>748.0</ele><time>2026-05-01T10:12:06.799Z</time></trkpt><trkpt lat="42.7333465" lon="13.5093468"><ele>748.0</ele><time>2026-05-01T10:12:07.798Z</time></trkpt><trkpt lat="42.7333681" lon="13.5095045"><ele>748.0</ele><time>2026-05-01T10:12:08.799Z</time></trkpt><trkpt lat="42.7333501" lon="13.509651"><ele>748.0</ele><time>2026-05-01T10:12:09.8Z</time></trkpt><trkpt lat="42.7332938" lon="13.5098003"><ele>748.0</ele><time>2026-05-01T10:12:10.8Z</time></trkpt><trkpt lat="42.7332224" lon="13.5099623"><ele>749.0</ele><time>2026-05-01T10:12:11.798Z</time></trkpt><trkpt lat="42.7331466" lon="13.5101483"><ele>750.0</ele><time>2026-05-01T10:12:12.799Z</time></trkpt><trkpt lat="42.7330686" lon="13.510333"><ele>751.0</ele><time>2026-05-01T10:12:13.799Z</time></trkpt><trkpt lat="42.7329971" lon="13.5105112"><ele>754.0</ele><time>2026-05-01T10:12:14.799Z</time></trkpt><trkpt lat="42.7329088" lon="13.5106719"><ele>757.0</ele><time>2026-05-01T10:12:15.799Z</time></trkpt><trkpt lat="42.732804" lon="13.5108013"><ele>760.0</ele><time>2026-05-01T10:12:16.8Z</time></trkpt><trkpt lat="42.7326828" lon="13.5108815"><ele>763.0</ele><time>2026-05-01T10:12:17.798Z</time></trkpt><trkpt lat="42.7325464" lon="13.5109276"><ele>758.0</ele><time>2026-05-01T10:12:18.798Z</time></trkpt><trkpt lat="42.7324193" lon="13.5109578"><ele>753.0</ele><time>2026-05-01T10:12:19.798Z</time></trkpt><trkpt lat="42.7323115" lon="13.5109791"><ele>748.0</ele><time>2026-05-01T10:12:20.799Z</time></trkpt><trkpt lat="42.7322251" lon="13.5110203"><ele>743.0</ele><time>2026-05-01T10:12:21.798Z</time></trkpt><trkpt lat="42.7321665" lon="13.5110934"><ele>738.0</ele><time>2026-05-01T10:12:22.799Z</time></trkpt><trkpt lat="42.7321511" lon="13.5111819"><ele>738.8</ele><time>2026-05-01T10:12:23.798Z</time></trkpt><trkpt lat="42.7321809" lon="13.5112627"><ele>739.5999999999999</ele><time>2026-05-01T10:12:24.799Z</time></trkpt><trkpt lat="42.7322556" lon="13.5113205"><ele>740.4000000000001</ele><time>2026-05-01T10:12:25.798Z</time></trkpt><trkpt lat="42.7323702" lon="13.5113333"><ele>741.2</ele><time>2026-05-01T10:12:26.798Z</time></trkpt><trkpt lat="42.7325028" lon="13.51131"><ele>742.0</ele><time>2026-05-01T10:12:27.799Z</time></trkpt><trkpt lat="42.7326361" lon="13.5113093"><ele>749.5</ele><time>2026-05-01T10:12:28.799Z</time></trkpt><trkpt lat="42.7327527" lon="13.511355"><ele>757.0</ele><time>2026-05-01T10:12:29.799Z</time></trkpt><trkpt lat="42.732843" lon="13.5114332"><ele>764.5</ele><time>2026-05-01T10:12:30.799Z</time></trkpt><trkpt lat="42.7329013" lon="13.5115567"><ele>772.0</ele><time>2026-05-01T10:12:31.799Z</time></trkpt><trkpt lat="42.7329602" lon="13.5116945"><ele>772.0</ele><time>2026-05-01T10:12:32.798Z</time></trkpt><trkpt lat="42.7330184" lon="13.5118326"><ele>772.0</ele><time>2026-05-01T10:12:33.799Z</time></trkpt><trkpt lat="42.733039" lon="13.5119963"><ele>772.0</ele><time>2026-05-01T10:12:34.798Z</time></trkpt><trkpt lat="42.7330222" lon="13.5121668"><ele>772.0</ele><time>2026-05-01T10:12:35.8Z</time></trkpt><trkpt lat="42.7330162" lon="13.5123424"><ele>774.0</ele><time>2026-05-01T10:12:36.799Z</time></trkpt><trkpt lat="42.733039" lon="13.5125086"><ele>776.0</ele><time>2026-05-01T10:12:37.799Z</time></trkpt><trkpt lat="42.7330531" lon="13.5126629"><ele>778.0</ele><time>2026-05-01T10:12:38.8Z</time></trkpt><trkpt lat="42.7330351" lon="13.5128129"><ele>780.0</ele><time>2026-05-01T10:12:39.799Z</time></trkpt><trkpt lat="42.733006" lon="13.5129448"><ele>782.4</ele><time>2026-05-01T10:12:40.799Z</time></trkpt><trkpt lat="42.732969" lon="13.5130587"><ele>784.8</ele><time>2026-05-01T10:12:41.798Z</time></trkpt><trkpt lat="42.7329195" lon="13.513162"><ele>787.2</ele><time>2026-05-01T10:12:42.798Z</time></trkpt><trkpt lat="42.7328466" lon="13.5132554"><ele>789.6</ele><time>2026-05-01T10:12:43.799Z</time></trkpt><trkpt lat="42.7327549" lon="13.5133351"><ele>792.0</ele><time>2026-05-01T10:12:44.798Z</time></trkpt><trkpt lat="42.7326552" lon="13.5134284"><ele>787.25</ele><time>2026-05-01T10:12:45.799Z</time></trkpt><trkpt lat="42.7325637" lon="13.5135381"><ele>782.5</ele><time>2026-05-01T10:12:46.799Z</time></trkpt><trkpt lat="42.7324752" lon="13.5136608"><ele>777.75</ele><time>2026-05-01T10:12:47.798Z</time></trkpt><trkpt lat="42.7323939" lon="13.5137827"><ele>773.0</ele><time>2026-05-01T10:12:48.799Z</time></trkpt><trkpt lat="42.7323296" lon="13.5138942"><ele>773.0000000000001</ele><time>2026-05-01T10:12:49.798Z</time></trkpt><trkpt lat="42.7322934" lon="13.5140039"><ele>773.0</ele><time>2026-05-01T10:12:50.799Z</time></trkpt><trkpt lat="42.7322939" lon="13.5141062"><ele>773.0</ele><time>2026-05-01T10:12:51.798Z</time></trkpt><trkpt lat="42.732331" lon="13.5141998"><ele>773.0</ele><time>2026-05-01T10:12:52.799Z</time></trkpt><trkpt lat="42.7324003" lon="13.5142878"><ele>773.0000000000001</ele><time>2026-05-01T10:12:53.799Z</time></trkpt><trkpt lat="42.7324697" lon="13.5143842"><ele>773.0</ele><time>2026-05-01T10:12:54.798Z</time></trkpt><trkpt lat="42.732586" lon="13.5145199"><ele>771.75</ele><time>2026-05-01T10:12:55.799Z</time></trkpt><trkpt lat="42.732689" lon="13.5146353"><ele>770.5</ele><time>2026-05-01T10:12:56.799Z</time></trkpt><trkpt lat="42.7328066" lon="13.5147548"><ele>769.25</ele><time>2026-05-01T10:12:57.799Z</time></trkpt><trkpt lat="42.7329123" lon="13.514896"><ele>768.0</ele><time>2026-05-01T10:12:58.799Z</time></trkpt><trkpt lat="42.7330002" lon="13.5150589"><ele>773.0</ele><time>2026-05-01T10:12:59.798Z</time></trkpt><trkpt lat="42.733072" lon="13.5152464"><ele>778.0</ele><time>2026-05-01T10:13:00.798Z</time></trkpt><trkpt lat="42.7331334" lon="13.5154257"><ele>783.0</ele><time>2026-05-01T10:13:01.799Z</time></trkpt><trkpt lat="42.7331806" lon="13.5155946"><ele>788.0</ele><time>2026-05-01T10:13:02.799Z</time></trkpt><trkpt lat="42.7332039" lon="13.5157541"><ele>788.0</ele><time>2026-05-01T10:13:03.799Z</time></trkpt><trkpt lat="42.7331982" lon="13.5159005"><ele>788.0</ele><time>2026-05-01T10:13:04.8Z</time></trkpt><trkpt lat="42.7331702" lon="13.5160252"><ele>788.0</ele><time>2026-05-01T10:13:05.798Z</time></trkpt><trkpt lat="42.7331438" lon="13.5161345"><ele>788.0</ele><time>2026-05-01T10:13:06.798Z</time></trkpt><trkpt lat="42.7331431" lon="13.5162211"><ele>788.0</ele><time>2026-05-01T10:13:07.799Z</time></trkpt><trkpt lat="42.7332437" lon="13.5162631"><ele>788.0</ele><time>2026-05-01T10:13:09.799Z</time></trkpt><trkpt lat="42.7333045" lon="13.5162215"><ele>788.0</ele><time>2026-05-01T10:13:10.799Z</time></trkpt><trkpt lat="42.7333649" lon="13.5161698"><ele>788.0</ele><time>2026-05-01T10:13:11.799Z</time></trkpt><trkpt lat="42.733431" lon="13.5161703"><ele>788.0</ele><time>2026-05-01T10:13:12.8Z</time></trkpt><trkpt lat="42.7334831" lon="13.5162205"><ele>788.0</ele><time>2026-05-01T10:13:13.799Z</time></trkpt><trkpt lat="42.7335084" lon="13.5163059"><ele>788.0</ele><time>2026-05-01T10:13:14.799Z</time></trkpt><trkpt lat="42.7335232" lon="13.5164357"><ele>788.0</ele><time>2026-05-01T10:13:15.799Z</time></trkpt><trkpt lat="42.7335371" lon="13.5165855"><ele>784.25</ele><time>2026-05-01T10:13:16.799Z</time></trkpt><trkpt lat="42.7335714" lon="13.5167582"><ele>780.5</ele><time>2026-05-01T10:13:17.798Z</time></trkpt><trkpt lat="42.7336093" lon="13.5169383"><ele>776.75</ele><time>2026-05-01T10:13:18.798Z</time></trkpt><trkpt lat="42.7336292" lon="13.5171138"><ele>773.0</ele><time>2026-05-01T10:13:19.798Z</time></trkpt><trkpt lat="42.7336351" lon="13.5172826"><ele>773.0</ele><time>2026-05-01T10:13:20.799Z</time></trkpt><trkpt lat="42.7336531" lon="13.5174335"><ele>773.0</ele><time>2026-05-01T10:13:21.798Z</time></trkpt><trkpt lat="42.7336976" lon="13.5175792"><ele>773.0</ele><time>2026-05-01T10:13:22.799Z</time></trkpt><trkpt lat="42.7337564" lon="13.5177058"><ele>773.0</ele><time>2026-05-01T10:13:23.798Z</time></trkpt><trkpt lat="42.7338137" lon="13.5178126"><ele>773.0</ele><time>2026-05-01T10:13:24.799Z</time></trkpt><trkpt lat="42.7338716" lon="13.5179109"><ele>775.0</ele><time>2026-05-01T10:13:25.799Z</time></trkpt><trkpt lat="42.7339234" lon="13.5180134"><ele>777.0</ele><time>2026-05-01T10:13:26.799Z</time></trkpt><trkpt lat="42.7339569" lon="13.5181229"><ele>779.0</ele><time>2026-05-01T10:13:27.798Z</time></trkpt><trkpt lat="42.7339696" lon="13.5182474"><ele>781.0</ele><time>2026-05-01T10:13:28.798Z</time></trkpt><trkpt lat="42.7339673" lon="13.5183839"><ele>783.0</ele><time>2026-05-01T10:13:29.798Z</time></trkpt><trkpt lat="42.7339779" lon="13.5185061"><ele>783.0</ele><time>2026-05-01T10:13:30.798Z</time></trkpt><trkpt lat="42.7339942" lon="13.5186292"><ele>783.0</ele><time>2026-05-01T10:13:31.799Z</time></trkpt><trkpt lat="42.7340606" lon="13.518744"><ele>783.0</ele><time>2026-05-01T10:13:32.798Z</time></trkpt><trkpt lat="42.7341145" lon="13.5188462"><ele>783.0</ele><time>2026-05-01T10:13:33.799Z</time></trkpt><trkpt lat="42.7341575" lon="13.5189409"><ele>783.0</ele><time>2026-05-01T10:13:34.799Z</time></trkpt><trkpt lat="42.734181" lon="13.5190327"><ele>783.0</ele><time>2026-05-01T10:13:35.799Z</time></trkpt><trkpt lat="42.7341789" lon="13.5191212"><ele>784.0</ele><time>2026-05-01T10:13:36.799Z</time></trkpt><trkpt lat="42.7341499" lon="13.5191983"><ele>785.0</ele><time>2026-05-01T10:13:37.8Z</time></trkpt><trkpt lat="42.7340944" lon="13.5192832"><ele>786.0</ele><time>2026-05-01T10:13:38.8Z</time></trkpt><trkpt lat="42.7340391" lon="13.519368"><ele>787.0</ele><time>2026-05-01T10:13:39.799Z</time></trkpt><trkpt lat="42.7339585" lon="13.5194586"><ele>788.0</ele><time>2026-05-01T10:13:40.799Z</time></trkpt><trkpt lat="42.7338011" lon="13.5195834"><ele>784.0</ele><time>2026-05-01T10:13:41.799Z</time></trkpt><trkpt lat="42.7336946" lon="13.5197382"><ele>780.0</ele><time>2026-05-01T10:13:42.799Z</time></trkpt><trkpt lat="42.7336063" lon="13.5198595"><ele>776.0</ele><time>2026-05-01T10:13:43.798Z</time></trkpt><trkpt lat="42.7335343" lon="13.5199773"><ele>772.0</ele><time>2026-05-01T10:13:44.799Z</time></trkpt><trkpt lat="42.7334776" lon="13.5200766"><ele>771.8333333333333</ele><time>2026-05-01T10:13:45.799Z</time></trkpt><trkpt lat="42.7334434" lon="13.5201729"><ele>771.6666666666666</ele><time>2026-05-01T10:13:46.798Z</time></trkpt><trkpt lat="42.733426" lon="13.5202641"><ele>771.5</ele><time>2026-05-01T10:13:47.799Z</time></trkpt><trkpt lat="42.7334448" lon="13.5203516"><ele>771.3333333333333</ele><time>2026-05-01T10:13:48.798Z</time></trkpt><trkpt lat="42.7334867" lon="13.5204628"><ele>771.1666666666666</ele><time>2026-05-01T10:13:49.798Z</time></trkpt><trkpt lat="42.7335353" lon="13.5205942"><ele>771.0</ele><time>2026-05-01T10:13:50.798Z</time></trkpt><trkpt lat="42.7335842" lon="13.5207312"><ele>771.0</ele><time>2026-05-01T10:13:51.799Z</time></trkpt><trkpt lat="42.7336396" lon="13.5208778"><ele>771.0</ele><time>2026-05-01T10:13:52.799Z</time></trkpt><trkpt lat="42.7337046" lon="13.5210248"><ele>771.0</ele><time>2026-05-01T10:13:53.798Z</time></trkpt><trkpt lat="42.7337651" lon="13.5211737"><ele>771.0</ele><time>2026-05-01T10:13:54.798Z</time></trkpt><trkpt lat="42.7338307" lon="13.5213091"><ele>773.8</ele><time>2026-05-01T10:13:55.798Z</time></trkpt><trkpt lat="42.7338968" lon="13.5214393"><ele>776.5999999999999</ele><time>2026-05-01T10:13:56.798Z</time></trkpt><trkpt lat="42.7339558" lon="13.5215677"><ele>779.4</ele><time>2026-05-01T10:13:57.798Z</time></trkpt><trkpt lat="42.7340154" lon="13.5216973"><ele>782.2</ele><time>2026-05-01T10:13:58.798Z</time></trkpt><trkpt lat="42.7340606" lon="13.5218238"><ele>785.0</ele><time>2026-05-01T10:13:59.798Z</time></trkpt><trkpt lat="42.7340944" lon="13.5219626"><ele>787.8</ele><time>2026-05-01T10:14:00.797Z</time></trkpt><trkpt lat="42.7341136" lon="13.522097"><ele>790.6</ele><time>2026-05-01T10:14:01.798Z</time></trkpt><trkpt lat="42.734121" lon="13.5222381"><ele>793.4000000000001</ele><time>2026-05-01T10:14:02.798Z</time></trkpt><trkpt lat="42.7341314" lon="13.52238"><ele>796.2</ele><time>2026-05-01T10:14:03.798Z</time></trkpt><trkpt lat="42.7341525" lon="13.5225116"><ele>799.0</ele><time>2026-05-01T10:14:04.798Z</time></trkpt><trkpt lat="42.7341825" lon="13.5226273"><ele>799.0</ele><time>2026-05-01T10:14:05.799Z</time></trkpt><trkpt lat="42.7342195" lon="13.5227455"><ele>799.0</ele><time>2026-05-01T10:14:06.797Z</time></trkpt><trkpt lat="42.7342658" lon="13.5228626"><ele>799.0</ele><time>2026-05-01T10:14:07.799Z</time></trkpt><trkpt lat="42.7343236" lon="13.5229661"><ele>799.0</ele><time>2026-05-01T10:14:08.799Z</time></trkpt><trkpt lat="42.7343619" lon="13.5230751"><ele>799.0</ele><time>2026-05-01T10:14:09.798Z</time></trkpt><trkpt lat="42.7343796" lon="13.5232108"><ele>797.4000000000001</ele><time>2026-05-01T10:14:10.799Z</time></trkpt><trkpt lat="42.7343867" lon="13.5233617"><ele>795.8</ele><time>2026-05-01T10:14:11.799Z</time></trkpt><trkpt lat="42.7343901" lon="13.5234991"><ele>794.2</ele><time>2026-05-01T10:14:12.799Z</time></trkpt><trkpt lat="42.7343974" lon="13.523634"><ele>792.5999999999999</ele><time>2026-05-01T10:14:13.798Z</time></trkpt><trkpt lat="42.7344132" lon="13.5237553"><ele>791.0</ele><time>2026-05-01T10:14:14.798Z</time></trkpt><trkpt lat="42.7344397" lon="13.5238587"><ele>791.0000000000001</ele><time>2026-05-01T10:14:15.799Z</time></trkpt><trkpt lat="42.7344764" lon="13.52394"><ele>791.0</ele><time>2026-05-01T10:14:16.798Z</time></trkpt><trkpt lat="42.7345416" lon="13.5240057"><ele>791.0</ele><time>2026-05-01T10:14:17.799Z</time></trkpt><trkpt lat="42.7346265" lon="13.5240582"><ele>791.0</ele><time>2026-05-01T10:14:18.799Z</time></trkpt><trkpt lat="42.7347238" lon="13.524088"><ele>791.0000000000001</ele><time>2026-05-01T10:14:19.798Z</time></trkpt><trkpt lat="42.7348249" lon="13.5241076"><ele>791.0</ele><time>2026-05-01T10:14:20.798Z</time></trkpt><trkpt lat="42.7349117" lon="13.5241443"><ele>791.0</ele><time>2026-05-01T10:14:21.799Z</time></trkpt><trkpt lat="42.7349716" lon="13.5241892"><ele>791.0</ele><time>2026-05-01T10:14:22.798Z</time></trkpt><trkpt lat="42.7350362" lon="13.5243327"><ele>791.0</ele><time>2026-05-01T10:14:24.798Z</time></trkpt><trkpt lat="42.7350076" lon="13.5244221"><ele>791.0</ele><time>2026-05-01T10:14:25.799Z</time></trkpt><trkpt lat="42.7349801" lon="13.5245538"><ele>791.0</ele><time>2026-05-01T10:14:26.799Z</time></trkpt><trkpt lat="42.7349274" lon="13.5246808"><ele>788.4</ele><time>2026-05-01T10:14:27.798Z</time></trkpt><trkpt lat="42.7348749" lon="13.5247939"><ele>785.8</ele><time>2026-05-01T10:14:28.798Z</time></trkpt><trkpt lat="42.734804" lon="13.5248888"><ele>783.1999999999999</ele><time>2026-05-01T10:14:29.799Z</time></trkpt><trkpt lat="42.7347101" lon="13.5249684"><ele>780.5999999999999</ele><time>2026-05-01T10:14:30.797Z</time></trkpt><trkpt lat="42.7346007" lon="13.525026"><ele>778.0</ele><time>2026-05-01T10:14:31.798Z</time></trkpt><trkpt lat="42.7344793" lon="13.5250875"><ele>781.0</ele><time>2026-05-01T10:14:32.797Z</time></trkpt><trkpt lat="42.7343582" lon="13.5251555"><ele>784.0</ele><time>2026-05-01T10:14:33.798Z</time></trkpt><trkpt lat="42.7342462" lon="13.5252291"><ele>787.0</ele><time>2026-05-01T10:14:34.797Z</time></trkpt><trkpt lat="42.7341545" lon="13.5253309"><ele>790.0</ele><time>2026-05-01T10:14:35.797Z</time></trkpt><trkpt lat="42.7340639" lon="13.5254246"><ele>790.0</ele><time>2026-05-01T10:14:36.797Z</time></trkpt><trkpt lat="42.7339945" lon="13.5255676"><ele>790.0</ele><time>2026-05-01T10:14:37.797Z</time></trkpt><trkpt lat="42.7339296" lon="13.5256777"><ele>790.0</ele><time>2026-05-01T10:14:38.797Z</time></trkpt><trkpt lat="42.7338794" lon="13.5257861"><ele>790.0</ele><time>2026-05-01T10:14:39.798Z</time></trkpt><trkpt lat="42.733831" lon="13.5258944"><ele>790.0</ele><time>2026-05-01T10:14:40.797Z</time></trkpt><trkpt lat="42.7337827" lon="13.5259738"><ele>790.0</ele><time>2026-05-01T10:14:41.798Z</time></trkpt><trkpt lat="42.7337256" lon="13.5260596"><ele>790.0</ele><time>2026-05-01T10:14:42.797Z</time></trkpt><trkpt lat="42.7336367" lon="13.5260499"><ele>790.0</ele><time>2026-05-01T10:14:43.798Z</time></trkpt><trkpt lat="42.733535" lon="13.5260623"><ele>790.0</ele><time>2026-05-01T10:14:44.798Z</time></trkpt><trkpt lat="42.7334255" lon="13.5260821"><ele>790.0</ele><time>2026-05-01T10:14:45.798Z</time></trkpt><trkpt lat="42.7333228" lon="13.5261237"><ele>791.0</ele><time>2026-05-01T10:14:46.797Z</time></trkpt><trkpt lat="42.7332291" lon="13.5261618"><ele>792.0</ele><time>2026-05-01T10:14:47.797Z</time></trkpt><trkpt lat="42.7331345" lon="13.5262325"><ele>793.0</ele><time>2026-05-01T10:14:48.797Z</time></trkpt><trkpt lat="42.733051" lon="13.5263147"><ele>794.0</ele><time>2026-05-01T10:14:49.798Z</time></trkpt><trkpt lat="42.7330047" lon="13.5264326"><ele>795.0</ele><time>2026-05-01T10:14:50.798Z</time></trkpt><trkpt lat="42.7329477" lon="13.5265398"><ele>795.0</ele><time>2026-05-01T10:14:51.797Z</time></trkpt><trkpt lat="42.7329596" lon="13.526652"><ele>795.0</ele><time>2026-05-01T10:14:52.798Z</time></trkpt><trkpt lat="42.7329768" lon="13.5267941"><ele>795.0</ele><time>2026-05-01T10:14:53.798Z</time></trkpt><trkpt lat="42.7330115" lon="13.5269387"><ele>795.0</ele><time>2026-05-01T10:14:54.797Z</time></trkpt><trkpt lat="42.7330439" lon="13.5270502"><ele>795.0</ele><time>2026-05-01T10:14:55.798Z</time></trkpt><trkpt lat="42.7330646" lon="13.5271449"><ele>792.8</ele><time>2026-05-01T10:14:56.797Z</time></trkpt><trkpt lat="42.7330616" lon="13.5272394"><ele>790.6</ele><time>2026-05-01T10:14:57.798Z</time></trkpt><trkpt lat="42.7329835" lon="13.5273531"><ele>788.4000000000001</ele><time>2026-05-01T10:14:59.798Z</time></trkpt><trkpt lat="42.7328955" lon="13.5273921"><ele>786.2</ele><time>2026-05-01T10:15:00.798Z</time></trkpt><trkpt lat="42.7327899" lon="13.5274292"><ele>784.0</ele><time>2026-05-01T10:15:01.797Z</time></trkpt><trkpt lat="42.7326894" lon="13.5275018"><ele>789.6</ele><time>2026-05-01T10:15:02.797Z</time></trkpt><trkpt lat="42.7325971" lon="13.5275994"><ele>795.2</ele><time>2026-05-01T10:15:03.798Z</time></trkpt><trkpt lat="42.73252" lon="13.5277129"><ele>800.8000000000001</ele><time>2026-05-01T10:15:04.797Z</time></trkpt><trkpt lat="42.7324635" lon="13.5278289"><ele>806.4000000000001</ele><time>2026-05-01T10:15:05.798Z</time></trkpt><trkpt lat="42.7324243" lon="13.5279453"><ele>812.0</ele><time>2026-05-01T10:15:06.797Z</time></trkpt><trkpt lat="42.7323898" lon="13.5280805"><ele>812.0</ele><time>2026-05-01T10:15:07.798Z</time></trkpt><trkpt lat="42.7324379" lon="13.5282331"><ele>812.0</ele><time>2026-05-01T10:15:08.798Z</time></trkpt><trkpt lat="42.7324791" lon="13.5284017"><ele>812.0</ele><time>2026-05-01T10:15:09.798Z</time></trkpt><trkpt lat="42.7325305" lon="13.5285643"><ele>812.0</ele><time>2026-05-01T10:15:10.797Z</time></trkpt><trkpt lat="42.7325825" lon="13.5287173"><ele>812.2</ele><time>2026-05-01T10:15:11.798Z</time></trkpt><trkpt lat="42.7326191" lon="13.5288437"><ele>812.4000000000001</ele><time>2026-05-01T10:15:12.798Z</time></trkpt><trkpt lat="42.7326324" lon="13.5289756"><ele>812.5999999999999</ele><time>2026-05-01T10:15:13.797Z</time></trkpt><trkpt lat="42.7326239" lon="13.5291152"><ele>812.8</ele><time>2026-05-01T10:15:14.798Z</time></trkpt><trkpt lat="42.7325951" lon="13.5292834"><ele>813.0</ele><time>2026-05-01T10:15:15.798Z</time></trkpt><trkpt lat="42.7325589" lon="13.52946"><ele>810.8</ele><time>2026-05-01T10:15:16.797Z</time></trkpt><trkpt lat="42.7325192" lon="13.5296258"><ele>808.5999999999999</ele><time>2026-05-01T10:15:17.797Z</time></trkpt><trkpt lat="42.7324776" lon="13.5297864"><ele>806.4000000000001</ele><time>2026-05-01T10:15:18.799Z</time></trkpt><trkpt lat="42.7324561" lon="13.5298911"><ele>804.2</ele><time>2026-05-01T10:15:19.798Z</time></trkpt><trkpt lat="42.7324244" lon="13.5300147"><ele>802.0</ele><time>2026-05-01T10:15:20.798Z</time></trkpt><trkpt lat="42.7323413" lon="13.530104"><ele>802.0</ele><time>2026-05-01T10:15:21.798Z</time></trkpt><trkpt lat="42.7322429" lon="13.5301125"><ele>802.0</ele><time>2026-05-01T10:15:22.799Z</time></trkpt><trkpt lat="42.7321375" lon="13.5301253"><ele>802.0</ele><time>2026-05-01T10:15:23.798Z</time></trkpt><trkpt lat="42.7320281" lon="13.5301472"><ele>802.0</ele><time>2026-05-01T10:15:24.798Z</time></trkpt><trkpt lat="42.7319274" lon="13.5301919"><ele>802.0</ele><time>2026-05-01T10:15:25.797Z</time></trkpt><trkpt lat="42.7318371" lon="13.5302605"><ele>806.75</ele><time>2026-05-01T10:15:26.798Z</time></trkpt><trkpt lat="42.7317638" lon="13.5303718"><ele>811.5</ele><time>2026-05-01T10:15:27.798Z</time></trkpt><trkpt lat="42.7317112" lon="13.5305012"><ele>816.25</ele><time>2026-05-01T10:15:28.798Z</time></trkpt><trkpt lat="42.7316765" lon="13.5306569"><ele>821.0</ele><time>2026-05-01T10:15:29.798Z</time></trkpt><trkpt lat="42.7316366" lon="13.5308202"><ele>821.0</ele><time>2026-05-01T10:15:30.798Z</time></trkpt><trkpt lat="42.7316455" lon="13.530986"><ele>821.0</ele><time>2026-05-01T10:15:31.798Z</time></trkpt><trkpt lat="42.7316516" lon="13.5311343"><ele>821.0</ele><time>2026-05-01T10:15:32.799Z</time></trkpt><trkpt lat="42.7316646" lon="13.5312636"><ele>821.0</ele><time>2026-05-01T10:15:33.798Z</time></trkpt><trkpt lat="42.7316857" lon="13.5313913"><ele>821.0</ele><time>2026-05-01T10:15:34.798Z</time></trkpt><trkpt lat="42.7317617" lon="13.5314933"><ele>823.0</ele><time>2026-05-01T10:15:35.798Z</time></trkpt><trkpt lat="42.7318344" lon="13.5316044"><ele>825.0</ele><time>2026-05-01T10:15:36.798Z</time></trkpt><trkpt lat="42.7319372" lon="13.5317067"><ele>827.0</ele><time>2026-05-01T10:15:37.798Z</time></trkpt><trkpt lat="42.7320735" lon="13.531782"><ele>829.0</ele><time>2026-05-01T10:15:38.798Z</time></trkpt><trkpt lat="42.7321859" lon="13.5318597"><ele>825.8000000000001</ele><time>2026-05-01T10:15:39.797Z</time></trkpt><trkpt lat="42.7322875" lon="13.5319313"><ele>822.6</ele><time>2026-05-01T10:15:40.799Z</time></trkpt><trkpt lat="42.7323731" lon="13.5320009"><ele>819.4</ele><time>2026-05-01T10:15:41.798Z</time></trkpt><trkpt lat="42.7324381" lon="13.5320912"><ele>816.2</ele><time>2026-05-01T10:15:42.798Z</time></trkpt><trkpt lat="42.732486" lon="13.5321893"><ele>813.0</ele><time>2026-05-01T10:15:43.799Z</time></trkpt><trkpt lat="42.7324901" lon="13.5322906"><ele>813.0</ele><time>2026-05-01T10:15:44.799Z</time></trkpt><trkpt lat="42.732457" lon="13.5324155"><ele>813.0</ele><time>2026-05-01T10:15:45.797Z</time></trkpt><trkpt lat="42.7324002" lon="13.5325515"><ele>813.0</ele><time>2026-05-01T10:15:46.798Z</time></trkpt><trkpt lat="42.7323326" lon="13.5327171"><ele>813.0</ele><time>2026-05-01T10:15:47.798Z</time></trkpt><trkpt lat="42.732265" lon="13.5328995"><ele>812.0</ele><time>2026-05-01T10:15:48.798Z</time></trkpt><trkpt lat="42.7321915" lon="13.5331104"><ele>811.0</ele><time>2026-05-01T10:15:49.798Z</time></trkpt><trkpt lat="42.7321318" lon="13.5333182"><ele>810.0</ele><time>2026-05-01T10:15:50.798Z</time></trkpt><trkpt lat="42.7320667" lon="13.5335155"><ele>811.3333333333333</ele><time>2026-05-01T10:15:51.798Z</time></trkpt><trkpt lat="42.7320047" lon="13.5337272"><ele>812.6666666666666</ele><time>2026-05-01T10:15:52.798Z</time></trkpt><trkpt lat="42.7319641" lon="13.5339369"><ele>814.0</ele><time>2026-05-01T10:15:53.798Z</time></trkpt><trkpt lat="42.7319311" lon="13.5341504"><ele>814.0</ele><time>2026-05-01T10:15:54.798Z</time></trkpt><trkpt lat="42.7319069" lon="13.5343561"><ele>814.0</ele><time>2026-05-01T10:15:55.797Z</time></trkpt><trkpt lat="42.7318878" lon="13.5345538"><ele>814.0</ele><time>2026-05-01T10:15:56.797Z</time></trkpt><trkpt lat="42.7319033" lon="13.5347252"><ele>814.0</ele><time>2026-05-01T10:15:57.799Z</time></trkpt><trkpt lat="42.7318719" lon="13.5349064"><ele>826.0</ele><time>2026-05-01T10:15:58.798Z</time></trkpt><trkpt lat="42.7318541" lon="13.535098"><ele>838.0</ele><time>2026-05-01T10:15:59.799Z</time></trkpt><trkpt lat="42.7317609" lon="13.5352877"><ele>850.0</ele><time>2026-05-01T10:16:00.798Z</time></trkpt><trkpt lat="42.7317132" lon="13.5354794"><ele>850.0</ele><time>2026-05-01T10:16:01.798Z</time></trkpt><trkpt lat="42.7316548" lon="13.5356746"><ele>850.0</ele><time>2026-05-01T10:16:02.797Z</time></trkpt><trkpt lat="42.7316011" lon="13.5358642"><ele>850.0</ele><time>2026-05-01T10:16:03.798Z</time></trkpt><trkpt lat="42.7315398" lon="13.5360348"><ele>850.0</ele><time>2026-05-01T10:16:04.797Z</time></trkpt><trkpt lat="42.7314615" lon="13.536186"><ele>850.4</ele><time>2026-05-01T10:16:05.798Z</time></trkpt><trkpt lat="42.7314036" lon="13.5363108"><ele>850.8</ele><time>2026-05-01T10:16:06.797Z</time></trkpt><trkpt lat="42.731359" lon="13.5364187"><ele>851.2</ele><time>2026-05-01T10:16:07.798Z</time></trkpt><trkpt lat="42.7313046" lon="13.5365287"><ele>851.6</ele><time>2026-05-01T10:16:08.799Z</time></trkpt><trkpt lat="42.7313188" lon="13.5366315"><ele>852.0</ele><time>2026-05-01T10:16:09.798Z</time></trkpt><trkpt lat="42.7313564" lon="13.5367923"><ele>852.0</ele><time>2026-05-01T10:16:11.798Z</time></trkpt><trkpt lat="42.7314034" lon="13.5368527"><ele>852.0</ele><time>2026-05-01T10:16:12.798Z</time></trkpt><trkpt lat="42.7314718" lon="13.5368792"><ele>852.0</ele><time>2026-05-01T10:16:13.798Z</time></trkpt><trkpt lat="42.7316125" lon="13.5368896"><ele>852.0</ele><time>2026-05-01T10:16:14.798Z</time></trkpt><trkpt lat="42.7317186" lon="13.5369048"><ele>852.0</ele><time>2026-05-01T10:16:15.798Z</time></trkpt><trkpt lat="42.7318294" lon="13.5369225"><ele>851.8333333333334</ele><time>2026-05-01T10:16:16.797Z</time></trkpt><trkpt lat="42.7319264" lon="13.5369225"><ele>851.6666666666667</ele><time>2026-05-01T10:16:17.798Z</time></trkpt><trkpt lat="42.7320039" lon="13.5369411"><ele>851.5</ele><time>2026-05-01T10:16:18.798Z</time></trkpt><trkpt lat="42.7320764" lon="13.5369566"><ele>851.3333333333334</ele><time>2026-05-01T10:16:20.797Z</time></trkpt><trkpt lat="42.7321674" lon="13.5369151"><ele>851.1666666666667</ele><time>2026-05-01T10:16:23.799Z</time></trkpt><trkpt lat="42.7322164" lon="13.5368556"><ele>851.0</ele><time>2026-05-01T10:16:24.798Z</time></trkpt><trkpt lat="42.7322668" lon="13.5367871"><ele>851.0000000000001</ele><time>2026-05-01T10:16:25.799Z</time></trkpt><trkpt lat="42.7323217" lon="13.5367212"><ele>851.0</ele><time>2026-05-01T10:16:26.798Z</time></trkpt><trkpt lat="42.7323861" lon="13.5366411"><ele>851.0</ele><time>2026-05-01T10:16:27.797Z</time></trkpt><trkpt lat="42.7324581" lon="13.5365827"><ele>851.0</ele><time>2026-05-01T10:16:28.799Z</time></trkpt><trkpt lat="42.7325305" lon="13.5365365"><ele>851.0000000000001</ele><time>2026-05-01T10:16:29.798Z</time></trkpt><trkpt lat="42.7325914" lon="13.5364901"><ele>851.0</ele><time>2026-05-01T10:16:30.797Z</time></trkpt><trkpt lat="42.7326464" lon="13.5364262"><ele>851.0000000000001</ele><time>2026-05-01T10:16:31.797Z</time></trkpt><trkpt lat="42.732701" lon="13.5363466"><ele>851.0</ele><time>2026-05-01T10:16:32.798Z</time></trkpt><trkpt lat="42.7327465" lon="13.5362711"><ele>851.0</ele><time>2026-05-01T10:16:33.798Z</time></trkpt><trkpt lat="42.7328033" lon="13.5361999"><ele>851.0</ele><time>2026-05-01T10:16:34.798Z</time></trkpt><trkpt lat="42.7328717" lon="13.5361303"><ele>851.0000000000001</ele><time>2026-05-01T10:16:35.799Z</time></trkpt><trkpt lat="42.7329336" lon="13.5360534"><ele>851.0</ele><time>2026-05-01T10:16:36.798Z</time></trkpt><trkpt lat="42.7329941" lon="13.5359613"><ele>850.8</ele><time>2026-05-01T10:16:37.797Z</time></trkpt><trkpt lat="42.7330511" lon="13.5358511"><ele>850.5999999999999</ele><time>2026-05-01T10:16:38.798Z</time></trkpt><trkpt lat="42.7331099" lon="13.5357124"><ele>850.4</ele><time>2026-05-01T10:16:39.797Z</time></trkpt><trkpt lat="42.7331657" lon="13.5355765"><ele>850.2</ele><time>2026-05-01T10:16:40.799Z</time></trkpt><trkpt lat="42.7332241" lon="13.535454"><ele>850.0</ele><time>2026-05-01T10:16:41.799Z</time></trkpt><trkpt lat="42.7332777" lon="13.5353552"><ele>849.9999999999999</ele><time>2026-05-01T10:16:42.798Z</time></trkpt><trkpt lat="42.7333308" lon="13.5352769"><ele>850.0</ele><time>2026-05-01T10:16:43.798Z</time></trkpt><trkpt lat="42.7333836" lon="13.5352022"><ele>850.0</ele><time>2026-05-01T10:16:44.798Z</time></trkpt><trkpt lat="42.7334397" lon="13.5351474"><ele>850.0</ele><time>2026-05-01T10:16:45.798Z</time></trkpt><trkpt lat="42.7334967" lon="13.535104"><ele>849.9999999999999</ele><time>2026-05-01T10:16:46.799Z</time></trkpt><trkpt lat="42.7335616" lon="13.5350669"><ele>850.0</ele><time>2026-05-01T10:16:47.799Z</time></trkpt><trkpt lat="42.7336621" lon="13.5350318"><ele>850.8333333333333</ele><time>2026-05-01T10:16:49.798Z</time></trkpt><trkpt lat="42.7337312" lon="13.535008"><ele>851.6666666666666</ele><time>2026-05-01T10:16:51.798Z</time></trkpt><trkpt lat="42.7338055" lon="13.5349685"><ele>852.5</ele><time>2026-05-01T10:16:53.798Z</time></trkpt><trkpt lat="42.7338938" lon="13.5349473"><ele>853.3333333333333</ele><time>2026-05-01T10:16:56.798Z</time></trkpt><trkpt lat="42.7339775" lon="13.5349665"><ele>854.1666666666666</ele><time>2026-05-01T10:16:58.797Z</time></trkpt><trkpt lat="42.7340478" lon="13.5350119"><ele>855.0</ele><time>2026-05-01T10:17:01.797Z</time></trkpt><trkpt lat="42.7340575" lon="13.5349227"><ele>855.0</ele><time>2026-05-01T10:25:40.793Z</time></trkpt><trkpt lat="42.7339833" lon="13.5349524"><ele>855.0</ele><time>2026-05-01T10:25:43.794Z</time></trkpt><trkpt lat="42.7338557" lon="13.5349725"><ele>855.0</ele><time>2026-05-01T10:25:45.795Z</time></trkpt><trkpt lat="42.73377" lon="13.534999"><ele>855.0</ele><time>2026-05-01T10:25:46.794Z</time></trkpt><trkpt lat="42.7336831" lon="13.5350192"><ele>855.0</ele><time>2026-05-01T10:25:47.794Z</time></trkpt><trkpt lat="42.7336066" lon="13.5350497"><ele>854.8333333333334</ele><time>2026-05-01T10:25:48.794Z</time></trkpt><trkpt lat="42.7335386" lon="13.5350894"><ele>854.6666666666667</ele><time>2026-05-01T10:25:49.793Z</time></trkpt><trkpt lat="42.7334693" lon="13.5351359"><ele>854.5</ele><time>2026-05-01T10:25:50.793Z</time></trkpt><trkpt lat="42.7333966" lon="13.535206"><ele>854.3333333333334</ele><time>2026-05-01T10:25:51.794Z</time></trkpt><trkpt lat="42.7333244" lon="13.5353021"><ele>854.1666666666667</ele><time>2026-05-01T10:25:52.795Z</time></trkpt><trkpt lat="42.7332629" lon="13.5354051"><ele>854.0</ele><time>2026-05-01T10:25:53.794Z</time></trkpt><trkpt lat="42.7332141" lon="13.5355113"><ele>854.0</ele><time>2026-05-01T10:25:54.795Z</time></trkpt><trkpt lat="42.7331641" lon="13.5356239"><ele>854.0000000000001</ele><time>2026-05-01T10:25:55.794Z</time></trkpt><trkpt lat="42.7331101" lon="13.535742"><ele>854.0000000000001</ele><time>2026-05-01T10:25:56.795Z</time></trkpt><trkpt lat="42.7330555" lon="13.5358498"><ele>854.0</ele><time>2026-05-01T10:25:57.793Z</time></trkpt><trkpt lat="42.733006" lon="13.5359492"><ele>854.0</ele><time>2026-05-01T10:25:58.793Z</time></trkpt><trkpt lat="42.7329501" lon="13.5360438"><ele>854.0000000000001</ele><time>2026-05-01T10:25:59.794Z</time></trkpt><trkpt lat="42.7328847" lon="13.5361301"><ele>854.0</ele><time>2026-05-01T10:26:00.794Z</time></trkpt><trkpt lat="42.7328151" lon="13.536194"><ele>854.0</ele><time>2026-05-01T10:26:01.794Z</time></trkpt><trkpt lat="42.7327574" lon="13.5362693"><ele>854.0</ele><time>2026-05-01T10:26:02.794Z</time></trkpt><trkpt lat="42.7327031" lon="13.5363369"><ele>854.0000000000001</ele><time>2026-05-01T10:26:03.793Z</time></trkpt><trkpt lat="42.7326492" lon="13.5364123"><ele>854.0</ele><time>2026-05-01T10:26:04.794Z</time></trkpt><trkpt lat="42.732588" lon="13.5364791"><ele>853.5000000000001</ele><time>2026-05-01T10:26:05.794Z</time></trkpt><trkpt lat="42.7325197" lon="13.5365203"><ele>853.0</ele><time>2026-05-01T10:26:06.795Z</time></trkpt><trkpt lat="42.7324554" lon="13.536574"><ele>852.5</ele><time>2026-05-01T10:26:07.793Z</time></trkpt><trkpt lat="42.7323881" lon="13.5366342"><ele>852.0</ele><time>2026-05-01T10:26:08.794Z</time></trkpt><trkpt lat="42.7323328" lon="13.5366902"><ele>851.5000000000001</ele><time>2026-05-01T10:26:09.793Z</time></trkpt><trkpt lat="42.7322494" lon="13.5367876"><ele>851.0</ele><time>2026-05-01T10:26:11.794Z</time></trkpt><trkpt lat="42.7322137" lon="13.5368753"><ele>851.0000000000001</ele><time>2026-05-01T10:26:13.794Z</time></trkpt><trkpt lat="42.7322055" lon="13.536971"><ele>851.0</ele><time>2026-05-01T10:26:15.794Z</time></trkpt><trkpt lat="42.7322383" lon="13.5370678"><ele>851.0</ele><time>2026-05-01T10:26:17.794Z</time></trkpt><trkpt lat="42.7323128" lon="13.5371593"><ele>851.0</ele><time>2026-05-01T10:26:19.794Z</time></trkpt><trkpt lat="42.7323734" lon="13.5371903"><ele>851.0000000000001</ele><time>2026-05-01T10:26:20.794Z</time></trkpt><trkpt lat="42.7324445" lon="13.5371931"><ele>851.0</ele><time>2026-05-01T10:26:21.794Z</time></trkpt><trkpt lat="42.7325249" lon="13.5371715"><ele>850.8</ele><time>2026-05-01T10:26:22.794Z</time></trkpt><trkpt lat="42.7326172" lon="13.5371349"><ele>850.5999999999999</ele><time>2026-05-01T10:26:23.795Z</time></trkpt><trkpt lat="42.7327162" lon="13.5370989"><ele>850.4</ele><time>2026-05-01T10:26:24.794Z</time></trkpt><trkpt lat="42.7328153" lon="13.5370649"><ele>850.2</ele><time>2026-05-01T10:26:25.794Z</time></trkpt><trkpt lat="42.7329205" lon="13.5370574"><ele>850.0</ele><time>2026-05-01T10:26:26.794Z</time></trkpt><trkpt lat="42.7330251" lon="13.5370437"><ele>850.0</ele><time>2026-05-01T10:26:27.793Z</time></trkpt><trkpt lat="42.7331317" lon="13.5370129"><ele>850.0</ele><time>2026-05-01T10:26:28.795Z</time></trkpt><trkpt lat="42.7332284" lon="13.5369745"><ele>850.0</ele><time>2026-05-01T10:26:29.795Z</time></trkpt><trkpt lat="42.7333234" lon="13.5369349"><ele>850.0</ele><time>2026-05-01T10:26:30.795Z</time></trkpt><trkpt lat="42.7334154" lon="13.536916"><ele>850.0</ele><time>2026-05-01T10:26:31.794Z</time></trkpt><trkpt lat="42.7335057" lon="13.5369293"><ele>850.8333333333333</ele><time>2026-05-01T10:26:32.795Z</time></trkpt><trkpt lat="42.7335816" lon="13.5369535"><ele>851.6666666666666</ele><time>2026-05-01T10:26:33.794Z</time></trkpt><trkpt lat="42.7336502" lon="13.5370076"><ele>852.5</ele><time>2026-05-01T10:26:34.794Z</time></trkpt><trkpt lat="42.7337054" lon="13.5370722"><ele>853.3333333333333</ele><time>2026-05-01T10:26:35.793Z</time></trkpt><trkpt lat="42.733753" lon="13.5371932"><ele>854.1666666666666</ele><time>2026-05-01T10:26:37.795Z</time></trkpt><trkpt lat="42.7337221" lon="13.5373255"><ele>855.0</ele><time>2026-05-01T10:26:39.793Z</time></trkpt><trkpt lat="42.7336833" lon="13.5373933"><ele>855.0</ele><time>2026-05-01T10:26:40.795Z</time></trkpt><trkpt lat="42.7336396" lon="13.5374735"><ele>855.0</ele><time>2026-05-01T10:26:41.793Z</time></trkpt><trkpt lat="42.7335919" lon="13.5375678"><ele>855.0</ele><time>2026-05-01T10:26:42.795Z</time></trkpt><trkpt lat="42.7335528" lon="13.5376755"><ele>855.0</ele><time>2026-05-01T10:26:43.793Z</time></trkpt><trkpt lat="42.7335352" lon="13.5377893"><ele>855.0</ele><time>2026-05-01T10:26:44.793Z</time></trkpt><trkpt lat="42.7335306" lon="13.5378832"><ele>855.0</ele><time>2026-05-01T10:26:45.793Z</time></trkpt><trkpt lat="42.733575" lon="13.5380265"><ele>855.0</ele><time>2026-05-01T10:26:47.794Z</time></trkpt><trkpt lat="42.733672" lon="13.5380791"><ele>855.0</ele><time>2026-05-01T10:26:49.795Z</time></trkpt><trkpt lat="42.7337838" lon="13.5380003"><ele>855.0</ele><time>2026-05-01T10:26:51.794Z</time></trkpt><trkpt lat="42.7338426" lon="13.5379051"><ele>855.0</ele><time>2026-05-01T10:26:52.794Z</time></trkpt><trkpt lat="42.7338765" lon="13.5378134"><ele>855.0</ele><time>2026-05-01T10:26:53.794Z</time></trkpt><trkpt lat="42.7339149" lon="13.5377363"><ele>855.0</ele><time>2026-05-01T10:26:54.795Z</time></trkpt><trkpt lat="42.7340106" lon="13.537668"><ele>855.0</ele><time>2026-05-01T10:26:56.793Z</time></trkpt><trkpt lat="42.7340842" lon="13.5377075"><ele>855.0</ele><time>2026-05-01T10:26:58.794Z</time></trkpt><trkpt lat="42.7341492" lon="13.5377703"><ele>855.0</ele><time>2026-05-01T10:27:01.794Z</time></trkpt><trkpt lat="42.7341056" lon="13.5379091"><ele>855.0</ele><time>2026-05-01T10:27:05.794Z</time></trkpt><trkpt lat="42.7340617" lon="13.5379874"><ele>858.2</ele><time>2026-05-01T10:27:06.794Z</time></trkpt><trkpt lat="42.7340178" lon="13.5380785"><ele>861.4</ele><time>2026-05-01T10:27:07.793Z</time></trkpt><trkpt lat="42.7339752" lon="13.5381892"><ele>864.5999999999999</ele><time>2026-05-01T10:27:08.795Z</time></trkpt><trkpt lat="42.733932" lon="13.5383075"><ele>867.8</ele><time>2026-05-01T10:27:09.795Z</time></trkpt><trkpt lat="42.7338999" lon="13.5384406"><ele>871.0</ele><time>2026-05-01T10:27:10.794Z</time></trkpt><trkpt lat="42.7338817" lon="13.538558"><ele>870.9999999999999</ele><time>2026-05-01T10:27:11.794Z</time></trkpt><trkpt lat="42.7338632" lon="13.5386724"><ele>871.0</ele><time>2026-05-01T10:27:12.794Z</time></trkpt><trkpt lat="42.7338281" lon="13.5387662"><ele>871.0</ele><time>2026-05-01T10:27:13.794Z</time></trkpt><trkpt lat="42.7337814" lon="13.5388504"><ele>871.0</ele><time>2026-05-01T10:27:14.793Z</time></trkpt><trkpt lat="42.7337248" lon="13.5389157"><ele>870.9999999999999</ele><time>2026-05-01T10:27:15.794Z</time></trkpt><trkpt lat="42.7336533" lon="13.5389539"><ele>871.0</ele><time>2026-05-01T10:27:16.795Z</time></trkpt><trkpt lat="42.7335697" lon="13.5389777"><ele>873.1999999999999</ele><time>2026-05-01T10:27:17.795Z</time></trkpt><trkpt lat="42.7334797" lon="13.5389975"><ele>875.3999999999999</ele><time>2026-05-01T10:27:18.794Z</time></trkpt><trkpt lat="42.7333875" lon="13.5390185"><ele>877.6</ele><time>2026-05-01T10:27:19.794Z</time></trkpt><trkpt lat="42.7332935" lon="13.5390436"><ele>879.8</ele><time>2026-05-01T10:27:20.792Z</time></trkpt><trkpt lat="42.7331975" lon="13.5390828"><ele>882.0</ele><time>2026-05-01T10:27:21.793Z</time></trkpt><trkpt lat="42.7331038" lon="13.5391291"><ele>882.0</ele><time>2026-05-01T10:27:22.793Z</time></trkpt><trkpt lat="42.7330094" lon="13.5391843"><ele>882.0</ele><time>2026-05-01T10:27:23.793Z</time></trkpt><trkpt lat="42.7329055" lon="13.5392503"><ele>882.0</ele><time>2026-05-01T10:27:24.794Z</time></trkpt><trkpt lat="42.7327875" lon="13.5392972"><ele>882.0</ele><time>2026-05-01T10:27:25.793Z</time></trkpt><trkpt lat="42.7326849" lon="13.5393518"><ele>881.2</ele><time>2026-05-01T10:27:26.794Z</time></trkpt><trkpt lat="42.7325959" lon="13.5394199"><ele>880.4000000000001</ele><time>2026-05-01T10:27:27.793Z</time></trkpt><trkpt lat="42.7325064" lon="13.5395086"><ele>879.5999999999999</ele><time>2026-05-01T10:27:28.792Z</time></trkpt><trkpt lat="42.7324337" lon="13.5396171"><ele>878.8</ele><time>2026-05-01T10:27:29.792Z</time></trkpt><trkpt lat="42.7323643" lon="13.5397345"><ele>878.0</ele><time>2026-05-01T10:27:30.793Z</time></trkpt><trkpt lat="42.7322968" lon="13.5398542"><ele>882.4</ele><time>2026-05-01T10:27:31.794Z</time></trkpt><trkpt lat="42.732225" lon="13.5399658"><ele>886.8</ele><time>2026-05-01T10:27:32.792Z</time></trkpt><trkpt lat="42.732149" lon="13.5400631"><ele>891.2</ele><time>2026-05-01T10:27:33.793Z</time></trkpt><trkpt lat="42.7320668" lon="13.5401382"><ele>895.6</ele><time>2026-05-01T10:27:34.793Z</time></trkpt><trkpt lat="42.7319919" lon="13.5402007"><ele>900.0</ele><time>2026-05-01T10:27:35.793Z</time></trkpt><trkpt lat="42.7319054" lon="13.5402483"><ele>899.0</ele><time>2026-05-01T10:27:36.792Z</time></trkpt><trkpt lat="42.7318134" lon="13.5402818"><ele>898.0</ele><time>2026-05-01T10:27:37.793Z</time></trkpt><trkpt lat="42.7317224" lon="13.5402998"><ele>897.0</ele><time>2026-05-01T10:27:38.793Z</time></trkpt><trkpt lat="42.731639" lon="13.540302"><ele>896.0</ele><time>2026-05-01T10:27:39.793Z</time></trkpt><trkpt lat="42.731559" lon="13.5402907"><ele>895.0</ele><time>2026-05-01T10:27:40.794Z</time></trkpt><trkpt lat="42.7314858" lon="13.5402531"><ele>894.0</ele><time>2026-05-01T10:27:41.793Z</time></trkpt><trkpt lat="42.7314203" lon="13.5401942"><ele>894.0</ele><time>2026-05-01T10:27:42.793Z</time></trkpt><trkpt lat="42.7313561" lon="13.5401141"><ele>894.0</ele><time>2026-05-01T10:27:43.792Z</time></trkpt><trkpt lat="42.7313021" lon="13.5400099"><ele>894.0</ele><time>2026-05-01T10:27:44.792Z</time></trkpt><trkpt lat="42.7312422" lon="13.5399313"><ele>894.0</ele><time>2026-05-01T10:27:45.794Z</time></trkpt><trkpt lat="42.7311848" lon="13.5398781"><ele>894.0</ele><time>2026-05-01T10:27:46.793Z</time></trkpt><trkpt lat="42.73108" lon="13.5398719"><ele>894.0</ele><time>2026-05-01T10:27:48.793Z</time></trkpt><trkpt lat="42.7310216" lon="13.5400017"><ele>894.0</ele><time>2026-05-01T10:27:50.794Z</time></trkpt><trkpt lat="42.7310292" lon="13.5401052"><ele>894.0000000000001</ele><time>2026-05-01T10:27:51.794Z</time></trkpt><trkpt lat="42.7310416" lon="13.5402256"><ele>894.0000000000001</ele><time>2026-05-01T10:27:52.794Z</time></trkpt><trkpt lat="42.7310697" lon="13.540364"><ele>894.0</ele><time>2026-05-01T10:27:53.794Z</time></trkpt><trkpt lat="42.7310711" lon="13.5405138"><ele>894.0</ele><time>2026-05-01T10:27:54.794Z</time></trkpt><trkpt lat="42.7310632" lon="13.5406723"><ele>896.1666666666666</ele><time>2026-05-01T10:27:55.792Z</time></trkpt><trkpt lat="42.7310529" lon="13.5408061"><ele>898.3333333333333</ele><time>2026-05-01T10:27:56.793Z</time></trkpt><trkpt lat="42.731047" lon="13.5409413"><ele>900.5</ele><time>2026-05-01T10:27:57.793Z</time></trkpt><trkpt lat="42.7310651" lon="13.5410395"><ele>902.6666666666666</ele><time>2026-05-01T10:27:58.794Z</time></trkpt><trkpt lat="42.7310988" lon="13.5411215"><ele>904.8333333333333</ele><time>2026-05-01T10:27:59.794Z</time></trkpt><trkpt lat="42.7311579" lon="13.5411935"><ele>907.0</ele><time>2026-05-01T10:28:00.793Z</time></trkpt><trkpt lat="42.731239" lon="13.541253"><ele>909.8</ele><time>2026-05-01T10:28:01.792Z</time></trkpt><trkpt lat="42.731337" lon="13.5413059"><ele>912.6</ele><time>2026-05-01T10:28:02.793Z</time></trkpt><trkpt lat="42.7314355" lon="13.5413799"><ele>915.3999999999999</ele><time>2026-05-01T10:28:03.793Z</time></trkpt><trkpt lat="42.7315345" lon="13.5414769"><ele>918.1999999999999</ele><time>2026-05-01T10:28:04.792Z</time></trkpt><trkpt lat="42.7316261" lon="13.5415523"><ele>921.0</ele><time>2026-05-01T10:28:05.792Z</time></trkpt><trkpt lat="42.7317011" lon="13.5416309"><ele>921.0</ele><time>2026-05-01T10:28:06.792Z</time></trkpt><trkpt lat="42.731775" lon="13.5416973"><ele>921.0</ele><time>2026-05-01T10:28:07.792Z</time></trkpt><trkpt lat="42.7318439" lon="13.5417419"><ele>921.0</ele><time>2026-05-01T10:28:08.792Z</time></trkpt><trkpt lat="42.7319238" lon="13.5417745"><ele>921.0</ele><time>2026-05-01T10:28:09.793Z</time></trkpt><trkpt lat="42.7319957" lon="13.5417747"><ele>921.0</ele><time>2026-05-01T10:28:10.792Z</time></trkpt><trkpt lat="42.7320748" lon="13.5417521"><ele>921.0</ele><time>2026-05-01T10:28:11.793Z</time></trkpt><trkpt lat="42.7321409" lon="13.5417008"><ele>923.4</ele><time>2026-05-01T10:28:12.792Z</time></trkpt><trkpt lat="42.7322034" lon="13.5416173"><ele>925.8</ele><time>2026-05-01T10:28:13.793Z</time></trkpt><trkpt lat="42.7322633" lon="13.5415027"><ele>928.1999999999999</ele><time>2026-05-01T10:28:14.793Z</time></trkpt><trkpt lat="42.7323173" lon="13.5414042"><ele>930.5999999999999</ele><time>2026-05-01T10:28:15.793Z</time></trkpt><trkpt lat="42.732384" lon="13.5413246"><ele>933.0</ele><time>2026-05-01T10:28:16.793Z</time></trkpt><trkpt lat="42.7324697" lon="13.5412494"><ele>930.75</ele><time>2026-05-01T10:28:17.793Z</time></trkpt><trkpt lat="42.7325709" lon="13.5411774"><ele>928.5</ele><time>2026-05-01T10:28:18.792Z</time></trkpt><trkpt lat="42.7326813" lon="13.5411113"><ele>926.25</ele><time>2026-05-01T10:28:19.792Z</time></trkpt><trkpt lat="42.7327802" lon="13.5410354"><ele>924.0</ele><time>2026-05-01T10:28:20.793Z</time></trkpt><trkpt lat="42.7328712" lon="13.5409738"><ele>924.0</ele><time>2026-05-01T10:28:21.793Z</time></trkpt><trkpt lat="42.7329592" lon="13.5409358"><ele>924.0</ele><time>2026-05-01T10:28:22.793Z</time></trkpt><trkpt lat="42.733042" lon="13.5409139"><ele>924.0</ele><time>2026-05-01T10:28:23.792Z</time></trkpt><trkpt lat="42.7331278" lon="13.5409163"><ele>924.0</ele><time>2026-05-01T10:28:24.794Z</time></trkpt><trkpt lat="42.7332141" lon="13.5409301"><ele>924.0</ele><time>2026-05-01T10:28:25.794Z</time></trkpt><trkpt lat="42.7333044" lon="13.540944"><ele>924.0</ele><time>2026-05-01T10:28:26.793Z</time></trkpt><trkpt lat="42.7333915" lon="13.5409685"><ele>924.0</ele><time>2026-05-01T10:28:27.793Z</time></trkpt><trkpt lat="42.733476" lon="13.5410025"><ele>924.0000000000001</ele><time>2026-05-01T10:28:28.793Z</time></trkpt><trkpt lat="42.7335584" lon="13.5410502"><ele>924.0000000000001</ele><time>2026-05-01T10:28:29.793Z</time></trkpt><trkpt lat="42.7336365" lon="13.5411118"><ele>924.0</ele><time>2026-05-01T10:28:30.794Z</time></trkpt><trkpt lat="42.7337205" lon="13.5411801"><ele>924.0</ele><time>2026-05-01T10:28:31.793Z</time></trkpt><trkpt lat="42.7338136" lon="13.541228"><ele>924.6</ele><time>2026-05-01T10:28:32.793Z</time></trkpt><trkpt lat="42.7339077" lon="13.5412447"><ele>925.2</ele><time>2026-05-01T10:28:33.793Z</time></trkpt><trkpt lat="42.7340088" lon="13.5412331"><ele>925.8000000000001</ele><time>2026-05-01T10:28:34.793Z</time></trkpt><trkpt lat="42.734115" lon="13.5412103"><ele>926.4000000000001</ele><time>2026-05-01T10:28:35.793Z</time></trkpt><trkpt lat="42.7342245" lon="13.5412102"><ele>927.0</ele><time>2026-05-01T10:28:36.792Z</time></trkpt><trkpt lat="42.7343353" lon="13.5412041"><ele>928.4000000000001</ele><time>2026-05-01T10:28:37.793Z</time></trkpt><trkpt lat="42.7344446" lon="13.5411901"><ele>929.8000000000001</ele><time>2026-05-01T10:28:38.792Z</time></trkpt><trkpt lat="42.7345538" lon="13.5411764"><ele>931.2</ele><time>2026-05-01T10:28:39.792Z</time></trkpt><trkpt lat="42.7346655" lon="13.5411608"><ele>932.6</ele><time>2026-05-01T10:28:40.793Z</time></trkpt><trkpt lat="42.734776" lon="13.5411606"><ele>934.0</ele><time>2026-05-01T10:28:41.793Z</time></trkpt><trkpt lat="42.7348906" lon="13.5411671"><ele>934.0</ele><time>2026-05-01T10:28:42.792Z</time></trkpt><trkpt lat="42.7350086" lon="13.5411972"><ele>934.0</ele><time>2026-05-01T10:28:43.794Z</time></trkpt><trkpt lat="42.7351231" lon="13.5412226"><ele>934.0</ele><time>2026-05-01T10:28:44.793Z</time></trkpt><trkpt lat="42.7352341" lon="13.5412305"><ele>934.0</ele><time>2026-05-01T10:28:45.792Z</time></trkpt><trkpt lat="42.7353436" lon="13.5411995"><ele>937.5</ele><time>2026-05-01T10:28:46.792Z</time></trkpt><trkpt lat="42.7354473" lon="13.5411395"><ele>941.0</ele><time>2026-05-01T10:28:47.792Z</time></trkpt><trkpt lat="42.7355529" lon="13.5410518"><ele>944.5</ele><time>2026-05-01T10:28:48.792Z</time></trkpt><trkpt lat="42.7356463" lon="13.5409494"><ele>948.0</ele><time>2026-05-01T10:28:49.792Z</time></trkpt><trkpt lat="42.7357347" lon="13.540869"><ele>948.0</ele><time>2026-05-01T10:28:50.792Z</time></trkpt><trkpt lat="42.7358258" lon="13.5408193"><ele>948.0</ele><time>2026-05-01T10:28:51.793Z</time></trkpt><trkpt lat="42.7359111" lon="13.5408042"><ele>948.0</ele><time>2026-05-01T10:28:52.793Z</time></trkpt><trkpt lat="42.7359924" lon="13.5408285"><ele>948.0</ele><time>2026-05-01T10:28:53.794Z</time></trkpt><trkpt lat="42.7360816" lon="13.5408626"><ele>948.0</ele><time>2026-05-01T10:28:54.793Z</time></trkpt><trkpt lat="42.7361748" lon="13.5409589"><ele>948.0</ele><time>2026-05-01T10:28:55.793Z</time></trkpt><trkpt lat="42.7362748" lon="13.5410125"><ele>948.0</ele><time>2026-05-01T10:28:56.792Z</time></trkpt><trkpt lat="42.7363842" lon="13.5410599"><ele>948.0</ele><time>2026-05-01T10:28:57.794Z</time></trkpt><trkpt lat="42.7365064" lon="13.5410956"><ele>948.0</ele><time>2026-05-01T10:28:58.793Z</time></trkpt><trkpt lat="42.7366338" lon="13.5411109"><ele>948.0</ele><time>2026-05-01T10:28:59.794Z</time></trkpt><trkpt lat="42.7367672" lon="13.5411062"><ele>948.0</ele><time>2026-05-01T10:29:00.792Z</time></trkpt><trkpt lat="42.7368975" lon="13.5410763"><ele>948.0</ele><time>2026-05-01T10:29:01.793Z</time></trkpt><trkpt lat="42.7370182" lon="13.5410232"><ele>948.0</ele><time>2026-05-01T10:29:02.793Z</time></trkpt><trkpt lat="42.7371283" lon="13.5409469"><ele>947.25</ele><time>2026-05-01T10:29:03.793Z</time></trkpt><trkpt lat="42.7372281" lon="13.5408461"><ele>946.5</ele><time>2026-05-01T10:29:04.793Z</time></trkpt><trkpt lat="42.7373116" lon="13.5407374"><ele>945.75</ele><time>2026-05-01T10:29:05.792Z</time></trkpt><trkpt lat="42.7373838" lon="13.5406268"><ele>945.0</ele><time>2026-05-01T10:29:06.792Z</time></trkpt><trkpt lat="42.7374545" lon="13.5405181"><ele>945.0</ele><time>2026-05-01T10:29:07.793Z</time></trkpt><trkpt lat="42.7375178" lon="13.5404193"><ele>945.0</ele><time>2026-05-01T10:29:08.794Z</time></trkpt><trkpt lat="42.7375689" lon="13.5403225"><ele>945.0</ele><time>2026-05-01T10:29:09.794Z</time></trkpt><trkpt lat="42.7376222" lon="13.5402636"><ele>945.0</ele><time>2026-05-01T10:29:10.794Z</time></trkpt><trkpt lat="42.7377253" lon="13.5402414"><ele>945.0</ele><time>2026-05-01T10:29:12.793Z</time></trkpt><trkpt lat="42.7377718" lon="13.5403267"><ele>945.0</ele><time>2026-05-01T10:29:14.793Z</time></trkpt><trkpt lat="42.7377339" lon="13.540449"><ele>945.0</ele><time>2026-05-01T10:29:16.793Z</time></trkpt><trkpt lat="42.7376722" lon="13.540525"><ele>945.0</ele><time>2026-05-01T10:29:17.794Z</time></trkpt><trkpt lat="42.737587" lon="13.5406093"><ele>945.0</ele><time>2026-05-01T10:29:18.794Z</time></trkpt><trkpt lat="42.7375056" lon="13.5407056"><ele>945.0</ele><time>2026-05-01T10:29:19.793Z</time></trkpt><trkpt lat="42.7374125" lon="13.5408513"><ele>945.0</ele><time>2026-05-01T10:29:20.793Z</time></trkpt><trkpt lat="42.7373176" lon="13.5409773"><ele>945.0</ele><time>2026-05-01T10:29:21.793Z</time></trkpt><trkpt lat="42.7372125" lon="13.5410921"><ele>945.0</ele><time>2026-05-01T10:29:22.793Z</time></trkpt><trkpt lat="42.7370982" lon="13.5411997"><ele>945.0</ele><time>2026-05-01T10:29:23.793Z</time></trkpt><trkpt lat="42.7369901" lon="13.541284"><ele>945.0</ele><time>2026-05-01T10:29:24.793Z</time></trkpt><trkpt lat="42.736879" lon="13.5413607"><ele>949.4</ele><time>2026-05-01T10:29:25.792Z</time></trkpt><trkpt lat="42.7367848" lon="13.5414341"><ele>953.8</ele><time>2026-05-01T10:29:26.794Z</time></trkpt><trkpt lat="42.7366968" lon="13.5414845"><ele>958.2</ele><time>2026-05-01T10:29:27.793Z</time></trkpt><trkpt lat="42.7365902" lon="13.5415165"><ele>962.6</ele><time>2026-05-01T10:29:28.794Z</time></trkpt><trkpt lat="42.7364774" lon="13.5415265"><ele>967.0</ele><time>2026-05-01T10:29:29.794Z</time></trkpt><trkpt lat="42.736359" lon="13.5415194"><ele>967.0</ele><time>2026-05-01T10:29:30.794Z</time></trkpt><trkpt lat="42.736252" lon="13.5415239"><ele>967.0</ele><time>2026-05-01T10:29:31.792Z</time></trkpt><trkpt lat="42.7361616" lon="13.5415501"><ele>967.0</ele><time>2026-05-01T10:29:32.793Z</time></trkpt><trkpt lat="42.7360612" lon="13.5415941"><ele>967.0</ele><time>2026-05-01T10:29:33.793Z</time></trkpt><trkpt lat="42.7359627" lon="13.5416592"><ele>967.0</ele><time>2026-05-01T10:29:34.793Z</time></trkpt><trkpt lat="42.7358671" lon="13.5417395"><ele>967.8</ele><time>2026-05-01T10:29:35.793Z</time></trkpt><trkpt lat="42.7357759" lon="13.5418332"><ele>968.6</ele><time>2026-05-01T10:29:36.793Z</time></trkpt><trkpt lat="42.7356931" lon="13.5419315"><ele>969.3999999999999</ele><time>2026-05-01T10:29:37.792Z</time></trkpt><trkpt lat="42.7356262" lon="13.5420473"><ele>970.1999999999999</ele><time>2026-05-01T10:29:38.792Z</time></trkpt><trkpt lat="42.7355695" lon="13.5421853"><ele>971.0</ele><time>2026-05-01T10:29:39.791Z</time></trkpt><trkpt lat="42.7355208" lon="13.5423488"><ele>974.8</ele><time>2026-05-01T10:29:40.792Z</time></trkpt><trkpt lat="42.7354986" lon="13.5424857"><ele>978.5999999999999</ele><time>2026-05-01T10:29:41.792Z</time></trkpt><trkpt lat="42.7354678" lon="13.5426059"><ele>982.4</ele><time>2026-05-01T10:29:42.792Z</time></trkpt><trkpt lat="42.7354266" lon="13.5427044"><ele>986.2</ele><time>2026-05-01T10:29:43.792Z</time></trkpt><trkpt lat="42.7353857" lon="13.5427738"><ele>990.0</ele><time>2026-05-01T10:29:44.792Z</time></trkpt><trkpt lat="42.7352793" lon="13.5428389"><ele>989.3333333333334</ele><time>2026-05-01T10:29:46.792Z</time></trkpt><trkpt lat="42.7352079" lon="13.5428261"><ele>988.6666666666667</ele><time>2026-05-01T10:29:47.793Z</time></trkpt><trkpt lat="42.7351252" lon="13.5427713"><ele>988.0</ele><time>2026-05-01T10:29:48.793Z</time></trkpt><trkpt lat="42.735056" lon="13.5427128"><ele>987.3333333333334</ele><time>2026-05-01T10:29:49.793Z</time></trkpt><trkpt lat="42.7349848" lon="13.5426848"><ele>986.6666666666667</ele><time>2026-05-01T10:29:50.793Z</time></trkpt><trkpt lat="42.7349095" lon="13.5426797"><ele>986.0</ele><time>2026-05-01T10:29:51.793Z</time></trkpt><trkpt lat="42.7348361" lon="13.5427072"><ele>986.0</ele><time>2026-05-01T10:29:52.792Z</time></trkpt><trkpt lat="42.7347585" lon="13.5427682"><ele>985.9999999999999</ele><time>2026-05-01T10:29:53.791Z</time></trkpt><trkpt lat="42.7346858" lon="13.5428472"><ele>985.9999999999999</ele><time>2026-05-01T10:29:54.791Z</time></trkpt><trkpt lat="42.7346048" lon="13.5429385"><ele>986.0</ele><time>2026-05-01T10:29:55.793Z</time></trkpt><trkpt lat="42.7345128" lon="13.5430437"><ele>986.0</ele><time>2026-05-01T10:29:56.792Z</time></trkpt><trkpt lat="42.7344149" lon="13.5431432"><ele>989.5</ele><time>2026-05-01T10:29:57.792Z</time></trkpt><trkpt lat="42.7343048" lon="13.5432419"><ele>993.0</ele><time>2026-05-01T10:29:58.791Z</time></trkpt><trkpt lat="42.7341958" lon="13.5433359"><ele>996.5</ele><time>2026-05-01T10:29:59.792Z</time></trkpt><trkpt lat="42.7340818" lon="13.5434029"><ele>1000.0</ele><time>2026-05-01T10:30:00.791Z</time></trkpt><trkpt lat="42.7339607" lon="13.5434632"><ele>1000.0</ele><time>2026-05-01T10:30:01.792Z</time></trkpt><trkpt lat="42.7338376" lon="13.5435129"><ele>1000.0</ele><time>2026-05-01T10:30:02.791Z</time></trkpt><trkpt lat="42.7337072" lon="13.5435582"><ele>1000.0</ele><time>2026-05-01T10:30:03.792Z</time></trkpt><trkpt lat="42.7335744" lon="13.5436099"><ele>1000.0</ele><time>2026-05-01T10:30:04.792Z</time></trkpt><trkpt lat="42.7334421" lon="13.543676"><ele>1005.25</ele><time>2026-05-01T10:30:05.792Z</time></trkpt><trkpt lat="42.7333239" lon="13.5437364"><ele>1010.5</ele><time>2026-05-01T10:30:06.792Z</time></trkpt><trkpt lat="42.7332089" lon="13.5437866"><ele>1015.75</ele><time>2026-05-01T10:30:07.791Z</time></trkpt><trkpt lat="42.7330976" lon="13.5438488"><ele>1021.0</ele><time>2026-05-01T10:30:08.791Z</time></trkpt><trkpt lat="42.7329955" lon="13.5439168"><ele>1021.0</ele><time>2026-05-01T10:30:09.793Z</time></trkpt><trkpt lat="42.7328977" lon="13.5440085"><ele>1021.0</ele><time>2026-05-01T10:30:10.793Z</time></trkpt><trkpt lat="42.7328025" lon="13.5441261"><ele>1021.0</ele><time>2026-05-01T10:30:11.792Z</time></trkpt><trkpt lat="42.7327056" lon="13.544249"><ele>1021.0</ele><time>2026-05-01T10:30:12.793Z</time></trkpt><trkpt lat="42.7326165" lon="13.5443807"><ele>1018.5</ele><time>2026-05-01T10:30:13.792Z</time></trkpt><trkpt lat="42.7325352" lon="13.5445237"><ele>1016.0</ele><time>2026-05-01T10:30:14.792Z</time></trkpt><trkpt lat="42.732464" lon="13.5446758"><ele>1013.5</ele><time>2026-05-01T10:30:15.793Z</time></trkpt><trkpt lat="42.7323959" lon="13.5448401"><ele>1011.0</ele><time>2026-05-01T10:30:16.792Z</time></trkpt><trkpt lat="42.7323276" lon="13.5450052"><ele>1016.25</ele><time>2026-05-01T10:30:17.792Z</time></trkpt><trkpt lat="42.7322595" lon="13.5451703"><ele>1021.5</ele><time>2026-05-01T10:30:18.793Z</time></trkpt><trkpt lat="42.7321987" lon="13.5453378"><ele>1026.75</ele><time>2026-05-01T10:30:19.792Z</time></trkpt><trkpt lat="42.7321482" lon="13.5454985"><ele>1032.0</ele><time>2026-05-01T10:30:20.792Z</time></trkpt><trkpt lat="42.7321068" lon="13.5456492"><ele>1032.0</ele><time>2026-05-01T10:30:21.792Z</time></trkpt><trkpt lat="42.7320761" lon="13.5457821"><ele>1032.0</ele><time>2026-05-01T10:30:22.791Z</time></trkpt><trkpt lat="42.7320438" lon="13.5459129"><ele>1032.0</ele><time>2026-05-01T10:30:23.792Z</time></trkpt><trkpt lat="42.7320093" lon="13.5460439"><ele>1032.0</ele><time>2026-05-01T10:30:24.793Z</time></trkpt><trkpt lat="42.73197" lon="13.5461748"><ele>1032.0</ele><time>2026-05-01T10:30:25.793Z</time></trkpt><trkpt lat="42.7319315" lon="13.5462994"><ele>1032.5</ele><time>2026-05-01T10:30:26.792Z</time></trkpt><trkpt lat="42.7319006" lon="13.5464258"><ele>1033.0</ele><time>2026-05-01T10:30:27.791Z</time></trkpt><trkpt lat="42.7318755" lon="13.5465428"><ele>1033.5</ele><time>2026-05-01T10:30:28.791Z</time></trkpt><trkpt lat="42.7318586" lon="13.5466406"><ele>1034.0</ele><time>2026-05-01T10:30:29.792Z</time></trkpt><trkpt lat="42.7318443" lon="13.5467311"><ele>1034.5</ele><time>2026-05-01T10:30:30.792Z</time></trkpt><trkpt lat="42.7318242" lon="13.5468642"><ele>1035.0</ele><time>2026-05-01T10:30:32.793Z</time></trkpt><trkpt lat="42.7318131" lon="13.5469806"><ele>1038.2</ele><time>2026-05-01T10:30:34.791Z</time></trkpt><trkpt lat="42.731817" lon="13.5471007"><ele>1041.4</ele><time>2026-05-01T10:31:00.791Z</time></trkpt><trkpt lat="42.7318292" lon="13.5472421"><ele>1044.6</ele><time>2026-05-01T10:31:02.793Z</time></trkpt><trkpt lat="42.7318271" lon="13.5474082"><ele>1047.8</ele><time>2026-05-01T10:31:04.792Z</time></trkpt><trkpt lat="42.7318174" lon="13.547507"><ele>1051.0</ele><time>2026-05-01T10:31:05.791Z</time></trkpt><trkpt lat="42.7318105" lon="13.5476094"><ele>1051.0</ele><time>2026-05-01T10:31:06.792Z</time></trkpt><trkpt lat="42.7318045" lon="13.5477196"><ele>1051.0</ele><time>2026-05-01T10:31:07.792Z</time></trkpt><trkpt lat="42.7318016" lon="13.5478331"><ele>1051.0</ele><time>2026-05-01T10:31:08.791Z</time></trkpt><trkpt lat="42.7317972" lon="13.5479618"><ele>1051.0</ele><time>2026-05-01T10:31:09.793Z</time></trkpt><trkpt lat="42.7317907" lon="13.5480676"><ele>1051.0</ele><time>2026-05-01T10:31:10.793Z</time></trkpt><trkpt lat="42.7317962" lon="13.5482494"><ele>1049.25</ele><time>2026-05-01T10:31:12.791Z</time></trkpt><trkpt lat="42.7318019" lon="13.5483351"><ele>1047.5</ele><time>2026-05-01T10:31:13.791Z</time></trkpt><trkpt lat="42.7318466" lon="13.5484633"><ele>1045.75</ele><time>2026-05-01T10:31:15.793Z</time></trkpt><trkpt lat="42.7320376" lon="13.5483904"><ele>1044.0</ele><time>2026-05-01T10:31:16.791Z</time></trkpt><trkpt lat="42.7321253" lon="13.5483926"><ele>1044.0</ele><time>2026-05-01T10:31:17.792Z</time></trkpt><trkpt lat="42.7322039" lon="13.5484442"><ele>1044.0</ele><time>2026-05-01T10:31:18.791Z</time></trkpt><trkpt lat="42.7322889" lon="13.5485122"><ele>1044.0</ele><time>2026-05-01T10:31:19.792Z</time></trkpt><trkpt lat="42.7323764" lon="13.548581"><ele>1044.0</ele><time>2026-05-01T10:31:20.793Z</time></trkpt><trkpt lat="42.7324673" lon="13.548707"><ele>1044.0</ele><time>2026-05-01T10:31:21.791Z</time></trkpt><trkpt lat="42.7325529" lon="13.5488124"><ele>1045.0</ele><time>2026-05-01T10:31:22.793Z</time></trkpt><trkpt lat="42.7326456" lon="13.5489341"><ele>1046.0</ele><time>2026-05-01T10:31:23.792Z</time></trkpt><trkpt lat="42.7327506" lon="13.549026"><ele>1047.0</ele><time>2026-05-01T10:31:24.792Z</time></trkpt><trkpt lat="42.7328814" lon="13.5491321"><ele>1048.0</ele><time>2026-05-01T10:31:25.792Z</time></trkpt><trkpt lat="42.7329977" lon="13.5492116"><ele>1048.0</ele><time>2026-05-01T10:31:26.792Z</time></trkpt><trkpt lat="42.7331191" lon="13.5492944"><ele>1048.0</ele><time>2026-05-01T10:31:27.792Z</time></trkpt><trkpt lat="42.7332325" lon="13.5493614"><ele>1048.0</ele><time>2026-05-01T10:31:28.792Z</time></trkpt><trkpt lat="42.7333407" lon="13.5494563"><ele>1048.0</ele><time>2026-05-01T10:31:29.793Z</time></trkpt><trkpt lat="42.7334365" lon="13.549545"><ele>1050.4</ele><time>2026-05-01T10:31:30.793Z</time></trkpt><trkpt lat="42.7335186" lon="13.5496455"><ele>1052.8</ele><time>2026-05-01T10:31:31.792Z</time></trkpt><trkpt lat="42.7336019" lon="13.5497314"><ele>1055.2</ele><time>2026-05-01T10:31:32.792Z</time></trkpt><trkpt lat="42.733685" lon="13.5497964"><ele>1057.6</ele><time>2026-05-01T10:31:33.793Z</time></trkpt><trkpt lat="42.7337687" lon="13.5498377"><ele>1060.0</ele><time>2026-05-01T10:31:34.791Z</time></trkpt><trkpt lat="42.7338576" lon="13.54987"><ele>1060.0</ele><time>2026-05-01T10:31:35.792Z</time></trkpt><trkpt lat="42.7339451" lon="13.5498946"><ele>1060.0</ele><time>2026-05-01T10:31:36.792Z</time></trkpt><trkpt lat="42.7340107" lon="13.549927"><ele>1060.0</ele><time>2026-05-01T10:31:37.792Z</time></trkpt><trkpt lat="42.7340691" lon="13.5499848"><ele>1060.0</ele><time>2026-05-01T10:31:38.792Z</time></trkpt><trkpt lat="42.7341048" lon="13.55007"><ele>1060.0</ele><time>2026-05-01T10:31:39.792Z</time></trkpt><trkpt lat="42.7341286" lon="13.5501873"><ele>1060.0</ele><time>2026-05-01T10:31:40.791Z</time></trkpt><trkpt lat="42.7341581" lon="13.5503053"><ele>1060.2</ele><time>2026-05-01T10:31:41.792Z</time></trkpt><trkpt lat="42.734205" lon="13.5504099"><ele>1060.4</ele><time>2026-05-01T10:31:42.791Z</time></trkpt><trkpt lat="42.7342698" lon="13.5505012"><ele>1060.6</ele><time>2026-05-01T10:31:43.793Z</time></trkpt><trkpt lat="42.7343666" lon="13.5506132"><ele>1060.8</ele><time>2026-05-01T10:31:44.791Z</time></trkpt><trkpt lat="42.7344575" lon="13.550693"><ele>1061.0</ele><time>2026-05-01T10:31:45.792Z</time></trkpt><trkpt lat="42.7345469" lon="13.5507296"><ele>1061.0</ele><time>2026-05-01T10:31:46.791Z</time></trkpt><trkpt lat="42.7346233" lon="13.5508206"><ele>1061.0</ele><time>2026-05-01T10:31:47.793Z</time></trkpt><trkpt lat="42.7346944" lon="13.5509182"><ele>1061.0</ele><time>2026-05-01T10:31:48.791Z</time></trkpt><trkpt lat="42.7347308" lon="13.5510658"><ele>1061.0</ele><time>2026-05-01T10:31:49.791Z</time></trkpt><trkpt lat="42.734775" lon="13.5512018"><ele>1061.0</ele><time>2026-05-01T10:31:50.793Z</time></trkpt><trkpt lat="42.7348176" lon="13.5513437"><ele>1065.0</ele><time>2026-05-01T10:31:51.792Z</time></trkpt><trkpt lat="42.7348472" lon="13.5514493"><ele>1069.0</ele><time>2026-05-01T10:31:52.792Z</time></trkpt><trkpt lat="42.7349118" lon="13.55151"><ele>1073.0</ele><time>2026-05-01T10:31:53.793Z</time></trkpt><trkpt lat="42.7349632" lon="13.5515744"><ele>1077.0</ele><time>2026-05-01T10:31:54.793Z</time></trkpt><trkpt lat="42.7350381" lon="13.5515944"><ele>1081.0</ele><time>2026-05-01T10:31:55.793Z</time></trkpt><trkpt lat="42.735132" lon="13.5515109"><ele>1085.0</ele><time>2026-05-01T10:31:56.793Z</time></trkpt><trkpt lat="42.7352189" lon="13.5514765"><ele>1084.0</ele><time>2026-05-01T10:31:57.791Z</time></trkpt><trkpt lat="42.735311" lon="13.5514175"><ele>1083.0</ele><time>2026-05-01T10:31:58.791Z</time></trkpt><trkpt lat="42.7354062" lon="13.5513557"><ele>1082.0</ele><time>2026-05-01T10:31:59.792Z</time></trkpt><trkpt lat="42.7354869" lon="13.5512707"><ele>1081.0</ele><time>2026-05-01T10:32:00.792Z</time></trkpt><trkpt lat="42.7355596" lon="13.5511834"><ele>1080.0</ele><time>2026-05-01T10:32:01.792Z</time></trkpt><trkpt lat="42.7356352" lon="13.5511175"><ele>1080.0</ele><time>2026-05-01T10:32:02.792Z</time></trkpt><trkpt lat="42.7357162" lon="13.5510861"><ele>1080.0</ele><time>2026-05-01T10:32:03.792Z</time></trkpt><trkpt lat="42.735801" lon="13.5510931"><ele>1080.0</ele><time>2026-05-01T10:32:04.793Z</time></trkpt><trkpt lat="42.7358692" lon="13.5511367"><ele>1080.0</ele><time>2026-05-01T10:32:05.793Z</time></trkpt><trkpt lat="42.7359334" lon="13.5512237"><ele>1080.0</ele><time>2026-05-01T10:32:06.792Z</time></trkpt><trkpt lat="42.7359756" lon="13.5513444"><ele>1080.0</ele><time>2026-05-01T10:32:07.792Z</time></trkpt><trkpt lat="42.7360076" lon="13.5514796"><ele>1080.0</ele><time>2026-05-01T10:32:08.793Z</time></trkpt><trkpt lat="42.7360362" lon="13.5516198"><ele>1080.0</ele><time>2026-05-01T10:32:09.793Z</time></trkpt><trkpt lat="42.7360565" lon="13.5517595"><ele>1080.0</ele><time>2026-05-01T10:32:10.793Z</time></trkpt><trkpt lat="42.7360719" lon="13.5518962"><ele>1080.0</ele><time>2026-05-01T10:32:11.792Z</time></trkpt><trkpt lat="42.7360951" lon="13.5520258"><ele>1080.0</ele><time>2026-05-01T10:32:12.793Z</time></trkpt><trkpt lat="42.7361297" lon="13.5521459"><ele>1076.6</ele><time>2026-05-01T10:32:13.792Z</time></trkpt><trkpt lat="42.7361708" lon="13.5522604"><ele>1073.2</ele><time>2026-05-01T10:32:14.791Z</time></trkpt><trkpt lat="42.73623" lon="13.5523621"><ele>1069.8</ele><time>2026-05-01T10:32:15.792Z</time></trkpt><trkpt lat="42.736306" lon="13.5524558"><ele>1066.4</ele><time>2026-05-01T10:32:16.792Z</time></trkpt><trkpt lat="42.7363837" lon="13.5525424"><ele>1063.0</ele><time>2026-05-01T10:32:17.792Z</time></trkpt><trkpt lat="42.7365122" lon="13.5526338"><ele>1063.0</ele><time>2026-05-01T10:32:18.792Z</time></trkpt><trkpt lat="42.7366023" lon="13.5526856"><ele>1063.0</ele><time>2026-05-01T10:32:19.792Z</time></trkpt><trkpt lat="42.7367025" lon="13.5527413"><ele>1063.0</ele><time>2026-05-01T10:32:20.792Z</time></trkpt><trkpt lat="42.7368058" lon="13.5527703"><ele>1063.0</ele><time>2026-05-01T10:32:21.79Z</time></trkpt><trkpt lat="42.7369362" lon="13.5527995"><ele>1063.0</ele><time>2026-05-01T10:32:22.79Z</time></trkpt><trkpt lat="42.7370716" lon="13.5528164"><ele>1060.0</ele><time>2026-05-01T10:32:23.792Z</time></trkpt><trkpt lat="42.7371961" lon="13.5528223"><ele>1057.0</ele><time>2026-05-01T10:32:24.791Z</time></trkpt><trkpt lat="42.7373237" lon="13.5528254"><ele>1054.0</ele><time>2026-05-01T10:32:25.792Z</time></trkpt><trkpt lat="42.737435" lon="13.5528327"><ele>1051.0</ele><time>2026-05-01T10:32:26.791Z</time></trkpt><trkpt lat="42.7375317" lon="13.5528516"><ele>1050.3999999999999</ele><time>2026-05-01T10:32:27.79Z</time></trkpt><trkpt lat="42.7376119" lon="13.5528939"><ele>1049.8</ele><time>2026-05-01T10:32:28.791Z</time></trkpt><trkpt lat="42.7376786" lon="13.5529808"><ele>1049.1999999999998</ele><time>2026-05-01T10:32:29.79Z</time></trkpt><trkpt lat="42.7377275" lon="13.5530973"><ele>1048.6</ele><time>2026-05-01T10:32:30.79Z</time></trkpt><trkpt lat="42.7377787" lon="13.5532226"><ele>1048.0</ele><time>2026-05-01T10:32:31.792Z</time></trkpt><trkpt lat="42.737829" lon="13.5533452"><ele>1048.0</ele><time>2026-05-01T10:32:32.791Z</time></trkpt><trkpt lat="42.7378745" lon="13.553456"><ele>1048.0</ele><time>2026-05-01T10:32:33.79Z</time></trkpt><trkpt lat="42.7379146" lon="13.5535594"><ele>1048.0</ele><time>2026-05-01T10:32:34.791Z</time></trkpt><trkpt lat="42.7379392" lon="13.5536469"><ele>1048.0</ele><time>2026-05-01T10:32:35.791Z</time></trkpt><trkpt lat="42.7379777" lon="13.5537738"><ele>1048.0</ele><time>2026-05-01T10:32:37.791Z</time></trkpt><trkpt lat="42.7379887" lon="13.5538596"><ele>1048.0</ele><time>2026-05-01T10:32:39.791Z</time></trkpt><trkpt lat="42.7379795" lon="13.5539491"><ele>1051.0</ele><time>2026-05-01T10:33:03.791Z</time></trkpt><trkpt lat="42.737924" lon="13.5540047"><ele>1054.0</ele><time>2026-05-01T10:33:05.79Z</time></trkpt><trkpt lat="42.7378628" lon="13.5540656"><ele>1057.0</ele><time>2026-05-01T10:33:08.791Z</time></trkpt><trkpt lat="42.7378263" lon="13.5541581"><ele>1060.0</ele><time>2026-05-01T10:33:44.791Z</time></trkpt><trkpt lat="42.7377254" lon="13.5542484"><ele>1063.0</ele><time>2026-05-01T10:33:46.79Z</time></trkpt><trkpt lat="42.7376671" lon="13.5543071"><ele>1066.0</ele><time>2026-05-01T10:33:47.792Z</time></trkpt><trkpt lat="42.7376032" lon="13.5543846"><ele>1067.8</ele><time>2026-05-01T10:33:48.791Z</time></trkpt><trkpt lat="42.7375371" lon="13.5544684"><ele>1069.6</ele><time>2026-05-01T10:33:49.791Z</time></trkpt><trkpt lat="42.7374731" lon="13.5545602"><ele>1071.4</ele><time>2026-05-01T10:33:50.792Z</time></trkpt><trkpt lat="42.7374108" lon="13.5546515"><ele>1073.2</ele><time>2026-05-01T10:33:51.791Z</time></trkpt><trkpt lat="42.7373427" lon="13.5547388"><ele>1075.0</ele><time>2026-05-01T10:33:52.791Z</time></trkpt><trkpt lat="42.7372724" lon="13.5548229"><ele>1075.0</ele><time>2026-05-01T10:33:53.791Z</time></trkpt><trkpt lat="42.7372043" lon="13.5549107"><ele>1075.0</ele><time>2026-05-01T10:33:54.79Z</time></trkpt><trkpt lat="42.737137" lon="13.554998"><ele>1075.0</ele><time>2026-05-01T10:33:55.791Z</time></trkpt><trkpt lat="42.7370716" lon="13.5550874"><ele>1075.0</ele><time>2026-05-01T10:33:56.791Z</time></trkpt><trkpt lat="42.7370032" lon="13.5551722"><ele>1075.0</ele><time>2026-05-01T10:33:57.791Z</time></trkpt><trkpt lat="42.7369372" lon="13.555252"><ele>1074.75</ele><time>2026-05-01T10:33:58.791Z</time></trkpt><trkpt lat="42.736816" lon="13.5553985"><ele>1074.5</ele><time>2026-05-01T10:34:00.791Z</time></trkpt><trkpt lat="42.7367462" lon="13.5554783"><ele>1074.25</ele><time>2026-05-01T10:34:01.792Z</time></trkpt><trkpt lat="42.7366731" lon="13.5555689"><ele>1074.0</ele><time>2026-05-01T10:34:02.79Z</time></trkpt><trkpt lat="42.7366022" lon="13.5556632"><ele>1074.0</ele><time>2026-05-01T10:34:03.792Z</time></trkpt><trkpt lat="42.7365346" lon="13.5557571"><ele>1074.0</ele><time>2026-05-01T10:34:04.79Z</time></trkpt><trkpt lat="42.7364716" lon="13.5558488"><ele>1074.0</ele><time>2026-05-01T10:34:05.792Z</time></trkpt><trkpt lat="42.736415" lon="13.5559475"><ele>1074.0</ele><time>2026-05-01T10:34:06.792Z</time></trkpt><trkpt lat="42.7363672" lon="13.556052"><ele>1074.0</ele><time>2026-05-01T10:34:07.79Z</time></trkpt><trkpt lat="42.7363312" lon="13.5561666"><ele>1075.0</ele><time>2026-05-01T10:34:08.791Z</time></trkpt><trkpt lat="42.7363133" lon="13.5563138"><ele>1076.0</ele><time>2026-05-01T10:34:09.792Z</time></trkpt><trkpt lat="42.7363151" lon="13.5564907"><ele>1077.0</ele><time>2026-05-01T10:34:10.792Z</time></trkpt><trkpt lat="42.7363353" lon="13.5566744"><ele>1078.0</ele><time>2026-05-01T10:34:11.791Z</time></trkpt><trkpt lat="42.7363665" lon="13.5568667"><ele>1078.5</ele><time>2026-05-01T10:34:12.791Z</time></trkpt><trkpt lat="42.7363956" lon="13.5570484"><ele>1079.0</ele><time>2026-05-01T10:34:13.791Z</time></trkpt><trkpt lat="42.7364382" lon="13.5572331"><ele>1079.5</ele><time>2026-05-01T10:34:14.791Z</time></trkpt><trkpt lat="42.7364968" lon="13.5574127"><ele>1080.0</ele><time>2026-05-01T10:34:15.791Z</time></trkpt><trkpt lat="42.7365662" lon="13.5575836"><ele>1080.0</ele><time>2026-05-01T10:34:16.79Z</time></trkpt><trkpt lat="42.7366336" lon="13.5577406"><ele>1080.0</ele><time>2026-05-01T10:34:17.79Z</time></trkpt><trkpt lat="42.7366987" lon="13.5578876"><ele>1080.0</ele><time>2026-05-01T10:34:18.791Z</time></trkpt><trkpt lat="42.7367601" lon="13.5580261"><ele>1080.0</ele><time>2026-05-01T10:34:19.791Z</time></trkpt><trkpt lat="42.7368196" lon="13.5581579"><ele>1082.2</ele><time>2026-05-01T10:34:20.79Z</time></trkpt><trkpt lat="42.7368761" lon="13.5582973"><ele>1084.4</ele><time>2026-05-01T10:34:21.792Z</time></trkpt><trkpt lat="42.7369213" lon="13.5584414"><ele>1086.6</ele><time>2026-05-01T10:34:22.791Z</time></trkpt><trkpt lat="42.7369514" lon="13.5585901"><ele>1088.8</ele><time>2026-05-01T10:34:23.792Z</time></trkpt><trkpt lat="42.7369678" lon="13.55873"><ele>1091.0</ele><time>2026-05-01T10:34:24.791Z</time></trkpt><trkpt lat="42.7369742" lon="13.5588577"><ele>1091.0</ele><time>2026-05-01T10:34:25.79Z</time></trkpt><trkpt lat="42.736986" lon="13.5589843"><ele>1091.0</ele><time>2026-05-01T10:34:26.79Z</time></trkpt><trkpt lat="42.7369977" lon="13.559099"><ele>1091.0</ele><time>2026-05-01T10:34:27.79Z</time></trkpt><trkpt lat="42.7370085" lon="13.5591872"><ele>1091.0</ele><time>2026-05-01T10:34:28.792Z</time></trkpt><trkpt lat="42.7370078" lon="13.5592927"><ele>1091.0</ele><time>2026-05-01T10:34:30.791Z</time></trkpt><trkpt lat="42.7369955" lon="13.5593775"><ele>1091.0</ele><time>2026-05-01T10:34:53.791Z</time></trkpt><trkpt lat="42.7369164" lon="13.5594064"><ele>1082.0</ele><time>2026-05-01T10:34:55.791Z</time></trkpt><trkpt lat="42.736849" lon="13.5593032"><ele>1073.0</ele><time>2026-05-01T10:34:57.79Z</time></trkpt><trkpt lat="42.7368244" lon="13.5592103"><ele>1064.0</ele><time>2026-05-01T10:34:58.792Z</time></trkpt><trkpt lat="42.7368135" lon="13.5590979"><ele>1055.0</ele><time>2026-05-01T10:34:59.791Z</time></trkpt><trkpt lat="42.7368097" lon="13.5589748"><ele>1046.0</ele><time>2026-05-01T10:35:00.791Z</time></trkpt><trkpt lat="42.7368016" lon="13.5588526"><ele>1037.0</ele><time>2026-05-01T10:35:01.791Z</time></trkpt><trkpt lat="42.736797" lon="13.5587315"><ele>1040.0</ele><time>2026-05-01T10:35:02.792Z</time></trkpt><trkpt lat="42.7367834" lon="13.5586187"><ele>1043.0</ele><time>2026-05-01T10:35:03.791Z</time></trkpt><trkpt lat="42.7367502" lon="13.5585053"><ele>1046.0</ele><time>2026-05-01T10:35:04.792Z</time></trkpt><trkpt lat="42.7367061" lon="13.5583909"><ele>1049.0</ele><time>2026-05-01T10:35:05.792Z</time></trkpt><trkpt lat="42.7366517" lon="13.5582725"><ele>1052.0</ele><time>2026-05-01T10:35:06.792Z</time></trkpt><trkpt lat="42.7365924" lon="13.5581613"><ele>1052.0</ele><time>2026-05-01T10:35:07.791Z</time></trkpt><trkpt lat="42.7365293" lon="13.5580581"><ele>1052.0</ele><time>2026-05-01T10:35:08.791Z</time></trkpt><trkpt lat="42.7364703" lon="13.5579621"><ele>1052.0</ele><time>2026-05-01T10:35:09.792Z</time></trkpt><trkpt lat="42.7364198" lon="13.5578761"><ele>1052.0</ele><time>2026-05-01T10:35:10.792Z</time></trkpt><trkpt lat="42.7363693" lon="13.5578027"><ele>1052.0</ele><time>2026-05-01T10:35:11.791Z</time></trkpt><trkpt lat="42.7363096" lon="13.5577542"><ele>1052.0</ele><time>2026-05-01T10:35:12.792Z</time></trkpt><trkpt lat="42.7362463" lon="13.5577293"><ele>1054.0</ele><time>2026-05-01T10:35:13.792Z</time></trkpt><trkpt lat="42.7361226" lon="13.5577645"><ele>1056.0</ele><time>2026-05-01T10:35:15.792Z</time></trkpt><trkpt lat="42.7360523" lon="13.5578322"><ele>1058.0</ele><time>2026-05-01T10:35:16.791Z</time></trkpt><trkpt lat="42.7359872" lon="13.5578992"><ele>1060.0</ele><time>2026-05-01T10:35:17.792Z</time></trkpt><trkpt lat="42.735922" lon="13.5579605"><ele>1062.0</ele><time>2026-05-01T10:35:18.792Z</time></trkpt><trkpt lat="42.7358486" lon="13.5580029"><ele>1054.8</ele><time>2026-05-01T10:35:19.791Z</time></trkpt><trkpt lat="42.735771" lon="13.5580331"><ele>1047.6</ele><time>2026-05-01T10:35:20.792Z</time></trkpt><trkpt lat="42.7356908" lon="13.5580414"><ele>1040.3999999999999</ele><time>2026-05-01T10:35:21.792Z</time></trkpt><trkpt lat="42.735597" lon="13.5580256"><ele>1033.2</ele><time>2026-05-01T10:35:22.792Z</time></trkpt><trkpt lat="42.7354999" lon="13.5579914"><ele>1026.0</ele><time>2026-05-01T10:35:23.792Z</time></trkpt><trkpt lat="42.735409" lon="13.5579461"><ele>1026.0</ele><time>2026-05-01T10:35:24.792Z</time></trkpt><trkpt lat="42.7353181" lon="13.557904"><ele>1026.0</ele><time>2026-05-01T10:35:25.792Z</time></trkpt><trkpt lat="42.7352192" lon="13.5578534"><ele>1026.0</ele><time>2026-05-01T10:35:26.791Z</time></trkpt><trkpt lat="42.7351289" lon="13.5577964"><ele>1026.0</ele><time>2026-05-01T10:35:27.791Z</time></trkpt><trkpt lat="42.7350345" lon="13.5577321"><ele>1026.0</ele><time>2026-05-01T10:35:28.79Z</time></trkpt><trkpt lat="42.7349475" lon="13.5576594"><ele>1031.25</ele><time>2026-05-01T10:35:29.79Z</time></trkpt><trkpt lat="42.734859" lon="13.557573"><ele>1036.5</ele><time>2026-05-01T10:35:30.791Z</time></trkpt><trkpt lat="42.7347624" lon="13.5574849"><ele>1041.75</ele><time>2026-05-01T10:35:31.791Z</time></trkpt><trkpt lat="42.7346563" lon="13.5574058"><ele>1047.0</ele><time>2026-05-01T10:35:32.791Z</time></trkpt><trkpt lat="42.7345491" lon="13.5573364"><ele>1047.0</ele><time>2026-05-01T10:35:33.79Z</time></trkpt><trkpt lat="42.7344399" lon="13.5572659"><ele>1047.0</ele><time>2026-05-01T10:35:34.789Z</time></trkpt><trkpt lat="42.7343334" lon="13.5572055"><ele>1047.0</ele><time>2026-05-01T10:35:35.789Z</time></trkpt><trkpt lat="42.7342294" lon="13.5571353"><ele>1047.0</ele><time>2026-05-01T10:35:36.79Z</time></trkpt><trkpt lat="42.734127" lon="13.5570641"><ele>1048.0</ele><time>2026-05-01T10:35:37.79Z</time></trkpt><trkpt lat="42.7340261" lon="13.5569922"><ele>1049.0</ele><time>2026-05-01T10:35:38.791Z</time></trkpt><trkpt lat="42.7339149" lon="13.5569375"><ele>1050.0</ele><time>2026-05-01T10:35:39.791Z</time></trkpt><trkpt lat="42.7337958" lon="13.556894"><ele>1051.0</ele><time>2026-05-01T10:35:40.791Z</time></trkpt><trkpt lat="42.7336744" lon="13.5568631"><ele>1051.0</ele><time>2026-05-01T10:35:41.79Z</time></trkpt><trkpt lat="42.733557" lon="13.5568386"><ele>1051.0</ele><time>2026-05-01T10:35:42.79Z</time></trkpt><trkpt lat="42.7334409" lon="13.5568054"><ele>1051.0</ele><time>2026-05-01T10:35:43.79Z</time></trkpt><trkpt lat="42.7333262" lon="13.556778"><ele>1051.0</ele><time>2026-05-01T10:35:44.79Z</time></trkpt><trkpt lat="42.7332126" lon="13.5567595"><ele>1046.6</ele><time>2026-05-01T10:35:45.79Z</time></trkpt><trkpt lat="42.7331031" lon="13.5567323"><ele>1042.1999999999998</ele><time>2026-05-01T10:35:46.79Z</time></trkpt><trkpt lat="42.7330025" lon="13.5567066"><ele>1037.8000000000002</ele><time>2026-05-01T10:35:47.79Z</time></trkpt><trkpt lat="42.7329157" lon="13.5566744"><ele>1033.4</ele><time>2026-05-01T10:35:48.79Z</time></trkpt><trkpt lat="42.7328297" lon="13.5566444"><ele>1029.0</ele><time>2026-05-01T10:35:49.789Z</time></trkpt><trkpt lat="42.7327473" lon="13.5566358"><ele>1026.6666666666667</ele><time>2026-05-01T10:35:50.79Z</time></trkpt><trkpt lat="42.7326696" lon="13.5566487"><ele>1024.3333333333333</ele><time>2026-05-01T10:35:51.79Z</time></trkpt><trkpt lat="42.7325877" lon="13.5566842"><ele>1022.0</ele><time>2026-05-01T10:35:52.789Z</time></trkpt><trkpt lat="42.732509" lon="13.5567293"><ele>1019.6666666666666</ele><time>2026-05-01T10:35:53.789Z</time></trkpt><trkpt lat="42.7324419" lon="13.556772"><ele>1017.3333333333333</ele><time>2026-05-01T10:35:54.789Z</time></trkpt><trkpt lat="42.7323689" lon="13.5569075"><ele>1015.0</ele><time>2026-05-01T10:35:56.79Z</time></trkpt><trkpt lat="42.7323629" lon="13.5569971"><ele>1015.3333333333333</ele><time>2026-05-01T10:35:57.79Z</time></trkpt><trkpt lat="42.7323837" lon="13.5570815"><ele>1015.6666666666666</ele><time>2026-05-01T10:35:58.791Z</time></trkpt><trkpt lat="42.7324269" lon="13.5571673"><ele>1016.0</ele><time>2026-05-01T10:35:59.791Z</time></trkpt><trkpt lat="42.7324876" lon="13.5572537"><ele>1016.3333333333333</ele><time>2026-05-01T10:36:00.791Z</time></trkpt><trkpt lat="42.7325477" lon="13.5573262"><ele>1016.6666666666666</ele><time>2026-05-01T10:36:01.791Z</time></trkpt><trkpt lat="42.732669" lon="13.5574123"><ele>1017.0</ele><time>2026-05-01T10:36:02.79Z</time></trkpt><trkpt lat="42.7327423" lon="13.5575259"><ele>1013.75</ele><time>2026-05-01T10:36:03.791Z</time></trkpt><trkpt lat="42.732803" lon="13.55764"><ele>1010.5</ele><time>2026-05-01T10:36:04.79Z</time></trkpt><trkpt lat="42.7328521" lon="13.5577646"><ele>1007.25</ele><time>2026-05-01T10:36:05.789Z</time></trkpt><trkpt lat="42.7328785" lon="13.5579246"><ele>1004.0</ele><time>2026-05-01T10:36:06.79Z</time></trkpt><trkpt lat="42.7328999" lon="13.5580916"><ele>1004.0</ele><time>2026-05-01T10:36:07.789Z</time></trkpt><trkpt lat="42.7329392" lon="13.5582471"><ele>1004.0</ele><time>2026-05-01T10:36:08.79Z</time></trkpt><trkpt lat="42.73302" lon="13.5584108"><ele>1004.0</ele><time>2026-05-01T10:36:09.789Z</time></trkpt><trkpt lat="42.733097" lon="13.5585601"><ele>1004.0</ele><time>2026-05-01T10:36:10.79Z</time></trkpt><trkpt lat="42.7331962" lon="13.5586964"><ele>1008.75</ele><time>2026-05-01T10:36:11.791Z</time></trkpt><trkpt lat="42.7332775" lon="13.5588254"><ele>1013.5</ele><time>2026-05-01T10:36:12.789Z</time></trkpt><trkpt lat="42.7333385" lon="13.558952"><ele>1018.25</ele><time>2026-05-01T10:36:13.791Z</time></trkpt><trkpt lat="42.7333899" lon="13.5590936"><ele>1023.0</ele><time>2026-05-01T10:36:14.789Z</time></trkpt><trkpt lat="42.7334268" lon="13.5592348"><ele>1023.0</ele><time>2026-05-01T10:36:15.789Z</time></trkpt><trkpt lat="42.7334646" lon="13.5593869"><ele>1023.0</ele><time>2026-05-01T10:36:16.789Z</time></trkpt><trkpt lat="42.7335105" lon="13.5595467"><ele>1023.0</ele><time>2026-05-01T10:36:17.791Z</time></trkpt><trkpt lat="42.7335532" lon="13.5596915"><ele>1023.0</ele><time>2026-05-01T10:36:18.79Z</time></trkpt><trkpt lat="42.7335859" lon="13.5598361"><ele>1020.0</ele><time>2026-05-01T10:36:19.79Z</time></trkpt><trkpt lat="42.733602" lon="13.5599778"><ele>1017.0</ele><time>2026-05-01T10:36:20.791Z</time></trkpt><trkpt lat="42.7335976" lon="13.5601231"><ele>1014.0</ele><time>2026-05-01T10:36:21.79Z</time></trkpt><trkpt lat="42.7335716" lon="13.5602695"><ele>1011.0</ele><time>2026-05-01T10:36:22.791Z</time></trkpt><trkpt lat="42.7335401" lon="13.5604293"><ele>1008.0</ele><time>2026-05-01T10:36:23.791Z</time></trkpt><trkpt lat="42.7335204" lon="13.5605836"><ele>1010.2</ele><time>2026-05-01T10:36:24.79Z</time></trkpt><trkpt lat="42.7335132" lon="13.5607375"><ele>1012.4</ele><time>2026-05-01T10:36:25.789Z</time></trkpt><trkpt lat="42.7335211" lon="13.56089"><ele>1014.6000000000001</ele><time>2026-05-01T10:36:26.789Z</time></trkpt><trkpt lat="42.7335529" lon="13.561032"><ele>1016.8000000000001</ele><time>2026-05-01T10:36:27.79Z</time></trkpt><trkpt lat="42.7335886" lon="13.5611743"><ele>1019.0</ele><time>2026-05-01T10:36:28.789Z</time></trkpt><trkpt lat="42.7336377" lon="13.5613038"><ele>1021.75</ele><time>2026-05-01T10:36:29.789Z</time></trkpt><trkpt lat="42.7337052" lon="13.5614252"><ele>1024.5</ele><time>2026-05-01T10:36:30.789Z</time></trkpt><trkpt lat="42.7337876" lon="13.5615362"><ele>1027.25</ele><time>2026-05-01T10:36:31.79Z</time></trkpt><trkpt lat="42.7338907" lon="13.5616365"><ele>1030.0</ele><time>2026-05-01T10:36:32.79Z</time></trkpt><trkpt lat="42.7340102" lon="13.56173"><ele>1030.0</ele><time>2026-05-01T10:36:33.789Z</time></trkpt><trkpt lat="42.7341214" lon="13.5618297"><ele>1030.0</ele><time>2026-05-01T10:36:34.789Z</time></trkpt><trkpt lat="42.7342288" lon="13.5619375"><ele>1030.0</ele><time>2026-05-01T10:36:35.791Z</time></trkpt><trkpt lat="42.7343251" lon="13.5620606"><ele>1030.0</ele><time>2026-05-01T10:36:36.791Z</time></trkpt><trkpt lat="42.7344158" lon="13.5621858"><ele>1026.4</ele><time>2026-05-01T10:36:37.79Z</time></trkpt><trkpt lat="42.7344875" lon="13.562304"><ele>1022.8</ele><time>2026-05-01T10:36:38.79Z</time></trkpt><trkpt lat="42.7345483" lon="13.5624206"><ele>1019.2</ele><time>2026-05-01T10:36:39.791Z</time></trkpt><trkpt lat="42.7345905" lon="13.5625355"><ele>1015.6</ele><time>2026-05-01T10:36:40.791Z</time></trkpt><trkpt lat="42.7346261" lon="13.5626594"><ele>1012.0</ele><time>2026-05-01T10:36:41.79Z</time></trkpt><trkpt lat="42.7346324" lon="13.5628044"><ele>1014.0</ele><time>2026-05-01T10:36:42.79Z</time></trkpt><trkpt lat="42.7346542" lon="13.5629515"><ele>1016.0</ele><time>2026-05-01T10:36:43.79Z</time></trkpt><trkpt lat="42.7346738" lon="13.5631268"><ele>1018.0</ele><time>2026-05-01T10:36:44.79Z</time></trkpt><trkpt lat="42.7346988" lon="13.5632994"><ele>1020.0</ele><time>2026-05-01T10:36:45.79Z</time></trkpt><trkpt lat="42.7347159" lon="13.5634533"><ele>1020.0</ele><time>2026-05-01T10:36:46.79Z</time></trkpt><trkpt lat="42.7347301" lon="13.5635984"><ele>1020.0</ele><time>2026-05-01T10:36:47.79Z</time></trkpt><trkpt lat="42.734735" lon="13.563733"><ele>1020.0</ele><time>2026-05-01T10:36:48.79Z</time></trkpt><trkpt lat="42.7347291" lon="13.5638598"><ele>1020.0</ele><time>2026-05-01T10:36:49.791Z</time></trkpt><trkpt lat="42.7346951" lon="13.563977"><ele>1020.0</ele><time>2026-05-01T10:36:50.79Z</time></trkpt><trkpt lat="42.7346392" lon="13.5640941"><ele>1021.2</ele><time>2026-05-01T10:36:51.791Z</time></trkpt><trkpt lat="42.7345836" lon="13.5642068"><ele>1022.4</ele><time>2026-05-01T10:36:52.791Z</time></trkpt><trkpt lat="42.7345481" lon="13.5643098"><ele>1023.5999999999999</ele><time>2026-05-01T10:36:53.791Z</time></trkpt><trkpt lat="42.7345401" lon="13.5644187"><ele>1024.8</ele><time>2026-05-01T10:36:54.789Z</time></trkpt><trkpt lat="42.7345498" lon="13.5645138"><ele>1026.0</ele><time>2026-05-01T10:36:55.79Z</time></trkpt><trkpt lat="42.7346852" lon="13.564677"><ele>1028.3999999999999</ele><time>2026-05-01T10:36:57.79Z</time></trkpt><trkpt lat="42.7347445" lon="13.5647681"><ele>1030.8</ele><time>2026-05-01T10:36:58.789Z</time></trkpt><trkpt lat="42.7347975" lon="13.5648823"><ele>1033.1999999999998</ele><time>2026-05-01T10:36:59.789Z</time></trkpt><trkpt lat="42.7348182" lon="13.565011"><ele>1035.6</ele><time>2026-05-01T10:37:00.791Z</time></trkpt><trkpt lat="42.7348124" lon="13.5651553"><ele>1038.0</ele><time>2026-05-01T10:37:01.79Z</time></trkpt><trkpt lat="42.7348041" lon="13.5653134"><ele>1040.0</ele><time>2026-05-01T10:37:02.79Z</time></trkpt><trkpt lat="42.7348095" lon="13.5654847"><ele>1042.0</ele><time>2026-05-01T10:37:03.791Z</time></trkpt><trkpt lat="42.7348197" lon="13.5656608"><ele>1044.0</ele><time>2026-05-01T10:37:04.789Z</time></trkpt><trkpt lat="42.7348293" lon="13.5658527"><ele>1046.0</ele><time>2026-05-01T10:37:05.789Z</time></trkpt><trkpt lat="42.7348481" lon="13.566042"><ele>1047.0</ele><time>2026-05-01T10:37:06.789Z</time></trkpt><trkpt lat="42.7348704" lon="13.5662302"><ele>1048.0</ele><time>2026-05-01T10:37:07.79Z</time></trkpt><trkpt lat="42.7348949" lon="13.5664076"><ele>1049.0</ele><time>2026-05-01T10:37:08.79Z</time></trkpt><trkpt lat="42.7349222" lon="13.56658"><ele>1050.0</ele><time>2026-05-01T10:37:09.791Z</time></trkpt><trkpt lat="42.7349459" lon="13.5667508"><ele>1050.0</ele><time>2026-05-01T10:37:10.791Z</time></trkpt><trkpt lat="42.7349483" lon="13.5669332"><ele>1050.0</ele><time>2026-05-01T10:37:11.79Z</time></trkpt><trkpt lat="42.734945" lon="13.5671233"><ele>1050.0</ele><time>2026-05-01T10:37:12.789Z</time></trkpt><trkpt lat="42.7349377" lon="13.5673166"><ele>1050.0</ele><time>2026-05-01T10:37:13.791Z</time></trkpt><trkpt lat="42.7349259" lon="13.5675098"><ele>1050.0</ele><time>2026-05-01T10:37:14.791Z</time></trkpt><trkpt lat="42.7349125" lon="13.5676962"><ele>1050.0</ele><time>2026-05-01T10:37:15.787Z</time></trkpt><trkpt lat="42.7348994" lon="13.5678776"><ele>1050.0</ele><time>2026-05-01T10:37:16.79Z</time></trkpt><trkpt lat="42.7348906" lon="13.5680584"><ele>1050.0</ele><time>2026-05-01T10:37:17.79Z</time></trkpt><trkpt lat="42.7348885" lon="13.5682312"><ele>1050.5</ele><time>2026-05-01T10:37:18.79Z</time></trkpt><trkpt lat="42.7348825" lon="13.568404"><ele>1051.0</ele><time>2026-05-01T10:37:19.791Z</time></trkpt><trkpt lat="42.7348567" lon="13.5685761"><ele>1051.5</ele><time>2026-05-01T10:37:20.791Z</time></trkpt><trkpt lat="42.7348072" lon="13.5687361"><ele>1052.0</ele><time>2026-05-01T10:37:21.79Z</time></trkpt><trkpt lat="42.7347458" lon="13.5688839"><ele>1052.0</ele><time>2026-05-01T10:37:22.791Z</time></trkpt><trkpt lat="42.7346928" lon="13.56901"><ele>1052.0</ele><time>2026-05-01T10:37:23.79Z</time></trkpt><trkpt lat="42.7346505" lon="13.5691285"><ele>1052.0</ele><time>2026-05-01T10:37:24.789Z</time></trkpt><trkpt lat="42.7346419" lon="13.5692387"><ele>1052.0</ele><time>2026-05-01T10:37:25.79Z</time></trkpt><trkpt lat="42.7346403" lon="13.5693487"><ele>1052.0</ele><time>2026-05-01T10:37:26.789Z</time></trkpt><trkpt lat="42.7347223" lon="13.5694359"><ele>1052.0</ele><time>2026-05-01T10:37:27.79Z</time></trkpt><trkpt lat="42.7347898" lon="13.5695177"><ele>1052.0</ele><time>2026-05-01T10:37:28.789Z</time></trkpt><trkpt lat="42.7348982" lon="13.5695718"><ele>1052.0</ele><time>2026-05-01T10:37:29.79Z</time></trkpt><trkpt lat="42.7349835" lon="13.5696511"><ele>1052.0</ele><time>2026-05-01T10:37:30.789Z</time></trkpt><trkpt lat="42.7350584" lon="13.5697551"><ele>1052.0</ele><time>2026-05-01T10:37:31.79Z</time></trkpt><trkpt lat="42.73512" lon="13.5698854"><ele>1054.4</ele><time>2026-05-01T10:37:32.791Z</time></trkpt><trkpt lat="42.7351607" lon="13.570027"><ele>1056.8000000000002</ele><time>2026-05-01T10:37:33.789Z</time></trkpt><trkpt lat="42.7352075" lon="13.5701776"><ele>1059.2</ele><time>2026-05-01T10:37:34.79Z</time></trkpt><trkpt lat="42.7352374" lon="13.570314"><ele>1061.6000000000001</ele><time>2026-05-01T10:37:35.79Z</time></trkpt><trkpt lat="42.7352453" lon="13.5704427"><ele>1064.0</ele><time>2026-05-01T10:37:36.791Z</time></trkpt><trkpt lat="42.7352205" lon="13.5705671"><ele>1066.0</ele><time>2026-05-01T10:37:37.79Z</time></trkpt><trkpt lat="42.7351814" lon="13.5707026"><ele>1068.0</ele><time>2026-05-01T10:37:38.789Z</time></trkpt><trkpt lat="42.7351167" lon="13.5708391"><ele>1070.0</ele><time>2026-05-01T10:37:39.791Z</time></trkpt><trkpt lat="42.735077" lon="13.5709765"><ele>1072.0</ele><time>2026-05-01T10:37:40.791Z</time></trkpt><trkpt lat="42.7350474" lon="13.5711384"><ele>1072.5</ele><time>2026-05-01T10:37:41.791Z</time></trkpt><trkpt lat="42.7350247" lon="13.5713057"><ele>1073.0</ele><time>2026-05-01T10:37:42.791Z</time></trkpt><trkpt lat="42.7350152" lon="13.5714915"><ele>1073.5</ele><time>2026-05-01T10:37:43.791Z</time></trkpt><trkpt lat="42.7350152" lon="13.5716758"><ele>1074.0</ele><time>2026-05-01T10:37:44.791Z</time></trkpt><trkpt lat="42.7350194" lon="13.5718483"><ele>1074.0</ele><time>2026-05-01T10:37:45.791Z</time></trkpt><trkpt lat="42.7350378" lon="13.5720137"><ele>1074.0</ele><time>2026-05-01T10:37:46.791Z</time></trkpt><trkpt lat="42.7350596" lon="13.5721623"><ele>1074.0</ele><time>2026-05-01T10:37:47.791Z</time></trkpt><trkpt lat="42.7350596" lon="13.5723123"><ele>1074.0</ele><time>2026-05-01T10:37:48.79Z</time></trkpt><trkpt lat="42.7350361" lon="13.5724641"><ele>1074.5</ele><time>2026-05-01T10:37:49.79Z</time></trkpt><trkpt lat="42.7349893" lon="13.5726145"><ele>1075.0</ele><time>2026-05-01T10:37:50.791Z</time></trkpt><trkpt lat="42.7349665" lon="13.5727619"><ele>1075.5</ele><time>2026-05-01T10:37:51.79Z</time></trkpt><trkpt lat="42.7349609" lon="13.5729154"><ele>1076.0</ele><time>2026-05-01T10:37:52.79Z</time></trkpt><trkpt lat="42.7349808" lon="13.573069"><ele>1076.0</ele><time>2026-05-01T10:37:53.789Z</time></trkpt><trkpt lat="42.7350027" lon="13.5732214"><ele>1076.0</ele><time>2026-05-01T10:37:54.79Z</time></trkpt><trkpt lat="42.735028" lon="13.5733647"><ele>1076.0</ele><time>2026-05-01T10:37:55.79Z</time></trkpt><trkpt lat="42.7350371" lon="13.5734935"><ele>1076.0</ele><time>2026-05-01T10:37:56.79Z</time></trkpt><trkpt lat="42.7350213" lon="13.5735927"><ele>1076.0</ele><time>2026-05-01T10:37:57.79Z</time></trkpt><trkpt lat="42.7349784" lon="13.5736913"><ele>1073.2</ele><time>2026-05-01T10:37:58.79Z</time></trkpt><trkpt lat="42.7349075" lon="13.573772"><ele>1070.3999999999999</ele><time>2026-05-01T10:37:59.79Z</time></trkpt><trkpt lat="42.7348107" lon="13.5738447"><ele>1067.6</ele><time>2026-05-01T10:38:00.79Z</time></trkpt><trkpt lat="42.7347043" lon="13.5738968"><ele>1064.8</ele><time>2026-05-01T10:38:01.79Z</time></trkpt><trkpt lat="42.7345896" lon="13.5739603"><ele>1062.0</ele><time>2026-05-01T10:38:02.79Z</time></trkpt><trkpt lat="42.7344731" lon="13.5740279"><ele>1068.0</ele><time>2026-05-01T10:38:03.791Z</time></trkpt><trkpt lat="42.7343672" lon="13.5740961"><ele>1074.0</ele><time>2026-05-01T10:38:04.791Z</time></trkpt><trkpt lat="42.7342598" lon="13.5741678"><ele>1080.0</ele><time>2026-05-01T10:38:05.79Z</time></trkpt><trkpt lat="42.7341619" lon="13.5742465"><ele>1086.0</ele><time>2026-05-01T10:38:06.791Z</time></trkpt><trkpt lat="42.7340708" lon="13.5743262"><ele>1086.0</ele><time>2026-05-01T10:38:07.79Z</time></trkpt><trkpt lat="42.7339857" lon="13.5743991"><ele>1086.0</ele><time>2026-05-01T10:38:08.791Z</time></trkpt><trkpt lat="42.7339104" lon="13.5744901"><ele>1086.0</ele><time>2026-05-01T10:38:09.789Z</time></trkpt><trkpt lat="42.7338523" lon="13.5745813"><ele>1086.0</ele><time>2026-05-01T10:38:10.79Z</time></trkpt><trkpt lat="42.7338252" lon="13.5747297"><ele>1086.0</ele><time>2026-05-01T10:38:11.789Z</time></trkpt><trkpt lat="42.7338048" lon="13.5748662"><ele>1084.5</ele><time>2026-05-01T10:38:12.79Z</time></trkpt><trkpt lat="42.7338134" lon="13.575026"><ele>1083.0</ele><time>2026-05-01T10:38:13.791Z</time></trkpt><trkpt lat="42.733826" lon="13.5751981"><ele>1081.5</ele><time>2026-05-01T10:38:14.79Z</time></trkpt><trkpt lat="42.7338325" lon="13.5753825"><ele>1080.0</ele><time>2026-05-01T10:38:15.791Z</time></trkpt><trkpt lat="42.7338513" lon="13.5755606"><ele>1079.8</ele><time>2026-05-01T10:38:16.791Z</time></trkpt><trkpt lat="42.7338659" lon="13.5757256"><ele>1079.6</ele><time>2026-05-01T10:38:17.79Z</time></trkpt><trkpt lat="42.7338797" lon="13.5758758"><ele>1079.4</ele><time>2026-05-01T10:38:18.79Z</time></trkpt><trkpt lat="42.7338877" lon="13.5760161"><ele>1079.2</ele><time>2026-05-01T10:38:19.791Z</time></trkpt><trkpt lat="42.7338989" lon="13.5761398"><ele>1079.0</ele><time>2026-05-01T10:38:20.789Z</time></trkpt><trkpt lat="42.7339053" lon="13.5762485"><ele>1079.6666666666667</ele><time>2026-05-01T10:38:21.791Z</time></trkpt><trkpt lat="42.7339023" lon="13.5763474"><ele>1080.3333333333335</ele><time>2026-05-01T10:38:22.79Z</time></trkpt><trkpt lat="42.733892" lon="13.5765007"><ele>1081.0</ele><time>2026-05-01T10:38:24.791Z</time></trkpt><trkpt lat="42.7338677" lon="13.5766034"><ele>1081.6666666666667</ele><time>2026-05-01T10:38:27.79Z</time></trkpt><trkpt lat="42.733814" lon="13.5766936"><ele>1082.3333333333333</ele><time>2026-05-01T10:38:29.789Z</time></trkpt><trkpt lat="42.7337518" lon="13.5767465"><ele>1083.0</ele><time>2026-05-01T10:38:30.79Z</time></trkpt><trkpt lat="42.7336725" lon="13.5767947"><ele>1083.0</ele><time>2026-05-01T10:38:31.79Z</time></trkpt><trkpt lat="42.7335871" lon="13.5768294"><ele>1083.0</ele><time>2026-05-01T10:38:32.79Z</time></trkpt><trkpt lat="42.733492" lon="13.5768347"><ele>1083.0</ele><time>2026-05-01T10:38:33.789Z</time></trkpt><trkpt lat="42.733396" lon="13.5768129"><ele>1083.0</ele><time>2026-05-01T10:38:34.79Z</time></trkpt><trkpt lat="42.7333234" lon="13.5767564"><ele>1083.0</ele><time>2026-05-01T10:38:35.79Z</time></trkpt><trkpt lat="42.7332549" lon="13.5766673"><ele>1083.8</ele><time>2026-05-01T10:38:36.79Z</time></trkpt><trkpt lat="42.7331906" lon="13.5765558"><ele>1084.6</ele><time>2026-05-01T10:38:37.79Z</time></trkpt><trkpt lat="42.7331209" lon="13.5764513"><ele>1085.4</ele><time>2026-05-01T10:38:38.791Z</time></trkpt><trkpt lat="42.7330586" lon="13.5763528"><ele>1086.2</ele><time>2026-05-01T10:38:39.789Z</time></trkpt><trkpt lat="42.7329901" lon="13.5762503"><ele>1087.0</ele><time>2026-05-01T10:38:40.789Z</time></trkpt><trkpt lat="42.732916" lon="13.5761525"><ele>1088.5</ele><time>2026-05-01T10:38:41.79Z</time></trkpt><trkpt lat="42.7328469" lon="13.5760749"><ele>1090.0</ele><time>2026-05-01T10:38:42.791Z</time></trkpt><trkpt lat="42.73278" lon="13.5760193"><ele>1091.5</ele><time>2026-05-01T10:38:43.791Z</time></trkpt><trkpt lat="42.7327129" lon="13.5759745"><ele>1093.0</ele><time>2026-05-01T10:38:44.791Z</time></trkpt><trkpt lat="42.7326341" lon="13.5759369"><ele>1094.5</ele><time>2026-05-01T10:38:45.79Z</time></trkpt><trkpt lat="42.7325418" lon="13.57591"><ele>1096.0</ele><time>2026-05-01T10:38:46.791Z</time></trkpt><trkpt lat="42.7324457" lon="13.5758846"><ele>1096.5</ele><time>2026-05-01T10:38:47.791Z</time></trkpt><trkpt lat="42.7323614" lon="13.5758625"><ele>1097.0</ele><time>2026-05-01T10:38:48.789Z</time></trkpt><trkpt lat="42.7322742" lon="13.5758468"><ele>1097.5</ele><time>2026-05-01T10:38:49.791Z</time></trkpt><trkpt lat="42.7321935" lon="13.5758411"><ele>1098.0</ele><time>2026-05-01T10:38:50.791Z</time></trkpt><trkpt lat="42.732106" lon="13.5758542"><ele>1098.5</ele><time>2026-05-01T10:38:51.791Z</time></trkpt><trkpt lat="42.7320214" lon="13.5758757"><ele>1099.0</ele><time>2026-05-01T10:38:52.789Z</time></trkpt><trkpt lat="42.731942" lon="13.5759081"><ele>1099.5</ele><time>2026-05-01T10:38:53.79Z</time></trkpt><trkpt lat="42.7318624" lon="13.5759474"><ele>1100.0</ele><time>2026-05-01T10:38:54.789Z</time></trkpt><trkpt lat="42.7317768" lon="13.5759812"><ele>1100.5</ele><time>2026-05-01T10:38:55.79Z</time></trkpt><trkpt lat="42.7316973" lon="13.5760077"><ele>1101.0</ele><time>2026-05-01T10:38:56.789Z</time></trkpt><trkpt lat="42.7316265" lon="13.5760254"><ele>1101.5</ele><time>2026-05-01T10:38:57.791Z</time></trkpt><trkpt lat="42.7315467" lon="13.5760338"><ele>1102.0</ele><time>2026-05-01T10:38:58.789Z</time></trkpt><trkpt lat="42.7314526" lon="13.5760374"><ele>1102.0</ele><time>2026-05-01T10:38:59.789Z</time></trkpt><trkpt lat="42.7313511" lon="13.5760366"><ele>1102.0</ele><time>2026-05-01T10:39:00.789Z</time></trkpt><trkpt lat="42.7312516" lon="13.5760366"><ele>1102.0</ele><time>2026-05-01T10:39:01.788Z</time></trkpt><trkpt lat="42.7311548" lon="13.5760378"><ele>1102.0</ele><time>2026-05-01T10:39:02.788Z</time></trkpt><trkpt lat="42.7310655" lon="13.5760342"><ele>1102.0</ele><time>2026-05-01T10:39:03.789Z</time></trkpt><trkpt lat="42.7309894" lon="13.5760391"><ele>1101.8333333333333</ele><time>2026-05-01T10:39:04.789Z</time></trkpt><trkpt lat="42.730917" lon="13.5760483"><ele>1101.6666666666665</ele><time>2026-05-01T10:39:05.79Z</time></trkpt><trkpt lat="42.7308457" lon="13.5760825"><ele>1101.5</ele><time>2026-05-01T10:39:06.788Z</time></trkpt><trkpt lat="42.7307728" lon="13.5761375"><ele>1101.3333333333333</ele><time>2026-05-01T10:39:07.788Z</time></trkpt><trkpt lat="42.7307021" lon="13.5762202"><ele>1101.1666666666667</ele><time>2026-05-01T10:39:08.79Z</time></trkpt><trkpt lat="42.7306315" lon="13.5763185"><ele>1101.0</ele><time>2026-05-01T10:39:09.788Z</time></trkpt><trkpt lat="42.730561" lon="13.5764164"><ele>1101.0</ele><time>2026-05-01T10:39:10.788Z</time></trkpt><trkpt lat="42.7304855" lon="13.5765314"><ele>1101.0</ele><time>2026-05-01T10:39:11.788Z</time></trkpt><trkpt lat="42.7304088" lon="13.5766495"><ele>1101.0</ele><time>2026-05-01T10:39:12.788Z</time></trkpt><trkpt lat="42.7303344" lon="13.5767544"><ele>1101.0</ele><time>2026-05-01T10:39:13.789Z</time></trkpt><trkpt lat="42.7302681" lon="13.5768614"><ele>1101.0</ele><time>2026-05-01T10:39:14.788Z</time></trkpt><trkpt lat="42.7302098" lon="13.5769625"><ele>1104.3333333333333</ele><time>2026-05-01T10:39:15.79Z</time></trkpt><trkpt lat="42.7301661" lon="13.5770559"><ele>1107.6666666666667</ele><time>2026-05-01T10:39:16.79Z</time></trkpt><trkpt lat="42.7301324" lon="13.5771572"><ele>1111.0</ele><time>2026-05-01T10:39:17.789Z</time></trkpt><trkpt lat="42.7301223" lon="13.577269"><ele>1114.3333333333335</ele><time>2026-05-01T10:39:18.789Z</time></trkpt><trkpt lat="42.7301273" lon="13.577403"><ele>1117.6666666666667</ele><time>2026-05-01T10:39:19.789Z</time></trkpt><trkpt lat="42.7301424" lon="13.5775371"><ele>1121.0</ele><time>2026-05-01T10:39:20.79Z</time></trkpt><trkpt lat="42.7301524" lon="13.577652"><ele>1121.0</ele><time>2026-05-01T10:39:21.79Z</time></trkpt><trkpt lat="42.7301549" lon="13.5777583"><ele>1121.0</ele><time>2026-05-01T10:39:22.79Z</time></trkpt><trkpt lat="42.7301459" lon="13.5778531"><ele>1121.0</ele><time>2026-05-01T10:39:23.789Z</time></trkpt><trkpt lat="42.7301223" lon="13.577966"><ele>1121.0</ele><time>2026-05-01T10:39:24.79Z</time></trkpt><trkpt lat="42.7300841" lon="13.5780699"><ele>1121.0</ele><time>2026-05-01T10:39:25.789Z</time></trkpt><trkpt lat="42.7300278" lon="13.5781892"><ele>1121.0</ele><time>2026-05-01T10:39:26.789Z</time></trkpt><trkpt lat="42.7299715" lon="13.5782956"><ele>1119.0</ele><time>2026-05-01T10:39:27.789Z</time></trkpt><trkpt lat="42.7299102" lon="13.5783874"><ele>1117.0</ele><time>2026-05-01T10:39:28.789Z</time></trkpt><trkpt lat="42.7298459" lon="13.5784658"><ele>1115.0</ele><time>2026-05-01T10:39:29.788Z</time></trkpt><trkpt lat="42.729767" lon="13.5785349"><ele>1113.0</ele><time>2026-05-01T10:39:30.789Z</time></trkpt><trkpt lat="42.7296841" lon="13.578612"><ele>1111.0</ele><time>2026-05-01T10:39:31.789Z</time></trkpt><trkpt lat="42.7296049" lon="13.5786954"><ele>1114.0</ele><time>2026-05-01T10:39:32.79Z</time></trkpt><trkpt lat="42.7295241" lon="13.5788021"><ele>1117.0</ele><time>2026-05-01T10:39:33.788Z</time></trkpt><trkpt lat="42.7294408" lon="13.5789149"><ele>1120.0</ele><time>2026-05-01T10:39:34.789Z</time></trkpt><trkpt lat="42.7293529" lon="13.5790372"><ele>1123.0</ele><time>2026-05-01T10:39:35.788Z</time></trkpt><trkpt lat="42.729267" lon="13.5791632"><ele>1123.0</ele><time>2026-05-01T10:39:36.789Z</time></trkpt><trkpt lat="42.7291843" lon="13.5792892"><ele>1123.0</ele><time>2026-05-01T10:39:37.788Z</time></trkpt><trkpt lat="42.7291053" lon="13.5794144"><ele>1123.0</ele><time>2026-05-01T10:39:38.79Z</time></trkpt><trkpt lat="42.729028" lon="13.5795337"><ele>1123.0</ele><time>2026-05-01T10:39:39.789Z</time></trkpt><trkpt lat="42.7289606" lon="13.5796407"><ele>1121.2</ele><time>2026-05-01T10:39:40.79Z</time></trkpt><trkpt lat="42.7289061" lon="13.5797529"><ele>1119.4</ele><time>2026-05-01T10:39:41.789Z</time></trkpt><trkpt lat="42.7288425" lon="13.5798713"><ele>1117.6000000000001</ele><time>2026-05-01T10:39:42.79Z</time></trkpt><trkpt lat="42.7288093" lon="13.5799922"><ele>1115.8</ele><time>2026-05-01T10:39:43.788Z</time></trkpt><trkpt lat="42.7287599" lon="13.5801358"><ele>1114.0</ele><time>2026-05-01T10:39:44.788Z</time></trkpt><trkpt lat="42.7287236" lon="13.5802827"><ele>1113.6000000000001</ele><time>2026-05-01T10:39:45.789Z</time></trkpt><trkpt lat="42.7286821" lon="13.5804159"><ele>1113.2</ele><time>2026-05-01T10:39:46.79Z</time></trkpt><trkpt lat="42.7286465" lon="13.5805606"><ele>1112.8000000000002</ele><time>2026-05-01T10:39:47.789Z</time></trkpt><trkpt lat="42.728621" lon="13.5806936"><ele>1112.4</ele><time>2026-05-01T10:39:48.789Z</time></trkpt><trkpt lat="42.7285969" lon="13.5808242"><ele>1112.0</ele><time>2026-05-01T10:39:49.79Z</time></trkpt><trkpt lat="42.7285783" lon="13.5809494"><ele>1113.8</ele><time>2026-05-01T10:39:50.79Z</time></trkpt><trkpt lat="42.7285479" lon="13.5810736"><ele>1115.6</ele><time>2026-05-01T10:39:51.789Z</time></trkpt><trkpt lat="42.7285054" lon="13.5811978"><ele>1117.3999999999999</ele><time>2026-05-01T10:39:52.789Z</time></trkpt><trkpt lat="42.7284473" lon="13.5813272"><ele>1119.2</ele><time>2026-05-01T10:39:53.788Z</time></trkpt><trkpt lat="42.7283839" lon="13.5814473"><ele>1121.0</ele><time>2026-05-01T10:39:54.79Z</time></trkpt><trkpt lat="42.7283063" lon="13.5815438"><ele>1121.0</ele><time>2026-05-01T10:39:55.79Z</time></trkpt><trkpt lat="42.7282209" lon="13.5816264"><ele>1121.0</ele><time>2026-05-01T10:39:56.789Z</time></trkpt><trkpt lat="42.7281255" lon="13.5816921"><ele>1121.0</ele><time>2026-05-01T10:39:57.789Z</time></trkpt><trkpt lat="42.7280243" lon="13.5817379"><ele>1121.0</ele><time>2026-05-01T10:39:58.789Z</time></trkpt><trkpt lat="42.7279347" lon="13.581779"><ele>1121.0</ele><time>2026-05-01T10:39:59.79Z</time></trkpt><trkpt lat="42.7278487" lon="13.5818253"><ele>1121.0</ele><time>2026-05-01T10:40:00.79Z</time></trkpt><trkpt lat="42.7277616" lon="13.5818949"><ele>1121.0</ele><time>2026-05-01T10:40:01.789Z</time></trkpt><trkpt lat="42.7276824" lon="13.5819595"><ele>1121.0</ele><time>2026-05-01T10:40:02.789Z</time></trkpt><trkpt lat="42.7276087" lon="13.5819946"><ele>1121.0</ele><time>2026-05-01T10:40:03.789Z</time></trkpt><trkpt lat="42.7275433" lon="13.5820046"><ele>1121.0</ele><time>2026-05-01T10:40:04.79Z</time></trkpt><trkpt lat="42.7274726" lon="13.5819889"><ele>1121.0</ele><time>2026-05-01T10:40:05.79Z</time></trkpt><trkpt lat="42.7273913" lon="13.5819325"><ele>1122.8</ele><time>2026-05-01T10:40:06.789Z</time></trkpt><trkpt lat="42.7273146" lon="13.5818543"><ele>1124.6</ele><time>2026-05-01T10:40:07.788Z</time></trkpt><trkpt lat="42.7272425" lon="13.5817535"><ele>1126.4</ele><time>2026-05-01T10:40:08.788Z</time></trkpt><trkpt lat="42.7271813" lon="13.581643"><ele>1128.2</ele><time>2026-05-01T10:40:09.789Z</time></trkpt><trkpt lat="42.7271371" lon="13.5815201"><ele>1130.0</ele><time>2026-05-01T10:40:10.789Z</time></trkpt><trkpt lat="42.7271087" lon="13.581376"><ele>1130.0</ele><time>2026-05-01T10:40:11.788Z</time></trkpt><trkpt lat="42.727102" lon="13.5812084"><ele>1130.0</ele><time>2026-05-01T10:40:12.789Z</time></trkpt><trkpt lat="42.7270915" lon="13.5810464"><ele>1130.0</ele><time>2026-05-01T10:40:13.79Z</time></trkpt><trkpt lat="42.727066" lon="13.5809082"><ele>1130.0</ele><time>2026-05-01T10:40:14.789Z</time></trkpt><trkpt lat="42.72702" lon="13.5807695"><ele>1128.0</ele><time>2026-05-01T10:40:15.789Z</time></trkpt><trkpt lat="42.7269561" lon="13.5806238"><ele>1126.0</ele><time>2026-05-01T10:40:16.789Z</time></trkpt><trkpt lat="42.7268884" lon="13.5804785"><ele>1124.0</ele><time>2026-05-01T10:40:17.789Z</time></trkpt><trkpt lat="42.726818" lon="13.5803319"><ele>1122.0</ele><time>2026-05-01T10:40:18.789Z</time></trkpt><trkpt lat="42.7267482" lon="13.5801722"><ele>1127.0</ele><time>2026-05-01T10:40:19.788Z</time></trkpt><trkpt lat="42.7266792" lon="13.5800286"><ele>1132.0</ele><time>2026-05-01T10:40:20.789Z</time></trkpt><trkpt lat="42.7266066" lon="13.5798882"><ele>1137.0</ele><time>2026-05-01T10:40:21.789Z</time></trkpt><trkpt lat="42.726543" lon="13.5797642"><ele>1142.0</ele><time>2026-05-01T10:40:22.79Z</time></trkpt><trkpt lat="42.7264858" lon="13.579656"><ele>1142.0</ele><time>2026-05-01T10:40:23.789Z</time></trkpt><trkpt lat="42.7264401" lon="13.5795579"><ele>1142.0</ele><time>2026-05-01T10:40:24.789Z</time></trkpt><trkpt lat="42.726398" lon="13.5794808"><ele>1142.0</ele><time>2026-05-01T10:40:25.789Z</time></trkpt><trkpt lat="42.7262924" lon="13.5793789"><ele>1142.0</ele><time>2026-05-01T10:40:27.79Z</time></trkpt><trkpt lat="42.7262184" lon="13.5793665"><ele>1142.0</ele><time>2026-05-01T10:40:28.789Z</time></trkpt><trkpt lat="42.7261333" lon="13.5793826"><ele>1142.0</ele><time>2026-05-01T10:40:29.789Z</time></trkpt><trkpt lat="42.7260336" lon="13.5794259"><ele>1145.2</ele><time>2026-05-01T10:40:30.788Z</time></trkpt><trkpt lat="42.7259401" lon="13.5794664"><ele>1148.4</ele><time>2026-05-01T10:40:31.789Z</time></trkpt><trkpt lat="42.725845" lon="13.5794936"><ele>1151.6</ele><time>2026-05-01T10:40:32.788Z</time></trkpt><trkpt lat="42.7257492" lon="13.5795038"><ele>1154.8</ele><time>2026-05-01T10:40:33.789Z</time></trkpt><trkpt lat="42.725661" lon="13.5794849"><ele>1158.0</ele><time>2026-05-01T10:40:34.788Z</time></trkpt><trkpt lat="42.725583" lon="13.579446"><ele>1158.0</ele><time>2026-05-01T10:40:35.789Z</time></trkpt><trkpt lat="42.7255066" lon="13.5793802"><ele>1158.0</ele><time>2026-05-01T10:40:36.79Z</time></trkpt><trkpt lat="42.725432" lon="13.5792999"><ele>1158.0</ele><time>2026-05-01T10:40:37.79Z</time></trkpt><trkpt lat="42.7253641" lon="13.5792097"><ele>1158.0</ele><time>2026-05-01T10:40:38.789Z</time></trkpt><trkpt lat="42.7253078" lon="13.5791048"><ele>1158.0</ele><time>2026-05-01T10:40:39.789Z</time></trkpt><trkpt lat="42.7252545" lon="13.578981"><ele>1156.3333333333333</ele><time>2026-05-01T10:40:40.79Z</time></trkpt><trkpt lat="42.7252135" lon="13.5788563"><ele>1154.6666666666667</ele><time>2026-05-01T10:40:41.79Z</time></trkpt><trkpt lat="42.7251756" lon="13.5787461"><ele>1153.0</ele><time>2026-05-01T10:40:42.788Z</time></trkpt><trkpt lat="42.7251389" lon="13.5786474"><ele>1151.3333333333335</ele><time>2026-05-01T10:40:43.788Z</time></trkpt><trkpt lat="42.7251089" lon="13.5785652"><ele>1149.6666666666667</ele><time>2026-05-01T10:40:44.789Z</time></trkpt><trkpt lat="42.7250706" lon="13.5784868"><ele>1148.0</ele><time>2026-05-01T10:40:45.789Z</time></trkpt><trkpt lat="42.7249836" lon="13.5784202"><ele>1153.0</ele><time>2026-05-01T10:40:47.79Z</time></trkpt><trkpt lat="42.7248802" lon="13.5784513"><ele>1158.0</ele><time>2026-05-01T10:40:49.789Z</time></trkpt><trkpt lat="42.7247777" lon="13.5785407"><ele>1163.0</ele><time>2026-05-01T10:40:51.79Z</time></trkpt><trkpt lat="42.7246897" lon="13.5785392"><ele>1168.0</ele><time>2026-05-01T10:40:53.789Z</time></trkpt><trkpt lat="42.7246098" lon="13.5784592"><ele>1173.0</ele><time>2026-05-01T10:40:55.79Z</time></trkpt><trkpt lat="42.7245107" lon="13.5783777"><ele>1173.0</ele><time>2026-05-01T10:40:57.789Z</time></trkpt><trkpt lat="42.7244065" lon="13.578393"><ele>1173.0</ele><time>2026-05-01T10:40:59.79Z</time></trkpt><trkpt lat="42.7243493" lon="13.5784458"><ele>1173.0</ele><time>2026-05-01T10:41:00.789Z</time></trkpt><trkpt lat="42.7242851" lon="13.578531"><ele>1173.0</ele><time>2026-05-01T10:41:01.789Z</time></trkpt><trkpt lat="42.7242175" lon="13.5786207"><ele>1173.0</ele><time>2026-05-01T10:41:02.789Z</time></trkpt><trkpt lat="42.7241651" lon="13.5786802"><ele>1173.0</ele><time>2026-05-01T10:41:03.789Z</time></trkpt><trkpt lat="42.7240393" lon="13.5787557"><ele>1174.3333333333333</ele><time>2026-05-01T10:41:05.789Z</time></trkpt><trkpt lat="42.7239641" lon="13.5787676"><ele>1175.6666666666667</ele><time>2026-05-01T10:41:06.789Z</time></trkpt><trkpt lat="42.7238924" lon="13.5787622"><ele>1177.0</ele><time>2026-05-01T10:41:07.79Z</time></trkpt><trkpt lat="42.7238192" lon="13.5787316"><ele>1178.3333333333335</ele><time>2026-05-01T10:41:08.788Z</time></trkpt><trkpt lat="42.7237359" lon="13.5786941"><ele>1179.6666666666667</ele><time>2026-05-01T10:41:09.789Z</time></trkpt><trkpt lat="42.7236529" lon="13.5786524"><ele>1181.0</ele><time>2026-05-01T10:41:10.789Z</time></trkpt><trkpt lat="42.7235581" lon="13.5786185"><ele>1183.2</ele><time>2026-05-01T10:41:11.789Z</time></trkpt><trkpt lat="42.7234669" lon="13.5785909"><ele>1185.3999999999999</ele><time>2026-05-01T10:41:12.788Z</time></trkpt><trkpt lat="42.7233751" lon="13.5785584"><ele>1187.6</ele><time>2026-05-01T10:41:13.789Z</time></trkpt><trkpt lat="42.7232834" lon="13.578531"><ele>1189.8</ele><time>2026-05-01T10:41:14.788Z</time></trkpt><trkpt lat="42.7231928" lon="13.5784888"><ele>1192.0</ele><time>2026-05-01T10:41:15.789Z</time></trkpt><trkpt lat="42.7231066" lon="13.5784407"><ele>1192.0</ele><time>2026-05-01T10:41:16.789Z</time></trkpt><trkpt lat="42.7230269" lon="13.5784056"><ele>1192.0</ele><time>2026-05-01T10:41:17.789Z</time></trkpt><trkpt lat="42.7229495" lon="13.578378"><ele>1192.0</ele><time>2026-05-01T10:41:18.789Z</time></trkpt><trkpt lat="42.7228813" lon="13.5783662"><ele>1192.0</ele><time>2026-05-01T10:41:19.79Z</time></trkpt><trkpt lat="42.7228164" lon="13.5783794"><ele>1192.0</ele><time>2026-05-01T10:41:20.789Z</time></trkpt><trkpt lat="42.7227572" lon="13.5784103"><ele>1192.0</ele><time>2026-05-01T10:41:21.79Z</time></trkpt><trkpt lat="42.722698" lon="13.578449"><ele>1192.0</ele><time>2026-05-01T10:41:22.789Z</time></trkpt><trkpt lat="42.7226512" lon="13.5785261"><ele>1194.8</ele><time>2026-05-01T10:41:23.788Z</time></trkpt><trkpt lat="42.7226474" lon="13.5786256"><ele>1197.6</ele><time>2026-05-01T10:41:24.79Z</time></trkpt><trkpt lat="42.7226186" lon="13.5787102"><ele>1200.3999999999999</ele><time>2026-05-01T10:41:25.789Z</time></trkpt><trkpt lat="42.7225465" lon="13.5788347"><ele>1203.2</ele><time>2026-05-01T10:41:27.789Z</time></trkpt><trkpt lat="42.722429" lon="13.5788734"><ele>1206.0</ele><time>2026-05-01T10:41:29.789Z</time></trkpt><trkpt lat="42.7223477" lon="13.5788561"><ele>1205.0</ele><time>2026-05-01T10:41:30.788Z</time></trkpt><trkpt lat="42.7222559" lon="13.5788233"><ele>1204.0</ele><time>2026-05-01T10:41:31.789Z</time></trkpt><trkpt lat="42.7221571" lon="13.5788082"><ele>1203.0</ele><time>2026-05-01T10:41:32.789Z</time></trkpt><trkpt lat="42.7220571" lon="13.5788057"><ele>1202.0</ele><time>2026-05-01T10:41:33.788Z</time></trkpt><trkpt lat="42.7219599" lon="13.5788161"><ele>1201.0</ele><time>2026-05-01T10:41:34.789Z</time></trkpt><trkpt lat="42.7218736" lon="13.5788321"><ele>1201.0</ele><time>2026-05-01T10:41:35.789Z</time></trkpt><trkpt lat="42.7217927" lon="13.5788479"><ele>1201.0</ele><time>2026-05-01T10:41:36.789Z</time></trkpt><trkpt lat="42.7217231" lon="13.578862"><ele>1201.0</ele><time>2026-05-01T10:41:37.789Z</time></trkpt><trkpt lat="42.7216018" lon="13.5789042"><ele>1201.0</ele><time>2026-05-01T10:41:39.789Z</time></trkpt><trkpt lat="42.7215346" lon="13.5789841"><ele>1201.0</ele><time>2026-05-01T10:41:41.788Z</time></trkpt><trkpt lat="42.721522" lon="13.5790909"><ele>1201.0</ele><time>2026-05-01T10:41:43.789Z</time></trkpt><trkpt lat="42.7215699" lon="13.5791989"><ele>1201.0</ele><time>2026-05-01T10:41:44.789Z</time></trkpt><trkpt lat="42.7215895" lon="13.5793025"><ele>1201.0</ele><time>2026-05-01T10:41:45.789Z</time></trkpt><trkpt lat="42.7216145" lon="13.5794045"><ele>1201.0</ele><time>2026-05-01T10:41:46.788Z</time></trkpt><trkpt lat="42.721633" lon="13.5795076"><ele>1201.0</ele><time>2026-05-01T10:41:47.788Z</time></trkpt><trkpt lat="42.7216452" lon="13.5795999"><ele>1201.0</ele><time>2026-05-01T10:41:48.789Z</time></trkpt><trkpt lat="42.7216746" lon="13.5797654"><ele>1201.0</ele><time>2026-05-01T10:41:50.79Z</time></trkpt><trkpt lat="42.7216854" lon="13.5799015"><ele>1199.5</ele><time>2026-05-01T10:41:52.79Z</time></trkpt><trkpt lat="42.7216412" lon="13.5800154"><ele>1198.0</ele><time>2026-05-01T10:41:54.789Z</time></trkpt><trkpt lat="42.7215433" lon="13.5800396"><ele>1196.5</ele><time>2026-05-01T10:41:56.789Z</time></trkpt><trkpt lat="42.7214712" lon="13.5800144"><ele>1195.0</ele><time>2026-05-01T10:41:57.788Z</time></trkpt><trkpt lat="42.721387" lon="13.5799778"><ele>1193.5</ele><time>2026-05-01T10:41:58.788Z</time></trkpt><trkpt lat="42.7213037" lon="13.5799408"><ele>1192.0</ele><time>2026-05-01T10:41:59.789Z</time></trkpt><trkpt lat="42.7212305" lon="13.5799068"><ele>1192.0</ele><time>2026-05-01T10:42:00.789Z</time></trkpt><trkpt lat="42.7211678" lon="13.5798859"><ele>1192.0</ele><time>2026-05-01T10:42:01.789Z</time></trkpt><trkpt lat="42.7210972" lon="13.5798821"><ele>1192.0</ele><time>2026-05-01T10:42:02.789Z</time></trkpt><trkpt lat="42.7210195" lon="13.5798865"><ele>1192.0</ele><time>2026-05-01T10:42:03.789Z</time></trkpt><trkpt lat="42.7209324" lon="13.5799264"><ele>1192.0</ele><time>2026-05-01T10:42:04.789Z</time></trkpt><trkpt lat="42.7208603" lon="13.5799777"><ele>1192.0</ele><time>2026-05-01T10:42:05.79Z</time></trkpt><trkpt lat="42.7207875" lon="13.5801203"><ele>1191.2</ele><time>2026-05-01T10:42:06.789Z</time></trkpt><trkpt lat="42.7207074" lon="13.580191"><ele>1190.4</ele><time>2026-05-01T10:42:07.79Z</time></trkpt><trkpt lat="42.7206289" lon="13.5802694"><ele>1189.6</ele><time>2026-05-01T10:42:08.789Z</time></trkpt><trkpt lat="42.7205384" lon="13.58034"><ele>1188.8</ele><time>2026-05-01T10:42:09.788Z</time></trkpt><trkpt lat="42.7204399" lon="13.580423"><ele>1188.0</ele><time>2026-05-01T10:42:10.788Z</time></trkpt><trkpt lat="42.72034" lon="13.5805023"><ele>1188.0</ele><time>2026-05-01T10:42:11.79Z</time></trkpt><trkpt lat="42.7202493" lon="13.5805659"><ele>1188.0</ele><time>2026-05-01T10:42:12.788Z</time></trkpt><trkpt lat="42.7201535" lon="13.5806361"><ele>1188.0</ele><time>2026-05-01T10:42:13.789Z</time></trkpt><trkpt lat="42.7200462" lon="13.5807588"><ele>1188.0</ele><time>2026-05-01T10:42:14.788Z</time></trkpt><trkpt lat="42.7199338" lon="13.5808459"><ele>1194.75</ele><time>2026-05-01T10:42:15.788Z</time></trkpt><trkpt lat="42.7198259" lon="13.5809174"><ele>1201.5</ele><time>2026-05-01T10:42:16.789Z</time></trkpt><trkpt lat="42.7197185" lon="13.5809856"><ele>1208.25</ele><time>2026-05-01T10:42:17.788Z</time></trkpt><trkpt lat="42.7196139" lon="13.5810226"><ele>1215.0</ele><time>2026-05-01T10:42:18.788Z</time></trkpt><trkpt lat="42.7195111" lon="13.5810567"><ele>1215.0</ele><time>2026-05-01T10:42:19.789Z</time></trkpt><trkpt lat="42.7194114" lon="13.5810939"><ele>1215.0</ele><time>2026-05-01T10:42:20.789Z</time></trkpt><trkpt lat="42.7193063" lon="13.5811386"><ele>1215.0</ele><time>2026-05-01T10:42:21.79Z</time></trkpt><trkpt lat="42.7192103" lon="13.5812337"><ele>1215.0</ele><time>2026-05-01T10:42:23.788Z</time></trkpt><trkpt lat="42.7191465" lon="13.5812947"><ele>1215.0</ele><time>2026-05-01T10:42:24.789Z</time></trkpt><trkpt lat="42.7190589" lon="13.5813709"><ele>1215.6</ele><time>2026-05-01T10:42:25.789Z</time></trkpt><trkpt lat="42.719032" lon="13.5815177"><ele>1216.2</ele><time>2026-05-01T10:42:26.788Z</time></trkpt><trkpt lat="42.7189908" lon="13.5816045"><ele>1216.8</ele><time>2026-05-01T10:42:27.788Z</time></trkpt><trkpt lat="42.7189528" lon="13.5817205"><ele>1217.4</ele><time>2026-05-01T10:42:28.79Z</time></trkpt><trkpt lat="42.7189595" lon="13.5818583"><ele>1218.0</ele><time>2026-05-01T10:42:29.788Z</time></trkpt><trkpt lat="42.7189645" lon="13.5819734"><ele>1219.1666666666667</ele><time>2026-05-01T10:42:30.789Z</time></trkpt><trkpt lat="42.718978" lon="13.5820939"><ele>1220.3333333333333</ele><time>2026-05-01T10:42:31.79Z</time></trkpt><trkpt lat="42.7189969" lon="13.5821914"><ele>1221.5</ele><time>2026-05-01T10:42:32.789Z</time></trkpt><trkpt lat="42.7190127" lon="13.5823028"><ele>1222.6666666666665</ele><time>2026-05-01T10:42:33.789Z</time></trkpt><trkpt lat="42.7190888" lon="13.5823498"><ele>1223.8333333333333</ele><time>2026-05-01T10:42:34.788Z</time></trkpt><trkpt lat="42.7191677" lon="13.5824237"><ele>1225.0</ele><time>2026-05-01T10:42:35.79Z</time></trkpt><trkpt lat="42.7192415" lon="13.5825067"><ele>1225.0</ele><time>2026-05-01T10:42:36.789Z</time></trkpt><trkpt lat="42.719296" lon="13.5825905"><ele>1225.0</ele><time>2026-05-01T10:42:37.788Z</time></trkpt><trkpt lat="42.7193299" lon="13.5826832"><ele>1225.0</ele><time>2026-05-01T10:42:38.788Z</time></trkpt><trkpt lat="42.7193623" lon="13.5827655"><ele>1225.0</ele><time>2026-05-01T10:42:39.788Z</time></trkpt><trkpt lat="42.7193824" lon="13.5828963"><ele>1225.0</ele><time>2026-05-01T10:42:40.789Z</time></trkpt><trkpt lat="42.7194077" lon="13.5830026"><ele>1225.0</ele><time>2026-05-01T10:42:41.79Z</time></trkpt><trkpt lat="42.7194667" lon="13.5831823"><ele>1222.5</ele><time>2026-05-01T10:42:43.79Z</time></trkpt><trkpt lat="42.7195379" lon="13.5833069"><ele>1220.0</ele><time>2026-05-01T10:42:44.788Z</time></trkpt><trkpt lat="42.7196275" lon="13.5834205"><ele>1217.5</ele><time>2026-05-01T10:42:45.789Z</time></trkpt><trkpt lat="42.7196895" lon="13.5835473"><ele>1215.0</ele><time>2026-05-01T10:42:46.788Z</time></trkpt><trkpt lat="42.719768" lon="13.5836534"><ele>1217.4</ele><time>2026-05-01T10:42:47.789Z</time></trkpt><trkpt lat="42.7198497" lon="13.5837588"><ele>1219.8</ele><time>2026-05-01T10:42:48.789Z</time></trkpt><trkpt lat="42.7199154" lon="13.5838539"><ele>1222.2</ele><time>2026-05-01T10:42:49.79Z</time></trkpt><trkpt lat="42.71995" lon="13.5839666"><ele>1224.6</ele><time>2026-05-01T10:42:50.789Z</time></trkpt><trkpt lat="42.7199807" lon="13.5840557"><ele>1227.0</ele><time>2026-05-01T10:42:51.79Z</time></trkpt><trkpt lat="42.7200071" lon="13.5842094"><ele>1227.0</ele><time>2026-05-01T10:42:53.788Z</time></trkpt><trkpt lat="42.7199882" lon="13.5843591"><ele>1227.0</ele><time>2026-05-01T10:42:55.788Z</time></trkpt><trkpt lat="42.7199618" lon="13.5844543"><ele>1227.0</ele><time>2026-05-01T10:42:56.788Z</time></trkpt><trkpt lat="42.7198979" lon="13.5845503"><ele>1227.0</ele><time>2026-05-01T10:42:57.788Z</time></trkpt><trkpt lat="42.7198579" lon="13.5846226"><ele>1227.0</ele><time>2026-05-01T10:42:58.788Z</time></trkpt><trkpt lat="42.7198584" lon="13.5847302"><ele>1227.0</ele><time>2026-05-01T10:42:59.788Z</time></trkpt><trkpt lat="42.7198751" lon="13.5849081"><ele>1228.6</ele><time>2026-05-01T10:43:01.787Z</time></trkpt><trkpt lat="42.7199017" lon="13.5850147"><ele>1230.2</ele><time>2026-05-01T10:43:02.788Z</time></trkpt><trkpt lat="42.7199337" lon="13.5851216"><ele>1231.8</ele><time>2026-05-01T10:43:03.787Z</time></trkpt><trkpt lat="42.7199605" lon="13.5852467"><ele>1233.4</ele><time>2026-05-01T10:43:04.787Z</time></trkpt><trkpt lat="42.7199935" lon="13.5853848"><ele>1235.0</ele><time>2026-05-01T10:43:05.787Z</time></trkpt><trkpt lat="42.7200425" lon="13.5855352"><ele>1236.6666666666667</ele><time>2026-05-01T10:43:06.788Z</time></trkpt><trkpt lat="42.720095" lon="13.5856519"><ele>1238.3333333333335</ele><time>2026-05-01T10:43:07.787Z</time></trkpt><trkpt lat="42.7201432" lon="13.5857715"><ele>1240.0</ele><time>2026-05-01T10:43:08.788Z</time></trkpt><trkpt lat="42.7201815" lon="13.585859"><ele>1241.6666666666667</ele><time>2026-05-01T10:43:09.789Z</time></trkpt><trkpt lat="42.7202015" lon="13.5859589"><ele>1243.3333333333333</ele><time>2026-05-01T10:43:10.787Z</time></trkpt><trkpt lat="42.7202007" lon="13.5860598"><ele>1245.0</ele><time>2026-05-01T10:43:11.789Z</time></trkpt><trkpt lat="42.7201914" lon="13.5861634"><ele>1245.6</ele><time>2026-05-01T10:43:12.789Z</time></trkpt><trkpt lat="42.7201627" lon="13.5862723"><ele>1246.2</ele><time>2026-05-01T10:43:13.788Z</time></trkpt><trkpt lat="42.7201107" lon="13.586393"><ele>1246.8</ele><time>2026-05-01T10:43:14.788Z</time></trkpt><trkpt lat="42.7200403" lon="13.5865137"><ele>1247.4</ele><time>2026-05-01T10:43:15.788Z</time></trkpt><trkpt lat="42.7199624" lon="13.5866486"><ele>1248.0</ele><time>2026-05-01T10:43:16.788Z</time></trkpt><trkpt lat="42.7198963" lon="13.5867546"><ele>1248.0</ele><time>2026-05-01T10:43:17.787Z</time></trkpt><trkpt lat="42.7198293" lon="13.5868507"><ele>1248.0</ele><time>2026-05-01T10:43:18.789Z</time></trkpt><trkpt lat="42.7197785" lon="13.5869208"><ele>1248.0</ele><time>2026-05-01T10:43:19.787Z</time></trkpt><trkpt lat="42.7197184" lon="13.5869992"><ele>1248.0</ele><time>2026-05-01T10:43:20.788Z</time></trkpt><trkpt lat="42.7196717" lon="13.5870714"><ele>1248.0</ele><time>2026-05-01T10:43:21.788Z</time></trkpt><trkpt lat="42.7197745" lon="13.5872415"><ele>1248.5</ele><time>2026-05-01T10:43:24.788Z</time></trkpt><trkpt lat="42.7198204" lon="13.5873104"><ele>1249.0</ele><time>2026-05-01T10:43:25.788Z</time></trkpt><trkpt lat="42.719888" lon="13.5873927"><ele>1249.5</ele><time>2026-05-01T10:43:26.788Z</time></trkpt><trkpt lat="42.7199409" lon="13.5874622"><ele>1250.0</ele><time>2026-05-01T10:43:27.788Z</time></trkpt><trkpt lat="42.7200094" lon="13.587539"><ele>1250.5</ele><time>2026-05-01T10:43:28.788Z</time></trkpt><trkpt lat="42.7200826" lon="13.5876099"><ele>1251.0</ele><time>2026-05-01T10:43:29.788Z</time></trkpt><trkpt lat="42.7201579" lon="13.5876864"><ele>1248.0</ele><time>2026-05-01T10:43:30.787Z</time></trkpt><trkpt lat="42.7202464" lon="13.5877464"><ele>1245.0</ele><time>2026-05-01T10:43:31.787Z</time></trkpt><trkpt lat="42.7203411" lon="13.5877893"><ele>1242.0</ele><time>2026-05-01T10:43:32.787Z</time></trkpt><trkpt lat="42.7204408" lon="13.5878028"><ele>1239.0</ele><time>2026-05-01T10:43:33.789Z</time></trkpt><trkpt lat="42.720545" lon="13.5878071"><ele>1236.0</ele><time>2026-05-01T10:43:34.788Z</time></trkpt><trkpt lat="42.7206624" lon="13.5877935"><ele>1236.0</ele><time>2026-05-01T10:43:35.788Z</time></trkpt><trkpt lat="42.7207723" lon="13.5877796"><ele>1236.0</ele><time>2026-05-01T10:43:36.788Z</time></trkpt><trkpt lat="42.7208684" lon="13.5877728"><ele>1236.0</ele><time>2026-05-01T10:43:37.787Z</time></trkpt><trkpt lat="42.7209621" lon="13.5877891"><ele>1236.0</ele><time>2026-05-01T10:43:38.789Z</time></trkpt><trkpt lat="42.7210386" lon="13.5878129"><ele>1236.0</ele><time>2026-05-01T10:43:39.788Z</time></trkpt><trkpt lat="42.7211053" lon="13.5878645"><ele>1231.8</ele><time>2026-05-01T10:43:40.789Z</time></trkpt><trkpt lat="42.7211616" lon="13.5879736"><ele>1227.6</ele><time>2026-05-01T10:43:42.789Z</time></trkpt><trkpt lat="42.721171" lon="13.5880617"><ele>1223.4</ele><time>2026-05-01T10:43:43.789Z</time></trkpt><trkpt lat="42.7211576" lon="13.5881613"><ele>1219.2</ele><time>2026-05-01T10:43:44.789Z</time></trkpt><trkpt lat="42.7211287" lon="13.5883209"><ele>1215.0</ele><time>2026-05-01T10:43:45.789Z</time></trkpt><trkpt lat="42.7211042" lon="13.5884786"><ele>1215.0</ele><time>2026-05-01T10:43:46.789Z</time></trkpt><trkpt lat="42.7210845" lon="13.5886536"><ele>1215.0</ele><time>2026-05-01T10:43:47.788Z</time></trkpt><trkpt lat="42.7210619" lon="13.5888284"><ele>1215.0</ele><time>2026-05-01T10:43:48.789Z</time></trkpt><trkpt lat="42.7210422" lon="13.5890141"><ele>1215.0</ele><time>2026-05-01T10:43:49.788Z</time></trkpt><trkpt lat="42.7210227" lon="13.5892055"><ele>1226.75</ele><time>2026-05-01T10:43:50.788Z</time></trkpt><trkpt lat="42.7210057" lon="13.5893815"><ele>1238.5</ele><time>2026-05-01T10:43:51.787Z</time></trkpt><trkpt lat="42.7209884" lon="13.5895441"><ele>1250.25</ele><time>2026-05-01T10:43:52.787Z</time></trkpt><trkpt lat="42.7209835" lon="13.5896975"><ele>1262.0</ele><time>2026-05-01T10:43:53.787Z</time></trkpt><trkpt lat="42.7209876" lon="13.5898387"><ele>1262.0</ele><time>2026-05-01T10:43:54.787Z</time></trkpt><trkpt lat="42.7209979" lon="13.5899619"><ele>1262.0</ele><time>2026-05-01T10:43:55.787Z</time></trkpt><trkpt lat="42.7210025" lon="13.5900651"><ele>1262.0</ele><time>2026-05-01T10:43:56.788Z</time></trkpt><trkpt lat="42.7209908" lon="13.5901571"><ele>1262.0</ele><time>2026-05-01T10:43:57.787Z</time></trkpt><trkpt lat="42.7209546" lon="13.5902398"><ele>1262.0</ele><time>2026-05-01T10:43:58.787Z</time></trkpt><trkpt lat="42.7208943" lon="13.5903055"><ele>1262.0</ele><time>2026-05-01T10:43:59.789Z</time></trkpt><trkpt lat="42.7208078" lon="13.5903726"><ele>1256.8</ele><time>2026-05-01T10:44:00.789Z</time></trkpt><trkpt lat="42.720716" lon="13.5904305"><ele>1251.6</ele><time>2026-05-01T10:44:01.789Z</time></trkpt><trkpt lat="42.720626" lon="13.59049"><ele>1246.3999999999999</ele><time>2026-05-01T10:44:02.787Z</time></trkpt><trkpt lat="42.7205471" lon="13.5905236"><ele>1241.2</ele><time>2026-05-01T10:44:03.787Z</time></trkpt><trkpt lat="42.7204647" lon="13.5905778"><ele>1236.0</ele><time>2026-05-01T10:44:04.788Z</time></trkpt><trkpt lat="42.7203755" lon="13.590724"><ele>1236.0</ele><time>2026-05-01T10:44:06.787Z</time></trkpt><trkpt lat="42.720352" lon="13.590839"><ele>1236.0</ele><time>2026-05-01T10:44:07.788Z</time></trkpt><trkpt lat="42.7203347" lon="13.5909673"><ele>1236.0</ele><time>2026-05-01T10:44:08.788Z</time></trkpt><trkpt lat="42.7203123" lon="13.5910798"><ele>1236.0</ele><time>2026-05-01T10:44:09.789Z</time></trkpt><trkpt lat="42.7202696" lon="13.5911923"><ele>1236.0</ele><time>2026-05-01T10:44:10.787Z</time></trkpt><trkpt lat="42.7202233" lon="13.5912801"><ele>1236.0</ele><time>2026-05-01T10:44:11.787Z</time></trkpt><trkpt lat="42.7201725" lon="13.5913753"><ele>1240.6666666666667</ele><time>2026-05-01T10:44:12.788Z</time></trkpt><trkpt lat="42.7201184" lon="13.5914459"><ele>1245.3333333333333</ele><time>2026-05-01T10:44:13.788Z</time></trkpt><trkpt lat="42.7200473" lon="13.5914771"><ele>1250.0</ele><time>2026-05-01T10:44:14.788Z</time></trkpt><trkpt lat="42.7199909" lon="13.5915878"><ele>1254.6666666666665</ele><time>2026-05-01T10:44:16.789Z</time></trkpt><trkpt lat="42.719947" lon="13.5916505"><ele>1259.3333333333333</ele><time>2026-05-01T10:44:17.789Z</time></trkpt><trkpt lat="42.7199238" lon="13.5917378"><ele>1264.0</ele><time>2026-05-01T10:44:18.787Z</time></trkpt><trkpt lat="42.7198864" lon="13.5918371"><ele>1264.0</ele><time>2026-05-01T10:44:19.788Z</time></trkpt><trkpt lat="42.7198789" lon="13.5919352"><ele>1264.0</ele><time>2026-05-01T10:44:20.789Z</time></trkpt><trkpt lat="42.7199243" lon="13.5920706"><ele>1264.0</ele><time>2026-05-01T10:44:21.789Z</time></trkpt><trkpt lat="42.7199176" lon="13.592193"><ele>1264.0</ele><time>2026-05-01T10:44:22.788Z</time></trkpt><trkpt lat="42.7199271" lon="13.592309"><ele>1264.0</ele><time>2026-05-01T10:44:23.788Z</time></trkpt><trkpt lat="42.7199039" lon="13.5924275"><ele>1264.0</ele><time>2026-05-01T10:44:24.788Z</time></trkpt><trkpt lat="42.7198879" lon="13.5925395"><ele>1263.2</ele><time>2026-05-01T10:44:25.788Z</time></trkpt><trkpt lat="42.7198385" lon="13.5926771"><ele>1262.4</ele><time>2026-05-01T10:44:26.787Z</time></trkpt><trkpt lat="42.7197859" lon="13.5927928"><ele>1261.6</ele><time>2026-05-01T10:44:27.789Z</time></trkpt><trkpt lat="42.7197587" lon="13.5929022"><ele>1260.8</ele><time>2026-05-01T10:44:28.788Z</time></trkpt><trkpt lat="42.7196752" lon="13.593022"><ele>1260.0</ele><time>2026-05-01T10:44:30.788Z</time></trkpt><trkpt lat="42.7196369" lon="13.5931405"><ele>1259.8333333333333</ele><time>2026-05-01T10:44:32.787Z</time></trkpt><trkpt lat="42.7196332" lon="13.5932662"><ele>1259.6666666666667</ele><time>2026-05-01T10:44:35.787Z</time></trkpt><trkpt lat="42.7195864" lon="13.5933417"><ele>1259.5</ele><time>2026-05-01T10:44:37.787Z</time></trkpt><trkpt lat="42.7195285" lon="13.5933823"><ele>1259.3333333333335</ele><time>2026-05-01T10:44:39.787Z</time></trkpt><trkpt lat="42.719462" lon="13.5935278"><ele>1259.1666666666667</ele><time>2026-05-01T10:44:42.788Z</time></trkpt><trkpt lat="42.7194223" lon="13.5936235"><ele>1259.0</ele><time>2026-05-01T10:44:43.788Z</time></trkpt><trkpt lat="42.7193831" lon="13.5937066"><ele>1262.1666666666667</ele><time>2026-05-01T10:44:44.788Z</time></trkpt><trkpt lat="42.7193249" lon="13.5938044"><ele>1265.3333333333335</ele><time>2026-05-01T10:44:45.788Z</time></trkpt><trkpt lat="42.7192713" lon="13.5938823"><ele>1268.5</ele><time>2026-05-01T10:44:46.788Z</time></trkpt><trkpt lat="42.7192184" lon="13.593981"><ele>1271.6666666666667</ele><time>2026-05-01T10:44:47.788Z</time></trkpt><trkpt lat="42.719182" lon="13.5941142"><ele>1274.8333333333333</ele><time>2026-05-01T10:44:48.788Z</time></trkpt><trkpt lat="42.7191728" lon="13.5942155"><ele>1278.0</ele><time>2026-05-01T10:44:49.789Z</time></trkpt><trkpt lat="42.719222" lon="13.5943224"><ele>1278.0</ele><time>2026-05-01T10:44:50.788Z</time></trkpt><trkpt lat="42.7191779" lon="13.5944167"><ele>1278.0</ele><time>2026-05-01T10:44:51.788Z</time></trkpt><trkpt lat="42.7192384" lon="13.5945305"><ele>1278.0</ele><time>2026-05-01T10:44:52.788Z</time></trkpt><trkpt lat="42.7192776" lon="13.5946314"><ele>1278.0</ele><time>2026-05-01T10:44:53.789Z</time></trkpt><trkpt lat="42.7193005" lon="13.5947296"><ele>1278.0</ele><time>2026-05-01T10:44:54.789Z</time></trkpt><trkpt lat="42.71933" lon="13.5948055"><ele>1278.0</ele><time>2026-05-01T10:44:55.787Z</time></trkpt><trkpt lat="42.7194226" lon="13.594884"><ele>1280.5</ele><time>2026-05-01T10:44:57.789Z</time></trkpt><trkpt lat="42.7196" lon="13.5948581"><ele>1283.0</ele><time>2026-05-01T10:44:59.789Z</time></trkpt><trkpt lat="42.7197072" lon="13.5948236"><ele>1285.5</ele><time>2026-05-01T10:45:00.788Z</time></trkpt><trkpt lat="42.719826" lon="13.5947694"><ele>1288.0</ele><time>2026-05-01T10:45:01.787Z</time></trkpt><trkpt lat="42.7199537" lon="13.5947114"><ele>1288.0</ele><time>2026-05-01T10:45:02.788Z</time></trkpt><trkpt lat="42.720074" lon="13.5946593"><ele>1288.0</ele><time>2026-05-01T10:45:03.788Z</time></trkpt><trkpt lat="42.7201844" lon="13.5946068"><ele>1288.0</ele><time>2026-05-01T10:45:04.788Z</time></trkpt><trkpt lat="42.7202875" lon="13.5945629"><ele>1288.0</ele><time>2026-05-01T10:45:05.787Z</time></trkpt><trkpt lat="42.7203795" lon="13.5945212"><ele>1288.0</ele><time>2026-05-01T10:45:06.789Z</time></trkpt><trkpt lat="42.720469" lon="13.5944812"><ele>1290.1666666666665</ele><time>2026-05-01T10:45:07.789Z</time></trkpt><trkpt lat="42.7205497" lon="13.5944416"><ele>1292.3333333333333</ele><time>2026-05-01T10:45:08.789Z</time></trkpt><trkpt lat="42.7206206" lon="13.5944119"><ele>1294.5</ele><time>2026-05-01T10:45:09.787Z</time></trkpt><trkpt lat="42.7206838" lon="13.5943907"><ele>1296.6666666666667</ele><time>2026-05-01T10:45:10.788Z</time></trkpt><trkpt lat="42.7207927" lon="13.5944074"><ele>1298.8333333333335</ele><time>2026-05-01T10:45:12.788Z</time></trkpt><trkpt lat="42.7208572" lon="13.5945136"><ele>1301.0</ele><time>2026-05-01T10:45:14.787Z</time></trkpt><trkpt lat="42.7208042" lon="13.594638"><ele>1301.0</ele><time>2026-05-01T10:45:16.787Z</time></trkpt><trkpt lat="42.7206603" lon="13.5946844"><ele>1301.0</ele><time>2026-05-01T10:45:18.787Z</time></trkpt><trkpt lat="42.7205645" lon="13.5946858"><ele>1301.0</ele><time>2026-05-01T10:45:19.788Z</time></trkpt><trkpt lat="42.7204754" lon="13.5947112"><ele>1301.0</ele><time>2026-05-01T10:45:20.788Z</time></trkpt><trkpt lat="42.7203809" lon="13.5947618"><ele>1301.0</ele><time>2026-05-01T10:45:21.787Z</time></trkpt><trkpt lat="42.7202779" lon="13.5948388"><ele>1297.75</ele><time>2026-05-01T10:45:22.787Z</time></trkpt><trkpt lat="42.7201772" lon="13.5949344"><ele>1294.5</ele><time>2026-05-01T10:45:23.788Z</time></trkpt><trkpt lat="42.7200797" lon="13.5950461"><ele>1291.25</ele><time>2026-05-01T10:45:24.787Z</time></trkpt><trkpt lat="42.7199722" lon="13.5951654"><ele>1288.0</ele><time>2026-05-01T10:45:25.787Z</time></trkpt><trkpt lat="42.7198603" lon="13.5953119"><ele>1289.5</ele><time>2026-05-01T10:45:26.787Z</time></trkpt><trkpt lat="42.7197557" lon="13.5954138"><ele>1291.0</ele><time>2026-05-01T10:45:27.789Z</time></trkpt><trkpt lat="42.7196449" lon="13.5955022"><ele>1292.5</ele><time>2026-05-01T10:45:28.788Z</time></trkpt><trkpt lat="42.7195313" lon="13.5955834"><ele>1294.0</ele><time>2026-05-01T10:45:29.788Z</time></trkpt><trkpt lat="42.7194083" lon="13.5956459"><ele>1294.0</ele><time>2026-05-01T10:45:30.789Z</time></trkpt><trkpt lat="42.7192996" lon="13.595714"><ele>1294.0</ele><time>2026-05-01T10:45:31.789Z</time></trkpt><trkpt lat="42.7191897" lon="13.5957771"><ele>1294.0</ele><time>2026-05-01T10:45:32.788Z</time></trkpt><trkpt lat="42.7191009" lon="13.5958145"><ele>1294.0</ele><time>2026-05-01T10:45:33.788Z</time></trkpt><trkpt lat="42.7190242" lon="13.5958368"><ele>1294.0</ele><time>2026-05-01T10:45:34.789Z</time></trkpt><trkpt lat="42.7189579" lon="13.5958298"><ele>1294.0</ele><time>2026-05-01T10:45:35.788Z</time></trkpt><trkpt lat="42.7188736" lon="13.595722"><ele>1294.0</ele><time>2026-05-01T10:45:37.789Z</time></trkpt><trkpt lat="42.7188545" lon="13.5955634"><ele>1294.0</ele><time>2026-05-01T10:45:39.788Z</time></trkpt><trkpt lat="42.7188636" lon="13.595469"><ele>1294.0</ele><time>2026-05-01T10:45:40.789Z</time></trkpt><trkpt lat="42.7188772" lon="13.5953758"><ele>1294.0</ele><time>2026-05-01T10:45:41.788Z</time></trkpt><trkpt lat="42.7188519" lon="13.5952848"><ele>1294.0</ele><time>2026-05-01T10:45:42.788Z</time></trkpt><trkpt lat="42.7188294" lon="13.5951904"><ele>1292.5</ele><time>2026-05-01T10:45:43.787Z</time></trkpt><trkpt lat="42.7187284" lon="13.5951399"><ele>1291.0</ele><time>2026-05-01T10:45:44.787Z</time></trkpt><trkpt lat="42.7186289" lon="13.5950926"><ele>1289.5</ele><time>2026-05-01T10:45:45.788Z</time></trkpt><trkpt lat="42.7185487" lon="13.5950624"><ele>1288.0</ele><time>2026-05-01T10:45:46.788Z</time></trkpt><trkpt lat="42.7184786" lon="13.5950224"><ele>1286.5</ele><time>2026-05-01T10:45:47.787Z</time></trkpt><trkpt lat="42.7184214" lon="13.5949702"><ele>1285.0</ele><time>2026-05-01T10:45:48.787Z</time></trkpt><trkpt lat="42.7183637" lon="13.5949065"><ele>1289.6</ele><time>2026-05-01T10:45:49.788Z</time></trkpt><trkpt lat="42.7183048" lon="13.5948089"><ele>1294.2</ele><time>2026-05-01T10:45:50.787Z</time></trkpt><trkpt lat="42.7183081" lon="13.5946566"><ele>1298.8000000000002</ele><time>2026-05-01T10:45:51.787Z</time></trkpt><trkpt lat="42.718298" lon="13.5945202"><ele>1303.4</ele><time>2026-05-01T10:45:52.788Z</time></trkpt><trkpt lat="42.7183416" lon="13.5943972"><ele>1308.0</ele><time>2026-05-01T10:45:53.788Z</time></trkpt><trkpt lat="42.718432" lon="13.594235"><ele>1309.0</ele><time>2026-05-01T10:45:54.787Z</time></trkpt><trkpt lat="42.7184775" lon="13.5940969"><ele>1310.0</ele><time>2026-05-01T10:45:55.787Z</time></trkpt><trkpt lat="42.7185293" lon="13.5939786"><ele>1311.0</ele><time>2026-05-01T10:45:56.788Z</time></trkpt><trkpt lat="42.7185518" lon="13.5938653"><ele>1312.0</ele><time>2026-05-01T10:45:57.787Z</time></trkpt><trkpt lat="42.7185783" lon="13.5937768"><ele>1313.0</ele><time>2026-05-01T10:45:58.787Z</time></trkpt><trkpt lat="42.7186113" lon="13.5936062"><ele>1308.0</ele><time>2026-05-01T10:46:00.788Z</time></trkpt><trkpt lat="42.7186248" lon="13.5935084"><ele>1303.0</ele><time>2026-05-01T10:46:01.787Z</time></trkpt><trkpt lat="42.7186393" lon="13.5933925"><ele>1298.0</ele><time>2026-05-01T10:46:02.789Z</time></trkpt><trkpt lat="42.7186527" lon="13.5932748"><ele>1293.0</ele><time>2026-05-01T10:46:03.787Z</time></trkpt><trkpt lat="42.7186768" lon="13.593136"><ele>1288.0</ele><time>2026-05-01T10:46:04.787Z</time></trkpt><trkpt lat="42.7186936" lon="13.5929902"><ele>1288.0</ele><time>2026-05-01T10:46:05.788Z</time></trkpt><trkpt lat="42.7187244" lon="13.5928466"><ele>1288.0</ele><time>2026-05-01T10:46:06.787Z</time></trkpt><trkpt lat="42.7187506" lon="13.5926787"><ele>1288.0</ele><time>2026-05-01T10:46:07.787Z</time></trkpt><trkpt lat="42.7188015" lon="13.5925411"><ele>1288.0</ele><time>2026-05-01T10:46:08.788Z</time></trkpt><trkpt lat="42.7188361" lon="13.5923835"><ele>1290.4</ele><time>2026-05-01T10:46:09.788Z</time></trkpt><trkpt lat="42.7188441" lon="13.5922443"><ele>1292.8000000000002</ele><time>2026-05-01T10:46:10.787Z</time></trkpt><trkpt lat="42.7188541" lon="13.5920914"><ele>1295.2</ele><time>2026-05-01T10:46:11.788Z</time></trkpt><trkpt lat="42.7187862" lon="13.591973"><ele>1297.6</ele><time>2026-05-01T10:46:12.787Z</time></trkpt><trkpt lat="42.7187932" lon="13.5918241"><ele>1300.0</ele><time>2026-05-01T10:46:13.789Z</time></trkpt><trkpt lat="42.718788" lon="13.5916846"><ele>1301.8</ele><time>2026-05-01T10:46:14.788Z</time></trkpt><trkpt lat="42.718826" lon="13.5915737"><ele>1303.6</ele><time>2026-05-01T10:46:15.787Z</time></trkpt><trkpt lat="42.7188738" lon="13.5914406"><ele>1305.4</ele><time>2026-05-01T10:46:16.788Z</time></trkpt><trkpt lat="42.7189036" lon="13.5913112"><ele>1307.2</ele><time>2026-05-01T10:46:17.788Z</time></trkpt><trkpt lat="42.7189529" lon="13.5911764"><ele>1309.0</ele><time>2026-05-01T10:46:18.788Z</time></trkpt><trkpt lat="42.7189995" lon="13.5910352"><ele>1313.5</ele><time>2026-05-01T10:46:19.787Z</time></trkpt><trkpt lat="42.7190523" lon="13.5908934"><ele>1318.0</ele><time>2026-05-01T10:46:20.788Z</time></trkpt><trkpt lat="42.7191223" lon="13.5907932"><ele>1322.5</ele><time>2026-05-01T10:46:21.788Z</time></trkpt><trkpt lat="42.7191906" lon="13.5906718"><ele>1327.0</ele><time>2026-05-01T10:46:22.787Z</time></trkpt><trkpt lat="42.7192899" lon="13.5905685"><ele>1327.0</ele><time>2026-05-01T10:46:23.789Z</time></trkpt><trkpt lat="42.719375" lon="13.590476"><ele>1327.0</ele><time>2026-05-01T10:46:24.789Z</time></trkpt><trkpt lat="42.7194527" lon="13.5903996"><ele>1327.0</ele><time>2026-05-01T10:46:25.788Z</time></trkpt><trkpt lat="42.7195249" lon="13.5903037"><ele>1327.0</ele><time>2026-05-01T10:46:26.788Z</time></trkpt><trkpt lat="42.7195926" lon="13.5902114"><ele>1327.0</ele><time>2026-05-01T10:46:27.789Z</time></trkpt><trkpt lat="42.7196281" lon="13.590115"><ele>1323.3333333333333</ele><time>2026-05-01T10:46:28.788Z</time></trkpt><trkpt lat="42.7196734" lon="13.5900486"><ele>1319.6666666666665</ele><time>2026-05-01T10:46:29.788Z</time></trkpt><trkpt lat="42.7196797" lon="13.5898838"><ele>1316.0</ele><time>2026-05-01T10:46:30.788Z</time></trkpt><trkpt lat="42.7196087" lon="13.5898424"><ele>1312.3333333333333</ele><time>2026-05-01T10:46:31.789Z</time></trkpt><trkpt lat="42.7196042" lon="13.5897471"><ele>1308.6666666666667</ele><time>2026-05-01T10:46:32.788Z</time></trkpt><trkpt lat="42.7195548" lon="13.5896791"><ele>1305.0</ele><time>2026-05-01T10:46:33.787Z</time></trkpt><trkpt lat="42.7194925" lon="13.5896474"><ele>1305.0</ele><time>2026-05-01T10:46:34.788Z</time></trkpt><trkpt lat="42.7194363" lon="13.5896037"><ele>1305.0</ele><time>2026-05-01T10:46:35.789Z</time></trkpt><trkpt lat="42.7193573" lon="13.5895706"><ele>1305.0</ele><time>2026-05-01T10:46:36.788Z</time></trkpt><trkpt lat="42.719276" lon="13.589542"><ele>1305.0</ele><time>2026-05-01T10:46:37.788Z</time></trkpt><trkpt lat="42.7191904" lon="13.5895123"><ele>1305.0</ele><time>2026-05-01T10:46:38.789Z</time></trkpt><trkpt lat="42.7190887" lon="13.5894963"><ele>1305.0</ele><time>2026-05-01T10:46:39.789Z</time></trkpt><trkpt lat="42.7189869" lon="13.5894802"><ele>1308.0</ele><time>2026-05-01T10:46:40.787Z</time></trkpt><trkpt lat="42.7188851" lon="13.5894739"><ele>1311.0</ele><time>2026-05-01T10:46:41.788Z</time></trkpt><trkpt lat="42.7187638" lon="13.5894611"><ele>1314.0</ele><time>2026-05-01T10:46:42.788Z</time></trkpt><trkpt lat="42.718632" lon="13.5894317"><ele>1317.0</ele><time>2026-05-01T10:46:43.789Z</time></trkpt><trkpt lat="42.7185204" lon="13.5894629"><ele>1319.3999999999999</ele><time>2026-05-01T10:46:44.788Z</time></trkpt><trkpt lat="42.7184062" lon="13.5894763"><ele>1321.8</ele><time>2026-05-01T10:46:45.787Z</time></trkpt><trkpt lat="42.7183077" lon="13.5894349"><ele>1324.2</ele><time>2026-05-01T10:46:46.787Z</time></trkpt><trkpt lat="42.7182101" lon="13.5894315"><ele>1326.6</ele><time>2026-05-01T10:46:47.788Z</time></trkpt><trkpt lat="42.7181378" lon="13.5894077"><ele>1329.0</ele><time>2026-05-01T10:46:48.789Z</time></trkpt><trkpt lat="42.7180195" lon="13.5894478"><ele>1332.0</ele><time>2026-05-01T10:46:50.789Z</time></trkpt><trkpt lat="42.7179376" lon="13.5895518"><ele>1335.0</ele><time>2026-05-01T10:46:52.788Z</time></trkpt><trkpt lat="42.7179759" lon="13.5896416"><ele>1338.0</ele><time>2026-05-01T10:46:53.787Z</time></trkpt><trkpt lat="42.7180488" lon="13.5897247"><ele>1341.0</ele><time>2026-05-01T10:46:55.788Z</time></trkpt><trkpt lat="42.7181294" lon="13.5897838"><ele>1344.0</ele><time>2026-05-01T10:46:56.789Z</time></trkpt><trkpt lat="42.7182667" lon="13.5897784"><ele>1344.0</ele><time>2026-05-01T10:46:57.788Z</time></trkpt><trkpt lat="42.7183904" lon="13.5897651"><ele>1344.0</ele><time>2026-05-01T10:46:58.787Z</time></trkpt><trkpt lat="42.718513" lon="13.58976"><ele>1344.0</ele><time>2026-05-01T10:46:59.787Z</time></trkpt><trkpt lat="42.7186295" lon="13.5897675"><ele>1344.0</ele><time>2026-05-01T10:47:00.788Z</time></trkpt><trkpt lat="42.7187328" lon="13.5897524"><ele>1342.1666666666667</ele><time>2026-05-01T10:47:01.789Z</time></trkpt><trkpt lat="42.7188152" lon="13.5897862"><ele>1340.3333333333333</ele><time>2026-05-01T10:47:02.787Z</time></trkpt><trkpt lat="42.7188775" lon="13.5898272"><ele>1338.5</ele><time>2026-05-01T10:47:03.787Z</time></trkpt><trkpt lat="42.7189359" lon="13.5898999"><ele>1336.6666666666665</ele><time>2026-05-01T10:47:04.789Z</time></trkpt><trkpt lat="42.7189697" lon="13.589982"><ele>1334.8333333333333</ele><time>2026-05-01T10:47:05.789Z</time></trkpt><trkpt lat="42.718985" lon="13.5900775"><ele>1333.0</ele><time>2026-05-01T10:47:06.788Z</time></trkpt><trkpt lat="42.7189547" lon="13.5901788"><ele>1333.0</ele><time>2026-05-01T10:47:07.787Z</time></trkpt><trkpt lat="42.7188783" lon="13.5902503"><ele>1333.0</ele><time>2026-05-01T10:47:09.789Z</time></trkpt><trkpt lat="42.7188083" lon="13.5902694"><ele>1333.0</ele><time>2026-05-01T10:47:10.788Z</time></trkpt><trkpt lat="42.7187267" lon="13.5902704"><ele>1333.0</ele><time>2026-05-01T10:47:11.788Z</time></trkpt><trkpt lat="42.7186481" lon="13.5902331"><ele>1333.0</ele><time>2026-05-01T10:47:12.788Z</time></trkpt><trkpt lat="42.7185663" lon="13.5902076"><ele>1333.0</ele><time>2026-05-01T10:47:13.787Z</time></trkpt><trkpt lat="42.718489" lon="13.5901737"><ele>1335.75</ele><time>2026-05-01T10:47:14.789Z</time></trkpt><trkpt lat="42.7183714" lon="13.5901513"><ele>1338.5</ele><time>2026-05-01T10:47:15.789Z</time></trkpt><trkpt lat="42.7182565" lon="13.5901192"><ele>1341.25</ele><time>2026-05-01T10:47:16.787Z</time></trkpt><trkpt lat="42.7180975" lon="13.5901206"><ele>1344.0</ele><time>2026-05-01T10:47:17.788Z</time></trkpt><trkpt lat="42.7179423" lon="13.5900986"><ele>1344.0</ele><time>2026-05-01T10:47:18.787Z</time></trkpt><trkpt lat="42.717804" lon="13.5900921"><ele>1344.0</ele><time>2026-05-01T10:47:19.788Z</time></trkpt><trkpt lat="42.7176678" lon="13.5900563"><ele>1344.0</ele><time>2026-05-01T10:47:20.787Z</time></trkpt><trkpt lat="42.7175308" lon="13.5900383"><ele>1344.0</ele><time>2026-05-01T10:47:21.788Z</time></trkpt><trkpt lat="42.7174363" lon="13.5900406"><ele>1347.2</ele><time>2026-05-01T10:47:22.788Z</time></trkpt><trkpt lat="42.7173231" lon="13.5900191"><ele>1350.4</ele><time>2026-05-01T10:47:23.788Z</time></trkpt><trkpt lat="42.7172365" lon="13.5899616"><ele>1353.6</ele><time>2026-05-01T10:47:24.788Z</time></trkpt><trkpt lat="42.7172168" lon="13.5898399"><ele>1356.8</ele><time>2026-05-01T10:47:25.788Z</time></trkpt><trkpt lat="42.7171639" lon="13.5897728"><ele>1360.0</ele><time>2026-05-01T10:47:26.788Z</time></trkpt><trkpt lat="42.7170935" lon="13.589678"><ele>1358.25</ele><time>2026-05-01T10:47:27.789Z</time></trkpt><trkpt lat="42.7170425" lon="13.5894872"><ele>1356.5</ele><time>2026-05-01T10:47:28.788Z</time></trkpt><trkpt lat="42.7169928" lon="13.5893216"><ele>1354.75</ele><time>2026-05-01T10:47:29.788Z</time></trkpt><trkpt lat="42.7169517" lon="13.5891304"><ele>1353.0</ele><time>2026-05-01T10:47:30.789Z</time></trkpt><trkpt lat="42.7168963" lon="13.5889536"><ele>1356.75</ele><time>2026-05-01T10:47:31.789Z</time></trkpt><trkpt lat="42.7168605" lon="13.588817"><ele>1360.5</ele><time>2026-05-01T10:47:32.787Z</time></trkpt><trkpt lat="42.7167557" lon="13.5886624"><ele>1364.25</ele><time>2026-05-01T10:47:33.787Z</time></trkpt><trkpt lat="42.7166735" lon="13.5885166"><ele>1368.0</ele><time>2026-05-01T10:47:34.788Z</time></trkpt><trkpt lat="42.7166103" lon="13.5883595"><ele>1368.0</ele><time>2026-05-01T10:47:35.788Z</time></trkpt><trkpt lat="42.7165476" lon="13.5882065"><ele>1368.0</ele><time>2026-05-01T10:47:36.789Z</time></trkpt><trkpt lat="42.7164798" lon="13.5880498"><ele>1368.0</ele><time>2026-05-01T10:47:37.789Z</time></trkpt><trkpt lat="42.7164603" lon="13.5878589"><ele>1368.0</ele><time>2026-05-01T10:47:38.788Z</time></trkpt><trkpt lat="42.7164052" lon="13.5876946"><ele>1366.0</ele><time>2026-05-01T10:47:39.789Z</time></trkpt><trkpt lat="42.7163484" lon="13.5875667"><ele>1364.0</ele><time>2026-05-01T10:47:40.788Z</time></trkpt><trkpt lat="42.7162879" lon="13.5874259"><ele>1362.0</ele><time>2026-05-01T10:47:41.788Z</time></trkpt><trkpt lat="42.7162273" lon="13.5873224"><ele>1360.0</ele><time>2026-05-01T10:47:42.788Z</time></trkpt><trkpt lat="42.7161566" lon="13.5871894"><ele>1358.0</ele><time>2026-05-01T10:47:43.788Z</time></trkpt><trkpt lat="42.7160951" lon="13.5870348"><ele>1361.1666666666667</ele><time>2026-05-01T10:47:44.789Z</time></trkpt><trkpt lat="42.7160073" lon="13.5869896"><ele>1364.3333333333335</ele><time>2026-05-01T10:47:46.788Z</time></trkpt><trkpt lat="42.7159226" lon="13.5869984"><ele>1367.5</ele><time>2026-05-01T10:47:49.789Z</time></trkpt><trkpt lat="42.7158634" lon="13.5870512"><ele>1370.6666666666667</ele><time>2026-05-01T10:48:19.787Z</time></trkpt><trkpt lat="42.7158073" lon="13.5871119"><ele>1373.8333333333333</ele><time>2026-05-01T10:48:24.787Z</time></trkpt><trkpt lat="42.7157912" lon="13.5872023"><ele>1377.0</ele><time>2026-05-01T10:48:27.787Z</time></trkpt><trkpt lat="42.7158353" lon="13.5872921"><ele>1377.3999999999999</ele><time>2026-05-01T10:48:35.787Z</time></trkpt><trkpt lat="42.7158618" lon="13.5873812"><ele>1377.8</ele><time>2026-05-01T10:48:44.787Z</time></trkpt><trkpt lat="42.7159213" lon="13.5874686"><ele>1378.2</ele><time>2026-05-01T10:48:47.788Z</time></trkpt><trkpt lat="42.7159701" lon="13.5875999"><ele>1378.6</ele><time>2026-05-01T10:48:48.786Z</time></trkpt><trkpt lat="42.7159971" lon="13.5877399"><ele>1379.0</ele><time>2026-05-01T10:48:49.786Z</time></trkpt><trkpt lat="42.7160279" lon="13.5878499"><ele>1377.1666666666667</ele><time>2026-05-01T10:48:50.787Z</time></trkpt><trkpt lat="42.7160349" lon="13.5879803"><ele>1375.3333333333335</ele><time>2026-05-01T10:48:51.787Z</time></trkpt><trkpt lat="42.7160462" lon="13.5880953"><ele>1373.5</ele><time>2026-05-01T10:48:52.786Z</time></trkpt><trkpt lat="42.7160882" lon="13.5882252"><ele>1371.6666666666667</ele><time>2026-05-01T10:48:53.787Z</time></trkpt><trkpt lat="42.7161107" lon="13.5883191"><ele>1369.8333333333333</ele><time>2026-05-01T10:48:54.787Z</time></trkpt><trkpt lat="42.7161496" lon="13.588429"><ele>1368.0</ele><time>2026-05-01T10:48:55.786Z</time></trkpt><trkpt lat="42.7161791" lon="13.5885899"><ele>1369.0</ele><time>2026-05-01T10:48:56.787Z</time></trkpt><trkpt lat="42.7162041" lon="13.5887276"><ele>1370.0</ele><time>2026-05-01T10:48:57.786Z</time></trkpt><trkpt lat="42.7162136" lon="13.5889107"><ele>1371.0</ele><time>2026-05-01T10:48:58.788Z</time></trkpt><trkpt lat="42.7162367" lon="13.5890692"><ele>1372.0</ele><time>2026-05-01T10:48:59.788Z</time></trkpt><trkpt lat="42.7162693" lon="13.589206"><ele>1372.0</ele><time>2026-05-01T10:49:00.788Z</time></trkpt><trkpt lat="42.7162962" lon="13.589363"><ele>1372.0</ele><time>2026-05-01T10:49:01.787Z</time></trkpt><trkpt lat="42.716332" lon="13.5895049"><ele>1372.0</ele><time>2026-05-01T10:49:02.788Z</time></trkpt><trkpt lat="42.7163628" lon="13.5896401"><ele>1372.0</ele><time>2026-05-01T10:49:03.787Z</time></trkpt><trkpt lat="42.7163934" lon="13.5897614"><ele>1372.0</ele><time>2026-05-01T10:49:04.787Z</time></trkpt><trkpt lat="42.7164215" lon="13.5898749"><ele>1373.8</ele><time>2026-05-01T10:49:05.787Z</time></trkpt><trkpt lat="42.7164353" lon="13.5899724"><ele>1375.6</ele><time>2026-05-01T10:49:06.787Z</time></trkpt><trkpt lat="42.7164254" lon="13.5900625"><ele>1377.3999999999999</ele><time>2026-05-01T10:49:07.788Z</time></trkpt><trkpt lat="42.7163864" lon="13.5901976"><ele>1379.1999999999998</ele><time>2026-05-01T10:49:09.787Z</time></trkpt><trkpt lat="42.71629" lon="13.5902157"><ele>1381.0</ele><time>2026-05-01T10:49:11.787Z</time></trkpt><trkpt lat="42.7161917" lon="13.5900846"><ele>1381.0</ele><time>2026-05-01T10:49:13.788Z</time></trkpt><trkpt lat="42.716151" lon="13.589991"><ele>1381.0</ele><time>2026-05-01T10:49:14.786Z</time></trkpt><trkpt lat="42.7161503" lon="13.5898549"><ele>1381.0</ele><time>2026-05-01T10:49:15.787Z</time></trkpt><trkpt lat="42.7161279" lon="13.5897364"><ele>1381.0</ele><time>2026-05-01T10:49:17.788Z</time></trkpt><trkpt lat="42.7160797" lon="13.589637"><ele>1381.0</ele><time>2026-05-01T10:49:18.787Z</time></trkpt><trkpt lat="42.7160286" lon="13.5895219"><ele>1385.75</ele><time>2026-05-01T10:49:19.787Z</time></trkpt><trkpt lat="42.7159469" lon="13.5893546"><ele>1390.5</ele><time>2026-05-01T10:49:20.788Z</time></trkpt><trkpt lat="42.7158653" lon="13.5892437"><ele>1395.25</ele><time>2026-05-01T10:49:21.788Z</time></trkpt><trkpt lat="42.7157791" lon="13.5891346"><ele>1400.0</ele><time>2026-05-01T10:49:22.786Z</time></trkpt><trkpt lat="42.7157257" lon="13.5890224"><ele>1400.0</ele><time>2026-05-01T10:49:23.787Z</time></trkpt><trkpt lat="42.7156425" lon="13.5889352"><ele>1400.0</ele><time>2026-05-01T10:49:25.787Z</time></trkpt><trkpt lat="42.7155763" lon="13.5889485"><ele>1400.0</ele><time>2026-05-01T10:49:26.788Z</time></trkpt><trkpt lat="42.7155113" lon="13.5889724"><ele>1400.0</ele><time>2026-05-01T10:49:27.787Z</time></trkpt><trkpt lat="42.7154157" lon="13.589016"><ele>1400.0</ele><time>2026-05-01T10:49:28.787Z</time></trkpt><trkpt lat="42.7153328" lon="13.5890521"><ele>1400.0</ele><time>2026-05-01T10:49:29.787Z</time></trkpt><trkpt lat="42.715244" lon="13.5890876"><ele>1400.8</ele><time>2026-05-01T10:49:30.787Z</time></trkpt><trkpt lat="42.7151303" lon="13.5890576"><ele>1401.6</ele><time>2026-05-01T10:49:32.786Z</time></trkpt><trkpt lat="42.715064" lon="13.5889813"><ele>1402.4</ele><time>2026-05-01T10:49:33.787Z</time></trkpt><trkpt lat="42.7149926" lon="13.5888458"><ele>1403.2</ele><time>2026-05-01T10:49:35.787Z</time></trkpt><trkpt lat="42.7149535" lon="13.588714"><ele>1404.0</ele><time>2026-05-01T10:49:36.787Z</time></trkpt><trkpt lat="42.7148914" lon="13.5885982"><ele>1404.0</ele><time>2026-05-01T10:49:38.787Z</time></trkpt><trkpt lat="42.7148645" lon="13.5885142"><ele>1404.0</ele><time>2026-05-01T10:49:39.787Z</time></trkpt><trkpt lat="42.7147808" lon="13.5884895"><ele>1404.0</ele><time>2026-05-01T10:49:40.787Z</time></trkpt><trkpt lat="42.7146443" lon="13.5884563"><ele>1404.0</ele><time>2026-05-01T10:49:41.787Z</time></trkpt><trkpt lat="42.7145372" lon="13.5884437"><ele>1404.0</ele><time>2026-05-01T10:49:42.788Z</time></trkpt><trkpt lat="42.7144283" lon="13.5884269"><ele>1407.25</ele><time>2026-05-01T10:49:43.786Z</time></trkpt><trkpt lat="42.7143117" lon="13.5884"><ele>1410.5</ele><time>2026-05-01T10:49:44.786Z</time></trkpt><trkpt lat="42.7141996" lon="13.5883611"><ele>1413.75</ele><time>2026-05-01T10:49:45.788Z</time></trkpt><trkpt lat="42.714089" lon="13.588328"><ele>1417.0</ele><time>2026-05-01T10:49:46.787Z</time></trkpt><trkpt lat="42.7139755" lon="13.5883012"><ele>1417.0</ele><time>2026-05-01T10:49:47.787Z</time></trkpt><trkpt lat="42.7138912" lon="13.5882174"><ele>1417.0</ele><time>2026-05-01T10:49:48.786Z</time></trkpt><trkpt lat="42.7138364" lon="13.5881238"><ele>1417.0</ele><time>2026-05-01T10:49:49.787Z</time></trkpt><trkpt lat="42.7137703" lon="13.5880323"><ele>1417.0</ele><time>2026-05-01T10:49:50.787Z</time></trkpt><trkpt lat="42.7137074" lon="13.587913"><ele>1417.0</ele><time>2026-05-01T10:49:51.787Z</time></trkpt><trkpt lat="42.7136908" lon="13.5878127"><ele>1416.1666666666665</ele><time>2026-05-01T10:49:52.787Z</time></trkpt><trkpt lat="42.7137522" lon="13.587651"><ele>1415.3333333333333</ele><time>2026-05-01T10:49:53.787Z</time></trkpt><trkpt lat="42.713773" lon="13.5875434"><ele>1414.5</ele><time>2026-05-01T10:49:54.786Z</time></trkpt><trkpt lat="42.713758" lon="13.5874405"><ele>1413.6666666666667</ele><time>2026-05-01T10:49:55.787Z</time></trkpt><trkpt lat="42.7137304" lon="13.5873529"><ele>1412.8333333333335</ele><time>2026-05-01T10:49:56.787Z</time></trkpt><trkpt lat="42.7136928" lon="13.5872808"><ele>1412.0</ele><time>2026-05-01T10:49:57.787Z</time></trkpt><trkpt lat="42.7136194" lon="13.5872212"><ele>1412.6666666666667</ele><time>2026-05-01T10:49:59.786Z</time></trkpt><trkpt lat="42.7135472" lon="13.5872152"><ele>1413.3333333333335</ele><time>2026-05-01T10:50:02.786Z</time></trkpt><trkpt lat="42.7134684" lon="13.5872539"><ele>1414.0</ele><time>2026-05-01T10:50:16.788Z</time></trkpt><trkpt lat="42.7133809" lon="13.5873196"><ele>1414.6666666666667</ele><time>2026-05-01T10:52:03.786Z</time></trkpt><trkpt lat="42.7133144" lon="13.5873703"><ele>1415.3333333333333</ele><time>2026-05-01T10:52:04.786Z</time></trkpt><trkpt lat="42.7132422" lon="13.5874352"><ele>1416.0</ele><time>2026-05-01T10:52:05.788Z</time></trkpt><trkpt lat="42.7131589" lon="13.5875104"><ele>1416.0</ele><time>2026-05-01T10:52:06.787Z</time></trkpt><trkpt lat="42.7130707" lon="13.5875826"><ele>1416.0</ele><time>2026-05-01T10:52:07.788Z</time></trkpt><trkpt lat="42.7129639" lon="13.587667"><ele>1416.0</ele><time>2026-05-01T10:52:08.786Z</time></trkpt><trkpt lat="42.7128523" lon="13.5877573"><ele>1416.0</ele><time>2026-05-01T10:52:09.788Z</time></trkpt><trkpt lat="42.7127467" lon="13.5878422"><ele>1417.0</ele><time>2026-05-01T10:52:10.787Z</time></trkpt><trkpt lat="42.7126495" lon="13.5879441"><ele>1418.0</ele><time>2026-05-01T10:52:11.787Z</time></trkpt><trkpt lat="42.7125582" lon="13.5880325"><ele>1419.0</ele><time>2026-05-01T10:52:12.787Z</time></trkpt><trkpt lat="42.7124566" lon="13.5881244"><ele>1420.0</ele><time>2026-05-01T10:52:13.787Z</time></trkpt><trkpt lat="42.7123658" lon="13.5882125"><ele>1420.0</ele><time>2026-05-01T10:52:14.787Z</time></trkpt><trkpt lat="42.7122716" lon="13.5882906"><ele>1420.0</ele><time>2026-05-01T10:52:15.786Z</time></trkpt><trkpt lat="42.7121811" lon="13.5883622"><ele>1420.0</ele><time>2026-05-01T10:52:16.787Z</time></trkpt><trkpt lat="42.7120927" lon="13.5884457"><ele>1420.0</ele><time>2026-05-01T10:52:17.787Z</time></trkpt><trkpt lat="42.7120082" lon="13.5885205"><ele>1420.0</ele><time>2026-05-01T10:52:18.786Z</time></trkpt><trkpt lat="42.7119202" lon="13.5885849"><ele>1420.2</ele><time>2026-05-01T10:52:19.787Z</time></trkpt><trkpt lat="42.7118203" lon="13.588634"><ele>1420.4</ele><time>2026-05-01T10:52:20.787Z</time></trkpt><trkpt lat="42.7117131" lon="13.5886659"><ele>1420.6</ele><time>2026-05-01T10:52:21.787Z</time></trkpt><trkpt lat="42.7116125" lon="13.5886879"><ele>1420.8</ele><time>2026-05-01T10:52:22.787Z</time></trkpt><trkpt lat="42.711519" lon="13.5887166"><ele>1421.0</ele><time>2026-05-01T10:52:23.788Z</time></trkpt><trkpt lat="42.7114392" lon="13.588761"><ele>1421.0</ele><time>2026-05-01T10:52:24.787Z</time></trkpt><trkpt lat="42.7113612" lon="13.5888395"><ele>1421.0</ele><time>2026-05-01T10:52:25.788Z</time></trkpt><trkpt lat="42.7112719" lon="13.5889391"><ele>1421.0</ele><time>2026-05-01T10:52:26.786Z</time></trkpt><trkpt lat="42.7111777" lon="13.5890457"><ele>1421.0</ele><time>2026-05-01T10:52:27.787Z</time></trkpt><trkpt lat="42.7110669" lon="13.5891429"><ele>1419.25</ele><time>2026-05-01T10:52:28.786Z</time></trkpt><trkpt lat="42.7109622" lon="13.5892372"><ele>1417.5</ele><time>2026-05-01T10:52:29.788Z</time></trkpt><trkpt lat="42.7108742" lon="13.5893336"><ele>1415.75</ele><time>2026-05-01T10:52:30.788Z</time></trkpt><trkpt lat="42.7107924" lon="13.5894444"><ele>1414.0</ele><time>2026-05-01T10:52:31.787Z</time></trkpt><trkpt lat="42.7107194" lon="13.5895622"><ele>1414.0</ele><time>2026-05-01T10:52:32.787Z</time></trkpt><trkpt lat="42.7106452" lon="13.5896811"><ele>1414.0</ele><time>2026-05-01T10:52:33.787Z</time></trkpt><trkpt lat="42.7105597" lon="13.5897734"><ele>1414.0</ele><time>2026-05-01T10:52:34.787Z</time></trkpt><trkpt lat="42.710458" lon="13.5898698"><ele>1414.0</ele><time>2026-05-01T10:52:35.787Z</time></trkpt><trkpt lat="42.7103561" lon="13.5899569"><ele>1414.0</ele><time>2026-05-01T10:52:36.786Z</time></trkpt><trkpt lat="42.7102481" lon="13.5900308"><ele>1414.0</ele><time>2026-05-01T10:52:37.787Z</time></trkpt><trkpt lat="42.7101392" lon="13.5900998"><ele>1414.0</ele><time>2026-05-01T10:52:38.786Z</time></trkpt><trkpt lat="42.7100249" lon="13.5901524"><ele>1414.0</ele><time>2026-05-01T10:52:39.788Z</time></trkpt><trkpt lat="42.7099037" lon="13.5901958"><ele>1410.2</ele><time>2026-05-01T10:52:40.786Z</time></trkpt><trkpt lat="42.7097837" lon="13.5902215"><ele>1406.4</ele><time>2026-05-01T10:52:41.787Z</time></trkpt><trkpt lat="42.7096685" lon="13.5902454"><ele>1402.6</ele><time>2026-05-01T10:52:42.788Z</time></trkpt><trkpt lat="42.709564" lon="13.5902657"><ele>1398.8</ele><time>2026-05-01T10:52:43.788Z</time></trkpt><trkpt lat="42.7094642" lon="13.5902855"><ele>1395.0</ele><time>2026-05-01T10:52:44.788Z</time></trkpt><trkpt lat="42.7093678" lon="13.5903117"><ele>1395.0</ele><time>2026-05-01T10:52:45.787Z</time></trkpt><trkpt lat="42.7092753" lon="13.5903563"><ele>1395.0</ele><time>2026-05-01T10:52:46.787Z</time></trkpt><trkpt lat="42.7091884" lon="13.590425"><ele>1395.0</ele><time>2026-05-01T10:52:47.788Z</time></trkpt><trkpt lat="42.7091067" lon="13.5905197"><ele>1395.0</ele><time>2026-05-01T10:52:48.788Z</time></trkpt><trkpt lat="42.7090137" lon="13.5906367"><ele>1395.0</ele><time>2026-05-01T10:52:49.788Z</time></trkpt><trkpt lat="42.7089212" lon="13.5907513"><ele>1395.0</ele><time>2026-05-01T10:52:50.788Z</time></trkpt><trkpt lat="42.7088222" lon="13.590874"><ele>1395.0</ele><time>2026-05-01T10:52:51.787Z</time></trkpt><trkpt lat="42.7087301" lon="13.590995"><ele>1395.0</ele><time>2026-05-01T10:52:52.787Z</time></trkpt><trkpt lat="42.7086426" lon="13.5911275"><ele>1395.0</ele><time>2026-05-01T10:52:53.787Z</time></trkpt><trkpt lat="42.7085612" lon="13.5912737"><ele>1393.25</ele><time>2026-05-01T10:52:54.787Z</time></trkpt><trkpt lat="42.7084948" lon="13.5914018"><ele>1391.5</ele><time>2026-05-01T10:52:55.786Z</time></trkpt><trkpt lat="42.7084313" lon="13.5915328"><ele>1389.75</ele><time>2026-05-01T10:52:56.787Z</time></trkpt><trkpt lat="42.7083684" lon="13.5916571"><ele>1388.0</ele><time>2026-05-01T10:52:57.787Z</time></trkpt><trkpt lat="42.7083049" lon="13.5917799"><ele>1388.0</ele><time>2026-05-01T10:52:58.788Z</time></trkpt><trkpt lat="42.7082351" lon="13.5918971"><ele>1388.0</ele><time>2026-05-01T10:52:59.788Z</time></trkpt><trkpt lat="42.7081579" lon="13.591994"><ele>1388.0</ele><time>2026-05-01T10:53:00.788Z</time></trkpt><trkpt lat="42.7080678" lon="13.5920744"><ele>1388.0</ele><time>2026-05-01T10:53:01.787Z</time></trkpt><trkpt lat="42.7079608" lon="13.5921425"><ele>1388.0</ele><time>2026-05-01T10:53:02.786Z</time></trkpt><trkpt lat="42.7078345" lon="13.5922062"><ele>1385.75</ele><time>2026-05-01T10:53:03.786Z</time></trkpt><trkpt lat="42.7077087" lon="13.5922749"><ele>1383.5</ele><time>2026-05-01T10:53:04.786Z</time></trkpt><trkpt lat="42.7075767" lon="13.5923538"><ele>1381.25</ele><time>2026-05-01T10:53:05.787Z</time></trkpt><trkpt lat="42.707452" lon="13.5924211"><ele>1379.0</ele><time>2026-05-01T10:53:06.787Z</time></trkpt><trkpt lat="42.7073314" lon="13.5924891"><ele>1379.0</ele><time>2026-05-01T10:53:07.787Z</time></trkpt><trkpt lat="42.7072227" lon="13.5925581"><ele>1379.0</ele><time>2026-05-01T10:53:08.788Z</time></trkpt><trkpt lat="42.7071179" lon="13.5926273"><ele>1379.0</ele><time>2026-05-01T10:53:09.788Z</time></trkpt><trkpt lat="42.7070086" lon="13.5926875"><ele>1379.0</ele><time>2026-05-01T10:53:10.788Z</time></trkpt><trkpt lat="42.7068974" lon="13.592738"><ele>1378.8000000000002</ele><time>2026-05-01T10:53:11.786Z</time></trkpt><trkpt lat="42.7067854" lon="13.5927946"><ele>1378.6000000000001</ele><time>2026-05-01T10:53:12.786Z</time></trkpt><trkpt lat="42.7066871" lon="13.592855"><ele>1378.4</ele><time>2026-05-01T10:53:13.786Z</time></trkpt><trkpt lat="42.7066016" lon="13.5929042"><ele>1378.2</ele><time>2026-05-01T10:53:14.786Z</time></trkpt><trkpt lat="42.7065225" lon="13.592956"><ele>1378.0</ele><time>2026-05-01T10:53:15.787Z</time></trkpt><trkpt lat="42.7064527" lon="13.5930344"><ele>1378.0</ele><time>2026-05-01T10:53:16.788Z</time></trkpt><trkpt lat="42.7063766" lon="13.5931391"><ele>1378.0</ele><time>2026-05-01T10:53:17.787Z</time></trkpt><trkpt lat="42.706304" lon="13.5932584"><ele>1378.0</ele><time>2026-05-01T10:53:18.787Z</time></trkpt><trkpt lat="42.7062379" lon="13.5933655"><ele>1378.0</ele><time>2026-05-01T10:53:19.786Z</time></trkpt><trkpt lat="42.706167" lon="13.593459"><ele>1378.0</ele><time>2026-05-01T10:53:20.785Z</time></trkpt><trkpt lat="42.7060776" lon="13.5935365"><ele>1375.5</ele><time>2026-05-01T10:53:21.787Z</time></trkpt><trkpt lat="42.7059726" lon="13.5935981"><ele>1373.0</ele><time>2026-05-01T10:53:22.786Z</time></trkpt><trkpt lat="42.7058608" lon="13.5936668"><ele>1370.5</ele><time>2026-05-01T10:53:23.785Z</time></trkpt><trkpt lat="42.7057381" lon="13.5937606"><ele>1368.0</ele><time>2026-05-01T10:53:24.785Z</time></trkpt><trkpt lat="42.7056263" lon="13.593871"><ele>1368.0</ele><time>2026-05-01T10:53:25.786Z</time></trkpt><trkpt lat="42.7055184" lon="13.5939735"><ele>1368.0</ele><time>2026-05-01T10:53:26.786Z</time></trkpt><trkpt lat="42.705395" lon="13.5940635"><ele>1368.0</ele><time>2026-05-01T10:53:27.786Z</time></trkpt><trkpt lat="42.7052631" lon="13.5941487"><ele>1368.0</ele><time>2026-05-01T10:53:28.786Z</time></trkpt><trkpt lat="42.7051339" lon="13.594224"><ele>1365.0</ele><time>2026-05-01T10:53:29.786Z</time></trkpt><trkpt lat="42.7050075" lon="13.5942969"><ele>1362.0</ele><time>2026-05-01T10:53:30.786Z</time></trkpt><trkpt lat="42.7048862" lon="13.5943672"><ele>1359.0</ele><time>2026-05-01T10:53:31.787Z</time></trkpt><trkpt lat="42.704773" lon="13.5944366"><ele>1356.0</ele><time>2026-05-01T10:53:32.786Z</time></trkpt><trkpt lat="42.7046694" lon="13.5945072"><ele>1353.6</ele><time>2026-05-01T10:53:33.786Z</time></trkpt><trkpt lat="42.7045807" lon="13.5945778"><ele>1351.1999999999998</ele><time>2026-05-01T10:53:34.785Z</time></trkpt><trkpt lat="42.7045033" lon="13.5946487"><ele>1348.8000000000002</ele><time>2026-05-01T10:53:35.785Z</time></trkpt><trkpt lat="42.7044322" lon="13.5947207"><ele>1346.4</ele><time>2026-05-01T10:53:36.785Z</time></trkpt><trkpt lat="42.704364" lon="13.5947874"><ele>1344.0</ele><time>2026-05-01T10:53:37.786Z</time></trkpt><trkpt lat="42.7042899" lon="13.5948392"><ele>1344.0</ele><time>2026-05-01T10:53:38.785Z</time></trkpt><trkpt lat="42.704207" lon="13.5948943"><ele>1344.0</ele><time>2026-05-01T10:53:39.787Z</time></trkpt><trkpt lat="42.7040987" lon="13.5949394"><ele>1344.0</ele><time>2026-05-01T10:53:40.787Z</time></trkpt><trkpt lat="42.7039774" lon="13.594959"><ele>1344.0</ele><time>2026-05-01T10:53:41.786Z</time></trkpt><trkpt lat="42.7038439" lon="13.5949776"><ele>1344.0</ele><time>2026-05-01T10:53:42.785Z</time></trkpt><trkpt lat="42.703716" lon="13.594998"><ele>1344.0</ele><time>2026-05-01T10:53:43.786Z</time></trkpt><trkpt lat="42.7035978" lon="13.5950278"><ele>1344.0</ele><time>2026-05-01T10:53:44.786Z</time></trkpt><trkpt lat="42.7034891" lon="13.5950827"><ele>1344.0</ele><time>2026-05-01T10:53:45.787Z</time></trkpt><trkpt lat="42.7033712" lon="13.595176"><ele>1343.6666666666667</ele><time>2026-05-01T10:53:46.786Z</time></trkpt><trkpt lat="42.7032456" lon="13.595297"><ele>1343.3333333333335</ele><time>2026-05-01T10:53:47.787Z</time></trkpt><trkpt lat="42.7031205" lon="13.595418"><ele>1343.0</ele><time>2026-05-01T10:53:48.785Z</time></trkpt><trkpt lat="42.702999" lon="13.5955322"><ele>1344.5</ele><time>2026-05-01T10:53:49.786Z</time></trkpt><trkpt lat="42.7028866" lon="13.5956494"><ele>1346.0</ele><time>2026-05-01T10:53:50.785Z</time></trkpt><trkpt lat="42.7027761" lon="13.595759"><ele>1347.5</ele><time>2026-05-01T10:53:51.785Z</time></trkpt><trkpt lat="42.7026677" lon="13.5958595"><ele>1349.0</ele><time>2026-05-01T10:53:52.785Z</time></trkpt><trkpt lat="42.702562" lon="13.5959632"><ele>1349.0</ele><time>2026-05-01T10:53:53.786Z</time></trkpt><trkpt lat="42.7024566" lon="13.5960582"><ele>1349.0</ele><time>2026-05-01T10:53:54.786Z</time></trkpt><trkpt lat="42.702345" lon="13.5961379"><ele>1349.0</ele><time>2026-05-01T10:53:55.785Z</time></trkpt><trkpt lat="42.7022198" lon="13.5962103"><ele>1349.0</ele><time>2026-05-01T10:53:56.787Z</time></trkpt><trkpt lat="42.7020904" lon="13.5962726"><ele>1348.75</ele><time>2026-05-01T10:53:57.787Z</time></trkpt><trkpt lat="42.7019709" lon="13.5963408"><ele>1348.5</ele><time>2026-05-01T10:53:58.786Z</time></trkpt><trkpt lat="42.701856" lon="13.5964146"><ele>1348.25</ele><time>2026-05-01T10:53:59.786Z</time></trkpt><trkpt lat="42.7017462" lon="13.5964945"><ele>1348.0</ele><time>2026-05-01T10:54:00.786Z</time></trkpt><trkpt lat="42.7016401" lon="13.5965799"><ele>1348.0</ele><time>2026-05-01T10:54:01.786Z</time></trkpt><trkpt lat="42.701542" lon="13.5966713"><ele>1348.0</ele><time>2026-05-01T10:54:02.785Z</time></trkpt><trkpt lat="42.7014501" lon="13.5967624"><ele>1348.0</ele><time>2026-05-01T10:54:03.786Z</time></trkpt><trkpt lat="42.7013541" lon="13.596824"><ele>1348.0</ele><time>2026-05-01T10:54:04.786Z</time></trkpt><trkpt lat="42.701249" lon="13.5968697"><ele>1348.0</ele><time>2026-05-01T10:54:05.785Z</time></trkpt><trkpt lat="42.7011395" lon="13.5969043"><ele>1347.75</ele><time>2026-05-01T10:54:06.786Z</time></trkpt><trkpt lat="42.7010332" lon="13.5969599"><ele>1347.5</ele><time>2026-05-01T10:54:07.785Z</time></trkpt><trkpt lat="42.7009137" lon="13.5970319"><ele>1347.25</ele><time>2026-05-01T10:54:08.785Z</time></trkpt><trkpt lat="42.7007996" lon="13.5971187"><ele>1347.0</ele><time>2026-05-01T10:54:09.786Z</time></trkpt><trkpt lat="42.7006954" lon="13.5972091"><ele>1347.0</ele><time>2026-05-01T10:54:10.786Z</time></trkpt><trkpt lat="42.7005884" lon="13.5972886"><ele>1347.0</ele><time>2026-05-01T10:54:11.786Z</time></trkpt><trkpt lat="42.7004862" lon="13.597376"><ele>1347.0</ele><time>2026-05-01T10:54:12.786Z</time></trkpt><trkpt lat="42.700381" lon="13.5974574"><ele>1347.0</ele><time>2026-05-01T10:54:13.785Z</time></trkpt><trkpt lat="42.7003122" lon="13.5975648"><ele>1348.1999999999998</ele><time>2026-05-01T10:54:14.785Z</time></trkpt><trkpt lat="42.7002429" lon="13.5976786"><ele>1349.4</ele><time>2026-05-01T10:54:15.786Z</time></trkpt><trkpt lat="42.7001705" lon="13.5977884"><ele>1350.6</ele><time>2026-05-01T10:54:16.786Z</time></trkpt><trkpt lat="42.7001057" lon="13.5979119"><ele>1351.8000000000002</ele><time>2026-05-01T10:54:17.787Z</time></trkpt><trkpt lat="42.7000824" lon="13.5980315"><ele>1353.0</ele><time>2026-05-01T10:54:18.786Z</time></trkpt><trkpt lat="42.7000482" lon="13.5981755"><ele>1353.0</ele><time>2026-05-01T10:54:19.786Z</time></trkpt><trkpt lat="42.7000534" lon="13.5983132"><ele>1353.0</ele><time>2026-05-01T10:54:20.787Z</time></trkpt><trkpt lat="42.7000262" lon="13.5984783"><ele>1353.0</ele><time>2026-05-01T10:54:21.786Z</time></trkpt><trkpt lat="42.7000108" lon="13.5986244"><ele>1353.0</ele><time>2026-05-01T10:54:22.786Z</time></trkpt><trkpt lat="42.6999807" lon="13.5987881"><ele>1353.0</ele><time>2026-05-01T10:54:23.786Z</time></trkpt><trkpt lat="42.699936" lon="13.5989"><ele>1353.0</ele><time>2026-05-01T10:54:24.786Z</time></trkpt><trkpt lat="42.6999134" lon="13.5990263"><ele>1353.0</ele><time>2026-05-01T10:54:25.786Z</time></trkpt><trkpt lat="42.6998737" lon="13.5991524"><ele>1353.0</ele><time>2026-05-01T10:54:26.787Z</time></trkpt><trkpt lat="42.6998347" lon="13.5992731"><ele>1353.0</ele><time>2026-05-01T10:54:27.787Z</time></trkpt><trkpt lat="42.6997777" lon="13.5993647"><ele>1353.0</ele><time>2026-05-01T10:54:28.786Z</time></trkpt><trkpt lat="42.6997257" lon="13.5994804"><ele>1353.0</ele><time>2026-05-01T10:54:29.787Z</time></trkpt><trkpt lat="42.6996528" lon="13.5995926"><ele>1353.0</ele><time>2026-05-01T10:54:30.787Z</time></trkpt><trkpt lat="42.6995767" lon="13.5997041"><ele>1353.0</ele><time>2026-05-01T10:54:31.786Z</time></trkpt><trkpt lat="42.6994969" lon="13.5998046"><ele>1353.0</ele><time>2026-05-01T10:54:32.785Z</time></trkpt><trkpt lat="42.6993812" lon="13.5999209"><ele>1354.8000000000002</ele><time>2026-05-01T10:54:33.785Z</time></trkpt><trkpt lat="42.6993044" lon="13.6000199"><ele>1356.6</ele><time>2026-05-01T10:54:34.785Z</time></trkpt><trkpt lat="42.699232" lon="13.6000976"><ele>1358.4</ele><time>2026-05-01T10:54:35.786Z</time></trkpt><trkpt lat="42.6991365" lon="13.6001965"><ele>1360.1999999999998</ele><time>2026-05-01T10:54:36.786Z</time></trkpt><trkpt lat="42.6990604" lon="13.6002861"><ele>1362.0</ele><time>2026-05-01T10:54:37.786Z</time></trkpt><trkpt lat="42.6989909" lon="13.6003607"><ele>1357.6</ele><time>2026-05-01T10:54:38.787Z</time></trkpt><trkpt lat="42.698918" lon="13.6004326"><ele>1353.1999999999998</ele><time>2026-05-01T10:54:39.787Z</time></trkpt><trkpt lat="42.6988365" lon="13.6005015"><ele>1348.8</ele><time>2026-05-01T10:54:40.787Z</time></trkpt><trkpt lat="42.6987332" lon="13.6005686"><ele>1344.4</ele><time>2026-05-01T10:54:41.787Z</time></trkpt><trkpt lat="42.6986258" lon="13.6005505"><ele>1340.0</ele><time>2026-05-01T10:54:42.787Z</time></trkpt><trkpt lat="42.6985441" lon="13.6006032"><ele>1340.0</ele><time>2026-05-01T10:54:43.787Z</time></trkpt><trkpt lat="42.6984585" lon="13.6006521"><ele>1340.0</ele><time>2026-05-01T10:54:44.787Z</time></trkpt><trkpt lat="42.6983838" lon="13.6007041"><ele>1340.0</ele><time>2026-05-01T10:54:45.786Z</time></trkpt><trkpt lat="42.6983073" lon="13.6007255"><ele>1340.0</ele><time>2026-05-01T10:54:46.787Z</time></trkpt><trkpt lat="42.6982096" lon="13.6007444"><ele>1340.0</ele><time>2026-05-01T10:54:47.787Z</time></trkpt><trkpt lat="42.6981195" lon="13.6007199"><ele>1340.0</ele><time>2026-05-01T10:54:48.785Z</time></trkpt><trkpt lat="42.698025" lon="13.6006763"><ele>1340.0</ele><time>2026-05-01T10:54:49.786Z</time></trkpt><trkpt lat="42.6979314" lon="13.6006508"><ele>1340.0</ele><time>2026-05-01T10:54:50.785Z</time></trkpt><trkpt lat="42.6978379" lon="13.6006233"><ele>1340.0</ele><time>2026-05-01T10:54:51.786Z</time></trkpt><trkpt lat="42.6977528" lon="13.6005969"><ele>1340.0</ele><time>2026-05-01T10:54:52.785Z</time></trkpt><trkpt lat="42.6976533" lon="13.6005877"><ele>1340.0</ele><time>2026-05-01T10:54:53.785Z</time></trkpt><trkpt lat="42.6975519" lon="13.6005651"><ele>1339.4</ele><time>2026-05-01T10:54:54.786Z</time></trkpt><trkpt lat="42.6974419" lon="13.6005477"><ele>1338.8</ele><time>2026-05-01T10:54:55.785Z</time></trkpt><trkpt lat="42.6973368" lon="13.6005564"><ele>1338.1999999999998</ele><time>2026-05-01T10:54:56.786Z</time></trkpt><trkpt lat="42.6972331" lon="13.6005571"><ele>1337.6</ele><time>2026-05-01T10:54:57.786Z</time></trkpt><trkpt lat="42.6971324" lon="13.6005453"><ele>1337.0</ele><time>2026-05-01T10:54:58.785Z</time></trkpt><trkpt lat="42.69704" lon="13.6005115"><ele>1337.0</ele><time>2026-05-01T10:54:59.786Z</time></trkpt><trkpt lat="42.6969344" lon="13.6004936"><ele>1337.0</ele><time>2026-05-01T10:55:00.785Z</time></trkpt><trkpt lat="42.6968371" lon="13.6004485"><ele>1337.0</ele><time>2026-05-01T10:55:01.786Z</time></trkpt><trkpt lat="42.6967319" lon="13.6004281"><ele>1337.0</ele><time>2026-05-01T10:55:02.786Z</time></trkpt><trkpt lat="42.6966237" lon="13.600422"><ele>1337.0</ele><time>2026-05-01T10:55:03.786Z</time></trkpt><trkpt lat="42.6965381" lon="13.6004359"><ele>1335.8</ele><time>2026-05-01T10:55:04.786Z</time></trkpt><trkpt lat="42.6964394" lon="13.600455"><ele>1334.6</ele><time>2026-05-01T10:55:05.785Z</time></trkpt><trkpt lat="42.6963561" lon="13.6004646"><ele>1333.3999999999999</ele><time>2026-05-01T10:55:06.785Z</time></trkpt><trkpt lat="42.6962687" lon="13.6004959"><ele>1332.1999999999998</ele><time>2026-05-01T10:55:07.785Z</time></trkpt><trkpt lat="42.6961912" lon="13.600559"><ele>1331.0</ele><time>2026-05-01T10:55:08.786Z</time></trkpt><trkpt lat="42.6961034" lon="13.6006249"><ele>1333.4</ele><time>2026-05-01T10:55:09.786Z</time></trkpt><trkpt lat="42.696022" lon="13.600728"><ele>1335.8</ele><time>2026-05-01T10:55:10.785Z</time></trkpt><trkpt lat="42.6959614" lon="13.6008424"><ele>1338.2</ele><time>2026-05-01T10:55:11.786Z</time></trkpt><trkpt lat="42.6958689" lon="13.6009715"><ele>1340.6000000000001</ele><time>2026-05-01T10:55:12.786Z</time></trkpt><trkpt lat="42.6958015" lon="13.6010647"><ele>1343.0</ele><time>2026-05-01T10:55:13.786Z</time></trkpt><trkpt lat="42.6957397" lon="13.6011129"><ele>1339.6000000000001</ele><time>2026-05-01T10:55:14.786Z</time></trkpt><trkpt lat="42.6956547" lon="13.601187"><ele>1336.2</ele><time>2026-05-01T10:55:15.786Z</time></trkpt><trkpt lat="42.6955716" lon="13.6012404"><ele>1332.8</ele><time>2026-05-01T10:55:16.785Z</time></trkpt><trkpt lat="42.6954893" lon="13.6013094"><ele>1329.4</ele><time>2026-05-01T10:55:17.785Z</time></trkpt><trkpt lat="42.6953901" lon="13.6013654"><ele>1326.0</ele><time>2026-05-01T10:55:18.786Z</time></trkpt><trkpt lat="42.6952821" lon="13.6014381"><ele>1329.0</ele><time>2026-05-01T10:55:19.786Z</time></trkpt><trkpt lat="42.6952039" lon="13.6015369"><ele>1332.0</ele><time>2026-05-01T10:55:20.785Z</time></trkpt><trkpt lat="42.6951145" lon="13.601622"><ele>1335.0</ele><time>2026-05-01T10:55:21.785Z</time></trkpt><trkpt lat="42.6950609" lon="13.6017328"><ele>1338.0</ele><time>2026-05-01T10:55:22.787Z</time></trkpt><trkpt lat="42.6950068" lon="13.6017917"><ele>1341.0</ele><time>2026-05-01T10:55:23.787Z</time></trkpt><trkpt lat="42.6948447" lon="13.6018452"><ele>1341.0</ele><time>2026-05-01T10:55:25.786Z</time></trkpt><trkpt lat="42.694766" lon="13.6018965"><ele>1341.0</ele><time>2026-05-01T10:55:26.787Z</time></trkpt><trkpt lat="42.6946873" lon="13.6019302"><ele>1341.0</ele><time>2026-05-01T10:55:27.785Z</time></trkpt><trkpt lat="42.694622" lon="13.6020017"><ele>1341.0</ele><time>2026-05-01T10:55:28.786Z</time></trkpt><trkpt lat="42.6945513" lon="13.6021011"><ele>1341.0</ele><time>2026-05-01T10:55:29.787Z</time></trkpt><trkpt lat="42.6945023" lon="13.6021935"><ele>1341.0</ele><time>2026-05-01T10:55:30.787Z</time></trkpt><trkpt lat="42.6945657" lon="13.6023366"><ele>1338.0</ele><time>2026-05-01T10:55:31.785Z</time></trkpt><trkpt lat="42.6945609" lon="13.6024676"><ele>1335.0</ele><time>2026-05-01T10:55:32.785Z</time></trkpt><trkpt lat="42.694608" lon="13.6026179"><ele>1332.0</ele><time>2026-05-01T10:55:33.786Z</time></trkpt><trkpt lat="42.6946267" lon="13.6027724"><ele>1329.0</ele><time>2026-05-01T10:55:34.785Z</time></trkpt><trkpt lat="42.6946631" lon="13.6029149"><ele>1326.0</ele><time>2026-05-01T10:55:35.787Z</time></trkpt><trkpt lat="42.694684" lon="13.6030409"><ele>1325.1999999999998</ele><time>2026-05-01T10:55:36.786Z</time></trkpt><trkpt lat="42.6947002" lon="13.6031724"><ele>1324.3999999999999</ele><time>2026-05-01T10:55:37.785Z</time></trkpt><trkpt lat="42.694706" lon="13.6033037"><ele>1323.6</ele><time>2026-05-01T10:55:38.785Z</time></trkpt><trkpt lat="42.6947084" lon="13.6034395"><ele>1322.8</ele><time>2026-05-01T10:55:39.787Z</time></trkpt><trkpt lat="42.6947149" lon="13.6035655"><ele>1322.0</ele><time>2026-05-01T10:55:40.786Z</time></trkpt><trkpt lat="42.6946932" lon="13.6037436"><ele>1320.0</ele><time>2026-05-01T10:55:41.785Z</time></trkpt><trkpt lat="42.6946682" lon="13.6039184"><ele>1318.0</ele><time>2026-05-01T10:55:42.785Z</time></trkpt><trkpt lat="42.6946471" lon="13.6040856"><ele>1316.0</ele><time>2026-05-01T10:55:43.785Z</time></trkpt><trkpt lat="42.6946231" lon="13.6042464"><ele>1314.0</ele><time>2026-05-01T10:55:44.785Z</time></trkpt><trkpt lat="42.6946074" lon="13.6043988"><ele>1313.25</ele><time>2026-05-01T10:55:45.785Z</time></trkpt><trkpt lat="42.6945981" lon="13.6045539"><ele>1312.5</ele><time>2026-05-01T10:55:46.786Z</time></trkpt><trkpt lat="42.6946065" lon="13.6047132"><ele>1311.75</ele><time>2026-05-01T10:55:47.786Z</time></trkpt><trkpt lat="42.694597" lon="13.604868"><ele>1311.0</ele><time>2026-05-01T10:55:48.785Z</time></trkpt><trkpt lat="42.6945612" lon="13.6050333"><ele>1311.0</ele><time>2026-05-01T10:55:49.786Z</time></trkpt><trkpt lat="42.6945274" lon="13.6051974"><ele>1311.0</ele><time>2026-05-01T10:55:50.786Z</time></trkpt><trkpt lat="42.6945083" lon="13.6053306"><ele>1311.0</ele><time>2026-05-01T10:55:51.785Z</time></trkpt><trkpt lat="42.6944889" lon="13.6054654"><ele>1311.0</ele><time>2026-05-01T10:55:52.785Z</time></trkpt><trkpt lat="42.6944534" lon="13.6056094"><ele>1311.0</ele><time>2026-05-01T10:55:53.786Z</time></trkpt><trkpt lat="42.6944116" lon="13.6057471"><ele>1310.5</ele><time>2026-05-01T10:55:54.786Z</time></trkpt><trkpt lat="42.6943639" lon="13.6059062"><ele>1310.0</ele><time>2026-05-01T10:55:55.786Z</time></trkpt><trkpt lat="42.6943079" lon="13.6060509"><ele>1309.5</ele><time>2026-05-01T10:55:56.786Z</time></trkpt><trkpt lat="42.6942661" lon="13.606198"><ele>1309.0</ele><time>2026-05-01T10:55:57.785Z</time></trkpt><trkpt lat="42.6942375" lon="13.6063247"><ele>1309.0</ele><time>2026-05-01T10:55:58.786Z</time></trkpt><trkpt lat="42.6941817" lon="13.6064703"><ele>1309.0</ele><time>2026-05-01T10:55:59.785Z</time></trkpt><trkpt lat="42.6941297" lon="13.606603"><ele>1309.0</ele><time>2026-05-01T10:56:00.786Z</time></trkpt><trkpt lat="42.6940793" lon="13.6067324"><ele>1309.0</ele><time>2026-05-01T10:56:01.787Z</time></trkpt><trkpt lat="42.6940205" lon="13.6068567"><ele>1309.0</ele><time>2026-05-01T10:56:02.786Z</time></trkpt><trkpt lat="42.6939566" lon="13.6069975"><ele>1305.2</ele><time>2026-05-01T10:56:03.787Z</time></trkpt><trkpt lat="42.6938866" lon="13.6071182"><ele>1301.4</ele><time>2026-05-01T10:56:04.786Z</time></trkpt><trkpt lat="42.6938275" lon="13.6072353"><ele>1297.6</ele><time>2026-05-01T10:56:05.787Z</time></trkpt><trkpt lat="42.6937562" lon="13.6073576"><ele>1293.8</ele><time>2026-05-01T10:56:06.786Z</time></trkpt><trkpt lat="42.6937557" lon="13.6074594"><ele>1290.0</ele><time>2026-05-01T10:56:07.787Z</time></trkpt><trkpt lat="42.6936983" lon="13.6075738"><ele>1290.0</ele><time>2026-05-01T10:56:08.786Z</time></trkpt><trkpt lat="42.6936584" lon="13.6076595"><ele>1290.0</ele><time>2026-05-01T10:56:09.786Z</time></trkpt><trkpt lat="42.6936087" lon="13.6077747"><ele>1290.0</ele><time>2026-05-01T10:56:10.786Z</time></trkpt><trkpt lat="42.6934818" lon="13.6078859"><ele>1290.0</ele><time>2026-05-01T10:56:12.786Z</time></trkpt><trkpt lat="42.6934011" lon="13.6079411"><ele>1290.0</ele><time>2026-05-01T10:56:13.786Z</time></trkpt><trkpt lat="42.6933053" lon="13.6079611"><ele>1290.3333333333333</ele><time>2026-05-01T10:56:14.786Z</time></trkpt><trkpt lat="42.6932129" lon="13.6079657"><ele>1290.6666666666667</ele><time>2026-05-01T10:56:15.786Z</time></trkpt><trkpt lat="42.6931328" lon="13.6079616"><ele>1291.0</ele><time>2026-05-01T10:56:16.787Z</time></trkpt><trkpt lat="42.6930565" lon="13.6079815"><ele>1291.3333333333335</ele><time>2026-05-01T10:56:17.786Z</time></trkpt><trkpt lat="42.6929834" lon="13.6080152"><ele>1291.6666666666667</ele><time>2026-05-01T10:56:18.786Z</time></trkpt><trkpt lat="42.6929186" lon="13.6080594"><ele>1292.0</ele><time>2026-05-01T10:56:19.785Z</time></trkpt><trkpt lat="42.6928672" lon="13.6081297"><ele>1292.0000000000002</ele><time>2026-05-01T10:56:20.786Z</time></trkpt><trkpt lat="42.6928084" lon="13.6081766"><ele>1292.0</ele><time>2026-05-01T10:56:21.785Z</time></trkpt><trkpt lat="42.6927385" lon="13.6081792"><ele>1292.0</ele><time>2026-05-01T10:56:22.786Z</time></trkpt><trkpt lat="42.6926592" lon="13.6081678"><ele>1292.0</ele><time>2026-05-01T10:56:23.786Z</time></trkpt><trkpt lat="42.6925894" lon="13.6081365"><ele>1292.0</ele><time>2026-05-01T10:56:24.785Z</time></trkpt><trkpt lat="42.692517" lon="13.6081069"><ele>1292.0000000000002</ele><time>2026-05-01T10:56:25.785Z</time></trkpt><trkpt lat="42.6924522" lon="13.6080794"><ele>1292.0</ele><time>2026-05-01T10:56:26.787Z</time></trkpt><trkpt lat="42.6923859" lon="13.6080541"><ele>1291.6666666666667</ele><time>2026-05-01T10:56:27.785Z</time></trkpt><trkpt lat="42.6923185" lon="13.6080231"><ele>1291.3333333333335</ele><time>2026-05-01T10:56:28.787Z</time></trkpt><trkpt lat="42.6922484" lon="13.6080039"><ele>1291.0</ele><time>2026-05-01T10:56:29.785Z</time></trkpt><trkpt lat="42.6921745" lon="13.6079865"><ele>1290.6666666666667</ele><time>2026-05-01T10:56:30.786Z</time></trkpt><trkpt lat="42.6921034" lon="13.607953"><ele>1290.3333333333333</ele><time>2026-05-01T10:56:31.787Z</time></trkpt><trkpt lat="42.6920276" lon="13.6079353"><ele>1290.0</ele><time>2026-05-01T10:56:32.787Z</time></trkpt><trkpt lat="42.6919431" lon="13.6079133"><ele>1287.6</ele><time>2026-05-01T10:56:33.786Z</time></trkpt><trkpt lat="42.6918628" lon="13.6078989"><ele>1285.2</ele><time>2026-05-01T10:56:34.786Z</time></trkpt><trkpt lat="42.6917558" lon="13.6078774"><ele>1282.8</ele><time>2026-05-01T10:56:36.785Z</time></trkpt><trkpt lat="42.6916498" lon="13.6078459"><ele>1280.4</ele><time>2026-05-01T10:56:38.786Z</time></trkpt><trkpt lat="42.69156" lon="13.6078027"><ele>1278.0</ele><time>2026-05-01T10:56:40.786Z</time></trkpt><trkpt lat="42.6914933" lon="13.6077628"><ele>1278.0</ele><time>2026-05-01T10:56:42.786Z</time></trkpt><trkpt lat="42.6914377" lon="13.6077208"><ele>1278.0</ele><time>2026-05-01T10:56:45.785Z</time></trkpt><trkpt lat="42.6915487" lon="13.6077591"><ele>1278.0</ele><time>2026-05-01T11:04:14.785Z</time></trkpt><trkpt lat="42.6916826" lon="13.607814"><ele>1278.0</ele><time>2026-05-01T11:04:16.784Z</time></trkpt><trkpt lat="42.6917829" lon="13.6078375"><ele>1278.0</ele><time>2026-05-01T11:04:17.784Z</time></trkpt><trkpt lat="42.6918704" lon="13.6078632"><ele>1280.0</ele><time>2026-05-01T11:04:18.784Z</time></trkpt><trkpt lat="42.691942" lon="13.6078865"><ele>1282.0</ele><time>2026-05-01T11:04:19.784Z</time></trkpt><trkpt lat="42.6920105" lon="13.6079047"><ele>1284.0</ele><time>2026-05-01T11:04:20.784Z</time></trkpt><trkpt lat="42.6920809" lon="13.6079229"><ele>1286.0</ele><time>2026-05-01T11:04:21.784Z</time></trkpt><trkpt lat="42.6921515" lon="13.6079485"><ele>1288.0</ele><time>2026-05-01T11:04:22.783Z</time></trkpt><trkpt lat="42.6922539" lon="13.6079797"><ele>1290.0</ele><time>2026-05-01T11:04:24.784Z</time></trkpt><trkpt lat="42.6923677" lon="13.6080147"><ele>1290.0</ele><time>2026-05-01T11:04:26.783Z</time></trkpt><trkpt lat="42.6924653" lon="13.608051"><ele>1290.0</ele><time>2026-05-01T11:04:28.784Z</time></trkpt><trkpt lat="42.6925529" lon="13.6081056"><ele>1290.0</ele><time>2026-05-01T11:04:30.785Z</time></trkpt><trkpt lat="42.6926507" lon="13.6081458"><ele>1290.0</ele><time>2026-05-01T11:04:32.783Z</time></trkpt><trkpt lat="42.6927431" lon="13.6081531"><ele>1290.0</ele><time>2026-05-01T11:04:34.784Z</time></trkpt><trkpt lat="42.6928158" lon="13.6080901"><ele>1290.2857142857144</ele><time>2026-05-01T11:04:36.783Z</time></trkpt><trkpt lat="42.6928691" lon="13.6080363"><ele>1290.5714285714284</ele><time>2026-05-01T11:04:37.783Z</time></trkpt><trkpt lat="42.6929227" lon="13.6079862"><ele>1290.857142857143</ele><time>2026-05-01T11:04:38.784Z</time></trkpt><trkpt lat="42.6929808" lon="13.6079428"><ele>1291.1428571428573</ele><time>2026-05-01T11:04:39.784Z</time></trkpt><trkpt lat="42.6930426" lon="13.6079213"><ele>1291.4285714285716</ele><time>2026-05-01T11:04:40.784Z</time></trkpt><trkpt lat="42.6931142" lon="13.6079236"><ele>1291.7142857142858</ele><time>2026-05-01T11:04:41.783Z</time></trkpt><trkpt lat="42.6931955" lon="13.6079181"><ele>1292.0</ele><time>2026-05-01T11:04:42.782Z</time></trkpt><trkpt lat="42.6932674" lon="13.607923"><ele>1292.0</ele><time>2026-05-01T11:04:43.783Z</time></trkpt><trkpt lat="42.6933734" lon="13.6078936"><ele>1292.0</ele><time>2026-05-01T11:04:45.782Z</time></trkpt><trkpt lat="42.6934658" lon="13.6078716"><ele>1292.0</ele><time>2026-05-01T11:04:47.782Z</time></trkpt><trkpt lat="42.6935408" lon="13.607841"><ele>1292.0</ele><time>2026-05-01T11:04:50.782Z</time></trkpt><trkpt lat="42.693605" lon="13.6077695"><ele>1292.0</ele><time>2026-05-01T11:05:13.783Z</time></trkpt><trkpt lat="42.6936438" lon="13.607602"><ele>1291.6666666666667</ele><time>2026-05-01T11:05:15.783Z</time></trkpt><trkpt lat="42.6936616" lon="13.6075145"><ele>1291.3333333333335</ele><time>2026-05-01T11:05:16.783Z</time></trkpt><trkpt lat="42.6936829" lon="13.6074247"><ele>1291.0</ele><time>2026-05-01T11:05:17.782Z</time></trkpt><trkpt lat="42.6936946" lon="13.6073333"><ele>1290.6666666666667</ele><time>2026-05-01T11:05:18.783Z</time></trkpt><trkpt lat="42.6937618" lon="13.6071973"><ele>1290.3333333333333</ele><time>2026-05-01T11:05:19.783Z</time></trkpt><trkpt lat="42.6938081" lon="13.6070814"><ele>1290.0</ele><time>2026-05-01T11:05:20.783Z</time></trkpt><trkpt lat="42.6938587" lon="13.6069717"><ele>1294.75</ele><time>2026-05-01T11:05:21.783Z</time></trkpt><trkpt lat="42.6939212" lon="13.6068378"><ele>1299.5</ele><time>2026-05-01T11:05:22.783Z</time></trkpt><trkpt lat="42.6939913" lon="13.6066834"><ele>1304.25</ele><time>2026-05-01T11:05:23.783Z</time></trkpt><trkpt lat="42.6940541" lon="13.6065438"><ele>1309.0</ele><time>2026-05-01T11:05:24.784Z</time></trkpt><trkpt lat="42.694094" lon="13.6063513"><ele>1309.0</ele><time>2026-05-01T11:05:25.784Z</time></trkpt><trkpt lat="42.6941438" lon="13.6061785"><ele>1309.0</ele><time>2026-05-01T11:05:26.783Z</time></trkpt><trkpt lat="42.6941884" lon="13.6060117"><ele>1309.0</ele><time>2026-05-01T11:05:27.784Z</time></trkpt><trkpt lat="42.6942392" lon="13.6058534"><ele>1309.0</ele><time>2026-05-01T11:05:28.783Z</time></trkpt><trkpt lat="42.6942887" lon="13.6056849"><ele>1314.25</ele><time>2026-05-01T11:05:29.782Z</time></trkpt><trkpt lat="42.6943122" lon="13.6055373"><ele>1319.5</ele><time>2026-05-01T11:05:30.782Z</time></trkpt><trkpt lat="42.6943453" lon="13.6053922"><ele>1324.75</ele><time>2026-05-01T11:05:31.782Z</time></trkpt><trkpt lat="42.6943538" lon="13.6052266"><ele>1330.0</ele><time>2026-05-01T11:05:32.782Z</time></trkpt><trkpt lat="42.694381" lon="13.6050749"><ele>1326.8</ele><time>2026-05-01T11:05:33.783Z</time></trkpt><trkpt lat="42.6944051" lon="13.6049107"><ele>1323.6</ele><time>2026-05-01T11:05:34.783Z</time></trkpt><trkpt lat="42.6944127" lon="13.6047802"><ele>1320.4</ele><time>2026-05-01T11:05:35.782Z</time></trkpt><trkpt lat="42.6944329" lon="13.6046505"><ele>1317.2</ele><time>2026-05-01T11:05:36.783Z</time></trkpt><trkpt lat="42.6944697" lon="13.6045179"><ele>1314.0</ele><time>2026-05-01T11:05:37.783Z</time></trkpt><trkpt lat="42.694484" lon="13.6043859"><ele>1314.0</ele><time>2026-05-01T11:05:38.784Z</time></trkpt><trkpt lat="42.6945009" lon="13.6042474"><ele>1314.0</ele><time>2026-05-01T11:05:39.784Z</time></trkpt><trkpt lat="42.6945232" lon="13.6040775"><ele>1314.0</ele><time>2026-05-01T11:05:40.784Z</time></trkpt><trkpt lat="42.6945724" lon="13.6039445"><ele>1314.0</ele><time>2026-05-01T11:05:41.783Z</time></trkpt><trkpt lat="42.6945896" lon="13.6038076"><ele>1314.0</ele><time>2026-05-01T11:05:42.783Z</time></trkpt><trkpt lat="42.6946122" lon="13.6036788"><ele>1315.6</ele><time>2026-05-01T11:05:43.783Z</time></trkpt><trkpt lat="42.6946344" lon="13.6035487"><ele>1317.2</ele><time>2026-05-01T11:05:44.784Z</time></trkpt><trkpt lat="42.6946637" lon="13.6034119"><ele>1318.8</ele><time>2026-05-01T11:05:45.783Z</time></trkpt><trkpt lat="42.6946925" lon="13.6032797"><ele>1320.3999999999999</ele><time>2026-05-01T11:05:46.784Z</time></trkpt><trkpt lat="42.6946611" lon="13.6031259"><ele>1322.0</ele><time>2026-05-01T11:05:48.783Z</time></trkpt><trkpt lat="42.6946341" lon="13.603021"><ele>1322.0</ele><time>2026-05-01T11:05:49.782Z</time></trkpt><trkpt lat="42.6946099" lon="13.6029083"><ele>1322.0</ele><time>2026-05-01T11:05:50.783Z</time></trkpt><trkpt lat="42.6945943" lon="13.6027862"><ele>1322.0</ele><time>2026-05-01T11:05:51.784Z</time></trkpt><trkpt lat="42.6945619" lon="13.6026715"><ele>1322.0</ele><time>2026-05-01T11:05:52.784Z</time></trkpt><trkpt lat="42.694544" lon="13.6025484"><ele>1322.0</ele><time>2026-05-01T11:05:53.784Z</time></trkpt><trkpt lat="42.6945348" lon="13.6024337"><ele>1322.0</ele><time>2026-05-01T11:05:54.783Z</time></trkpt><trkpt lat="42.6945245" lon="13.6023227"><ele>1322.6666666666667</ele><time>2026-05-01T11:05:55.784Z</time></trkpt><trkpt lat="42.6945252" lon="13.6022267"><ele>1323.3333333333335</ele><time>2026-05-01T11:05:56.783Z</time></trkpt><trkpt lat="42.6945489" lon="13.6021155"><ele>1324.0</ele><time>2026-05-01T11:05:57.784Z</time></trkpt><trkpt lat="42.6945651" lon="13.6020112"><ele>1324.6666666666667</ele><time>2026-05-01T11:05:58.784Z</time></trkpt><trkpt lat="42.6946213" lon="13.6019414"><ele>1325.3333333333333</ele><time>2026-05-01T11:06:00.783Z</time></trkpt><trkpt lat="42.6946855" lon="13.6019079"><ele>1326.0</ele><time>2026-05-01T11:06:02.783Z</time></trkpt><trkpt lat="42.6946122" lon="13.6020498"><ele>1326.0</ele><time>2026-05-01T11:06:36.784Z</time></trkpt><trkpt lat="42.6945779" lon="13.6021896"><ele>1326.0</ele><time>2026-05-01T11:06:38.782Z</time></trkpt><trkpt lat="42.6946022" lon="13.602292"><ele>1326.0</ele><time>2026-05-01T11:06:39.783Z</time></trkpt><trkpt lat="42.6945957" lon="13.6023848"><ele>1326.0</ele><time>2026-05-01T11:06:40.783Z</time></trkpt><trkpt lat="42.6946103" lon="13.6025159"><ele>1326.0</ele><time>2026-05-01T11:06:42.784Z</time></trkpt><trkpt lat="42.69464" lon="13.6026035"><ele>1326.0</ele><time>2026-05-01T11:06:44.782Z</time></trkpt><trkpt lat="42.6946859" lon="13.6025307"><ele>1326.0</ele><time>2026-05-01T11:06:51.784Z</time></trkpt><trkpt lat="42.6947583" lon="13.6023939"><ele>1326.0</ele><time>2026-05-01T11:06:53.783Z</time></trkpt><trkpt lat="42.6948189" lon="13.6023292"><ele>1326.0</ele><time>2026-05-01T11:06:54.783Z</time></trkpt><trkpt lat="42.6948724" lon="13.6022756"><ele>1326.0</ele><time>2026-05-01T11:06:55.783Z</time></trkpt><trkpt lat="42.6949604" lon="13.6022067"><ele>1326.0</ele><time>2026-05-01T11:06:57.783Z</time></trkpt><trkpt lat="42.6950179" lon="13.6021535"><ele>1326.0</ele><time>2026-05-01T11:07:00.784Z</time></trkpt><trkpt lat="42.6950833" lon="13.6021234"><ele>1326.0</ele><time>2026-05-01T11:07:15.784Z</time></trkpt><trkpt lat="42.6951596" lon="13.6020807"><ele>1326.0</ele><time>2026-05-01T11:07:17.782Z</time></trkpt><trkpt lat="42.6952568" lon="13.6020466"><ele>1326.0</ele><time>2026-05-01T11:07:19.783Z</time></trkpt><trkpt lat="42.6953441" lon="13.6020272"><ele>1326.0</ele><time>2026-05-01T11:07:21.784Z</time></trkpt><trkpt lat="42.6954131" lon="13.6020013"><ele>1326.0</ele><time>2026-05-01T11:07:23.782Z</time></trkpt><trkpt lat="42.6954736" lon="13.6019444"><ele>1326.0</ele><time>2026-05-01T11:07:25.781Z</time></trkpt><trkpt lat="42.6955423" lon="13.6018851"><ele>1326.0</ele><time>2026-05-01T11:07:27.783Z</time></trkpt><trkpt lat="42.6956048" lon="13.6018326"><ele>1326.0</ele><time>2026-05-01T11:07:29.781Z</time></trkpt><trkpt lat="42.695658" lon="13.6017799"><ele>1326.0</ele><time>2026-05-01T11:07:31.782Z</time></trkpt><trkpt lat="42.6957385" lon="13.6016885"><ele>1326.0</ele><time>2026-05-01T11:07:33.782Z</time></trkpt><trkpt lat="42.6958086" lon="13.6015852"><ele>1326.0</ele><time>2026-05-01T11:07:35.782Z</time></trkpt><trkpt lat="42.6958822" lon="13.6015096"><ele>1326.0</ele><time>2026-05-01T11:07:37.782Z</time></trkpt><trkpt lat="42.6959618" lon="13.6014367"><ele>1326.0</ele><time>2026-05-01T11:07:39.781Z</time></trkpt><trkpt lat="42.6960199" lon="13.6013508"><ele>1326.0</ele><time>2026-05-01T11:07:41.781Z</time></trkpt><trkpt lat="42.6960986" lon="13.6012729"><ele>1326.0</ele><time>2026-05-01T11:07:43.782Z</time></trkpt><trkpt lat="42.6961991" lon="13.6011805"><ele>1326.0</ele><time>2026-05-01T11:07:45.781Z</time></trkpt><trkpt lat="42.6962514" lon="13.6011245"><ele>1326.0</ele><time>2026-05-01T11:07:46.781Z</time></trkpt><trkpt lat="42.6963303" lon="13.6010286"><ele>1327.0</ele><time>2026-05-01T11:07:48.782Z</time></trkpt><trkpt lat="42.6964246" lon="13.6009754"><ele>1328.0</ele><time>2026-05-01T11:07:50.782Z</time></trkpt><trkpt lat="42.696541" lon="13.6009355"><ele>1329.0</ele><time>2026-05-01T11:07:52.783Z</time></trkpt><trkpt lat="42.696641" lon="13.6009187"><ele>1330.0</ele><time>2026-05-01T11:07:54.782Z</time></trkpt><trkpt lat="42.6967422" lon="13.6009586"><ele>1331.0</ele><time>2026-05-01T11:07:56.782Z</time></trkpt><trkpt lat="42.6968338" lon="13.6009963"><ele>1332.1999999999998</ele><time>2026-05-01T11:07:58.782Z</time></trkpt><trkpt lat="42.6969371" lon="13.6010411"><ele>1333.3999999999999</ele><time>2026-05-01T11:08:00.781Z</time></trkpt><trkpt lat="42.696995" lon="13.6010773"><ele>1334.6</ele><time>2026-05-01T11:08:09.782Z</time></trkpt><trkpt lat="42.6970542" lon="13.6011312"><ele>1335.8</ele><time>2026-05-01T11:08:37.782Z</time></trkpt><trkpt lat="42.6971471" lon="13.6011133"><ele>1337.0</ele><time>2026-05-01T11:08:39.782Z</time></trkpt><trkpt lat="42.6972614" lon="13.6011154"><ele>1337.0</ele><time>2026-05-01T11:08:41.782Z</time></trkpt><trkpt lat="42.6973261" lon="13.6011192"><ele>1337.0</ele><time>2026-05-01T11:08:42.781Z</time></trkpt><trkpt lat="42.6973911" lon="13.6011247"><ele>1337.0</ele><time>2026-05-01T11:08:43.782Z</time></trkpt><trkpt lat="42.6975045" lon="13.6011269"><ele>1337.0</ele><time>2026-05-01T11:08:45.782Z</time></trkpt><trkpt lat="42.6975893" lon="13.6011221"><ele>1337.0</ele><time>2026-05-01T11:08:47.781Z</time></trkpt><trkpt lat="42.6976564" lon="13.6010656"><ele>1337.0</ele><time>2026-05-01T11:08:49.782Z</time></trkpt><trkpt lat="42.6977022" lon="13.6009597"><ele>1337.0</ele><time>2026-05-01T11:08:51.782Z</time></trkpt><trkpt lat="42.6977363" lon="13.6008306"><ele>1337.0</ele><time>2026-05-01T11:08:53.783Z</time></trkpt><trkpt lat="42.6977891" lon="13.6006886"><ele>1337.0</ele><time>2026-05-01T11:08:55.782Z</time></trkpt><trkpt lat="42.6978875" lon="13.6006069"><ele>1337.0</ele><time>2026-05-01T11:08:57.782Z</time></trkpt><trkpt lat="42.6979528" lon="13.6005591"><ele>1337.0</ele><time>2026-05-01T11:08:58.782Z</time></trkpt><trkpt lat="42.6980417" lon="13.6005233"><ele>1337.4285714285713</ele><time>2026-05-01T11:09:00.782Z</time></trkpt><trkpt lat="42.6980665" lon="13.6006146"><ele>1337.857142857143</ele><time>2026-05-01T11:09:13.782Z</time></trkpt><trkpt lat="42.6981495" lon="13.6006153"><ele>1338.2857142857142</ele><time>2026-05-01T11:09:16.782Z</time></trkpt><trkpt lat="42.6982338" lon="13.6006295"><ele>1338.7142857142858</ele><time>2026-05-01T11:09:18.782Z</time></trkpt><trkpt lat="42.6982959" lon="13.6005974"><ele>1339.142857142857</ele><time>2026-05-01T11:09:19.782Z</time></trkpt><trkpt lat="42.6983634" lon="13.6005909"><ele>1339.5714285714284</ele><time>2026-05-01T11:09:20.783Z</time></trkpt><trkpt lat="42.698437" lon="13.6005693"><ele>1340.0</ele><time>2026-05-01T11:09:21.782Z</time></trkpt><trkpt lat="42.6985357" lon="13.600518"><ele>1337.8</ele><time>2026-05-01T11:09:22.783Z</time></trkpt><trkpt lat="42.6986549" lon="13.600465"><ele>1335.6</ele><time>2026-05-01T11:09:23.783Z</time></trkpt><trkpt lat="42.6987526" lon="13.6004188"><ele>1333.4</ele><time>2026-05-01T11:09:24.782Z</time></trkpt><trkpt lat="42.6988432" lon="13.6004093"><ele>1331.2</ele><time>2026-05-01T11:09:25.782Z</time></trkpt><trkpt lat="42.6989394" lon="13.6003865"><ele>1329.0</ele><time>2026-05-01T11:09:26.783Z</time></trkpt><trkpt lat="42.6990124" lon="13.6003233"><ele>1337.25</ele><time>2026-05-01T11:09:27.783Z</time></trkpt><trkpt lat="42.6990994" lon="13.6001807"><ele>1345.5</ele><time>2026-05-01T11:09:28.782Z</time></trkpt><trkpt lat="42.6991924" lon="13.6000711"><ele>1353.75</ele><time>2026-05-01T11:09:29.781Z</time></trkpt><trkpt lat="42.6993003" lon="13.5999549"><ele>1362.0</ele><time>2026-05-01T11:09:30.782Z</time></trkpt><trkpt lat="42.6993977" lon="13.5998465"><ele>1360.1999999999998</ele><time>2026-05-01T11:09:31.782Z</time></trkpt><trkpt lat="42.6995024" lon="13.5997393"><ele>1358.4</ele><time>2026-05-01T11:09:32.781Z</time></trkpt><trkpt lat="42.6995809" lon="13.5996552"><ele>1356.6</ele><time>2026-05-01T11:09:33.782Z</time></trkpt><trkpt lat="42.6996654" lon="13.5995574"><ele>1354.8000000000002</ele><time>2026-05-01T11:09:34.783Z</time></trkpt><trkpt lat="42.6996965" lon="13.5994416"><ele>1353.0</ele><time>2026-05-01T11:09:35.783Z</time></trkpt><trkpt lat="42.6997437" lon="13.5992909"><ele>1353.0</ele><time>2026-05-01T11:09:36.782Z</time></trkpt><trkpt lat="42.6998005" lon="13.5991732"><ele>1353.0</ele><time>2026-05-01T11:09:37.782Z</time></trkpt><trkpt lat="42.6998571" lon="13.599028"><ele>1353.0</ele><time>2026-05-01T11:09:38.782Z</time></trkpt><trkpt lat="42.69989" lon="13.5988816"><ele>1353.0</ele><time>2026-05-01T11:09:39.781Z</time></trkpt><trkpt lat="42.6999183" lon="13.5987295"><ele>1354.6000000000001</ele><time>2026-05-01T11:09:40.781Z</time></trkpt><trkpt lat="42.6999219" lon="13.5985761"><ele>1356.2</ele><time>2026-05-01T11:09:41.782Z</time></trkpt><trkpt lat="42.6999296" lon="13.5984225"><ele>1357.8</ele><time>2026-05-01T11:09:42.782Z</time></trkpt><trkpt lat="42.6999387" lon="13.5982852"><ele>1359.4</ele><time>2026-05-01T11:09:43.782Z</time></trkpt><trkpt lat="42.6999511" lon="13.5981471"><ele>1361.0</ele><time>2026-05-01T11:09:44.781Z</time></trkpt><trkpt lat="42.6999769" lon="13.5980088"><ele>1361.0</ele><time>2026-05-01T11:09:45.782Z</time></trkpt><trkpt lat="42.7000482" lon="13.5978449"><ele>1361.0</ele><time>2026-05-01T11:09:46.781Z</time></trkpt><trkpt lat="42.7001458" lon="13.5977138"><ele>1361.0</ele><time>2026-05-01T11:09:47.782Z</time></trkpt><trkpt lat="42.7002587" lon="13.5976631"><ele>1361.0</ele><time>2026-05-01T11:09:48.782Z</time></trkpt><trkpt lat="42.7003439" lon="13.5975523"><ele>1357.5</ele><time>2026-05-01T11:09:49.782Z</time></trkpt><trkpt lat="42.700426" lon="13.5974353"><ele>1354.0</ele><time>2026-05-01T11:09:50.782Z</time></trkpt><trkpt lat="42.7005245" lon="13.5973228"><ele>1350.5</ele><time>2026-05-01T11:09:51.781Z</time></trkpt><trkpt lat="42.7006255" lon="13.597259"><ele>1347.0</ele><time>2026-05-01T11:09:52.781Z</time></trkpt><trkpt lat="42.7007231" lon="13.5971771"><ele>1347.0</ele><time>2026-05-01T11:09:53.782Z</time></trkpt><trkpt lat="42.7008233" lon="13.5970991"><ele>1347.0</ele><time>2026-05-01T11:09:54.781Z</time></trkpt><trkpt lat="42.7009137" lon="13.5970305"><ele>1347.0</ele><time>2026-05-01T11:09:55.781Z</time></trkpt><trkpt lat="42.7010083" lon="13.5969747"><ele>1347.0</ele><time>2026-05-01T11:09:56.782Z</time></trkpt><trkpt lat="42.7011237" lon="13.5969335"><ele>1347.0</ele><time>2026-05-01T11:09:57.782Z</time></trkpt><trkpt lat="42.7012413" lon="13.5968943"><ele>1347.25</ele><time>2026-05-01T11:09:58.783Z</time></trkpt><trkpt lat="42.7013626" lon="13.596816"><ele>1347.5</ele><time>2026-05-01T11:09:59.781Z</time></trkpt><trkpt lat="42.7014773" lon="13.5967238"><ele>1347.75</ele><time>2026-05-01T11:10:00.782Z</time></trkpt><trkpt lat="42.7015902" lon="13.5966207"><ele>1348.0</ele><time>2026-05-01T11:10:01.781Z</time></trkpt><trkpt lat="42.7017062" lon="13.596525"><ele>1348.0</ele><time>2026-05-01T11:10:02.782Z</time></trkpt><trkpt lat="42.7018392" lon="13.5964384"><ele>1348.0</ele><time>2026-05-01T11:10:03.781Z</time></trkpt><trkpt lat="42.7019709" lon="13.596351"><ele>1348.0</ele><time>2026-05-01T11:10:04.783Z</time></trkpt><trkpt lat="42.7021068" lon="13.596287"><ele>1348.0</ele><time>2026-05-01T11:10:05.781Z</time></trkpt><trkpt lat="42.7022446" lon="13.5962224"><ele>1348.3333333333333</ele><time>2026-05-01T11:10:06.782Z</time></trkpt><trkpt lat="42.7023781" lon="13.5961341"><ele>1348.6666666666667</ele><time>2026-05-01T11:10:07.782Z</time></trkpt><trkpt lat="42.7025155" lon="13.596023"><ele>1349.0</ele><time>2026-05-01T11:10:08.782Z</time></trkpt><trkpt lat="42.7026567" lon="13.5958912"><ele>1354.3333333333335</ele><time>2026-05-01T11:10:09.781Z</time></trkpt><trkpt lat="42.7028031" lon="13.5957437"><ele>1359.6666666666667</ele><time>2026-05-01T11:10:10.781Z</time></trkpt><trkpt lat="42.702948" lon="13.5955992"><ele>1365.0</ele><time>2026-05-01T11:10:11.783Z</time></trkpt><trkpt lat="42.7030862" lon="13.5954539"><ele>1359.5</ele><time>2026-05-01T11:10:12.783Z</time></trkpt><trkpt lat="42.7032119" lon="13.5953324"><ele>1354.0</ele><time>2026-05-01T11:10:13.782Z</time></trkpt><trkpt lat="42.7033249" lon="13.5952272"><ele>1348.5</ele><time>2026-05-01T11:10:14.783Z</time></trkpt><trkpt lat="42.7034303" lon="13.5951362"><ele>1343.0</ele><time>2026-05-01T11:10:15.781Z</time></trkpt><trkpt lat="42.7035404" lon="13.5950698"><ele>1343.25</ele><time>2026-05-01T11:10:16.781Z</time></trkpt><trkpt lat="42.7036626" lon="13.5950313"><ele>1343.5</ele><time>2026-05-01T11:10:17.782Z</time></trkpt><trkpt lat="42.7037892" lon="13.5950121"><ele>1343.75</ele><time>2026-05-01T11:10:18.783Z</time></trkpt><trkpt lat="42.7039057" lon="13.5949948"><ele>1344.0</ele><time>2026-05-01T11:10:19.783Z</time></trkpt><trkpt lat="42.7040139" lon="13.594979"><ele>1344.0</ele><time>2026-05-01T11:10:20.781Z</time></trkpt><trkpt lat="42.7041042" lon="13.5949582"><ele>1344.0</ele><time>2026-05-01T11:10:21.781Z</time></trkpt><trkpt lat="42.7041775" lon="13.5949275"><ele>1344.0</ele><time>2026-05-01T11:10:22.782Z</time></trkpt><trkpt lat="42.7042726" lon="13.594874"><ele>1344.0</ele><time>2026-05-01T11:10:24.782Z</time></trkpt><trkpt lat="42.7043436" lon="13.5948103"><ele>1344.0</ele><time>2026-05-01T11:10:27.782Z</time></trkpt><trkpt lat="42.70441" lon="13.5947434"><ele>1344.0</ele><time>2026-05-01T11:10:29.78Z</time></trkpt><trkpt lat="42.7044843" lon="13.5946664"><ele>1343.2</ele><time>2026-05-01T11:10:31.782Z</time></trkpt><trkpt lat="42.7045886" lon="13.5945663"><ele>1342.4</ele><time>2026-05-01T11:10:33.781Z</time></trkpt><trkpt lat="42.7046575" lon="13.5945107"><ele>1341.6</ele><time>2026-05-01T11:10:34.781Z</time></trkpt><trkpt lat="42.704744" lon="13.5944547"><ele>1340.8</ele><time>2026-05-01T11:10:35.781Z</time></trkpt><trkpt lat="42.7048499" lon="13.5943986"><ele>1340.0</ele><time>2026-05-01T11:10:36.78Z</time></trkpt><trkpt lat="42.7049704" lon="13.5943336"><ele>1344.0</ele><time>2026-05-01T11:10:37.78Z</time></trkpt><trkpt lat="42.7050993" lon="13.5942643"><ele>1348.0</ele><time>2026-05-01T11:10:38.781Z</time></trkpt><trkpt lat="42.7052374" lon="13.594189"><ele>1352.0</ele><time>2026-05-01T11:10:39.78Z</time></trkpt><trkpt lat="42.7053683" lon="13.5940914"><ele>1356.0</ele><time>2026-05-01T11:10:40.782Z</time></trkpt><trkpt lat="42.7054933" lon="13.5939803"><ele>1357.0</ele><time>2026-05-01T11:10:41.78Z</time></trkpt><trkpt lat="42.7056065" lon="13.5938682"><ele>1358.0</ele><time>2026-05-01T11:10:42.78Z</time></trkpt><trkpt lat="42.7057153" lon="13.5937733"><ele>1359.0</ele><time>2026-05-01T11:10:43.781Z</time></trkpt><trkpt lat="42.7058429" lon="13.5936925"><ele>1360.0</ele><time>2026-05-01T11:10:44.781Z</time></trkpt><trkpt lat="42.7059623" lon="13.593626"><ele>1360.0</ele><time>2026-05-01T11:10:45.782Z</time></trkpt><trkpt lat="42.7060751" lon="13.5935365"><ele>1360.0</ele><time>2026-05-01T11:10:46.782Z</time></trkpt><trkpt lat="42.7061707" lon="13.5934315"><ele>1360.0</ele><time>2026-05-01T11:10:47.78Z</time></trkpt><trkpt lat="42.7062532" lon="13.5933111"><ele>1360.0</ele><time>2026-05-01T11:10:48.78Z</time></trkpt><trkpt lat="42.7063309" lon="13.593181"><ele>1361.4</ele><time>2026-05-01T11:10:49.78Z</time></trkpt><trkpt lat="42.7064151" lon="13.593077"><ele>1362.8</ele><time>2026-05-01T11:10:50.781Z</time></trkpt><trkpt lat="42.7064984" lon="13.5930003"><ele>1364.1999999999998</ele><time>2026-05-01T11:10:51.782Z</time></trkpt><trkpt lat="42.7065847" lon="13.5929293"><ele>1365.6</ele><time>2026-05-01T11:10:52.781Z</time></trkpt><trkpt lat="42.7066881" lon="13.5928612"><ele>1367.0</ele><time>2026-05-01T11:10:53.781Z</time></trkpt><trkpt lat="42.7068059" lon="13.5927956"><ele>1370.0</ele><time>2026-05-01T11:10:54.78Z</time></trkpt><trkpt lat="42.7069336" lon="13.5927288"><ele>1373.0</ele><time>2026-05-01T11:10:55.781Z</time></trkpt><trkpt lat="42.7070559" lon="13.5926619"><ele>1376.0</ele><time>2026-05-01T11:10:56.781Z</time></trkpt><trkpt lat="42.7071846" lon="13.5925802"><ele>1379.0</ele><time>2026-05-01T11:10:57.781Z</time></trkpt><trkpt lat="42.7073214" lon="13.5924948"><ele>1379.0</ele><time>2026-05-01T11:10:58.781Z</time></trkpt><trkpt lat="42.7074612" lon="13.5924199"><ele>1379.0</ele><time>2026-05-01T11:10:59.78Z</time></trkpt><trkpt lat="42.707609" lon="13.5923444"><ele>1379.0</ele><time>2026-05-01T11:11:00.782Z</time></trkpt><trkpt lat="42.7077591" lon="13.5922684"><ele>1380.0</ele><time>2026-05-01T11:11:01.78Z</time></trkpt><trkpt lat="42.7078875" lon="13.5921914"><ele>1381.0</ele><time>2026-05-01T11:11:02.78Z</time></trkpt><trkpt lat="42.7080019" lon="13.5921172"><ele>1382.0</ele><time>2026-05-01T11:11:03.78Z</time></trkpt><trkpt lat="42.7081045" lon="13.5920328"><ele>1383.0</ele><time>2026-05-01T11:11:04.78Z</time></trkpt><trkpt lat="42.708189" lon="13.5919419"><ele>1384.25</ele><time>2026-05-01T11:11:05.782Z</time></trkpt><trkpt lat="42.7082656" lon="13.5918292"><ele>1385.5</ele><time>2026-05-01T11:11:06.781Z</time></trkpt><trkpt lat="42.7083334" lon="13.5917064"><ele>1386.75</ele><time>2026-05-01T11:11:07.781Z</time></trkpt><trkpt lat="42.7084014" lon="13.5915579"><ele>1388.0</ele><time>2026-05-01T11:11:08.781Z</time></trkpt><trkpt lat="42.7084747" lon="13.5914186"><ele>1388.0</ele><time>2026-05-01T11:11:09.782Z</time></trkpt><trkpt lat="42.70855" lon="13.5912855"><ele>1388.0</ele><time>2026-05-01T11:11:10.781Z</time></trkpt><trkpt lat="42.7086295" lon="13.5911543"><ele>1388.0</ele><time>2026-05-01T11:11:11.781Z</time></trkpt><trkpt lat="42.708713" lon="13.5910294"><ele>1388.0</ele><time>2026-05-01T11:11:12.781Z</time></trkpt><trkpt lat="42.7088098" lon="13.5909063"><ele>1389.75</ele><time>2026-05-01T11:11:13.78Z</time></trkpt><trkpt lat="42.7089102" lon="13.5907802"><ele>1391.5</ele><time>2026-05-01T11:11:14.781Z</time></trkpt><trkpt lat="42.7090135" lon="13.5906486"><ele>1393.25</ele><time>2026-05-01T11:11:15.781Z</time></trkpt><trkpt lat="42.7091016" lon="13.5905365"><ele>1395.0</ele><time>2026-05-01T11:11:16.78Z</time></trkpt><trkpt lat="42.7091895" lon="13.5904451"><ele>1395.0</ele><time>2026-05-01T11:11:17.781Z</time></trkpt><trkpt lat="42.7092803" lon="13.5903848"><ele>1395.0</ele><time>2026-05-01T11:11:18.78Z</time></trkpt><trkpt lat="42.7093842" lon="13.5903423"><ele>1395.0</ele><time>2026-05-01T11:11:19.781Z</time></trkpt><trkpt lat="42.7095049" lon="13.5903057"><ele>1395.0</ele><time>2026-05-01T11:11:20.781Z</time></trkpt><trkpt lat="42.7096313" lon="13.5902825"><ele>1395.0</ele><time>2026-05-01T11:11:21.781Z</time></trkpt><trkpt lat="42.7097673" lon="13.5902575"><ele>1395.0</ele><time>2026-05-01T11:11:22.782Z</time></trkpt><trkpt lat="42.7098944" lon="13.59022"><ele>1395.0</ele><time>2026-05-01T11:11:23.782Z</time></trkpt><trkpt lat="42.7100071" lon="13.5901864"><ele>1395.0</ele><time>2026-05-01T11:11:24.782Z</time></trkpt><trkpt lat="42.7101112" lon="13.5901405"><ele>1395.0</ele><time>2026-05-01T11:11:25.782Z</time></trkpt><trkpt lat="42.7102165" lon="13.5900756"><ele>1395.0</ele><time>2026-05-01T11:11:26.781Z</time></trkpt><trkpt lat="42.7103252" lon="13.5899975"><ele>1395.0</ele><time>2026-05-01T11:11:27.78Z</time></trkpt><trkpt lat="42.710437" lon="13.5899106"><ele>1395.0</ele><time>2026-05-01T11:11:28.781Z</time></trkpt><trkpt lat="42.7105333" lon="13.5898136"><ele>1395.25</ele><time>2026-05-01T11:11:29.781Z</time></trkpt><trkpt lat="42.7106222" lon="13.5896995"><ele>1395.5</ele><time>2026-05-01T11:11:30.78Z</time></trkpt><trkpt lat="42.7107075" lon="13.5895669"><ele>1395.75</ele><time>2026-05-01T11:11:31.78Z</time></trkpt><trkpt lat="42.7107814" lon="13.5894485"><ele>1396.0</ele><time>2026-05-01T11:11:32.78Z</time></trkpt><trkpt lat="42.7108689" lon="13.5893553"><ele>1396.0</ele><time>2026-05-01T11:11:33.782Z</time></trkpt><trkpt lat="42.7109705" lon="13.5892561"><ele>1396.0</ele><time>2026-05-01T11:11:34.781Z</time></trkpt><trkpt lat="42.7110781" lon="13.5891485"><ele>1396.0</ele><time>2026-05-01T11:11:35.782Z</time></trkpt><trkpt lat="42.7111875" lon="13.5890289"><ele>1396.0</ele><time>2026-05-01T11:11:36.782Z</time></trkpt><trkpt lat="42.7112818" lon="13.5889211"><ele>1396.1999999999998</ele><time>2026-05-01T11:11:37.782Z</time></trkpt><trkpt lat="42.7113716" lon="13.5888353"><ele>1396.3999999999999</ele><time>2026-05-01T11:11:38.781Z</time></trkpt><trkpt lat="42.7114634" lon="13.5887815"><ele>1396.6</ele><time>2026-05-01T11:11:39.781Z</time></trkpt><trkpt lat="42.7115708" lon="13.5887463"><ele>1396.8</ele><time>2026-05-01T11:11:40.781Z</time></trkpt><trkpt lat="42.7116936" lon="13.5887067"><ele>1397.0</ele><time>2026-05-01T11:11:41.781Z</time></trkpt><trkpt lat="42.7118186" lon="13.5886452"><ele>1402.75</ele><time>2026-05-01T11:11:42.781Z</time></trkpt><trkpt lat="42.7119382" lon="13.588566"><ele>1408.5</ele><time>2026-05-01T11:11:43.781Z</time></trkpt><trkpt lat="42.7120558" lon="13.5884817"><ele>1414.25</ele><time>2026-05-01T11:11:44.781Z</time></trkpt><trkpt lat="42.7121726" lon="13.5883909"><ele>1420.0</ele><time>2026-05-01T11:11:45.782Z</time></trkpt><trkpt lat="42.7122798" lon="13.5882997"><ele>1420.0</ele><time>2026-05-01T11:11:46.781Z</time></trkpt><trkpt lat="42.7123751" lon="13.5882116"><ele>1420.0</ele><time>2026-05-01T11:11:47.781Z</time></trkpt><trkpt lat="42.712471" lon="13.5881155"><ele>1420.0</ele><time>2026-05-01T11:11:48.781Z</time></trkpt><trkpt lat="42.7125715" lon="13.5880323"><ele>1420.0</ele><time>2026-05-01T11:11:49.782Z</time></trkpt><trkpt lat="42.7126664" lon="13.5879463"><ele>1419.2</ele><time>2026-05-01T11:11:50.781Z</time></trkpt><trkpt lat="42.7127571" lon="13.5878655"><ele>1418.4</ele><time>2026-05-01T11:11:51.782Z</time></trkpt><trkpt lat="42.7128462" lon="13.5877892"><ele>1417.6</ele><time>2026-05-01T11:11:52.782Z</time></trkpt><trkpt lat="42.7129373" lon="13.5877135"><ele>1416.8</ele><time>2026-05-01T11:11:53.782Z</time></trkpt><trkpt lat="42.7130267" lon="13.587634"><ele>1416.0</ele><time>2026-05-01T11:11:54.78Z</time></trkpt><trkpt lat="42.7131048" lon="13.5875662"><ele>1416.0</ele><time>2026-05-01T11:11:55.781Z</time></trkpt><trkpt lat="42.7131786" lon="13.5875033"><ele>1416.0</ele><time>2026-05-01T11:11:56.782Z</time></trkpt><trkpt lat="42.7132507" lon="13.5874447"><ele>1416.0</ele><time>2026-05-01T11:11:57.782Z</time></trkpt><trkpt lat="42.7133212" lon="13.5873962"><ele>1416.0</ele><time>2026-05-01T11:11:58.781Z</time></trkpt><trkpt lat="42.7133812" lon="13.5873474"><ele>1416.0</ele><time>2026-05-01T11:11:59.781Z</time></trkpt><trkpt lat="42.7134431" lon="13.5872944"><ele>1416.0</ele><time>2026-05-01T11:12:00.78Z</time></trkpt><trkpt lat="42.7135053" lon="13.5872663"><ele>1415.1999999999998</ele><time>2026-05-01T11:12:01.781Z</time></trkpt><trkpt lat="42.7136146" lon="13.587266"><ele>1414.3999999999999</ele><time>2026-05-01T11:12:03.781Z</time></trkpt><trkpt lat="42.7137152" lon="13.5873389"><ele>1413.6</ele><time>2026-05-01T11:12:05.781Z</time></trkpt><trkpt lat="42.7137693" lon="13.58748"><ele>1412.8</ele><time>2026-05-01T11:12:07.781Z</time></trkpt><trkpt lat="42.7137755" lon="13.5875668"><ele>1412.0</ele><time>2026-05-01T11:12:08.78Z</time></trkpt><trkpt lat="42.7137686" lon="13.5876769"><ele>1412.0</ele><time>2026-05-01T11:12:09.781Z</time></trkpt><trkpt lat="42.713762" lon="13.5877755"><ele>1412.0</ele><time>2026-05-01T11:12:10.78Z</time></trkpt><trkpt lat="42.7137663" lon="13.5878783"><ele>1412.0</ele><time>2026-05-01T11:12:11.782Z</time></trkpt><trkpt lat="42.7137749" lon="13.5879742"><ele>1412.0</ele><time>2026-05-01T11:12:12.781Z</time></trkpt><trkpt lat="42.7138135" lon="13.5880569"><ele>1412.0</ele><time>2026-05-01T11:12:13.781Z</time></trkpt><trkpt lat="42.7139305" lon="13.588175"><ele>1412.0</ele><time>2026-05-01T11:12:15.78Z</time></trkpt><trkpt lat="42.7140081" lon="13.5882284"><ele>1412.8333333333335</ele><time>2026-05-01T11:12:16.781Z</time></trkpt><trkpt lat="42.7140818" lon="13.5882818"><ele>1413.6666666666667</ele><time>2026-05-01T11:12:17.781Z</time></trkpt><trkpt lat="42.7141827" lon="13.5883045"><ele>1414.5</ele><time>2026-05-01T11:12:18.782Z</time></trkpt><trkpt lat="42.7142817" lon="13.5883168"><ele>1415.3333333333333</ele><time>2026-05-01T11:12:19.78Z</time></trkpt><trkpt lat="42.7143567" lon="13.588347"><ele>1416.1666666666665</ele><time>2026-05-01T11:12:20.781Z</time></trkpt><trkpt lat="42.7144371" lon="13.5883678"><ele>1417.0</ele><time>2026-05-01T11:12:21.78Z</time></trkpt><trkpt lat="42.7145244" lon="13.5883757"><ele>1414.8333333333333</ele><time>2026-05-01T11:12:22.78Z</time></trkpt><trkpt lat="42.7146133" lon="13.5883987"><ele>1412.6666666666665</ele><time>2026-05-01T11:12:23.78Z</time></trkpt><trkpt lat="42.714702" lon="13.5884078"><ele>1410.5</ele><time>2026-05-01T11:12:24.781Z</time></trkpt><trkpt lat="42.7147786" lon="13.5884201"><ele>1408.3333333333333</ele><time>2026-05-01T11:12:25.782Z</time></trkpt><trkpt lat="42.7148452" lon="13.5884402"><ele>1406.1666666666667</ele><time>2026-05-01T11:12:26.781Z</time></trkpt><trkpt lat="42.7149103" lon="13.5884833"><ele>1404.0</ele><time>2026-05-01T11:12:27.781Z</time></trkpt><trkpt lat="42.7149764" lon="13.5885488"><ele>1403.2</ele><time>2026-05-01T11:12:28.781Z</time></trkpt><trkpt lat="42.7149908" lon="13.588691"><ele>1402.4</ele><time>2026-05-01T11:12:29.781Z</time></trkpt><trkpt lat="42.7150324" lon="13.5887953"><ele>1401.6</ele><time>2026-05-01T11:12:30.782Z</time></trkpt><trkpt lat="42.7150852" lon="13.588874"><ele>1400.8</ele><time>2026-05-01T11:12:31.782Z</time></trkpt><trkpt lat="42.7151725" lon="13.588948"><ele>1400.0</ele><time>2026-05-01T11:12:33.782Z</time></trkpt><trkpt lat="42.7152861" lon="13.5889394"><ele>1400.0</ele><time>2026-05-01T11:12:35.781Z</time></trkpt><trkpt lat="42.7153749" lon="13.5889219"><ele>1400.0</ele><time>2026-05-01T11:12:36.781Z</time></trkpt><trkpt lat="42.7154486" lon="13.5888954"><ele>1400.0</ele><time>2026-05-01T11:12:37.781Z</time></trkpt><trkpt lat="42.7155217" lon="13.5888617"><ele>1400.0</ele><time>2026-05-01T11:12:38.781Z</time></trkpt><trkpt lat="42.7155964" lon="13.588813"><ele>1400.0</ele><time>2026-05-01T11:12:39.782Z</time></trkpt><trkpt lat="42.7156596" lon="13.5888005"><ele>1400.0</ele><time>2026-05-01T11:12:40.781Z</time></trkpt><trkpt lat="42.7157235" lon="13.5888421"><ele>1400.0</ele><time>2026-05-01T11:12:41.781Z</time></trkpt><trkpt lat="42.7157987" lon="13.5889969"><ele>1400.0</ele><time>2026-05-01T11:12:42.782Z</time></trkpt><trkpt lat="42.7158647" lon="13.58917"><ele>1400.0</ele><time>2026-05-01T11:12:43.781Z</time></trkpt><trkpt lat="42.7159252" lon="13.589275"><ele>1400.0</ele><time>2026-05-01T11:12:44.78Z</time></trkpt><trkpt lat="42.7159905" lon="13.5893896"><ele>1400.0</ele><time>2026-05-01T11:12:45.781Z</time></trkpt><trkpt lat="42.7160565" lon="13.5894977"><ele>1400.0</ele><time>2026-05-01T11:12:46.78Z</time></trkpt><trkpt lat="42.7161127" lon="13.5896347"><ele>1400.0</ele><time>2026-05-01T11:12:47.781Z</time></trkpt><trkpt lat="42.7161749" lon="13.5897365"><ele>1400.0</ele><time>2026-05-01T11:12:48.78Z</time></trkpt><trkpt lat="42.7162085" lon="13.5898413"><ele>1400.0</ele><time>2026-05-01T11:12:49.781Z</time></trkpt><trkpt lat="42.71625" lon="13.5899493"><ele>1396.2</ele><time>2026-05-01T11:12:50.781Z</time></trkpt><trkpt lat="42.7162984" lon="13.5901261"><ele>1392.4</ele><time>2026-05-01T11:12:52.781Z</time></trkpt><trkpt lat="42.7163194" lon="13.590215"><ele>1388.6</ele><time>2026-05-01T11:12:53.781Z</time></trkpt><trkpt lat="42.7164041" lon="13.5901657"><ele>1384.8</ele><time>2026-05-01T11:12:56.782Z</time></trkpt><trkpt lat="42.7164646" lon="13.5900862"><ele>1381.0</ele><time>2026-05-01T11:12:58.78Z</time></trkpt><trkpt lat="42.7164559" lon="13.5899402"><ele>1381.0</ele><time>2026-05-01T11:13:00.781Z</time></trkpt><trkpt lat="42.7164206" lon="13.5897965"><ele>1381.0</ele><time>2026-05-01T11:13:01.78Z</time></trkpt><trkpt lat="42.7163545" lon="13.5896751"><ele>1381.0</ele><time>2026-05-01T11:13:02.78Z</time></trkpt><trkpt lat="42.716313" lon="13.5895842"><ele>1381.0</ele><time>2026-05-01T11:13:03.781Z</time></trkpt><trkpt lat="42.7162732" lon="13.5894888"><ele>1381.0</ele><time>2026-05-01T11:13:04.78Z</time></trkpt><trkpt lat="42.71623" lon="13.5893767"><ele>1379.1999999999998</ele><time>2026-05-01T11:13:05.781Z</time></trkpt><trkpt lat="42.7161921" lon="13.5892469"><ele>1377.3999999999999</ele><time>2026-05-01T11:13:06.78Z</time></trkpt><trkpt lat="42.7161373" lon="13.5891221"><ele>1375.6</ele><time>2026-05-01T11:13:07.78Z</time></trkpt><trkpt lat="42.7161333" lon="13.5889597"><ele>1373.8</ele><time>2026-05-01T11:13:08.78Z</time></trkpt><trkpt lat="42.7161554" lon="13.5888393"><ele>1372.0</ele><time>2026-05-01T11:13:09.781Z</time></trkpt><trkpt lat="42.7161604" lon="13.5887272"><ele>1371.1999999999998</ele><time>2026-05-01T11:13:10.78Z</time></trkpt><trkpt lat="42.7161699" lon="13.5885868"><ele>1370.4</ele><time>2026-05-01T11:13:11.781Z</time></trkpt><trkpt lat="42.7161594" lon="13.5884793"><ele>1369.6</ele><time>2026-05-01T11:13:12.781Z</time></trkpt><trkpt lat="42.7160928" lon="13.5883904"><ele>1368.8000000000002</ele><time>2026-05-01T11:13:13.78Z</time></trkpt><trkpt lat="42.7160592" lon="13.5882461"><ele>1368.0</ele><time>2026-05-01T11:13:14.781Z</time></trkpt><trkpt lat="42.7160333" lon="13.5881654"><ele>1370.2</ele><time>2026-05-01T11:13:15.781Z</time></trkpt><trkpt lat="42.7159968" lon="13.5880564"><ele>1372.4</ele><time>2026-05-01T11:13:16.78Z</time></trkpt><trkpt lat="42.7159738" lon="13.5879575"><ele>1374.6000000000001</ele><time>2026-05-01T11:13:17.781Z</time></trkpt><trkpt lat="42.7159857" lon="13.5877792"><ele>1376.8000000000002</ele><time>2026-05-01T11:13:19.781Z</time></trkpt><trkpt lat="42.7159348" lon="13.5877209"><ele>1379.0</ele><time>2026-05-01T11:13:20.781Z</time></trkpt><trkpt lat="42.7159025" lon="13.5875615"><ele>1379.0</ele><time>2026-05-01T11:13:22.78Z</time></trkpt><trkpt lat="42.7158404" lon="13.5873977"><ele>1379.0</ele><time>2026-05-01T11:13:24.78Z</time></trkpt><trkpt lat="42.7158149" lon="13.5872704"><ele>1379.0</ele><time>2026-05-01T11:13:25.781Z</time></trkpt><trkpt lat="42.7157788" lon="13.5871772"><ele>1379.0</ele><time>2026-05-01T11:13:27.781Z</time></trkpt><trkpt lat="42.7158251" lon="13.5871187"><ele>1379.0</ele><time>2026-05-01T11:13:30.781Z</time></trkpt><trkpt lat="42.7158842" lon="13.5870306"><ele>1378.6</ele><time>2026-05-01T11:13:33.782Z</time></trkpt><trkpt lat="42.7159382" lon="13.5869688"><ele>1378.2</ele><time>2026-05-01T11:13:36.781Z</time></trkpt><trkpt lat="42.7160129" lon="13.5869316"><ele>1377.8</ele><time>2026-05-01T11:13:43.78Z</time></trkpt><trkpt lat="42.7160747" lon="13.5869947"><ele>1377.3999999999999</ele><time>2026-05-01T11:13:47.782Z</time></trkpt><trkpt lat="42.7161656" lon="13.5871086"><ele>1377.0</ele><time>2026-05-01T11:13:50.781Z</time></trkpt><trkpt lat="42.7162382" lon="13.5872281"><ele>1374.2857142857142</ele><time>2026-05-01T11:13:52.78Z</time></trkpt><trkpt lat="42.7162693" lon="13.5873032"><ele>1371.5714285714287</ele><time>2026-05-01T11:13:53.782Z</time></trkpt><trkpt lat="42.7163069" lon="13.5873748"><ele>1368.857142857143</ele><time>2026-05-01T11:13:54.782Z</time></trkpt><trkpt lat="42.7163413" lon="13.5874494"><ele>1366.142857142857</ele><time>2026-05-01T11:13:55.781Z</time></trkpt><trkpt lat="42.7163883" lon="13.5875292"><ele>1363.4285714285716</ele><time>2026-05-01T11:13:56.781Z</time></trkpt><trkpt lat="42.7164237" lon="13.5876194"><ele>1360.7142857142858</ele><time>2026-05-01T11:13:57.781Z</time></trkpt><trkpt lat="42.7164634" lon="13.58772"><ele>1358.0</ele><time>2026-05-01T11:13:58.781Z</time></trkpt><trkpt lat="42.7165015" lon="13.5878356"><ele>1360.0</ele><time>2026-05-01T11:13:59.78Z</time></trkpt><trkpt lat="42.716537" lon="13.5879537"><ele>1362.0</ele><time>2026-05-01T11:14:00.781Z</time></trkpt><trkpt lat="42.7165789" lon="13.5880887"><ele>1364.0</ele><time>2026-05-01T11:14:01.781Z</time></trkpt><trkpt lat="42.7166221" lon="13.5882238"><ele>1366.0</ele><time>2026-05-01T11:14:02.781Z</time></trkpt><trkpt lat="42.7166812" lon="13.5883469"><ele>1368.0</ele><time>2026-05-01T11:14:03.781Z</time></trkpt><trkpt lat="42.7167436" lon="13.5884524"><ele>1368.0</ele><time>2026-05-01T11:14:04.781Z</time></trkpt><trkpt lat="42.7167927" lon="13.5885493"><ele>1368.0</ele><time>2026-05-01T11:14:05.781Z</time></trkpt><trkpt lat="42.7168385" lon="13.5886562"><ele>1368.0</ele><time>2026-05-01T11:14:06.781Z</time></trkpt><trkpt lat="42.7168612" lon="13.588784"><ele>1368.0</ele><time>2026-05-01T11:14:07.78Z</time></trkpt><trkpt lat="42.7169651" lon="13.5888884"><ele>1368.0</ele><time>2026-05-01T11:14:09.781Z</time></trkpt><trkpt lat="42.7169996" lon="13.5890025"><ele>1366.6666666666667</ele><time>2026-05-01T11:14:10.781Z</time></trkpt><trkpt lat="42.7170338" lon="13.5891347"><ele>1365.3333333333333</ele><time>2026-05-01T11:14:11.78Z</time></trkpt><trkpt lat="42.7170741" lon="13.5892476"><ele>1364.0</ele><time>2026-05-01T11:14:12.78Z</time></trkpt><trkpt lat="42.7171062" lon="13.5893642"><ele>1362.6666666666665</ele><time>2026-05-01T11:14:13.78Z</time></trkpt><trkpt lat="42.7171512" lon="13.5894613"><ele>1361.3333333333333</ele><time>2026-05-01T11:14:14.781Z</time></trkpt><trkpt lat="42.7171656" lon="13.5895504"><ele>1360.0</ele><time>2026-05-01T11:14:15.781Z</time></trkpt><trkpt lat="42.7172241" lon="13.5896612"><ele>1360.0</ele><time>2026-05-01T11:14:16.781Z</time></trkpt><trkpt lat="42.7172547" lon="13.5897603"><ele>1360.0</ele><time>2026-05-01T11:14:17.781Z</time></trkpt><trkpt lat="42.7173005" lon="13.589845"><ele>1360.0</ele><time>2026-05-01T11:14:18.78Z</time></trkpt><trkpt lat="42.7173883" lon="13.589976"><ele>1360.0</ele><time>2026-05-01T11:14:20.781Z</time></trkpt><trkpt lat="42.7174264" lon="13.59005"><ele>1360.0</ele><time>2026-05-01T11:14:21.781Z</time></trkpt><trkpt lat="42.7174928" lon="13.5900597"><ele>1360.0</ele><time>2026-05-01T11:14:22.78Z</time></trkpt><trkpt lat="42.7176036" lon="13.5900174"><ele>1360.0</ele><time>2026-05-01T11:14:23.78Z</time></trkpt><trkpt lat="42.717714" lon="13.5900154"><ele>1360.0</ele><time>2026-05-01T11:14:24.781Z</time></trkpt><trkpt lat="42.7178167" lon="13.5900467"><ele>1360.0</ele><time>2026-05-01T11:14:25.781Z</time></trkpt><trkpt lat="42.7179257" lon="13.590051"><ele>1360.0</ele><time>2026-05-01T11:14:26.781Z</time></trkpt><trkpt lat="42.7180272" lon="13.5900505"><ele>1360.0</ele><time>2026-05-01T11:14:27.781Z</time></trkpt><trkpt lat="42.7181218" lon="13.5900583"><ele>1356.8</ele><time>2026-05-01T11:14:28.781Z</time></trkpt><trkpt lat="42.7182229" lon="13.5900765"><ele>1353.6</ele><time>2026-05-01T11:14:29.782Z</time></trkpt><trkpt lat="42.7183202" lon="13.5900962"><ele>1350.4</ele><time>2026-05-01T11:14:30.78Z</time></trkpt><trkpt lat="42.7184124" lon="13.5900909"><ele>1347.2</ele><time>2026-05-01T11:14:31.781Z</time></trkpt><trkpt lat="42.718494" lon="13.5900999"><ele>1344.0</ele><time>2026-05-01T11:14:32.78Z</time></trkpt><trkpt lat="42.7185738" lon="13.5901271"><ele>1342.1666666666667</ele><time>2026-05-01T11:14:33.779Z</time></trkpt><trkpt lat="42.718643" lon="13.5901636"><ele>1340.3333333333333</ele><time>2026-05-01T11:14:34.779Z</time></trkpt><trkpt lat="42.7187107" lon="13.5902135"><ele>1338.5</ele><time>2026-05-01T11:14:35.78Z</time></trkpt><trkpt lat="42.7187756" lon="13.5902573"><ele>1336.6666666666665</ele><time>2026-05-01T11:14:36.78Z</time></trkpt><trkpt lat="42.7188413" lon="13.5902672"><ele>1334.8333333333333</ele><time>2026-05-01T11:14:37.78Z</time></trkpt><trkpt lat="42.7189601" lon="13.5902343"><ele>1333.0</ele><time>2026-05-01T11:14:39.78Z</time></trkpt><trkpt lat="42.7190408" lon="13.5901124"><ele>1333.0</ele><time>2026-05-01T11:14:41.779Z</time></trkpt><trkpt lat="42.7189926" lon="13.5900019"><ele>1333.0</ele><time>2026-05-01T11:14:42.779Z</time></trkpt><trkpt lat="42.7189404" lon="13.5898621"><ele>1333.0</ele><time>2026-05-01T11:14:44.78Z</time></trkpt><trkpt lat="42.7188801" lon="13.5898009"><ele>1333.0</ele><time>2026-05-01T11:14:45.78Z</time></trkpt><trkpt lat="42.7188138" lon="13.589747"><ele>1333.0</ele><time>2026-05-01T11:14:46.781Z</time></trkpt><trkpt lat="42.7187375" lon="13.5897338"><ele>1333.0</ele><time>2026-05-01T11:14:47.781Z</time></trkpt><trkpt lat="42.7186379" lon="13.5897139"><ele>1335.2</ele><time>2026-05-01T11:14:48.78Z</time></trkpt><trkpt lat="42.718525" lon="13.5897706"><ele>1337.4</ele><time>2026-05-01T11:14:49.781Z</time></trkpt><trkpt lat="42.7184435" lon="13.589782"><ele>1339.6000000000001</ele><time>2026-05-01T11:14:50.78Z</time></trkpt><trkpt lat="42.7183481" lon="13.5897842"><ele>1341.8000000000002</ele><time>2026-05-01T11:14:51.781Z</time></trkpt><trkpt lat="42.7182806" lon="13.5897959"><ele>1344.0</ele><time>2026-05-01T11:14:52.781Z</time></trkpt><trkpt lat="42.7181966" lon="13.5897791"><ele>1344.0</ele><time>2026-05-01T11:14:53.78Z</time></trkpt><trkpt lat="42.7181035" lon="13.5897623"><ele>1344.0</ele><time>2026-05-01T11:14:54.781Z</time></trkpt><trkpt lat="42.7180104" lon="13.5897039"><ele>1344.0</ele><time>2026-05-01T11:14:56.781Z</time></trkpt><trkpt lat="42.717976" lon="13.5895891"><ele>1344.0</ele><time>2026-05-01T11:14:58.78Z</time></trkpt><trkpt lat="42.7180005" lon="13.5894978"><ele>1344.0</ele><time>2026-05-01T11:14:59.78Z</time></trkpt><trkpt lat="42.7180414" lon="13.5894175"><ele>1344.0</ele><time>2026-05-01T11:15:00.781Z</time></trkpt><trkpt lat="42.7181083" lon="13.5894299"><ele>1341.0</ele><time>2026-05-01T11:15:01.78Z</time></trkpt><trkpt lat="42.7182409" lon="13.5894009"><ele>1338.0</ele><time>2026-05-01T11:15:03.78Z</time></trkpt><trkpt lat="42.7183244" lon="13.5894251"><ele>1335.0</ele><time>2026-05-01T11:15:04.779Z</time></trkpt><trkpt lat="42.7184186" lon="13.589427"><ele>1332.0</ele><time>2026-05-01T11:15:05.78Z</time></trkpt><trkpt lat="42.7185286" lon="13.5894223"><ele>1329.0</ele><time>2026-05-01T11:15:06.779Z</time></trkpt><trkpt lat="42.718631" lon="13.5894247"><ele>1326.6</ele><time>2026-05-01T11:15:07.779Z</time></trkpt><trkpt lat="42.7187275" lon="13.5894134"><ele>1324.2</ele><time>2026-05-01T11:15:08.779Z</time></trkpt><trkpt lat="42.7188209" lon="13.5894065"><ele>1321.8</ele><time>2026-05-01T11:15:09.78Z</time></trkpt><trkpt lat="42.7189153" lon="13.5893913"><ele>1319.3999999999999</ele><time>2026-05-01T11:15:10.781Z</time></trkpt><trkpt lat="42.7189947" lon="13.5894225"><ele>1317.0</ele><time>2026-05-01T11:15:11.78Z</time></trkpt><trkpt lat="42.7190868" lon="13.5894172"><ele>1317.0</ele><time>2026-05-01T11:15:12.781Z</time></trkpt><trkpt lat="42.7191759" lon="13.5894421"><ele>1317.0</ele><time>2026-05-01T11:15:13.781Z</time></trkpt><trkpt lat="42.7192601" lon="13.5894653"><ele>1317.0</ele><time>2026-05-01T11:15:14.781Z</time></trkpt><trkpt lat="42.7193402" lon="13.589491"><ele>1317.0</ele><time>2026-05-01T11:15:15.78Z</time></trkpt><trkpt lat="42.7194155" lon="13.5895231"><ele>1317.0</ele><time>2026-05-01T11:15:16.781Z</time></trkpt><trkpt lat="42.7195298" lon="13.5895848"><ele>1315.0</ele><time>2026-05-01T11:15:18.781Z</time></trkpt><trkpt lat="42.7195735" lon="13.5896879"><ele>1313.0</ele><time>2026-05-01T11:15:19.78Z</time></trkpt><trkpt lat="42.7196225" lon="13.5897434"><ele>1311.0</ele><time>2026-05-01T11:15:20.781Z</time></trkpt><trkpt lat="42.7196025" lon="13.5898846"><ele>1309.0</ele><time>2026-05-01T11:15:21.781Z</time></trkpt><trkpt lat="42.7195955" lon="13.5899808"><ele>1307.0</ele><time>2026-05-01T11:15:22.78Z</time></trkpt><trkpt lat="42.7195877" lon="13.5900832"><ele>1305.0</ele><time>2026-05-01T11:15:23.78Z</time></trkpt><trkpt lat="42.7195628" lon="13.590185"><ele>1305.0</ele><time>2026-05-01T11:15:24.78Z</time></trkpt><trkpt lat="42.7195176" lon="13.5902784"><ele>1305.0</ele><time>2026-05-01T11:15:25.781Z</time></trkpt><trkpt lat="42.7194463" lon="13.5903444"><ele>1305.0</ele><time>2026-05-01T11:15:26.78Z</time></trkpt><trkpt lat="42.7193849" lon="13.5904455"><ele>1305.0</ele><time>2026-05-01T11:15:27.78Z</time></trkpt><trkpt lat="42.7193125" lon="13.5905418"><ele>1305.0</ele><time>2026-05-01T11:15:28.781Z</time></trkpt><trkpt lat="42.719234" lon="13.5906361"><ele>1309.4</ele><time>2026-05-01T11:15:29.78Z</time></trkpt><trkpt lat="42.7191643" lon="13.5907233"><ele>1313.8</ele><time>2026-05-01T11:15:30.781Z</time></trkpt><trkpt lat="42.7191157" lon="13.5908374"><ele>1318.1999999999998</ele><time>2026-05-01T11:15:31.781Z</time></trkpt><trkpt lat="42.7190767" lon="13.5909224"><ele>1322.6</ele><time>2026-05-01T11:15:32.78Z</time></trkpt><trkpt lat="42.7190292" lon="13.5910414"><ele>1327.0</ele><time>2026-05-01T11:15:33.779Z</time></trkpt><trkpt lat="42.719018" lon="13.5911718"><ele>1323.3999999999999</ele><time>2026-05-01T11:15:34.78Z</time></trkpt><trkpt lat="42.7189795" lon="13.5913053"><ele>1319.8</ele><time>2026-05-01T11:15:35.781Z</time></trkpt><trkpt lat="42.7189562" lon="13.5914338"><ele>1316.2</ele><time>2026-05-01T11:15:36.78Z</time></trkpt><trkpt lat="42.7189192" lon="13.5915656"><ele>1312.6</ele><time>2026-05-01T11:15:37.78Z</time></trkpt><trkpt lat="42.7188915" lon="13.591687"><ele>1309.0</ele><time>2026-05-01T11:15:38.78Z</time></trkpt><trkpt lat="42.718874" lon="13.5918357"><ele>1309.0</ele><time>2026-05-01T11:15:39.78Z</time></trkpt><trkpt lat="42.7188711" lon="13.5919705"><ele>1309.0</ele><time>2026-05-01T11:15:40.779Z</time></trkpt><trkpt lat="42.7188747" lon="13.5920913"><ele>1309.0</ele><time>2026-05-01T11:15:41.779Z</time></trkpt><trkpt lat="42.7188714" lon="13.5922237"><ele>1309.0</ele><time>2026-05-01T11:15:42.781Z</time></trkpt><trkpt lat="42.7188739" lon="13.5923605"><ele>1309.0</ele><time>2026-05-01T11:15:43.781Z</time></trkpt><trkpt lat="42.7188541" lon="13.5924841"><ele>1307.2</ele><time>2026-05-01T11:15:44.781Z</time></trkpt><trkpt lat="42.7188451" lon="13.5926218"><ele>1305.4</ele><time>2026-05-01T11:15:45.781Z</time></trkpt><trkpt lat="42.7188133" lon="13.5927643"><ele>1303.6</ele><time>2026-05-01T11:15:46.781Z</time></trkpt><trkpt lat="42.7187908" lon="13.5928955"><ele>1301.8</ele><time>2026-05-01T11:15:47.78Z</time></trkpt><trkpt lat="42.718765" lon="13.5930379"><ele>1300.0</ele><time>2026-05-01T11:15:48.78Z</time></trkpt><trkpt lat="42.7187369" lon="13.5931808"><ele>1297.6</ele><time>2026-05-01T11:15:49.779Z</time></trkpt><trkpt lat="42.7187195" lon="13.5933005"><ele>1295.2</ele><time>2026-05-01T11:15:50.78Z</time></trkpt><trkpt lat="42.7186838" lon="13.5934323"><ele>1292.8000000000002</ele><time>2026-05-01T11:15:51.779Z</time></trkpt><trkpt lat="42.7186494" lon="13.5935562"><ele>1290.4</ele><time>2026-05-01T11:15:52.779Z</time></trkpt><trkpt lat="42.718608" lon="13.5936777"><ele>1288.0</ele><time>2026-05-01T11:15:53.78Z</time></trkpt><trkpt lat="42.7185843" lon="13.593785"><ele>1292.1666666666665</ele><time>2026-05-01T11:15:54.78Z</time></trkpt><trkpt lat="42.7185589" lon="13.5938961"><ele>1296.3333333333333</ele><time>2026-05-01T11:15:55.781Z</time></trkpt><trkpt lat="42.7185167" lon="13.5940037"><ele>1300.5</ele><time>2026-05-01T11:15:57.781Z</time></trkpt><trkpt lat="42.7184888" lon="13.5941393"><ele>1304.6666666666667</ele><time>2026-05-01T11:15:59.781Z</time></trkpt><trkpt lat="42.7184343" lon="13.5942095"><ele>1308.8333333333335</ele><time>2026-05-01T11:16:00.78Z</time></trkpt><trkpt lat="42.7184299" lon="13.5943165"><ele>1313.0</ele><time>2026-05-01T11:16:01.78Z</time></trkpt><trkpt lat="42.7184387" lon="13.5944347"><ele>1312.2857142857144</ele><time>2026-05-01T11:16:02.779Z</time></trkpt><trkpt lat="42.7184425" lon="13.5945315"><ele>1311.5714285714287</ele><time>2026-05-01T11:16:03.78Z</time></trkpt><trkpt lat="42.718445" lon="13.5946373"><ele>1310.857142857143</ele><time>2026-05-01T11:16:04.779Z</time></trkpt><trkpt lat="42.7184425" lon="13.5947411"><ele>1310.1428571428573</ele><time>2026-05-01T11:16:05.779Z</time></trkpt><trkpt lat="42.7184358" lon="13.5948512"><ele>1309.4285714285716</ele><time>2026-05-01T11:16:06.78Z</time></trkpt><trkpt lat="42.7184847" lon="13.5949086"><ele>1308.7142857142858</ele><time>2026-05-01T11:16:07.78Z</time></trkpt><trkpt lat="42.7185068" lon="13.5949955"><ele>1308.0</ele><time>2026-05-01T11:16:08.779Z</time></trkpt><trkpt lat="42.7186283" lon="13.5951219"><ele>1305.6666666666667</ele><time>2026-05-01T11:16:10.78Z</time></trkpt><trkpt lat="42.7187" lon="13.59511"><ele>1303.3333333333333</ele><time>2026-05-01T11:16:11.78Z</time></trkpt><trkpt lat="42.7187658" lon="13.5951543"><ele>1301.0</ele><time>2026-05-01T11:16:12.78Z</time></trkpt><trkpt lat="42.7188268" lon="13.5952178"><ele>1298.6666666666665</ele><time>2026-05-01T11:16:13.779Z</time></trkpt><trkpt lat="42.7188528" lon="13.5953679"><ele>1296.3333333333333</ele><time>2026-05-01T11:16:15.78Z</time></trkpt><trkpt lat="42.7188441" lon="13.5954803"><ele>1294.0</ele><time>2026-05-01T11:16:16.781Z</time></trkpt><trkpt lat="42.7188368" lon="13.5955745"><ele>1294.0</ele><time>2026-05-01T11:16:17.781Z</time></trkpt><trkpt lat="42.7188585" lon="13.595745"><ele>1294.0</ele><time>2026-05-01T11:16:19.78Z</time></trkpt><trkpt lat="42.7189416" lon="13.5958446"><ele>1294.0</ele><time>2026-05-01T11:16:21.781Z</time></trkpt><trkpt lat="42.7190897" lon="13.5958385"><ele>1294.0</ele><time>2026-05-01T11:16:23.781Z</time></trkpt><trkpt lat="42.7192016" lon="13.5957918"><ele>1294.0</ele><time>2026-05-01T11:16:24.781Z</time></trkpt><trkpt lat="42.7193221" lon="13.5957329"><ele>1294.0</ele><time>2026-05-01T11:16:25.78Z</time></trkpt><trkpt lat="42.7194348" lon="13.5956779"><ele>1294.0</ele><time>2026-05-01T11:16:26.78Z</time></trkpt><trkpt lat="42.7195347" lon="13.5956163"><ele>1294.0</ele><time>2026-05-01T11:16:27.78Z</time></trkpt><trkpt lat="42.7196278" lon="13.5955577"><ele>1294.0</ele><time>2026-05-01T11:16:28.779Z</time></trkpt><trkpt lat="42.7197255" lon="13.5955"><ele>1294.0</ele><time>2026-05-01T11:16:29.78Z</time></trkpt><trkpt lat="42.7198038" lon="13.5954186"><ele>1294.0</ele><time>2026-05-01T11:16:30.78Z</time></trkpt><trkpt lat="42.7198689" lon="13.5952869"><ele>1294.0</ele><time>2026-05-01T11:16:31.779Z</time></trkpt><trkpt lat="42.7199509" lon="13.5951983"><ele>1294.0</ele><time>2026-05-01T11:16:32.78Z</time></trkpt><trkpt lat="42.7200354" lon="13.5950922"><ele>1292.8000000000002</ele><time>2026-05-01T11:16:33.78Z</time></trkpt><trkpt lat="42.7200981" lon="13.5949871"><ele>1291.6000000000001</ele><time>2026-05-01T11:16:34.78Z</time></trkpt><trkpt lat="42.7201835" lon="13.594911"><ele>1290.4</ele><time>2026-05-01T11:16:35.779Z</time></trkpt><trkpt lat="42.720254" lon="13.5948291"><ele>1289.2</ele><time>2026-05-01T11:16:36.78Z</time></trkpt><trkpt lat="42.7203386" lon="13.5947696"><ele>1288.0</ele><time>2026-05-01T11:16:37.781Z</time></trkpt><trkpt lat="42.720409" lon="13.5947171"><ele>1290.1666666666665</ele><time>2026-05-01T11:16:38.78Z</time></trkpt><trkpt lat="42.7204815" lon="13.594686"><ele>1292.3333333333333</ele><time>2026-05-01T11:16:39.78Z</time></trkpt><trkpt lat="42.7205493" lon="13.5946623"><ele>1294.5</ele><time>2026-05-01T11:16:40.78Z</time></trkpt><trkpt lat="42.7206725" lon="13.5946732"><ele>1296.6666666666667</ele><time>2026-05-01T11:16:42.78Z</time></trkpt><trkpt lat="42.7207366" lon="13.5946773"><ele>1298.8333333333335</ele><time>2026-05-01T11:16:43.781Z</time></trkpt><trkpt lat="42.7208334" lon="13.5946228"><ele>1301.0</ele><time>2026-05-01T11:16:45.779Z</time></trkpt><trkpt lat="42.7208566" lon="13.5945037"><ele>1301.0</ele><time>2026-05-01T11:16:47.78Z</time></trkpt><trkpt lat="42.72078" lon="13.594396"><ele>1301.0</ele><time>2026-05-01T11:16:49.78Z</time></trkpt><trkpt lat="42.7206498" lon="13.5944043"><ele>1301.0</ele><time>2026-05-01T11:16:51.779Z</time></trkpt><trkpt lat="42.7205726" lon="13.5944382"><ele>1301.0</ele><time>2026-05-01T11:16:52.781Z</time></trkpt><trkpt lat="42.7204779" lon="13.5944823"><ele>1301.0</ele><time>2026-05-01T11:16:53.781Z</time></trkpt><trkpt lat="42.72038" lon="13.5945278"><ele>1301.0</ele><time>2026-05-01T11:16:54.78Z</time></trkpt><trkpt lat="42.720285" lon="13.5945701"><ele>1301.0</ele><time>2026-05-01T11:16:55.78Z</time></trkpt><trkpt lat="42.7201827" lon="13.59462"><ele>1301.0</ele><time>2026-05-01T11:16:56.779Z</time></trkpt><trkpt lat="42.7200791" lon="13.5946706"><ele>1301.0</ele><time>2026-05-01T11:16:57.78Z</time></trkpt><trkpt lat="42.7199832" lon="13.5947144"><ele>1301.0</ele><time>2026-05-01T11:16:58.78Z</time></trkpt><trkpt lat="42.7198894" lon="13.5947559"><ele>1298.8333333333335</ele><time>2026-05-01T11:16:59.78Z</time></trkpt><trkpt lat="42.7197982" lon="13.594792"><ele>1296.6666666666667</ele><time>2026-05-01T11:17:00.78Z</time></trkpt><trkpt lat="42.7197123" lon="13.5948311"><ele>1294.5</ele><time>2026-05-01T11:17:01.779Z</time></trkpt><trkpt lat="42.7196351" lon="13.5948684"><ele>1292.3333333333333</ele><time>2026-05-01T11:17:02.78Z</time></trkpt><trkpt lat="42.719574" lon="13.5948984"><ele>1290.1666666666665</ele><time>2026-05-01T11:17:03.78Z</time></trkpt><trkpt lat="42.7194669" lon="13.5949041"><ele>1288.0</ele><time>2026-05-01T11:17:05.78Z</time></trkpt><trkpt lat="42.7193779" lon="13.5948563"><ele>1287.5</ele><time>2026-05-01T11:17:07.779Z</time></trkpt><trkpt lat="42.7193226" lon="13.5947941"><ele>1287.0</ele><time>2026-05-01T11:17:08.78Z</time></trkpt><trkpt lat="42.7192806" lon="13.5946775"><ele>1286.5</ele><time>2026-05-01T11:17:09.779Z</time></trkpt><trkpt lat="42.7192244" lon="13.5945598"><ele>1286.0</ele><time>2026-05-01T11:17:10.781Z</time></trkpt><trkpt lat="42.7191916" lon="13.5944647"><ele>1285.5</ele><time>2026-05-01T11:17:11.781Z</time></trkpt><trkpt lat="42.7191545" lon="13.5943616"><ele>1285.0</ele><time>2026-05-01T11:17:12.781Z</time></trkpt><trkpt lat="42.7191579" lon="13.5941623"><ele>1285.6</ele><time>2026-05-01T11:17:14.78Z</time></trkpt><trkpt lat="42.719168" lon="13.5940392"><ele>1286.2</ele><time>2026-05-01T11:17:15.781Z</time></trkpt><trkpt lat="42.7191589" lon="13.5939384"><ele>1286.8000000000002</ele><time>2026-05-01T11:17:16.78Z</time></trkpt><trkpt lat="42.7192966" lon="13.593808"><ele>1287.4</ele><time>2026-05-01T11:17:17.781Z</time></trkpt><trkpt lat="42.7193338" lon="13.5937116"><ele>1288.0</ele><time>2026-05-01T11:17:18.781Z</time></trkpt><trkpt lat="42.7193802" lon="13.5936056"><ele>1283.1666666666665</ele><time>2026-05-01T11:17:19.781Z</time></trkpt><trkpt lat="42.7194213" lon="13.5935042"><ele>1278.3333333333333</ele><time>2026-05-01T11:17:20.779Z</time></trkpt><trkpt lat="42.7194733" lon="13.5934267"><ele>1273.5</ele><time>2026-05-01T11:17:22.78Z</time></trkpt><trkpt lat="42.7195287" lon="13.593384"><ele>1268.6666666666667</ele><time>2026-05-01T11:17:24.779Z</time></trkpt><trkpt lat="42.7195843" lon="13.5932754"><ele>1263.8333333333335</ele><time>2026-05-01T11:17:28.781Z</time></trkpt><trkpt lat="42.7196061" lon="13.5931851"><ele>1259.0</ele><time>2026-05-01T11:17:30.781Z</time></trkpt><trkpt lat="42.7196457" lon="13.5930736"><ele>1259.0</ele><time>2026-05-01T11:17:31.781Z</time></trkpt><trkpt lat="42.7197027" lon="13.5930034"><ele>1259.0</ele><time>2026-05-01T11:17:32.781Z</time></trkpt><trkpt lat="42.7197395" lon="13.5929113"><ele>1259.0</ele><time>2026-05-01T11:17:33.78Z</time></trkpt><trkpt lat="42.719792" lon="13.5928192"><ele>1259.0</ele><time>2026-05-01T11:17:34.78Z</time></trkpt><trkpt lat="42.7198379" lon="13.5927213"><ele>1259.0</ele><time>2026-05-01T11:17:35.78Z</time></trkpt><trkpt lat="42.7198681" lon="13.5926391"><ele>1259.0</ele><time>2026-05-01T11:17:36.781Z</time></trkpt><trkpt lat="42.7199034" lon="13.5925444"><ele>1259.1666666666667</ele><time>2026-05-01T11:17:37.78Z</time></trkpt><trkpt lat="42.7199322" lon="13.5924469"><ele>1259.3333333333335</ele><time>2026-05-01T11:17:38.78Z</time></trkpt><trkpt lat="42.7199389" lon="13.5923457"><ele>1259.5</ele><time>2026-05-01T11:17:39.781Z</time></trkpt><trkpt lat="42.7199393" lon="13.5922379"><ele>1259.6666666666667</ele><time>2026-05-01T11:17:40.781Z</time></trkpt><trkpt lat="42.7199525" lon="13.592133"><ele>1259.8333333333333</ele><time>2026-05-01T11:17:41.781Z</time></trkpt><trkpt lat="42.7199405" lon="13.5920061"><ele>1260.0</ele><time>2026-05-01T11:17:42.78Z</time></trkpt><trkpt lat="42.7198951" lon="13.5919461"><ele>1260.8</ele><time>2026-05-01T11:17:43.78Z</time></trkpt><trkpt lat="42.7199057" lon="13.5917565"><ele>1261.6</ele><time>2026-05-01T11:17:45.78Z</time></trkpt><trkpt lat="42.7199428" lon="13.5916376"><ele>1262.4</ele><time>2026-05-01T11:17:46.779Z</time></trkpt><trkpt lat="42.7199849" lon="13.5915147"><ele>1263.2</ele><time>2026-05-01T11:17:47.78Z</time></trkpt><trkpt lat="42.7200435" lon="13.5914169"><ele>1264.0</ele><time>2026-05-01T11:17:48.781Z</time></trkpt><trkpt lat="42.7201526" lon="13.5913787"><ele>1258.4</ele><time>2026-05-01T11:17:49.78Z</time></trkpt><trkpt lat="42.7202551" lon="13.5913066"><ele>1252.8000000000002</ele><time>2026-05-01T11:17:50.781Z</time></trkpt><trkpt lat="42.7203263" lon="13.5912421"><ele>1247.1999999999998</ele><time>2026-05-01T11:17:51.78Z</time></trkpt><trkpt lat="42.7204154" lon="13.5911768"><ele>1241.6</ele><time>2026-05-01T11:17:52.781Z</time></trkpt><trkpt lat="42.7204518" lon="13.5910809"><ele>1236.0</ele><time>2026-05-01T11:17:53.78Z</time></trkpt><trkpt lat="42.7204349" lon="13.5909294"><ele>1236.0</ele><time>2026-05-01T11:17:54.78Z</time></trkpt><trkpt lat="42.7204368" lon="13.5908166"><ele>1236.0</ele><time>2026-05-01T11:17:55.78Z</time></trkpt><trkpt lat="42.7204407" lon="13.5907067"><ele>1236.0</ele><time>2026-05-01T11:17:56.78Z</time></trkpt><trkpt lat="42.7204746" lon="13.5906226"><ele>1236.0</ele><time>2026-05-01T11:17:57.78Z</time></trkpt><trkpt lat="42.7205299" lon="13.5905676"><ele>1236.0</ele><time>2026-05-01T11:17:58.78Z</time></trkpt><trkpt lat="42.720626" lon="13.5905195"><ele>1236.0</ele><time>2026-05-01T11:17:59.781Z</time></trkpt><trkpt lat="42.7206903" lon="13.590472"><ele>1236.0</ele><time>2026-05-01T11:18:00.781Z</time></trkpt><trkpt lat="42.7207962" lon="13.5904084"><ele>1236.0</ele><time>2026-05-01T11:18:01.781Z</time></trkpt><trkpt lat="42.7208718" lon="13.5903515"><ele>1236.0</ele><time>2026-05-01T11:18:02.781Z</time></trkpt><trkpt lat="42.7209401" lon="13.5903043"><ele>1236.0</ele><time>2026-05-01T11:18:03.781Z</time></trkpt><trkpt lat="42.7209917" lon="13.5902485"><ele>1236.0</ele><time>2026-05-01T11:18:04.781Z</time></trkpt><trkpt lat="42.7210471" lon="13.5901837"><ele>1236.0</ele><time>2026-05-01T11:18:05.78Z</time></trkpt><trkpt lat="42.7210749" lon="13.5900173"><ele>1242.5</ele><time>2026-05-01T11:18:07.779Z</time></trkpt><trkpt lat="42.7210576" lon="13.5898971"><ele>1249.0</ele><time>2026-05-01T11:18:08.779Z</time></trkpt><trkpt lat="42.7210635" lon="13.5896671"><ele>1255.5</ele><time>2026-05-01T11:18:09.78Z</time></trkpt><trkpt lat="42.7210684" lon="13.5895002"><ele>1262.0</ele><time>2026-05-01T11:18:10.779Z</time></trkpt><trkpt lat="42.721074" lon="13.5893277"><ele>1247.5</ele><time>2026-05-01T11:18:11.779Z</time></trkpt><trkpt lat="42.7210876" lon="13.5891571"><ele>1233.0</ele><time>2026-05-01T11:18:12.78Z</time></trkpt><trkpt lat="42.7210996" lon="13.5890042"><ele>1218.5</ele><time>2026-05-01T11:18:13.781Z</time></trkpt><trkpt lat="42.7211122" lon="13.5888448"><ele>1204.0</ele><time>2026-05-01T11:18:14.78Z</time></trkpt><trkpt lat="42.7211242" lon="13.5886953"><ele>1206.2</ele><time>2026-05-01T11:18:15.78Z</time></trkpt><trkpt lat="42.7211227" lon="13.5885599"><ele>1208.4</ele><time>2026-05-01T11:18:16.781Z</time></trkpt><trkpt lat="42.7211532" lon="13.5884336"><ele>1210.6</ele><time>2026-05-01T11:18:17.779Z</time></trkpt><trkpt lat="42.7211941" lon="13.5883141"><ele>1212.8</ele><time>2026-05-01T11:18:18.78Z</time></trkpt><trkpt lat="42.7212083" lon="13.588205"><ele>1215.0</ele><time>2026-05-01T11:18:19.78Z</time></trkpt><trkpt lat="42.721212" lon="13.5880997"><ele>1215.0</ele><time>2026-05-01T11:18:20.78Z</time></trkpt><trkpt lat="42.7212011" lon="13.5880112"><ele>1215.0</ele><time>2026-05-01T11:18:21.78Z</time></trkpt><trkpt lat="42.7211838" lon="13.5878967"><ele>1215.0</ele><time>2026-05-01T11:18:22.78Z</time></trkpt><trkpt lat="42.7211171" lon="13.5878402"><ele>1215.0</ele><time>2026-05-01T11:18:24.779Z</time></trkpt><trkpt lat="42.7209944" lon="13.5878131"><ele>1215.0</ele><time>2026-05-01T11:18:25.78Z</time></trkpt><trkpt lat="42.7208829" lon="13.5878002"><ele>1219.2</ele><time>2026-05-01T11:18:26.78Z</time></trkpt><trkpt lat="42.720777" lon="13.5878189"><ele>1223.4</ele><time>2026-05-01T11:18:27.781Z</time></trkpt><trkpt lat="42.7206832" lon="13.5878413"><ele>1227.6</ele><time>2026-05-01T11:18:28.78Z</time></trkpt><trkpt lat="42.7205835" lon="13.5878379"><ele>1231.8</ele><time>2026-05-01T11:18:29.78Z</time></trkpt><trkpt lat="42.7204856" lon="13.5878425"><ele>1236.0</ele><time>2026-05-01T11:18:30.781Z</time></trkpt><trkpt lat="42.7203885" lon="13.5878307"><ele>1236.0</ele><time>2026-05-01T11:18:31.779Z</time></trkpt><trkpt lat="42.7202983" lon="13.5877829"><ele>1236.0</ele><time>2026-05-01T11:18:32.78Z</time></trkpt><trkpt lat="42.7201994" lon="13.5877092"><ele>1236.0</ele><time>2026-05-01T11:18:33.78Z</time></trkpt><trkpt lat="42.7201152" lon="13.5876217"><ele>1236.0</ele><time>2026-05-01T11:18:34.779Z</time></trkpt><trkpt lat="42.7200261" lon="13.5875279"><ele>1236.0</ele><time>2026-05-01T11:18:35.78Z</time></trkpt><trkpt lat="42.7199392" lon="13.5874414"><ele>1238.0</ele><time>2026-05-01T11:18:36.78Z</time></trkpt><trkpt lat="42.7198805" lon="13.587381"><ele>1240.0</ele><time>2026-05-01T11:18:37.78Z</time></trkpt><trkpt lat="42.7198222" lon="13.5873084"><ele>1242.0</ele><time>2026-05-01T11:18:38.779Z</time></trkpt><trkpt lat="42.7197737" lon="13.5872477"><ele>1244.0</ele><time>2026-05-01T11:18:39.779Z</time></trkpt><trkpt lat="42.7197289" lon="13.5871292"><ele>1246.0</ele><time>2026-05-01T11:18:41.78Z</time></trkpt><trkpt lat="42.7197471" lon="13.5870138"><ele>1248.0</ele><time>2026-05-01T11:18:44.78Z</time></trkpt><trkpt lat="42.7198" lon="13.5869132"><ele>1248.0</ele><time>2026-05-01T11:18:46.779Z</time></trkpt><trkpt lat="42.7198996" lon="13.5868156"><ele>1248.0</ele><time>2026-05-01T11:18:47.78Z</time></trkpt><trkpt lat="42.7199769" lon="13.5867241"><ele>1248.0</ele><time>2026-05-01T11:18:48.779Z</time></trkpt><trkpt lat="42.7200436" lon="13.5866288"><ele>1248.0</ele><time>2026-05-01T11:18:49.779Z</time></trkpt><trkpt lat="42.7200954" lon="13.5865366"><ele>1248.0</ele><time>2026-05-01T11:18:50.78Z</time></trkpt><trkpt lat="42.7201529" lon="13.5864444"><ele>1248.0</ele><time>2026-05-01T11:18:51.779Z</time></trkpt><trkpt lat="42.7202047" lon="13.5863496"><ele>1248.0</ele><time>2026-05-01T11:18:52.78Z</time></trkpt><trkpt lat="42.7202503" lon="13.5862404"><ele>1248.0</ele><time>2026-05-01T11:18:53.78Z</time></trkpt><trkpt lat="42.7202525" lon="13.5861243"><ele>1248.0</ele><time>2026-05-01T11:18:54.779Z</time></trkpt><trkpt lat="42.7202465" lon="13.5860333"><ele>1248.0</ele><time>2026-05-01T11:18:55.78Z</time></trkpt><trkpt lat="42.7202397" lon="13.5859474"><ele>1248.0</ele><time>2026-05-01T11:18:56.781Z</time></trkpt><trkpt lat="42.7202123" lon="13.5858397"><ele>1247.4</ele><time>2026-05-01T11:18:57.78Z</time></trkpt><trkpt lat="42.7201535" lon="13.585741"><ele>1246.8</ele><time>2026-05-01T11:18:58.781Z</time></trkpt><trkpt lat="42.7201076" lon="13.5856486"><ele>1246.2</ele><time>2026-05-01T11:18:59.781Z</time></trkpt><trkpt lat="42.7200493" lon="13.5855391"><ele>1245.6</ele><time>2026-05-01T11:19:00.78Z</time></trkpt><trkpt lat="42.7200085" lon="13.585416"><ele>1245.0</ele><time>2026-05-01T11:19:01.78Z</time></trkpt><trkpt lat="42.7199718" lon="13.5852863"><ele>1243.3333333333333</ele><time>2026-05-01T11:19:02.78Z</time></trkpt><trkpt lat="42.7199332" lon="13.5851733"><ele>1241.6666666666667</ele><time>2026-05-01T11:19:03.781Z</time></trkpt><trkpt lat="42.7199036" lon="13.5850548"><ele>1240.0</ele><time>2026-05-01T11:19:04.78Z</time></trkpt><trkpt lat="42.7198602" lon="13.5849516"><ele>1238.3333333333335</ele><time>2026-05-01T11:19:05.78Z</time></trkpt><trkpt lat="42.7198471" lon="13.584863"><ele>1236.6666666666667</ele><time>2026-05-01T11:19:06.78Z</time></trkpt><trkpt lat="42.7198557" lon="13.5847656"><ele>1235.0</ele><time>2026-05-01T11:19:07.78Z</time></trkpt><trkpt lat="42.7198753" lon="13.5846716"><ele>1235.0</ele><time>2026-05-01T11:19:08.78Z</time></trkpt><trkpt lat="42.7199161" lon="13.5845646"><ele>1235.0</ele><time>2026-05-01T11:19:09.78Z</time></trkpt><trkpt lat="42.7199538" lon="13.5844738"><ele>1235.0</ele><time>2026-05-01T11:19:10.78Z</time></trkpt><trkpt lat="42.7199953" lon="13.5843774"><ele>1235.0</ele><time>2026-05-01T11:19:11.779Z</time></trkpt><trkpt lat="42.7200497" lon="13.5842997"><ele>1235.0</ele><time>2026-05-01T11:19:12.78Z</time></trkpt><trkpt lat="42.7200447" lon="13.5841653"><ele>1235.0</ele><time>2026-05-01T11:19:13.78Z</time></trkpt><trkpt lat="42.7200294" lon="13.5840763"><ele>1233.4</ele><time>2026-05-01T11:19:14.779Z</time></trkpt><trkpt lat="42.7199845" lon="13.5839589"><ele>1231.8</ele><time>2026-05-01T11:19:15.779Z</time></trkpt><trkpt lat="42.7199197" lon="13.5838256"><ele>1230.2</ele><time>2026-05-01T11:19:16.779Z</time></trkpt><trkpt lat="42.7198544" lon="13.5837317"><ele>1228.6</ele><time>2026-05-01T11:19:17.78Z</time></trkpt><trkpt lat="42.7197927" lon="13.5836045"><ele>1227.0</ele><time>2026-05-01T11:19:18.781Z</time></trkpt><trkpt lat="42.7196983" lon="13.5834674"><ele>1224.6</ele><time>2026-05-01T11:19:19.78Z</time></trkpt><trkpt lat="42.7196295" lon="13.5833438"><ele>1222.2</ele><time>2026-05-01T11:19:20.779Z</time></trkpt><trkpt lat="42.7195296" lon="13.5832169"><ele>1219.8</ele><time>2026-05-01T11:19:21.779Z</time></trkpt><trkpt lat="42.7194573" lon="13.5831369"><ele>1217.4</ele><time>2026-05-01T11:19:22.78Z</time></trkpt><trkpt lat="42.7193863" lon="13.5830488"><ele>1215.0</ele><time>2026-05-01T11:19:23.781Z</time></trkpt><trkpt lat="42.7193709" lon="13.5829259"><ele>1216.6666666666667</ele><time>2026-05-01T11:19:24.779Z</time></trkpt><trkpt lat="42.7193665" lon="13.5828145"><ele>1218.3333333333333</ele><time>2026-05-01T11:19:25.78Z</time></trkpt><trkpt lat="42.7193392" lon="13.5827"><ele>1220.0</ele><time>2026-05-01T11:19:26.78Z</time></trkpt><trkpt lat="42.7193087" lon="13.5825919"><ele>1221.6666666666665</ele><time>2026-05-01T11:19:27.779Z</time></trkpt><trkpt lat="42.7192566" lon="13.5825013"><ele>1223.3333333333333</ele><time>2026-05-01T11:19:29.78Z</time></trkpt><trkpt lat="42.719211" lon="13.5824101"><ele>1225.0</ele><time>2026-05-01T11:19:30.779Z</time></trkpt><trkpt lat="42.7191051" lon="13.5823384"><ele>1225.0</ele><time>2026-05-01T11:19:31.781Z</time></trkpt><trkpt lat="42.719032" lon="13.5822816"><ele>1225.0</ele><time>2026-05-01T11:19:32.779Z</time></trkpt><trkpt lat="42.718987" lon="13.5821819"><ele>1225.0</ele><time>2026-05-01T11:19:33.779Z</time></trkpt><trkpt lat="42.7189572" lon="13.5820802"><ele>1225.0</ele><time>2026-05-01T11:19:34.779Z</time></trkpt><trkpt lat="42.7189377" lon="13.5819753"><ele>1225.0</ele><time>2026-05-01T11:19:35.781Z</time></trkpt><trkpt lat="42.7189372" lon="13.5818772"><ele>1225.0</ele><time>2026-05-01T11:19:36.78Z</time></trkpt><trkpt lat="42.718937" lon="13.5817809"><ele>1223.8333333333333</ele><time>2026-05-01T11:19:37.78Z</time></trkpt><trkpt lat="42.7189591" lon="13.5816842"><ele>1222.6666666666665</ele><time>2026-05-01T11:19:38.78Z</time></trkpt><trkpt lat="42.7189777" lon="13.5815795"><ele>1221.5</ele><time>2026-05-01T11:19:39.78Z</time></trkpt><trkpt lat="42.719013" lon="13.5814615"><ele>1220.3333333333333</ele><time>2026-05-01T11:19:40.78Z</time></trkpt><trkpt lat="42.71908" lon="13.5813787"><ele>1219.1666666666667</ele><time>2026-05-01T11:19:41.78Z</time></trkpt><trkpt lat="42.7191281" lon="13.5812726"><ele>1218.0</ele><time>2026-05-01T11:19:42.78Z</time></trkpt><trkpt lat="42.7192233" lon="13.5812313"><ele>1217.4</ele><time>2026-05-01T11:19:43.779Z</time></trkpt><trkpt lat="42.7193221" lon="13.5811752"><ele>1216.8</ele><time>2026-05-01T11:19:44.78Z</time></trkpt><trkpt lat="42.719421" lon="13.5811082"><ele>1216.2</ele><time>2026-05-01T11:19:45.78Z</time></trkpt><trkpt lat="42.7195398" lon="13.5810738"><ele>1215.6</ele><time>2026-05-01T11:19:46.78Z</time></trkpt><trkpt lat="42.719639" lon="13.5810323"><ele>1215.0</ele><time>2026-05-01T11:19:47.78Z</time></trkpt><trkpt lat="42.7197425" lon="13.5809689"><ele>1215.0</ele><time>2026-05-01T11:19:48.779Z</time></trkpt><trkpt lat="42.7198393" lon="13.5809267"><ele>1215.0</ele><time>2026-05-01T11:19:49.781Z</time></trkpt><trkpt lat="42.7199294" lon="13.5808638"><ele>1215.0</ele><time>2026-05-01T11:19:50.779Z</time></trkpt><trkpt lat="42.7200281" lon="13.5807848"><ele>1215.0</ele><time>2026-05-01T11:19:51.78Z</time></trkpt><trkpt lat="42.7201295" lon="13.5807209"><ele>1215.0</ele><time>2026-05-01T11:19:52.78Z</time></trkpt><trkpt lat="42.7202276" lon="13.5806394"><ele>1214.2</ele><time>2026-05-01T11:19:53.781Z</time></trkpt><trkpt lat="42.7203275" lon="13.5805617"><ele>1213.4</ele><time>2026-05-01T11:19:54.78Z</time></trkpt><trkpt lat="42.7204014" lon="13.5804945"><ele>1212.6</ele><time>2026-05-01T11:19:55.779Z</time></trkpt><trkpt lat="42.7204936" lon="13.5804043"><ele>1211.8</ele><time>2026-05-01T11:19:56.781Z</time></trkpt><trkpt lat="42.7205842" lon="13.5803353"><ele>1211.0</ele><time>2026-05-01T11:19:57.78Z</time></trkpt><trkpt lat="42.7206697" lon="13.580266"><ele>1211.0</ele><time>2026-05-01T11:19:58.78Z</time></trkpt><trkpt lat="42.7207522" lon="13.580186"><ele>1211.0</ele><time>2026-05-01T11:19:59.78Z</time></trkpt><trkpt lat="42.720826" lon="13.5801145"><ele>1211.0</ele><time>2026-05-01T11:20:00.78Z</time></trkpt><trkpt lat="42.7209085" lon="13.5800375"><ele>1211.0</ele><time>2026-05-01T11:20:01.78Z</time></trkpt><trkpt lat="42.7209735" lon="13.5799847"><ele>1211.0</ele><time>2026-05-01T11:20:02.779Z</time></trkpt><trkpt lat="42.7210403" lon="13.5799451"><ele>1211.0</ele><time>2026-05-01T11:20:03.778Z</time></trkpt><trkpt lat="42.7211068" lon="13.5799227"><ele>1207.8333333333335</ele><time>2026-05-01T11:20:04.778Z</time></trkpt><trkpt lat="42.7211775" lon="13.5799072"><ele>1204.6666666666667</ele><time>2026-05-01T11:20:05.778Z</time></trkpt><trkpt lat="42.7212519" lon="13.5799027"><ele>1201.5</ele><time>2026-05-01T11:20:06.78Z</time></trkpt><trkpt lat="42.7213325" lon="13.5799548"><ele>1198.3333333333333</ele><time>2026-05-01T11:20:07.78Z</time></trkpt><trkpt lat="42.7214173" lon="13.5799937"><ele>1195.1666666666665</ele><time>2026-05-01T11:20:08.779Z</time></trkpt><trkpt lat="42.7214937" lon="13.5800267"><ele>1192.0</ele><time>2026-05-01T11:20:09.778Z</time></trkpt><trkpt lat="42.7215608" lon="13.5800527"><ele>1192.0</ele><time>2026-05-01T11:20:10.779Z</time></trkpt><trkpt lat="42.7216583" lon="13.5800273"><ele>1192.0</ele><time>2026-05-01T11:20:12.778Z</time></trkpt><trkpt lat="42.7217059" lon="13.5799215"><ele>1192.0</ele><time>2026-05-01T11:20:14.778Z</time></trkpt><trkpt lat="42.7217064" lon="13.579757"><ele>1192.0</ele><time>2026-05-01T11:20:16.779Z</time></trkpt><trkpt lat="42.7217005" lon="13.5796691"><ele>1192.0</ele><time>2026-05-01T11:20:17.778Z</time></trkpt><trkpt lat="42.7216917" lon="13.5795699"><ele>1192.0</ele><time>2026-05-01T11:20:18.78Z</time></trkpt><trkpt lat="42.7216546" lon="13.5794555"><ele>1193.8</ele><time>2026-05-01T11:20:19.779Z</time></trkpt><trkpt lat="42.7216268" lon="13.5793525"><ele>1195.6</ele><time>2026-05-01T11:20:20.779Z</time></trkpt><trkpt lat="42.7216" lon="13.5792627"><ele>1197.3999999999999</ele><time>2026-05-01T11:20:21.778Z</time></trkpt><trkpt lat="42.7215691" lon="13.5791186"><ele>1199.2</ele><time>2026-05-01T11:20:23.778Z</time></trkpt><trkpt lat="42.721546" lon="13.5789953"><ele>1201.0</ele><time>2026-05-01T11:20:25.778Z</time></trkpt><trkpt lat="42.7216389" lon="13.578914"><ele>1201.0</ele><time>2026-05-01T11:20:27.779Z</time></trkpt><trkpt lat="42.7216962" lon="13.5788764"><ele>1201.0</ele><time>2026-05-01T11:20:28.778Z</time></trkpt><trkpt lat="42.721783" lon="13.5788586"><ele>1201.0</ele><time>2026-05-01T11:20:29.78Z</time></trkpt><trkpt lat="42.7218613" lon="13.5788551"><ele>1201.0</ele><time>2026-05-01T11:20:30.779Z</time></trkpt><trkpt lat="42.7219482" lon="13.5788509"><ele>1201.0</ele><time>2026-05-01T11:20:31.779Z</time></trkpt><trkpt lat="42.7220484" lon="13.5788459"><ele>1201.0</ele><time>2026-05-01T11:20:32.778Z</time></trkpt><trkpt lat="42.7221369" lon="13.5788449"><ele>1197.0</ele><time>2026-05-01T11:20:33.78Z</time></trkpt><trkpt lat="42.7222206" lon="13.5788597"><ele>1193.0</ele><time>2026-05-01T11:20:34.778Z</time></trkpt><trkpt lat="42.722308" lon="13.5788798"><ele>1189.0</ele><time>2026-05-01T11:20:35.778Z</time></trkpt><trkpt lat="42.7223902" lon="13.5788986"><ele>1185.0</ele><time>2026-05-01T11:20:36.779Z</time></trkpt><trkpt lat="42.7224656" lon="13.5789034"><ele>1181.0</ele><time>2026-05-01T11:20:37.778Z</time></trkpt><trkpt lat="42.7225328" lon="13.5788901"><ele>1177.0</ele><time>2026-05-01T11:20:38.779Z</time></trkpt><trkpt lat="42.7226215" lon="13.57878"><ele>1177.0</ele><time>2026-05-01T11:20:40.779Z</time></trkpt><trkpt lat="42.7226511" lon="13.5787002"><ele>1177.0</ele><time>2026-05-01T11:20:41.779Z</time></trkpt><trkpt lat="42.7226759" lon="13.5786185"><ele>1177.0</ele><time>2026-05-01T11:20:42.778Z</time></trkpt><trkpt lat="42.7227043" lon="13.5785379"><ele>1177.0</ele><time>2026-05-01T11:20:43.778Z</time></trkpt><trkpt lat="42.7227322" lon="13.5784581"><ele>1177.0</ele><time>2026-05-01T11:20:44.779Z</time></trkpt><trkpt lat="42.7228418" lon="13.5783754"><ele>1177.0</ele><time>2026-05-01T11:20:46.778Z</time></trkpt><trkpt lat="42.7229269" lon="13.5783897"><ele>1180.0</ele><time>2026-05-01T11:20:47.779Z</time></trkpt><trkpt lat="42.7230093" lon="13.5784232"><ele>1183.0</ele><time>2026-05-01T11:20:48.78Z</time></trkpt><trkpt lat="42.7231058" lon="13.5784628"><ele>1186.0</ele><time>2026-05-01T11:20:49.78Z</time></trkpt><trkpt lat="42.7231953" lon="13.5785037"><ele>1189.0</ele><time>2026-05-01T11:20:50.779Z</time></trkpt><trkpt lat="42.723294" lon="13.5785487"><ele>1192.0</ele><time>2026-05-01T11:20:51.78Z</time></trkpt><trkpt lat="42.7233927" lon="13.5785777"><ele>1192.0</ele><time>2026-05-01T11:20:52.779Z</time></trkpt><trkpt lat="42.7234839" lon="13.5786042"><ele>1192.0</ele><time>2026-05-01T11:20:53.78Z</time></trkpt><trkpt lat="42.7235797" lon="13.578634"><ele>1192.0</ele><time>2026-05-01T11:20:54.779Z</time></trkpt><trkpt lat="42.7236727" lon="13.5786745"><ele>1192.0</ele><time>2026-05-01T11:20:55.779Z</time></trkpt><trkpt lat="42.7237568" lon="13.5787159"><ele>1192.0</ele><time>2026-05-01T11:20:56.779Z</time></trkpt><trkpt lat="42.7238417" lon="13.5787561"><ele>1189.8</ele><time>2026-05-01T11:20:57.78Z</time></trkpt><trkpt lat="42.7239354" lon="13.5787854"><ele>1187.6</ele><time>2026-05-01T11:20:58.779Z</time></trkpt><trkpt lat="42.7240173" lon="13.5787835"><ele>1185.3999999999999</ele><time>2026-05-01T11:20:59.779Z</time></trkpt><trkpt lat="42.7241056" lon="13.5787485"><ele>1183.2</ele><time>2026-05-01T11:21:00.779Z</time></trkpt><trkpt lat="42.7241882" lon="13.5786845"><ele>1181.0</ele><time>2026-05-01T11:21:01.779Z</time></trkpt><trkpt lat="42.7242587" lon="13.5786067"><ele>1181.0</ele><time>2026-05-01T11:21:02.779Z</time></trkpt><trkpt lat="42.7243164" lon="13.578537"><ele>1181.0</ele><time>2026-05-01T11:21:03.778Z</time></trkpt><trkpt lat="42.7243676" lon="13.5784757"><ele>1181.0</ele><time>2026-05-01T11:21:04.778Z</time></trkpt><trkpt lat="42.7244222" lon="13.5784286"><ele>1181.0</ele><time>2026-05-01T11:21:05.779Z</time></trkpt><trkpt lat="42.724539" lon="13.5784129"><ele>1181.0</ele><time>2026-05-01T11:21:07.78Z</time></trkpt><trkpt lat="42.724627" lon="13.5785099"><ele>1181.0</ele><time>2026-05-01T11:21:09.78Z</time></trkpt><trkpt lat="42.7246949" lon="13.5785849"><ele>1179.3999999999999</ele><time>2026-05-01T11:21:11.78Z</time></trkpt><trkpt lat="42.724777" lon="13.578571"><ele>1177.8</ele><time>2026-05-01T11:21:13.779Z</time></trkpt><trkpt lat="42.7248737" lon="13.578477"><ele>1176.1999999999998</ele><time>2026-05-01T11:21:15.779Z</time></trkpt><trkpt lat="42.7249744" lon="13.5784315"><ele>1174.6</ele><time>2026-05-01T11:21:17.78Z</time></trkpt><trkpt lat="42.7250577" lon="13.5784688"><ele>1173.0</ele><time>2026-05-01T11:21:19.779Z</time></trkpt><trkpt lat="42.7251295" lon="13.5785754"><ele>1170.0</ele><time>2026-05-01T11:21:21.779Z</time></trkpt><trkpt lat="42.7251753" lon="13.5786937"><ele>1167.0</ele><time>2026-05-01T11:21:22.78Z</time></trkpt><trkpt lat="42.7252164" lon="13.5788071"><ele>1164.0</ele><time>2026-05-01T11:21:23.779Z</time></trkpt><trkpt lat="42.7252558" lon="13.578929"><ele>1161.0</ele><time>2026-05-01T11:21:24.779Z</time></trkpt><trkpt lat="42.7252911" lon="13.5790512"><ele>1158.0</ele><time>2026-05-01T11:21:25.778Z</time></trkpt><trkpt lat="42.7253448" lon="13.5791626"><ele>1158.0</ele><time>2026-05-01T11:21:26.778Z</time></trkpt><trkpt lat="42.7254106" lon="13.5792709"><ele>1158.0</ele><time>2026-05-01T11:21:27.778Z</time></trkpt><trkpt lat="42.7254828" lon="13.579361"><ele>1158.0</ele><time>2026-05-01T11:21:28.778Z</time></trkpt><trkpt lat="42.7255539" lon="13.5794363"><ele>1158.0</ele><time>2026-05-01T11:21:29.778Z</time></trkpt><trkpt lat="42.7256245" lon="13.579483"><ele>1158.0</ele><time>2026-05-01T11:21:30.78Z</time></trkpt><trkpt lat="42.7257118" lon="13.5795088"><ele>1158.0</ele><time>2026-05-01T11:21:31.78Z</time></trkpt><trkpt lat="42.7258089" lon="13.5795112"><ele>1158.0</ele><time>2026-05-01T11:21:32.779Z</time></trkpt><trkpt lat="42.7259184" lon="13.5794686"><ele>1158.0</ele><time>2026-05-01T11:21:33.78Z</time></trkpt><trkpt lat="42.726007" lon="13.579428"><ele>1158.0</ele><time>2026-05-01T11:21:34.779Z</time></trkpt><trkpt lat="42.7260796" lon="13.5793851"><ele>1158.0</ele><time>2026-05-01T11:21:35.779Z</time></trkpt><trkpt lat="42.726155" lon="13.5793575"><ele>1160.0</ele><time>2026-05-01T11:21:36.779Z</time></trkpt><trkpt lat="42.7262289" lon="13.5793544"><ele>1162.0</ele><time>2026-05-01T11:21:37.779Z</time></trkpt><trkpt lat="42.7262913" lon="13.5793836"><ele>1164.0</ele><time>2026-05-01T11:21:38.778Z</time></trkpt><trkpt lat="42.7263453" lon="13.5794401"><ele>1166.0</ele><time>2026-05-01T11:21:39.778Z</time></trkpt><trkpt lat="42.7264107" lon="13.5795242"><ele>1168.0</ele><time>2026-05-01T11:21:40.779Z</time></trkpt><trkpt lat="42.7264771" lon="13.5796274"><ele>1170.0</ele><time>2026-05-01T11:21:41.779Z</time></trkpt><trkpt lat="42.7265423" lon="13.5797527"><ele>1164.4</ele><time>2026-05-01T11:21:42.779Z</time></trkpt><trkpt lat="42.726607" lon="13.579878"><ele>1158.8</ele><time>2026-05-01T11:21:43.778Z</time></trkpt><trkpt lat="42.7266672" lon="13.5799967"><ele>1153.2</ele><time>2026-05-01T11:21:44.779Z</time></trkpt><trkpt lat="42.7267229" lon="13.5801229"><ele>1147.6</ele><time>2026-05-01T11:21:45.779Z</time></trkpt><trkpt lat="42.7267816" lon="13.5802473"><ele>1142.0</ele><time>2026-05-01T11:21:46.778Z</time></trkpt><trkpt lat="42.7268339" lon="13.5803641"><ele>1142.8</ele><time>2026-05-01T11:21:47.78Z</time></trkpt><trkpt lat="42.7268862" lon="13.5804748"><ele>1143.6</ele><time>2026-05-01T11:21:48.78Z</time></trkpt><trkpt lat="42.726939" lon="13.5805956"><ele>1144.3999999999999</ele><time>2026-05-01T11:21:49.778Z</time></trkpt><trkpt lat="42.7269932" lon="13.580704"><ele>1145.2</ele><time>2026-05-01T11:21:50.78Z</time></trkpt><trkpt lat="42.7270448" lon="13.5808073"><ele>1146.0</ele><time>2026-05-01T11:21:51.778Z</time></trkpt><trkpt lat="42.7270763" lon="13.5809132"><ele>1146.0</ele><time>2026-05-01T11:21:52.779Z</time></trkpt><trkpt lat="42.7270906" lon="13.5810376"><ele>1146.0</ele><time>2026-05-01T11:21:53.778Z</time></trkpt><trkpt lat="42.7270913" lon="13.5811752"><ele>1146.0</ele><time>2026-05-01T11:21:54.779Z</time></trkpt><trkpt lat="42.7271008" lon="13.5812983"><ele>1146.0</ele><time>2026-05-01T11:21:55.779Z</time></trkpt><trkpt lat="42.727121" lon="13.5814236"><ele>1146.0</ele><time>2026-05-01T11:21:56.779Z</time></trkpt><trkpt lat="42.7271606" lon="13.5815546"><ele>1142.8</ele><time>2026-05-01T11:21:57.779Z</time></trkpt><trkpt lat="42.7272171" lon="13.5816758"><ele>1139.6</ele><time>2026-05-01T11:21:58.779Z</time></trkpt><trkpt lat="42.7272833" lon="13.5817837"><ele>1136.4</ele><time>2026-05-01T11:21:59.779Z</time></trkpt><trkpt lat="42.7273529" lon="13.5818738"><ele>1133.2</ele><time>2026-05-01T11:22:00.78Z</time></trkpt><trkpt lat="42.7274203" lon="13.5819441"><ele>1130.0</ele><time>2026-05-01T11:22:01.779Z</time></trkpt><trkpt lat="42.7275508" lon="13.5820057"><ele>1130.0</ele><time>2026-05-01T11:22:03.78Z</time></trkpt><trkpt lat="42.7276191" lon="13.5819887"><ele>1130.0</ele><time>2026-05-01T11:22:04.78Z</time></trkpt><trkpt lat="42.7277089" lon="13.5819429"><ele>1130.0</ele><time>2026-05-01T11:22:05.78Z</time></trkpt><trkpt lat="42.7278033" lon="13.5818662"><ele>1130.0</ele><time>2026-05-01T11:22:06.779Z</time></trkpt><trkpt lat="42.7278871" lon="13.5818119"><ele>1130.0</ele><time>2026-05-01T11:22:07.778Z</time></trkpt><trkpt lat="42.7279871" lon="13.5817672"><ele>1128.2</ele><time>2026-05-01T11:22:08.779Z</time></trkpt><trkpt lat="42.7280843" lon="13.5817214"><ele>1126.4</ele><time>2026-05-01T11:22:09.779Z</time></trkpt><trkpt lat="42.7281776" lon="13.5816678"><ele>1124.6</ele><time>2026-05-01T11:22:10.779Z</time></trkpt><trkpt lat="42.7282659" lon="13.5815907"><ele>1122.8</ele><time>2026-05-01T11:22:11.778Z</time></trkpt><trkpt lat="42.728342" lon="13.5814958"><ele>1121.0</ele><time>2026-05-01T11:22:12.778Z</time></trkpt><trkpt lat="42.7284057" lon="13.5813996"><ele>1121.0</ele><time>2026-05-01T11:22:13.778Z</time></trkpt><trkpt lat="42.7284671" lon="13.5812834"><ele>1121.0</ele><time>2026-05-01T11:22:14.779Z</time></trkpt><trkpt lat="42.7285201" lon="13.5811573"><ele>1121.0</ele><time>2026-05-01T11:22:15.78Z</time></trkpt><trkpt lat="42.728561" lon="13.581023"><ele>1121.0</ele><time>2026-05-01T11:22:16.78Z</time></trkpt><trkpt lat="42.7285918" lon="13.5808832"><ele>1121.0</ele><time>2026-05-01T11:22:17.779Z</time></trkpt><trkpt lat="42.728625" lon="13.5807352"><ele>1119.25</ele><time>2026-05-01T11:22:18.778Z</time></trkpt><trkpt lat="42.7286589" lon="13.5805825"><ele>1117.5</ele><time>2026-05-01T11:22:19.779Z</time></trkpt><trkpt lat="42.7286912" lon="13.5804308"><ele>1115.75</ele><time>2026-05-01T11:22:20.778Z</time></trkpt><trkpt lat="42.7287266" lon="13.5802829"><ele>1114.0</ele><time>2026-05-01T11:22:21.778Z</time></trkpt><trkpt lat="42.728768" lon="13.5801292"><ele>1114.0</ele><time>2026-05-01T11:22:22.779Z</time></trkpt><trkpt lat="42.7288119" lon="13.579975"><ele>1114.0</ele><time>2026-05-01T11:22:23.779Z</time></trkpt><trkpt lat="42.7288522" lon="13.579829"><ele>1114.0</ele><time>2026-05-01T11:22:24.78Z</time></trkpt><trkpt lat="42.7289588" lon="13.579714"><ele>1114.0</ele><time>2026-05-01T11:22:25.779Z</time></trkpt><trkpt lat="42.7290447" lon="13.5795841"><ele>1116.25</ele><time>2026-05-01T11:22:26.779Z</time></trkpt><trkpt lat="42.7291203" lon="13.5794535"><ele>1118.5</ele><time>2026-05-01T11:22:27.779Z</time></trkpt><trkpt lat="42.7292007" lon="13.5793322"><ele>1120.75</ele><time>2026-05-01T11:22:28.779Z</time></trkpt><trkpt lat="42.7292814" lon="13.5792137"><ele>1123.0</ele><time>2026-05-01T11:22:29.779Z</time></trkpt><trkpt lat="42.729364" lon="13.5790844"><ele>1120.0</ele><time>2026-05-01T11:22:30.78Z</time></trkpt><trkpt lat="42.7294449" lon="13.5789543"><ele>1117.0</ele><time>2026-05-01T11:22:31.78Z</time></trkpt><trkpt lat="42.7295276" lon="13.5788353"><ele>1114.0</ele><time>2026-05-01T11:22:32.779Z</time></trkpt><trkpt lat="42.7296176" lon="13.5787269"><ele>1111.0</ele><time>2026-05-01T11:22:33.779Z</time></trkpt><trkpt lat="42.7297199" lon="13.5786319"><ele>1111.0</ele><time>2026-05-01T11:22:34.78Z</time></trkpt><trkpt lat="42.729813" lon="13.5785302"><ele>1111.0</ele><time>2026-05-01T11:22:35.778Z</time></trkpt><trkpt lat="42.729903" lon="13.5784252"><ele>1111.0</ele><time>2026-05-01T11:22:36.779Z</time></trkpt><trkpt lat="42.7299838" lon="13.5783035"><ele>1111.0</ele><time>2026-05-01T11:22:37.778Z</time></trkpt><trkpt lat="42.7300507" lon="13.5781724"><ele>1111.0</ele><time>2026-05-01T11:22:38.779Z</time></trkpt><trkpt lat="42.7301018" lon="13.5780382"><ele>1111.0</ele><time>2026-05-01T11:22:39.78Z</time></trkpt><trkpt lat="42.7301343" lon="13.5779146"><ele>1111.0</ele><time>2026-05-01T11:22:40.779Z</time></trkpt><trkpt lat="42.730145" lon="13.5777769"><ele>1111.0</ele><time>2026-05-01T11:22:41.779Z</time></trkpt><trkpt lat="42.7301445" lon="13.5776261"><ele>1111.0</ele><time>2026-05-01T11:22:42.779Z</time></trkpt><trkpt lat="42.7301443" lon="13.5774898"><ele>1113.0</ele><time>2026-05-01T11:22:43.778Z</time></trkpt><trkpt lat="42.7301352" lon="13.577364"><ele>1115.0</ele><time>2026-05-01T11:22:44.78Z</time></trkpt><trkpt lat="42.7301443" lon="13.5772469"><ele>1117.0</ele><time>2026-05-01T11:22:45.78Z</time></trkpt><trkpt lat="42.7301668" lon="13.5771335"><ele>1119.0</ele><time>2026-05-01T11:22:46.78Z</time></trkpt><trkpt lat="42.7302081" lon="13.5770247"><ele>1121.0</ele><time>2026-05-01T11:22:47.78Z</time></trkpt><trkpt lat="42.7302716" lon="13.5769117"><ele>1117.0</ele><time>2026-05-01T11:22:48.779Z</time></trkpt><trkpt lat="42.7303363" lon="13.5767959"><ele>1113.0</ele><time>2026-05-01T11:22:49.779Z</time></trkpt><trkpt lat="42.7304175" lon="13.5766832"><ele>1109.0</ele><time>2026-05-01T11:22:50.779Z</time></trkpt><trkpt lat="42.7304883" lon="13.5765658"><ele>1105.0</ele><time>2026-05-01T11:22:51.78Z</time></trkpt><trkpt lat="42.7305562" lon="13.5764554"><ele>1101.0</ele><time>2026-05-01T11:22:52.78Z</time></trkpt><trkpt lat="42.7306169" lon="13.5763496"><ele>1101.0</ele><time>2026-05-01T11:22:53.778Z</time></trkpt><trkpt lat="42.73068" lon="13.5762504"><ele>1101.0</ele><time>2026-05-01T11:22:54.779Z</time></trkpt><trkpt lat="42.7307492" lon="13.5761684"><ele>1101.0</ele><time>2026-05-01T11:22:55.778Z</time></trkpt><trkpt lat="42.7308218" lon="13.5761052"><ele>1101.0</ele><time>2026-05-01T11:22:56.78Z</time></trkpt><trkpt lat="42.7308917" lon="13.57607"><ele>1101.0</ele><time>2026-05-01T11:22:57.78Z</time></trkpt><trkpt lat="42.7309638" lon="13.5760595"><ele>1101.0</ele><time>2026-05-01T11:22:58.778Z</time></trkpt><trkpt lat="42.7310449" lon="13.576059"><ele>1101.2</ele><time>2026-05-01T11:22:59.78Z</time></trkpt><trkpt lat="42.7311406" lon="13.5760598"><ele>1101.3999999999999</ele><time>2026-05-01T11:23:00.779Z</time></trkpt><trkpt lat="42.7312412" lon="13.5760565"><ele>1101.6</ele><time>2026-05-01T11:23:01.78Z</time></trkpt><trkpt lat="42.7313482" lon="13.5760524"><ele>1101.8</ele><time>2026-05-01T11:23:02.778Z</time></trkpt><trkpt lat="42.7314541" lon="13.5760488"><ele>1102.0</ele><time>2026-05-01T11:23:03.779Z</time></trkpt><trkpt lat="42.7315541" lon="13.5760425"><ele>1102.0</ele><time>2026-05-01T11:23:04.78Z</time></trkpt><trkpt lat="42.7316491" lon="13.5760251"><ele>1102.0</ele><time>2026-05-01T11:23:05.78Z</time></trkpt><trkpt lat="42.731741" lon="13.5759968"><ele>1102.0</ele><time>2026-05-01T11:23:06.779Z</time></trkpt><trkpt lat="42.7318321" lon="13.5759593"><ele>1102.0</ele><time>2026-05-01T11:23:07.78Z</time></trkpt><trkpt lat="42.7319225" lon="13.5759208"><ele>1102.0</ele><time>2026-05-01T11:23:08.779Z</time></trkpt><trkpt lat="42.7320055" lon="13.5758836"><ele>1101.4</ele><time>2026-05-01T11:23:09.778Z</time></trkpt><trkpt lat="42.7320856" lon="13.5758559"><ele>1100.8000000000002</ele><time>2026-05-01T11:23:10.779Z</time></trkpt><trkpt lat="42.7321658" lon="13.5758436"><ele>1100.2</ele><time>2026-05-01T11:23:11.78Z</time></trkpt><trkpt lat="42.7322621" lon="13.5758465"><ele>1099.6000000000001</ele><time>2026-05-01T11:23:12.78Z</time></trkpt><trkpt lat="42.7323631" lon="13.5758664"><ele>1099.0</ele><time>2026-05-01T11:23:13.779Z</time></trkpt><trkpt lat="42.7324621" lon="13.575893"><ele>1099.0</ele><time>2026-05-01T11:23:14.779Z</time></trkpt><trkpt lat="42.7325544" lon="13.5759125"><ele>1099.0</ele><time>2026-05-01T11:23:15.778Z</time></trkpt><trkpt lat="42.7326424" lon="13.5759371"><ele>1099.0</ele><time>2026-05-01T11:23:16.778Z</time></trkpt><trkpt lat="42.732724" lon="13.5759777"><ele>1099.0</ele><time>2026-05-01T11:23:17.779Z</time></trkpt><trkpt lat="42.7328012" lon="13.5760386"><ele>1099.0</ele><time>2026-05-01T11:23:18.778Z</time></trkpt><trkpt lat="42.7328782" lon="13.576117"><ele>1096.6000000000001</ele><time>2026-05-01T11:23:19.779Z</time></trkpt><trkpt lat="42.732947" lon="13.5762051"><ele>1094.2</ele><time>2026-05-01T11:23:20.78Z</time></trkpt><trkpt lat="42.7330203" lon="13.5763149"><ele>1091.8000000000002</ele><time>2026-05-01T11:23:21.78Z</time></trkpt><trkpt lat="42.7330974" lon="13.5764404"><ele>1089.4</ele><time>2026-05-01T11:23:22.78Z</time></trkpt><trkpt lat="42.7331703" lon="13.576566"><ele>1087.0</ele><time>2026-05-01T11:23:23.779Z</time></trkpt><trkpt lat="42.7332406" lon="13.5766784"><ele>1087.0</ele><time>2026-05-01T11:23:24.78Z</time></trkpt><trkpt lat="42.7333135" lon="13.5767718"><ele>1087.0</ele><time>2026-05-01T11:23:25.779Z</time></trkpt><trkpt lat="42.7333922" lon="13.5768341"><ele>1087.0</ele><time>2026-05-01T11:23:26.78Z</time></trkpt><trkpt lat="42.7334822" lon="13.5768596"><ele>1087.0</ele><time>2026-05-01T11:23:27.78Z</time></trkpt><trkpt lat="42.7335767" lon="13.5768515"><ele>1087.0</ele><time>2026-05-01T11:23:28.78Z</time></trkpt><trkpt lat="42.7336596" lon="13.5768113"><ele>1086.3333333333333</ele><time>2026-05-01T11:23:29.779Z</time></trkpt><trkpt lat="42.7337307" lon="13.5767496"><ele>1085.6666666666665</ele><time>2026-05-01T11:23:30.78Z</time></trkpt><trkpt lat="42.7337896" lon="13.5766734"><ele>1085.0</ele><time>2026-05-01T11:23:31.78Z</time></trkpt><trkpt lat="42.7338378" lon="13.5765975"><ele>1084.3333333333333</ele><time>2026-05-01T11:23:32.78Z</time></trkpt><trkpt lat="42.7338706" lon="13.5765121"><ele>1083.6666666666667</ele><time>2026-05-01T11:23:33.779Z</time></trkpt><trkpt lat="42.7338917" lon="13.5764084"><ele>1083.0</ele><time>2026-05-01T11:23:34.779Z</time></trkpt><trkpt lat="42.7338985" lon="13.5762904"><ele>1082.0</ele><time>2026-05-01T11:23:35.778Z</time></trkpt><trkpt lat="42.7338956" lon="13.5761482"><ele>1081.0</ele><time>2026-05-01T11:23:36.779Z</time></trkpt><trkpt lat="42.733883" lon="13.5759911"><ele>1080.0</ele><time>2026-05-01T11:23:37.78Z</time></trkpt><trkpt lat="42.7338695" lon="13.5758224"><ele>1079.0</ele><time>2026-05-01T11:23:38.779Z</time></trkpt><trkpt lat="42.7338597" lon="13.5756547"><ele>1079.0</ele><time>2026-05-01T11:23:39.779Z</time></trkpt><trkpt lat="42.7338451" lon="13.5754948"><ele>1079.0</ele><time>2026-05-01T11:23:40.779Z</time></trkpt><trkpt lat="42.7338314" lon="13.5753288"><ele>1079.0</ele><time>2026-05-01T11:23:41.778Z</time></trkpt><trkpt lat="42.7338199" lon="13.5751754"><ele>1079.0</ele><time>2026-05-01T11:23:42.779Z</time></trkpt><trkpt lat="42.7338092" lon="13.5750296"><ele>1079.2</ele><time>2026-05-01T11:23:43.779Z</time></trkpt><trkpt lat="42.7338092" lon="13.5748819"><ele>1079.4</ele><time>2026-05-01T11:23:44.778Z</time></trkpt><trkpt lat="42.7338317" lon="13.5747438"><ele>1079.6</ele><time>2026-05-01T11:23:45.78Z</time></trkpt><trkpt lat="42.7338765" lon="13.5746244"><ele>1079.8</ele><time>2026-05-01T11:23:46.778Z</time></trkpt><trkpt lat="42.7339259" lon="13.5745269"><ele>1080.0</ele><time>2026-05-01T11:23:47.779Z</time></trkpt><trkpt lat="42.7339963" lon="13.5744418"><ele>1081.5</ele><time>2026-05-01T11:23:48.779Z</time></trkpt><trkpt lat="42.7340888" lon="13.5743448"><ele>1083.0</ele><time>2026-05-01T11:23:49.779Z</time></trkpt><trkpt lat="42.7341946" lon="13.574259"><ele>1084.5</ele><time>2026-05-01T11:23:50.779Z</time></trkpt><trkpt lat="42.7343074" lon="13.5741759"><ele>1086.0</ele><time>2026-05-01T11:23:51.779Z</time></trkpt><trkpt lat="42.7344168" lon="13.5741026"><ele>1080.0</ele><time>2026-05-01T11:23:52.78Z</time></trkpt><trkpt lat="42.7345296" lon="13.5740274"><ele>1074.0</ele><time>2026-05-01T11:23:53.778Z</time></trkpt><trkpt lat="42.7346341" lon="13.5739638"><ele>1068.0</ele><time>2026-05-01T11:23:54.78Z</time></trkpt><trkpt lat="42.7347397" lon="13.5739042"><ele>1062.0</ele><time>2026-05-01T11:23:55.778Z</time></trkpt><trkpt lat="42.7348355" lon="13.5738461"><ele>1062.0</ele><time>2026-05-01T11:23:56.778Z</time></trkpt><trkpt lat="42.7349209" lon="13.573785"><ele>1062.0</ele><time>2026-05-01T11:23:57.778Z</time></trkpt><trkpt lat="42.7349905" lon="13.5737097"><ele>1062.0</ele><time>2026-05-01T11:23:58.778Z</time></trkpt><trkpt lat="42.735036" lon="13.5736194"><ele>1062.0</ele><time>2026-05-01T11:23:59.779Z</time></trkpt><trkpt lat="42.735051" lon="13.5735167"><ele>1062.0</ele><time>2026-05-01T11:24:00.78Z</time></trkpt><trkpt lat="42.7350388" lon="13.5733837"><ele>1062.0</ele><time>2026-05-01T11:24:01.778Z</time></trkpt><trkpt lat="42.735011" lon="13.5732329"><ele>1064.8</ele><time>2026-05-01T11:24:02.779Z</time></trkpt><trkpt lat="42.7349824" lon="13.5730815"><ele>1067.6</ele><time>2026-05-01T11:24:03.778Z</time></trkpt><trkpt lat="42.734965" lon="13.5729435"><ele>1070.3999999999999</ele><time>2026-05-01T11:24:04.779Z</time></trkpt><trkpt lat="42.734968" lon="13.5728088"><ele>1073.2</ele><time>2026-05-01T11:24:05.78Z</time></trkpt><trkpt lat="42.7349975" lon="13.5726747"><ele>1076.0</ele><time>2026-05-01T11:24:06.78Z</time></trkpt><trkpt lat="42.7350406" lon="13.5725476"><ele>1076.0</ele><time>2026-05-01T11:24:07.778Z</time></trkpt><trkpt lat="42.7350694" lon="13.5724253"><ele>1076.0</ele><time>2026-05-01T11:24:08.778Z</time></trkpt><trkpt lat="42.7350785" lon="13.5723051"><ele>1076.0</ele><time>2026-05-01T11:24:09.778Z</time></trkpt><trkpt lat="42.73506" lon="13.5721646"><ele>1076.0</ele><time>2026-05-01T11:24:10.78Z</time></trkpt><trkpt lat="42.7350291" lon="13.572012"><ele>1076.0</ele><time>2026-05-01T11:24:11.78Z</time></trkpt><trkpt lat="42.7350113" lon="13.5718483"><ele>1075.5</ele><time>2026-05-01T11:24:12.78Z</time></trkpt><trkpt lat="42.735017" lon="13.5716692"><ele>1075.0</ele><time>2026-05-01T11:24:13.78Z</time></trkpt><trkpt lat="42.7350178" lon="13.5714989"><ele>1074.5</ele><time>2026-05-01T11:24:14.779Z</time></trkpt><trkpt lat="42.7350269" lon="13.5713432"><ele>1074.0</ele><time>2026-05-01T11:24:15.779Z</time></trkpt><trkpt lat="42.7350365" lon="13.5712118"><ele>1073.6000000000001</ele><time>2026-05-01T11:24:16.78Z</time></trkpt><trkpt lat="42.7350578" lon="13.5710892"><ele>1073.2</ele><time>2026-05-01T11:24:17.78Z</time></trkpt><trkpt lat="42.7350936" lon="13.5709677"><ele>1072.8000000000002</ele><time>2026-05-01T11:24:18.78Z</time></trkpt><trkpt lat="42.7351397" lon="13.5708444"><ele>1072.4</ele><time>2026-05-01T11:24:19.78Z</time></trkpt><trkpt lat="42.7351898" lon="13.5707288"><ele>1072.0</ele><time>2026-05-01T11:24:20.778Z</time></trkpt><trkpt lat="42.7352331" lon="13.5706218"><ele>1070.4</ele><time>2026-05-01T11:24:21.779Z</time></trkpt><trkpt lat="42.7352574" lon="13.5705037"><ele>1068.8000000000002</ele><time>2026-05-01T11:24:22.779Z</time></trkpt><trkpt lat="42.7352527" lon="13.570371"><ele>1067.2</ele><time>2026-05-01T11:24:23.779Z</time></trkpt><trkpt lat="42.7352306" lon="13.5702234"><ele>1065.6000000000001</ele><time>2026-05-01T11:24:24.78Z</time></trkpt><trkpt lat="42.7351911" lon="13.5700684"><ele>1064.0</ele><time>2026-05-01T11:24:25.779Z</time></trkpt><trkpt lat="42.7351499" lon="13.5699257"><ele>1064.0</ele><time>2026-05-01T11:24:26.78Z</time></trkpt><trkpt lat="42.7350931" lon="13.5698007"><ele>1064.0</ele><time>2026-05-01T11:24:27.779Z</time></trkpt><trkpt lat="42.7350342" lon="13.5696879"><ele>1064.0</ele><time>2026-05-01T11:24:28.779Z</time></trkpt><trkpt lat="42.7349558" lon="13.5696053"><ele>1064.0</ele><time>2026-05-01T11:24:29.779Z</time></trkpt><trkpt lat="42.7348638" lon="13.5695445"><ele>1064.0</ele><time>2026-05-01T11:24:30.779Z</time></trkpt><trkpt lat="42.73478" lon="13.5694985"><ele>1062.0</ele><time>2026-05-01T11:24:31.778Z</time></trkpt><trkpt lat="42.7347138" lon="13.5694431"><ele>1060.0</ele><time>2026-05-01T11:24:32.779Z</time></trkpt><trkpt lat="42.7346739" lon="13.5693653"><ele>1058.0</ele><time>2026-05-01T11:24:33.78Z</time></trkpt><trkpt lat="42.7346538" lon="13.5692633"><ele>1056.0</ele><time>2026-05-01T11:24:34.779Z</time></trkpt><trkpt lat="42.7346503" lon="13.5691404"><ele>1054.0</ele><time>2026-05-01T11:24:35.779Z</time></trkpt><trkpt lat="42.7347117" lon="13.5690132"><ele>1052.0</ele><time>2026-05-01T11:24:36.779Z</time></trkpt><trkpt lat="42.7347801" lon="13.5688713"><ele>1052.0</ele><time>2026-05-01T11:24:37.78Z</time></trkpt><trkpt lat="42.7348276" lon="13.5687164"><ele>1052.0</ele><time>2026-05-01T11:24:38.778Z</time></trkpt><trkpt lat="42.7348611" lon="13.5685212"><ele>1052.0</ele><time>2026-05-01T11:24:39.778Z</time></trkpt><trkpt lat="42.7348818" lon="13.5682965"><ele>1052.0</ele><time>2026-05-01T11:24:40.78Z</time></trkpt><trkpt lat="42.7349" lon="13.5680847"><ele>1051.3333333333335</ele><time>2026-05-01T11:24:41.779Z</time></trkpt><trkpt lat="42.7349174" lon="13.567863"><ele>1050.6666666666667</ele><time>2026-05-01T11:24:42.779Z</time></trkpt><trkpt lat="42.7349368" lon="13.5676483"><ele>1050.0</ele><time>2026-05-01T11:24:43.78Z</time></trkpt><trkpt lat="42.7349562" lon="13.5674352"><ele>1050.0</ele><time>2026-05-01T11:24:44.779Z</time></trkpt><trkpt lat="42.7349747" lon="13.5672307"><ele>1050.0</ele><time>2026-05-01T11:24:45.78Z</time></trkpt><trkpt lat="42.7349816" lon="13.5670287"><ele>1050.0</ele><time>2026-05-01T11:24:46.78Z</time></trkpt><trkpt lat="42.7349726" lon="13.566824"><ele>1050.0</ele><time>2026-05-01T11:24:47.779Z</time></trkpt><trkpt lat="42.7349453" lon="13.5666135"><ele>1050.0</ele><time>2026-05-01T11:24:48.779Z</time></trkpt><trkpt lat="42.7349165" lon="13.5664124"><ele>1050.0</ele><time>2026-05-01T11:24:49.778Z</time></trkpt><trkpt lat="42.7348908" lon="13.5662237"><ele>1050.0</ele><time>2026-05-01T11:24:50.778Z</time></trkpt><trkpt lat="42.7348699" lon="13.5660381"><ele>1049.0</ele><time>2026-05-01T11:24:51.779Z</time></trkpt><trkpt lat="42.7348477" lon="13.5658607"><ele>1048.0</ele><time>2026-05-01T11:24:52.78Z</time></trkpt><trkpt lat="42.7348374" lon="13.5656872"><ele>1047.0</ele><time>2026-05-01T11:24:53.779Z</time></trkpt><trkpt lat="42.734835" lon="13.5655135"><ele>1046.0</ele><time>2026-05-01T11:24:54.779Z</time></trkpt><trkpt lat="42.734839" lon="13.5653476"><ele>1044.3999999999999</ele><time>2026-05-01T11:24:55.778Z</time></trkpt><trkpt lat="42.734848" lon="13.565195"><ele>1042.8</ele><time>2026-05-01T11:24:56.779Z</time></trkpt><trkpt lat="42.7348607" lon="13.5650449"><ele>1041.1999999999998</ele><time>2026-05-01T11:24:57.779Z</time></trkpt><trkpt lat="42.7348338" lon="13.5649262"><ele>1039.6</ele><time>2026-05-01T11:24:58.778Z</time></trkpt><trkpt lat="42.7348043" lon="13.5648176"><ele>1038.0</ele><time>2026-05-01T11:24:59.779Z</time></trkpt><trkpt lat="42.7347471" lon="13.5647314"><ele>1038.0</ele><time>2026-05-01T11:25:00.779Z</time></trkpt><trkpt lat="42.7346807" lon="13.5646647"><ele>1038.0</ele><time>2026-05-01T11:25:01.778Z</time></trkpt><trkpt lat="42.7346185" lon="13.5645971"><ele>1038.0</ele><time>2026-05-01T11:25:02.779Z</time></trkpt><trkpt lat="42.7345771" lon="13.5645277"><ele>1038.0</ele><time>2026-05-01T11:25:03.778Z</time></trkpt><trkpt lat="42.7345476" lon="13.5643596"><ele>1038.0</ele><time>2026-05-01T11:25:05.778Z</time></trkpt><trkpt lat="42.7346092" lon="13.5642499"><ele>1035.6</ele><time>2026-05-01T11:25:06.779Z</time></trkpt><trkpt lat="42.7346643" lon="13.5641267"><ele>1033.1999999999998</ele><time>2026-05-01T11:25:07.778Z</time></trkpt><trkpt lat="42.7347203" lon="13.5640215"><ele>1030.8</ele><time>2026-05-01T11:25:08.777Z</time></trkpt><trkpt lat="42.7347443" lon="13.5639013"><ele>1028.3999999999999</ele><time>2026-05-01T11:25:09.778Z</time></trkpt><trkpt lat="42.734766" lon="13.56377"><ele>1026.0</ele><time>2026-05-01T11:25:10.778Z</time></trkpt><trkpt lat="42.7347363" lon="13.5635784"><ele>1024.5</ele><time>2026-05-01T11:25:11.778Z</time></trkpt><trkpt lat="42.7346986" lon="13.56339"><ele>1023.0</ele><time>2026-05-01T11:25:12.777Z</time></trkpt><trkpt lat="42.7346662" lon="13.5631979"><ele>1021.5</ele><time>2026-05-01T11:25:13.779Z</time></trkpt><trkpt lat="42.7346657" lon="13.5630337"><ele>1020.0</ele><time>2026-05-01T11:25:14.777Z</time></trkpt><trkpt lat="42.7346518" lon="13.5628848"><ele>1018.4</ele><time>2026-05-01T11:25:15.778Z</time></trkpt><trkpt lat="42.7346451" lon="13.5627387"><ele>1016.8</ele><time>2026-05-01T11:25:16.778Z</time></trkpt><trkpt lat="42.7346393" lon="13.5626184"><ele>1015.2</ele><time>2026-05-01T11:25:17.778Z</time></trkpt><trkpt lat="42.7346064" lon="13.5624979"><ele>1013.6</ele><time>2026-05-01T11:25:18.777Z</time></trkpt><trkpt lat="42.7345544" lon="13.5623732"><ele>1012.0</ele><time>2026-05-01T11:25:19.778Z</time></trkpt><trkpt lat="42.7344685" lon="13.5622469"><ele>1016.5</ele><time>2026-05-01T11:25:20.777Z</time></trkpt><trkpt lat="42.734372" lon="13.5621013"><ele>1021.0</ele><time>2026-05-01T11:25:21.778Z</time></trkpt><trkpt lat="42.7342829" lon="13.5619824"><ele>1025.5</ele><time>2026-05-01T11:25:22.778Z</time></trkpt><trkpt lat="42.7341821" lon="13.56189"><ele>1030.0</ele><time>2026-05-01T11:25:23.777Z</time></trkpt><trkpt lat="42.7340819" lon="13.5618075"><ele>1030.0</ele><time>2026-05-01T11:25:24.778Z</time></trkpt><trkpt lat="42.7339863" lon="13.5617246"><ele>1030.0</ele><time>2026-05-01T11:25:25.777Z</time></trkpt><trkpt lat="42.733891" lon="13.5616329"><ele>1030.0</ele><time>2026-05-01T11:25:26.778Z</time></trkpt><trkpt lat="42.733798" lon="13.5615362"><ele>1030.0</ele><time>2026-05-01T11:25:27.778Z</time></trkpt><trkpt lat="42.7337188" lon="13.5614213"><ele>1030.0</ele><time>2026-05-01T11:25:28.779Z</time></trkpt><trkpt lat="42.7336485" lon="13.5612905"><ele>1030.0</ele><time>2026-05-01T11:25:29.779Z</time></trkpt><trkpt lat="42.733594" lon="13.561135"><ele>1030.0</ele><time>2026-05-01T11:25:30.778Z</time></trkpt><trkpt lat="42.7335583" lon="13.5609846"><ele>1030.0</ele><time>2026-05-01T11:25:31.778Z</time></trkpt><trkpt lat="42.7335392" lon="13.5608367"><ele>1027.8</ele><time>2026-05-01T11:25:32.778Z</time></trkpt><trkpt lat="42.7335399" lon="13.5606935"><ele>1025.6</ele><time>2026-05-01T11:25:33.778Z</time></trkpt><trkpt lat="42.7335484" lon="13.5605643"><ele>1023.4000000000001</ele><time>2026-05-01T11:25:34.778Z</time></trkpt><trkpt lat="42.7335723" lon="13.5604306"><ele>1021.2</ele><time>2026-05-01T11:25:35.777Z</time></trkpt><trkpt lat="42.7336078" lon="13.5603084"><ele>1019.0</ele><time>2026-05-01T11:25:36.778Z</time></trkpt><trkpt lat="42.7336335" lon="13.5601798"><ele>1019.8000000000001</ele><time>2026-05-01T11:25:37.779Z</time></trkpt><trkpt lat="42.7336335" lon="13.5600424"><ele>1020.6000000000001</ele><time>2026-05-01T11:25:38.779Z</time></trkpt><trkpt lat="42.7336203" lon="13.559908"><ele>1021.4</ele><time>2026-05-01T11:25:39.779Z</time></trkpt><trkpt lat="42.73359" lon="13.559764"><ele>1022.2</ele><time>2026-05-01T11:25:40.779Z</time></trkpt><trkpt lat="42.733539" lon="13.5596157"><ele>1023.0</ele><time>2026-05-01T11:25:41.777Z</time></trkpt><trkpt lat="42.7334942" lon="13.5594633"><ele>1023.0</ele><time>2026-05-01T11:25:42.778Z</time></trkpt><trkpt lat="42.7334571" lon="13.5593102"><ele>1023.0</ele><time>2026-05-01T11:25:43.779Z</time></trkpt><trkpt lat="42.7334174" lon="13.5591609"><ele>1023.0</ele><time>2026-05-01T11:25:44.779Z</time></trkpt><trkpt lat="42.7333688" lon="13.5590183"><ele>1023.0</ele><time>2026-05-01T11:25:45.779Z</time></trkpt><trkpt lat="42.7332924" lon="13.5588816"><ele>1023.0</ele><time>2026-05-01T11:25:46.779Z</time></trkpt><trkpt lat="42.7332216" lon="13.5587572"><ele>1023.0</ele><time>2026-05-01T11:25:47.778Z</time></trkpt><trkpt lat="42.7331375" lon="13.5586315"><ele>1023.0</ele><time>2026-05-01T11:25:48.779Z</time></trkpt><trkpt lat="42.7330507" lon="13.5585001"><ele>1023.0</ele><time>2026-05-01T11:25:49.779Z</time></trkpt><trkpt lat="42.7329944" lon="13.558345"><ele>1019.2</ele><time>2026-05-01T11:25:50.777Z</time></trkpt><trkpt lat="42.7329475" lon="13.5581859"><ele>1015.4</ele><time>2026-05-01T11:25:51.777Z</time></trkpt><trkpt lat="42.7329206" lon="13.5580393"><ele>1011.6000000000001</ele><time>2026-05-01T11:25:52.777Z</time></trkpt><trkpt lat="42.732901" lon="13.5579128"><ele>1007.8000000000001</ele><time>2026-05-01T11:25:53.777Z</time></trkpt><trkpt lat="42.7328621" lon="13.5577918"><ele>1004.0</ele><time>2026-05-01T11:25:54.778Z</time></trkpt><trkpt lat="42.7328119" lon="13.5576755"><ele>1003.6</ele><time>2026-05-01T11:25:55.778Z</time></trkpt><trkpt lat="42.7327501" lon="13.5575661"><ele>1003.2</ele><time>2026-05-01T11:25:56.778Z</time></trkpt><trkpt lat="42.7326686" lon="13.5574672"><ele>1002.8000000000001</ele><time>2026-05-01T11:25:57.777Z</time></trkpt><trkpt lat="42.7325911" lon="13.5573634"><ele>1002.4000000000001</ele><time>2026-05-01T11:25:58.777Z</time></trkpt><trkpt lat="42.7324989" lon="13.5572716"><ele>1002.0</ele><time>2026-05-01T11:25:59.777Z</time></trkpt><trkpt lat="42.7323986" lon="13.5571666"><ele>1004.6</ele><time>2026-05-01T11:26:01.777Z</time></trkpt><trkpt lat="42.732364" lon="13.5570903"><ele>1007.2</ele><time>2026-05-01T11:26:02.777Z</time></trkpt><trkpt lat="42.7323514" lon="13.5570024"><ele>1009.8</ele><time>2026-05-01T11:26:03.777Z</time></trkpt><trkpt lat="42.7323863" lon="13.5568785"><ele>1012.4</ele><time>2026-05-01T11:26:05.779Z</time></trkpt><trkpt lat="42.7325013" lon="13.556758"><ele>1015.0</ele><time>2026-05-01T11:26:07.779Z</time></trkpt><trkpt lat="42.7325763" lon="13.5567048"><ele>1015.0</ele><time>2026-05-01T11:26:08.778Z</time></trkpt><trkpt lat="42.7326382" lon="13.5566718"><ele>1015.0</ele><time>2026-05-01T11:26:09.779Z</time></trkpt><trkpt lat="42.7327213" lon="13.5566598"><ele>1015.0</ele><time>2026-05-01T11:26:10.779Z</time></trkpt><trkpt lat="42.7328296" lon="13.556677"><ele>1015.0</ele><time>2026-05-01T11:26:11.779Z</time></trkpt><trkpt lat="42.7329538" lon="13.5567164"><ele>1015.0</ele><time>2026-05-01T11:26:12.778Z</time></trkpt><trkpt lat="42.7330962" lon="13.5567509"><ele>1019.6666666666666</ele><time>2026-05-01T11:26:13.777Z</time></trkpt><trkpt lat="42.7332623" lon="13.5567739"><ele>1024.3333333333333</ele><time>2026-05-01T11:26:14.778Z</time></trkpt><trkpt lat="42.7334102" lon="13.5567949"><ele>1029.0</ele><time>2026-05-01T11:26:15.778Z</time></trkpt><trkpt lat="42.7335562" lon="13.5568205"><ele>1034.5</ele><time>2026-05-01T11:26:16.778Z</time></trkpt><trkpt lat="42.7336893" lon="13.5568567"><ele>1040.0</ele><time>2026-05-01T11:26:17.778Z</time></trkpt><trkpt lat="42.7338069" lon="13.5568905"><ele>1045.5</ele><time>2026-05-01T11:26:18.779Z</time></trkpt><trkpt lat="42.7339301" lon="13.5569343"><ele>1051.0</ele><time>2026-05-01T11:26:19.778Z</time></trkpt><trkpt lat="42.7340461" lon="13.5570124"><ele>1050.0</ele><time>2026-05-01T11:26:20.779Z</time></trkpt><trkpt lat="42.7341648" lon="13.5570744"><ele>1049.0</ele><time>2026-05-01T11:26:21.778Z</time></trkpt><trkpt lat="42.7342804" lon="13.5571602"><ele>1048.0</ele><time>2026-05-01T11:26:22.777Z</time></trkpt><trkpt lat="42.7344055" lon="13.5572411"><ele>1047.0</ele><time>2026-05-01T11:26:23.779Z</time></trkpt><trkpt lat="42.7345327" lon="13.5573039"><ele>1047.0</ele><time>2026-05-01T11:26:24.777Z</time></trkpt><trkpt lat="42.7346427" lon="13.557378"><ele>1047.0</ele><time>2026-05-01T11:26:25.778Z</time></trkpt><trkpt lat="42.7347453" lon="13.5574627"><ele>1047.0</ele><time>2026-05-01T11:26:26.778Z</time></trkpt><trkpt lat="42.7348547" lon="13.557558"><ele>1047.0</ele><time>2026-05-01T11:26:27.778Z</time></trkpt><trkpt lat="42.7349709" lon="13.5576525"><ele>1047.0</ele><time>2026-05-01T11:26:28.778Z</time></trkpt><trkpt lat="42.7350969" lon="13.5577374"><ele>1047.0</ele><time>2026-05-01T11:26:29.779Z</time></trkpt><trkpt lat="42.7352218" lon="13.5578167"><ele>1047.0</ele><time>2026-05-01T11:26:30.777Z</time></trkpt><trkpt lat="42.7353464" lon="13.5578828"><ele>1047.0</ele><time>2026-05-01T11:26:31.777Z</time></trkpt><trkpt lat="42.7354755" lon="13.5579484"><ele>1042.8</ele><time>2026-05-01T11:26:32.778Z</time></trkpt><trkpt lat="42.7355917" lon="13.5579912"><ele>1038.6</ele><time>2026-05-01T11:26:33.778Z</time></trkpt><trkpt lat="42.7357007" lon="13.5580089"><ele>1034.3999999999999</ele><time>2026-05-01T11:26:34.779Z</time></trkpt><trkpt lat="42.7357922" lon="13.5579972"><ele>1030.2</ele><time>2026-05-01T11:26:35.777Z</time></trkpt><trkpt lat="42.7358868" lon="13.5579587"><ele>1026.0</ele><time>2026-05-01T11:26:36.777Z</time></trkpt><trkpt lat="42.7359724" lon="13.5579085"><ele>1032.0</ele><time>2026-05-01T11:26:37.778Z</time></trkpt><trkpt lat="42.7360447" lon="13.5578063"><ele>1038.0</ele><time>2026-05-01T11:26:38.778Z</time></trkpt><trkpt lat="42.7361123" lon="13.5577466"><ele>1044.0</ele><time>2026-05-01T11:26:39.777Z</time></trkpt><trkpt lat="42.7362155" lon="13.5577065"><ele>1050.0</ele><time>2026-05-01T11:26:41.779Z</time></trkpt><trkpt lat="42.7362807" lon="13.5577211"><ele>1056.0</ele><time>2026-05-01T11:26:42.778Z</time></trkpt><trkpt lat="42.7363495" lon="13.5577907"><ele>1062.0</ele><time>2026-05-01T11:26:43.778Z</time></trkpt><trkpt lat="42.7364158" lon="13.5578667"><ele>1059.5</ele><time>2026-05-01T11:26:44.777Z</time></trkpt><trkpt lat="42.7365012" lon="13.5579865"><ele>1057.0</ele><time>2026-05-01T11:26:45.778Z</time></trkpt><trkpt lat="42.7365822" lon="13.5581241"><ele>1054.5</ele><time>2026-05-01T11:26:46.777Z</time></trkpt><trkpt lat="42.7366629" lon="13.5582488"><ele>1052.0</ele><time>2026-05-01T11:26:47.778Z</time></trkpt><trkpt lat="42.7367151" lon="13.5583774"><ele>1052.0</ele><time>2026-05-01T11:26:48.777Z</time></trkpt><trkpt lat="42.736757" lon="13.5585024"><ele>1052.0</ele><time>2026-05-01T11:26:49.778Z</time></trkpt><trkpt lat="42.7367812" lon="13.5586372"><ele>1052.0</ele><time>2026-05-01T11:26:50.778Z</time></trkpt><trkpt lat="42.7367953" lon="13.5588007"><ele>1052.0</ele><time>2026-05-01T11:26:51.779Z</time></trkpt><trkpt lat="42.7368045" lon="13.5589756"><ele>1049.0</ele><time>2026-05-01T11:26:52.778Z</time></trkpt><trkpt lat="42.7368144" lon="13.5591206"><ele>1046.0</ele><time>2026-05-01T11:26:53.778Z</time></trkpt><trkpt lat="42.7368384" lon="13.5592432"><ele>1043.0</ele><time>2026-05-01T11:26:54.778Z</time></trkpt><trkpt lat="42.7368751" lon="13.5593464"><ele>1040.0</ele><time>2026-05-01T11:26:55.779Z</time></trkpt><trkpt lat="42.7369248" lon="13.5594149"><ele>1037.0</ele><time>2026-05-01T11:26:56.777Z</time></trkpt><trkpt lat="42.7370158" lon="13.5594577"><ele>1043.4</ele><time>2026-05-01T11:26:58.778Z</time></trkpt><trkpt lat="42.7371427" lon="13.5595012"><ele>1049.8000000000002</ele><time>2026-05-01T11:27:00.779Z</time></trkpt><trkpt lat="42.737227" lon="13.5595344"><ele>1056.2</ele><time>2026-05-01T11:27:01.778Z</time></trkpt><trkpt lat="42.7373157" lon="13.5595841"><ele>1062.6000000000001</ele><time>2026-05-01T11:27:02.777Z</time></trkpt><trkpt lat="42.7373951" lon="13.5596581"><ele>1069.0</ele><time>2026-05-01T11:27:03.777Z</time></trkpt><trkpt lat="42.7374669" lon="13.5597674"><ele>1069.0</ele><time>2026-05-01T11:27:04.777Z</time></trkpt><trkpt lat="42.7375225" lon="13.5599061"><ele>1069.0</ele><time>2026-05-01T11:27:05.778Z</time></trkpt><trkpt lat="42.737559" lon="13.5600651"><ele>1069.0</ele><time>2026-05-01T11:27:06.777Z</time></trkpt><trkpt lat="42.7375569" lon="13.5602254"><ele>1069.0</ele><time>2026-05-01T11:27:07.778Z</time></trkpt><trkpt lat="42.7375456" lon="13.5603825"><ele>1072.8</ele><time>2026-05-01T11:27:08.778Z</time></trkpt><trkpt lat="42.7375545" lon="13.5605291"><ele>1076.6000000000001</ele><time>2026-05-01T11:27:09.777Z</time></trkpt><trkpt lat="42.737587" lon="13.5606686"><ele>1080.4</ele><time>2026-05-01T11:27:10.778Z</time></trkpt><trkpt lat="42.7376484" lon="13.5607766"><ele>1084.2</ele><time>2026-05-01T11:27:11.777Z</time></trkpt><trkpt lat="42.7377089" lon="13.5608794"><ele>1088.0</ele><time>2026-05-01T11:27:12.778Z</time></trkpt><trkpt lat="42.7378229" lon="13.560991"><ele>1088.0</ele><time>2026-05-01T11:27:13.778Z</time></trkpt><trkpt lat="42.7378938" lon="13.5611301"><ele>1088.0</ele><time>2026-05-01T11:27:14.778Z</time></trkpt><trkpt lat="42.7379626" lon="13.5612548"><ele>1088.0</ele><time>2026-05-01T11:27:15.777Z</time></trkpt><trkpt lat="42.7380263" lon="13.5613603"><ele>1088.0</ele><time>2026-05-01T11:27:16.777Z</time></trkpt><trkpt lat="42.7381011" lon="13.5614397"><ele>1088.0</ele><time>2026-05-01T11:27:17.778Z</time></trkpt><trkpt lat="42.7381738" lon="13.5614919"><ele>1076.5</ele><time>2026-05-01T11:27:18.778Z</time></trkpt><trkpt lat="42.7383041" lon="13.5614356"><ele>1065.0</ele><time>2026-05-01T11:27:19.778Z</time></trkpt><trkpt lat="42.738413" lon="13.5614083"><ele>1053.5</ele><time>2026-05-01T11:27:20.778Z</time></trkpt><trkpt lat="42.7385543" lon="13.56134"><ele>1042.0</ele><time>2026-05-01T11:27:21.778Z</time></trkpt><trkpt lat="42.7386961" lon="13.5612918"><ele>1038.0</ele><time>2026-05-01T11:27:22.778Z</time></trkpt><trkpt lat="42.7388392" lon="13.5612375"><ele>1034.0</ele><time>2026-05-01T11:27:23.778Z</time></trkpt><trkpt lat="42.7389771" lon="13.561194"><ele>1030.0</ele><time>2026-05-01T11:27:24.777Z</time></trkpt><trkpt lat="42.7391101" lon="13.5611466"><ele>1026.0</ele><time>2026-05-01T11:27:25.778Z</time></trkpt><trkpt lat="42.7392426" lon="13.5611024"><ele>1036.25</ele><time>2026-05-01T11:27:26.778Z</time></trkpt><trkpt lat="42.7393719" lon="13.5610748"><ele>1046.5</ele><time>2026-05-01T11:27:27.777Z</time></trkpt><trkpt lat="42.7395103" lon="13.5610789"><ele>1056.75</ele><time>2026-05-01T11:27:28.779Z</time></trkpt><trkpt lat="42.739649" lon="13.5611049"><ele>1067.0</ele><time>2026-05-01T11:27:29.779Z</time></trkpt><trkpt lat="42.7397809" lon="13.5611371"><ele>1067.25</ele><time>2026-05-01T11:27:30.777Z</time></trkpt><trkpt lat="42.7399111" lon="13.561168"><ele>1067.5</ele><time>2026-05-01T11:27:31.779Z</time></trkpt><trkpt lat="42.7400253" lon="13.5612012"><ele>1067.75</ele><time>2026-05-01T11:27:32.778Z</time></trkpt><trkpt lat="42.7401355" lon="13.5612527"><ele>1068.0</ele><time>2026-05-01T11:27:33.778Z</time></trkpt><trkpt lat="42.7402324" lon="13.5613321"><ele>1068.0</ele><time>2026-05-01T11:27:34.778Z</time></trkpt><trkpt lat="42.7403179" lon="13.561426"><ele>1068.0</ele><time>2026-05-01T11:27:35.778Z</time></trkpt><trkpt lat="42.7403993" lon="13.5615273"><ele>1068.0</ele><time>2026-05-01T11:27:36.778Z</time></trkpt><trkpt lat="42.7404732" lon="13.5616402"><ele>1068.0</ele><time>2026-05-01T11:27:37.779Z</time></trkpt><trkpt lat="42.7405322" lon="13.5617632"><ele>1068.0</ele><time>2026-05-01T11:27:38.777Z</time></trkpt><trkpt lat="42.740576" lon="13.5618983"><ele>1065.2</ele><time>2026-05-01T11:27:39.777Z</time></trkpt><trkpt lat="42.740598" lon="13.5620345"><ele>1062.4</ele><time>2026-05-01T11:27:40.778Z</time></trkpt><trkpt lat="42.7405996" lon="13.5621693"><ele>1059.6000000000001</ele><time>2026-05-01T11:27:41.778Z</time></trkpt><trkpt lat="42.7405791" lon="13.5623051"><ele>1056.8</ele><time>2026-05-01T11:27:42.777Z</time></trkpt><trkpt lat="42.7405374" lon="13.562437"><ele>1054.0</ele><time>2026-05-01T11:27:43.778Z</time></trkpt><trkpt lat="42.7404913" lon="13.5625514"><ele>1054.0</ele><time>2026-05-01T11:27:44.778Z</time></trkpt><trkpt lat="42.7404525" lon="13.5626628"><ele>1054.0</ele><time>2026-05-01T11:27:45.778Z</time></trkpt><trkpt lat="42.7404503" lon="13.5627793"><ele>1054.0</ele><time>2026-05-01T11:27:46.778Z</time></trkpt><trkpt lat="42.7404755" lon="13.5628872"><ele>1054.0</ele><time>2026-05-01T11:27:47.778Z</time></trkpt><trkpt lat="42.7405318" lon="13.5629927"><ele>1054.0</ele><time>2026-05-01T11:27:48.779Z</time></trkpt><trkpt lat="42.7406187" lon="13.563089"><ele>1048.75</ele><time>2026-05-01T11:27:49.779Z</time></trkpt><trkpt lat="42.7407173" lon="13.5631701"><ele>1043.5</ele><time>2026-05-01T11:27:50.779Z</time></trkpt><trkpt lat="42.7408261" lon="13.5632432"><ele>1038.25</ele><time>2026-05-01T11:27:51.778Z</time></trkpt><trkpt lat="42.740937" lon="13.5633134"><ele>1033.0</ele><time>2026-05-01T11:27:52.779Z</time></trkpt><trkpt lat="42.7410321" lon="13.5633835"><ele>1036.4</ele><time>2026-05-01T11:27:53.778Z</time></trkpt><trkpt lat="42.7411008" lon="13.5634617"><ele>1039.8</ele><time>2026-05-01T11:27:54.778Z</time></trkpt><trkpt lat="42.7411501" lon="13.5635619"><ele>1043.2</ele><time>2026-05-01T11:27:55.778Z</time></trkpt><trkpt lat="42.7411647" lon="13.5636804"><ele>1046.6</ele><time>2026-05-01T11:27:56.777Z</time></trkpt><trkpt lat="42.7411512" lon="13.563813"><ele>1050.0</ele><time>2026-05-01T11:27:57.778Z</time></trkpt><trkpt lat="42.7411075" lon="13.56394"><ele>1043.8333333333333</ele><time>2026-05-01T11:27:58.778Z</time></trkpt><trkpt lat="42.7410532" lon="13.5640581"><ele>1037.6666666666667</ele><time>2026-05-01T11:27:59.778Z</time></trkpt><trkpt lat="42.7410098" lon="13.5641711"><ele>1031.5</ele><time>2026-05-01T11:28:00.777Z</time></trkpt><trkpt lat="42.7409893" lon="13.5642746"><ele>1025.3333333333335</ele><time>2026-05-01T11:28:01.778Z</time></trkpt><trkpt lat="42.7410047" lon="13.5643735"><ele>1019.1666666666667</ele><time>2026-05-01T11:28:02.778Z</time></trkpt><trkpt lat="42.7410563" lon="13.5644482"><ele>1013.0</ele><time>2026-05-01T11:28:03.779Z</time></trkpt><trkpt lat="42.7411253" lon="13.564481"><ele>1013.0</ele><time>2026-05-01T11:28:04.779Z</time></trkpt><trkpt lat="42.7412139" lon="13.5644599"><ele>1013.0</ele><time>2026-05-01T11:28:05.778Z</time></trkpt><trkpt lat="42.7413038" lon="13.5643771"><ele>1013.0</ele><time>2026-05-01T11:28:06.778Z</time></trkpt><trkpt lat="42.7413922" lon="13.5642681"><ele>1013.0</ele><time>2026-05-01T11:28:07.777Z</time></trkpt><trkpt lat="42.7414819" lon="13.5641467"><ele>1013.0</ele><time>2026-05-01T11:28:08.778Z</time></trkpt><trkpt lat="42.7415781" lon="13.5640505"><ele>1013.0</ele><time>2026-05-01T11:28:09.778Z</time></trkpt><trkpt lat="42.7416967" lon="13.5639735"><ele>1013.0</ele><time>2026-05-01T11:28:10.778Z</time></trkpt><trkpt lat="42.7418311" lon="13.5639087"><ele>1013.0</ele><time>2026-05-01T11:28:11.777Z</time></trkpt><trkpt lat="42.7419677" lon="13.5638494"><ele>1013.0</ele><time>2026-05-01T11:28:12.778Z</time></trkpt><trkpt lat="42.7421141" lon="13.5637888"><ele>1010.25</ele><time>2026-05-01T11:28:13.778Z</time></trkpt><trkpt lat="42.7422554" lon="13.5637375"><ele>1007.5</ele><time>2026-05-01T11:28:14.779Z</time></trkpt><trkpt lat="42.7424035" lon="13.5637085"><ele>1004.75</ele><time>2026-05-01T11:28:15.778Z</time></trkpt><trkpt lat="42.7425473" lon="13.5637091"><ele>1002.0</ele><time>2026-05-01T11:28:16.778Z</time></trkpt><trkpt lat="42.7426859" lon="13.5637425"><ele>1003.0</ele><time>2026-05-01T11:28:17.777Z</time></trkpt><trkpt lat="42.7428348" lon="13.5638178"><ele>1004.0</ele><time>2026-05-01T11:28:18.778Z</time></trkpt><trkpt lat="42.7429898" lon="13.5639004"><ele>1005.0</ele><time>2026-05-01T11:28:19.778Z</time></trkpt><trkpt lat="42.7431432" lon="13.5640022"><ele>1005.0</ele><time>2026-05-01T11:28:20.779Z</time></trkpt><trkpt lat="42.7432922" lon="13.5641021"><ele>1005.0</ele><time>2026-05-01T11:28:21.778Z</time></trkpt><trkpt lat="42.7434317" lon="13.5642085"><ele>1005.0</ele><time>2026-05-01T11:28:22.778Z</time></trkpt><trkpt lat="42.7435666" lon="13.5643224"><ele>1003.75</ele><time>2026-05-01T11:28:23.778Z</time></trkpt><trkpt lat="42.7436856" lon="13.5644337"><ele>1002.5</ele><time>2026-05-01T11:28:24.779Z</time></trkpt><trkpt lat="42.7437928" lon="13.5645335"><ele>1001.25</ele><time>2026-05-01T11:28:25.778Z</time></trkpt><trkpt lat="42.743897" lon="13.5646347"><ele>1000.0</ele><time>2026-05-01T11:28:26.779Z</time></trkpt><trkpt lat="42.7439857" lon="13.5647462"><ele>1000.0</ele><time>2026-05-01T11:28:27.778Z</time></trkpt><trkpt lat="42.7440506" lon="13.5648782"><ele>1000.0</ele><time>2026-05-01T11:28:28.779Z</time></trkpt><trkpt lat="42.7440943" lon="13.5650271"><ele>1000.0</ele><time>2026-05-01T11:28:29.777Z</time></trkpt><trkpt lat="42.7441221" lon="13.5651858"><ele>1000.0</ele><time>2026-05-01T11:28:30.778Z</time></trkpt><trkpt lat="42.7441459" lon="13.565347"><ele>999.0</ele><time>2026-05-01T11:28:31.778Z</time></trkpt><trkpt lat="42.7441514" lon="13.5654956"><ele>998.0</ele><time>2026-05-01T11:28:32.778Z</time></trkpt><trkpt lat="42.7441417" lon="13.5656168"><ele>997.0</ele><time>2026-05-01T11:28:33.778Z</time></trkpt><trkpt lat="42.7441016" lon="13.5657176"><ele>996.0</ele><time>2026-05-01T11:28:34.777Z</time></trkpt><trkpt lat="42.7440264" lon="13.5657873"><ele>995.0</ele><time>2026-05-01T11:28:35.778Z</time></trkpt><trkpt lat="42.7439213" lon="13.5658421"><ele>995.0</ele><time>2026-05-01T11:28:36.779Z</time></trkpt><trkpt lat="42.7438023" lon="13.565888"><ele>995.0</ele><time>2026-05-01T11:28:37.779Z</time></trkpt><trkpt lat="42.7436762" lon="13.5659349"><ele>995.0</ele><time>2026-05-01T11:28:38.778Z</time></trkpt><trkpt lat="42.7435564" lon="13.5659855"><ele>995.0</ele><time>2026-05-01T11:28:39.779Z</time></trkpt><trkpt lat="42.7434536" lon="13.5660534"><ele>992.25</ele><time>2026-05-01T11:28:40.778Z</time></trkpt><trkpt lat="42.7433544" lon="13.566164"><ele>989.5</ele><time>2026-05-01T11:28:41.778Z</time></trkpt><trkpt lat="42.7432491" lon="13.5662869"><ele>986.75</ele><time>2026-05-01T11:28:42.779Z</time></trkpt><trkpt lat="42.7431303" lon="13.5663916"><ele>984.0</ele><time>2026-05-01T11:28:43.779Z</time></trkpt><trkpt lat="42.743008" lon="13.5665004"><ele>984.0</ele><time>2026-05-01T11:28:44.778Z</time></trkpt><trkpt lat="42.7428957" lon="13.5666246"><ele>984.0</ele><time>2026-05-01T11:28:45.778Z</time></trkpt><trkpt lat="42.7427927" lon="13.5667653"><ele>984.0</ele><time>2026-05-01T11:28:46.778Z</time></trkpt><trkpt lat="42.7427027" lon="13.5669174"><ele>984.0</ele><time>2026-05-01T11:28:47.778Z</time></trkpt><trkpt lat="42.7426322" lon="13.5670844"><ele>976.0</ele><time>2026-05-01T11:28:48.777Z</time></trkpt><trkpt lat="42.7425917" lon="13.5672628"><ele>968.0</ele><time>2026-05-01T11:28:49.777Z</time></trkpt><trkpt lat="42.7425761" lon="13.5674525"><ele>960.0</ele><time>2026-05-01T11:28:50.777Z</time></trkpt><trkpt lat="42.7425764" lon="13.5676513"><ele>952.0</ele><time>2026-05-01T11:28:51.777Z</time></trkpt><trkpt lat="42.7425875" lon="13.5678508"><ele>951.25</ele><time>2026-05-01T11:28:52.778Z</time></trkpt><trkpt lat="42.7425895" lon="13.5680523"><ele>950.5</ele><time>2026-05-01T11:28:53.777Z</time></trkpt><trkpt lat="42.7425879" lon="13.5682533"><ele>949.75</ele><time>2026-05-01T11:28:54.777Z</time></trkpt><trkpt lat="42.7425849" lon="13.5684465"><ele>949.0</ele><time>2026-05-01T11:28:55.778Z</time></trkpt><trkpt lat="42.7425936" lon="13.5686268"><ele>945.75</ele><time>2026-05-01T11:28:56.778Z</time></trkpt><trkpt lat="42.7426286" lon="13.5688028"><ele>942.5</ele><time>2026-05-01T11:28:57.778Z</time></trkpt><trkpt lat="42.7426735" lon="13.5689657"><ele>939.25</ele><time>2026-05-01T11:28:58.778Z</time></trkpt><trkpt lat="42.7427192" lon="13.5691239"><ele>936.0</ele><time>2026-05-01T11:28:59.778Z</time></trkpt><trkpt lat="42.7427643" lon="13.569268"><ele>939.5</ele><time>2026-05-01T11:29:00.777Z</time></trkpt><trkpt lat="42.7428113" lon="13.569412"><ele>943.0</ele><time>2026-05-01T11:29:01.778Z</time></trkpt><trkpt lat="42.7428564" lon="13.5695677"><ele>946.5</ele><time>2026-05-01T11:29:02.777Z</time></trkpt><trkpt lat="42.7429169" lon="13.5697217"><ele>950.0</ele><time>2026-05-01T11:29:03.777Z</time></trkpt><trkpt lat="42.742982" lon="13.5698783"><ele>950.0</ele><time>2026-05-01T11:29:04.778Z</time></trkpt><trkpt lat="42.7430478" lon="13.5700306"><ele>950.0</ele><time>2026-05-01T11:29:05.778Z</time></trkpt><trkpt lat="42.7431091" lon="13.5701715"><ele>950.0</ele><time>2026-05-01T11:29:06.777Z</time></trkpt><trkpt lat="42.7431631" lon="13.5702919"><ele>950.0</ele><time>2026-05-01T11:29:07.778Z</time></trkpt><trkpt lat="42.7432335" lon="13.5704017"><ele>948.5</ele><time>2026-05-01T11:29:08.778Z</time></trkpt><trkpt lat="42.7432979" lon="13.5704905"><ele>947.0</ele><time>2026-05-01T11:29:09.777Z</time></trkpt><trkpt lat="42.7434419" lon="13.5705138"><ele>945.5</ele><time>2026-05-01T11:29:10.778Z</time></trkpt><trkpt lat="42.7435562" lon="13.570552"><ele>944.0</ele><time>2026-05-01T11:29:11.778Z</time></trkpt><trkpt lat="42.7436767" lon="13.5705819"><ele>944.0</ele><time>2026-05-01T11:29:12.778Z</time></trkpt><trkpt lat="42.7437754" lon="13.5706148"><ele>944.0000000000001</ele><time>2026-05-01T11:29:13.778Z</time></trkpt><trkpt lat="42.7438627" lon="13.5706826"><ele>944.0000000000001</ele><time>2026-05-01T11:29:14.778Z</time></trkpt><trkpt lat="42.743922" lon="13.570784"><ele>944.0</ele><time>2026-05-01T11:29:15.779Z</time></trkpt><trkpt lat="42.7439625" lon="13.5709161"><ele>944.0</ele><time>2026-05-01T11:29:16.778Z</time></trkpt><trkpt lat="42.7439704" lon="13.5710696"><ele>944.5</ele><time>2026-05-01T11:29:17.777Z</time></trkpt><trkpt lat="42.7439504" lon="13.5712359"><ele>945.0</ele><time>2026-05-01T11:29:18.778Z</time></trkpt><trkpt lat="42.7439158" lon="13.5714046"><ele>945.5</ele><time>2026-05-01T11:29:19.778Z</time></trkpt><trkpt lat="42.7438863" lon="13.5715692"><ele>946.0</ele><time>2026-05-01T11:29:20.777Z</time></trkpt><trkpt lat="42.7438721" lon="13.5717317"><ele>946.0</ele><time>2026-05-01T11:29:21.778Z</time></trkpt><trkpt lat="42.7438857" lon="13.5719072"><ele>946.0</ele><time>2026-05-01T11:29:22.778Z</time></trkpt><trkpt lat="42.7439018" lon="13.5720781"><ele>946.0</ele><time>2026-05-01T11:29:23.777Z</time></trkpt><trkpt lat="42.7439228" lon="13.5722498"><ele>946.0</ele><time>2026-05-01T11:29:24.778Z</time></trkpt><trkpt lat="42.74393" lon="13.5724202"><ele>945.25</ele><time>2026-05-01T11:29:25.778Z</time></trkpt><trkpt lat="42.7439244" lon="13.572592"><ele>944.5</ele><time>2026-05-01T11:29:26.778Z</time></trkpt><trkpt lat="42.7438991" lon="13.5727641"><ele>943.75</ele><time>2026-05-01T11:29:27.778Z</time></trkpt><trkpt lat="42.7438703" lon="13.5729207"><ele>943.0</ele><time>2026-05-01T11:29:28.777Z</time></trkpt><trkpt lat="42.7438496" lon="13.5730758"><ele>940.8333333333333</ele><time>2026-05-01T11:29:29.777Z</time></trkpt><trkpt lat="42.7438444" lon="13.5732275"><ele>938.6666666666666</ele><time>2026-05-01T11:29:30.777Z</time></trkpt><trkpt lat="42.7438515" lon="13.573361"><ele>936.5</ele><time>2026-05-01T11:29:31.776Z</time></trkpt><trkpt lat="42.7438659" lon="13.5734827"><ele>934.3333333333333</ele><time>2026-05-01T11:29:32.777Z</time></trkpt><trkpt lat="42.7438762" lon="13.5735842"><ele>932.1666666666666</ele><time>2026-05-01T11:29:33.777Z</time></trkpt><trkpt lat="42.7438867" lon="13.5736711"><ele>930.0</ele><time>2026-05-01T11:29:34.776Z</time></trkpt><trkpt lat="42.7438802" lon="13.5738334"><ele>929.1666666666666</ele><time>2026-05-01T11:29:36.776Z</time></trkpt><trkpt lat="42.743861" lon="13.5739268"><ele>928.3333333333333</ele><time>2026-05-01T11:29:37.778Z</time></trkpt><trkpt lat="42.7438321" lon="13.5740282"><ele>927.5</ele><time>2026-05-01T11:29:38.778Z</time></trkpt><trkpt lat="42.7437984" lon="13.5741383"><ele>926.6666666666666</ele><time>2026-05-01T11:29:39.776Z</time></trkpt><trkpt lat="42.7437688" lon="13.5742553"><ele>925.8333333333333</ele><time>2026-05-01T11:29:40.777Z</time></trkpt><trkpt lat="42.7437581" lon="13.5743641"><ele>925.0</ele><time>2026-05-01T11:29:41.777Z</time></trkpt><trkpt lat="42.7437804" lon="13.5744882"><ele>922.4</ele><time>2026-05-01T11:29:42.778Z</time></trkpt><trkpt lat="42.7438167" lon="13.5746064"><ele>919.8</ele><time>2026-05-01T11:29:43.776Z</time></trkpt><trkpt lat="42.7438567" lon="13.5747367"><ele>917.2</ele><time>2026-05-01T11:29:44.777Z</time></trkpt><trkpt lat="42.7438914" lon="13.5748597"><ele>914.6</ele><time>2026-05-01T11:29:45.776Z</time></trkpt><trkpt lat="42.7439216" lon="13.5749805"><ele>912.0</ele><time>2026-05-01T11:29:46.777Z</time></trkpt><trkpt lat="42.7439511" lon="13.5750869"><ele>912.0</ele><time>2026-05-01T11:29:47.776Z</time></trkpt><trkpt lat="42.7439748" lon="13.5751886"><ele>912.0</ele><time>2026-05-01T11:29:48.778Z</time></trkpt><trkpt lat="42.7439789" lon="13.575291"><ele>912.0</ele><time>2026-05-01T11:29:49.778Z</time></trkpt><trkpt lat="42.7439589" lon="13.5754006"><ele>912.0</ele><time>2026-05-01T11:29:50.776Z</time></trkpt><trkpt lat="42.7439122" lon="13.5755121"><ele>912.0</ele><time>2026-05-01T11:29:51.776Z</time></trkpt><trkpt lat="42.7438447" lon="13.5756247"><ele>912.0</ele><time>2026-05-01T11:29:52.778Z</time></trkpt><trkpt lat="42.7437679" lon="13.5757608"><ele>912.0</ele><time>2026-05-01T11:29:53.776Z</time></trkpt><trkpt lat="42.7436949" lon="13.5759075"><ele>912.0</ele><time>2026-05-01T11:29:54.776Z</time></trkpt><trkpt lat="42.743626" lon="13.5760748"><ele>912.0</ele><time>2026-05-01T11:29:55.777Z</time></trkpt><trkpt lat="42.7435498" lon="13.5762459"><ele>912.0</ele><time>2026-05-01T11:29:56.776Z</time></trkpt><trkpt lat="42.7434664" lon="13.5764198"><ele>906.0</ele><time>2026-05-01T11:29:57.777Z</time></trkpt><trkpt lat="42.7433871" lon="13.5765967"><ele>900.0</ele><time>2026-05-01T11:29:58.776Z</time></trkpt><trkpt lat="42.7433113" lon="13.5767749"><ele>894.0</ele><time>2026-05-01T11:29:59.776Z</time></trkpt><trkpt lat="42.7432369" lon="13.5769491"><ele>894.0</ele><time>2026-05-01T11:30:00.776Z</time></trkpt><trkpt lat="42.7431609" lon="13.5771228"><ele>894.0</ele><time>2026-05-01T11:30:01.776Z</time></trkpt><trkpt lat="42.7430951" lon="13.577284"><ele>894.0</ele><time>2026-05-01T11:30:02.776Z</time></trkpt><trkpt lat="42.7430377" lon="13.5774287"><ele>894.0</ele><time>2026-05-01T11:30:03.778Z</time></trkpt><trkpt lat="42.7429916" lon="13.5775728"><ele>894.0</ele><time>2026-05-01T11:30:04.778Z</time></trkpt><trkpt lat="42.742974" lon="13.5777334"><ele>894.0</ele><time>2026-05-01T11:30:05.777Z</time></trkpt><trkpt lat="42.742981" lon="13.5779011"><ele>894.0</ele><time>2026-05-01T11:30:06.777Z</time></trkpt><trkpt lat="42.7430139" lon="13.5780756"><ele>894.0</ele><time>2026-05-01T11:30:07.776Z</time></trkpt><trkpt lat="42.7430684" lon="13.5782555"><ele>892.5</ele><time>2026-05-01T11:30:08.776Z</time></trkpt><trkpt lat="42.7431264" lon="13.578437"><ele>891.0</ele><time>2026-05-01T11:30:09.777Z</time></trkpt><trkpt lat="42.7431751" lon="13.5786166"><ele>889.5</ele><time>2026-05-01T11:30:10.777Z</time></trkpt><trkpt lat="42.7432144" lon="13.5787879"><ele>888.0</ele><time>2026-05-01T11:30:11.778Z</time></trkpt><trkpt lat="42.7432416" lon="13.5789367"><ele>886.8333333333334</ele><time>2026-05-01T11:30:12.776Z</time></trkpt><trkpt lat="42.7432566" lon="13.5790683"><ele>885.6666666666667</ele><time>2026-05-01T11:30:13.777Z</time></trkpt><trkpt lat="42.7432517" lon="13.5791879"><ele>884.5</ele><time>2026-05-01T11:30:14.777Z</time></trkpt><trkpt lat="42.7432165" lon="13.5792786"><ele>883.3333333333334</ele><time>2026-05-01T11:30:15.776Z</time></trkpt><trkpt lat="42.7431536" lon="13.5793289"><ele>882.1666666666667</ele><time>2026-05-01T11:30:16.778Z</time></trkpt><trkpt lat="42.7430802" lon="13.5793263"><ele>881.0</ele><time>2026-05-01T11:30:17.777Z</time></trkpt><trkpt lat="42.7430018" lon="13.5792448"><ele>881.0</ele><time>2026-05-01T11:30:18.778Z</time></trkpt><trkpt lat="42.742927" lon="13.579109"><ele>881.0</ele><time>2026-05-01T11:30:19.777Z</time></trkpt><trkpt lat="42.7428569" lon="13.5789298"><ele>881.0</ele><time>2026-05-01T11:30:20.777Z</time></trkpt><trkpt lat="42.7427728" lon="13.5787323"><ele>881.0</ele><time>2026-05-01T11:30:21.777Z</time></trkpt><trkpt lat="42.7426848" lon="13.5785341"><ele>877.0</ele><time>2026-05-01T11:30:22.777Z</time></trkpt><trkpt lat="42.7425982" lon="13.5783304"><ele>873.0</ele><time>2026-05-01T11:30:23.776Z</time></trkpt><trkpt lat="42.7425048" lon="13.5781294"><ele>869.0</ele><time>2026-05-01T11:30:24.776Z</time></trkpt><trkpt lat="42.742418" lon="13.5779371"><ele>869.6666666666667</ele><time>2026-05-01T11:30:25.777Z</time></trkpt><trkpt lat="42.7423344" lon="13.5777465"><ele>870.3333333333333</ele><time>2026-05-01T11:30:26.777Z</time></trkpt><trkpt lat="42.7422607" lon="13.5775551"><ele>871.0</ele><time>2026-05-01T11:30:27.777Z</time></trkpt><trkpt lat="42.7421994" lon="13.5773634"><ele>871.0</ele><time>2026-05-01T11:30:28.778Z</time></trkpt><trkpt lat="42.7421593" lon="13.577176"><ele>871.0</ele><time>2026-05-01T11:30:29.777Z</time></trkpt><trkpt lat="42.7421356" lon="13.5770014"><ele>871.0</ele><time>2026-05-01T11:30:30.777Z</time></trkpt><trkpt lat="42.742143" lon="13.5768336"><ele>871.0</ele><time>2026-05-01T11:30:31.777Z</time></trkpt><trkpt lat="42.7421902" lon="13.5766893"><ele>870.75</ele><time>2026-05-01T11:30:32.777Z</time></trkpt><trkpt lat="42.7422625" lon="13.5765564"><ele>870.5</ele><time>2026-05-01T11:30:33.776Z</time></trkpt><trkpt lat="42.7423244" lon="13.5764106"><ele>870.25</ele><time>2026-05-01T11:30:34.777Z</time></trkpt><trkpt lat="42.7423669" lon="13.576244"><ele>870.0</ele><time>2026-05-01T11:30:35.777Z</time></trkpt><trkpt lat="42.742388" lon="13.5760823"><ele>868.5</ele><time>2026-05-01T11:30:36.777Z</time></trkpt><trkpt lat="42.742373" lon="13.5759305"><ele>867.0</ele><time>2026-05-01T11:30:37.778Z</time></trkpt><trkpt lat="42.7423276" lon="13.575795"><ele>865.5</ele><time>2026-05-01T11:30:38.776Z</time></trkpt><trkpt lat="42.7422482" lon="13.5756716"><ele>864.0</ele><time>2026-05-01T11:30:39.777Z</time></trkpt><trkpt lat="42.7421683" lon="13.5755332"><ele>864.0</ele><time>2026-05-01T11:30:40.777Z</time></trkpt><trkpt lat="42.7421145" lon="13.5753728"><ele>864.0</ele><time>2026-05-01T11:30:41.776Z</time></trkpt><trkpt lat="42.7420743" lon="13.5751895"><ele>864.0</ele><time>2026-05-01T11:30:42.777Z</time></trkpt><trkpt lat="42.7420394" lon="13.5749983"><ele>864.0</ele><time>2026-05-01T11:30:43.777Z</time></trkpt><trkpt lat="42.742001" lon="13.5748047"><ele>866.3333333333333</ele><time>2026-05-01T11:30:44.776Z</time></trkpt><trkpt lat="42.7419439" lon="13.5746243"><ele>868.6666666666666</ele><time>2026-05-01T11:30:45.776Z</time></trkpt><trkpt lat="42.7418625" lon="13.5744473"><ele>871.0</ele><time>2026-05-01T11:30:46.778Z</time></trkpt><trkpt lat="42.7417663" lon="13.5742782"><ele>866.75</ele><time>2026-05-01T11:30:47.777Z</time></trkpt><trkpt lat="42.7416695" lon="13.5741269"><ele>862.5</ele><time>2026-05-01T11:30:48.777Z</time></trkpt><trkpt lat="42.7415851" lon="13.5739901"><ele>858.25</ele><time>2026-05-01T11:30:49.778Z</time></trkpt><trkpt lat="42.7415305" lon="13.5738605"><ele>854.0</ele><time>2026-05-01T11:30:50.777Z</time></trkpt><trkpt lat="42.7415206" lon="13.5737204"><ele>854.8333333333334</ele><time>2026-05-01T11:30:51.778Z</time></trkpt><trkpt lat="42.7415363" lon="13.5735729"><ele>855.6666666666667</ele><time>2026-05-01T11:30:52.777Z</time></trkpt><trkpt lat="42.7415476" lon="13.5734417"><ele>856.5</ele><time>2026-05-01T11:30:53.776Z</time></trkpt><trkpt lat="42.7415499" lon="13.5733173"><ele>857.3333333333333</ele><time>2026-05-01T11:30:54.778Z</time></trkpt><trkpt lat="42.7415397" lon="13.573215"><ele>858.1666666666666</ele><time>2026-05-01T11:30:55.778Z</time></trkpt><trkpt lat="42.741484" lon="13.5731564"><ele>859.0</ele><time>2026-05-01T11:30:56.778Z</time></trkpt><trkpt lat="42.7413684" lon="13.5732247"><ele>859.0</ele><time>2026-05-01T11:30:58.777Z</time></trkpt><trkpt lat="42.7413065" lon="13.5732828"><ele>859.0</ele><time>2026-05-01T11:30:59.778Z</time></trkpt><trkpt lat="42.7412417" lon="13.5734136"><ele>859.0</ele><time>2026-05-01T11:31:00.777Z</time></trkpt><trkpt lat="42.741192" lon="13.5736335"><ele>859.0</ele><time>2026-05-01T11:31:01.777Z</time></trkpt><trkpt lat="42.7411537" lon="13.5738683"><ele>858.0</ele><time>2026-05-01T11:31:02.777Z</time></trkpt><trkpt lat="42.7411264" lon="13.5740715"><ele>857.0000000000001</ele><time>2026-05-01T11:31:03.777Z</time></trkpt><trkpt lat="42.7411029" lon="13.574225"><ele>856.0000000000001</ele><time>2026-05-01T11:31:04.778Z</time></trkpt><trkpt lat="42.741079" lon="13.5743339"><ele>855.0</ele><time>2026-05-01T11:31:05.778Z</time></trkpt><trkpt lat="42.7410663" lon="13.5744477"><ele>854.0</ele><time>2026-05-01T11:31:07.777Z</time></trkpt><trkpt lat="42.741073" lon="13.5745405"><ele>853.2</ele><time>2026-05-01T11:31:54.777Z</time></trkpt><trkpt lat="42.7410594" lon="13.5746352"><ele>852.4000000000001</ele><time>2026-05-01T11:31:55.777Z</time></trkpt><trkpt lat="42.7410571" lon="13.5747652"><ele>851.6</ele><time>2026-05-01T11:31:56.777Z</time></trkpt><trkpt lat="42.7410525" lon="13.5749117"><ele>850.8</ele><time>2026-05-01T11:31:57.778Z</time></trkpt><trkpt lat="42.7410466" lon="13.5750694"><ele>850.0</ele><time>2026-05-01T11:31:58.777Z</time></trkpt><trkpt lat="42.7410324" lon="13.5752302"><ele>854.0</ele><time>2026-05-01T11:31:59.777Z</time></trkpt><trkpt lat="42.7409911" lon="13.5753886"><ele>858.0</ele><time>2026-05-01T11:32:00.777Z</time></trkpt><trkpt lat="42.7409362" lon="13.5755517"><ele>862.0</ele><time>2026-05-01T11:32:01.777Z</time></trkpt><trkpt lat="42.7408941" lon="13.5757269"><ele>866.0</ele><time>2026-05-01T11:32:02.778Z</time></trkpt><trkpt lat="42.7408688" lon="13.575911"><ele>866.0</ele><time>2026-05-01T11:32:03.777Z</time></trkpt><trkpt lat="42.7408454" lon="13.5761118"><ele>866.0</ele><time>2026-05-01T11:32:04.776Z</time></trkpt><trkpt lat="42.7408231" lon="13.5763194"><ele>866.0</ele><time>2026-05-01T11:32:05.777Z</time></trkpt><trkpt lat="42.7407989" lon="13.5765263"><ele>864.0</ele><time>2026-05-01T11:32:06.777Z</time></trkpt><trkpt lat="42.7407638" lon="13.5767452"><ele>862.0</ele><time>2026-05-01T11:32:07.777Z</time></trkpt><trkpt lat="42.7407235" lon="13.5769598"><ele>860.0</ele><time>2026-05-01T11:32:08.777Z</time></trkpt><trkpt lat="42.7406809" lon="13.5771736"><ele>858.3333333333334</ele><time>2026-05-01T11:32:09.777Z</time></trkpt><trkpt lat="42.7406433" lon="13.5773873"><ele>856.6666666666667</ele><time>2026-05-01T11:32:10.778Z</time></trkpt><trkpt lat="42.74061" lon="13.5775907"><ele>855.0</ele><time>2026-05-01T11:32:11.777Z</time></trkpt><trkpt lat="42.7405898" lon="13.5777956"><ele>853.3333333333333</ele><time>2026-05-01T11:32:12.778Z</time></trkpt><trkpt lat="42.7405859" lon="13.5780019"><ele>851.6666666666666</ele><time>2026-05-01T11:32:13.777Z</time></trkpt><trkpt lat="42.7405975" lon="13.5782063"><ele>850.0</ele><time>2026-05-01T11:32:14.777Z</time></trkpt><trkpt lat="42.7406256" lon="13.5784164"><ele>850.0</ele><time>2026-05-01T11:32:15.777Z</time></trkpt><trkpt lat="42.7406637" lon="13.5786161"><ele>850.0</ele><time>2026-05-01T11:32:16.776Z</time></trkpt><trkpt lat="42.7406966" lon="13.5788044"><ele>850.0</ele><time>2026-05-01T11:32:17.778Z</time></trkpt><trkpt lat="42.7407228" lon="13.5789838"><ele>850.0</ele><time>2026-05-01T11:32:18.777Z</time></trkpt><trkpt lat="42.7407234" lon="13.5791539"><ele>848.75</ele><time>2026-05-01T11:32:19.777Z</time></trkpt><trkpt lat="42.7406956" lon="13.579312"><ele>847.5</ele><time>2026-05-01T11:32:20.777Z</time></trkpt><trkpt lat="42.7406329" lon="13.579463"><ele>846.25</ele><time>2026-05-01T11:32:21.777Z</time></trkpt><trkpt lat="42.7405587" lon="13.5795891"><ele>845.0</ele><time>2026-05-01T11:32:22.777Z</time></trkpt><trkpt lat="42.7405075" lon="13.5797182"><ele>845.2</ele><time>2026-05-01T11:32:23.777Z</time></trkpt><trkpt lat="42.7404954" lon="13.5798511"><ele>845.4</ele><time>2026-05-01T11:32:24.778Z</time></trkpt><trkpt lat="42.7405203" lon="13.5799859"><ele>845.5999999999999</ele><time>2026-05-01T11:32:25.777Z</time></trkpt><trkpt lat="42.7405806" lon="13.5800991"><ele>845.8</ele><time>2026-05-01T11:32:26.776Z</time></trkpt><trkpt lat="42.7406722" lon="13.5802098"><ele>846.0</ele><time>2026-05-01T11:32:27.777Z</time></trkpt><trkpt lat="42.7407452" lon="13.5803593"><ele>846.0</ele><time>2026-05-01T11:32:28.777Z</time></trkpt><trkpt lat="42.7408121" lon="13.580535"><ele>846.0</ele><time>2026-05-01T11:32:29.777Z</time></trkpt><trkpt lat="42.7408663" lon="13.5807165"><ele>846.0</ele><time>2026-05-01T11:32:30.777Z</time></trkpt><trkpt lat="42.740894" lon="13.5808853"><ele>846.0</ele><time>2026-05-01T11:32:31.777Z</time></trkpt><trkpt lat="42.7408922" lon="13.581052"><ele>844.75</ele><time>2026-05-01T11:32:32.776Z</time></trkpt><trkpt lat="42.7408558" lon="13.5812147"><ele>843.5</ele><time>2026-05-01T11:32:33.776Z</time></trkpt><trkpt lat="42.7407949" lon="13.5813688"><ele>842.25</ele><time>2026-05-01T11:32:34.777Z</time></trkpt><trkpt lat="42.7407434" lon="13.5815243"><ele>841.0</ele><time>2026-05-01T11:32:35.777Z</time></trkpt><trkpt lat="42.7407066" lon="13.5816757"><ele>841.0</ele><time>2026-05-01T11:32:36.776Z</time></trkpt><trkpt lat="42.7407009" lon="13.581847"><ele>841.0</ele><time>2026-05-01T11:32:37.776Z</time></trkpt><trkpt lat="42.7407385" lon="13.5820384"><ele>841.0</ele><time>2026-05-01T11:32:38.776Z</time></trkpt><trkpt lat="42.7407909" lon="13.5822321"><ele>841.0</ele><time>2026-05-01T11:32:39.778Z</time></trkpt><trkpt lat="42.7408593" lon="13.5824203"><ele>839.5</ele><time>2026-05-01T11:32:40.777Z</time></trkpt><trkpt lat="42.7409436" lon="13.5825939"><ele>838.0</ele><time>2026-05-01T11:32:41.778Z</time></trkpt><trkpt lat="42.7410412" lon="13.5827498"><ele>836.5</ele><time>2026-05-01T11:32:42.778Z</time></trkpt><trkpt lat="42.7411354" lon="13.5828929"><ele>835.0</ele><time>2026-05-01T11:32:43.777Z</time></trkpt><trkpt lat="42.74122" lon="13.583027"><ele>831.6</ele><time>2026-05-01T11:32:44.777Z</time></trkpt><trkpt lat="42.7412734" lon="13.5831568"><ele>828.2</ele><time>2026-05-01T11:32:45.777Z</time></trkpt><trkpt lat="42.7412909" lon="13.5832826"><ele>824.8</ele><time>2026-05-01T11:32:46.777Z</time></trkpt><trkpt lat="42.7412587" lon="13.5833913"><ele>821.4</ele><time>2026-05-01T11:32:47.777Z</time></trkpt><trkpt lat="42.741178" lon="13.5834688"><ele>818.0</ele><time>2026-05-01T11:32:48.776Z</time></trkpt><trkpt lat="42.7410611" lon="13.5835068"><ele>824.0</ele><time>2026-05-01T11:32:49.777Z</time></trkpt><trkpt lat="42.7409154" lon="13.583539"><ele>830.0</ele><time>2026-05-01T11:32:50.777Z</time></trkpt><trkpt lat="42.7407522" lon="13.5835674"><ele>836.0</ele><time>2026-05-01T11:32:51.776Z</time></trkpt><trkpt lat="42.7405866" lon="13.5836057"><ele>836.0</ele><time>2026-05-01T11:32:52.777Z</time></trkpt><trkpt lat="42.7404296" lon="13.5836536"><ele>836.0</ele><time>2026-05-01T11:32:53.778Z</time></trkpt><trkpt lat="42.7402776" lon="13.5836996"><ele>836.0</ele><time>2026-05-01T11:32:54.778Z</time></trkpt><trkpt lat="42.7401449" lon="13.5837407"><ele>834.1999999999999</ele><time>2026-05-01T11:32:55.777Z</time></trkpt><trkpt lat="42.7400379" lon="13.5837841"><ele>832.4</ele><time>2026-05-01T11:32:56.777Z</time></trkpt><trkpt lat="42.7399488" lon="13.5838427"><ele>830.6</ele><time>2026-05-01T11:32:57.777Z</time></trkpt><trkpt lat="42.7398938" lon="13.5839368"><ele>828.8</ele><time>2026-05-01T11:32:58.777Z</time></trkpt><trkpt lat="42.7398661" lon="13.5840441"><ele>827.0</ele><time>2026-05-01T11:32:59.776Z</time></trkpt><trkpt lat="42.7398524" lon="13.5841466"><ele>827.0000000000001</ele><time>2026-05-01T11:33:00.777Z</time></trkpt><trkpt lat="42.7398416" lon="13.5842417"><ele>827.0</ele><time>2026-05-01T11:33:01.776Z</time></trkpt><trkpt lat="42.7398309" lon="13.5843329"><ele>827.0</ele><time>2026-05-01T11:33:02.777Z</time></trkpt><trkpt lat="42.7398256" lon="13.5844238"><ele>827.0</ele><time>2026-05-01T11:33:03.778Z</time></trkpt><trkpt lat="42.7398766" lon="13.5845646"><ele>827.0000000000001</ele><time>2026-05-01T11:33:05.776Z</time></trkpt><trkpt lat="42.7399473" lon="13.5846152"><ele>827.0</ele><time>2026-05-01T11:33:06.778Z</time></trkpt><trkpt lat="42.7400538" lon="13.5846352"><ele>830.25</ele><time>2026-05-01T11:33:07.778Z</time></trkpt><trkpt lat="42.7401894" lon="13.5846419"><ele>833.5</ele><time>2026-05-01T11:33:08.778Z</time></trkpt><trkpt lat="42.7403332" lon="13.5846593"><ele>836.75</ele><time>2026-05-01T11:33:09.778Z</time></trkpt><trkpt lat="42.7404946" lon="13.5846822"><ele>840.0</ele><time>2026-05-01T11:33:10.778Z</time></trkpt><trkpt lat="42.7406495" lon="13.5846968"><ele>840.0</ele><time>2026-05-01T11:33:11.777Z</time></trkpt><trkpt lat="42.7407865" lon="13.5847258"><ele>840.0</ele><time>2026-05-01T11:33:12.777Z</time></trkpt><trkpt lat="42.7409188" lon="13.5847984"><ele>840.0</ele><time>2026-05-01T11:33:13.776Z</time></trkpt><trkpt lat="42.7410437" lon="13.5849033"><ele>840.0</ele><time>2026-05-01T11:33:14.776Z</time></trkpt><trkpt lat="42.7411747" lon="13.585"><ele>838.3333333333333</ele><time>2026-05-01T11:33:15.777Z</time></trkpt><trkpt lat="42.7413302" lon="13.5850604"><ele>836.6666666666666</ele><time>2026-05-01T11:33:16.777Z</time></trkpt><trkpt lat="42.7414935" lon="13.5850866"><ele>835.0</ele><time>2026-05-01T11:33:17.776Z</time></trkpt><trkpt lat="42.7416612" lon="13.585109"><ele>835.0</ele><time>2026-05-01T11:33:18.776Z</time></trkpt><trkpt lat="42.7418318" lon="13.5851614"><ele>835.0</ele><time>2026-05-01T11:33:19.776Z</time></trkpt><trkpt lat="42.7419901" lon="13.5852314"><ele>835.0</ele><time>2026-05-01T11:33:20.776Z</time></trkpt><trkpt lat="42.7421315" lon="13.5853019"><ele>837.0</ele><time>2026-05-01T11:33:21.775Z</time></trkpt><trkpt lat="42.7422599" lon="13.5853604"><ele>839.0</ele><time>2026-05-01T11:33:22.775Z</time></trkpt><trkpt lat="42.742366" lon="13.5854107"><ele>841.0</ele><time>2026-05-01T11:33:23.776Z</time></trkpt><trkpt lat="42.7424541" lon="13.5854662"><ele>843.0</ele><time>2026-05-01T11:33:24.776Z</time></trkpt><trkpt lat="42.74252" lon="13.5855321"><ele>845.0</ele><time>2026-05-01T11:33:25.776Z</time></trkpt><trkpt lat="42.742551" lon="13.5856158"><ele>845.0</ele><time>2026-05-01T11:33:26.777Z</time></trkpt><trkpt lat="42.7424865" lon="13.5857392"><ele>845.0</ele><time>2026-05-01T11:33:28.775Z</time></trkpt><trkpt lat="42.7424021" lon="13.5857472"><ele>845.0</ele><time>2026-05-01T11:33:29.776Z</time></trkpt><trkpt lat="42.742308" lon="13.5857347"><ele>845.0</ele><time>2026-05-01T11:33:30.776Z</time></trkpt><trkpt lat="42.7422198" lon="13.5857049"><ele>845.0</ele><time>2026-05-01T11:33:31.776Z</time></trkpt><trkpt lat="42.7421393" lon="13.5856937"><ele>845.0</ele><time>2026-05-01T11:33:32.775Z</time></trkpt><trkpt lat="42.7420552" lon="13.585691"><ele>845.0</ele><time>2026-05-01T11:33:33.776Z</time></trkpt><trkpt lat="42.7419603" lon="13.585699"><ele>845.0</ele><time>2026-05-01T11:33:34.775Z</time></trkpt><trkpt lat="42.7418439" lon="13.5857251"><ele>845.0</ele><time>2026-05-01T11:33:35.775Z</time></trkpt><trkpt lat="42.7417068" lon="13.5857544"><ele>845.0</ele><time>2026-05-01T11:33:36.777Z</time></trkpt><trkpt lat="42.7415511" lon="13.5857687"><ele>849.3333333333334</ele><time>2026-05-01T11:33:37.777Z</time></trkpt><trkpt lat="42.7413692" lon="13.5857665"><ele>853.6666666666667</ele><time>2026-05-01T11:33:38.776Z</time></trkpt><trkpt lat="42.741182" lon="13.5857559"><ele>858.0</ele><time>2026-05-01T11:33:39.776Z</time></trkpt><trkpt lat="42.7409767" lon="13.5857479"><ele>860.3333333333333</ele><time>2026-05-01T11:33:40.775Z</time></trkpt><trkpt lat="42.7407834" lon="13.5857476"><ele>862.6666666666666</ele><time>2026-05-01T11:33:41.775Z</time></trkpt><trkpt lat="42.7406048" lon="13.5857416"><ele>865.0</ele><time>2026-05-01T11:33:42.777Z</time></trkpt><trkpt lat="42.740447" lon="13.5857299"><ele>865.0</ele><time>2026-05-01T11:33:43.776Z</time></trkpt><trkpt lat="42.7403181" lon="13.585721"><ele>865.0</ele><time>2026-05-01T11:33:44.776Z</time></trkpt><trkpt lat="42.7402162" lon="13.5857225"><ele>865.0</ele><time>2026-05-01T11:33:45.777Z</time></trkpt><trkpt lat="42.7401343" lon="13.5857328"><ele>865.0</ele><time>2026-05-01T11:33:46.775Z</time></trkpt><trkpt lat="42.7400749" lon="13.5857756"><ele>865.0</ele><time>2026-05-01T11:33:47.776Z</time></trkpt><trkpt lat="42.7400668" lon="13.5859306"><ele>865.0</ele><time>2026-05-01T11:33:49.775Z</time></trkpt><trkpt lat="42.7401248" lon="13.5859913"><ele>865.0</ele><time>2026-05-01T11:33:50.776Z</time></trkpt><trkpt lat="42.740215" lon="13.5860181"><ele>865.0</ele><time>2026-05-01T11:33:51.775Z</time></trkpt><trkpt lat="42.7403302" lon="13.5860178"><ele>865.0</ele><time>2026-05-01T11:33:52.775Z</time></trkpt><trkpt lat="42.7404626" lon="13.5860114"><ele>865.0</ele><time>2026-05-01T11:33:53.776Z</time></trkpt><trkpt lat="42.7405973" lon="13.586033"><ele>865.0</ele><time>2026-05-01T11:33:54.776Z</time></trkpt><trkpt lat="42.740739" lon="13.5860814"><ele>865.0</ele><time>2026-05-01T11:33:55.776Z</time></trkpt><trkpt lat="42.7408832" lon="13.5861466"><ele>865.0</ele><time>2026-05-01T11:33:56.776Z</time></trkpt><trkpt lat="42.7410219" lon="13.5862051"><ele>865.0</ele><time>2026-05-01T11:33:57.776Z</time></trkpt><trkpt lat="42.7411603" lon="13.58627"><ele>868.75</ele><time>2026-05-01T11:33:58.777Z</time></trkpt><trkpt lat="42.7412851" lon="13.5863313"><ele>872.5</ele><time>2026-05-01T11:33:59.776Z</time></trkpt><trkpt lat="42.7414042" lon="13.586385"><ele>876.25</ele><time>2026-05-01T11:34:00.776Z</time></trkpt><trkpt lat="42.7415093" lon="13.5864415"><ele>880.0</ele><time>2026-05-01T11:34:01.777Z</time></trkpt><trkpt lat="42.7416055" lon="13.5865204"><ele>880.0</ele><time>2026-05-01T11:34:02.775Z</time></trkpt><trkpt lat="42.7416847" lon="13.5866276"><ele>880.0</ele><time>2026-05-01T11:34:03.776Z</time></trkpt><trkpt lat="42.741744" lon="13.586753"><ele>880.0</ele><time>2026-05-01T11:34:04.776Z</time></trkpt><trkpt lat="42.7417774" lon="13.5868983"><ele>880.0</ele><time>2026-05-01T11:34:05.777Z</time></trkpt><trkpt lat="42.7417785" lon="13.5870514"><ele>880.0</ele><time>2026-05-01T11:34:06.776Z</time></trkpt><trkpt lat="42.7417448" lon="13.587219"><ele>881.6666666666666</ele><time>2026-05-01T11:34:07.776Z</time></trkpt><trkpt lat="42.7416736" lon="13.5873896"><ele>883.3333333333333</ele><time>2026-05-01T11:34:08.776Z</time></trkpt><trkpt lat="42.7415941" lon="13.5875748"><ele>885.0</ele><time>2026-05-01T11:34:09.776Z</time></trkpt><trkpt lat="42.7415136" lon="13.5877647"><ele>882.3333333333333</ele><time>2026-05-01T11:34:10.776Z</time></trkpt><trkpt lat="42.7414174" lon="13.587962"><ele>879.6666666666666</ele><time>2026-05-01T11:34:11.776Z</time></trkpt><trkpt lat="42.7413207" lon="13.5881424"><ele>877.0</ele><time>2026-05-01T11:34:12.776Z</time></trkpt><trkpt lat="42.7412313" lon="13.5883106"><ele>877.0</ele><time>2026-05-01T11:34:13.776Z</time></trkpt><trkpt lat="42.741146" lon="13.5884786"><ele>877.0</ele><time>2026-05-01T11:34:14.775Z</time></trkpt><trkpt lat="42.74107" lon="13.5886433"><ele>877.0</ele><time>2026-05-01T11:34:15.776Z</time></trkpt><trkpt lat="42.7410119" lon="13.5888194"><ele>877.0</ele><time>2026-05-01T11:34:16.777Z</time></trkpt><trkpt lat="42.7409605" lon="13.5890036"><ele>883.25</ele><time>2026-05-01T11:34:17.776Z</time></trkpt><trkpt lat="42.7409156" lon="13.5891753"><ele>889.5</ele><time>2026-05-01T11:34:18.777Z</time></trkpt><trkpt lat="42.7408669" lon="13.5893352"><ele>895.75</ele><time>2026-05-01T11:34:19.776Z</time></trkpt><trkpt lat="42.7408372" lon="13.589476"><ele>902.0</ele><time>2026-05-01T11:34:20.776Z</time></trkpt><trkpt lat="42.7408335" lon="13.5895998"><ele>902.6</ele><time>2026-05-01T11:34:21.775Z</time></trkpt><trkpt lat="42.7408546" lon="13.5897152"><ele>903.2</ele><time>2026-05-01T11:34:22.775Z</time></trkpt><trkpt lat="42.740878" lon="13.5898283"><ele>903.8</ele><time>2026-05-01T11:34:23.777Z</time></trkpt><trkpt lat="42.740999" lon="13.5899276"><ele>904.4</ele><time>2026-05-01T11:34:24.776Z</time></trkpt><trkpt lat="42.7410941" lon="13.5900396"><ele>905.0</ele><time>2026-05-01T11:34:25.775Z</time></trkpt><trkpt lat="42.7411977" lon="13.5901442"><ele>907.5</ele><time>2026-05-01T11:34:26.776Z</time></trkpt><trkpt lat="42.7412947" lon="13.5902495"><ele>910.0</ele><time>2026-05-01T11:34:27.776Z</time></trkpt><trkpt lat="42.741398" lon="13.5903489"><ele>912.5</ele><time>2026-05-01T11:34:28.775Z</time></trkpt><trkpt lat="42.7415035" lon="13.5904393"><ele>915.0</ele><time>2026-05-01T11:34:29.777Z</time></trkpt><trkpt lat="42.741618" lon="13.5905076"><ele>915.0</ele><time>2026-05-01T11:34:30.775Z</time></trkpt><trkpt lat="42.7417467" lon="13.5905395"><ele>915.0</ele><time>2026-05-01T11:34:31.775Z</time></trkpt><trkpt lat="42.741894" lon="13.5905452"><ele>915.0</ele><time>2026-05-01T11:34:32.775Z</time></trkpt><trkpt lat="42.7420464" lon="13.5905321"><ele>915.0</ele><time>2026-05-01T11:34:33.776Z</time></trkpt><trkpt lat="42.7421918" lon="13.5905088"><ele>914.75</ele><time>2026-05-01T11:34:34.776Z</time></trkpt><trkpt lat="42.7423277" lon="13.5904835"><ele>914.5</ele><time>2026-05-01T11:34:35.776Z</time></trkpt><trkpt lat="42.7424524" lon="13.5904507"><ele>914.25</ele><time>2026-05-01T11:34:36.775Z</time></trkpt><trkpt lat="42.7425619" lon="13.5904143"><ele>914.0</ele><time>2026-05-01T11:34:37.776Z</time></trkpt><trkpt lat="42.7426544" lon="13.590402"><ele>914.0000000000001</ele><time>2026-05-01T11:34:38.776Z</time></trkpt><trkpt lat="42.7427296" lon="13.5904376"><ele>914.0</ele><time>2026-05-01T11:34:39.776Z</time></trkpt><trkpt lat="42.7427764" lon="13.5905091"><ele>914.0</ele><time>2026-05-01T11:34:40.776Z</time></trkpt><trkpt lat="42.7427887" lon="13.5906078"><ele>914.0</ele><time>2026-05-01T11:34:41.777Z</time></trkpt><trkpt lat="42.7427612" lon="13.590718"><ele>914.0000000000001</ele><time>2026-05-01T11:34:42.776Z</time></trkpt><trkpt lat="42.742729" lon="13.590872"><ele>914.0</ele><time>2026-05-01T11:34:43.776Z</time></trkpt><trkpt lat="42.7427126" lon="13.5910606"><ele>920.6666666666667</ele><time>2026-05-01T11:34:44.776Z</time></trkpt><trkpt lat="42.7426872" lon="13.5914689"><ele>927.3333333333333</ele><time>2026-05-01T11:34:46.775Z</time></trkpt><trkpt lat="42.7426755" lon="13.5916674"><ele>934.0</ele><time>2026-05-01T11:34:47.775Z</time></trkpt><trkpt lat="42.7426654" lon="13.5918469"><ele>934.75</ele><time>2026-05-01T11:34:48.777Z</time></trkpt><trkpt lat="42.7426808" lon="13.5920084"><ele>935.5</ele><time>2026-05-01T11:34:49.777Z</time></trkpt><trkpt lat="42.742722" lon="13.5921601"><ele>936.25</ele><time>2026-05-01T11:34:50.776Z</time></trkpt><trkpt lat="42.7427864" lon="13.5922909"><ele>937.0</ele><time>2026-05-01T11:34:51.777Z</time></trkpt><trkpt lat="42.742849" lon="13.5924113"><ele>925.4000000000001</ele><time>2026-05-01T11:34:52.776Z</time></trkpt><trkpt lat="42.7428954" lon="13.5925329"><ele>913.8000000000001</ele><time>2026-05-01T11:34:53.776Z</time></trkpt><trkpt lat="42.7429182" lon="13.592662"><ele>902.2</ele><time>2026-05-01T11:34:54.776Z</time></trkpt><trkpt lat="42.7429252" lon="13.5928063"><ele>890.6</ele><time>2026-05-01T11:34:55.775Z</time></trkpt><trkpt lat="42.7429318" lon="13.5929621"><ele>879.0</ele><time>2026-05-01T11:34:56.775Z</time></trkpt><trkpt lat="42.742959" lon="13.5931098"><ele>879.0</ele><time>2026-05-01T11:34:57.776Z</time></trkpt><trkpt lat="42.7430025" lon="13.5932529"><ele>879.0000000000001</ele><time>2026-05-01T11:34:58.776Z</time></trkpt><trkpt lat="42.7430336" lon="13.5933873"><ele>879.0000000000001</ele><time>2026-05-01T11:34:59.776Z</time></trkpt><trkpt lat="42.7430328" lon="13.5935166"><ele>879.0</ele><time>2026-05-01T11:35:00.776Z</time></trkpt><trkpt lat="42.7430022" lon="13.5936507"><ele>879.0</ele><time>2026-05-01T11:35:01.775Z</time></trkpt><trkpt lat="42.7429463" lon="13.5937894"><ele>880.75</ele><time>2026-05-01T11:35:02.775Z</time></trkpt><trkpt lat="42.7428949" lon="13.5939349"><ele>882.5</ele><time>2026-05-01T11:35:03.775Z</time></trkpt><trkpt lat="42.7428791" lon="13.5941272"><ele>884.25</ele><time>2026-05-01T11:35:04.776Z</time></trkpt><trkpt lat="42.7428957" lon="13.594292"><ele>886.0</ele><time>2026-05-01T11:35:05.776Z</time></trkpt><trkpt lat="42.7428837" lon="13.5944375"><ele>884.5</ele><time>2026-05-01T11:35:06.776Z</time></trkpt><trkpt lat="42.7428528" lon="13.5945574"><ele>883.0</ele><time>2026-05-01T11:35:07.775Z</time></trkpt><trkpt lat="42.7427825" lon="13.5946683"><ele>881.5</ele><time>2026-05-01T11:35:08.777Z</time></trkpt><trkpt lat="42.7426937" lon="13.5947808"><ele>880.0</ele><time>2026-05-01T11:35:09.776Z</time></trkpt><trkpt lat="42.7426006" lon="13.5949027"><ele>888.0</ele><time>2026-05-01T11:35:10.777Z</time></trkpt><trkpt lat="42.7425142" lon="13.5950142"><ele>896.0</ele><time>2026-05-01T11:35:11.777Z</time></trkpt><trkpt lat="42.7424264" lon="13.5951056"><ele>904.0</ele><time>2026-05-01T11:35:12.776Z</time></trkpt><trkpt lat="42.7423259" lon="13.5951627"><ele>912.0</ele><time>2026-05-01T11:35:13.777Z</time></trkpt><trkpt lat="42.7422048" lon="13.5951875"><ele>912.0</ele><time>2026-05-01T11:35:14.777Z</time></trkpt><trkpt lat="42.7420842" lon="13.5951966"><ele>912.0</ele><time>2026-05-01T11:35:15.776Z</time></trkpt><trkpt lat="42.7419685" lon="13.595248"><ele>912.0</ele><time>2026-05-01T11:35:16.776Z</time></trkpt><trkpt lat="42.7418558" lon="13.5953438"><ele>912.0</ele><time>2026-05-01T11:35:17.775Z</time></trkpt><trkpt lat="42.7417569" lon="13.5954529"><ele>909.0</ele><time>2026-05-01T11:35:18.777Z</time></trkpt><trkpt lat="42.7416512" lon="13.5955426"><ele>906.0</ele><time>2026-05-01T11:35:19.777Z</time></trkpt><trkpt lat="42.7415298" lon="13.5956037"><ele>903.0</ele><time>2026-05-01T11:35:20.777Z</time></trkpt><trkpt lat="42.741388" lon="13.5956364"><ele>900.0</ele><time>2026-05-01T11:35:21.777Z</time></trkpt><trkpt lat="42.7412547" lon="13.5957089"><ele>900.0</ele><time>2026-05-01T11:35:22.777Z</time></trkpt><trkpt lat="42.7411218" lon="13.5957788"><ele>900.0</ele><time>2026-05-01T11:35:23.776Z</time></trkpt><trkpt lat="42.7409995" lon="13.5958979"><ele>900.0</ele><time>2026-05-01T11:35:24.776Z</time></trkpt><trkpt lat="42.7408652" lon="13.5960423"><ele>899.3333333333333</ele><time>2026-05-01T11:35:25.776Z</time></trkpt><trkpt lat="42.7407457" lon="13.5962106"><ele>898.6666666666666</ele><time>2026-05-01T11:35:26.776Z</time></trkpt><trkpt lat="42.7406235" lon="13.5963894"><ele>898.0</ele><time>2026-05-01T11:35:27.775Z</time></trkpt><trkpt lat="42.740512" lon="13.5965744"><ele>898.0</ele><time>2026-05-01T11:35:28.775Z</time></trkpt><trkpt lat="42.7404014" lon="13.5967501"><ele>898.0</ele><time>2026-05-01T11:35:29.775Z</time></trkpt><trkpt lat="42.7402953" lon="13.5969206"><ele>898.0</ele><time>2026-05-01T11:35:30.775Z</time></trkpt><trkpt lat="42.7401892" lon="13.5970646"><ele>897.0</ele><time>2026-05-01T11:35:31.775Z</time></trkpt><trkpt lat="42.7400613" lon="13.5971819"><ele>896.0</ele><time>2026-05-01T11:35:32.776Z</time></trkpt><trkpt lat="42.7399363" lon="13.5972795"><ele>895.0</ele><time>2026-05-01T11:35:33.776Z</time></trkpt><trkpt lat="42.7398042" lon="13.5973595"><ele>894.0</ele><time>2026-05-01T11:35:34.776Z</time></trkpt><trkpt lat="42.7396699" lon="13.5974283"><ele>894.0</ele><time>2026-05-01T11:35:35.777Z</time></trkpt><trkpt lat="42.7395414" lon="13.5974935"><ele>894.0</ele><time>2026-05-01T11:35:36.776Z</time></trkpt><trkpt lat="42.7394167" lon="13.5975597"><ele>894.0</ele><time>2026-05-01T11:35:37.776Z</time></trkpt><trkpt lat="42.7393137" lon="13.597628"><ele>894.0</ele><time>2026-05-01T11:35:38.777Z</time></trkpt><trkpt lat="42.7392332" lon="13.5977034"><ele>894.5</ele><time>2026-05-01T11:35:39.777Z</time></trkpt><trkpt lat="42.7391802" lon="13.5977927"><ele>895.0</ele><time>2026-05-01T11:35:40.776Z</time></trkpt><trkpt lat="42.7391668" lon="13.5979013"><ele>895.5</ele><time>2026-05-01T11:35:41.777Z</time></trkpt><trkpt lat="42.7391779" lon="13.5980096"><ele>896.0</ele><time>2026-05-01T11:35:42.777Z</time></trkpt><trkpt lat="42.7392311" lon="13.5981038"><ele>896.5</ele><time>2026-05-01T11:35:43.775Z</time></trkpt><trkpt lat="42.7393213" lon="13.5981711"><ele>897.0</ele><time>2026-05-01T11:35:44.776Z</time></trkpt><trkpt lat="42.7394361" lon="13.5982185"><ele>897.0</ele><time>2026-05-01T11:35:45.777Z</time></trkpt><trkpt lat="42.73957" lon="13.5982765"><ele>897.0</ele><time>2026-05-01T11:35:46.776Z</time></trkpt><trkpt lat="42.7397207" lon="13.5983671"><ele>897.0</ele><time>2026-05-01T11:35:47.775Z</time></trkpt><trkpt lat="42.7398767" lon="13.5984752"><ele>897.0</ele><time>2026-05-01T11:35:48.777Z</time></trkpt><trkpt lat="42.7400469" lon="13.5985778"><ele>897.0</ele><time>2026-05-01T11:35:49.775Z</time></trkpt><trkpt lat="42.7402244" lon="13.5986778"><ele>897.0</ele><time>2026-05-01T11:35:50.777Z</time></trkpt><trkpt lat="42.7404221" lon="13.5987468"><ele>905.3333333333333</ele><time>2026-05-01T11:35:51.776Z</time></trkpt><trkpt lat="42.7406099" lon="13.5987489"><ele>913.6666666666666</ele><time>2026-05-01T11:35:52.777Z</time></trkpt><trkpt lat="42.7407706" lon="13.5987708"><ele>922.0</ele><time>2026-05-01T11:35:53.777Z</time></trkpt><trkpt lat="42.7409196" lon="13.5987853"><ele>915.3333333333333</ele><time>2026-05-01T11:35:54.776Z</time></trkpt><trkpt lat="42.7411567" lon="13.5988458"><ele>908.6666666666667</ele><time>2026-05-01T11:35:56.776Z</time></trkpt><trkpt lat="42.7412488" lon="13.5989306"><ele>902.0</ele><time>2026-05-01T11:35:57.776Z</time></trkpt><trkpt lat="42.7413231" lon="13.5990438"><ele>902.0</ele><time>2026-05-01T11:35:58.775Z</time></trkpt><trkpt lat="42.7413858" lon="13.5991973"><ele>902.0</ele><time>2026-05-01T11:35:59.776Z</time></trkpt><trkpt lat="42.7414723" lon="13.5993394"><ele>902.0</ele><time>2026-05-01T11:36:00.776Z</time></trkpt><trkpt lat="42.741596" lon="13.5994494"><ele>902.0</ele><time>2026-05-01T11:36:01.775Z</time></trkpt><trkpt lat="42.7417376" lon="13.5995289"><ele>903.5</ele><time>2026-05-01T11:36:02.775Z</time></trkpt><trkpt lat="42.7418748" lon="13.5995973"><ele>905.0</ele><time>2026-05-01T11:36:03.775Z</time></trkpt><trkpt lat="42.7419969" lon="13.5996641"><ele>906.5</ele><time>2026-05-01T11:36:04.775Z</time></trkpt><trkpt lat="42.7420924" lon="13.5997254"><ele>908.0</ele><time>2026-05-01T11:36:05.775Z</time></trkpt><trkpt lat="42.742167" lon="13.5997998"><ele>908.0000000000001</ele><time>2026-05-01T11:36:06.775Z</time></trkpt><trkpt lat="42.7422176" lon="13.5999003"><ele>908.0</ele><time>2026-05-01T11:36:07.776Z</time></trkpt><trkpt lat="42.7422419" lon="13.6000185"><ele>908.0</ele><time>2026-05-01T11:36:08.775Z</time></trkpt><trkpt lat="42.7422402" lon="13.6001328"><ele>908.0</ele><time>2026-05-01T11:36:09.776Z</time></trkpt><trkpt lat="42.7422049" lon="13.6002335"><ele>908.0000000000001</ele><time>2026-05-01T11:36:10.776Z</time></trkpt><trkpt lat="42.7421538" lon="13.600352"><ele>908.0</ele><time>2026-05-01T11:36:11.776Z</time></trkpt><trkpt lat="42.7420914" lon="13.6004884"><ele>908.75</ele><time>2026-05-01T11:36:12.776Z</time></trkpt><trkpt lat="42.7420211" lon="13.6006383"><ele>909.5</ele><time>2026-05-01T11:36:13.777Z</time></trkpt><trkpt lat="42.7419462" lon="13.6008041"><ele>910.25</ele><time>2026-05-01T11:36:14.775Z</time></trkpt><trkpt lat="42.7418696" lon="13.600979"><ele>911.0</ele><time>2026-05-01T11:36:15.776Z</time></trkpt><trkpt lat="42.7417895" lon="13.6011669"><ele>911.0</ele><time>2026-05-01T11:36:16.776Z</time></trkpt><trkpt lat="42.7417171" lon="13.6013596"><ele>911.0</ele><time>2026-05-01T11:36:17.777Z</time></trkpt><trkpt lat="42.7416476" lon="13.6015448"><ele>911.0</ele><time>2026-05-01T11:36:18.776Z</time></trkpt><trkpt lat="42.7415815" lon="13.6017321"><ele>911.0</ele><time>2026-05-01T11:36:19.776Z</time></trkpt><trkpt lat="42.7415312" lon="13.6019204"><ele>911.0</ele><time>2026-05-01T11:36:20.776Z</time></trkpt><trkpt lat="42.7415009" lon="13.6021184"><ele>911.0</ele><time>2026-05-01T11:36:21.776Z</time></trkpt><trkpt lat="42.7414893" lon="13.6023133"><ele>911.0</ele><time>2026-05-01T11:36:22.775Z</time></trkpt><trkpt lat="42.741474" lon="13.6025021"><ele>907.5</ele><time>2026-05-01T11:36:23.776Z</time></trkpt><trkpt lat="42.7414348" lon="13.6026732"><ele>904.0</ele><time>2026-05-01T11:36:24.776Z</time></trkpt><trkpt lat="42.7413748" lon="13.6028438"><ele>900.5</ele><time>2026-05-01T11:36:25.776Z</time></trkpt><trkpt lat="42.7413236" lon="13.6030103"><ele>897.0</ele><time>2026-05-01T11:36:26.775Z</time></trkpt><trkpt lat="42.7413045" lon="13.6031775"><ele>895.0</ele><time>2026-05-01T11:36:27.776Z</time></trkpt><trkpt lat="42.7413101" lon="13.6033486"><ele>893.0</ele><time>2026-05-01T11:36:28.775Z</time></trkpt><trkpt lat="42.741346" lon="13.6035268"><ele>891.0</ele><time>2026-05-01T11:36:29.776Z</time></trkpt><trkpt lat="42.7414049" lon="13.6037155"><ele>889.0</ele><time>2026-05-01T11:36:30.776Z</time></trkpt><trkpt lat="42.741474" lon="13.6038928"><ele>889.0</ele><time>2026-05-01T11:36:31.776Z</time></trkpt><trkpt lat="42.7415442" lon="13.6040594"><ele>889.0</ele><time>2026-05-01T11:36:32.776Z</time></trkpt><trkpt lat="42.741619" lon="13.6042152"><ele>889.0</ele><time>2026-05-01T11:36:33.776Z</time></trkpt><trkpt lat="42.7416992" lon="13.6043481"><ele>889.0</ele><time>2026-05-01T11:36:34.775Z</time></trkpt><trkpt lat="42.7417663" lon="13.6044616"><ele>889.8000000000001</ele><time>2026-05-01T11:36:35.777Z</time></trkpt><trkpt lat="42.741809" lon="13.6045854"><ele>890.6000000000001</ele><time>2026-05-01T11:36:36.777Z</time></trkpt><trkpt lat="42.7418095" lon="13.6047193"><ele>891.4</ele><time>2026-05-01T11:36:37.776Z</time></trkpt><trkpt lat="42.7417706" lon="13.6048476"><ele>892.2</ele><time>2026-05-01T11:36:38.775Z</time></trkpt><trkpt lat="42.7416838" lon="13.6049706"><ele>893.0</ele><time>2026-05-01T11:36:39.775Z</time></trkpt><trkpt lat="42.7415904" lon="13.6051168"><ele>893.0</ele><time>2026-05-01T11:36:40.776Z</time></trkpt><trkpt lat="42.7414967" lon="13.6052692"><ele>893.0</ele><time>2026-05-01T11:36:41.776Z</time></trkpt><trkpt lat="42.741427" lon="13.605451"><ele>893.0</ele><time>2026-05-01T11:36:42.777Z</time></trkpt><trkpt lat="42.7413637" lon="13.6056184"><ele>893.0</ele><time>2026-05-01T11:36:43.776Z</time></trkpt><trkpt lat="42.7413255" lon="13.6057781"><ele>893.0</ele><time>2026-05-01T11:36:44.775Z</time></trkpt><trkpt lat="42.7412917" lon="13.6059242"><ele>893.0</ele><time>2026-05-01T11:36:45.777Z</time></trkpt><trkpt lat="42.7412816" lon="13.606067"><ele>893.0</ele><time>2026-05-01T11:36:46.776Z</time></trkpt><trkpt lat="42.7413026" lon="13.6062132"><ele>893.0</ele><time>2026-05-01T11:36:47.776Z</time></trkpt><trkpt lat="42.7413622" lon="13.6063452"><ele>893.0</ele><time>2026-05-01T11:36:48.776Z</time></trkpt><trkpt lat="42.7414663" lon="13.6064676"><ele>893.0</ele><time>2026-05-01T11:36:49.775Z</time></trkpt><trkpt lat="42.7416063" lon="13.6065687"><ele>893.0</ele><time>2026-05-01T11:36:50.776Z</time></trkpt><trkpt lat="42.7417559" lon="13.6066549"><ele>893.0</ele><time>2026-05-01T11:36:51.775Z</time></trkpt><trkpt lat="42.7419055" lon="13.6067489"><ele>895.6666666666667</ele><time>2026-05-01T11:36:52.777Z</time></trkpt><trkpt lat="42.7420553" lon="13.6068498"><ele>898.3333333333333</ele><time>2026-05-01T11:36:53.777Z</time></trkpt><trkpt lat="42.7422098" lon="13.60695"><ele>901.0</ele><time>2026-05-01T11:36:54.775Z</time></trkpt><trkpt lat="42.74236" lon="13.6070278"><ele>901.0</ele><time>2026-05-01T11:36:55.775Z</time></trkpt><trkpt lat="42.7425088" lon="13.6070918"><ele>901.0</ele><time>2026-05-01T11:36:56.776Z</time></trkpt><trkpt lat="42.7426536" lon="13.6071548"><ele>901.0</ele><time>2026-05-01T11:36:57.776Z</time></trkpt><trkpt lat="42.7428001" lon="13.6072383"><ele>889.5</ele><time>2026-05-01T11:36:58.776Z</time></trkpt><trkpt lat="42.7429292" lon="13.6073393"><ele>878.0</ele><time>2026-05-01T11:36:59.775Z</time></trkpt><trkpt lat="42.7430446" lon="13.6074439"><ele>866.5</ele><time>2026-05-01T11:37:00.774Z</time></trkpt><trkpt lat="42.7431524" lon="13.6075625"><ele>855.0</ele><time>2026-05-01T11:37:01.774Z</time></trkpt><trkpt lat="42.7432456" lon="13.6076964"><ele>864.5</ele><time>2026-05-01T11:37:02.776Z</time></trkpt><trkpt lat="42.7433173" lon="13.6078477"><ele>874.0</ele><time>2026-05-01T11:37:03.776Z</time></trkpt><trkpt lat="42.7433974" lon="13.6080376"><ele>883.5</ele><time>2026-05-01T11:37:04.775Z</time></trkpt><trkpt lat="42.7434661" lon="13.6082247"><ele>893.0</ele><time>2026-05-01T11:37:05.776Z</time></trkpt><trkpt lat="42.7435152" lon="13.6084111"><ele>873.0</ele><time>2026-05-01T11:37:06.775Z</time></trkpt><trkpt lat="42.7435791" lon="13.6086218"><ele>853.0</ele><time>2026-05-01T11:37:07.775Z</time></trkpt><trkpt lat="42.7436319" lon="13.6088246"><ele>833.0</ele><time>2026-05-01T11:37:08.774Z</time></trkpt><trkpt lat="42.7437003" lon="13.6090001"><ele>833.0</ele><time>2026-05-01T11:37:09.774Z</time></trkpt><trkpt lat="42.7438267" lon="13.6091449"><ele>833.0</ele><time>2026-05-01T11:37:10.774Z</time></trkpt><trkpt lat="42.7438979" lon="13.6092792"><ele>833.0</ele><time>2026-05-01T11:37:11.775Z</time></trkpt><trkpt lat="42.7439301" lon="13.6094333"><ele>833.0</ele><time>2026-05-01T11:37:12.774Z</time></trkpt><trkpt lat="42.7439331" lon="13.6096059"><ele>836.75</ele><time>2026-05-01T11:37:13.775Z</time></trkpt><trkpt lat="42.743925" lon="13.6097997"><ele>840.5</ele><time>2026-05-01T11:37:14.775Z</time></trkpt><trkpt lat="42.74391" lon="13.6099955"><ele>844.25</ele><time>2026-05-01T11:37:15.775Z</time></trkpt><trkpt lat="42.743911" lon="13.6101905"><ele>848.0</ele><time>2026-05-01T11:37:16.774Z</time></trkpt><trkpt lat="42.7439236" lon="13.6103871"><ele>849.75</ele><time>2026-05-01T11:37:17.775Z</time></trkpt><trkpt lat="42.7439712" lon="13.6105825"><ele>851.5</ele><time>2026-05-01T11:37:18.774Z</time></trkpt><trkpt lat="42.7440248" lon="13.6107723"><ele>853.25</ele><time>2026-05-01T11:37:19.774Z</time></trkpt><trkpt lat="42.74408" lon="13.6109579"><ele>855.0</ele><time>2026-05-01T11:37:20.775Z</time></trkpt><trkpt lat="42.7441582" lon="13.6111342"><ele>861.25</ele><time>2026-05-01T11:37:21.774Z</time></trkpt><trkpt lat="42.7442575" lon="13.6113018"><ele>867.5</ele><time>2026-05-01T11:37:22.775Z</time></trkpt><trkpt lat="42.7443516" lon="13.6114657"><ele>873.75</ele><time>2026-05-01T11:37:23.775Z</time></trkpt><trkpt lat="42.7444377" lon="13.6115988"><ele>880.0</ele><time>2026-05-01T11:37:24.776Z</time></trkpt><trkpt lat="42.7445349" lon="13.6117372"><ele>867.0</ele><time>2026-05-01T11:37:25.774Z</time></trkpt><trkpt lat="42.7446612" lon="13.6118097"><ele>854.0</ele><time>2026-05-01T11:37:26.775Z</time></trkpt><trkpt lat="42.744766" lon="13.611884"><ele>841.0</ele><time>2026-05-01T11:37:27.775Z</time></trkpt><trkpt lat="42.7448983" lon="13.611936"><ele>828.0</ele><time>2026-05-01T11:37:28.775Z</time></trkpt><trkpt lat="42.7450267" lon="13.6119669"><ele>827.5999999999999</ele><time>2026-05-01T11:37:29.775Z</time></trkpt><trkpt lat="42.7451475" lon="13.6120029"><ele>827.1999999999999</ele><time>2026-05-01T11:37:30.774Z</time></trkpt><trkpt lat="42.7452568" lon="13.6120271"><ele>826.8</ele><time>2026-05-01T11:37:31.775Z</time></trkpt><trkpt lat="42.7453561" lon="13.6120759"><ele>826.4</ele><time>2026-05-01T11:37:32.775Z</time></trkpt><trkpt lat="42.7454288" lon="13.6121808"><ele>826.0</ele><time>2026-05-01T11:37:33.775Z</time></trkpt><trkpt lat="42.7454669" lon="13.6122855"><ele>826.0</ele><time>2026-05-01T11:37:34.775Z</time></trkpt><trkpt lat="42.7454813" lon="13.6124131"><ele>826.0</ele><time>2026-05-01T11:37:35.774Z</time></trkpt><trkpt lat="42.7454631" lon="13.6125695"><ele>826.0</ele><time>2026-05-01T11:37:36.776Z</time></trkpt><trkpt lat="42.7454199" lon="13.612737"><ele>826.0</ele><time>2026-05-01T11:37:37.774Z</time></trkpt><trkpt lat="42.7453704" lon="13.6129249"><ele>819.6666666666666</ele><time>2026-05-01T11:37:38.774Z</time></trkpt><trkpt lat="42.7453263" lon="13.6131306"><ele>813.3333333333333</ele><time>2026-05-01T11:37:39.775Z</time></trkpt><trkpt lat="42.745302" lon="13.6133411"><ele>807.0</ele><time>2026-05-01T11:37:40.775Z</time></trkpt><trkpt lat="42.7452901" lon="13.6135713"><ele>802.3333333333333</ele><time>2026-05-01T11:37:41.775Z</time></trkpt><trkpt lat="42.7452767" lon="13.613803"><ele>797.6666666666666</ele><time>2026-05-01T11:37:42.775Z</time></trkpt><trkpt lat="42.7452544" lon="13.6140229"><ele>793.0</ele><time>2026-05-01T11:37:43.774Z</time></trkpt><trkpt lat="42.7452228" lon="13.6142235"><ele>790.5</ele><time>2026-05-01T11:37:44.776Z</time></trkpt><trkpt lat="42.7451881" lon="13.6143946"><ele>788.0</ele><time>2026-05-01T11:37:45.775Z</time></trkpt><trkpt lat="42.7451666" lon="13.6145533"><ele>785.5</ele><time>2026-05-01T11:37:46.775Z</time></trkpt><trkpt lat="42.7451741" lon="13.6147115"><ele>783.0</ele><time>2026-05-01T11:37:47.776Z</time></trkpt><trkpt lat="42.7452136" lon="13.6148655"><ele>783.0</ele><time>2026-05-01T11:37:48.776Z</time></trkpt><trkpt lat="42.7452552" lon="13.6150059"><ele>783.0</ele><time>2026-05-01T11:37:49.775Z</time></trkpt><trkpt lat="42.7452756" lon="13.6151374"><ele>783.0</ele><time>2026-05-01T11:37:50.775Z</time></trkpt><trkpt lat="42.7452674" lon="13.6152651"><ele>783.0</ele><time>2026-05-01T11:37:51.776Z</time></trkpt><trkpt lat="42.7452363" lon="13.6154095"><ele>783.0</ele><time>2026-05-01T11:37:52.776Z</time></trkpt><trkpt lat="42.7452204" lon="13.6155374"><ele>781.2</ele><time>2026-05-01T11:37:53.775Z</time></trkpt><trkpt lat="42.7452427" lon="13.6156822"><ele>779.4</ele><time>2026-05-01T11:37:54.774Z</time></trkpt><trkpt lat="42.7452833" lon="13.6158169"><ele>777.6</ele><time>2026-05-01T11:37:55.775Z</time></trkpt><trkpt lat="42.7453077" lon="13.6159508"><ele>775.8000000000001</ele><time>2026-05-01T11:37:56.776Z</time></trkpt><trkpt lat="42.7453067" lon="13.6161094"><ele>774.0</ele><time>2026-05-01T11:37:57.774Z</time></trkpt><trkpt lat="42.745285" lon="13.6162795"><ele>774.0</ele><time>2026-05-01T11:37:58.775Z</time></trkpt><trkpt lat="42.7452617" lon="13.6164674"><ele>774.0</ele><time>2026-05-01T11:37:59.776Z</time></trkpt><trkpt lat="42.7452445" lon="13.6166634"><ele>774.0</ele><time>2026-05-01T11:38:00.775Z</time></trkpt><trkpt lat="42.7452383" lon="13.6168578"><ele>774.0</ele><time>2026-05-01T11:38:01.775Z</time></trkpt><trkpt lat="42.745251" lon="13.617053"><ele>777.5</ele><time>2026-05-01T11:38:02.774Z</time></trkpt><trkpt lat="42.7452814" lon="13.6172457"><ele>781.0</ele><time>2026-05-01T11:38:03.775Z</time></trkpt><trkpt lat="42.74531" lon="13.6174199"><ele>784.5</ele><time>2026-05-01T11:38:04.774Z</time></trkpt><trkpt lat="42.7453299" lon="13.6175979"><ele>788.0</ele><time>2026-05-01T11:38:05.776Z</time></trkpt><trkpt lat="42.7453293" lon="13.6177842"><ele>791.25</ele><time>2026-05-01T11:38:06.775Z</time></trkpt><trkpt lat="42.7453061" lon="13.6179654"><ele>794.5</ele><time>2026-05-01T11:38:07.775Z</time></trkpt><trkpt lat="42.7452671" lon="13.6181324"><ele>797.75</ele><time>2026-05-01T11:38:08.774Z</time></trkpt><trkpt lat="42.7452348" lon="13.6182811"><ele>801.0</ele><time>2026-05-01T11:38:09.775Z</time></trkpt><trkpt lat="42.7452091" lon="13.6184091"><ele>801.0</ele><time>2026-05-01T11:38:10.775Z</time></trkpt><trkpt lat="42.7452413" lon="13.6185212"><ele>801.0</ele><time>2026-05-01T11:38:11.775Z</time></trkpt><trkpt lat="42.7452611" lon="13.6186307"><ele>801.0</ele><time>2026-05-01T11:38:12.774Z</time></trkpt><trkpt lat="42.7453631" lon="13.6187209"><ele>801.0</ele><time>2026-05-01T11:38:13.775Z</time></trkpt><trkpt lat="42.7454434" lon="13.6188096"><ele>801.0</ele><time>2026-05-01T11:38:14.775Z</time></trkpt><trkpt lat="42.7454979" lon="13.6189383"><ele>801.75</ele><time>2026-05-01T11:38:15.775Z</time></trkpt><trkpt lat="42.7455235" lon="13.619079"><ele>802.5</ele><time>2026-05-01T11:38:16.775Z</time></trkpt><trkpt lat="42.7455304" lon="13.6192467"><ele>803.25</ele><time>2026-05-01T11:38:17.775Z</time></trkpt><trkpt lat="42.7455226" lon="13.6194375"><ele>804.0</ele><time>2026-05-01T11:38:18.775Z</time></trkpt><trkpt lat="42.7455318" lon="13.6196445"><ele>807.0</ele><time>2026-05-01T11:38:19.776Z</time></trkpt><trkpt lat="42.7455629" lon="13.6198567"><ele>810.0</ele><time>2026-05-01T11:38:20.775Z</time></trkpt><trkpt lat="42.7456141" lon="13.6200827"><ele>813.0</ele><time>2026-05-01T11:38:21.776Z</time></trkpt><trkpt lat="42.745656" lon="13.6203208"><ele>817.0</ele><time>2026-05-01T11:38:22.775Z</time></trkpt><trkpt lat="42.7456808" lon="13.6205655"><ele>821.0</ele><time>2026-05-01T11:38:23.776Z</time></trkpt><trkpt lat="42.745714" lon="13.6208152"><ele>825.0</ele><time>2026-05-01T11:38:24.775Z</time></trkpt><trkpt lat="42.7457677" lon="13.6210681"><ele>830.6666666666667</ele><time>2026-05-01T11:38:25.776Z</time></trkpt><trkpt lat="42.7458291" lon="13.6213232"><ele>836.3333333333334</ele><time>2026-05-01T11:38:26.776Z</time></trkpt><trkpt lat="42.745895" lon="13.6215812"><ele>842.0</ele><time>2026-05-01T11:38:27.775Z</time></trkpt><trkpt lat="42.7459735" lon="13.6218324"><ele>831.0</ele><time>2026-05-01T11:38:28.776Z</time></trkpt><trkpt lat="42.7460585" lon="13.6220801"><ele>820.0</ele><time>2026-05-01T11:38:29.775Z</time></trkpt><trkpt lat="42.7461492" lon="13.6223194"><ele>809.0</ele><time>2026-05-01T11:38:30.776Z</time></trkpt><trkpt lat="42.7462517" lon="13.622547"><ele>809.0</ele><time>2026-05-01T11:38:31.775Z</time></trkpt><trkpt lat="42.7463479" lon="13.6227734"><ele>809.0</ele><time>2026-05-01T11:38:32.774Z</time></trkpt><trkpt lat="42.7464543" lon="13.622986"><ele>809.0</ele><time>2026-05-01T11:38:33.775Z</time></trkpt><trkpt lat="42.7465578" lon="13.623185"><ele>810.6666666666667</ele><time>2026-05-01T11:38:34.775Z</time></trkpt><trkpt lat="42.7466686" lon="13.6233703"><ele>812.3333333333333</ele><time>2026-05-01T11:38:35.774Z</time></trkpt><trkpt lat="42.7467784" lon="13.6235335"><ele>814.0</ele><time>2026-05-01T11:38:36.774Z</time></trkpt><trkpt lat="42.7468914" lon="13.6236756"><ele>814.0</ele><time>2026-05-01T11:38:37.775Z</time></trkpt><trkpt lat="42.7470163" lon="13.6237882"><ele>814.0</ele><time>2026-05-01T11:38:38.774Z</time></trkpt><trkpt lat="42.7471406" lon="13.6238789"><ele>814.0</ele><time>2026-05-01T11:38:39.776Z</time></trkpt><trkpt lat="42.7472558" lon="13.6239522"><ele>814.0</ele><time>2026-05-01T11:38:40.776Z</time></trkpt><trkpt lat="42.7473524" lon="13.6240292"><ele>814.0</ele><time>2026-05-01T11:38:41.776Z</time></trkpt><trkpt lat="42.7474248" lon="13.6241315"><ele>814.0</ele><time>2026-05-01T11:38:42.775Z</time></trkpt><trkpt lat="42.7474606" lon="13.6242329"><ele>814.0</ele><time>2026-05-01T11:38:43.775Z</time></trkpt><trkpt lat="42.7474708" lon="13.6243799"><ele>814.0</ele><time>2026-05-01T11:38:45.775Z</time></trkpt><trkpt lat="42.747523" lon="13.6244656"><ele>814.0</ele><time>2026-05-01T11:38:47.774Z</time></trkpt><trkpt lat="42.7475809" lon="13.6245263"><ele>812.4000000000001</ele><time>2026-05-01T11:38:50.775Z</time></trkpt><trkpt lat="42.7474725" lon="13.62449"><ele>810.8</ele><time>2026-05-01T11:47:51.771Z</time></trkpt><trkpt lat="42.7473987" lon="13.6245323"><ele>809.2</ele><time>2026-05-01T11:47:52.772Z</time></trkpt><trkpt lat="42.7473039" lon="13.6245913"><ele>807.5999999999999</ele><time>2026-05-01T11:47:53.77Z</time></trkpt><trkpt lat="42.7471969" lon="13.62465"><ele>806.0</ele><time>2026-05-01T11:47:54.771Z</time></trkpt><trkpt lat="42.7470872" lon="13.6247251"><ele>806.0</ele><time>2026-05-01T11:47:55.771Z</time></trkpt><trkpt lat="42.74699" lon="13.6248148"><ele>806.0</ele><time>2026-05-01T11:47:56.771Z</time></trkpt><trkpt lat="42.7468913" lon="13.6249133"><ele>806.0</ele><time>2026-05-01T11:47:57.771Z</time></trkpt><trkpt lat="42.7467821" lon="13.6250104"><ele>806.0</ele><time>2026-05-01T11:47:58.771Z</time></trkpt><trkpt lat="42.7466605" lon="13.6251021"><ele>803.0</ele><time>2026-05-01T11:47:59.77Z</time></trkpt><trkpt lat="42.7465252" lon="13.6251814"><ele>800.0</ele><time>2026-05-01T11:48:00.77Z</time></trkpt><trkpt lat="42.7463745" lon="13.6252476"><ele>797.0</ele><time>2026-05-01T11:48:01.771Z</time></trkpt><trkpt lat="42.7462164" lon="13.6253231"><ele>797.0</ele><time>2026-05-01T11:48:02.771Z</time></trkpt><trkpt lat="42.7460574" lon="13.625395"><ele>797.0</ele><time>2026-05-01T11:48:03.771Z</time></trkpt><trkpt lat="42.745902" lon="13.6254587"><ele>797.0</ele><time>2026-05-01T11:48:04.77Z</time></trkpt><trkpt lat="42.7457452" lon="13.6255464"><ele>807.0</ele><time>2026-05-01T11:48:05.77Z</time></trkpt><trkpt lat="42.7455998" lon="13.6256644"><ele>817.0</ele><time>2026-05-01T11:48:06.771Z</time></trkpt><trkpt lat="42.7454551" lon="13.6257983"><ele>827.0</ele><time>2026-05-01T11:48:07.771Z</time></trkpt><trkpt lat="42.7453126" lon="13.6259528"><ele>828.3333333333334</ele><time>2026-05-01T11:48:08.77Z</time></trkpt><trkpt lat="42.7451674" lon="13.6261003"><ele>829.6666666666667</ele><time>2026-05-01T11:48:09.771Z</time></trkpt><trkpt lat="42.7450212" lon="13.6262352"><ele>831.0</ele><time>2026-05-01T11:48:10.77Z</time></trkpt><trkpt lat="42.7448806" lon="13.6263685"><ele>831.0</ele><time>2026-05-01T11:48:11.771Z</time></trkpt><trkpt lat="42.7447446" lon="13.6264916"><ele>831.0</ele><time>2026-05-01T11:48:12.771Z</time></trkpt><trkpt lat="42.7446076" lon="13.6266132"><ele>831.0</ele><time>2026-05-01T11:48:13.772Z</time></trkpt><trkpt lat="42.7444703" lon="13.6267346"><ele>829.6666666666667</ele><time>2026-05-01T11:48:14.77Z</time></trkpt><trkpt lat="42.7443412" lon="13.6268548"><ele>828.3333333333334</ele><time>2026-05-01T11:48:15.77Z</time></trkpt><trkpt lat="42.7442134" lon="13.6269747"><ele>827.0</ele><time>2026-05-01T11:48:16.772Z</time></trkpt><trkpt lat="42.7440804" lon="13.6270875"><ele>827.0</ele><time>2026-05-01T11:48:17.771Z</time></trkpt><trkpt lat="42.743937" lon="13.6271866"><ele>827.0</ele><time>2026-05-01T11:48:18.77Z</time></trkpt><trkpt lat="42.7437866" lon="13.6272826"><ele>827.0</ele><time>2026-05-01T11:48:19.77Z</time></trkpt><trkpt lat="42.7436373" lon="13.6273854"><ele>833.3333333333334</ele><time>2026-05-01T11:48:20.771Z</time></trkpt><trkpt lat="42.7434894" lon="13.6275023"><ele>839.6666666666667</ele><time>2026-05-01T11:48:21.772Z</time></trkpt><trkpt lat="42.7433446" lon="13.627614"><ele>846.0</ele><time>2026-05-01T11:48:22.772Z</time></trkpt><trkpt lat="42.7431904" lon="13.627742"><ele>834.3333333333333</ele><time>2026-05-01T11:48:23.772Z</time></trkpt><trkpt lat="42.7430398" lon="13.6278568"><ele>822.6666666666666</ele><time>2026-05-01T11:48:24.772Z</time></trkpt><trkpt lat="42.7428996" lon="13.6279807"><ele>811.0</ele><time>2026-05-01T11:48:25.771Z</time></trkpt><trkpt lat="42.7427602" lon="13.6280883"><ele>821.3333333333333</ele><time>2026-05-01T11:48:26.771Z</time></trkpt><trkpt lat="42.7426277" lon="13.6281936"><ele>831.6666666666667</ele><time>2026-05-01T11:48:27.771Z</time></trkpt><trkpt lat="42.7424972" lon="13.628298"><ele>842.0</ele><time>2026-05-01T11:48:28.772Z</time></trkpt><trkpt lat="42.7423613" lon="13.6284001"><ele>842.0</ele><time>2026-05-01T11:48:29.772Z</time></trkpt><trkpt lat="42.7422167" lon="13.6284917"><ele>842.0</ele><time>2026-05-01T11:48:30.771Z</time></trkpt><trkpt lat="42.7420586" lon="13.6285689"><ele>842.0</ele><time>2026-05-01T11:48:31.77Z</time></trkpt><trkpt lat="42.7418891" lon="13.6286403"><ele>838.0</ele><time>2026-05-01T11:48:32.77Z</time></trkpt><trkpt lat="42.7417197" lon="13.6287245"><ele>834.0</ele><time>2026-05-01T11:48:33.771Z</time></trkpt><trkpt lat="42.7415454" lon="13.6288072"><ele>830.0</ele><time>2026-05-01T11:48:34.771Z</time></trkpt><trkpt lat="42.7413656" lon="13.6288798"><ele>830.0</ele><time>2026-05-01T11:48:35.771Z</time></trkpt><trkpt lat="42.7411864" lon="13.628957"><ele>830.0</ele><time>2026-05-01T11:48:36.77Z</time></trkpt><trkpt lat="42.7410175" lon="13.6290353"><ele>830.0</ele><time>2026-05-01T11:48:37.77Z</time></trkpt><trkpt lat="42.7408567" lon="13.6291176"><ele>825.3333333333334</ele><time>2026-05-01T11:48:38.77Z</time></trkpt><trkpt lat="42.7407003" lon="13.6292213"><ele>820.6666666666667</ele><time>2026-05-01T11:48:39.771Z</time></trkpt><trkpt lat="42.740547" lon="13.6293382"><ele>816.0</ele><time>2026-05-01T11:48:40.77Z</time></trkpt><trkpt lat="42.7404035" lon="13.6295013"><ele>816.0</ele><time>2026-05-01T11:48:41.772Z</time></trkpt><trkpt lat="42.7402653" lon="13.629641"><ele>816.0</ele><time>2026-05-01T11:48:42.771Z</time></trkpt><trkpt lat="42.7401307" lon="13.6297777"><ele>816.0</ele><time>2026-05-01T11:48:43.771Z</time></trkpt><trkpt lat="42.7400025" lon="13.6299087"><ele>816.0</ele><time>2026-05-01T11:48:44.771Z</time></trkpt><trkpt lat="42.7398853" lon="13.630028"><ele>816.0</ele><time>2026-05-01T11:48:45.77Z</time></trkpt><trkpt lat="42.7397739" lon="13.6301501"><ele>816.0</ele><time>2026-05-01T11:48:46.771Z</time></trkpt><trkpt lat="42.7396778" lon="13.6303"><ele>816.0</ele><time>2026-05-01T11:48:47.771Z</time></trkpt><trkpt lat="42.7395966" lon="13.6304699"><ele>816.0</ele><time>2026-05-01T11:48:48.771Z</time></trkpt><trkpt lat="42.7395078" lon="13.6306336"><ele>816.0</ele><time>2026-05-01T11:48:49.771Z</time></trkpt><trkpt lat="42.7394059" lon="13.630778"><ele>816.0</ele><time>2026-05-01T11:48:50.772Z</time></trkpt><trkpt lat="42.7392878" lon="13.6309101"><ele>816.0</ele><time>2026-05-01T11:48:51.77Z</time></trkpt><trkpt lat="42.7391664" lon="13.6310337"><ele>817.0</ele><time>2026-05-01T11:48:52.771Z</time></trkpt><trkpt lat="42.7390458" lon="13.6311477"><ele>818.0</ele><time>2026-05-01T11:48:53.771Z</time></trkpt><trkpt lat="42.7389143" lon="13.6312544"><ele>819.0</ele><time>2026-05-01T11:48:54.771Z</time></trkpt><trkpt lat="42.738775" lon="13.6313498"><ele>819.0</ele><time>2026-05-01T11:48:55.771Z</time></trkpt><trkpt lat="42.7386341" lon="13.6314286"><ele>819.0</ele><time>2026-05-01T11:48:56.772Z</time></trkpt><trkpt lat="42.7384961" lon="13.6314981"><ele>819.0</ele><time>2026-05-01T11:48:57.771Z</time></trkpt><trkpt lat="42.7383652" lon="13.6315584"><ele>819.0</ele><time>2026-05-01T11:48:58.77Z</time></trkpt><trkpt lat="42.7382364" lon="13.6315948"><ele>822.0</ele><time>2026-05-01T11:48:59.77Z</time></trkpt><trkpt lat="42.7381055" lon="13.6316021"><ele>825.0</ele><time>2026-05-01T11:49:00.771Z</time></trkpt><trkpt lat="42.737966" lon="13.6315867"><ele>828.0</ele><time>2026-05-01T11:49:01.772Z</time></trkpt><trkpt lat="42.7376881" lon="13.6315395"><ele>828.6666666666667</ele><time>2026-05-01T11:49:03.77Z</time></trkpt><trkpt lat="42.7375427" lon="13.6315368"><ele>829.3333333333334</ele><time>2026-05-01T11:49:04.77Z</time></trkpt><trkpt lat="42.7373843" lon="13.6315736"><ele>830.0</ele><time>2026-05-01T11:49:05.772Z</time></trkpt><trkpt lat="42.7372222" lon="13.631646"><ele>830.0</ele><time>2026-05-01T11:49:06.772Z</time></trkpt><trkpt lat="42.7370651" lon="13.6317336"><ele>830.0</ele><time>2026-05-01T11:49:07.772Z</time></trkpt><trkpt lat="42.7369139" lon="13.6318109"><ele>830.0</ele><time>2026-05-01T11:49:08.771Z</time></trkpt><trkpt lat="42.7367626" lon="13.6318686"><ele>828.3333333333334</ele><time>2026-05-01T11:49:09.77Z</time></trkpt><trkpt lat="42.7366081" lon="13.6319216"><ele>826.6666666666667</ele><time>2026-05-01T11:49:10.771Z</time></trkpt><trkpt lat="42.7364526" lon="13.6319731"><ele>825.0</ele><time>2026-05-01T11:49:11.771Z</time></trkpt><trkpt lat="42.7362996" lon="13.6320074"><ele>820.75</ele><time>2026-05-01T11:49:12.77Z</time></trkpt><trkpt lat="42.736148" lon="13.6320408"><ele>816.5</ele><time>2026-05-01T11:49:13.771Z</time></trkpt><trkpt lat="42.736014" lon="13.6320781"><ele>812.25</ele><time>2026-05-01T11:49:14.771Z</time></trkpt><trkpt lat="42.7358855" lon="13.6321431"><ele>808.0</ele><time>2026-05-01T11:49:15.771Z</time></trkpt><trkpt lat="42.7357626" lon="13.6322394"><ele>807.5</ele><time>2026-05-01T11:49:16.771Z</time></trkpt><trkpt lat="42.7356447" lon="13.6323687"><ele>807.0</ele><time>2026-05-01T11:49:17.771Z</time></trkpt><trkpt lat="42.7355393" lon="13.6325107"><ele>806.5</ele><time>2026-05-01T11:49:18.77Z</time></trkpt><trkpt lat="42.7354365" lon="13.6326432"><ele>806.0</ele><time>2026-05-01T11:49:19.772Z</time></trkpt><trkpt lat="42.735335" lon="13.632773"><ele>803.25</ele><time>2026-05-01T11:49:20.772Z</time></trkpt><trkpt lat="42.73523" lon="13.6328951"><ele>800.5</ele><time>2026-05-01T11:49:21.77Z</time></trkpt><trkpt lat="42.7351186" lon="13.6329906"><ele>797.75</ele><time>2026-05-01T11:49:22.77Z</time></trkpt><trkpt lat="42.7349929" lon="13.6330638"><ele>795.0</ele><time>2026-05-01T11:49:23.771Z</time></trkpt><trkpt lat="42.7348558" lon="13.6331014"><ele>795.0</ele><time>2026-05-01T11:49:24.771Z</time></trkpt><trkpt lat="42.7347149" lon="13.6330926"><ele>795.0</ele><time>2026-05-01T11:49:25.772Z</time></trkpt><trkpt lat="42.7345843" lon="13.6330677"><ele>795.0</ele><time>2026-05-01T11:49:26.772Z</time></trkpt><trkpt lat="42.7344661" lon="13.6330498"><ele>795.0</ele><time>2026-05-01T11:49:27.771Z</time></trkpt><trkpt lat="42.7343447" lon="13.6330381"><ele>795.5</ele><time>2026-05-01T11:49:28.771Z</time></trkpt><trkpt lat="42.7342087" lon="13.6330852"><ele>796.0</ele><time>2026-05-01T11:49:29.77Z</time></trkpt><trkpt lat="42.7341024" lon="13.6331612"><ele>796.5</ele><time>2026-05-01T11:49:30.771Z</time></trkpt><trkpt lat="42.7340948" lon="13.6334089"><ele>797.0</ele><time>2026-05-01T11:49:31.77Z</time></trkpt><trkpt lat="42.7339798" lon="13.6334615"><ele>797.0</ele><time>2026-05-01T11:49:32.771Z</time></trkpt><trkpt lat="42.7338693" lon="13.6334958"><ele>797.0</ele><time>2026-05-01T11:49:33.77Z</time></trkpt><trkpt lat="42.7337573" lon="13.6335309"><ele>797.0</ele><time>2026-05-01T11:49:34.771Z</time></trkpt><trkpt lat="42.7336717" lon="13.6336175"><ele>797.0</ele><time>2026-05-01T11:49:35.77Z</time></trkpt><trkpt lat="42.7335855" lon="13.6337184"><ele>797.0</ele><time>2026-05-01T11:49:36.771Z</time></trkpt><trkpt lat="42.7335338" lon="13.6338888"><ele>794.6666666666667</ele><time>2026-05-01T11:49:37.771Z</time></trkpt><trkpt lat="42.7334739" lon="13.6340712"><ele>792.3333333333333</ele><time>2026-05-01T11:49:38.771Z</time></trkpt><trkpt lat="42.7333863" lon="13.6342564"><ele>790.0</ele><time>2026-05-01T11:49:39.77Z</time></trkpt><trkpt lat="42.733285" lon="13.6344473"><ele>787.3333333333333</ele><time>2026-05-01T11:49:40.771Z</time></trkpt><trkpt lat="42.7331903" lon="13.6346425"><ele>784.6666666666667</ele><time>2026-05-01T11:49:41.771Z</time></trkpt><trkpt lat="42.7331148" lon="13.634856"><ele>782.0</ele><time>2026-05-01T11:49:42.771Z</time></trkpt><trkpt lat="42.7330477" lon="13.6350622"><ele>782.0</ele><time>2026-05-01T11:49:43.772Z</time></trkpt><trkpt lat="42.73298" lon="13.6352528"><ele>782.0</ele><time>2026-05-01T11:49:44.772Z</time></trkpt><trkpt lat="42.7329016" lon="13.6354298"><ele>782.0</ele><time>2026-05-01T11:49:45.771Z</time></trkpt><trkpt lat="42.7328162" lon="13.6355873"><ele>783.75</ele><time>2026-05-01T11:49:46.772Z</time></trkpt><trkpt lat="42.7327303" lon="13.6357173"><ele>785.5</ele><time>2026-05-01T11:49:47.77Z</time></trkpt><trkpt lat="42.7326504" lon="13.6358319"><ele>787.25</ele><time>2026-05-01T11:49:48.77Z</time></trkpt><trkpt lat="42.7325793" lon="13.6359471"><ele>789.0</ele><time>2026-05-01T11:49:49.77Z</time></trkpt><trkpt lat="42.7325695" lon="13.6361075"><ele>785.8000000000001</ele><time>2026-05-01T11:49:51.77Z</time></trkpt><trkpt lat="42.7326067" lon="13.6362178"><ele>782.6</ele><time>2026-05-01T11:49:52.769Z</time></trkpt><trkpt lat="42.7326565" lon="13.6362972"><ele>779.4</ele><time>2026-05-01T11:49:53.771Z</time></trkpt><trkpt lat="42.7327353" lon="13.6362685"><ele>776.2</ele><time>2026-05-01T11:49:54.771Z</time></trkpt><trkpt lat="42.7328356" lon="13.6361689"><ele>773.0</ele><time>2026-05-01T11:49:55.77Z</time></trkpt><trkpt lat="42.733009" lon="13.6359327"><ele>772.8</ele><time>2026-05-01T11:49:56.769Z</time></trkpt><trkpt lat="42.7330997" lon="13.6358305"><ele>772.5999999999999</ele><time>2026-05-01T11:49:57.769Z</time></trkpt><trkpt lat="42.7331793" lon="13.6357243"><ele>772.4000000000001</ele><time>2026-05-01T11:49:58.77Z</time></trkpt><trkpt lat="42.7332633" lon="13.6356431"><ele>772.2</ele><time>2026-05-01T11:49:59.77Z</time></trkpt><trkpt lat="42.7333449" lon="13.6356155"><ele>772.0</ele><time>2026-05-01T11:50:00.769Z</time></trkpt><trkpt lat="42.7334256" lon="13.6356302"><ele>772.0</ele><time>2026-05-01T11:50:01.769Z</time></trkpt><trkpt lat="42.733477" lon="13.6356965"><ele>772.0</ele><time>2026-05-01T11:50:02.77Z</time></trkpt><trkpt lat="42.7335027" lon="13.6358314"><ele>772.0</ele><time>2026-05-01T11:50:03.771Z</time></trkpt><trkpt lat="42.7335062" lon="13.6360071"><ele>772.0</ele><time>2026-05-01T11:50:04.77Z</time></trkpt><trkpt lat="42.7335118" lon="13.636212"><ele>770.3333333333333</ele><time>2026-05-01T11:50:05.771Z</time></trkpt><trkpt lat="42.7335297" lon="13.6364291"><ele>768.6666666666666</ele><time>2026-05-01T11:50:06.771Z</time></trkpt><trkpt lat="42.73354" lon="13.6366448"><ele>767.0</ele><time>2026-05-01T11:50:07.771Z</time></trkpt><trkpt lat="42.7335448" lon="13.6368559"><ele>765.0</ele><time>2026-05-01T11:50:08.77Z</time></trkpt><trkpt lat="42.7335547" lon="13.6370365"><ele>763.0</ele><time>2026-05-01T11:50:09.77Z</time></trkpt><trkpt lat="42.7335551" lon="13.6371939"><ele>761.0</ele><time>2026-05-01T11:50:10.769Z</time></trkpt><trkpt lat="42.7335368" lon="13.6373357"><ele>759.0</ele><time>2026-05-01T11:50:11.769Z</time></trkpt><trkpt lat="42.7334851" lon="13.6374546"><ele>759.0</ele><time>2026-05-01T11:50:12.77Z</time></trkpt><trkpt lat="42.7333996" lon="13.6375438"><ele>759.0</ele><time>2026-05-01T11:50:13.77Z</time></trkpt><trkpt lat="42.7332758" lon="13.6376009"><ele>759.0</ele><time>2026-05-01T11:50:14.769Z</time></trkpt><trkpt lat="42.7331408" lon="13.6376484"><ele>759.0</ele><time>2026-05-01T11:50:15.771Z</time></trkpt><trkpt lat="42.7329889" lon="13.637679"><ele>759.0</ele><time>2026-05-01T11:50:16.77Z</time></trkpt><trkpt lat="42.7328153" lon="13.6376863"><ele>759.0</ele><time>2026-05-01T11:50:17.77Z</time></trkpt><trkpt lat="42.7326251" lon="13.6376722"><ele>759.0</ele><time>2026-05-01T11:50:18.77Z</time></trkpt><trkpt lat="42.732425" lon="13.6376681"><ele>758.0</ele><time>2026-05-01T11:50:19.769Z</time></trkpt><trkpt lat="42.7322083" lon="13.6376584"><ele>757.0</ele><time>2026-05-01T11:50:20.769Z</time></trkpt><trkpt lat="42.7320123" lon="13.6376494"><ele>756.0</ele><time>2026-05-01T11:50:21.769Z</time></trkpt><trkpt lat="42.7318301" lon="13.6376349"><ele>756.0</ele><time>2026-05-01T11:50:22.77Z</time></trkpt><trkpt lat="42.7316689" lon="13.6376212"><ele>756.0</ele><time>2026-05-01T11:50:23.77Z</time></trkpt><trkpt lat="42.7313981" lon="13.6376052"><ele>756.0</ele><time>2026-05-01T11:50:25.771Z</time></trkpt><trkpt lat="42.7312868" lon="13.6376011"><ele>756.0</ele><time>2026-05-01T11:50:26.77Z</time></trkpt><trkpt lat="42.7311859" lon="13.6375899"><ele>756.0</ele><time>2026-05-01T11:50:27.769Z</time></trkpt><trkpt lat="42.7310985" lon="13.6375963"><ele>756.0</ele><time>2026-05-01T11:50:28.77Z</time></trkpt><trkpt lat="42.7310303" lon="13.6376626"><ele>756.0</ele><time>2026-05-01T11:50:29.769Z</time></trkpt><trkpt lat="42.7310479" lon="13.6377693"><ele>756.0</ele><time>2026-05-01T11:50:30.769Z</time></trkpt><trkpt lat="42.7311445" lon="13.6378797"><ele>750.0</ele><time>2026-05-01T11:50:31.769Z</time></trkpt><trkpt lat="42.7312263" lon="13.6379481"><ele>744.0</ele><time>2026-05-01T11:50:32.77Z</time></trkpt><trkpt lat="42.7313621" lon="13.6379879"><ele>738.0</ele><time>2026-05-01T11:50:33.769Z</time></trkpt><trkpt lat="42.7314725" lon="13.6380589"><ele>732.0</ele><time>2026-05-01T11:50:34.769Z</time></trkpt><trkpt lat="42.7315856" lon="13.6381628"><ele>732.0</ele><time>2026-05-01T11:50:35.77Z</time></trkpt><trkpt lat="42.731687" lon="13.6382852"><ele>732.0</ele><time>2026-05-01T11:50:36.77Z</time></trkpt><trkpt lat="42.7317756" lon="13.638412"><ele>732.0</ele><time>2026-05-01T11:50:37.77Z</time></trkpt><trkpt lat="42.7318706" lon="13.6385064"><ele>732.0</ele><time>2026-05-01T11:50:38.771Z</time></trkpt><trkpt lat="42.731988" lon="13.6385678"><ele>733.25</ele><time>2026-05-01T11:50:39.77Z</time></trkpt><trkpt lat="42.732117" lon="13.6385774"><ele>734.5</ele><time>2026-05-01T11:50:40.77Z</time></trkpt><trkpt lat="42.7322365" lon="13.6385827"><ele>735.75</ele><time>2026-05-01T11:50:41.771Z</time></trkpt><trkpt lat="42.7323773" lon="13.638545"><ele>737.0</ele><time>2026-05-01T11:50:42.771Z</time></trkpt><trkpt lat="42.7325316" lon="13.6385079"><ele>737.0</ele><time>2026-05-01T11:50:43.771Z</time></trkpt><trkpt lat="42.7326862" lon="13.6384891"><ele>737.0</ele><time>2026-05-01T11:50:44.771Z</time></trkpt><trkpt lat="42.7328542" lon="13.6385416"><ele>737.0</ele><time>2026-05-01T11:50:45.77Z</time></trkpt><trkpt lat="42.7330054" lon="13.6385938"><ele>727.6666666666666</ele><time>2026-05-01T11:50:46.77Z</time></trkpt><trkpt lat="42.7331651" lon="13.6386435"><ele>718.3333333333334</ele><time>2026-05-01T11:50:47.77Z</time></trkpt><trkpt lat="42.7333293" lon="13.638691"><ele>709.0</ele><time>2026-05-01T11:50:48.771Z</time></trkpt><trkpt lat="42.7334847" lon="13.6387575"><ele>711.0</ele><time>2026-05-01T11:50:49.77Z</time></trkpt><trkpt lat="42.7336283" lon="13.6388342"><ele>713.0</ele><time>2026-05-01T11:50:50.771Z</time></trkpt><trkpt lat="42.7337752" lon="13.638882"><ele>715.0</ele><time>2026-05-01T11:50:51.77Z</time></trkpt><trkpt lat="42.733919" lon="13.6389282"><ele>715.0</ele><time>2026-05-01T11:50:52.77Z</time></trkpt><trkpt lat="42.7340477" lon="13.6389825"><ele>715.0</ele><time>2026-05-01T11:50:53.77Z</time></trkpt><trkpt lat="42.7341672" lon="13.6390528"><ele>715.0</ele><time>2026-05-01T11:50:54.771Z</time></trkpt><trkpt lat="42.7342708" lon="13.6391468"><ele>715.0</ele><time>2026-05-01T11:50:55.77Z</time></trkpt><trkpt lat="42.7343761" lon="13.6392247"><ele>713.0</ele><time>2026-05-01T11:50:56.771Z</time></trkpt><trkpt lat="42.7344911" lon="13.6392579"><ele>711.0</ele><time>2026-05-01T11:50:57.771Z</time></trkpt><trkpt lat="42.7346218" lon="13.6392392"><ele>709.0</ele><time>2026-05-01T11:50:58.769Z</time></trkpt><trkpt lat="42.7347449" lon="13.6391764"><ele>707.0</ele><time>2026-05-01T11:50:59.77Z</time></trkpt><trkpt lat="42.7348492" lon="13.6391124"><ele>707.0</ele><time>2026-05-01T11:51:00.769Z</time></trkpt><trkpt lat="42.7349483" lon="13.6390502"><ele>707.0</ele><time>2026-05-01T11:51:01.77Z</time></trkpt><trkpt lat="42.7350263" lon="13.639031"><ele>707.0</ele><time>2026-05-01T11:51:02.769Z</time></trkpt><trkpt lat="42.7350888" lon="13.6390697"><ele>707.0</ele><time>2026-05-01T11:51:03.769Z</time></trkpt><trkpt lat="42.7351367" lon="13.639126"><ele>707.0</ele><time>2026-05-01T11:51:04.769Z</time></trkpt><trkpt lat="42.7350913" lon="13.6392822"><ele>707.0</ele><time>2026-05-01T11:51:06.769Z</time></trkpt><trkpt lat="42.7349883" lon="13.6393808"><ele>701.3333333333333</ele><time>2026-05-01T11:51:07.769Z</time></trkpt><trkpt lat="42.7348478" lon="13.6394813"><ele>695.6666666666666</ele><time>2026-05-01T11:51:08.77Z</time></trkpt><trkpt lat="42.7346959" lon="13.6395947"><ele>690.0</ele><time>2026-05-01T11:51:09.769Z</time></trkpt><trkpt lat="42.734536" lon="13.6396886"><ele>691.0</ele><time>2026-05-01T11:51:10.769Z</time></trkpt><trkpt lat="42.7343768" lon="13.6397546"><ele>692.0</ele><time>2026-05-01T11:51:11.769Z</time></trkpt><trkpt lat="42.7342051" lon="13.63979"><ele>693.0</ele><time>2026-05-01T11:51:12.77Z</time></trkpt><trkpt lat="42.7340268" lon="13.6397875"><ele>693.0</ele><time>2026-05-01T11:51:13.77Z</time></trkpt><trkpt lat="42.7338512" lon="13.6397816"><ele>693.0</ele><time>2026-05-01T11:51:14.771Z</time></trkpt><trkpt lat="42.7336802" lon="13.639786"><ele>693.0</ele><time>2026-05-01T11:51:15.77Z</time></trkpt><trkpt lat="42.7335294" lon="13.6398015"><ele>692.0</ele><time>2026-05-01T11:51:16.771Z</time></trkpt><trkpt lat="42.7333821" lon="13.6398242"><ele>691.0</ele><time>2026-05-01T11:51:17.771Z</time></trkpt><trkpt lat="42.7332416" lon="13.6398384"><ele>690.0</ele><time>2026-05-01T11:51:18.771Z</time></trkpt><trkpt lat="42.7331018" lon="13.6397971"><ele>689.0</ele><time>2026-05-01T11:51:19.771Z</time></trkpt><trkpt lat="42.7329638" lon="13.63974"><ele>689.0</ele><time>2026-05-01T11:51:20.77Z</time></trkpt><trkpt lat="42.7328371" lon="13.6396665"><ele>689.0</ele><time>2026-05-01T11:51:21.771Z</time></trkpt><trkpt lat="42.7327181" lon="13.6396131"><ele>689.0</ele><time>2026-05-01T11:51:22.769Z</time></trkpt><trkpt lat="42.7325787" lon="13.6396047"><ele>689.0</ele><time>2026-05-01T11:51:23.769Z</time></trkpt><trkpt lat="42.7324506" lon="13.6395775"><ele>689.5</ele><time>2026-05-01T11:51:24.77Z</time></trkpt><trkpt lat="42.7323023" lon="13.6397008"><ele>690.0</ele><time>2026-05-01T11:51:25.77Z</time></trkpt><trkpt lat="42.732173" lon="13.639742"><ele>690.5</ele><time>2026-05-01T11:51:26.77Z</time></trkpt><trkpt lat="42.7320438" lon="13.6397899"><ele>691.0</ele><time>2026-05-01T11:51:27.77Z</time></trkpt><trkpt lat="42.7319292" lon="13.6398308"><ele>692.8</ele><time>2026-05-01T11:51:28.77Z</time></trkpt><trkpt lat="42.7318339" lon="13.639871"><ele>694.5999999999999</ele><time>2026-05-01T11:51:29.77Z</time></trkpt><trkpt lat="42.7317547" lon="13.6399188"><ele>696.4</ele><time>2026-05-01T11:51:30.769Z</time></trkpt><trkpt lat="42.7316995" lon="13.639984"><ele>698.2</ele><time>2026-05-01T11:51:31.771Z</time></trkpt><trkpt lat="42.7317082" lon="13.6401631"><ele>700.0</ele><time>2026-05-01T11:51:33.77Z</time></trkpt><trkpt lat="42.7317575" lon="13.6402487"><ele>698.2</ele><time>2026-05-01T11:51:34.769Z</time></trkpt><trkpt lat="42.7318149" lon="13.6403144"><ele>696.4</ele><time>2026-05-01T11:51:35.77Z</time></trkpt><trkpt lat="42.7319051" lon="13.6403293"><ele>694.5999999999999</ele><time>2026-05-01T11:51:36.769Z</time></trkpt><trkpt lat="42.7319998" lon="13.6403103"><ele>692.8</ele><time>2026-05-01T11:51:37.77Z</time></trkpt><trkpt lat="42.7321018" lon="13.6402437"><ele>691.0</ele><time>2026-05-01T11:51:38.769Z</time></trkpt><trkpt lat="42.7321991" lon="13.6401623"><ele>691.0</ele><time>2026-05-01T11:51:39.771Z</time></trkpt><trkpt lat="42.7323155" lon="13.640119"><ele>691.0</ele><time>2026-05-01T11:51:40.77Z</time></trkpt><trkpt lat="42.7324512" lon="13.6401307"><ele>691.0</ele><time>2026-05-01T11:51:41.771Z</time></trkpt><trkpt lat="42.7325725" lon="13.6401746"><ele>691.0</ele><time>2026-05-01T11:51:42.771Z</time></trkpt><trkpt lat="42.7326768" lon="13.640214"><ele>690.5</ele><time>2026-05-01T11:51:43.771Z</time></trkpt><trkpt lat="42.7327824" lon="13.6402668"><ele>690.0</ele><time>2026-05-01T11:51:44.77Z</time></trkpt><trkpt lat="42.7328095" lon="13.6404283"><ele>689.5</ele><time>2026-05-01T11:51:45.771Z</time></trkpt><trkpt lat="42.7328327" lon="13.6405858"><ele>689.0</ele><time>2026-05-01T11:51:46.769Z</time></trkpt><trkpt lat="42.7328464" lon="13.640742"><ele>686.0</ele><time>2026-05-01T11:51:47.769Z</time></trkpt><trkpt lat="42.7328704" lon="13.6408927"><ele>683.0</ele><time>2026-05-01T11:51:48.77Z</time></trkpt><trkpt lat="42.7329302" lon="13.6410284"><ele>680.0</ele><time>2026-05-01T11:51:49.77Z</time></trkpt><trkpt lat="42.7329949" lon="13.6411394"><ele>677.0</ele><time>2026-05-01T11:51:50.77Z</time></trkpt><trkpt lat="42.7330806" lon="13.6412562"><ele>675.25</ele><time>2026-05-01T11:51:51.769Z</time></trkpt><trkpt lat="42.7331802" lon="13.6413651"><ele>673.5</ele><time>2026-05-01T11:51:52.77Z</time></trkpt><trkpt lat="42.7332811" lon="13.6414718"><ele>671.75</ele><time>2026-05-01T11:51:53.77Z</time></trkpt><trkpt lat="42.7333883" lon="13.6415542"><ele>670.0</ele><time>2026-05-01T11:51:54.769Z</time></trkpt><trkpt lat="42.7335062" lon="13.6416157"><ele>669.25</ele><time>2026-05-01T11:51:55.769Z</time></trkpt><trkpt lat="42.7336219" lon="13.6416866"><ele>668.5</ele><time>2026-05-01T11:51:56.769Z</time></trkpt><trkpt lat="42.7337551" lon="13.6417114"><ele>667.75</ele><time>2026-05-01T11:51:57.769Z</time></trkpt><trkpt lat="42.7338921" lon="13.6417202"><ele>667.0</ele><time>2026-05-01T11:51:58.77Z</time></trkpt><trkpt lat="42.7340323" lon="13.6417171"><ele>667.0</ele><time>2026-05-01T11:51:59.77Z</time></trkpt><trkpt lat="42.7341744" lon="13.6416961"><ele>667.0</ele><time>2026-05-01T11:52:00.769Z</time></trkpt><trkpt lat="42.7343215" lon="13.6416776"><ele>667.0</ele><time>2026-05-01T11:52:01.769Z</time></trkpt><trkpt lat="42.7344634" lon="13.6416593"><ele>667.0</ele><time>2026-05-01T11:52:02.77Z</time></trkpt><trkpt lat="42.7346148" lon="13.6416453"><ele>664.3333333333334</ele><time>2026-05-01T11:52:03.771Z</time></trkpt><trkpt lat="42.7347773" lon="13.6416413"><ele>661.6666666666666</ele><time>2026-05-01T11:52:04.771Z</time></trkpt><trkpt lat="42.7349385" lon="13.6416319"><ele>659.0</ele><time>2026-05-01T11:52:05.77Z</time></trkpt><trkpt lat="42.7350908" lon="13.6416309"><ele>657.25</ele><time>2026-05-01T11:52:06.77Z</time></trkpt><trkpt lat="42.7352401" lon="13.6416322"><ele>655.5</ele><time>2026-05-01T11:52:07.771Z</time></trkpt><trkpt lat="42.735386" lon="13.6416411"><ele>653.75</ele><time>2026-05-01T11:52:08.77Z</time></trkpt><trkpt lat="42.7355131" lon="13.6416578"><ele>652.0</ele><time>2026-05-01T11:52:09.771Z</time></trkpt><trkpt lat="42.7356129" lon="13.6416744"><ele>652.0</ele><time>2026-05-01T11:52:10.77Z</time></trkpt><trkpt lat="42.7356966" lon="13.641711"><ele>652.0</ele><time>2026-05-01T11:52:11.77Z</time></trkpt><trkpt lat="42.7357503" lon="13.6417833"><ele>652.0</ele><time>2026-05-01T11:52:12.769Z</time></trkpt><trkpt lat="42.7357258" lon="13.6419185"><ele>652.0</ele><time>2026-05-01T11:52:14.77Z</time></trkpt><trkpt lat="42.7356403" lon="13.641938"><ele>652.0</ele><time>2026-05-01T11:52:15.77Z</time></trkpt><trkpt lat="42.7355492" lon="13.6419516"><ele>652.0</ele><time>2026-05-01T11:52:16.771Z</time></trkpt><trkpt lat="42.7354459" lon="13.6419676"><ele>650.75</ele><time>2026-05-01T11:52:17.77Z</time></trkpt><trkpt lat="42.7353569" lon="13.6420542"><ele>649.5</ele><time>2026-05-01T11:52:18.77Z</time></trkpt><trkpt lat="42.7352663" lon="13.6421321"><ele>648.25</ele><time>2026-05-01T11:52:19.771Z</time></trkpt><trkpt lat="42.7351899" lon="13.6422328"><ele>647.0</ele><time>2026-05-01T11:52:20.77Z</time></trkpt><trkpt lat="42.7351817" lon="13.6424574"><ele>647.0</ele><time>2026-05-01T11:52:21.77Z</time></trkpt><trkpt lat="42.7350938" lon="13.6425982"><ele>647.0</ele><time>2026-05-01T11:52:22.771Z</time></trkpt><trkpt lat="42.7349821" lon="13.6427416"><ele>647.0</ele><time>2026-05-01T11:52:23.77Z</time></trkpt><trkpt lat="42.7348649" lon="13.6428729"><ele>647.0</ele><time>2026-05-01T11:52:24.769Z</time></trkpt><trkpt lat="42.7347452" lon="13.6430032"><ele>645.5</ele><time>2026-05-01T11:52:25.77Z</time></trkpt><trkpt lat="42.7346319" lon="13.6431078"><ele>644.0</ele><time>2026-05-01T11:52:26.769Z</time></trkpt><trkpt lat="42.7345248" lon="13.6432167"><ele>642.5</ele><time>2026-05-01T11:52:27.77Z</time></trkpt><trkpt lat="42.7344209" lon="13.6433169"><ele>641.0</ele><time>2026-05-01T11:52:28.768Z</time></trkpt><trkpt lat="42.7343202" lon="13.6434153"><ele>641.0</ele><time>2026-05-01T11:52:29.768Z</time></trkpt><trkpt lat="42.7342271" lon="13.6435099"><ele>641.0</ele><time>2026-05-01T11:52:30.768Z</time></trkpt><trkpt lat="42.7341445" lon="13.6435908"><ele>641.0</ele><time>2026-05-01T11:52:31.77Z</time></trkpt><trkpt lat="42.7340617" lon="13.6436471"><ele>641.0</ele><time>2026-05-01T11:52:32.77Z</time></trkpt><trkpt lat="42.7339753" lon="13.6436657"><ele>641.0</ele><time>2026-05-01T11:52:33.769Z</time></trkpt><trkpt lat="42.7338719" lon="13.6436616"><ele>641.0</ele><time>2026-05-01T11:52:34.769Z</time></trkpt><trkpt lat="42.7337503" lon="13.6436292"><ele>641.0</ele><time>2026-05-01T11:52:35.769Z</time></trkpt><trkpt lat="42.7336281" lon="13.6435956"><ele>641.0</ele><time>2026-05-01T11:52:36.769Z</time></trkpt><trkpt lat="42.7335116" lon="13.6435443"><ele>641.0</ele><time>2026-05-01T11:52:37.769Z</time></trkpt><trkpt lat="42.7334124" lon="13.6434692"><ele>640.0</ele><time>2026-05-01T11:52:38.769Z</time></trkpt><trkpt lat="42.7333359" lon="13.6433695"><ele>639.0</ele><time>2026-05-01T11:52:39.768Z</time></trkpt><trkpt lat="42.7332787" lon="13.6432691"><ele>638.0</ele><time>2026-05-01T11:52:40.769Z</time></trkpt><trkpt lat="42.7332203" lon="13.6431815"><ele>637.0</ele><time>2026-05-01T11:52:41.769Z</time></trkpt><trkpt lat="42.7331502" lon="13.6431299"><ele>636.0</ele><time>2026-05-01T11:52:42.77Z</time></trkpt><trkpt lat="42.7330816" lon="13.6431253"><ele>635.0</ele><time>2026-05-01T11:52:43.769Z</time></trkpt><trkpt lat="42.7330259" lon="13.6431839"><ele>635.0</ele><time>2026-05-01T11:52:44.768Z</time></trkpt><trkpt lat="42.7329867" lon="13.6432616"><ele>635.0</ele><time>2026-05-01T11:52:45.77Z</time></trkpt><trkpt lat="42.7329655" lon="13.6433448"><ele>635.0</ele><time>2026-05-01T11:52:46.769Z</time></trkpt><trkpt lat="42.7329933" lon="13.6434323"><ele>635.0</ele><time>2026-05-01T11:52:47.77Z</time></trkpt><trkpt lat="42.7331429" lon="13.6435639"><ele>635.0</ele><time>2026-05-01T11:52:48.77Z</time></trkpt><trkpt lat="42.7332195" lon="13.6436832"><ele>631.25</ele><time>2026-05-01T11:52:49.768Z</time></trkpt><trkpt lat="42.7332961" lon="13.6438344"><ele>627.5</ele><time>2026-05-01T11:52:50.768Z</time></trkpt><trkpt lat="42.7333744" lon="13.6440166"><ele>623.75</ele><time>2026-05-01T11:52:51.768Z</time></trkpt><trkpt lat="42.7334299" lon="13.644193"><ele>620.0</ele><time>2026-05-01T11:52:52.769Z</time></trkpt><trkpt lat="42.7334798" lon="13.6443705"><ele>619.6</ele><time>2026-05-01T11:52:53.769Z</time></trkpt><trkpt lat="42.7335372" lon="13.6445464"><ele>619.2</ele><time>2026-05-01T11:52:54.769Z</time></trkpt><trkpt lat="42.7335722" lon="13.6447012"><ele>618.8</ele><time>2026-05-01T11:52:55.77Z</time></trkpt><trkpt lat="42.7336106" lon="13.6448208"><ele>618.4</ele><time>2026-05-01T11:52:56.77Z</time></trkpt><trkpt lat="42.7336654" lon="13.6449137"><ele>618.0</ele><time>2026-05-01T11:52:57.769Z</time></trkpt><trkpt lat="42.7337504" lon="13.6449653"><ele>618.0</ele><time>2026-05-01T11:52:58.769Z</time></trkpt><trkpt lat="42.7338598" lon="13.6449896"><ele>618.0</ele><time>2026-05-01T11:52:59.768Z</time></trkpt><trkpt lat="42.7339774" lon="13.6450037"><ele>618.0</ele><time>2026-05-01T11:53:00.769Z</time></trkpt><trkpt lat="42.734087" lon="13.6450337"><ele>618.0</ele><time>2026-05-01T11:53:01.769Z</time></trkpt><trkpt lat="42.7341855" lon="13.6450513"><ele>618.0</ele><time>2026-05-01T11:53:02.768Z</time></trkpt><trkpt lat="42.7342584" lon="13.6450826"><ele>618.0</ele><time>2026-05-01T11:53:03.769Z</time></trkpt><trkpt lat="42.7343081" lon="13.6451446"><ele>618.0</ele><time>2026-05-01T11:53:04.769Z</time></trkpt><trkpt lat="42.7342855" lon="13.6453063"><ele>618.0</ele><time>2026-05-01T11:53:06.768Z</time></trkpt><trkpt lat="42.7342096" lon="13.645385"><ele>618.0</ele><time>2026-05-01T11:53:07.769Z</time></trkpt><trkpt lat="42.7341309" lon="13.6454452"><ele>618.0</ele><time>2026-05-01T11:53:08.77Z</time></trkpt><trkpt lat="42.7340568" lon="13.6455111"><ele>615.8333333333334</ele><time>2026-05-01T11:53:09.769Z</time></trkpt><trkpt lat="42.7339891" lon="13.6455687"><ele>613.6666666666666</ele><time>2026-05-01T11:53:10.769Z</time></trkpt><trkpt lat="42.7339346" lon="13.6456451"><ele>611.5</ele><time>2026-05-01T11:53:11.768Z</time></trkpt><trkpt lat="42.7339634" lon="13.6457624"><ele>609.3333333333333</ele><time>2026-05-01T11:53:12.768Z</time></trkpt><trkpt lat="42.7340091" lon="13.6458348"><ele>607.1666666666666</ele><time>2026-05-01T11:53:13.769Z</time></trkpt><trkpt lat="42.7340843" lon="13.6458865"><ele>605.0</ele><time>2026-05-01T11:53:14.768Z</time></trkpt><trkpt lat="42.7341866" lon="13.6459298"><ele>605.0</ele><time>2026-05-01T11:53:15.769Z</time></trkpt><trkpt lat="42.7342913" lon="13.6459848"><ele>605.0</ele><time>2026-05-01T11:53:16.768Z</time></trkpt><trkpt lat="42.7343989" lon="13.6460345"><ele>605.0</ele><time>2026-05-01T11:53:17.769Z</time></trkpt><trkpt lat="42.7345131" lon="13.6460676"><ele>605.0</ele><time>2026-05-01T11:53:18.769Z</time></trkpt><trkpt lat="42.7346276" lon="13.6460851"><ele>604.8</ele><time>2026-05-01T11:53:19.769Z</time></trkpt><trkpt lat="42.7347394" lon="13.6460909"><ele>604.6</ele><time>2026-05-01T11:53:20.77Z</time></trkpt><trkpt lat="42.7348478" lon="13.6460835"><ele>604.4</ele><time>2026-05-01T11:53:21.769Z</time></trkpt><trkpt lat="42.734951" lon="13.6460756"><ele>604.2</ele><time>2026-05-01T11:53:22.768Z</time></trkpt><trkpt lat="42.7350473" lon="13.6460685"><ele>604.0</ele><time>2026-05-01T11:53:23.769Z</time></trkpt><trkpt lat="42.7351352" lon="13.646092"><ele>603.0</ele><time>2026-05-01T11:53:24.769Z</time></trkpt><trkpt lat="42.7352065" lon="13.6461542"><ele>602.0</ele><time>2026-05-01T11:53:25.768Z</time></trkpt><trkpt lat="42.7352469" lon="13.646262"><ele>601.0</ele><time>2026-05-01T11:53:26.769Z</time></trkpt><trkpt lat="42.7352616" lon="13.6464005"><ele>600.0</ele><time>2026-05-01T11:53:27.768Z</time></trkpt><trkpt lat="42.7352557" lon="13.6465499"><ele>599.0</ele><time>2026-05-01T11:53:28.769Z</time></trkpt><trkpt lat="42.7352512" lon="13.6466834"><ele>599.0</ele><time>2026-05-01T11:53:29.769Z</time></trkpt><trkpt lat="42.7352106" lon="13.6467967"><ele>599.0</ele><time>2026-05-01T11:53:30.769Z</time></trkpt><trkpt lat="42.7351462" lon="13.6468815"><ele>599.0</ele><time>2026-05-01T11:53:31.768Z</time></trkpt><trkpt lat="42.7350525" lon="13.6469363"><ele>599.0</ele><time>2026-05-01T11:53:32.769Z</time></trkpt><trkpt lat="42.7349289" lon="13.6469862"><ele>599.0</ele><time>2026-05-01T11:53:33.769Z</time></trkpt><trkpt lat="42.7348004" lon="13.6470333"><ele>596.6</ele><time>2026-05-01T11:53:34.769Z</time></trkpt><trkpt lat="42.7346723" lon="13.6470483"><ele>594.2</ele><time>2026-05-01T11:53:35.768Z</time></trkpt><trkpt lat="42.7345603" lon="13.6470406"><ele>591.8000000000001</ele><time>2026-05-01T11:53:36.768Z</time></trkpt><trkpt lat="42.7344696" lon="13.6470283"><ele>589.4</ele><time>2026-05-01T11:53:37.768Z</time></trkpt><trkpt lat="42.7343908" lon="13.6470479"><ele>587.0</ele><time>2026-05-01T11:53:38.769Z</time></trkpt><trkpt lat="42.73434" lon="13.6471328"><ele>587.0</ele><time>2026-05-01T11:53:39.768Z</time></trkpt><trkpt lat="42.7343307" lon="13.6472313"><ele>587.0</ele><time>2026-05-01T11:53:40.769Z</time></trkpt><trkpt lat="42.734372" lon="13.6473512"><ele>587.0</ele><time>2026-05-01T11:53:41.768Z</time></trkpt><trkpt lat="42.7344495" lon="13.6474722"><ele>587.0</ele><time>2026-05-01T11:53:42.768Z</time></trkpt><trkpt lat="42.7345378" lon="13.6475813"><ele>587.0</ele><time>2026-05-01T11:53:43.768Z</time></trkpt><trkpt lat="42.7346098" lon="13.6476768"><ele>587.0</ele><time>2026-05-01T11:53:44.769Z</time></trkpt><trkpt lat="42.7346605" lon="13.6477762"><ele>587.0</ele><time>2026-05-01T11:53:45.769Z</time></trkpt><trkpt lat="42.734673" lon="13.6478746"><ele>587.0</ele><time>2026-05-01T11:53:46.77Z</time></trkpt><trkpt lat="42.7346457" lon="13.6479572"><ele>587.0</ele><time>2026-05-01T11:53:47.769Z</time></trkpt><trkpt lat="42.7345853" lon="13.6480004"><ele>587.0</ele><time>2026-05-01T11:53:48.769Z</time></trkpt><trkpt lat="42.7344852" lon="13.6480049"><ele>587.0</ele><time>2026-05-01T11:53:49.769Z</time></trkpt><trkpt lat="42.7343614" lon="13.6479743"><ele>585.25</ele><time>2026-05-01T11:53:50.768Z</time></trkpt><trkpt lat="42.734219" lon="13.6479327"><ele>583.5</ele><time>2026-05-01T11:53:51.768Z</time></trkpt><trkpt lat="42.734075" lon="13.647887"><ele>581.75</ele><time>2026-05-01T11:53:52.769Z</time></trkpt><trkpt lat="42.7339418" lon="13.6478242"><ele>580.0</ele><time>2026-05-01T11:53:53.77Z</time></trkpt><trkpt lat="42.733816" lon="13.647743"><ele>580.0</ele><time>2026-05-01T11:53:54.769Z</time></trkpt><trkpt lat="42.7337066" lon="13.6476409"><ele>580.0</ele><time>2026-05-01T11:53:55.769Z</time></trkpt><trkpt lat="42.7336191" lon="13.6475306"><ele>580.0</ele><time>2026-05-01T11:53:56.769Z</time></trkpt><trkpt lat="42.7335414" lon="13.6474356"><ele>580.0</ele><time>2026-05-01T11:53:57.77Z</time></trkpt><trkpt lat="42.7334666" lon="13.6473627"><ele>580.0</ele><time>2026-05-01T11:53:58.77Z</time></trkpt><trkpt lat="42.7333925" lon="13.6473401"><ele>578.25</ele><time>2026-05-01T11:53:59.769Z</time></trkpt><trkpt lat="42.7333218" lon="13.6473491"><ele>576.5</ele><time>2026-05-01T11:54:00.769Z</time></trkpt><trkpt lat="42.7332553" lon="13.6473995"><ele>574.75</ele><time>2026-05-01T11:54:01.768Z</time></trkpt><trkpt lat="42.733253" lon="13.6475483"><ele>573.0</ele><time>2026-05-01T11:54:02.768Z</time></trkpt><trkpt lat="42.7333753" lon="13.6477895"><ele>570.5</ele><time>2026-05-01T11:54:03.769Z</time></trkpt><trkpt lat="42.733377" lon="13.6479621"><ele>568.0</ele><time>2026-05-01T11:54:04.769Z</time></trkpt><trkpt lat="42.7333558" lon="13.6481517"><ele>565.5</ele><time>2026-05-01T11:54:05.768Z</time></trkpt><trkpt lat="42.7333357" lon="13.6483208"><ele>563.0</ele><time>2026-05-01T11:54:06.769Z</time></trkpt><trkpt lat="42.733339" lon="13.6484844"><ele>561.25</ele><time>2026-05-01T11:54:07.768Z</time></trkpt><trkpt lat="42.7333869" lon="13.648632"><ele>559.5</ele><time>2026-05-01T11:54:08.768Z</time></trkpt><trkpt lat="42.7334798" lon="13.6487529"><ele>557.75</ele><time>2026-05-01T11:54:09.769Z</time></trkpt><trkpt lat="42.7335991" lon="13.6488393"><ele>556.0</ele><time>2026-05-01T11:54:10.768Z</time></trkpt><trkpt lat="42.7337198" lon="13.6489404"><ele>556.0</ele><time>2026-05-01T11:54:11.769Z</time></trkpt><trkpt lat="42.7338396" lon="13.6490524"><ele>556.0</ele><time>2026-05-01T11:54:12.768Z</time></trkpt><trkpt lat="42.7339621" lon="13.6491639"><ele>556.0</ele><time>2026-05-01T11:54:13.769Z</time></trkpt><trkpt lat="42.7340867" lon="13.6492894"><ele>556.0</ele><time>2026-05-01T11:54:14.769Z</time></trkpt><trkpt lat="42.7342044" lon="13.6494253"><ele>555.0</ele><time>2026-05-01T11:54:15.768Z</time></trkpt><trkpt lat="42.734313" lon="13.6495583"><ele>554.0</ele><time>2026-05-01T11:54:16.768Z</time></trkpt><trkpt lat="42.7344137" lon="13.6496922"><ele>553.0</ele><time>2026-05-01T11:54:17.769Z</time></trkpt><trkpt lat="42.734516" lon="13.6498244"><ele>552.0</ele><time>2026-05-01T11:54:18.768Z</time></trkpt><trkpt lat="42.7346175" lon="13.6499508"><ele>552.0</ele><time>2026-05-01T11:54:19.769Z</time></trkpt><trkpt lat="42.734714" lon="13.6500645"><ele>552.0</ele><time>2026-05-01T11:54:20.768Z</time></trkpt><trkpt lat="42.7347839" lon="13.6501577"><ele>552.0</ele><time>2026-05-01T11:54:21.768Z</time></trkpt><trkpt lat="42.7348318" lon="13.6502558"><ele>552.0</ele><time>2026-05-01T11:54:22.769Z</time></trkpt><trkpt lat="42.7348448" lon="13.650363"><ele>552.0</ele><time>2026-05-01T11:54:23.768Z</time></trkpt><trkpt lat="42.734815" lon="13.6504562"><ele>550.0</ele><time>2026-05-01T11:54:24.769Z</time></trkpt><trkpt lat="42.7347545" lon="13.6505259"><ele>548.0</ele><time>2026-05-01T11:54:25.768Z</time></trkpt><trkpt lat="42.7346406" lon="13.6505513"><ele>546.0</ele><time>2026-05-01T11:54:26.769Z</time></trkpt><trkpt lat="42.7345141" lon="13.6505457"><ele>544.0</ele><time>2026-05-01T11:54:27.768Z</time></trkpt><trkpt lat="42.734375" lon="13.6505276"><ele>543.0</ele><time>2026-05-01T11:54:28.769Z</time></trkpt><trkpt lat="42.7342383" lon="13.6505181"><ele>542.0</ele><time>2026-05-01T11:54:29.769Z</time></trkpt><trkpt lat="42.7341074" lon="13.6505018"><ele>541.0</ele><time>2026-05-01T11:54:30.768Z</time></trkpt><trkpt lat="42.7339913" lon="13.6504809"><ele>540.0</ele><time>2026-05-01T11:54:31.769Z</time></trkpt><trkpt lat="42.7338871" lon="13.6504812"><ele>540.0</ele><time>2026-05-01T11:54:32.769Z</time></trkpt><trkpt lat="42.7338024" lon="13.6505301"><ele>540.0</ele><time>2026-05-01T11:54:33.77Z</time></trkpt><trkpt lat="42.7337575" lon="13.6506314"><ele>540.0</ele><time>2026-05-01T11:54:34.77Z</time></trkpt><trkpt lat="42.7337426" lon="13.6507763"><ele>540.0</ele><time>2026-05-01T11:54:35.769Z</time></trkpt><trkpt lat="42.7337578" lon="13.6509412"><ele>540.0</ele><time>2026-05-01T11:54:36.769Z</time></trkpt><trkpt lat="42.7337722" lon="13.6511101"><ele>538.75</ele><time>2026-05-01T11:54:37.769Z</time></trkpt><trkpt lat="42.7337842" lon="13.6512745"><ele>537.5</ele><time>2026-05-01T11:54:38.768Z</time></trkpt><trkpt lat="42.7338061" lon="13.651441"><ele>536.25</ele><time>2026-05-01T11:54:39.77Z</time></trkpt><trkpt lat="42.7338397" lon="13.6516009"><ele>535.0</ele><time>2026-05-01T11:54:40.77Z</time></trkpt><trkpt lat="42.7338981" lon="13.6517576"><ele>535.0</ele><time>2026-05-01T11:54:41.77Z</time></trkpt><trkpt lat="42.7339729" lon="13.6519111"><ele>535.0</ele><time>2026-05-01T11:54:42.769Z</time></trkpt><trkpt lat="42.7340457" lon="13.6520766"><ele>535.0</ele><time>2026-05-01T11:54:43.769Z</time></trkpt><trkpt lat="42.7340917" lon="13.6522539"><ele>535.0</ele><time>2026-05-01T11:54:44.769Z</time></trkpt><trkpt lat="42.7341304" lon="13.6524209"><ele>533.0</ele><time>2026-05-01T11:54:45.769Z</time></trkpt><trkpt lat="42.7341578" lon="13.6525865"><ele>531.0</ele><time>2026-05-01T11:54:46.768Z</time></trkpt><trkpt lat="42.7342052" lon="13.652742"><ele>529.0</ele><time>2026-05-01T11:54:47.769Z</time></trkpt><trkpt lat="42.7342865" lon="13.6529006"><ele>527.0</ele><time>2026-05-01T11:54:48.769Z</time></trkpt><trkpt lat="42.7343811" lon="13.6530462"><ele>525.25</ele><time>2026-05-01T11:54:49.769Z</time></trkpt><trkpt lat="42.7344703" lon="13.6531867"><ele>523.5</ele><time>2026-05-01T11:54:50.769Z</time></trkpt><trkpt lat="42.7345551" lon="13.6533071"><ele>521.75</ele><time>2026-05-01T11:54:51.769Z</time></trkpt><trkpt lat="42.7346349" lon="13.6534024"><ele>520.0</ele><time>2026-05-01T11:54:52.768Z</time></trkpt><trkpt lat="42.734727" lon="13.6534501"><ele>520.0</ele><time>2026-05-01T11:54:53.769Z</time></trkpt><trkpt lat="42.7348164" lon="13.653434"><ele>520.0</ele><time>2026-05-01T11:54:54.769Z</time></trkpt><trkpt lat="42.7348989" lon="13.6533504"><ele>520.0</ele><time>2026-05-01T11:54:55.77Z</time></trkpt><trkpt lat="42.7349843" lon="13.6532673"><ele>520.0</ele><time>2026-05-01T11:54:56.77Z</time></trkpt><trkpt lat="42.7350676" lon="13.6531473"><ele>520.0</ele><time>2026-05-01T11:54:57.769Z</time></trkpt><trkpt lat="42.7351824" lon="13.6530808"><ele>519.8</ele><time>2026-05-01T11:54:58.769Z</time></trkpt><trkpt lat="42.7352984" lon="13.6530564"><ele>519.6</ele><time>2026-05-01T11:54:59.77Z</time></trkpt><trkpt lat="42.735399" lon="13.6530331"><ele>519.4</ele><time>2026-05-01T11:55:00.77Z</time></trkpt><trkpt lat="42.7354806" lon="13.6530248"><ele>519.2</ele><time>2026-05-01T11:55:01.77Z</time></trkpt><trkpt lat="42.7355478" lon="13.653068"><ele>519.0</ele><time>2026-05-01T11:55:02.77Z</time></trkpt><trkpt lat="42.7355917" lon="13.6531532"><ele>519.0</ele><time>2026-05-01T11:55:03.769Z</time></trkpt><trkpt lat="42.7356191" lon="13.6532838"><ele>519.0</ele><time>2026-05-01T11:55:04.77Z</time></trkpt><trkpt lat="42.7356367" lon="13.6534474"><ele>519.0</ele><time>2026-05-01T11:55:05.77Z</time></trkpt><trkpt lat="42.7356591" lon="13.653616"><ele>519.0</ele><time>2026-05-01T11:55:06.77Z</time></trkpt><trkpt lat="42.7356836" lon="13.6537709"><ele>516.75</ele><time>2026-05-01T11:55:07.769Z</time></trkpt><trkpt lat="42.7357312" lon="13.6539059"><ele>514.5</ele><time>2026-05-01T11:55:08.77Z</time></trkpt><trkpt lat="42.735832" lon="13.6540118"><ele>512.25</ele><time>2026-05-01T11:55:09.769Z</time></trkpt><trkpt lat="42.7359335" lon="13.6540994"><ele>510.0</ele><time>2026-05-01T11:55:10.769Z</time></trkpt><trkpt lat="42.7360326" lon="13.6541813"><ele>510.75</ele><time>2026-05-01T11:55:11.77Z</time></trkpt><trkpt lat="42.73614" lon="13.6542377"><ele>511.5</ele><time>2026-05-01T11:55:12.77Z</time></trkpt><trkpt lat="42.7362657" lon="13.6542684"><ele>512.25</ele><time>2026-05-01T11:55:13.769Z</time></trkpt><trkpt lat="42.7363888" lon="13.6542899"><ele>513.0</ele><time>2026-05-01T11:55:14.769Z</time></trkpt><trkpt lat="42.7365123" lon="13.6543065"><ele>513.0</ele><time>2026-05-01T11:55:15.769Z</time></trkpt><trkpt lat="42.7366382" lon="13.6543212"><ele>513.0</ele><time>2026-05-01T11:55:16.769Z</time></trkpt><trkpt lat="42.73676" lon="13.6543354"><ele>513.0</ele><time>2026-05-01T11:55:17.77Z</time></trkpt><trkpt lat="42.736872" lon="13.6543541"><ele>513.0</ele><time>2026-05-01T11:55:18.77Z</time></trkpt><trkpt lat="42.7369682" lon="13.6543893"><ele>509.79999999999995</ele><time>2026-05-01T11:55:19.77Z</time></trkpt><trkpt lat="42.7370451" lon="13.6544629"><ele>506.59999999999997</ele><time>2026-05-01T11:55:20.769Z</time></trkpt><trkpt lat="42.737098" lon="13.654562"><ele>503.40000000000003</ele><time>2026-05-01T11:55:21.769Z</time></trkpt><trkpt lat="42.7371186" lon="13.6546939"><ele>500.20000000000005</ele><time>2026-05-01T11:55:22.768Z</time></trkpt><trkpt lat="42.7371004" lon="13.6548483"><ele>497.0</ele><time>2026-05-01T11:55:23.77Z</time></trkpt><trkpt lat="42.7370516" lon="13.6550085"><ele>497.0</ele><time>2026-05-01T11:55:24.77Z</time></trkpt><trkpt lat="42.7369752" lon="13.6551606"><ele>497.0</ele><time>2026-05-01T11:55:25.768Z</time></trkpt><trkpt lat="42.7368983" lon="13.6553114"><ele>497.0</ele><time>2026-05-01T11:55:26.768Z</time></trkpt><trkpt lat="42.7368246" lon="13.6554583"><ele>497.0</ele><time>2026-05-01T11:55:27.768Z</time></trkpt><trkpt lat="42.7367536" lon="13.6556018"><ele>498.75</ele><time>2026-05-01T11:55:28.768Z</time></trkpt><trkpt lat="42.7366814" lon="13.6557297"><ele>500.5</ele><time>2026-05-01T11:55:29.769Z</time></trkpt><trkpt lat="42.7365977" lon="13.65584"><ele>502.25</ele><time>2026-05-01T11:55:30.769Z</time></trkpt><trkpt lat="42.7365027" lon="13.6559271"><ele>504.0</ele><time>2026-05-01T11:55:31.769Z</time></trkpt><trkpt lat="42.7363897" lon="13.6559822"><ele>504.0</ele><time>2026-05-01T11:55:32.768Z</time></trkpt><trkpt lat="42.7362609" lon="13.6560015"><ele>504.0</ele><time>2026-05-01T11:55:33.769Z</time></trkpt><trkpt lat="42.7361373" lon="13.6560116"><ele>504.0</ele><time>2026-05-01T11:55:34.767Z</time></trkpt><trkpt lat="42.7360157" lon="13.6560359"><ele>504.0</ele><time>2026-05-01T11:55:35.768Z</time></trkpt><trkpt lat="42.735911" lon="13.6560972"><ele>500.25</ele><time>2026-05-01T11:55:36.769Z</time></trkpt><trkpt lat="42.7358296" lon="13.6561921"><ele>496.5</ele><time>2026-05-01T11:55:37.769Z</time></trkpt><trkpt lat="42.7357743" lon="13.6563222"><ele>492.75</ele><time>2026-05-01T11:55:38.768Z</time></trkpt><trkpt lat="42.7357481" lon="13.6564752"><ele>489.0</ele><time>2026-05-01T11:55:39.768Z</time></trkpt><trkpt lat="42.7357785" lon="13.6566427"><ele>489.0</ele><time>2026-05-01T11:55:40.769Z</time></trkpt><trkpt lat="42.7358577" lon="13.656794"><ele>489.0</ele><time>2026-05-01T11:55:41.767Z</time></trkpt><trkpt lat="42.7359697" lon="13.656906"><ele>489.0</ele><time>2026-05-01T11:55:42.768Z</time></trkpt><trkpt lat="42.7360864" lon="13.6570023"><ele>489.0</ele><time>2026-05-01T11:55:43.767Z</time></trkpt><trkpt lat="42.7361838" lon="13.6571271"><ele>489.5</ele><time>2026-05-01T11:55:44.768Z</time></trkpt><trkpt lat="42.7362591" lon="13.6572875"><ele>490.0</ele><time>2026-05-01T11:55:45.769Z</time></trkpt><trkpt lat="42.7363037" lon="13.6574713"><ele>490.5</ele><time>2026-05-01T11:55:46.769Z</time></trkpt><trkpt lat="42.7363251" lon="13.6576829"><ele>491.0</ele><time>2026-05-01T11:55:47.769Z</time></trkpt><trkpt lat="42.7363335" lon="13.657911"><ele>488.0</ele><time>2026-05-01T11:55:48.769Z</time></trkpt><trkpt lat="42.7363395" lon="13.6581393"><ele>485.0</ele><time>2026-05-01T11:55:49.768Z</time></trkpt><trkpt lat="42.7363476" lon="13.6583674"><ele>482.0</ele><time>2026-05-01T11:55:50.769Z</time></trkpt><trkpt lat="42.7363524" lon="13.6585872"><ele>481.0</ele><time>2026-05-01T11:55:51.768Z</time></trkpt><trkpt lat="42.7363574" lon="13.6588024"><ele>480.0</ele><time>2026-05-01T11:55:52.769Z</time></trkpt><trkpt lat="42.7363641" lon="13.6590029"><ele>479.0</ele><time>2026-05-01T11:55:53.768Z</time></trkpt><trkpt lat="42.7363507" lon="13.6591899"><ele>478.0</ele><time>2026-05-01T11:55:54.769Z</time></trkpt><trkpt lat="42.7363091" lon="13.6593646"><ele>476.0</ele><time>2026-05-01T11:55:55.768Z</time></trkpt><trkpt lat="42.7362481" lon="13.6595191"><ele>474.0</ele><time>2026-05-01T11:55:56.769Z</time></trkpt><trkpt lat="42.7361555" lon="13.6596581"><ele>472.0</ele><time>2026-05-01T11:55:57.768Z</time></trkpt><trkpt lat="42.736034" lon="13.6597737"><ele>470.0</ele><time>2026-05-01T11:55:58.768Z</time></trkpt><trkpt lat="42.7358978" lon="13.6598905"><ele>470.0</ele><time>2026-05-01T11:55:59.768Z</time></trkpt><trkpt lat="42.7357587" lon="13.660011"><ele>470.0</ele><time>2026-05-01T11:56:00.767Z</time></trkpt><trkpt lat="42.7356231" lon="13.6601246"><ele>470.0</ele><time>2026-05-01T11:56:01.768Z</time></trkpt><trkpt lat="42.7354929" lon="13.6602438"><ele>468.5</ele><time>2026-05-01T11:56:02.769Z</time></trkpt><trkpt lat="42.7353673" lon="13.6603544"><ele>467.0</ele><time>2026-05-01T11:56:03.768Z</time></trkpt><trkpt lat="42.7352435" lon="13.6604646"><ele>465.5</ele><time>2026-05-01T11:56:04.768Z</time></trkpt><trkpt lat="42.7351243" lon="13.6605576"><ele>464.0</ele><time>2026-05-01T11:56:05.768Z</time></trkpt><trkpt lat="42.7350093" lon="13.6606486"><ele>463.6</ele><time>2026-05-01T11:56:06.768Z</time></trkpt><trkpt lat="42.7349074" lon="13.6607339"><ele>463.2</ele><time>2026-05-01T11:56:07.768Z</time></trkpt><trkpt lat="42.7348087" lon="13.660806"><ele>462.80000000000007</ele><time>2026-05-01T11:56:08.768Z</time></trkpt><trkpt lat="42.734716" lon="13.6608719"><ele>462.40000000000003</ele><time>2026-05-01T11:56:09.768Z</time></trkpt><trkpt lat="42.7346383" lon="13.6609412"><ele>462.0</ele><time>2026-05-01T11:56:10.768Z</time></trkpt><trkpt lat="42.7345707" lon="13.6610027"><ele>462.0</ele><time>2026-05-01T11:56:11.769Z</time></trkpt><trkpt lat="42.7345086" lon="13.6610505"><ele>462.0</ele><time>2026-05-01T11:56:12.769Z</time></trkpt><trkpt lat="42.7344235" lon="13.6611319"><ele>462.0</ele><time>2026-05-01T11:56:14.768Z</time></trkpt><trkpt lat="42.734394" lon="13.661211"><ele>462.0</ele><time>2026-05-01T11:56:16.768Z</time></trkpt><trkpt lat="42.7344036" lon="13.6613088"><ele>462.0</ele><time>2026-05-01T11:56:53.767Z</time></trkpt><trkpt lat="42.7345266" lon="13.6613538"><ele>462.0</ele><time>2026-05-01T11:56:55.768Z</time></trkpt><trkpt lat="42.7346148" lon="13.6613538"><ele>460.33333333333337</ele><time>2026-05-01T11:56:56.769Z</time></trkpt><trkpt lat="42.7347486" lon="13.6613503"><ele>458.6666666666667</ele><time>2026-05-01T11:56:57.768Z</time></trkpt><trkpt lat="42.7349022" lon="13.6613463"><ele>457.0</ele><time>2026-05-01T11:56:58.768Z</time></trkpt><trkpt lat="42.7350732" lon="13.6613347"><ele>456.6666666666667</ele><time>2026-05-01T11:56:59.768Z</time></trkpt><trkpt lat="42.7352465" lon="13.6613147"><ele>456.33333333333337</ele><time>2026-05-01T11:57:00.768Z</time></trkpt><trkpt lat="42.7354313" lon="13.6612879"><ele>456.0</ele><time>2026-05-01T11:57:01.767Z</time></trkpt><trkpt lat="42.7356121" lon="13.661247"><ele>456.0</ele><time>2026-05-01T11:57:02.768Z</time></trkpt><trkpt lat="42.7357768" lon="13.6611881"><ele>456.0</ele><time>2026-05-01T11:57:03.769Z</time></trkpt><trkpt lat="42.7359427" lon="13.6611006"><ele>456.0</ele><time>2026-05-01T11:57:04.768Z</time></trkpt><trkpt lat="42.7361012" lon="13.6609774"><ele>455.66666666666663</ele><time>2026-05-01T11:57:05.768Z</time></trkpt><trkpt lat="42.7362532" lon="13.660823"><ele>455.3333333333333</ele><time>2026-05-01T11:57:06.769Z</time></trkpt><trkpt lat="42.7363913" lon="13.6606396"><ele>455.0</ele><time>2026-05-01T11:57:07.769Z</time></trkpt><trkpt lat="42.7365143" lon="13.6604273"><ele>460.0</ele><time>2026-05-01T11:57:08.768Z</time></trkpt><trkpt lat="42.7366365" lon="13.6601738"><ele>465.0</ele><time>2026-05-01T11:57:09.768Z</time></trkpt><trkpt lat="42.7367537" lon="13.6599004"><ele>465.0</ele><time>2026-05-01T11:57:10.768Z</time></trkpt><trkpt lat="42.7368681" lon="13.6596199"><ele>465.0</ele><time>2026-05-01T11:57:11.769Z</time></trkpt><trkpt lat="42.7369829" lon="13.6593514"><ele>466.33333333333337</ele><time>2026-05-01T11:57:12.769Z</time></trkpt><trkpt lat="42.7370924" lon="13.6590959"><ele>467.6666666666667</ele><time>2026-05-01T11:57:13.767Z</time></trkpt><trkpt lat="42.7371979" lon="13.6588502"><ele>469.0</ele><time>2026-05-01T11:57:14.767Z</time></trkpt><trkpt lat="42.7373016" lon="13.6586172"><ele>469.0</ele><time>2026-05-01T11:57:15.768Z</time></trkpt><trkpt lat="42.737412" lon="13.6584009"><ele>469.0</ele><time>2026-05-01T11:57:16.768Z</time></trkpt><trkpt lat="42.7375334" lon="13.6581892"><ele>469.0</ele><time>2026-05-01T11:57:17.768Z</time></trkpt><trkpt lat="42.7376636" lon="13.6579878"><ele>466.0</ele><time>2026-05-01T11:57:18.768Z</time></trkpt><trkpt lat="42.7378018" lon="13.6577946"><ele>463.0</ele><time>2026-05-01T11:57:19.768Z</time></trkpt><trkpt lat="42.7379539" lon="13.6576044"><ele>460.0</ele><time>2026-05-01T11:57:20.767Z</time></trkpt><trkpt lat="42.7381112" lon="13.6574221"><ele>460.0</ele><time>2026-05-01T11:57:21.768Z</time></trkpt><trkpt lat="42.7382698" lon="13.6572399"><ele>460.0</ele><time>2026-05-01T11:57:22.768Z</time></trkpt><trkpt lat="42.7384277" lon="13.6570533"><ele>460.0</ele><time>2026-05-01T11:57:23.768Z</time></trkpt><trkpt lat="42.7385818" lon="13.656867"><ele>461.0</ele><time>2026-05-01T11:57:24.768Z</time></trkpt><trkpt lat="42.7387363" lon="13.6566841"><ele>462.0</ele><time>2026-05-01T11:57:25.769Z</time></trkpt><trkpt lat="42.7388902" lon="13.6565058"><ele>463.0</ele><time>2026-05-01T11:57:26.767Z</time></trkpt><trkpt lat="42.7390339" lon="13.6563355"><ele>463.0</ele><time>2026-05-01T11:57:27.768Z</time></trkpt><trkpt lat="42.7391676" lon="13.6561891"><ele>463.0</ele><time>2026-05-01T11:57:28.768Z</time></trkpt><trkpt lat="42.7392975" lon="13.6560727"><ele>463.0</ele><time>2026-05-01T11:57:29.768Z</time></trkpt><trkpt lat="42.739434" lon="13.6559948"><ele>462.0</ele><time>2026-05-01T11:57:30.769Z</time></trkpt><trkpt lat="42.7395856" lon="13.6559455"><ele>461.0</ele><time>2026-05-01T11:57:31.767Z</time></trkpt><trkpt lat="42.7397471" lon="13.6559233"><ele>460.0</ele><time>2026-05-01T11:57:32.769Z</time></trkpt><trkpt lat="42.7399009" lon="13.6559197"><ele>460.0</ele><time>2026-05-01T11:57:33.767Z</time></trkpt><trkpt lat="42.7400369" lon="13.655919"><ele>460.0</ele><time>2026-05-01T11:57:34.769Z</time></trkpt><trkpt lat="42.740162" lon="13.6559335"><ele>460.0</ele><time>2026-05-01T11:57:35.768Z</time></trkpt><trkpt lat="42.7402739" lon="13.6559782"><ele>460.0</ele><time>2026-05-01T11:57:36.769Z</time></trkpt><trkpt lat="42.7403603" lon="13.656066"><ele>464.0</ele><time>2026-05-01T11:57:37.768Z</time></trkpt><trkpt lat="42.7404345" lon="13.6561986"><ele>468.0</ele><time>2026-05-01T11:57:38.768Z</time></trkpt><trkpt lat="42.7404702" lon="13.6563704"><ele>472.0</ele><time>2026-05-01T11:57:39.767Z</time></trkpt><trkpt lat="42.7404706" lon="13.6565278"><ele>476.0</ele><time>2026-05-01T11:57:40.768Z</time></trkpt><trkpt lat="42.7404347" lon="13.6566758"><ele>476.0</ele><time>2026-05-01T11:57:41.767Z</time></trkpt><trkpt lat="42.7403522" lon="13.6568209"><ele>476.0</ele><time>2026-05-01T11:57:42.769Z</time></trkpt><trkpt lat="42.7402461" lon="13.6569488"><ele>476.0</ele><time>2026-05-01T11:57:43.767Z</time></trkpt><trkpt lat="42.7401419" lon="13.657086"><ele>476.0</ele><time>2026-05-01T11:57:44.767Z</time></trkpt><trkpt lat="42.7400449" lon="13.6572099"><ele>471.66666666666663</ele><time>2026-05-01T11:57:45.767Z</time></trkpt><trkpt lat="42.7399592" lon="13.6573436"><ele>467.33333333333337</ele><time>2026-05-01T11:57:46.767Z</time></trkpt><trkpt lat="42.7399178" lon="13.6575426"><ele>463.0</ele><time>2026-05-01T11:57:47.768Z</time></trkpt><trkpt lat="42.7401045" lon="13.6577426"><ele>464.0</ele><time>2026-05-01T11:57:48.769Z</time></trkpt><trkpt lat="42.7401449" lon="13.6578945"><ele>465.0</ele><time>2026-05-01T11:57:49.769Z</time></trkpt><trkpt lat="42.7402424" lon="13.6580076"><ele>466.0</ele><time>2026-05-01T11:57:50.769Z</time></trkpt><trkpt lat="42.7403521" lon="13.6581425"><ele>467.0</ele><time>2026-05-01T11:57:51.768Z</time></trkpt><trkpt lat="42.7405616" lon="13.6582117"><ele>467.0</ele><time>2026-05-01T11:57:52.769Z</time></trkpt><trkpt lat="42.740762" lon="13.6582466"><ele>467.0</ele><time>2026-05-01T11:57:53.767Z</time></trkpt><trkpt lat="42.7409456" lon="13.6581981"><ele>467.0</ele><time>2026-05-01T11:57:54.768Z</time></trkpt><trkpt lat="42.741134" lon="13.6580728"><ele>468.0</ele><time>2026-05-01T11:57:55.768Z</time></trkpt><trkpt lat="42.7413066" lon="13.6580496"><ele>469.0</ele><time>2026-05-01T11:57:56.769Z</time></trkpt><trkpt lat="42.7414595" lon="13.6580448"><ele>470.0</ele><time>2026-05-01T11:57:57.767Z</time></trkpt><trkpt lat="42.7416053" lon="13.6581029"><ele>470.0</ele><time>2026-05-01T11:57:58.767Z</time></trkpt><trkpt lat="42.7417407" lon="13.6582027"><ele>470.0</ele><time>2026-05-01T11:57:59.767Z</time></trkpt><trkpt lat="42.7418499" lon="13.6583034"><ele>470.0</ele><time>2026-05-01T11:58:00.768Z</time></trkpt><trkpt lat="42.7419328" lon="13.6583745"><ele>470.0</ele><time>2026-05-01T11:58:01.767Z</time></trkpt><trkpt lat="42.7419948" lon="13.658433"><ele>469.99999999999994</ele><time>2026-05-01T11:58:02.767Z</time></trkpt><trkpt lat="42.7420676" lon="13.6584935"><ele>470.0</ele><time>2026-05-01T11:58:04.768Z</time></trkpt><trkpt lat="42.742059" lon="13.6584078"><ele>470.0</ele><time>2026-05-01T11:58:08.769Z</time></trkpt><trkpt lat="42.7419777" lon="13.6583286"><ele>470.0</ele><time>2026-05-01T11:58:10.768Z</time></trkpt><trkpt lat="42.7418976" lon="13.65825"><ele>469.99999999999994</ele><time>2026-05-01T11:58:12.769Z</time></trkpt><trkpt lat="42.741822" lon="13.658176"><ele>470.0</ele><time>2026-05-01T11:58:14.769Z</time></trkpt><trkpt lat="42.7417348" lon="13.658092"><ele>470.0</ele><time>2026-05-01T11:58:16.768Z</time></trkpt><trkpt lat="42.7416768" lon="13.6580411"><ele>470.0</ele><time>2026-05-01T11:58:17.767Z</time></trkpt><trkpt lat="42.7416002" lon="13.6579871"><ele>470.0</ele><time>2026-05-01T11:58:18.767Z</time></trkpt><trkpt lat="42.7415064" lon="13.6579508"><ele>470.0</ele><time>2026-05-01T11:58:19.768Z</time></trkpt><trkpt lat="42.7413883" lon="13.6579597"><ele>470.0</ele><time>2026-05-01T11:58:20.769Z</time></trkpt><trkpt lat="42.7412534" lon="13.6579996"><ele>470.0</ele><time>2026-05-01T11:58:21.768Z</time></trkpt><trkpt lat="42.741098" lon="13.6580419"><ele>470.0</ele><time>2026-05-01T11:58:22.767Z</time></trkpt><trkpt lat="42.7409354" lon="13.6580623"><ele>470.0</ele><time>2026-05-01T11:58:23.768Z</time></trkpt><trkpt lat="42.7407662" lon="13.6580775"><ele>469.25</ele><time>2026-05-01T11:58:24.768Z</time></trkpt><trkpt lat="42.7406169" lon="13.658038"><ele>468.5</ele><time>2026-05-01T11:58:25.767Z</time></trkpt><trkpt lat="42.7404723" lon="13.658021"><ele>467.75</ele><time>2026-05-01T11:58:26.768Z</time></trkpt><trkpt lat="42.7403454" lon="13.6579798"><ele>467.0</ele><time>2026-05-01T11:58:27.768Z</time></trkpt><trkpt lat="42.7402459" lon="13.6578731"><ele>466.20000000000005</ele><time>2026-05-01T11:58:28.768Z</time></trkpt><trkpt lat="42.7401586" lon="13.6577821"><ele>465.40000000000003</ele><time>2026-05-01T11:58:29.767Z</time></trkpt><trkpt lat="42.7400961" lon="13.6576667"><ele>464.59999999999997</ele><time>2026-05-01T11:58:30.768Z</time></trkpt><trkpt lat="42.7400448" lon="13.6575489"><ele>463.79999999999995</ele><time>2026-05-01T11:58:31.768Z</time></trkpt><trkpt lat="42.74005" lon="13.657419"><ele>463.0</ele><time>2026-05-01T11:58:32.767Z</time></trkpt><trkpt lat="42.7400797" lon="13.6572918"><ele>463.0</ele><time>2026-05-01T11:58:33.767Z</time></trkpt><trkpt lat="42.7401148" lon="13.6571782"><ele>462.99999999999994</ele><time>2026-05-01T11:58:34.767Z</time></trkpt><trkpt lat="42.7401754" lon="13.6570816"><ele>462.99999999999994</ele><time>2026-05-01T11:58:35.767Z</time></trkpt><trkpt lat="42.7402408" lon="13.6569757"><ele>463.0</ele><time>2026-05-01T11:58:36.766Z</time></trkpt><trkpt lat="42.7403178" lon="13.65688"><ele>463.0</ele><time>2026-05-01T11:58:37.766Z</time></trkpt><trkpt lat="42.7403902" lon="13.6567821"><ele>465.59999999999997</ele><time>2026-05-01T11:58:38.767Z</time></trkpt><trkpt lat="42.7404498" lon="13.6566739"><ele>468.19999999999993</ele><time>2026-05-01T11:58:39.766Z</time></trkpt><trkpt lat="42.7404848" lon="13.6565459"><ele>470.8</ele><time>2026-05-01T11:58:40.767Z</time></trkpt><trkpt lat="42.7404957" lon="13.6564206"><ele>473.4</ele><time>2026-05-01T11:58:41.766Z</time></trkpt><trkpt lat="42.7404884" lon="13.6562861"><ele>476.0</ele><time>2026-05-01T11:58:42.766Z</time></trkpt><trkpt lat="42.7404623" lon="13.6561559"><ele>474.4</ele><time>2026-05-01T11:58:43.767Z</time></trkpt><trkpt lat="42.7404143" lon="13.6560424"><ele>472.8</ele><time>2026-05-01T11:58:44.766Z</time></trkpt><trkpt lat="42.7403456" lon="13.6559544"><ele>471.19999999999993</ele><time>2026-05-01T11:58:45.766Z</time></trkpt><trkpt lat="42.7402718" lon="13.6558793"><ele>469.59999999999997</ele><time>2026-05-01T11:58:46.767Z</time></trkpt><trkpt lat="42.7401742" lon="13.6558748"><ele>468.0</ele><time>2026-05-01T11:58:47.768Z</time></trkpt><trkpt lat="42.740071" lon="13.6558708"><ele>466.4</ele><time>2026-05-01T11:58:48.767Z</time></trkpt><trkpt lat="42.7399671" lon="13.6558648"><ele>464.79999999999995</ele><time>2026-05-01T11:58:49.767Z</time></trkpt><trkpt lat="42.7398536" lon="13.6558583"><ele>463.2</ele><time>2026-05-01T11:58:50.766Z</time></trkpt><trkpt lat="42.7397452" lon="13.6558579"><ele>461.6</ele><time>2026-05-01T11:58:51.768Z</time></trkpt><trkpt lat="42.7396224" lon="13.6558668"><ele>460.0</ele><time>2026-05-01T11:58:52.767Z</time></trkpt><trkpt lat="42.7394855" lon="13.6559097"><ele>461.0</ele><time>2026-05-01T11:58:53.768Z</time></trkpt><trkpt lat="42.7393422" lon="13.6559932"><ele>462.0</ele><time>2026-05-01T11:58:54.767Z</time></trkpt><trkpt lat="42.7391811" lon="13.656132"><ele>463.0</ele><time>2026-05-01T11:58:55.766Z</time></trkpt><trkpt lat="42.7390124" lon="13.6562805"><ele>463.0</ele><time>2026-05-01T11:58:56.767Z</time></trkpt><trkpt lat="42.7388397" lon="13.6564979"><ele>463.0</ele><time>2026-05-01T11:58:57.768Z</time></trkpt><trkpt lat="42.7386541" lon="13.656718"><ele>461.5</ele><time>2026-05-01T11:58:58.767Z</time></trkpt><trkpt lat="42.7384674" lon="13.6569415"><ele>460.0</ele><time>2026-05-01T11:58:59.768Z</time></trkpt><trkpt lat="42.7382813" lon="13.6571595"><ele>460.0</ele><time>2026-05-01T11:59:00.766Z</time></trkpt><trkpt lat="42.738105" lon="13.6573679"><ele>460.0</ele><time>2026-05-01T11:59:01.766Z</time></trkpt><trkpt lat="42.7379373" lon="13.6575636"><ele>460.0</ele><time>2026-05-01T11:59:02.767Z</time></trkpt><trkpt lat="42.7377803" lon="13.6577629"><ele>460.0</ele><time>2026-05-01T11:59:03.766Z</time></trkpt><trkpt lat="42.7376335" lon="13.6579713"><ele>460.0</ele><time>2026-05-01T11:59:04.768Z</time></trkpt><trkpt lat="42.7374953" lon="13.6581989"><ele>458.6666666666667</ele><time>2026-05-01T11:59:05.766Z</time></trkpt><trkpt lat="42.7373653" lon="13.6584388"><ele>457.33333333333337</ele><time>2026-05-01T11:59:06.766Z</time></trkpt><trkpt lat="42.7372467" lon="13.6586867"><ele>456.0</ele><time>2026-05-01T11:59:07.767Z</time></trkpt><trkpt lat="42.7371335" lon="13.6589447"><ele>456.0</ele><time>2026-05-01T11:59:08.767Z</time></trkpt><trkpt lat="42.7370267" lon="13.6592091"><ele>456.0</ele><time>2026-05-01T11:59:09.768Z</time></trkpt><trkpt lat="42.7369171" lon="13.6594657"><ele>456.0</ele><time>2026-05-01T11:59:10.767Z</time></trkpt><trkpt lat="42.736815" lon="13.6597084"><ele>455.66666666666663</ele><time>2026-05-01T11:59:11.767Z</time></trkpt><trkpt lat="42.7367135" lon="13.6599372"><ele>455.3333333333333</ele><time>2026-05-01T11:59:12.766Z</time></trkpt><trkpt lat="42.7366211" lon="13.660157"><ele>455.0</ele><time>2026-05-01T11:59:13.767Z</time></trkpt><trkpt lat="42.7365275" lon="13.6603629"><ele>455.0</ele><time>2026-05-01T11:59:14.768Z</time></trkpt><trkpt lat="42.7364221" lon="13.6605646"><ele>455.0</ele><time>2026-05-01T11:59:15.766Z</time></trkpt><trkpt lat="42.7362915" lon="13.6607472"><ele>455.0</ele><time>2026-05-01T11:59:16.766Z</time></trkpt><trkpt lat="42.736142" lon="13.6608997"><ele>455.3333333333333</ele><time>2026-05-01T11:59:17.768Z</time></trkpt><trkpt lat="42.735991" lon="13.6610238"><ele>455.66666666666663</ele><time>2026-05-01T11:59:18.768Z</time></trkpt><trkpt lat="42.7358373" lon="13.6611126"><ele>456.0</ele><time>2026-05-01T11:59:19.767Z</time></trkpt><trkpt lat="42.735683" lon="13.6611735"><ele>456.0</ele><time>2026-05-01T11:59:20.766Z</time></trkpt><trkpt lat="42.7355338" lon="13.6612057"><ele>456.0</ele><time>2026-05-01T11:59:21.767Z</time></trkpt><trkpt lat="42.735388" lon="13.6612227"><ele>456.0</ele><time>2026-05-01T11:59:22.767Z</time></trkpt><trkpt lat="42.7352511" lon="13.6612502"><ele>456.0</ele><time>2026-05-01T11:59:23.767Z</time></trkpt><trkpt lat="42.7351215" lon="13.6612732"><ele>456.20000000000005</ele><time>2026-05-01T11:59:24.767Z</time></trkpt><trkpt lat="42.7349965" lon="13.6612902"><ele>456.40000000000003</ele><time>2026-05-01T11:59:25.768Z</time></trkpt><trkpt lat="42.7348791" lon="13.6612869"><ele>456.6</ele><time>2026-05-01T11:59:26.767Z</time></trkpt><trkpt lat="42.7347777" lon="13.6612518"><ele>456.8</ele><time>2026-05-01T11:59:27.766Z</time></trkpt><trkpt lat="42.734692" lon="13.6611883"><ele>457.0</ele><time>2026-05-01T11:59:28.767Z</time></trkpt><trkpt lat="42.7346137" lon="13.6611171"><ele>457.0</ele><time>2026-05-01T11:59:29.767Z</time></trkpt><trkpt lat="42.7345378" lon="13.6610955"><ele>457.00000000000006</ele><time>2026-05-01T11:59:30.767Z</time></trkpt><trkpt lat="42.7344586" lon="13.6611238"><ele>457.00000000000006</ele><time>2026-05-01T11:59:31.767Z</time></trkpt><trkpt lat="42.7343617" lon="13.6611983"><ele>457.0</ele><time>2026-05-01T11:59:32.768Z</time></trkpt><trkpt lat="42.7342532" lon="13.6612899"><ele>457.0</ele><time>2026-05-01T11:59:33.767Z</time></trkpt><trkpt lat="42.7341157" lon="13.6613676"><ele>455.0</ele><time>2026-05-01T11:59:34.767Z</time></trkpt><trkpt lat="42.7339448" lon="13.6614191"><ele>453.0</ele><time>2026-05-01T11:59:35.767Z</time></trkpt><trkpt lat="42.7337579" lon="13.6614583"><ele>451.0</ele><time>2026-05-01T11:59:36.767Z</time></trkpt><trkpt lat="42.7335485" lon="13.6615142"><ele>446.5</ele><time>2026-05-01T11:59:37.767Z</time></trkpt><trkpt lat="42.7333235" lon="13.6615827"><ele>442.0</ele><time>2026-05-01T11:59:38.768Z</time></trkpt><trkpt lat="42.7330892" lon="13.6616492"><ele>442.0</ele><time>2026-05-01T11:59:39.767Z</time></trkpt><trkpt lat="42.7328447" lon="13.6617163"><ele>442.0</ele><time>2026-05-01T11:59:40.767Z</time></trkpt><trkpt lat="42.7326086" lon="13.6617886"><ele>446.33333333333337</ele><time>2026-05-01T11:59:41.767Z</time></trkpt><trkpt lat="42.73239" lon="13.6618621"><ele>450.66666666666663</ele><time>2026-05-01T11:59:42.766Z</time></trkpt><trkpt lat="42.7321782" lon="13.6619359"><ele>455.0</ele><time>2026-05-01T11:59:43.767Z</time></trkpt><trkpt lat="42.7319692" lon="13.6620055"><ele>454.66666666666663</ele><time>2026-05-01T11:59:44.767Z</time></trkpt><trkpt lat="42.7317581" lon="13.6620751"><ele>454.33333333333337</ele><time>2026-05-01T11:59:45.766Z</time></trkpt><trkpt lat="42.73155" lon="13.6621497"><ele>454.0</ele><time>2026-05-01T11:59:46.766Z</time></trkpt><trkpt lat="42.7313479" lon="13.6622254"><ele>454.0</ele><time>2026-05-01T11:59:47.766Z</time></trkpt><trkpt lat="42.7311493" lon="13.6622978"><ele>454.0</ele><time>2026-05-01T11:59:48.767Z</time></trkpt><trkpt lat="42.7309516" lon="13.6623658"><ele>454.0</ele><time>2026-05-01T11:59:49.767Z</time></trkpt><trkpt lat="42.7307546" lon="13.662431"><ele>454.6666666666667</ele><time>2026-05-01T11:59:50.766Z</time></trkpt><trkpt lat="42.7305584" lon="13.662498"><ele>455.33333333333337</ele><time>2026-05-01T11:59:51.768Z</time></trkpt><trkpt lat="42.7303643" lon="13.6625628"><ele>456.0</ele><time>2026-05-01T11:59:52.767Z</time></trkpt><trkpt lat="42.7301802" lon="13.6626261"><ele>457.0</ele><time>2026-05-01T11:59:53.768Z</time></trkpt><trkpt lat="42.7300046" lon="13.6626842"><ele>458.0</ele><time>2026-05-01T11:59:54.767Z</time></trkpt><trkpt lat="42.7298367" lon="13.6627411"><ele>459.0</ele><time>2026-05-01T11:59:55.767Z</time></trkpt><trkpt lat="42.7296779" lon="13.6627942"><ele>457.66666666666663</ele><time>2026-05-01T11:59:56.766Z</time></trkpt><trkpt lat="42.7295195" lon="13.6628395"><ele>456.3333333333333</ele><time>2026-05-01T11:59:57.767Z</time></trkpt><trkpt lat="42.7293572" lon="13.6628618"><ele>455.0</ele><time>2026-05-01T11:59:58.768Z</time></trkpt><trkpt lat="42.7291922" lon="13.6628675"><ele>455.0</ele><time>2026-05-01T11:59:59.767Z</time></trkpt><trkpt lat="42.7290155" lon="13.66288"><ele>455.0</ele><time>2026-05-01T12:00:00.768Z</time></trkpt><trkpt lat="42.7288301" lon="13.6628868"><ele>455.0</ele><time>2026-05-01T12:00:01.767Z</time></trkpt><trkpt lat="42.7286426" lon="13.6628969"><ele>456.66666666666663</ele><time>2026-05-01T12:00:02.767Z</time></trkpt><trkpt lat="42.7284578" lon="13.6629063"><ele>458.33333333333337</ele><time>2026-05-01T12:00:03.766Z</time></trkpt><trkpt lat="42.7282738" lon="13.6629096"><ele>460.0</ele><time>2026-05-01T12:00:04.768Z</time></trkpt><trkpt lat="42.7280974" lon="13.6629222"><ele>460.0</ele><time>2026-05-01T12:00:05.768Z</time></trkpt><trkpt lat="42.7279222" lon="13.6629287"><ele>460.0</ele><time>2026-05-01T12:00:06.766Z</time></trkpt><trkpt lat="42.7277428" lon="13.6629199"><ele>460.0</ele><time>2026-05-01T12:00:07.767Z</time></trkpt><trkpt lat="42.7275517" lon="13.662892"><ele>461.33333333333337</ele><time>2026-05-01T12:00:08.767Z</time></trkpt><trkpt lat="42.7273556" lon="13.6628596"><ele>462.66666666666663</ele><time>2026-05-01T12:00:09.767Z</time></trkpt><trkpt lat="42.7271434" lon="13.6628271"><ele>464.0</ele><time>2026-05-01T12:00:10.767Z</time></trkpt><trkpt lat="42.7269068" lon="13.6627908"><ele>467.0</ele><time>2026-05-01T12:00:11.766Z</time></trkpt><trkpt lat="42.7266609" lon="13.662751"><ele>470.0</ele><time>2026-05-01T12:00:12.767Z</time></trkpt><trkpt lat="42.7264189" lon="13.6627092"><ele>470.0</ele><time>2026-05-01T12:00:13.767Z</time></trkpt><trkpt lat="42.7261914" lon="13.6626695"><ele>470.0</ele><time>2026-05-01T12:00:14.766Z</time></trkpt><trkpt lat="42.7259749" lon="13.662635"><ele>470.0</ele><time>2026-05-01T12:00:15.767Z</time></trkpt><trkpt lat="42.7257618" lon="13.6626012"><ele>470.3333333333333</ele><time>2026-05-01T12:00:16.767Z</time></trkpt><trkpt lat="42.7255586" lon="13.662566"><ele>470.66666666666663</ele><time>2026-05-01T12:00:17.768Z</time></trkpt><trkpt lat="42.7253579" lon="13.662531"><ele>471.0</ele><time>2026-05-01T12:00:18.768Z</time></trkpt><trkpt lat="42.7251626" lon="13.6624946"><ele>471.33333333333337</ele><time>2026-05-01T12:00:19.766Z</time></trkpt><trkpt lat="42.7249684" lon="13.6624594"><ele>471.6666666666667</ele><time>2026-05-01T12:00:20.766Z</time></trkpt><trkpt lat="42.7247736" lon="13.6624263"><ele>472.0</ele><time>2026-05-01T12:00:21.767Z</time></trkpt><trkpt lat="42.7245805" lon="13.6623964"><ele>472.6666666666667</ele><time>2026-05-01T12:00:22.768Z</time></trkpt><trkpt lat="42.724387" lon="13.6623656"><ele>473.33333333333337</ele><time>2026-05-01T12:00:23.767Z</time></trkpt><trkpt lat="42.7241886" lon="13.6623353"><ele>474.0</ele><time>2026-05-01T12:00:24.766Z</time></trkpt><trkpt lat="42.7239897" lon="13.6623058"><ele>474.0</ele><time>2026-05-01T12:00:25.766Z</time></trkpt><trkpt lat="42.7237931" lon="13.6622707"><ele>474.0</ele><time>2026-05-01T12:00:26.766Z</time></trkpt><trkpt lat="42.7235964" lon="13.6622374"><ele>474.0</ele><time>2026-05-01T12:00:27.767Z</time></trkpt><trkpt lat="42.7234152" lon="13.6622047"><ele>474.66666666666663</ele><time>2026-05-01T12:00:28.768Z</time></trkpt><trkpt lat="42.7232405" lon="13.6621783"><ele>475.3333333333333</ele><time>2026-05-01T12:00:29.766Z</time></trkpt><trkpt lat="42.7230661" lon="13.6621572"><ele>476.0</ele><time>2026-05-01T12:00:30.767Z</time></trkpt><trkpt lat="42.7228955" lon="13.6621153"><ele>476.66666666666663</ele><time>2026-05-01T12:00:31.767Z</time></trkpt><trkpt lat="42.7227271" lon="13.6620416"><ele>477.33333333333337</ele><time>2026-05-01T12:00:32.768Z</time></trkpt><trkpt lat="42.7225599" lon="13.6619331"><ele>478.0</ele><time>2026-05-01T12:00:33.768Z</time></trkpt><trkpt lat="42.7223931" lon="13.6617982"><ele>480.0</ele><time>2026-05-01T12:00:34.767Z</time></trkpt><trkpt lat="42.7222308" lon="13.6616434"><ele>482.0</ele><time>2026-05-01T12:00:35.767Z</time></trkpt><trkpt lat="42.7220709" lon="13.6614858"><ele>484.0</ele><time>2026-05-01T12:00:36.766Z</time></trkpt><trkpt lat="42.721916" lon="13.6613422"><ele>484.6666666666667</ele><time>2026-05-01T12:00:37.766Z</time></trkpt><trkpt lat="42.721757" lon="13.6612121"><ele>485.33333333333337</ele><time>2026-05-01T12:00:38.767Z</time></trkpt><trkpt lat="42.7215848" lon="13.6611024"><ele>486.0</ele><time>2026-05-01T12:00:39.766Z</time></trkpt><trkpt lat="42.7214034" lon="13.6610111"><ele>486.0</ele><time>2026-05-01T12:00:40.767Z</time></trkpt><trkpt lat="42.7212149" lon="13.6609276"><ele>486.0</ele><time>2026-05-01T12:00:41.767Z</time></trkpt><trkpt lat="42.7210219" lon="13.6608559"><ele>486.0</ele><time>2026-05-01T12:00:42.766Z</time></trkpt><trkpt lat="42.7208249" lon="13.6607826"><ele>485.66666666666663</ele><time>2026-05-01T12:00:43.766Z</time></trkpt><trkpt lat="42.7206234" lon="13.6607094"><ele>485.3333333333333</ele><time>2026-05-01T12:00:44.767Z</time></trkpt><trkpt lat="42.7204176" lon="13.6606365"><ele>485.0</ele><time>2026-05-01T12:00:45.768Z</time></trkpt><trkpt lat="42.7202103" lon="13.6605644"><ele>485.0</ele><time>2026-05-01T12:00:46.768Z</time></trkpt><trkpt lat="42.7200042" lon="13.660499"><ele>485.0</ele><time>2026-05-01T12:00:47.767Z</time></trkpt><trkpt lat="42.7197995" lon="13.6604335"><ele>485.0</ele><time>2026-05-01T12:00:48.768Z</time></trkpt><trkpt lat="42.7195979" lon="13.6603682"><ele>484.3333333333333</ele><time>2026-05-01T12:00:49.767Z</time></trkpt><trkpt lat="42.7193947" lon="13.6603139"><ele>483.66666666666663</ele><time>2026-05-01T12:00:50.766Z</time></trkpt><trkpt lat="42.7191935" lon="13.6602703"><ele>483.0</ele><time>2026-05-01T12:00:51.767Z</time></trkpt><trkpt lat="42.7189922" lon="13.6602349"><ele>483.0</ele><time>2026-05-01T12:00:52.767Z</time></trkpt><trkpt lat="42.7187874" lon="13.6601999"><ele>483.0</ele><time>2026-05-01T12:00:53.768Z</time></trkpt><trkpt lat="42.718585" lon="13.6601709"><ele>483.0</ele><time>2026-05-01T12:00:54.766Z</time></trkpt><trkpt lat="42.7183816" lon="13.660142"><ele>484.0</ele><time>2026-05-01T12:00:55.766Z</time></trkpt><trkpt lat="42.7181774" lon="13.6601118"><ele>485.0</ele><time>2026-05-01T12:00:56.767Z</time></trkpt><trkpt lat="42.717974" lon="13.6600807"><ele>486.0</ele><time>2026-05-01T12:00:57.767Z</time></trkpt><trkpt lat="42.7177695" lon="13.6600505"><ele>486.33333333333337</ele><time>2026-05-01T12:00:58.768Z</time></trkpt><trkpt lat="42.7175673" lon="13.6600188"><ele>486.6666666666667</ele><time>2026-05-01T12:00:59.766Z</time></trkpt><trkpt lat="42.7173619" lon="13.6599851"><ele>487.0</ele><time>2026-05-01T12:01:00.766Z</time></trkpt><trkpt lat="42.7171601" lon="13.6599538"><ele>487.0</ele><time>2026-05-01T12:01:01.767Z</time></trkpt><trkpt lat="42.7169636" lon="13.6599198"><ele>487.0</ele><time>2026-05-01T12:01:02.768Z</time></trkpt><trkpt lat="42.7167609" lon="13.6598844"><ele>487.0</ele><time>2026-05-01T12:01:03.767Z</time></trkpt><trkpt lat="42.7165583" lon="13.6598484"><ele>488.6666666666667</ele><time>2026-05-01T12:01:04.767Z</time></trkpt><trkpt lat="42.7163607" lon="13.6598152"><ele>490.33333333333337</ele><time>2026-05-01T12:01:05.767Z</time></trkpt><trkpt lat="42.7161634" lon="13.6597855"><ele>492.0</ele><time>2026-05-01T12:01:06.767Z</time></trkpt><trkpt lat="42.7159597" lon="13.6597543"><ele>492.0</ele><time>2026-05-01T12:01:07.768Z</time></trkpt><trkpt lat="42.7157608" lon="13.6597226"><ele>492.0</ele><time>2026-05-01T12:01:08.767Z</time></trkpt><trkpt lat="42.7155581" lon="13.6596909"><ele>492.0</ele><time>2026-05-01T12:01:09.766Z</time></trkpt><trkpt lat="42.7153588" lon="13.6596606"><ele>494.0</ele><time>2026-05-01T12:01:10.766Z</time></trkpt><trkpt lat="42.7151571" lon="13.6596334"><ele>496.0</ele><time>2026-05-01T12:01:11.767Z</time></trkpt><trkpt lat="42.714958" lon="13.6596084"><ele>498.0</ele><time>2026-05-01T12:01:12.767Z</time></trkpt><trkpt lat="42.7147582" lon="13.6595729"><ele>498.0</ele><time>2026-05-01T12:01:13.767Z</time></trkpt><trkpt lat="42.7145617" lon="13.6595367"><ele>498.0</ele><time>2026-05-01T12:01:14.766Z</time></trkpt><trkpt lat="42.7143661" lon="13.6595047"><ele>498.0</ele><time>2026-05-01T12:01:15.767Z</time></trkpt><trkpt lat="42.7141759" lon="13.6594746"><ele>500.33333333333337</ele><time>2026-05-01T12:01:16.767Z</time></trkpt><trkpt lat="42.7139905" lon="13.6594426"><ele>502.6666666666667</ele><time>2026-05-01T12:01:17.767Z</time></trkpt><trkpt lat="42.7138085" lon="13.6594139"><ele>505.0</ele><time>2026-05-01T12:01:18.768Z</time></trkpt><trkpt lat="42.7136333" lon="13.6593842"><ele>505.33333333333337</ele><time>2026-05-01T12:01:19.766Z</time></trkpt><trkpt lat="42.7134575" lon="13.6593584"><ele>505.66666666666663</ele><time>2026-05-01T12:01:20.767Z</time></trkpt><trkpt lat="42.7132858" lon="13.6593345"><ele>506.0</ele><time>2026-05-01T12:01:21.767Z</time></trkpt><trkpt lat="42.7131275" lon="13.6593109"><ele>506.0</ele><time>2026-05-01T12:01:22.768Z</time></trkpt><trkpt lat="42.7129734" lon="13.659289"><ele>506.0</ele><time>2026-05-01T12:01:23.767Z</time></trkpt><trkpt lat="42.7128281" lon="13.6592751"><ele>506.0</ele><time>2026-05-01T12:01:24.767Z</time></trkpt><trkpt lat="42.712683" lon="13.6592608"><ele>506.0</ele><time>2026-05-01T12:01:25.767Z</time></trkpt><trkpt lat="42.7125494" lon="13.6592609"><ele>506.25</ele><time>2026-05-01T12:01:26.768Z</time></trkpt><trkpt lat="42.7124178" lon="13.6592726"><ele>506.5</ele><time>2026-05-01T12:01:27.766Z</time></trkpt><trkpt lat="42.7122739" lon="13.6593019"><ele>506.75</ele><time>2026-05-01T12:01:28.766Z</time></trkpt><trkpt lat="42.7121287" lon="13.6593479"><ele>507.0</ele><time>2026-05-01T12:01:29.767Z</time></trkpt><trkpt lat="42.7119874" lon="13.6594023"><ele>506.25</ele><time>2026-05-01T12:01:30.768Z</time></trkpt><trkpt lat="42.7118519" lon="13.659466"><ele>505.5</ele><time>2026-05-01T12:01:31.767Z</time></trkpt><trkpt lat="42.7117216" lon="13.6595372"><ele>504.75</ele><time>2026-05-01T12:01:32.766Z</time></trkpt><trkpt lat="42.7116071" lon="13.659615"><ele>504.0</ele><time>2026-05-01T12:01:33.767Z</time></trkpt><trkpt lat="42.7115124" lon="13.6597027"><ele>504.0</ele><time>2026-05-01T12:01:34.767Z</time></trkpt><trkpt lat="42.7114407" lon="13.6598162"><ele>504.0</ele><time>2026-05-01T12:01:35.768Z</time></trkpt><trkpt lat="42.7114082" lon="13.6599452"><ele>504.0</ele><time>2026-05-01T12:01:36.767Z</time></trkpt><trkpt lat="42.7114226" lon="13.660069"><ele>504.0</ele><time>2026-05-01T12:01:37.767Z</time></trkpt><trkpt lat="42.711485" lon="13.6601861"><ele>504.0</ele><time>2026-05-01T12:01:38.767Z</time></trkpt><trkpt lat="42.7115881" lon="13.6602809"><ele>502.25</ele><time>2026-05-01T12:01:39.766Z</time></trkpt><trkpt lat="42.7117238" lon="13.660329"><ele>500.5</ele><time>2026-05-01T12:01:40.768Z</time></trkpt><trkpt lat="42.7118745" lon="13.660328"><ele>498.75</ele><time>2026-05-01T12:01:41.767Z</time></trkpt><trkpt lat="42.7120329" lon="13.6603199"><ele>497.0</ele><time>2026-05-01T12:01:42.767Z</time></trkpt><trkpt lat="42.7121926" lon="13.6603255"><ele>497.0</ele><time>2026-05-01T12:01:43.768Z</time></trkpt><trkpt lat="42.7123467" lon="13.6603312"><ele>497.0</ele><time>2026-05-01T12:01:44.767Z</time></trkpt><trkpt lat="42.7124906" lon="13.6603533"><ele>497.0</ele><time>2026-05-01T12:01:45.768Z</time></trkpt><trkpt lat="42.7126216" lon="13.660396"><ele>497.0</ele><time>2026-05-01T12:01:46.768Z</time></trkpt><trkpt lat="42.7127271" lon="13.6604797"><ele>497.25</ele><time>2026-05-01T12:01:47.767Z</time></trkpt><trkpt lat="42.7128242" lon="13.6606067"><ele>497.5</ele><time>2026-05-01T12:01:48.767Z</time></trkpt><trkpt lat="42.7129112" lon="13.6607691"><ele>497.75</ele><time>2026-05-01T12:01:49.767Z</time></trkpt><trkpt lat="42.7129971" lon="13.6609445"><ele>498.0</ele><time>2026-05-01T12:01:50.766Z</time></trkpt><trkpt lat="42.7130858" lon="13.6611326"><ele>498.0</ele><time>2026-05-01T12:01:51.767Z</time></trkpt><trkpt lat="42.713175" lon="13.6613284"><ele>498.0</ele><time>2026-05-01T12:01:52.768Z</time></trkpt><trkpt lat="42.7132675" lon="13.6615345"><ele>498.0</ele><time>2026-05-01T12:01:53.767Z</time></trkpt><trkpt lat="42.7133635" lon="13.6617485"><ele>496.33333333333337</ele><time>2026-05-01T12:01:54.766Z</time></trkpt><trkpt lat="42.7134547" lon="13.6619575"><ele>494.6666666666667</ele><time>2026-05-01T12:01:55.767Z</time></trkpt><trkpt lat="42.7135495" lon="13.6621737"><ele>493.0</ele><time>2026-05-01T12:01:56.766Z</time></trkpt><trkpt lat="42.7136463" lon="13.6623924"><ele>493.0</ele><time>2026-05-01T12:01:57.767Z</time></trkpt><trkpt lat="42.7137457" lon="13.6626196"><ele>493.0</ele><time>2026-05-01T12:01:58.767Z</time></trkpt><trkpt lat="42.7138475" lon="13.6628524"><ele>493.0</ele><time>2026-05-01T12:01:59.765Z</time></trkpt><trkpt lat="42.7139472" lon="13.6630878"><ele>492.33333333333337</ele><time>2026-05-01T12:02:00.766Z</time></trkpt><trkpt lat="42.7140515" lon="13.6633257"><ele>491.66666666666663</ele><time>2026-05-01T12:02:01.767Z</time></trkpt><trkpt lat="42.7141564" lon="13.6635605"><ele>491.0</ele><time>2026-05-01T12:02:02.767Z</time></trkpt><trkpt lat="42.7142634" lon="13.6638012"><ele>489.66666666666663</ele><time>2026-05-01T12:02:03.765Z</time></trkpt><trkpt lat="42.714371" lon="13.6640398"><ele>488.33333333333337</ele><time>2026-05-01T12:02:04.765Z</time></trkpt><trkpt lat="42.7144798" lon="13.6642809"><ele>487.0</ele><time>2026-05-01T12:02:05.766Z</time></trkpt><trkpt lat="42.7145812" lon="13.6645202"><ele>486.33333333333337</ele><time>2026-05-01T12:02:06.767Z</time></trkpt><trkpt lat="42.7146922" lon="13.6647616"><ele>485.66666666666663</ele><time>2026-05-01T12:02:07.766Z</time></trkpt><trkpt lat="42.7147988" lon="13.6650007"><ele>485.0</ele><time>2026-05-01T12:02:08.766Z</time></trkpt><trkpt lat="42.7149039" lon="13.665245"><ele>483.3333333333333</ele><time>2026-05-01T12:02:09.767Z</time></trkpt><trkpt lat="42.7150136" lon="13.6654927"><ele>481.66666666666663</ele><time>2026-05-01T12:02:10.767Z</time></trkpt><trkpt lat="42.7151238" lon="13.6657378"><ele>480.0</ele><time>2026-05-01T12:02:11.767Z</time></trkpt><trkpt lat="42.7152348" lon="13.6659852"><ele>479.0</ele><time>2026-05-01T12:02:12.766Z</time></trkpt><trkpt lat="42.7153389" lon="13.6662238"><ele>478.0</ele><time>2026-05-01T12:02:13.766Z</time></trkpt><trkpt lat="42.7154476" lon="13.6664661"><ele>477.0</ele><time>2026-05-01T12:02:14.767Z</time></trkpt><trkpt lat="42.715555" lon="13.666706"><ele>475.66666666666663</ele><time>2026-05-01T12:02:15.766Z</time></trkpt><trkpt lat="42.7156659" lon="13.6669473"><ele>474.3333333333333</ele><time>2026-05-01T12:02:16.766Z</time></trkpt><trkpt lat="42.7157748" lon="13.6671898"><ele>473.0</ele><time>2026-05-01T12:02:17.765Z</time></trkpt><trkpt lat="42.7158734" lon="13.6674262"><ele>473.0</ele><time>2026-05-01T12:02:18.765Z</time></trkpt><trkpt lat="42.7159756" lon="13.6676645"><ele>473.0</ele><time>2026-05-01T12:02:19.765Z</time></trkpt><trkpt lat="42.7160805" lon="13.6679035"><ele>473.0</ele><time>2026-05-01T12:02:20.766Z</time></trkpt><trkpt lat="42.7161845" lon="13.6681414"><ele>470.66666666666663</ele><time>2026-05-01T12:02:21.766Z</time></trkpt><trkpt lat="42.7162912" lon="13.6683759"><ele>468.33333333333337</ele><time>2026-05-01T12:02:22.765Z</time></trkpt><trkpt lat="42.7163932" lon="13.6686081"><ele>466.0</ele><time>2026-05-01T12:02:23.765Z</time></trkpt><trkpt lat="42.7165004" lon="13.6688435"><ele>466.0</ele><time>2026-05-01T12:02:24.767Z</time></trkpt><trkpt lat="42.7166087" lon="13.6690784"><ele>466.0</ele><time>2026-05-01T12:02:25.766Z</time></trkpt><trkpt lat="42.7167155" lon="13.6693191"><ele>466.0</ele><time>2026-05-01T12:02:26.765Z</time></trkpt><trkpt lat="42.7168191" lon="13.6695542"><ele>464.6666666666667</ele><time>2026-05-01T12:02:27.766Z</time></trkpt><trkpt lat="42.7169255" lon="13.6697936"><ele>463.33333333333337</ele><time>2026-05-01T12:02:28.766Z</time></trkpt><trkpt lat="42.7170274" lon="13.6700363"><ele>462.0</ele><time>2026-05-01T12:02:29.766Z</time></trkpt><trkpt lat="42.7171318" lon="13.6702744"><ele>461.0</ele><time>2026-05-01T12:02:30.767Z</time></trkpt><trkpt lat="42.7172331" lon="13.6705108"><ele>460.0</ele><time>2026-05-01T12:02:31.767Z</time></trkpt><trkpt lat="42.7173398" lon="13.6707463"><ele>459.0</ele><time>2026-05-01T12:02:32.766Z</time></trkpt><trkpt lat="42.7174455" lon="13.6709811"><ele>458.33333333333337</ele><time>2026-05-01T12:02:33.765Z</time></trkpt><trkpt lat="42.7175533" lon="13.6712133"><ele>457.6666666666667</ele><time>2026-05-01T12:02:34.765Z</time></trkpt><trkpt lat="42.7176546" lon="13.6714501"><ele>457.0</ele><time>2026-05-01T12:02:35.766Z</time></trkpt><trkpt lat="42.7177558" lon="13.6716779"><ele>456.33333333333337</ele><time>2026-05-01T12:02:36.767Z</time></trkpt><trkpt lat="42.7178563" lon="13.6719015"><ele>455.66666666666663</ele><time>2026-05-01T12:02:37.767Z</time></trkpt><trkpt lat="42.7179577" lon="13.6721303"><ele>455.0</ele><time>2026-05-01T12:02:38.766Z</time></trkpt><trkpt lat="42.7180597" lon="13.6723622"><ele>454.0</ele><time>2026-05-01T12:02:39.766Z</time></trkpt><trkpt lat="42.7181603" lon="13.6725917"><ele>453.0</ele><time>2026-05-01T12:02:40.766Z</time></trkpt><trkpt lat="42.7182628" lon="13.6728237"><ele>452.0</ele><time>2026-05-01T12:02:41.766Z</time></trkpt><trkpt lat="42.7183632" lon="13.6730476"><ele>451.0</ele><time>2026-05-01T12:02:42.766Z</time></trkpt><trkpt lat="42.7184596" lon="13.6732606"><ele>450.0</ele><time>2026-05-01T12:02:43.765Z</time></trkpt><trkpt lat="42.7185517" lon="13.6734654"><ele>449.0</ele><time>2026-05-01T12:02:44.765Z</time></trkpt><trkpt lat="42.7186366" lon="13.6736653"><ele>448.3333333333333</ele><time>2026-05-01T12:02:45.765Z</time></trkpt><trkpt lat="42.7187172" lon="13.6738819"><ele>447.66666666666663</ele><time>2026-05-01T12:02:46.767Z</time></trkpt><trkpt lat="42.7187939" lon="13.6741052"><ele>447.0</ele><time>2026-05-01T12:02:47.766Z</time></trkpt><trkpt lat="42.7188779" lon="13.6743302"><ele>444.33333333333337</ele><time>2026-05-01T12:02:48.766Z</time></trkpt><trkpt lat="42.7189688" lon="13.6745534"><ele>441.6666666666667</ele><time>2026-05-01T12:02:49.765Z</time></trkpt><trkpt lat="42.7190569" lon="13.6747688"><ele>439.0</ele><time>2026-05-01T12:02:50.766Z</time></trkpt><trkpt lat="42.71914" lon="13.6749654"><ele>439.0</ele><time>2026-05-01T12:02:51.766Z</time></trkpt><trkpt lat="42.719216" lon="13.6751504"><ele>439.0</ele><time>2026-05-01T12:02:52.766Z</time></trkpt><trkpt lat="42.7192862" lon="13.6753094"><ele>439.0</ele><time>2026-05-01T12:02:53.766Z</time></trkpt><trkpt lat="42.719361" lon="13.6754482"><ele>439.0</ele><time>2026-05-01T12:02:54.766Z</time></trkpt><trkpt lat="42.7194524" lon="13.6755518"><ele>438.0</ele><time>2026-05-01T12:02:55.765Z</time></trkpt><trkpt lat="42.7195596" lon="13.6756043"><ele>437.0</ele><time>2026-05-01T12:02:56.765Z</time></trkpt><trkpt lat="42.7196736" lon="13.6756018"><ele>436.0</ele><time>2026-05-01T12:02:57.767Z</time></trkpt><trkpt lat="42.7197824" lon="13.6755499"><ele>435.0</ele><time>2026-05-01T12:02:58.766Z</time></trkpt><trkpt lat="42.7198884" lon="13.6754978"><ele>435.0</ele><time>2026-05-01T12:02:59.765Z</time></trkpt><trkpt lat="42.7200128" lon="13.6754821"><ele>435.0</ele><time>2026-05-01T12:03:00.766Z</time></trkpt><trkpt lat="42.7201547" lon="13.6755291"><ele>435.0</ele><time>2026-05-01T12:03:01.765Z</time></trkpt><trkpt lat="42.7203097" lon="13.6755533"><ele>435.0</ele><time>2026-05-01T12:03:02.765Z</time></trkpt><trkpt lat="42.7204636" lon="13.6755405"><ele>431.66666666666663</ele><time>2026-05-01T12:03:03.766Z</time></trkpt><trkpt lat="42.7206192" lon="13.6755465"><ele>428.3333333333333</ele><time>2026-05-01T12:03:04.765Z</time></trkpt><trkpt lat="42.72079" lon="13.6756233"><ele>425.0</ele><time>2026-05-01T12:03:05.766Z</time></trkpt><trkpt lat="42.7209511" lon="13.6757146"><ele>416.66666666666663</ele><time>2026-05-01T12:03:06.765Z</time></trkpt><trkpt lat="42.7210934" lon="13.6758243"><ele>408.33333333333337</ele><time>2026-05-01T12:03:07.766Z</time></trkpt><trkpt lat="42.7212292" lon="13.6759464"><ele>400.0</ele><time>2026-05-01T12:03:08.765Z</time></trkpt><trkpt lat="42.7213401" lon="13.6760627"><ele>402.75</ele><time>2026-05-01T12:03:09.766Z</time></trkpt><trkpt lat="42.721429" lon="13.6762022"><ele>405.5</ele><time>2026-05-01T12:03:10.766Z</time></trkpt><trkpt lat="42.721493" lon="13.6763839"><ele>408.25</ele><time>2026-05-01T12:03:11.766Z</time></trkpt><trkpt lat="42.7215524" lon="13.6765854"><ele>411.0</ele><time>2026-05-01T12:03:12.766Z</time></trkpt><trkpt lat="42.7216228" lon="13.6767919"><ele>412.33333333333337</ele><time>2026-05-01T12:03:13.765Z</time></trkpt><trkpt lat="42.7216789" lon="13.6770053"><ele>413.6666666666667</ele><time>2026-05-01T12:03:14.766Z</time></trkpt><trkpt lat="42.7217065" lon="13.6772234"><ele>415.0</ele><time>2026-05-01T12:03:15.765Z</time></trkpt><trkpt lat="42.7217166" lon="13.6774534"><ele>415.0</ele><time>2026-05-01T12:03:16.766Z</time></trkpt><trkpt lat="42.7217041" lon="13.6777016"><ele>415.0</ele><time>2026-05-01T12:03:17.767Z</time></trkpt><trkpt lat="42.7216677" lon="13.6779506"><ele>415.0</ele><time>2026-05-01T12:03:18.766Z</time></trkpt><trkpt lat="42.7216523" lon="13.6782102"><ele>412.0</ele><time>2026-05-01T12:03:19.767Z</time></trkpt><trkpt lat="42.721663" lon="13.6784858"><ele>409.0</ele><time>2026-05-01T12:03:20.766Z</time></trkpt><trkpt lat="42.721688" lon="13.6787574"><ele>406.0</ele><time>2026-05-01T12:03:21.766Z</time></trkpt><trkpt lat="42.7217391" lon="13.6790117"><ele>403.6666666666667</ele><time>2026-05-01T12:03:22.767Z</time></trkpt><trkpt lat="42.721802" lon="13.6792441"><ele>401.33333333333337</ele><time>2026-05-01T12:03:23.766Z</time></trkpt><trkpt lat="42.721856" lon="13.6794775"><ele>399.0</ele><time>2026-05-01T12:03:24.766Z</time></trkpt><trkpt lat="42.7218894" lon="13.6797193"><ele>393.6666666666667</ele><time>2026-05-01T12:03:25.767Z</time></trkpt><trkpt lat="42.7219138" lon="13.679943"><ele>388.33333333333337</ele><time>2026-05-01T12:03:26.766Z</time></trkpt><trkpt lat="42.7219471" lon="13.6801631"><ele>383.0</ele><time>2026-05-01T12:03:27.766Z</time></trkpt><trkpt lat="42.7220108" lon="13.6803886"><ele>383.0</ele><time>2026-05-01T12:03:28.765Z</time></trkpt><trkpt lat="42.7221062" lon="13.6805954"><ele>383.0</ele><time>2026-05-01T12:03:29.765Z</time></trkpt><trkpt lat="42.7222431" lon="13.6807929"><ele>383.0</ele><time>2026-05-01T12:03:30.766Z</time></trkpt><trkpt lat="42.7223975" lon="13.6809931"><ele>381.5</ele><time>2026-05-01T12:03:31.765Z</time></trkpt><trkpt lat="42.7225553" lon="13.6812068"><ele>380.0</ele><time>2026-05-01T12:03:32.765Z</time></trkpt><trkpt lat="42.7227159" lon="13.6814495"><ele>378.0</ele><time>2026-05-01T12:03:33.767Z</time></trkpt><trkpt lat="42.7228905" lon="13.6817091"><ele>376.0</ele><time>2026-05-01T12:03:34.766Z</time></trkpt><trkpt lat="42.7230496" lon="13.6819531"><ele>380.0</ele><time>2026-05-01T12:03:35.766Z</time></trkpt><trkpt lat="42.7232046" lon="13.6821886"><ele>384.0</ele><time>2026-05-01T12:03:36.766Z</time></trkpt><trkpt lat="42.723345" lon="13.6824169"><ele>384.0</ele><time>2026-05-01T12:03:37.767Z</time></trkpt><trkpt lat="42.7234763" lon="13.6826308"><ele>384.0</ele><time>2026-05-01T12:03:38.766Z</time></trkpt><trkpt lat="42.7236001" lon="13.6828296"><ele>384.0</ele><time>2026-05-01T12:03:39.765Z</time></trkpt><trkpt lat="42.7237316" lon="13.6830192"><ele>381.6666666666667</ele><time>2026-05-01T12:03:40.766Z</time></trkpt><trkpt lat="42.7238587" lon="13.6831973"><ele>379.33333333333337</ele><time>2026-05-01T12:03:41.766Z</time></trkpt><trkpt lat="42.7239896" lon="13.6833734"><ele>377.0</ele><time>2026-05-01T12:03:42.766Z</time></trkpt><trkpt lat="42.7241242" lon="13.6835387"><ele>377.6666666666667</ele><time>2026-05-01T12:03:43.766Z</time></trkpt><trkpt lat="42.724273" lon="13.6836899"><ele>378.3333333333333</ele><time>2026-05-01T12:03:44.765Z</time></trkpt><trkpt lat="42.7244349" lon="13.6838333"><ele>379.0</ele><time>2026-05-01T12:03:45.766Z</time></trkpt><trkpt lat="42.7246099" lon="13.6839787"><ele>382.3333333333333</ele><time>2026-05-01T12:03:46.766Z</time></trkpt><trkpt lat="42.7247835" lon="13.6841255"><ele>385.66666666666663</ele><time>2026-05-01T12:03:47.767Z</time></trkpt><trkpt lat="42.724949" lon="13.6842626"><ele>389.0</ele><time>2026-05-01T12:03:48.765Z</time></trkpt><trkpt lat="42.7251016" lon="13.6843793"><ele>392.0</ele><time>2026-05-01T12:03:49.766Z</time></trkpt><trkpt lat="42.725256" lon="13.6844779"><ele>395.0</ele><time>2026-05-01T12:03:50.765Z</time></trkpt><trkpt lat="42.7254006" lon="13.6845519"><ele>398.0</ele><time>2026-05-01T12:03:51.766Z</time></trkpt><trkpt lat="42.7255426" lon="13.6846103"><ele>398.0</ele><time>2026-05-01T12:03:52.765Z</time></trkpt><trkpt lat="42.7256784" lon="13.6846472"><ele>398.0</ele><time>2026-05-01T12:03:53.765Z</time></trkpt><trkpt lat="42.7257928" lon="13.68469"><ele>398.0</ele><time>2026-05-01T12:03:54.766Z</time></trkpt><trkpt lat="42.7258864" lon="13.6847757"><ele>398.0</ele><time>2026-05-01T12:03:55.767Z</time></trkpt><trkpt lat="42.7259734" lon="13.6848983"><ele>398.0</ele><time>2026-05-01T12:03:56.766Z</time></trkpt><trkpt lat="42.7260601" lon="13.685026"><ele>398.0</ele><time>2026-05-01T12:03:57.766Z</time></trkpt><trkpt lat="42.7261321" lon="13.6851432"><ele>398.0</ele><time>2026-05-01T12:03:58.766Z</time></trkpt><trkpt lat="42.7261898" lon="13.6852482"><ele>398.0</ele><time>2026-05-01T12:03:59.767Z</time></trkpt><trkpt lat="42.7262491" lon="13.6853406"><ele>398.0</ele><time>2026-05-01T12:04:00.767Z</time></trkpt><trkpt lat="42.7263121" lon="13.6854266"><ele>396.4</ele><time>2026-05-01T12:04:01.766Z</time></trkpt><trkpt lat="42.72638" lon="13.6855123"><ele>394.79999999999995</ele><time>2026-05-01T12:04:02.767Z</time></trkpt><trkpt lat="42.7264451" lon="13.6855999"><ele>393.2</ele><time>2026-05-01T12:04:03.767Z</time></trkpt><trkpt lat="42.7265073" lon="13.6856947"><ele>391.6</ele><time>2026-05-01T12:04:04.766Z</time></trkpt><trkpt lat="42.7265698" lon="13.6857945"><ele>390.0</ele><time>2026-05-01T12:04:05.766Z</time></trkpt><trkpt lat="42.7266274" lon="13.6858927"><ele>390.0</ele><time>2026-05-01T12:04:06.767Z</time></trkpt><trkpt lat="42.7266879" lon="13.6859709"><ele>390.0</ele><time>2026-05-01T12:04:07.767Z</time></trkpt><trkpt lat="42.7267643" lon="13.6860306"><ele>390.0</ele><time>2026-05-01T12:04:08.767Z</time></trkpt><trkpt lat="42.7268633" lon="13.6860849"><ele>390.0</ele><time>2026-05-01T12:04:09.766Z</time></trkpt><trkpt lat="42.726978" lon="13.6861509"><ele>390.0</ele><time>2026-05-01T12:04:10.766Z</time></trkpt><trkpt lat="42.7270843" lon="13.6862237"><ele>390.8</ele><time>2026-05-01T12:04:11.767Z</time></trkpt><trkpt lat="42.7271822" lon="13.6863"><ele>391.6</ele><time>2026-05-01T12:04:12.766Z</time></trkpt><trkpt lat="42.7272769" lon="13.6863768"><ele>392.4</ele><time>2026-05-01T12:04:13.766Z</time></trkpt><trkpt lat="42.7273715" lon="13.6864461"><ele>393.2</ele><time>2026-05-01T12:04:14.766Z</time></trkpt><trkpt lat="42.7274602" lon="13.686524"><ele>394.0</ele><time>2026-05-01T12:04:15.766Z</time></trkpt><trkpt lat="42.7275466" lon="13.686617"><ele>394.0</ele><time>2026-05-01T12:04:16.766Z</time></trkpt><trkpt lat="42.7276227" lon="13.6867351"><ele>394.0</ele><time>2026-05-01T12:04:17.767Z</time></trkpt><trkpt lat="42.7276963" lon="13.6868708"><ele>394.0</ele><time>2026-05-01T12:04:18.766Z</time></trkpt><trkpt lat="42.7277721" lon="13.687011"><ele>394.0</ele><time>2026-05-01T12:04:19.766Z</time></trkpt><trkpt lat="42.7278477" lon="13.6871526"><ele>391.0</ele><time>2026-05-01T12:04:20.767Z</time></trkpt><trkpt lat="42.7279187" lon="13.6872893"><ele>388.0</ele><time>2026-05-01T12:04:21.765Z</time></trkpt><trkpt lat="42.727989" lon="13.6874163"><ele>385.0</ele><time>2026-05-01T12:04:22.766Z</time></trkpt><trkpt lat="42.7280634" lon="13.6875433"><ele>382.0</ele><time>2026-05-01T12:04:23.766Z</time></trkpt><trkpt lat="42.7281304" lon="13.6876743"><ele>382.40000000000003</ele><time>2026-05-01T12:04:24.767Z</time></trkpt><trkpt lat="42.7282007" lon="13.6877686"><ele>382.8</ele><time>2026-05-01T12:04:25.766Z</time></trkpt><trkpt lat="42.7282587" lon="13.6878591"><ele>383.2</ele><time>2026-05-01T12:04:26.766Z</time></trkpt><trkpt lat="42.7282901" lon="13.6879591"><ele>383.6</ele><time>2026-05-01T12:04:27.766Z</time></trkpt><trkpt lat="42.728304" lon="13.6880782"><ele>384.0</ele><time>2026-05-01T12:04:28.765Z</time></trkpt><trkpt lat="42.7283065" lon="13.688229"><ele>384.0</ele><time>2026-05-01T12:04:29.765Z</time></trkpt><trkpt lat="42.7283068" lon="13.6883831"><ele>384.0</ele><time>2026-05-01T12:04:30.767Z</time></trkpt><trkpt lat="42.7283042" lon="13.6885371"><ele>384.0</ele><time>2026-05-01T12:04:31.766Z</time></trkpt><trkpt lat="42.7282806" lon="13.6886647"><ele>384.0</ele><time>2026-05-01T12:04:32.766Z</time></trkpt><trkpt lat="42.7282374" lon="13.6887829"><ele>384.0</ele><time>2026-05-01T12:04:33.766Z</time></trkpt><trkpt lat="42.7281968" lon="13.6889007"><ele>381.5</ele><time>2026-05-01T12:04:34.766Z</time></trkpt><trkpt lat="42.72819" lon="13.6890451"><ele>379.0</ele><time>2026-05-01T12:04:35.766Z</time></trkpt><trkpt lat="42.7282107" lon="13.6892155"><ele>376.5</ele><time>2026-05-01T12:04:36.765Z</time></trkpt><trkpt lat="42.7282502" lon="13.6893985"><ele>374.0</ele><time>2026-05-01T12:04:37.766Z</time></trkpt><trkpt lat="42.7283074" lon="13.6895863"><ele>372.33333333333337</ele><time>2026-05-01T12:04:38.766Z</time></trkpt><trkpt lat="42.7283913" lon="13.6897703"><ele>370.6666666666667</ele><time>2026-05-01T12:04:39.766Z</time></trkpt><trkpt lat="42.7284975" lon="13.6899449"><ele>369.0</ele><time>2026-05-01T12:04:40.766Z</time></trkpt><trkpt lat="42.7286157" lon="13.6901193"><ele>370.0</ele><time>2026-05-01T12:04:41.767Z</time></trkpt><trkpt lat="42.7287238" lon="13.6902964"><ele>371.0</ele><time>2026-05-01T12:04:42.766Z</time></trkpt><trkpt lat="42.7288305" lon="13.6904686"><ele>372.0</ele><time>2026-05-01T12:04:43.766Z</time></trkpt><trkpt lat="42.7289282" lon="13.6906391"><ele>372.0</ele><time>2026-05-01T12:04:44.766Z</time></trkpt><trkpt lat="42.7290212" lon="13.6908037"><ele>372.0</ele><time>2026-05-01T12:04:45.766Z</time></trkpt><trkpt lat="42.7291128" lon="13.6909688"><ele>372.0</ele><time>2026-05-01T12:04:46.767Z</time></trkpt><trkpt lat="42.7292016" lon="13.6911158"><ele>372.0</ele><time>2026-05-01T12:04:47.766Z</time></trkpt><trkpt lat="42.7292864" lon="13.691263"><ele>373.0</ele><time>2026-05-01T12:04:48.767Z</time></trkpt><trkpt lat="42.7293693" lon="13.6914107"><ele>374.0</ele><time>2026-05-01T12:04:49.766Z</time></trkpt><trkpt lat="42.729447" lon="13.6915609"><ele>375.0</ele><time>2026-05-01T12:04:50.767Z</time></trkpt><trkpt lat="42.7295166" lon="13.6917325"><ele>376.0</ele><time>2026-05-01T12:04:51.766Z</time></trkpt><trkpt lat="42.7295638" lon="13.6919186"><ele>369.0</ele><time>2026-05-01T12:04:52.767Z</time></trkpt><trkpt lat="42.7295963" lon="13.6921239"><ele>362.0</ele><time>2026-05-01T12:04:53.767Z</time></trkpt><trkpt lat="42.7296018" lon="13.6923409"><ele>355.0</ele><time>2026-05-01T12:04:54.766Z</time></trkpt><trkpt lat="42.729592" lon="13.6925615"><ele>357.3333333333333</ele><time>2026-05-01T12:04:55.766Z</time></trkpt><trkpt lat="42.7295762" lon="13.6927831"><ele>359.6666666666667</ele><time>2026-05-01T12:04:56.767Z</time></trkpt><trkpt lat="42.7295579" lon="13.6930097"><ele>362.0</ele><time>2026-05-01T12:04:57.766Z</time></trkpt><trkpt lat="42.7295372" lon="13.6932356"><ele>362.0</ele><time>2026-05-01T12:04:58.766Z</time></trkpt><trkpt lat="42.7295152" lon="13.6934624"><ele>362.0</ele><time>2026-05-01T12:04:59.765Z</time></trkpt><trkpt lat="42.7294882" lon="13.6936741"><ele>362.0</ele><time>2026-05-01T12:05:00.767Z</time></trkpt><trkpt lat="42.7294598" lon="13.6938767"><ele>364.0</ele><time>2026-05-01T12:05:01.767Z</time></trkpt><trkpt lat="42.7294357" lon="13.6940832"><ele>366.0</ele><time>2026-05-01T12:05:02.766Z</time></trkpt><trkpt lat="42.7294243" lon="13.6942964"><ele>368.0</ele><time>2026-05-01T12:05:03.766Z</time></trkpt><trkpt lat="42.7294477" lon="13.6945266"><ele>368.0</ele><time>2026-05-01T12:05:04.766Z</time></trkpt><trkpt lat="42.7294881" lon="13.6947654"><ele>368.0</ele><time>2026-05-01T12:05:05.765Z</time></trkpt><trkpt lat="42.7295455" lon="13.6950062"><ele>368.0</ele><time>2026-05-01T12:05:06.765Z</time></trkpt><trkpt lat="42.7296044" lon="13.695258"><ele>366.6666666666667</ele><time>2026-05-01T12:05:07.765Z</time></trkpt><trkpt lat="42.7296609" lon="13.6955186"><ele>365.3333333333333</ele><time>2026-05-01T12:05:08.765Z</time></trkpt><trkpt lat="42.7297181" lon="13.695783"><ele>364.0</ele><time>2026-05-01T12:05:09.766Z</time></trkpt><trkpt lat="42.7297737" lon="13.696042"><ele>363.3333333333333</ele><time>2026-05-01T12:05:10.766Z</time></trkpt><trkpt lat="42.7298336" lon="13.6962952"><ele>362.6666666666667</ele><time>2026-05-01T12:05:11.765Z</time></trkpt><trkpt lat="42.7298903" lon="13.6965414"><ele>362.0</ele><time>2026-05-01T12:05:12.765Z</time></trkpt><trkpt lat="42.7299453" lon="13.6967813"><ele>361.33333333333337</ele><time>2026-05-01T12:05:13.765Z</time></trkpt><trkpt lat="42.7300007" lon="13.6970203"><ele>360.6666666666667</ele><time>2026-05-01T12:05:14.766Z</time></trkpt><trkpt lat="42.730054" lon="13.6972557"><ele>360.0</ele><time>2026-05-01T12:05:15.766Z</time></trkpt><trkpt lat="42.7301084" lon="13.697489"><ele>360.0</ele><time>2026-05-01T12:05:16.765Z</time></trkpt><trkpt lat="42.7301596" lon="13.6977168"><ele>360.0</ele><time>2026-05-01T12:05:17.765Z</time></trkpt><trkpt lat="42.7302103" lon="13.6979401"><ele>360.0</ele><time>2026-05-01T12:05:18.766Z</time></trkpt><trkpt lat="42.7302592" lon="13.6981619"><ele>358.6666666666667</ele><time>2026-05-01T12:05:19.766Z</time></trkpt><trkpt lat="42.7303103" lon="13.6983777"><ele>357.33333333333337</ele><time>2026-05-01T12:05:20.766Z</time></trkpt><trkpt lat="42.7303575" lon="13.6985884"><ele>356.0</ele><time>2026-05-01T12:05:21.766Z</time></trkpt><trkpt lat="42.7304005" lon="13.6987959"><ele>355.6666666666667</ele><time>2026-05-01T12:05:22.766Z</time></trkpt><trkpt lat="42.7304487" lon="13.6989978"><ele>355.3333333333333</ele><time>2026-05-01T12:05:23.765Z</time></trkpt><trkpt lat="42.7304957" lon="13.6991972"><ele>355.0</ele><time>2026-05-01T12:05:24.767Z</time></trkpt><trkpt lat="42.7305414" lon="13.6993951"><ele>353.0</ele><time>2026-05-01T12:05:25.767Z</time></trkpt><trkpt lat="42.7305869" lon="13.6995852"><ele>351.0</ele><time>2026-05-01T12:05:26.766Z</time></trkpt><trkpt lat="42.7306325" lon="13.6997817"><ele>349.0</ele><time>2026-05-01T12:05:27.765Z</time></trkpt><trkpt lat="42.7306778" lon="13.6999795"><ele>349.0</ele><time>2026-05-01T12:05:28.766Z</time></trkpt><trkpt lat="42.7307256" lon="13.7001869"><ele>349.0</ele><time>2026-05-01T12:05:29.765Z</time></trkpt><trkpt lat="42.7307809" lon="13.7004042"><ele>349.0</ele><time>2026-05-01T12:05:30.764Z</time></trkpt><trkpt lat="42.730828" lon="13.7006235"><ele>345.66666666666663</ele><time>2026-05-01T12:05:31.765Z</time></trkpt><trkpt lat="42.7308763" lon="13.7008377"><ele>342.3333333333333</ele><time>2026-05-01T12:05:32.766Z</time></trkpt><trkpt lat="42.7309247" lon="13.701039"><ele>339.0</ele><time>2026-05-01T12:05:33.766Z</time></trkpt><trkpt lat="42.7309721" lon="13.7012355"><ele>338.3333333333333</ele><time>2026-05-01T12:05:34.764Z</time></trkpt><trkpt lat="42.7310199" lon="13.701428"><ele>337.66666666666663</ele><time>2026-05-01T12:05:35.765Z</time></trkpt><trkpt lat="42.73106" lon="13.7016229"><ele>337.0</ele><time>2026-05-01T12:05:36.765Z</time></trkpt><trkpt lat="42.7310887" lon="13.7018282"><ele>330.66666666666663</ele><time>2026-05-01T12:05:37.765Z</time></trkpt><trkpt lat="42.7310892" lon="13.7020507"><ele>324.3333333333333</ele><time>2026-05-01T12:05:38.766Z</time></trkpt><trkpt lat="42.7311013" lon="13.7022688"><ele>318.0</ele><time>2026-05-01T12:05:39.765Z</time></trkpt><trkpt lat="42.7310981" lon="13.7024729"><ele>318.0</ele><time>2026-05-01T12:05:40.765Z</time></trkpt><trkpt lat="42.7310976" lon="13.7026682"><ele>318.0</ele><time>2026-05-01T12:05:41.764Z</time></trkpt><trkpt lat="42.7311004" lon="13.7028667"><ele>318.0</ele><time>2026-05-01T12:05:42.765Z</time></trkpt><trkpt lat="42.7311017" lon="13.7030432"><ele>318.0</ele><time>2026-05-01T12:05:43.765Z</time></trkpt><trkpt lat="42.7311048" lon="13.7031999"><ele>319.0</ele><time>2026-05-01T12:05:44.766Z</time></trkpt><trkpt lat="42.7311014" lon="13.7033324"><ele>320.0</ele><time>2026-05-01T12:05:45.765Z</time></trkpt><trkpt lat="42.731079" lon="13.7034543"><ele>321.0</ele><time>2026-05-01T12:05:46.764Z</time></trkpt><trkpt lat="42.7310266" lon="13.7035251"><ele>322.0</ele><time>2026-05-01T12:05:47.764Z</time></trkpt><trkpt lat="42.7309399" lon="13.7034344"><ele>323.0</ele><time>2026-05-01T12:05:48.765Z</time></trkpt><trkpt lat="42.7308456" lon="13.7033686"><ele>324.25</ele><time>2026-05-01T12:05:50.764Z</time></trkpt><trkpt lat="42.7308389" lon="13.7031697"><ele>325.5</ele><time>2026-05-01T12:05:51.765Z</time></trkpt><trkpt lat="42.7308253" lon="13.7029468"><ele>326.75</ele><time>2026-05-01T12:05:52.766Z</time></trkpt><trkpt lat="42.7307661" lon="13.7028662"><ele>328.0</ele><time>2026-05-01T12:05:53.764Z</time></trkpt><trkpt lat="42.7306942" lon="13.702842"><ele>328.0</ele><time>2026-05-01T12:05:54.766Z</time></trkpt><trkpt lat="42.7306346" lon="13.702889"><ele>328.0</ele><time>2026-05-01T12:05:55.765Z</time></trkpt><trkpt lat="42.7305807" lon="13.7029583"><ele>328.0</ele><time>2026-05-01T12:05:56.764Z</time></trkpt><trkpt lat="42.7305303" lon="13.703115"><ele>328.0</ele><time>2026-05-01T12:05:57.764Z</time></trkpt><trkpt lat="42.7305712" lon="13.7033563"><ele>328.0</ele><time>2026-05-01T12:05:58.765Z</time></trkpt><trkpt lat="42.7305732" lon="13.7035174"><ele>328.0</ele><time>2026-05-01T12:05:59.765Z</time></trkpt><trkpt lat="42.7306189" lon="13.7036631"><ele>328.0</ele><time>2026-05-01T12:06:00.765Z</time></trkpt><trkpt lat="42.7307073" lon="13.7037646"><ele>328.0</ele><time>2026-05-01T12:06:01.766Z</time></trkpt><trkpt lat="42.7307801" lon="13.7038577"><ele>325.25</ele><time>2026-05-01T12:06:02.765Z</time></trkpt><trkpt lat="42.7309378" lon="13.7038754"><ele>322.5</ele><time>2026-05-01T12:06:03.766Z</time></trkpt><trkpt lat="42.7310389" lon="13.7039209"><ele>319.75</ele><time>2026-05-01T12:06:04.764Z</time></trkpt><trkpt lat="42.7311301" lon="13.703992"><ele>317.0</ele><time>2026-05-01T12:06:05.766Z</time></trkpt><trkpt lat="42.7311768" lon="13.7040886"><ele>316.0</ele><time>2026-05-01T12:06:06.765Z</time></trkpt><trkpt lat="42.7311782" lon="13.7041998"><ele>315.0</ele><time>2026-05-01T12:06:07.766Z</time></trkpt><trkpt lat="42.7311329" lon="13.7043218"><ele>314.0</ele><time>2026-05-01T12:06:08.766Z</time></trkpt><trkpt lat="42.7310462" lon="13.7044344"><ele>313.0</ele><time>2026-05-01T12:06:09.766Z</time></trkpt><trkpt lat="42.7309412" lon="13.704581"><ele>310.3333333333333</ele><time>2026-05-01T12:06:10.765Z</time></trkpt><trkpt lat="42.7308363" lon="13.7047335"><ele>307.6666666666667</ele><time>2026-05-01T12:06:11.766Z</time></trkpt><trkpt lat="42.7307422" lon="13.7049222"><ele>305.0</ele><time>2026-05-01T12:06:12.765Z</time></trkpt><trkpt lat="42.7306545" lon="13.7050908"><ele>307.33333333333337</ele><time>2026-05-01T12:06:13.766Z</time></trkpt><trkpt lat="42.7305747" lon="13.7052907"><ele>309.6666666666667</ele><time>2026-05-01T12:06:14.765Z</time></trkpt><trkpt lat="42.7305019" lon="13.70549"><ele>312.0</ele><time>2026-05-01T12:06:15.766Z</time></trkpt><trkpt lat="42.7304206" lon="13.7056809"><ele>312.0</ele><time>2026-05-01T12:06:16.765Z</time></trkpt><trkpt lat="42.7303512" lon="13.705859"><ele>312.0</ele><time>2026-05-01T12:06:17.765Z</time></trkpt><trkpt lat="42.7302855" lon="13.7060363"><ele>312.0</ele><time>2026-05-01T12:06:18.765Z</time></trkpt><trkpt lat="42.7302308" lon="13.706221"><ele>312.0</ele><time>2026-05-01T12:06:19.764Z</time></trkpt><trkpt lat="42.7301658" lon="13.7063908"><ele>313.0</ele><time>2026-05-01T12:06:20.764Z</time></trkpt><trkpt lat="42.7300829" lon="13.7065416"><ele>314.0</ele><time>2026-05-01T12:06:21.765Z</time></trkpt><trkpt lat="42.7299764" lon="13.7066448"><ele>315.0</ele><time>2026-05-01T12:06:22.764Z</time></trkpt><trkpt lat="42.729855" lon="13.7066939"><ele>316.0</ele><time>2026-05-01T12:06:23.765Z</time></trkpt><trkpt lat="42.7297425" lon="13.7066983"><ele>316.0</ele><time>2026-05-01T12:06:24.765Z</time></trkpt><trkpt lat="42.7296413" lon="13.7067007"><ele>316.0</ele><time>2026-05-01T12:06:25.765Z</time></trkpt><trkpt lat="42.7295412" lon="13.706749"><ele>316.0</ele><time>2026-05-01T12:06:26.765Z</time></trkpt><trkpt lat="42.7294893" lon="13.7068303"><ele>316.0</ele><time>2026-05-01T12:06:27.765Z</time></trkpt><trkpt lat="42.7294705" lon="13.7069605"><ele>316.0</ele><time>2026-05-01T12:06:28.766Z</time></trkpt><trkpt lat="42.7294943" lon="13.7071212"><ele>318.0</ele><time>2026-05-01T12:06:29.766Z</time></trkpt><trkpt lat="42.7295233" lon="13.7072972"><ele>320.0</ele><time>2026-05-01T12:06:30.765Z</time></trkpt><trkpt lat="42.7295242" lon="13.7074769"><ele>322.0</ele><time>2026-05-01T12:06:31.766Z</time></trkpt><trkpt lat="42.7294853" lon="13.7076537"><ele>324.0</ele><time>2026-05-01T12:06:32.766Z</time></trkpt><trkpt lat="42.7294152" lon="13.7078204"><ele>319.75</ele><time>2026-05-01T12:06:33.766Z</time></trkpt><trkpt lat="42.7293198" lon="13.7079623"><ele>315.5</ele><time>2026-05-01T12:06:34.765Z</time></trkpt><trkpt lat="42.7292363" lon="13.7081208"><ele>311.25</ele><time>2026-05-01T12:06:35.765Z</time></trkpt><trkpt lat="42.7291423" lon="13.7082968"><ele>307.0</ele><time>2026-05-01T12:06:36.766Z</time></trkpt><trkpt lat="42.7290899" lon="13.7084881"><ele>308.66666666666663</ele><time>2026-05-01T12:06:37.766Z</time></trkpt><trkpt lat="42.7290521" lon="13.7087436"><ele>310.3333333333333</ele><time>2026-05-01T12:06:38.766Z</time></trkpt><trkpt lat="42.729029" lon="13.7090122"><ele>312.0</ele><time>2026-05-01T12:06:39.766Z</time></trkpt><trkpt lat="42.7290845" lon="13.7093106"><ele>311.6666666666667</ele><time>2026-05-01T12:06:40.766Z</time></trkpt><trkpt lat="42.7290529" lon="13.7095603"><ele>311.33333333333337</ele><time>2026-05-01T12:06:41.765Z</time></trkpt><trkpt lat="42.7290119" lon="13.709791"><ele>311.0</ele><time>2026-05-01T12:06:42.766Z</time></trkpt><trkpt lat="42.7289784" lon="13.7100106"><ele>311.0</ele><time>2026-05-01T12:06:43.765Z</time></trkpt><trkpt lat="42.7289822" lon="13.7102304"><ele>311.0</ele><time>2026-05-01T12:06:44.764Z</time></trkpt><trkpt lat="42.7290137" lon="13.7104349"><ele>311.0</ele><time>2026-05-01T12:06:45.764Z</time></trkpt><trkpt lat="42.7290212" lon="13.7106285"><ele>310.75</ele><time>2026-05-01T12:06:46.765Z</time></trkpt><trkpt lat="42.728988" lon="13.7108067"><ele>310.5</ele><time>2026-05-01T12:06:47.764Z</time></trkpt><trkpt lat="42.7289252" lon="13.7109739"><ele>310.25</ele><time>2026-05-01T12:06:48.765Z</time></trkpt><trkpt lat="42.7288515" lon="13.7111472"><ele>310.0</ele><time>2026-05-01T12:06:49.764Z</time></trkpt><trkpt lat="42.7288068" lon="13.7113559"><ele>310.66666666666663</ele><time>2026-05-01T12:06:50.764Z</time></trkpt><trkpt lat="42.728788" lon="13.711585"><ele>311.3333333333333</ele><time>2026-05-01T12:06:51.764Z</time></trkpt><trkpt lat="42.7287582" lon="13.7118095"><ele>312.0</ele><time>2026-05-01T12:06:52.765Z</time></trkpt><trkpt lat="42.7287183" lon="13.7120278"><ele>314.0</ele><time>2026-05-01T12:06:53.765Z</time></trkpt><trkpt lat="42.7286802" lon="13.7122373"><ele>316.0</ele><time>2026-05-01T12:06:54.764Z</time></trkpt><trkpt lat="42.7286286" lon="13.7124344"><ele>318.0</ele><time>2026-05-01T12:06:55.765Z</time></trkpt><trkpt lat="42.7285779" lon="13.7126104"><ele>316.3333333333333</ele><time>2026-05-01T12:06:56.764Z</time></trkpt><trkpt lat="42.728526" lon="13.7127814"><ele>314.66666666666663</ele><time>2026-05-01T12:06:57.765Z</time></trkpt><trkpt lat="42.7284841" lon="13.7129536"><ele>313.0</ele><time>2026-05-01T12:06:58.764Z</time></trkpt><trkpt lat="42.7286118" lon="13.7131578"><ele>313.0</ele><time>2026-05-01T12:06:59.764Z</time></trkpt><trkpt lat="42.7286538" lon="13.7133446"><ele>313.0</ele><time>2026-05-01T12:07:00.765Z</time></trkpt><trkpt lat="42.7287067" lon="13.7135228"><ele>313.0</ele><time>2026-05-01T12:07:01.765Z</time></trkpt><trkpt lat="42.7288333" lon="13.7137207"><ele>309.3333333333333</ele><time>2026-05-01T12:07:02.765Z</time></trkpt><trkpt lat="42.7289207" lon="13.7139161"><ele>305.6666666666667</ele><time>2026-05-01T12:07:03.765Z</time></trkpt><trkpt lat="42.7289724" lon="13.7141382"><ele>302.0</ele><time>2026-05-01T12:07:04.765Z</time></trkpt><trkpt lat="42.7289969" lon="13.7143609"><ele>300.6666666666667</ele><time>2026-05-01T12:07:05.765Z</time></trkpt><trkpt lat="42.7290037" lon="13.7145974"><ele>299.3333333333333</ele><time>2026-05-01T12:07:06.764Z</time></trkpt><trkpt lat="42.7289884" lon="13.7148366"><ele>298.0</ele><time>2026-05-01T12:07:07.764Z</time></trkpt><trkpt lat="42.7289424" lon="13.7150692"><ele>296.66666666666663</ele><time>2026-05-01T12:07:08.764Z</time></trkpt><trkpt lat="42.7288779" lon="13.7152818"><ele>295.3333333333333</ele><time>2026-05-01T12:07:09.765Z</time></trkpt><trkpt lat="42.7288071" lon="13.7154629"><ele>294.0</ele><time>2026-05-01T12:07:10.765Z</time></trkpt><trkpt lat="42.7287173" lon="13.715611"><ele>294.0</ele><time>2026-05-01T12:07:11.765Z</time></trkpt><trkpt lat="42.7286545" lon="13.7157618"><ele>294.0</ele><time>2026-05-01T12:07:12.765Z</time></trkpt><trkpt lat="42.7286353" lon="13.7159279"><ele>294.0</ele><time>2026-05-01T12:07:13.765Z</time></trkpt><trkpt lat="42.7286562" lon="13.716114"><ele>294.0</ele><time>2026-05-01T12:07:14.764Z</time></trkpt><trkpt lat="42.7287048" lon="13.7163122"><ele>290.25</ele><time>2026-05-01T12:07:15.766Z</time></trkpt><trkpt lat="42.7287514" lon="13.7165063"><ele>286.5</ele><time>2026-05-01T12:07:16.765Z</time></trkpt><trkpt lat="42.7288064" lon="13.7166751"><ele>282.75</ele><time>2026-05-01T12:07:17.765Z</time></trkpt><trkpt lat="42.7288693" lon="13.7168323"><ele>279.0</ele><time>2026-05-01T12:07:18.764Z</time></trkpt><trkpt lat="42.7289836" lon="13.7168837"><ele>279.0</ele><time>2026-05-01T12:07:19.765Z</time></trkpt><trkpt lat="42.7290722" lon="13.7169435"><ele>279.0</ele><time>2026-05-01T12:07:20.764Z</time></trkpt><trkpt lat="42.7291773" lon="13.71683"><ele>279.0</ele><time>2026-05-01T12:07:21.765Z</time></trkpt><trkpt lat="42.7292541" lon="13.7167162"><ele>279.0</ele><time>2026-05-01T12:07:22.765Z</time></trkpt><trkpt lat="42.7293356" lon="13.7165981"><ele>276.75</ele><time>2026-05-01T12:07:23.765Z</time></trkpt><trkpt lat="42.7294159" lon="13.716441"><ele>274.5</ele><time>2026-05-01T12:07:24.765Z</time></trkpt><trkpt lat="42.7294816" lon="13.7163039"><ele>272.25</ele><time>2026-05-01T12:07:25.766Z</time></trkpt><trkpt lat="42.7295679" lon="13.7161896"><ele>270.0</ele><time>2026-05-01T12:07:26.765Z</time></trkpt><trkpt lat="42.7296665" lon="13.7161166"><ele>270.0</ele><time>2026-05-01T12:07:27.764Z</time></trkpt><trkpt lat="42.7297676" lon="13.7160577"><ele>270.0</ele><time>2026-05-01T12:07:28.764Z</time></trkpt><trkpt lat="42.7298661" lon="13.7160315"><ele>270.0</ele><time>2026-05-01T12:07:29.765Z</time></trkpt><trkpt lat="42.7299722" lon="13.7160452"><ele>270.0</ele><time>2026-05-01T12:07:30.765Z</time></trkpt><trkpt lat="42.7300744" lon="13.7161003"><ele>270.0</ele><time>2026-05-01T12:07:31.764Z</time></trkpt><trkpt lat="42.7301579" lon="13.7161648"><ele>270.0</ele><time>2026-05-01T12:07:32.764Z</time></trkpt><trkpt lat="42.7302203" lon="13.7162548"><ele>270.0</ele><time>2026-05-01T12:07:33.766Z</time></trkpt><trkpt lat="42.7302603" lon="13.7163777"><ele>270.0</ele><time>2026-05-01T12:07:34.765Z</time></trkpt><trkpt lat="42.7302799" lon="13.7165418"><ele>270.0</ele><time>2026-05-01T12:07:35.766Z</time></trkpt><trkpt lat="42.730278" lon="13.7167437"><ele>270.3333333333333</ele><time>2026-05-01T12:07:36.764Z</time></trkpt><trkpt lat="42.7302717" lon="13.7169453"><ele>270.66666666666663</ele><time>2026-05-01T12:07:37.765Z</time></trkpt><trkpt lat="42.7302576" lon="13.7171635"><ele>271.0</ele><time>2026-05-01T12:07:38.765Z</time></trkpt><trkpt lat="42.7302285" lon="13.7173894"><ele>270.3333333333333</ele><time>2026-05-01T12:07:39.765Z</time></trkpt><trkpt lat="42.7301745" lon="13.7176054"><ele>269.6666666666667</ele><time>2026-05-01T12:07:40.764Z</time></trkpt><trkpt lat="42.73009" lon="13.7178242"><ele>269.0</ele><time>2026-05-01T12:07:41.764Z</time></trkpt><trkpt lat="42.7299714" lon="13.7180291"><ele>269.0</ele><time>2026-05-01T12:07:42.766Z</time></trkpt><trkpt lat="42.7298451" lon="13.7182339"><ele>269.0</ele><time>2026-05-01T12:07:43.766Z</time></trkpt><trkpt lat="42.7297112" lon="13.7184368"><ele>269.0</ele><time>2026-05-01T12:07:44.765Z</time></trkpt><trkpt lat="42.7295453" lon="13.7186196"><ele>269.0</ele><time>2026-05-01T12:07:45.765Z</time></trkpt><trkpt lat="42.729359" lon="13.7187668"><ele>269.0</ele><time>2026-05-01T12:07:46.764Z</time></trkpt><trkpt lat="42.729176" lon="13.7188891"><ele>269.0</ele><time>2026-05-01T12:07:47.765Z</time></trkpt><trkpt lat="42.7289995" lon="13.7190081"><ele>269.0</ele><time>2026-05-01T12:07:48.765Z</time></trkpt><trkpt lat="42.7288399" lon="13.7191317"><ele>269.0</ele><time>2026-05-01T12:07:49.764Z</time></trkpt><trkpt lat="42.7286963" lon="13.7192846"><ele>269.0</ele><time>2026-05-01T12:07:50.765Z</time></trkpt><trkpt lat="42.7285728" lon="13.7194695"><ele>267.6666666666667</ele><time>2026-05-01T12:07:51.766Z</time></trkpt><trkpt lat="42.7284639" lon="13.7196893"><ele>266.3333333333333</ele><time>2026-05-01T12:07:52.765Z</time></trkpt><trkpt lat="42.7283552" lon="13.7199323"><ele>265.0</ele><time>2026-05-01T12:07:53.766Z</time></trkpt><trkpt lat="42.7282601" lon="13.7201887"><ele>264.0</ele><time>2026-05-01T12:07:54.765Z</time></trkpt><trkpt lat="42.728167" lon="13.7204682"><ele>263.0</ele><time>2026-05-01T12:07:55.766Z</time></trkpt><trkpt lat="42.7280885" lon="13.7207669"><ele>263.0</ele><time>2026-05-01T12:07:56.764Z</time></trkpt><trkpt lat="42.7280217" lon="13.7210519"><ele>263.0</ele><time>2026-05-01T12:07:57.765Z</time></trkpt><trkpt lat="42.7279673" lon="13.7213276"><ele>263.0</ele><time>2026-05-01T12:07:58.765Z</time></trkpt><trkpt lat="42.7279235" lon="13.7215949"><ele>262.33333333333337</ele><time>2026-05-01T12:07:59.764Z</time></trkpt><trkpt lat="42.7278846" lon="13.7218406"><ele>261.6666666666667</ele><time>2026-05-01T12:08:00.765Z</time></trkpt><trkpt lat="42.7278413" lon="13.722099"><ele>261.0</ele><time>2026-05-01T12:08:01.764Z</time></trkpt><trkpt lat="42.7277685" lon="13.722357"><ele>261.6666666666667</ele><time>2026-05-01T12:08:02.764Z</time></trkpt><trkpt lat="42.727677" lon="13.7226199"><ele>262.33333333333337</ele><time>2026-05-01T12:08:03.765Z</time></trkpt><trkpt lat="42.7275767" lon="13.7228719"><ele>263.0</ele><time>2026-05-01T12:08:04.765Z</time></trkpt><trkpt lat="42.7274772" lon="13.7231055"><ele>263.0</ele><time>2026-05-01T12:08:05.765Z</time></trkpt><trkpt lat="42.7273849" lon="13.7233283"><ele>263.0</ele><time>2026-05-01T12:08:06.765Z</time></trkpt><trkpt lat="42.7272995" lon="13.7235286"><ele>263.0</ele><time>2026-05-01T12:08:07.765Z</time></trkpt><trkpt lat="42.7272182" lon="13.7237072"><ele>262.0</ele><time>2026-05-01T12:08:08.765Z</time></trkpt><trkpt lat="42.7271144" lon="13.7238614"><ele>261.0</ele><time>2026-05-01T12:08:09.764Z</time></trkpt><trkpt lat="42.7270102" lon="13.724014"><ele>260.0</ele><time>2026-05-01T12:08:10.765Z</time></trkpt><trkpt lat="42.7268175" lon="13.7241292"><ele>258.33333333333337</ele><time>2026-05-01T12:08:11.764Z</time></trkpt><trkpt lat="42.7266531" lon="13.7242903"><ele>256.6666666666667</ele><time>2026-05-01T12:08:12.765Z</time></trkpt><trkpt lat="42.7264839" lon="13.7244542"><ele>255.0</ele><time>2026-05-01T12:08:13.764Z</time></trkpt><trkpt lat="42.7263267" lon="13.7246506"><ele>255.0</ele><time>2026-05-01T12:08:14.765Z</time></trkpt><trkpt lat="42.7261747" lon="13.7248481"><ele>255.0</ele><time>2026-05-01T12:08:15.765Z</time></trkpt><trkpt lat="42.726018" lon="13.7250457"><ele>255.0</ele><time>2026-05-01T12:08:16.764Z</time></trkpt><trkpt lat="42.7258598" lon="13.7252259"><ele>258.3333333333333</ele><time>2026-05-01T12:08:17.764Z</time></trkpt><trkpt lat="42.7257105" lon="13.7253794"><ele>261.66666666666663</ele><time>2026-05-01T12:08:18.765Z</time></trkpt><trkpt lat="42.7255444" lon="13.7255223"><ele>265.0</ele><time>2026-05-01T12:08:19.764Z</time></trkpt><trkpt lat="42.7253743" lon="13.7256398"><ele>270.3333333333333</ele><time>2026-05-01T12:08:20.764Z</time></trkpt><trkpt lat="42.7252136" lon="13.7257481"><ele>275.6666666666667</ele><time>2026-05-01T12:08:21.764Z</time></trkpt><trkpt lat="42.7250681" lon="13.7258939"><ele>281.0</ele><time>2026-05-01T12:08:22.764Z</time></trkpt><trkpt lat="42.7249295" lon="13.7260303"><ele>278.75</ele><time>2026-05-01T12:08:23.764Z</time></trkpt><trkpt lat="42.7248273" lon="13.7261967"><ele>276.5</ele><time>2026-05-01T12:08:24.765Z</time></trkpt><trkpt lat="42.7247122" lon="13.7263791"><ele>274.25</ele><time>2026-05-01T12:08:25.765Z</time></trkpt><trkpt lat="42.7246487" lon="13.7264807"><ele>272.0</ele><time>2026-05-01T12:08:26.764Z</time></trkpt><trkpt lat="42.724547" lon="13.7266033"><ele>272.0</ele><time>2026-05-01T12:08:27.765Z</time></trkpt><trkpt lat="42.724455" lon="13.7267028"><ele>272.0</ele><time>2026-05-01T12:08:28.765Z</time></trkpt><trkpt lat="42.7242933" lon="13.7266383"><ele>272.0</ele><time>2026-05-01T12:08:29.765Z</time></trkpt><trkpt lat="42.7241775" lon="13.7266753"><ele>272.0</ele><time>2026-05-01T12:08:30.765Z</time></trkpt><trkpt lat="42.7240808" lon="13.7267831"><ele>274.75</ele><time>2026-05-01T12:08:31.766Z</time></trkpt><trkpt lat="42.7239934" lon="13.7269196"><ele>277.5</ele><time>2026-05-01T12:08:32.766Z</time></trkpt><trkpt lat="42.7239138" lon="13.7270699"><ele>280.25</ele><time>2026-05-01T12:08:33.766Z</time></trkpt><trkpt lat="42.7238291" lon="13.7272275"><ele>283.0</ele><time>2026-05-01T12:08:34.766Z</time></trkpt><trkpt lat="42.7237419" lon="13.7274018"><ele>283.0</ele><time>2026-05-01T12:08:35.765Z</time></trkpt><trkpt lat="42.7236385" lon="13.7275783"><ele>283.0</ele><time>2026-05-01T12:08:36.766Z</time></trkpt><trkpt lat="42.7235331" lon="13.7277547"><ele>283.0</ele><time>2026-05-01T12:08:37.764Z</time></trkpt><trkpt lat="42.7234173" lon="13.7279489"><ele>283.3333333333333</ele><time>2026-05-01T12:08:38.765Z</time></trkpt><trkpt lat="42.7232935" lon="13.7281468"><ele>283.6666666666667</ele><time>2026-05-01T12:08:39.765Z</time></trkpt><trkpt lat="42.7231494" lon="13.7283533"><ele>284.0</ele><time>2026-05-01T12:08:40.764Z</time></trkpt><trkpt lat="42.7229933" lon="13.7285669"><ele>283.0</ele><time>2026-05-01T12:08:41.765Z</time></trkpt><trkpt lat="42.7228335" lon="13.728783"><ele>282.0</ele><time>2026-05-01T12:08:42.765Z</time></trkpt><trkpt lat="42.7226641" lon="13.7290147"><ele>280.5</ele><time>2026-05-01T12:08:43.766Z</time></trkpt><trkpt lat="42.7224912" lon="13.7292495"><ele>279.0</ele><time>2026-05-01T12:08:44.764Z</time></trkpt><trkpt lat="42.7223255" lon="13.7294748"><ele>278.0</ele><time>2026-05-01T12:08:45.765Z</time></trkpt><trkpt lat="42.7221617" lon="13.7296935"><ele>277.0</ele><time>2026-05-01T12:08:46.766Z</time></trkpt><trkpt lat="42.7219979" lon="13.7299054"><ele>275.5</ele><time>2026-05-01T12:08:47.766Z</time></trkpt><trkpt lat="42.7218353" lon="13.7301198"><ele>274.0</ele><time>2026-05-01T12:08:48.765Z</time></trkpt><trkpt lat="42.7216751" lon="13.7303356"><ele>274.0</ele><time>2026-05-01T12:08:49.765Z</time></trkpt><trkpt lat="42.721516" lon="13.7305439"><ele>274.0</ele><time>2026-05-01T12:08:50.764Z</time></trkpt><trkpt lat="42.7213602" lon="13.7307547"><ele>274.0</ele><time>2026-05-01T12:08:51.764Z</time></trkpt><trkpt lat="42.7212045" lon="13.7309663"><ele>271.0</ele><time>2026-05-01T12:08:52.764Z</time></trkpt><trkpt lat="42.7210431" lon="13.7311775"><ele>268.0</ele><time>2026-05-01T12:08:53.763Z</time></trkpt><trkpt lat="42.7208757" lon="13.7313926"><ele>268.0</ele><time>2026-05-01T12:08:54.764Z</time></trkpt><trkpt lat="42.7207099" lon="13.7316132"><ele>268.0</ele><time>2026-05-01T12:08:55.763Z</time></trkpt><trkpt lat="42.7205425" lon="13.7318428"><ele>268.0</ele><time>2026-05-01T12:08:56.764Z</time></trkpt><trkpt lat="42.7203759" lon="13.7320718"><ele>268.0</ele><time>2026-05-01T12:08:57.763Z</time></trkpt><trkpt lat="42.7202038" lon="13.7323062"><ele>268.0</ele><time>2026-05-01T12:08:58.763Z</time></trkpt><trkpt lat="42.7200303" lon="13.7325441"><ele>268.0</ele><time>2026-05-01T12:08:59.764Z</time></trkpt><trkpt lat="42.7198555" lon="13.7327825"><ele>268.0</ele><time>2026-05-01T12:09:00.764Z</time></trkpt><trkpt lat="42.7196824" lon="13.7330199"><ele>268.0</ele><time>2026-05-01T12:09:01.764Z</time></trkpt><trkpt lat="42.7195083" lon="13.7332544"><ele>267.0</ele><time>2026-05-01T12:09:02.763Z</time></trkpt><trkpt lat="42.7193305" lon="13.7334896"><ele>266.0</ele><time>2026-05-01T12:09:03.764Z</time></trkpt><trkpt lat="42.719155" lon="13.7337284"><ele>264.5</ele><time>2026-05-01T12:09:04.764Z</time></trkpt><trkpt lat="42.7189725" lon="13.7339735"><ele>263.0</ele><time>2026-05-01T12:09:05.764Z</time></trkpt><trkpt lat="42.7187865" lon="13.7342196"><ele>261.5</ele><time>2026-05-01T12:09:06.764Z</time></trkpt><trkpt lat="42.7186014" lon="13.7344654"><ele>260.0</ele><time>2026-05-01T12:09:07.764Z</time></trkpt><trkpt lat="42.7184134" lon="13.7347139"><ele>259.5</ele><time>2026-05-01T12:09:08.764Z</time></trkpt><trkpt lat="42.7182269" lon="13.7349666"><ele>259.0</ele><time>2026-05-01T12:09:09.764Z</time></trkpt><trkpt lat="42.7180407" lon="13.7352158"><ele>259.0</ele><time>2026-05-01T12:09:10.764Z</time></trkpt><trkpt lat="42.7178535" lon="13.7354681"><ele>259.0</ele><time>2026-05-01T12:09:11.763Z</time></trkpt><trkpt lat="42.7176639" lon="13.7357256"><ele>259.0</ele><time>2026-05-01T12:09:12.763Z</time></trkpt><trkpt lat="42.7174694" lon="13.7359852"><ele>259.0</ele><time>2026-05-01T12:09:13.763Z</time></trkpt><trkpt lat="42.7172755" lon="13.736247"><ele>259.5</ele><time>2026-05-01T12:09:14.763Z</time></trkpt><trkpt lat="42.7170739" lon="13.7365302"><ele>260.0</ele><time>2026-05-01T12:09:15.763Z</time></trkpt><trkpt lat="42.7168528" lon="13.7368338"><ele>257.0</ele><time>2026-05-01T12:09:16.764Z</time></trkpt><trkpt lat="42.7166211" lon="13.737145"><ele>254.0</ele><time>2026-05-01T12:09:17.765Z</time></trkpt><trkpt lat="42.7163786" lon="13.737469"><ele>253.5</ele><time>2026-05-01T12:09:18.763Z</time></trkpt><trkpt lat="42.7161407" lon="13.7377889"><ele>253.0</ele><time>2026-05-01T12:09:19.764Z</time></trkpt><trkpt lat="42.7159202" lon="13.7380884"><ele>253.0</ele><time>2026-05-01T12:09:20.763Z</time></trkpt><trkpt lat="42.715713" lon="13.7383683"><ele>253.0</ele><time>2026-05-01T12:09:21.764Z</time></trkpt><trkpt lat="42.7155166" lon="13.7386289"><ele>251.5</ele><time>2026-05-01T12:09:22.763Z</time></trkpt><trkpt lat="42.7153276" lon="13.7388797"><ele>250.0</ele><time>2026-05-01T12:09:23.764Z</time></trkpt><trkpt lat="42.7151567" lon="13.7391135"><ele>250.0</ele><time>2026-05-01T12:09:24.764Z</time></trkpt><trkpt lat="42.7149912" lon="13.739336"><ele>250.0</ele><time>2026-05-01T12:09:25.763Z</time></trkpt><trkpt lat="42.7148347" lon="13.7395466"><ele>249.33333333333331</ele><time>2026-05-01T12:09:26.764Z</time></trkpt><trkpt lat="42.7146845" lon="13.7397488"><ele>248.66666666666669</ele><time>2026-05-01T12:09:27.765Z</time></trkpt><trkpt lat="42.7145432" lon="13.7399395"><ele>248.0</ele><time>2026-05-01T12:09:28.764Z</time></trkpt><trkpt lat="42.7144015" lon="13.7401253"><ele>245.66666666666669</ele><time>2026-05-01T12:09:29.765Z</time></trkpt><trkpt lat="42.71425" lon="13.74032"><ele>243.33333333333331</ele><time>2026-05-01T12:09:30.765Z</time></trkpt><trkpt lat="42.7141009" lon="13.7405206"><ele>241.0</ele><time>2026-05-01T12:09:31.764Z</time></trkpt><trkpt lat="42.7139537" lon="13.7407212"><ele>241.0</ele><time>2026-05-01T12:09:32.764Z</time></trkpt><trkpt lat="42.7138104" lon="13.7409204"><ele>241.0</ele><time>2026-05-01T12:09:33.764Z</time></trkpt><trkpt lat="42.7136717" lon="13.7411084"><ele>241.0</ele><time>2026-05-01T12:09:34.764Z</time></trkpt><trkpt lat="42.7135291" lon="13.741293"><ele>240.33333333333331</ele><time>2026-05-01T12:09:35.763Z</time></trkpt><trkpt lat="42.7133996" lon="13.7414698"><ele>239.66666666666669</ele><time>2026-05-01T12:09:36.764Z</time></trkpt><trkpt lat="42.7132768" lon="13.7416454"><ele>239.0</ele><time>2026-05-01T12:09:37.764Z</time></trkpt><trkpt lat="42.7131579" lon="13.7418042"><ele>238.75</ele><time>2026-05-01T12:09:38.764Z</time></trkpt><trkpt lat="42.7130499" lon="13.7419473"><ele>238.5</ele><time>2026-05-01T12:09:39.764Z</time></trkpt><trkpt lat="42.7129467" lon="13.742073"><ele>238.25</ele><time>2026-05-01T12:09:40.764Z</time></trkpt><trkpt lat="42.7128364" lon="13.7421653"><ele>238.0</ele><time>2026-05-01T12:09:41.765Z</time></trkpt><trkpt lat="42.7127221" lon="13.7422057"><ele>238.0</ele><time>2026-05-01T12:09:42.764Z</time></trkpt><trkpt lat="42.7126051" lon="13.7421956"><ele>238.0</ele><time>2026-05-01T12:09:43.764Z</time></trkpt><trkpt lat="42.7124881" lon="13.7421885"><ele>238.0</ele><time>2026-05-01T12:09:44.763Z</time></trkpt><trkpt lat="42.7123935" lon="13.7420938"><ele>238.0</ele><time>2026-05-01T12:09:45.764Z</time></trkpt><trkpt lat="42.7122889" lon="13.742039"><ele>238.0</ele><time>2026-05-01T12:09:46.764Z</time></trkpt><trkpt lat="42.7121859" lon="13.741977"><ele>238.0</ele><time>2026-05-01T12:09:47.763Z</time></trkpt><trkpt lat="42.7120931" lon="13.7419289"><ele>238.0</ele><time>2026-05-01T12:09:48.765Z</time></trkpt><trkpt lat="42.7120071" lon="13.7418876"><ele>238.0</ele><time>2026-05-01T12:09:49.763Z</time></trkpt><trkpt lat="42.7119283" lon="13.7418523"><ele>238.0</ele><time>2026-05-01T12:09:50.764Z</time></trkpt><trkpt lat="42.7118495" lon="13.7418225"><ele>236.99999999999997</ele><time>2026-05-01T12:09:51.763Z</time></trkpt><trkpt lat="42.7117807" lon="13.7418028"><ele>236.0</ele><time>2026-05-01T12:09:52.764Z</time></trkpt><trkpt lat="42.7117154" lon="13.7417999"><ele>235.0</ele><time>2026-05-01T12:09:53.764Z</time></trkpt><trkpt lat="42.7115908" lon="13.7418192"><ele>234.0</ele><time>2026-05-01T12:09:55.764Z</time></trkpt><trkpt lat="42.7115246" lon="13.741861"><ele>232.99999999999997</ele><time>2026-05-01T12:09:56.763Z</time></trkpt><trkpt lat="42.7114648" lon="13.7419226"><ele>232.0</ele><time>2026-05-01T12:09:57.764Z</time></trkpt><trkpt lat="42.711416" lon="13.7420058"><ele>231.99999999999997</ele><time>2026-05-01T12:09:58.763Z</time></trkpt><trkpt lat="42.7113754" lon="13.7421047"><ele>232.0</ele><time>2026-05-01T12:09:59.764Z</time></trkpt><trkpt lat="42.7113513" lon="13.7422062"><ele>232.0</ele><time>2026-05-01T12:10:00.763Z</time></trkpt><trkpt lat="42.7113467" lon="13.7423085"><ele>232.0</ele><time>2026-05-01T12:10:01.764Z</time></trkpt><trkpt lat="42.711365" lon="13.7423983"><ele>231.99999999999997</ele><time>2026-05-01T12:10:02.765Z</time></trkpt><trkpt lat="42.711404" lon="13.7424807"><ele>232.0</ele><time>2026-05-01T12:10:03.764Z</time></trkpt><trkpt lat="42.711473" lon="13.7425584"><ele>232.0</ele><time>2026-05-01T12:10:04.765Z</time></trkpt><trkpt lat="42.7115581" lon="13.7426183"><ele>232.0</ele><time>2026-05-01T12:10:05.763Z</time></trkpt><trkpt lat="42.7116375" lon="13.742667"><ele>232.0</ele><time>2026-05-01T12:10:06.765Z</time></trkpt><trkpt lat="42.7117158" lon="13.742721"><ele>232.0</ele><time>2026-05-01T12:10:07.764Z</time></trkpt><trkpt lat="42.7118166" lon="13.7427858"><ele>232.0</ele><time>2026-05-01T12:10:08.764Z</time></trkpt><trkpt lat="42.7119508" lon="13.7428599"><ele>230.75</ele><time>2026-05-01T12:10:09.765Z</time></trkpt><trkpt lat="42.71209" lon="13.7429414"><ele>229.5</ele><time>2026-05-01T12:10:10.764Z</time></trkpt><trkpt lat="42.7122312" lon="13.7430039"><ele>228.25</ele><time>2026-05-01T12:10:11.763Z</time></trkpt><trkpt lat="42.7123532" lon="13.7430613"><ele>227.0</ele><time>2026-05-01T12:10:12.765Z</time></trkpt><trkpt lat="42.7124681" lon="13.7431193"><ele>227.00000000000003</ele><time>2026-05-01T12:10:13.764Z</time></trkpt><trkpt lat="42.7125541" lon="13.7431689"><ele>227.0</ele><time>2026-05-01T12:10:14.763Z</time></trkpt><trkpt lat="42.7126223" lon="13.743232"><ele>227.0</ele><time>2026-05-01T12:10:15.763Z</time></trkpt><trkpt lat="42.7126705" lon="13.7433204"><ele>227.0</ele><time>2026-05-01T12:10:16.763Z</time></trkpt><trkpt lat="42.7126782" lon="13.7434345"><ele>227.00000000000003</ele><time>2026-05-01T12:10:17.764Z</time></trkpt><trkpt lat="42.7126519" lon="13.7435544"><ele>227.0</ele><time>2026-05-01T12:10:18.763Z</time></trkpt><trkpt lat="42.7126235" lon="13.7436848"><ele>223.5</ele><time>2026-05-01T12:10:19.764Z</time></trkpt><trkpt lat="42.7125323" lon="13.7438027"><ele>220.0</ele><time>2026-05-01T12:10:20.764Z</time></trkpt><trkpt lat="42.7124148" lon="13.7438936"><ele>216.5</ele><time>2026-05-01T12:10:21.764Z</time></trkpt><trkpt lat="42.7122986" lon="13.7439483"><ele>213.0</ele><time>2026-05-01T12:10:22.764Z</time></trkpt><trkpt lat="42.7121598" lon="13.7439742"><ele>213.0</ele><time>2026-05-01T12:10:23.763Z</time></trkpt><trkpt lat="42.7120177" lon="13.7439811"><ele>213.0</ele><time>2026-05-01T12:10:24.765Z</time></trkpt><trkpt lat="42.711889" lon="13.7439318"><ele>213.0</ele><time>2026-05-01T12:10:25.763Z</time></trkpt><trkpt lat="42.7117533" lon="13.7438707"><ele>213.0</ele><time>2026-05-01T12:10:26.764Z</time></trkpt><trkpt lat="42.7116096" lon="13.743759"><ele>212.0</ele><time>2026-05-01T12:10:27.763Z</time></trkpt><trkpt lat="42.711464" lon="13.7436862"><ele>211.0</ele><time>2026-05-01T12:10:28.763Z</time></trkpt><trkpt lat="42.7113208" lon="13.7436239"><ele>210.0</ele><time>2026-05-01T12:10:29.765Z</time></trkpt><trkpt lat="42.7111813" lon="13.7435635"><ele>209.75</ele><time>2026-05-01T12:10:30.764Z</time></trkpt><trkpt lat="42.7110479" lon="13.7435023"><ele>209.5</ele><time>2026-05-01T12:10:31.764Z</time></trkpt><trkpt lat="42.710914" lon="13.7434729"><ele>209.25</ele><time>2026-05-01T12:10:32.764Z</time></trkpt><trkpt lat="42.710783" lon="13.743491"><ele>209.0</ele><time>2026-05-01T12:10:33.765Z</time></trkpt><trkpt lat="42.7106657" lon="13.7435757"><ele>206.33333333333334</ele><time>2026-05-01T12:10:34.764Z</time></trkpt><trkpt lat="42.7105681" lon="13.7437195"><ele>203.66666666666669</ele><time>2026-05-01T12:10:35.764Z</time></trkpt><trkpt lat="42.7104763" lon="13.7439085"><ele>201.0</ele><time>2026-05-01T12:10:36.764Z</time></trkpt><trkpt lat="42.7103847" lon="13.7441102"><ele>201.0</ele><time>2026-05-01T12:10:37.764Z</time></trkpt><trkpt lat="42.7102855" lon="13.7443232"><ele>201.0</ele><time>2026-05-01T12:10:38.764Z</time></trkpt><trkpt lat="42.7101909" lon="13.7445281"><ele>201.0</ele><time>2026-05-01T12:10:39.765Z</time></trkpt><trkpt lat="42.7101009" lon="13.7447263"><ele>201.0</ele><time>2026-05-01T12:10:40.764Z</time></trkpt><trkpt lat="42.7100044" lon="13.7449131"><ele>201.0</ele><time>2026-05-01T12:10:41.763Z</time></trkpt><trkpt lat="42.7099202" lon="13.7450881"><ele>201.0</ele><time>2026-05-01T12:10:42.764Z</time></trkpt><trkpt lat="42.7098434" lon="13.7452559"><ele>201.0</ele><time>2026-05-01T12:10:43.764Z</time></trkpt><trkpt lat="42.7097696" lon="13.7454107"><ele>201.0</ele><time>2026-05-01T12:10:44.764Z</time></trkpt><trkpt lat="42.7097046" lon="13.7455409"><ele>201.0</ele><time>2026-05-01T12:10:45.763Z</time></trkpt><trkpt lat="42.7096411" lon="13.7456357"><ele>201.0</ele><time>2026-05-01T12:10:46.764Z</time></trkpt><trkpt lat="42.7095673" lon="13.7456857"><ele>201.0</ele><time>2026-05-01T12:10:47.764Z</time></trkpt><trkpt lat="42.7094721" lon="13.7457153"><ele>201.20000000000002</ele><time>2026-05-01T12:10:48.764Z</time></trkpt><trkpt lat="42.7093927" lon="13.7457627"><ele>201.4</ele><time>2026-05-01T12:10:49.763Z</time></trkpt><trkpt lat="42.7093277" lon="13.745851"><ele>201.6</ele><time>2026-05-01T12:10:50.763Z</time></trkpt><trkpt lat="42.7092897" lon="13.7459577"><ele>201.8</ele><time>2026-05-01T12:10:51.764Z</time></trkpt><trkpt lat="42.709284" lon="13.7460995"><ele>202.0</ele><time>2026-05-01T12:10:52.765Z</time></trkpt><trkpt lat="42.7092805" lon="13.7462725"><ele>204.0</ele><time>2026-05-01T12:10:53.765Z</time></trkpt><trkpt lat="42.7092538" lon="13.7464534"><ele>206.0</ele><time>2026-05-01T12:10:54.763Z</time></trkpt><trkpt lat="42.7092036" lon="13.7466556"><ele>208.0</ele><time>2026-05-01T12:10:55.765Z</time></trkpt><trkpt lat="42.7091444" lon="13.7468743"><ele>209.33333333333331</ele><time>2026-05-01T12:10:56.763Z</time></trkpt><trkpt lat="42.7090926" lon="13.7471059"><ele>210.66666666666669</ele><time>2026-05-01T12:10:57.765Z</time></trkpt><trkpt lat="42.7090349" lon="13.7473356"><ele>212.0</ele><time>2026-05-01T12:10:58.764Z</time></trkpt><trkpt lat="42.7089753" lon="13.7475739"><ele>212.66666666666669</ele><time>2026-05-01T12:10:59.764Z</time></trkpt><trkpt lat="42.7089135" lon="13.7478346"><ele>213.33333333333331</ele><time>2026-05-01T12:11:00.764Z</time></trkpt><trkpt lat="42.7088454" lon="13.7481076"><ele>214.0</ele><time>2026-05-01T12:11:01.764Z</time></trkpt><trkpt lat="42.7087842" lon="13.7483761"><ele>214.33333333333331</ele><time>2026-05-01T12:11:02.763Z</time></trkpt><trkpt lat="42.7087202" lon="13.7486517"><ele>214.66666666666669</ele><time>2026-05-01T12:11:03.764Z</time></trkpt><trkpt lat="42.7086517" lon="13.7489402"><ele>215.0</ele><time>2026-05-01T12:11:04.763Z</time></trkpt><trkpt lat="42.7085766" lon="13.7492586"><ele>212.5</ele><time>2026-05-01T12:11:05.764Z</time></trkpt><trkpt lat="42.7085006" lon="13.7495853"><ele>210.0</ele><time>2026-05-01T12:11:06.763Z</time></trkpt><trkpt lat="42.7084244" lon="13.7499067"><ele>210.5</ele><time>2026-05-01T12:11:07.765Z</time></trkpt><trkpt lat="42.7083468" lon="13.7502241"><ele>211.0</ele><time>2026-05-01T12:11:08.764Z</time></trkpt><trkpt lat="42.7082735" lon="13.7505105"><ele>211.0</ele><time>2026-05-01T12:11:09.764Z</time></trkpt><trkpt lat="42.7082051" lon="13.7508009"><ele>211.0</ele><time>2026-05-01T12:11:10.763Z</time></trkpt><trkpt lat="42.7081421" lon="13.7510953"><ele>211.0</ele><time>2026-05-01T12:11:11.764Z</time></trkpt><trkpt lat="42.7080653" lon="13.7513681"><ele>212.33333333333331</ele><time>2026-05-01T12:11:12.763Z</time></trkpt><trkpt lat="42.7080127" lon="13.7516678"><ele>213.66666666666669</ele><time>2026-05-01T12:11:13.763Z</time></trkpt><trkpt lat="42.7079435" lon="13.7519496"><ele>215.0</ele><time>2026-05-01T12:11:14.763Z</time></trkpt><trkpt lat="42.7078755" lon="13.7522471"><ele>215.33333333333334</ele><time>2026-05-01T12:11:15.763Z</time></trkpt><trkpt lat="42.7078059" lon="13.7525263"><ele>215.66666666666669</ele><time>2026-05-01T12:11:16.764Z</time></trkpt><trkpt lat="42.7077309" lon="13.7528044"><ele>216.0</ele><time>2026-05-01T12:11:17.765Z</time></trkpt><trkpt lat="42.7076593" lon="13.7530987"><ele>213.0</ele><time>2026-05-01T12:11:18.763Z</time></trkpt><trkpt lat="42.7075924" lon="13.7533842"><ele>210.0</ele><time>2026-05-01T12:11:19.763Z</time></trkpt><trkpt lat="42.7075289" lon="13.7536645"><ele>207.0</ele><time>2026-05-01T12:11:20.764Z</time></trkpt><trkpt lat="42.7074699" lon="13.7539425"><ele>207.0</ele><time>2026-05-01T12:11:21.765Z</time></trkpt><trkpt lat="42.7074059" lon="13.7542246"><ele>207.0</ele><time>2026-05-01T12:11:22.764Z</time></trkpt><trkpt lat="42.7073401" lon="13.7545013"><ele>207.0</ele><time>2026-05-01T12:11:23.763Z</time></trkpt><trkpt lat="42.7072744" lon="13.7547749"><ele>208.66666666666669</ele><time>2026-05-01T12:11:24.763Z</time></trkpt><trkpt lat="42.707206" lon="13.7550446"><ele>210.33333333333334</ele><time>2026-05-01T12:11:25.764Z</time></trkpt><trkpt lat="42.7071425" lon="13.7553006"><ele>212.0</ele><time>2026-05-01T12:11:26.764Z</time></trkpt><trkpt lat="42.7070808" lon="13.7555449"><ele>214.66666666666669</ele><time>2026-05-01T12:11:27.764Z</time></trkpt><trkpt lat="42.707026" lon="13.7557841"><ele>217.33333333333331</ele><time>2026-05-01T12:11:28.765Z</time></trkpt><trkpt lat="42.7069649" lon="13.7560169"><ele>220.0</ele><time>2026-05-01T12:11:29.763Z</time></trkpt><trkpt lat="42.7068894" lon="13.7562442"><ele>214.33333333333331</ele><time>2026-05-01T12:11:30.764Z</time></trkpt><trkpt lat="42.7067995" lon="13.7564592"><ele>208.66666666666669</ele><time>2026-05-01T12:11:31.765Z</time></trkpt><trkpt lat="42.7066814" lon="13.7566567"><ele>203.0</ele><time>2026-05-01T12:11:32.764Z</time></trkpt><trkpt lat="42.7065317" lon="13.7568338"><ele>203.33333333333334</ele><time>2026-05-01T12:11:33.763Z</time></trkpt><trkpt lat="42.7063554" lon="13.7570095"><ele>203.66666666666669</ele><time>2026-05-01T12:11:34.764Z</time></trkpt><trkpt lat="42.7061641" lon="13.7571834"><ele>204.0</ele><time>2026-05-01T12:11:35.763Z</time></trkpt><trkpt lat="42.7059857" lon="13.7573479"><ele>205.33333333333331</ele><time>2026-05-01T12:11:36.763Z</time></trkpt><trkpt lat="42.7058187" lon="13.7575028"><ele>206.66666666666666</ele><time>2026-05-01T12:11:37.764Z</time></trkpt><trkpt lat="42.7056729" lon="13.7576571"><ele>208.0</ele><time>2026-05-01T12:11:38.765Z</time></trkpt><trkpt lat="42.7055349" lon="13.7578293"><ele>210.66666666666666</ele><time>2026-05-01T12:11:39.765Z</time></trkpt><trkpt lat="42.7054141" lon="13.7580434"><ele>213.33333333333331</ele><time>2026-05-01T12:11:40.764Z</time></trkpt><trkpt lat="42.7053053" lon="13.7582901"><ele>216.0</ele><time>2026-05-01T12:11:41.765Z</time></trkpt><trkpt lat="42.7052001" lon="13.7585558"><ele>216.0</ele><time>2026-05-01T12:11:42.764Z</time></trkpt><trkpt lat="42.7050947" lon="13.758817"><ele>216.0</ele><time>2026-05-01T12:11:43.765Z</time></trkpt><trkpt lat="42.7049896" lon="13.7590621"><ele>216.0</ele><time>2026-05-01T12:11:44.764Z</time></trkpt><trkpt lat="42.7048951" lon="13.7592959"><ele>218.0</ele><time>2026-05-01T12:11:45.763Z</time></trkpt><trkpt lat="42.7048059" lon="13.7595201"><ele>220.0</ele><time>2026-05-01T12:11:46.764Z</time></trkpt><trkpt lat="42.7047212" lon="13.7597234"><ele>222.0</ele><time>2026-05-01T12:11:47.764Z</time></trkpt><trkpt lat="42.7046427" lon="13.7599167"><ele>222.0</ele><time>2026-05-01T12:11:48.764Z</time></trkpt><trkpt lat="42.7045654" lon="13.7600997"><ele>222.0</ele><time>2026-05-01T12:11:49.765Z</time></trkpt><trkpt lat="42.7045024" lon="13.7602874"><ele>222.0</ele><time>2026-05-01T12:11:50.765Z</time></trkpt><trkpt lat="42.7044631" lon="13.7604845"><ele>222.0</ele><time>2026-05-01T12:11:51.764Z</time></trkpt><trkpt lat="42.7044539" lon="13.7606908"><ele>222.0</ele><time>2026-05-01T12:11:52.763Z</time></trkpt><trkpt lat="42.7044762" lon="13.7609142"><ele>222.0</ele><time>2026-05-01T12:11:53.764Z</time></trkpt><trkpt lat="42.7045205" lon="13.7611669"><ele>222.0</ele><time>2026-05-01T12:11:54.764Z</time></trkpt><trkpt lat="42.7045714" lon="13.7614422"><ele>222.0</ele><time>2026-05-01T12:11:55.764Z</time></trkpt><trkpt lat="42.7046163" lon="13.7617115"><ele>222.0</ele><time>2026-05-01T12:11:56.764Z</time></trkpt><trkpt lat="42.7046586" lon="13.7619752"><ele>221.66666666666669</ele><time>2026-05-01T12:11:57.763Z</time></trkpt><trkpt lat="42.7047039" lon="13.7622495"><ele>221.33333333333334</ele><time>2026-05-01T12:11:58.764Z</time></trkpt><trkpt lat="42.7047538" lon="13.7625276"><ele>221.0</ele><time>2026-05-01T12:11:59.763Z</time></trkpt><trkpt lat="42.7048059" lon="13.7628212"><ele>220.33333333333334</ele><time>2026-05-01T12:12:00.764Z</time></trkpt><trkpt lat="42.7048524" lon="13.7631214"><ele>219.66666666666669</ele><time>2026-05-01T12:12:01.764Z</time></trkpt><trkpt lat="42.7048884" lon="13.7634081"><ele>219.0</ele><time>2026-05-01T12:12:02.765Z</time></trkpt><trkpt lat="42.7049094" lon="13.7637073"><ele>218.0</ele><time>2026-05-01T12:12:03.764Z</time></trkpt><trkpt lat="42.7049149" lon="13.764009"><ele>217.0</ele><time>2026-05-01T12:12:04.763Z</time></trkpt><trkpt lat="42.7049157" lon="13.7643182"><ele>216.0</ele><time>2026-05-01T12:12:05.765Z</time></trkpt><trkpt lat="42.7049123" lon="13.7646096"><ele>215.66666666666669</ele><time>2026-05-01T12:12:06.765Z</time></trkpt><trkpt lat="42.7049074" lon="13.7648853"><ele>215.33333333333334</ele><time>2026-05-01T12:12:07.763Z</time></trkpt><trkpt lat="42.7048997" lon="13.7651439"><ele>215.0</ele><time>2026-05-01T12:12:08.764Z</time></trkpt><trkpt lat="42.7048956" lon="13.7653966"><ele>215.0</ele><time>2026-05-01T12:12:09.764Z</time></trkpt><trkpt lat="42.7048913" lon="13.7656277"><ele>215.0</ele><time>2026-05-01T12:12:10.763Z</time></trkpt><trkpt lat="42.7048848" lon="13.7658429"><ele>215.0</ele><time>2026-05-01T12:12:11.763Z</time></trkpt><trkpt lat="42.7048819" lon="13.7660482"><ele>215.25</ele><time>2026-05-01T12:12:12.762Z</time></trkpt><trkpt lat="42.7048745" lon="13.766239"><ele>215.5</ele><time>2026-05-01T12:12:13.763Z</time></trkpt><trkpt lat="42.7048613" lon="13.7664187"><ele>215.75</ele><time>2026-05-01T12:12:14.763Z</time></trkpt><trkpt lat="42.7048418" lon="13.7665825"><ele>216.0</ele><time>2026-05-01T12:12:15.762Z</time></trkpt><trkpt lat="42.7048131" lon="13.7667293"><ele>216.0</ele><time>2026-05-01T12:12:16.763Z</time></trkpt><trkpt lat="42.7047712" lon="13.7668566"><ele>216.0</ele><time>2026-05-01T12:12:17.762Z</time></trkpt><trkpt lat="42.7047098" lon="13.7669749"><ele>216.0</ele><time>2026-05-01T12:12:18.763Z</time></trkpt><trkpt lat="42.7046306" lon="13.7670858"><ele>216.0</ele><time>2026-05-01T12:12:19.762Z</time></trkpt><trkpt lat="42.7045117" lon="13.7671979"><ele>215.33333333333331</ele><time>2026-05-01T12:12:20.762Z</time></trkpt><trkpt lat="42.7043671" lon="13.7673292"><ele>214.66666666666666</ele><time>2026-05-01T12:12:21.763Z</time></trkpt><trkpt lat="42.7042098" lon="13.767467"><ele>214.0</ele><time>2026-05-01T12:12:22.764Z</time></trkpt><trkpt lat="42.7040317" lon="13.7676085"><ele>214.33333333333331</ele><time>2026-05-01T12:12:23.763Z</time></trkpt><trkpt lat="42.7038457" lon="13.7677582"><ele>214.66666666666669</ele><time>2026-05-01T12:12:24.763Z</time></trkpt><trkpt lat="42.7036563" lon="13.7678971"><ele>215.0</ele><time>2026-05-01T12:12:25.763Z</time></trkpt><trkpt lat="42.7034695" lon="13.7680457"><ele>214.0</ele><time>2026-05-01T12:12:26.763Z</time></trkpt><trkpt lat="42.7032723" lon="13.7681929"><ele>213.0</ele><time>2026-05-01T12:12:27.764Z</time></trkpt><trkpt lat="42.7030754" lon="13.7683461"><ele>213.0</ele><time>2026-05-01T12:12:28.764Z</time></trkpt><trkpt lat="42.7028611" lon="13.7685089"><ele>213.0</ele><time>2026-05-01T12:12:29.762Z</time></trkpt><trkpt lat="42.7026384" lon="13.7686706"><ele>213.0</ele><time>2026-05-01T12:12:30.764Z</time></trkpt><trkpt lat="42.7024285" lon="13.7688376"><ele>213.0</ele><time>2026-05-01T12:12:31.763Z</time></trkpt><trkpt lat="42.702226" lon="13.768995"><ele>213.0</ele><time>2026-05-01T12:12:32.764Z</time></trkpt><trkpt lat="42.7020219" lon="13.7691488"><ele>213.0</ele><time>2026-05-01T12:12:33.762Z</time></trkpt><trkpt lat="42.7018194" lon="13.7693002"><ele>213.66666666666669</ele><time>2026-05-01T12:12:34.762Z</time></trkpt><trkpt lat="42.7016256" lon="13.7694472"><ele>214.33333333333334</ele><time>2026-05-01T12:12:35.764Z</time></trkpt><trkpt lat="42.7014414" lon="13.7695886"><ele>215.0</ele><time>2026-05-01T12:12:36.763Z</time></trkpt><trkpt lat="42.701264" lon="13.7697222"><ele>215.0</ele><time>2026-05-01T12:12:37.763Z</time></trkpt><trkpt lat="42.7010832" lon="13.7698574"><ele>215.0</ele><time>2026-05-01T12:12:38.763Z</time></trkpt><trkpt lat="42.7009125" lon="13.7699886"><ele>215.0</ele><time>2026-05-01T12:12:39.763Z</time></trkpt><trkpt lat="42.7007301" lon="13.7701256"><ele>215.66666666666669</ele><time>2026-05-01T12:12:40.762Z</time></trkpt><trkpt lat="42.700539" lon="13.7702695"><ele>216.33333333333331</ele><time>2026-05-01T12:12:41.763Z</time></trkpt><trkpt lat="42.7003601" lon="13.7704026"><ele>217.0</ele><time>2026-05-01T12:12:42.762Z</time></trkpt><trkpt lat="42.7001943" lon="13.7705314"><ele>214.33333333333331</ele><time>2026-05-01T12:12:43.762Z</time></trkpt><trkpt lat="42.7000354" lon="13.7706536"><ele>211.66666666666669</ele><time>2026-05-01T12:12:44.763Z</time></trkpt><trkpt lat="42.6998906" lon="13.7707742"><ele>209.0</ele><time>2026-05-01T12:12:45.764Z</time></trkpt><trkpt lat="42.6997458" lon="13.7708833"><ele>209.0</ele><time>2026-05-01T12:12:46.762Z</time></trkpt><trkpt lat="42.6995962" lon="13.7709638"><ele>209.0</ele><time>2026-05-01T12:12:47.763Z</time></trkpt><trkpt lat="42.6994394" lon="13.7710057"><ele>209.0</ele><time>2026-05-01T12:12:48.762Z</time></trkpt><trkpt lat="42.699278" lon="13.7710047"><ele>207.33333333333334</ele><time>2026-05-01T12:12:49.763Z</time></trkpt><trkpt lat="42.6991138" lon="13.7709485"><ele>205.66666666666669</ele><time>2026-05-01T12:12:50.764Z</time></trkpt><trkpt lat="42.6989454" lon="13.7708666"><ele>204.0</ele><time>2026-05-01T12:12:51.762Z</time></trkpt><trkpt lat="42.6987706" lon="13.770746"><ele>204.0</ele><time>2026-05-01T12:12:52.763Z</time></trkpt><trkpt lat="42.6985997" lon="13.7706364"><ele>204.0</ele><time>2026-05-01T12:12:53.762Z</time></trkpt><trkpt lat="42.6984311" lon="13.7705456"><ele>204.0</ele><time>2026-05-01T12:12:54.763Z</time></trkpt><trkpt lat="42.6982722" lon="13.7704715"><ele>204.33333333333331</ele><time>2026-05-01T12:12:55.762Z</time></trkpt><trkpt lat="42.6981081" lon="13.7704273"><ele>204.66666666666666</ele><time>2026-05-01T12:12:56.762Z</time></trkpt><trkpt lat="42.6979333" lon="13.7704198"><ele>205.0</ele><time>2026-05-01T12:12:57.764Z</time></trkpt><trkpt lat="42.697753" lon="13.7704579"><ele>203.0</ele><time>2026-05-01T12:12:58.764Z</time></trkpt><trkpt lat="42.6975804" lon="13.7705414"><ele>201.0</ele><time>2026-05-01T12:12:59.764Z</time></trkpt><trkpt lat="42.6974196" lon="13.7706606"><ele>199.0</ele><time>2026-05-01T12:13:00.764Z</time></trkpt><trkpt lat="42.6972658" lon="13.7708193"><ele>199.0</ele><time>2026-05-01T12:13:01.764Z</time></trkpt><trkpt lat="42.6971247" lon="13.7710165"><ele>199.0</ele><time>2026-05-01T12:13:02.763Z</time></trkpt><trkpt lat="42.696994" lon="13.7712358"><ele>199.0</ele><time>2026-05-01T12:13:03.764Z</time></trkpt><trkpt lat="42.6968598" lon="13.7714718"><ele>196.0</ele><time>2026-05-01T12:13:04.763Z</time></trkpt><trkpt lat="42.6967613" lon="13.7717678"><ele>193.0</ele><time>2026-05-01T12:13:05.762Z</time></trkpt><trkpt lat="42.6966326" lon="13.7720122"><ele>193.0</ele><time>2026-05-01T12:13:06.763Z</time></trkpt><trkpt lat="42.6965012" lon="13.7722399"><ele>193.0</ele><time>2026-05-01T12:13:07.762Z</time></trkpt><trkpt lat="42.696372" lon="13.772469"><ele>193.0</ele><time>2026-05-01T12:13:08.763Z</time></trkpt><trkpt lat="42.6962477" lon="13.7727494"><ele>196.5</ele><time>2026-05-01T12:13:09.763Z</time></trkpt><trkpt lat="42.6961324" lon="13.7730785"><ele>200.0</ele><time>2026-05-01T12:13:10.763Z</time></trkpt><trkpt lat="42.6960145" lon="13.7734002"><ele>193.0</ele><time>2026-05-01T12:13:11.762Z</time></trkpt><trkpt lat="42.6958965" lon="13.7736991"><ele>186.0</ele><time>2026-05-01T12:13:12.762Z</time></trkpt><trkpt lat="42.6957785" lon="13.773977"><ele>186.0</ele><time>2026-05-01T12:13:13.762Z</time></trkpt><trkpt lat="42.6956626" lon="13.7742417"><ele>186.0</ele><time>2026-05-01T12:13:14.763Z</time></trkpt><trkpt lat="42.6955519" lon="13.774494"><ele>186.0</ele><time>2026-05-01T12:13:15.763Z</time></trkpt><trkpt lat="42.6954434" lon="13.7747349"><ele>183.33333333333334</ele><time>2026-05-01T12:13:16.764Z</time></trkpt><trkpt lat="42.6953422" lon="13.7749628"><ele>180.66666666666669</ele><time>2026-05-01T12:13:17.763Z</time></trkpt><trkpt lat="42.6952425" lon="13.7751789"><ele>178.0</ele><time>2026-05-01T12:13:18.762Z</time></trkpt><trkpt lat="42.695146" lon="13.7753862"><ele>178.0</ele><time>2026-05-01T12:13:19.763Z</time></trkpt><trkpt lat="42.6950591" lon="13.7755889"><ele>178.0</ele><time>2026-05-01T12:13:20.764Z</time></trkpt><trkpt lat="42.6949793" lon="13.7757766"><ele>178.0</ele><time>2026-05-01T12:13:21.764Z</time></trkpt><trkpt lat="42.6948995" lon="13.7759536"><ele>177.75</ele><time>2026-05-01T12:13:22.763Z</time></trkpt><trkpt lat="42.6948232" lon="13.7761299"><ele>177.5</ele><time>2026-05-01T12:13:23.763Z</time></trkpt><trkpt lat="42.6947438" lon="13.7763012"><ele>177.25</ele><time>2026-05-01T12:13:24.763Z</time></trkpt><trkpt lat="42.6946579" lon="13.776457"><ele>177.0</ele><time>2026-05-01T12:13:25.763Z</time></trkpt><trkpt lat="42.6945527" lon="13.7766314"><ele>177.0</ele><time>2026-05-01T12:13:26.763Z</time></trkpt><trkpt lat="42.6944362" lon="13.7767867"><ele>177.0</ele><time>2026-05-01T12:13:27.762Z</time></trkpt><trkpt lat="42.6943131" lon="13.7769166"><ele>177.0</ele><time>2026-05-01T12:13:28.762Z</time></trkpt><trkpt lat="42.6941665" lon="13.7770342"><ele>175.0</ele><time>2026-05-01T12:13:29.764Z</time></trkpt><trkpt lat="42.694011" lon="13.7771392"><ele>173.0</ele><time>2026-05-01T12:13:30.764Z</time></trkpt><trkpt lat="42.6938432" lon="13.7772302"><ele>171.0</ele><time>2026-05-01T12:13:31.763Z</time></trkpt><trkpt lat="42.6936568" lon="13.7773375"><ele>169.66666666666666</ele><time>2026-05-01T12:13:32.763Z</time></trkpt><trkpt lat="42.6934846" lon="13.7774437"><ele>168.33333333333331</ele><time>2026-05-01T12:13:33.764Z</time></trkpt><trkpt lat="42.6933219" lon="13.7775362"><ele>167.0</ele><time>2026-05-01T12:13:34.763Z</time></trkpt><trkpt lat="42.6931632" lon="13.7776182"><ele>166.66666666666666</ele><time>2026-05-01T12:13:35.763Z</time></trkpt><trkpt lat="42.6930149" lon="13.7776969"><ele>166.33333333333334</ele><time>2026-05-01T12:13:36.762Z</time></trkpt><trkpt lat="42.6928719" lon="13.7777763"><ele>166.0</ele><time>2026-05-01T12:13:37.762Z</time></trkpt><trkpt lat="42.6927376" lon="13.7778541"><ele>166.0</ele><time>2026-05-01T12:13:38.763Z</time></trkpt><trkpt lat="42.6926138" lon="13.7779242"><ele>166.0</ele><time>2026-05-01T12:13:39.763Z</time></trkpt><trkpt lat="42.6924937" lon="13.7779904"><ele>166.0</ele><time>2026-05-01T12:13:40.763Z</time></trkpt><trkpt lat="42.6923789" lon="13.7780488"><ele>166.0</ele><time>2026-05-01T12:13:41.763Z</time></trkpt><trkpt lat="42.6922743" lon="13.7781114"><ele>166.0</ele><time>2026-05-01T12:13:42.762Z</time></trkpt><trkpt lat="42.6921732" lon="13.7781673"><ele>166.0</ele><time>2026-05-01T12:13:43.763Z</time></trkpt><trkpt lat="42.6920767" lon="13.7782178"><ele>166.0</ele><time>2026-05-01T12:13:44.762Z</time></trkpt><trkpt lat="42.6919889" lon="13.7782672"><ele>166.0</ele><time>2026-05-01T12:13:45.763Z</time></trkpt><trkpt lat="42.6918871" lon="13.7783251"><ele>166.0</ele><time>2026-05-01T12:13:46.763Z</time></trkpt><trkpt lat="42.6917727" lon="13.7783909"><ele>165.5</ele><time>2026-05-01T12:13:47.763Z</time></trkpt><trkpt lat="42.6916477" lon="13.7784625"><ele>165.0</ele><time>2026-05-01T12:13:48.764Z</time></trkpt><trkpt lat="42.6915173" lon="13.7785333"><ele>164.5</ele><time>2026-05-01T12:13:49.764Z</time></trkpt><trkpt lat="42.6913696" lon="13.778622"><ele>164.0</ele><time>2026-05-01T12:13:50.763Z</time></trkpt><trkpt lat="42.6912133" lon="13.778719"><ele>162.33333333333331</ele><time>2026-05-01T12:13:51.764Z</time></trkpt><trkpt lat="42.6910508" lon="13.7788184"><ele>160.66666666666666</ele><time>2026-05-01T12:13:52.763Z</time></trkpt><trkpt lat="42.6908923" lon="13.7789118"><ele>159.0</ele><time>2026-05-01T12:13:53.764Z</time></trkpt><trkpt lat="42.6907416" lon="13.7790004"><ele>159.0</ele><time>2026-05-01T12:13:54.763Z</time></trkpt><trkpt lat="42.6906017" lon="13.7790807"><ele>159.0</ele><time>2026-05-01T12:13:55.764Z</time></trkpt><trkpt lat="42.6904683" lon="13.7791516"><ele>159.0</ele><time>2026-05-01T12:13:56.763Z</time></trkpt><trkpt lat="42.6903369" lon="13.7791983"><ele>159.0</ele><time>2026-05-01T12:13:57.762Z</time></trkpt><trkpt lat="42.6902228" lon="13.7792241"><ele>158.2</ele><time>2026-05-01T12:13:58.763Z</time></trkpt><trkpt lat="42.6901306" lon="13.7792484"><ele>157.4</ele><time>2026-05-01T12:13:59.763Z</time></trkpt><trkpt lat="42.690062" lon="13.7792801"><ele>156.6</ele><time>2026-05-01T12:14:00.762Z</time></trkpt><trkpt lat="42.689991" lon="13.7793505"><ele>155.8</ele><time>2026-05-01T12:14:02.763Z</time></trkpt><trkpt lat="42.689978" lon="13.7795109"><ele>155.0</ele><time>2026-05-01T12:14:04.763Z</time></trkpt><trkpt lat="42.690001" lon="13.7796185"><ele>155.0</ele><time>2026-05-01T12:14:05.764Z</time></trkpt><trkpt lat="42.6900542" lon="13.7797481"><ele>155.0</ele><time>2026-05-01T12:14:06.764Z</time></trkpt><trkpt lat="42.6901285" lon="13.779905"><ele>155.0</ele><time>2026-05-01T12:14:07.763Z</time></trkpt><trkpt lat="42.6902067" lon="13.78009"><ele>155.0</ele><time>2026-05-01T12:14:08.764Z</time></trkpt><trkpt lat="42.6902974" lon="13.7802967"><ele>155.0</ele><time>2026-05-01T12:14:09.763Z</time></trkpt><trkpt lat="42.6903988" lon="13.7805172"><ele>155.0</ele><time>2026-05-01T12:14:10.764Z</time></trkpt><trkpt lat="42.690516" lon="13.7807581"><ele>155.0</ele><time>2026-05-01T12:14:11.763Z</time></trkpt><trkpt lat="42.6906386" lon="13.7810157"><ele>154.33333333333331</ele><time>2026-05-01T12:14:12.763Z</time></trkpt><trkpt lat="42.6907626" lon="13.7812741"><ele>153.66666666666666</ele><time>2026-05-01T12:14:13.763Z</time></trkpt><trkpt lat="42.690882" lon="13.7815206"><ele>153.0</ele><time>2026-05-01T12:14:14.762Z</time></trkpt><trkpt lat="42.6910043" lon="13.7817772"><ele>154.0</ele><time>2026-05-01T12:14:15.763Z</time></trkpt><trkpt lat="42.6911278" lon="13.782035"><ele>155.0</ele><time>2026-05-01T12:14:16.763Z</time></trkpt><trkpt lat="42.691251" lon="13.7822944"><ele>155.0</ele><time>2026-05-01T12:14:17.762Z</time></trkpt><trkpt lat="42.6913745" lon="13.782545"><ele>155.0</ele><time>2026-05-01T12:14:18.762Z</time></trkpt><trkpt lat="42.6914956" lon="13.7827905"><ele>155.0</ele><time>2026-05-01T12:14:19.764Z</time></trkpt><trkpt lat="42.6916121" lon="13.7830264"><ele>154.66666666666666</ele><time>2026-05-01T12:14:20.764Z</time></trkpt><trkpt lat="42.6917281" lon="13.7832628"><ele>154.33333333333334</ele><time>2026-05-01T12:14:21.764Z</time></trkpt><trkpt lat="42.6918389" lon="13.783499"><ele>154.0</ele><time>2026-05-01T12:14:22.764Z</time></trkpt><trkpt lat="42.6919533" lon="13.7837391"><ele>153.66666666666669</ele><time>2026-05-01T12:14:23.763Z</time></trkpt><trkpt lat="42.6920797" lon="13.7839961"><ele>153.33333333333334</ele><time>2026-05-01T12:14:24.764Z</time></trkpt><trkpt lat="42.6921949" lon="13.7842405"><ele>153.0</ele><time>2026-05-01T12:14:25.763Z</time></trkpt><trkpt lat="42.692316" lon="13.784485"><ele>153.0</ele><time>2026-05-01T12:14:26.764Z</time></trkpt><trkpt lat="42.6924341" lon="13.7847278"><ele>153.0</ele><time>2026-05-01T12:14:27.763Z</time></trkpt><trkpt lat="42.6925491" lon="13.7849743"><ele>153.0</ele><time>2026-05-01T12:14:28.764Z</time></trkpt><trkpt lat="42.6926598" lon="13.7852001"><ele>152.0</ele><time>2026-05-01T12:14:29.764Z</time></trkpt><trkpt lat="42.6927639" lon="13.7854154"><ele>151.0</ele><time>2026-05-01T12:14:30.763Z</time></trkpt><trkpt lat="42.6928679" lon="13.7856206"><ele>150.0</ele><time>2026-05-01T12:14:31.763Z</time></trkpt><trkpt lat="42.6929792" lon="13.7858464"><ele>150.0</ele><time>2026-05-01T12:14:32.762Z</time></trkpt><trkpt lat="42.6930887" lon="13.7860771"><ele>150.0</ele><time>2026-05-01T12:14:33.764Z</time></trkpt><trkpt lat="42.6931967" lon="13.7863163"><ele>150.0</ele><time>2026-05-01T12:14:34.763Z</time></trkpt><trkpt lat="42.6933085" lon="13.7865506"><ele>150.0</ele><time>2026-05-01T12:14:35.763Z</time></trkpt><trkpt lat="42.693427" lon="13.7867831"><ele>150.0</ele><time>2026-05-01T12:14:36.763Z</time></trkpt><trkpt lat="42.6935405" lon="13.7870226"><ele>150.0</ele><time>2026-05-01T12:14:37.764Z</time></trkpt><trkpt lat="42.6936581" lon="13.7872654"><ele>149.33333333333334</ele><time>2026-05-01T12:14:38.763Z</time></trkpt><trkpt lat="42.6937691" lon="13.7874848"><ele>148.66666666666669</ele><time>2026-05-01T12:14:39.764Z</time></trkpt><trkpt lat="42.6938701" lon="13.7876949"><ele>148.0</ele><time>2026-05-01T12:14:40.762Z</time></trkpt><trkpt lat="42.6939686" lon="13.7878888"><ele>147.33333333333334</ele><time>2026-05-01T12:14:41.762Z</time></trkpt><trkpt lat="42.6940628" lon="13.788076"><ele>146.66666666666666</ele><time>2026-05-01T12:14:42.763Z</time></trkpt><trkpt lat="42.6941491" lon="13.7882533"><ele>146.0</ele><time>2026-05-01T12:14:43.764Z</time></trkpt><trkpt lat="42.6942296" lon="13.7884154"><ele>146.0</ele><time>2026-05-01T12:14:44.764Z</time></trkpt><trkpt lat="42.6943033" lon="13.7885617"><ele>146.0</ele><time>2026-05-01T12:14:45.764Z</time></trkpt><trkpt lat="42.6943599" lon="13.7886866"><ele>146.0</ele><time>2026-05-01T12:14:46.763Z</time></trkpt><trkpt lat="42.694409" lon="13.7887922"><ele>146.0</ele><time>2026-05-01T12:14:47.763Z</time></trkpt><trkpt lat="42.6944588" lon="13.7888859"><ele>146.0</ele><time>2026-05-01T12:14:48.763Z</time></trkpt><trkpt lat="42.6944998" lon="13.7889747"><ele>146.0</ele><time>2026-05-01T12:14:49.763Z</time></trkpt><trkpt lat="42.694502" lon="13.7890603"><ele>146.0</ele><time>2026-05-01T12:14:50.763Z</time></trkpt><trkpt lat="42.6944175" lon="13.7892154"><ele>146.0</ele><time>2026-05-01T12:14:52.763Z</time></trkpt><trkpt lat="42.6943635" lon="13.7892957"><ele>146.0</ele><time>2026-05-01T12:14:53.763Z</time></trkpt><trkpt lat="42.6942783" lon="13.7893774"><ele>146.0</ele><time>2026-05-01T12:14:54.763Z</time></trkpt><trkpt lat="42.6941472" lon="13.7895167"><ele>146.66666666666666</ele><time>2026-05-01T12:14:55.764Z</time></trkpt><trkpt lat="42.6940262" lon="13.7896184"><ele>147.33333333333334</ele><time>2026-05-01T12:14:56.763Z</time></trkpt><trkpt lat="42.6938946" lon="13.7897355"><ele>148.0</ele><time>2026-05-01T12:14:57.763Z</time></trkpt><trkpt lat="42.693745" lon="13.7898923"><ele>146.33333333333334</ele><time>2026-05-01T12:14:58.762Z</time></trkpt><trkpt lat="42.6935753" lon="13.7900502"><ele>144.66666666666666</ele><time>2026-05-01T12:14:59.763Z</time></trkpt><trkpt lat="42.6933852" lon="13.7902222"><ele>143.0</ele><time>2026-05-01T12:15:00.763Z</time></trkpt><trkpt lat="42.6931809" lon="13.790416"><ele>141.5</ele><time>2026-05-01T12:15:01.763Z</time></trkpt><trkpt lat="42.6929817" lon="13.7906135"><ele>140.0</ele><time>2026-05-01T12:15:02.762Z</time></trkpt><trkpt lat="42.6927892" lon="13.7907916"><ele>136.0</ele><time>2026-05-01T12:15:03.764Z</time></trkpt><trkpt lat="42.6925971" lon="13.7909642"><ele>132.0</ele><time>2026-05-01T12:15:04.762Z</time></trkpt><trkpt lat="42.6924165" lon="13.7911358"><ele>130.66666666666666</ele><time>2026-05-01T12:15:05.764Z</time></trkpt><trkpt lat="42.6922524" lon="13.7912969"><ele>129.33333333333331</ele><time>2026-05-01T12:15:06.764Z</time></trkpt><trkpt lat="42.6920979" lon="13.791439"><ele>128.0</ele><time>2026-05-01T12:15:07.763Z</time></trkpt><trkpt lat="42.6919478" lon="13.7915732"><ele>128.25</ele><time>2026-05-01T12:15:08.763Z</time></trkpt><trkpt lat="42.6918181" lon="13.7917061"><ele>128.5</ele><time>2026-05-01T12:15:09.763Z</time></trkpt><trkpt lat="42.6917353" lon="13.7917813"><ele>128.75</ele><time>2026-05-01T12:15:10.762Z</time></trkpt><trkpt lat="42.6916978" lon="13.7919273"><ele>129.0</ele><time>2026-05-01T12:15:11.762Z</time></trkpt><trkpt lat="42.6916752" lon="13.7920912"><ele>128.33333333333334</ele><time>2026-05-01T12:15:12.762Z</time></trkpt><trkpt lat="42.6916972" lon="13.792294"><ele>127.66666666666667</ele><time>2026-05-01T12:15:13.763Z</time></trkpt><trkpt lat="42.6917288" lon="13.792514"><ele>127.0</ele><time>2026-05-01T12:15:14.762Z</time></trkpt><trkpt lat="42.6917726" lon="13.792739"><ele>127.0</ele><time>2026-05-01T12:15:15.763Z</time></trkpt><trkpt lat="42.6918084" lon="13.7929479"><ele>127.0</ele><time>2026-05-01T12:15:16.762Z</time></trkpt><trkpt lat="42.6918328" lon="13.7931417"><ele>127.0</ele><time>2026-05-01T12:15:17.763Z</time></trkpt><trkpt lat="42.6918318" lon="13.7933238"><ele>127.0</ele><time>2026-05-01T12:15:18.763Z</time></trkpt><trkpt lat="42.6917948" lon="13.79349"><ele>126.75</ele><time>2026-05-01T12:15:19.763Z</time></trkpt><trkpt lat="42.6917297" lon="13.7936421"><ele>126.5</ele><time>2026-05-01T12:15:20.762Z</time></trkpt><trkpt lat="42.6916305" lon="13.793768"><ele>126.25</ele><time>2026-05-01T12:15:21.762Z</time></trkpt><trkpt lat="42.6914968" lon="13.7938752"><ele>126.0</ele><time>2026-05-01T12:15:22.763Z</time></trkpt><trkpt lat="42.6913433" lon="13.7939784"><ele>126.0</ele><time>2026-05-01T12:15:23.764Z</time></trkpt><trkpt lat="42.6911667" lon="13.794082"><ele>126.0</ele><time>2026-05-01T12:15:24.763Z</time></trkpt><trkpt lat="42.6909878" lon="13.794189"><ele>126.0</ele><time>2026-05-01T12:15:25.762Z</time></trkpt><trkpt lat="42.6908265" lon="13.7942908"><ele>125.33333333333334</ele><time>2026-05-01T12:15:26.762Z</time></trkpt><trkpt lat="42.6906528" lon="13.7943919"><ele>124.66666666666667</ele><time>2026-05-01T12:15:27.763Z</time></trkpt><trkpt lat="42.6904728" lon="13.7944969"><ele>124.0</ele><time>2026-05-01T12:15:28.762Z</time></trkpt><trkpt lat="42.6902743" lon="13.7946096"><ele>128.0</ele><time>2026-05-01T12:15:29.761Z</time></trkpt><trkpt lat="42.690076" lon="13.794745"><ele>132.0</ele><time>2026-05-01T12:15:30.762Z</time></trkpt><trkpt lat="42.6898973" lon="13.7949056"><ele>136.0</ele><time>2026-05-01T12:15:31.761Z</time></trkpt><trkpt lat="42.6897351" lon="13.7950658"><ele>135.66666666666669</ele><time>2026-05-01T12:15:32.763Z</time></trkpt><trkpt lat="42.6895835" lon="13.7952159"><ele>135.33333333333334</ele><time>2026-05-01T12:15:33.762Z</time></trkpt><trkpt lat="42.6894429" lon="13.7953491"><ele>135.0</ele><time>2026-05-01T12:15:34.762Z</time></trkpt><trkpt lat="42.6892899" lon="13.7954574"><ele>135.0</ele><time>2026-05-01T12:15:35.761Z</time></trkpt><trkpt lat="42.6891259" lon="13.7955299"><ele>135.0</ele><time>2026-05-01T12:15:36.762Z</time></trkpt><trkpt lat="42.6889444" lon="13.7955619"><ele>135.0</ele><time>2026-05-01T12:15:37.761Z</time></trkpt><trkpt lat="42.6887663" lon="13.7955762"><ele>135.0</ele><time>2026-05-01T12:15:38.762Z</time></trkpt><trkpt lat="42.6885989" lon="13.7956101"><ele>135.0</ele><time>2026-05-01T12:15:39.763Z</time></trkpt><trkpt lat="42.6884351" lon="13.7956951"><ele>135.0</ele><time>2026-05-01T12:15:40.762Z</time></trkpt><trkpt lat="42.6882869" lon="13.7958101"><ele>134.66666666666666</ele><time>2026-05-01T12:15:41.762Z</time></trkpt><trkpt lat="42.6881314" lon="13.7959128"><ele>134.33333333333331</ele><time>2026-05-01T12:15:42.762Z</time></trkpt><trkpt lat="42.6879653" lon="13.7959911"><ele>134.0</ele><time>2026-05-01T12:15:43.761Z</time></trkpt><trkpt lat="42.6877973" lon="13.7960271"><ele>138.0</ele><time>2026-05-01T12:15:44.761Z</time></trkpt><trkpt lat="42.6876389" lon="13.7960808"><ele>142.0</ele><time>2026-05-01T12:15:45.762Z</time></trkpt><trkpt lat="42.6874964" lon="13.7961896"><ele>146.0</ele><time>2026-05-01T12:15:46.761Z</time></trkpt><trkpt lat="42.6873739" lon="13.7963015"><ele>146.0</ele><time>2026-05-01T12:15:47.761Z</time></trkpt><trkpt lat="42.6872627" lon="13.7964044"><ele>146.0</ele><time>2026-05-01T12:15:48.761Z</time></trkpt><trkpt lat="42.6871574" lon="13.7964938"><ele>146.0</ele><time>2026-05-01T12:15:49.762Z</time></trkpt><trkpt lat="42.6870601" lon="13.7965809"><ele>146.0</ele><time>2026-05-01T12:15:50.762Z</time></trkpt><trkpt lat="42.6869729" lon="13.7966616"><ele>144.83333333333331</ele><time>2026-05-01T12:15:51.762Z</time></trkpt><trkpt lat="42.6868952" lon="13.7967294"><ele>143.66666666666666</ele><time>2026-05-01T12:15:52.761Z</time></trkpt><trkpt lat="42.6868134" lon="13.7968009"><ele>142.5</ele><time>2026-05-01T12:15:53.762Z</time></trkpt><trkpt lat="42.6867397" lon="13.7968648"><ele>141.33333333333334</ele><time>2026-05-01T12:15:54.762Z</time></trkpt><trkpt lat="42.6866702" lon="13.7969138"><ele>140.16666666666669</ele><time>2026-05-01T12:15:55.762Z</time></trkpt><trkpt lat="42.686605" lon="13.796928"><ele>139.0</ele><time>2026-05-01T12:15:56.762Z</time></trkpt><trkpt lat="42.6865367" lon="13.7968452"><ele>142.8</ele><time>2026-05-01T12:15:58.763Z</time></trkpt><trkpt lat="42.6865664" lon="13.7967248"><ele>146.60000000000002</ele><time>2026-05-01T12:16:00.761Z</time></trkpt><trkpt lat="42.6866836" lon="13.796644"><ele>150.4</ele><time>2026-05-01T12:16:02.763Z</time></trkpt><trkpt lat="42.686743" lon="13.7965917"><ele>154.20000000000002</ele><time>2026-05-01T12:16:03.763Z</time></trkpt><trkpt lat="42.6868076" lon="13.7965244"><ele>158.0</ele><time>2026-05-01T12:16:04.762Z</time></trkpt><trkpt lat="42.6868637" lon="13.7964264"><ele>158.0</ele><time>2026-05-01T12:16:05.762Z</time></trkpt><trkpt lat="42.686916" lon="13.7962629"><ele>158.0</ele><time>2026-05-01T12:16:06.762Z</time></trkpt><trkpt lat="42.6869637" lon="13.7960597"><ele>158.0</ele><time>2026-05-01T12:16:07.762Z</time></trkpt><trkpt lat="42.6870317" lon="13.7958438"><ele>158.66666666666666</ele><time>2026-05-01T12:16:08.763Z</time></trkpt><trkpt lat="42.6871257" lon="13.7956126"><ele>159.33333333333334</ele><time>2026-05-01T12:16:09.762Z</time></trkpt><trkpt lat="42.6872252" lon="13.7953919"><ele>160.0</ele><time>2026-05-01T12:16:10.762Z</time></trkpt><trkpt lat="42.687327" lon="13.7951988"><ele>163.33333333333334</ele><time>2026-05-01T12:16:11.763Z</time></trkpt><trkpt lat="42.6874399" lon="13.7950327"><ele>166.66666666666666</ele><time>2026-05-01T12:16:12.761Z</time></trkpt><trkpt lat="42.6875529" lon="13.7948947"><ele>170.0</ele><time>2026-05-01T12:16:13.762Z</time></trkpt><trkpt lat="42.6876592" lon="13.794775"><ele>170.0</ele><time>2026-05-01T12:16:14.761Z</time></trkpt><trkpt lat="42.6877408" lon="13.7946458"><ele>170.0</ele><time>2026-05-01T12:16:15.761Z</time></trkpt><trkpt lat="42.6877897" lon="13.794494"><ele>170.0</ele><time>2026-05-01T12:16:16.761Z</time></trkpt><trkpt lat="42.6878024" lon="13.7943269"><ele>170.0</ele><time>2026-05-01T12:16:17.763Z</time></trkpt><trkpt lat="42.6877745" lon="13.7941295"><ele>172.66666666666666</ele><time>2026-05-01T12:16:18.762Z</time></trkpt><trkpt lat="42.6877207" lon="13.7938996"><ele>175.33333333333334</ele><time>2026-05-01T12:16:19.763Z</time></trkpt><trkpt lat="42.6876543" lon="13.793657"><ele>178.0</ele><time>2026-05-01T12:16:20.762Z</time></trkpt><trkpt lat="42.6875627" lon="13.7934029"><ele>178.5</ele><time>2026-05-01T12:16:21.762Z</time></trkpt><trkpt lat="42.6874448" lon="13.7931347"><ele>179.0</ele><time>2026-05-01T12:16:22.761Z</time></trkpt><trkpt lat="42.6873099" lon="13.7928541"><ele>178.0</ele><time>2026-05-01T12:16:23.763Z</time></trkpt><trkpt lat="42.6871563" lon="13.7925702"><ele>177.0</ele><time>2026-05-01T12:16:24.763Z</time></trkpt><trkpt lat="42.6869891" lon="13.7922719"><ele>182.0</ele><time>2026-05-01T12:16:25.761Z</time></trkpt><trkpt lat="42.6868256" lon="13.7919638"><ele>187.0</ele><time>2026-05-01T12:16:26.761Z</time></trkpt><trkpt lat="42.6866584" lon="13.7916423"><ele>187.0</ele><time>2026-05-01T12:16:27.763Z</time></trkpt><trkpt lat="42.6865007" lon="13.7913539"><ele>187.0</ele><time>2026-05-01T12:16:28.761Z</time></trkpt><trkpt lat="42.6863653" lon="13.7910667"><ele>185.0</ele><time>2026-05-01T12:16:29.762Z</time></trkpt><trkpt lat="42.6862579" lon="13.7907847"><ele>183.0</ele><time>2026-05-01T12:16:30.762Z</time></trkpt><trkpt lat="42.6861661" lon="13.7905142"><ele>188.0</ele><time>2026-05-01T12:16:31.762Z</time></trkpt><trkpt lat="42.6860713" lon="13.7902672"><ele>193.0</ele><time>2026-05-01T12:16:32.762Z</time></trkpt><trkpt lat="42.6859746" lon="13.7900445"><ele>198.0</ele><time>2026-05-01T12:16:33.761Z</time></trkpt><trkpt lat="42.68588" lon="13.7898486"><ele>198.0</ele><time>2026-05-01T12:16:34.761Z</time></trkpt><trkpt lat="42.6857908" lon="13.7896779"><ele>198.0</ele><time>2026-05-01T12:16:35.761Z</time></trkpt><trkpt lat="42.6857098" lon="13.789554"><ele>198.0</ele><time>2026-05-01T12:16:36.761Z</time></trkpt><trkpt lat="42.6856218" lon="13.789483"><ele>198.0</ele><time>2026-05-01T12:16:37.762Z</time></trkpt><trkpt lat="42.6855392" lon="13.7894792"><ele>198.0</ele><time>2026-05-01T12:16:38.762Z</time></trkpt><trkpt lat="42.6854757" lon="13.7895339"><ele>198.0</ele><time>2026-05-01T12:16:39.762Z</time></trkpt><trkpt lat="42.6854336" lon="13.7896423"><ele>198.0</ele><time>2026-05-01T12:16:40.761Z</time></trkpt><trkpt lat="42.685414" lon="13.7898136"><ele>198.0</ele><time>2026-05-01T12:16:41.761Z</time></trkpt><trkpt lat="42.6854025" lon="13.790051"><ele>199.66666666666669</ele><time>2026-05-01T12:16:42.762Z</time></trkpt><trkpt lat="42.6853816" lon="13.7903037"><ele>201.33333333333334</ele><time>2026-05-01T12:16:43.761Z</time></trkpt><trkpt lat="42.6853432" lon="13.7905838"><ele>203.0</ele><time>2026-05-01T12:16:44.763Z</time></trkpt><trkpt lat="42.6852979" lon="13.7908527"><ele>209.0</ele><time>2026-05-01T12:16:45.763Z</time></trkpt><trkpt lat="42.6852509" lon="13.7911347"><ele>215.0</ele><time>2026-05-01T12:16:46.762Z</time></trkpt><trkpt lat="42.685228" lon="13.7913875"><ele>221.0</ele><time>2026-05-01T12:16:47.761Z</time></trkpt><trkpt lat="42.6852278" lon="13.7916085"><ele>221.0</ele><time>2026-05-01T12:16:48.762Z</time></trkpt><trkpt lat="42.6852238" lon="13.7918066"><ele>221.0</ele><time>2026-05-01T12:16:49.762Z</time></trkpt><trkpt lat="42.6852046" lon="13.7919807"><ele>221.0</ele><time>2026-05-01T12:16:50.761Z</time></trkpt><trkpt lat="42.6851552" lon="13.7921273"><ele>221.0</ele><time>2026-05-01T12:16:51.761Z</time></trkpt><trkpt lat="42.6850628" lon="13.7922483"><ele>220.33333333333334</ele><time>2026-05-01T12:16:52.762Z</time></trkpt><trkpt lat="42.6849292" lon="13.7923373"><ele>219.66666666666669</ele><time>2026-05-01T12:16:53.763Z</time></trkpt><trkpt lat="42.684768" lon="13.792399"><ele>219.0</ele><time>2026-05-01T12:16:54.763Z</time></trkpt><trkpt lat="42.6845869" lon="13.7924313"><ele>221.66666666666669</ele><time>2026-05-01T12:16:55.762Z</time></trkpt><trkpt lat="42.6843888" lon="13.792435"><ele>224.33333333333334</ele><time>2026-05-01T12:16:56.762Z</time></trkpt><trkpt lat="42.6841962" lon="13.7924187"><ele>227.0</ele><time>2026-05-01T12:16:57.761Z</time></trkpt><trkpt lat="42.6840255" lon="13.7923768"><ele>227.0</ele><time>2026-05-01T12:16:58.761Z</time></trkpt><trkpt lat="42.6838707" lon="13.7922803"><ele>227.0</ele><time>2026-05-01T12:16:59.762Z</time></trkpt><trkpt lat="42.6837271" lon="13.7921432"><ele>227.0</ele><time>2026-05-01T12:17:00.762Z</time></trkpt><trkpt lat="42.6835859" lon="13.7919949"><ele>225.33333333333334</ele><time>2026-05-01T12:17:01.762Z</time></trkpt><trkpt lat="42.6834453" lon="13.7918629"><ele>223.66666666666669</ele><time>2026-05-01T12:17:02.762Z</time></trkpt><trkpt lat="42.6832928" lon="13.7917633"><ele>222.0</ele><time>2026-05-01T12:17:03.761Z</time></trkpt><trkpt lat="42.6831345" lon="13.7917191"><ele>224.5</ele><time>2026-05-01T12:17:04.762Z</time></trkpt><trkpt lat="42.6829907" lon="13.7917035"><ele>227.0</ele><time>2026-05-01T12:17:05.761Z</time></trkpt><trkpt lat="42.6828526" lon="13.79165"><ele>229.5</ele><time>2026-05-01T12:17:06.763Z</time></trkpt><trkpt lat="42.6827318" lon="13.7915507"><ele>232.0</ele><time>2026-05-01T12:17:07.763Z</time></trkpt><trkpt lat="42.6826368" lon="13.7913911"><ele>232.0</ele><time>2026-05-01T12:17:08.762Z</time></trkpt><trkpt lat="42.6825518" lon="13.7912021"><ele>232.0</ele><time>2026-05-01T12:17:09.763Z</time></trkpt><trkpt lat="42.6824538" lon="13.7909875"><ele>232.0</ele><time>2026-05-01T12:17:10.761Z</time></trkpt><trkpt lat="42.682351" lon="13.7907642"><ele>236.66666666666666</ele><time>2026-05-01T12:17:11.762Z</time></trkpt><trkpt lat="42.6822535" lon="13.7905362"><ele>241.33333333333331</ele><time>2026-05-01T12:17:12.761Z</time></trkpt><trkpt lat="42.6821629" lon="13.7903211"><ele>246.0</ele><time>2026-05-01T12:17:13.761Z</time></trkpt><trkpt lat="42.6820751" lon="13.7901147"><ele>247.66666666666669</ele><time>2026-05-01T12:17:14.761Z</time></trkpt><trkpt lat="42.6819862" lon="13.7899281"><ele>249.33333333333334</ele><time>2026-05-01T12:17:15.761Z</time></trkpt><trkpt lat="42.6818865" lon="13.789775"><ele>251.0</ele><time>2026-05-01T12:17:16.762Z</time></trkpt><trkpt lat="42.6817678" lon="13.7896677"><ele>246.0</ele><time>2026-05-01T12:17:17.763Z</time></trkpt><trkpt lat="42.6816261" lon="13.7896115"><ele>241.0</ele><time>2026-05-01T12:17:18.762Z</time></trkpt><trkpt lat="42.6814569" lon="13.7896149"><ele>236.0</ele><time>2026-05-01T12:17:19.763Z</time></trkpt><trkpt lat="42.681271" lon="13.7896802"><ele>235.66666666666669</ele><time>2026-05-01T12:17:20.763Z</time></trkpt><trkpt lat="42.681074" lon="13.789773"><ele>235.33333333333331</ele><time>2026-05-01T12:17:21.762Z</time></trkpt><trkpt lat="42.6808569" lon="13.7898747"><ele>235.0</ele><time>2026-05-01T12:17:22.761Z</time></trkpt><trkpt lat="42.6806294" lon="13.7899709"><ele>235.0</ele><time>2026-05-01T12:17:23.762Z</time></trkpt><trkpt lat="42.6804062" lon="13.7900467"><ele>235.0</ele><time>2026-05-01T12:17:24.762Z</time></trkpt><trkpt lat="42.6801756" lon="13.7901181"><ele>235.5</ele><time>2026-05-01T12:17:25.762Z</time></trkpt><trkpt lat="42.6799423" lon="13.7901942"><ele>236.0</ele><time>2026-05-01T12:17:26.762Z</time></trkpt><trkpt lat="42.6797041" lon="13.7902711"><ele>236.0</ele><time>2026-05-01T12:17:27.762Z</time></trkpt><trkpt lat="42.6794763" lon="13.7903691"><ele>236.0</ele><time>2026-05-01T12:17:28.761Z</time></trkpt><trkpt lat="42.6792649" lon="13.7904868"><ele>238.66666666666669</ele><time>2026-05-01T12:17:29.761Z</time></trkpt><trkpt lat="42.67907" lon="13.7906064"><ele>241.33333333333331</ele><time>2026-05-01T12:17:30.762Z</time></trkpt><trkpt lat="42.6788934" lon="13.7907267"><ele>244.0</ele><time>2026-05-01T12:17:31.762Z</time></trkpt><trkpt lat="42.6787352" lon="13.7908527"><ele>245.33333333333331</ele><time>2026-05-01T12:17:32.762Z</time></trkpt><trkpt lat="42.6785943" lon="13.7909916"><ele>246.66666666666669</ele><time>2026-05-01T12:17:33.762Z</time></trkpt><trkpt lat="42.6784742" lon="13.7911374"><ele>248.0</ele><time>2026-05-01T12:17:34.762Z</time></trkpt><trkpt lat="42.6783863" lon="13.7913154"><ele>248.0</ele><time>2026-05-01T12:17:35.761Z</time></trkpt><trkpt lat="42.6783307" lon="13.7915304"><ele>248.0</ele><time>2026-05-01T12:17:36.762Z</time></trkpt><trkpt lat="42.6782963" lon="13.7917693"><ele>248.0</ele><time>2026-05-01T12:17:37.763Z</time></trkpt><trkpt lat="42.6782517" lon="13.7920071"><ele>247.0</ele><time>2026-05-01T12:17:38.761Z</time></trkpt><trkpt lat="42.6781785" lon="13.7922225"><ele>246.0</ele><time>2026-05-01T12:17:39.761Z</time></trkpt><trkpt lat="42.6780966" lon="13.7924384"><ele>245.0</ele><time>2026-05-01T12:17:40.763Z</time></trkpt><trkpt lat="42.6780117" lon="13.7926512"><ele>245.33333333333334</ele><time>2026-05-01T12:17:41.762Z</time></trkpt><trkpt lat="42.6779052" lon="13.7928351"><ele>245.66666666666669</ele><time>2026-05-01T12:17:42.761Z</time></trkpt><trkpt lat="42.6777659" lon="13.7929939"><ele>246.0</ele><time>2026-05-01T12:17:43.761Z</time></trkpt><trkpt lat="42.6775993" lon="13.7931268"><ele>249.0</ele><time>2026-05-01T12:17:44.761Z</time></trkpt><trkpt lat="42.6774021" lon="13.7932406"><ele>252.0</ele><time>2026-05-01T12:17:45.762Z</time></trkpt><trkpt lat="42.6771941" lon="13.7933578"><ele>255.0</ele><time>2026-05-01T12:17:46.762Z</time></trkpt><trkpt lat="42.6769991" lon="13.7934771"><ele>253.0</ele><time>2026-05-01T12:17:47.762Z</time></trkpt><trkpt lat="42.6768038" lon="13.7936002"><ele>251.0</ele><time>2026-05-01T12:17:48.761Z</time></trkpt><trkpt lat="42.676603" lon="13.7937328"><ele>249.0</ele><time>2026-05-01T12:17:49.762Z</time></trkpt><trkpt lat="42.6764009" lon="13.7938919"><ele>249.0</ele><time>2026-05-01T12:17:50.762Z</time></trkpt><trkpt lat="42.6761874" lon="13.7940799"><ele>249.0</ele><time>2026-05-01T12:17:51.761Z</time></trkpt><trkpt lat="42.675967" lon="13.7942841"><ele>251.0</ele><time>2026-05-01T12:17:52.762Z</time></trkpt><trkpt lat="42.6757313" lon="13.7945083"><ele>253.0</ele><time>2026-05-01T12:17:53.763Z</time></trkpt><trkpt lat="42.6754917" lon="13.7947353"><ele>256.5</ele><time>2026-05-01T12:17:54.762Z</time></trkpt><trkpt lat="42.6752626" lon="13.7949555"><ele>260.0</ele><time>2026-05-01T12:17:55.762Z</time></trkpt><trkpt lat="42.6750524" lon="13.7951602"><ele>261.5</ele><time>2026-05-01T12:17:56.762Z</time></trkpt><trkpt lat="42.6748547" lon="13.7953461"><ele>263.0</ele><time>2026-05-01T12:17:57.762Z</time></trkpt><trkpt lat="42.6746719" lon="13.7955152"><ele>263.0</ele><time>2026-05-01T12:17:58.762Z</time></trkpt><trkpt lat="42.6745042" lon="13.7956707"><ele>263.0</ele><time>2026-05-01T12:17:59.762Z</time></trkpt><trkpt lat="42.6743267" lon="13.7958051"><ele>263.0</ele><time>2026-05-01T12:18:00.762Z</time></trkpt><trkpt lat="42.6741385" lon="13.7959113"><ele>263.6666666666667</ele><time>2026-05-01T12:18:01.762Z</time></trkpt><trkpt lat="42.6739674" lon="13.7959973"><ele>264.3333333333333</ele><time>2026-05-01T12:18:02.762Z</time></trkpt><trkpt lat="42.6738319" lon="13.7960442"><ele>265.0</ele><time>2026-05-01T12:18:03.762Z</time></trkpt><trkpt lat="42.6736971" lon="13.7960705"><ele>259.0</ele><time>2026-05-01T12:18:04.763Z</time></trkpt><trkpt lat="42.6735681" lon="13.796085"><ele>253.0</ele><time>2026-05-01T12:18:05.761Z</time></trkpt><trkpt lat="42.6734428" lon="13.7960785"><ele>247.0</ele><time>2026-05-01T12:18:06.762Z</time></trkpt><trkpt lat="42.6733224" lon="13.7960588"><ele>241.0</ele><time>2026-05-01T12:18:07.762Z</time></trkpt><trkpt lat="42.6732005" lon="13.7960356"><ele>241.0</ele><time>2026-05-01T12:18:08.762Z</time></trkpt><trkpt lat="42.6730745" lon="13.7960182"><ele>241.0</ele><time>2026-05-01T12:18:09.762Z</time></trkpt><trkpt lat="42.6729419" lon="13.7959951"><ele>241.0</ele><time>2026-05-01T12:18:10.762Z</time></trkpt><trkpt lat="42.6728013" lon="13.7959674"><ele>241.0</ele><time>2026-05-01T12:18:11.762Z</time></trkpt><trkpt lat="42.6726638" lon="13.7959169"><ele>246.0</ele><time>2026-05-01T12:18:12.761Z</time></trkpt><trkpt lat="42.6725237" lon="13.7958219"><ele>251.0</ele><time>2026-05-01T12:18:13.762Z</time></trkpt><trkpt lat="42.672379" lon="13.7957212"><ele>256.0</ele><time>2026-05-01T12:18:14.763Z</time></trkpt><trkpt lat="42.6722144" lon="13.7956422"><ele>256.0</ele><time>2026-05-01T12:18:15.763Z</time></trkpt><trkpt lat="42.6720358" lon="13.795582"><ele>256.0</ele><time>2026-05-01T12:18:16.761Z</time></trkpt><trkpt lat="42.6718522" lon="13.7955421"><ele>256.0</ele><time>2026-05-01T12:18:17.762Z</time></trkpt><trkpt lat="42.6716668" lon="13.7955113"><ele>258.0</ele><time>2026-05-01T12:18:18.762Z</time></trkpt><trkpt lat="42.6714808" lon="13.7954787"><ele>260.0</ele><time>2026-05-01T12:18:19.762Z</time></trkpt><trkpt lat="42.6712948" lon="13.795461"><ele>262.0</ele><time>2026-05-01T12:18:20.761Z</time></trkpt><trkpt lat="42.6711196" lon="13.7954784"><ele>264.66666666666663</ele><time>2026-05-01T12:18:21.761Z</time></trkpt><trkpt lat="42.6709473" lon="13.7955357"><ele>267.3333333333333</ele><time>2026-05-01T12:18:22.761Z</time></trkpt><trkpt lat="42.6707949" lon="13.7956266"><ele>270.0</ele><time>2026-05-01T12:18:23.762Z</time></trkpt><trkpt lat="42.6706691" lon="13.7957254"><ele>270.0</ele><time>2026-05-01T12:18:24.763Z</time></trkpt><trkpt lat="42.6705609" lon="13.7958277"><ele>270.0</ele><time>2026-05-01T12:18:25.762Z</time></trkpt><trkpt lat="42.6704732" lon="13.7959346"><ele>270.0</ele><time>2026-05-01T12:18:26.762Z</time></trkpt><trkpt lat="42.6704241" lon="13.7960637"><ele>270.0</ele><time>2026-05-01T12:18:27.762Z</time></trkpt><trkpt lat="42.6704173" lon="13.7962115"><ele>271.25</ele><time>2026-05-01T12:18:28.763Z</time></trkpt><trkpt lat="42.6704651" lon="13.7963613"><ele>272.5</ele><time>2026-05-01T12:18:29.763Z</time></trkpt><trkpt lat="42.6705499" lon="13.7964952"><ele>273.75</ele><time>2026-05-01T12:18:30.763Z</time></trkpt><trkpt lat="42.6706349" lon="13.7966"><ele>275.0</ele><time>2026-05-01T12:18:31.763Z</time></trkpt><trkpt lat="42.6706974" lon="13.7967187"><ele>274.5</ele><time>2026-05-01T12:18:32.763Z</time></trkpt><trkpt lat="42.6707199" lon="13.7968366"><ele>274.0</ele><time>2026-05-01T12:18:33.763Z</time></trkpt><trkpt lat="42.6706984" lon="13.7969345"><ele>273.5</ele><time>2026-05-01T12:18:34.763Z</time></trkpt><trkpt lat="42.670645" lon="13.7969958"><ele>273.0</ele><time>2026-05-01T12:18:35.763Z</time></trkpt><trkpt lat="42.6705724" lon="13.7969961"><ele>272.5</ele><time>2026-05-01T12:18:36.763Z</time></trkpt><trkpt lat="42.6704892" lon="13.7969484"><ele>272.0</ele><time>2026-05-01T12:18:37.761Z</time></trkpt><trkpt lat="42.6703918" lon="13.7968736"><ele>275.75</ele><time>2026-05-01T12:18:38.762Z</time></trkpt><trkpt lat="42.6702684" lon="13.7967834"><ele>279.5</ele><time>2026-05-01T12:18:39.763Z</time></trkpt><trkpt lat="42.6701488" lon="13.7966971"><ele>283.25</ele><time>2026-05-01T12:18:40.762Z</time></trkpt><trkpt lat="42.6700253" lon="13.7966061"><ele>287.0</ele><time>2026-05-01T12:18:41.761Z</time></trkpt><trkpt lat="42.6698862" lon="13.7965048"><ele>287.0</ele><time>2026-05-01T12:18:42.761Z</time></trkpt><trkpt lat="42.6697485" lon="13.7964061"><ele>287.0</ele><time>2026-05-01T12:18:43.762Z</time></trkpt><trkpt lat="42.6696207" lon="13.7963114"><ele>287.0</ele><time>2026-05-01T12:18:44.761Z</time></trkpt><trkpt lat="42.6695053" lon="13.7962296"><ele>287.0</ele><time>2026-05-01T12:18:45.761Z</time></trkpt><trkpt lat="42.6694029" lon="13.7961688"><ele>289.1666666666667</ele><time>2026-05-01T12:18:46.761Z</time></trkpt><trkpt lat="42.6693112" lon="13.7961475"><ele>291.33333333333337</ele><time>2026-05-01T12:18:47.761Z</time></trkpt><trkpt lat="42.6692358" lon="13.7961865"><ele>293.5</ele><time>2026-05-01T12:18:48.761Z</time></trkpt><trkpt lat="42.6691901" lon="13.7962675"><ele>295.6666666666667</ele><time>2026-05-01T12:18:49.761Z</time></trkpt><trkpt lat="42.6691955" lon="13.796377"><ele>297.8333333333333</ele><time>2026-05-01T12:18:50.761Z</time></trkpt><trkpt lat="42.6692465" lon="13.7964851"><ele>300.0</ele><time>2026-05-01T12:18:51.761Z</time></trkpt><trkpt lat="42.6693381" lon="13.7966036"><ele>300.0</ele><time>2026-05-01T12:18:52.76Z</time></trkpt><trkpt lat="42.6694265" lon="13.7967414"><ele>300.0</ele><time>2026-05-01T12:18:53.762Z</time></trkpt><trkpt lat="42.6695038" lon="13.7969163"><ele>300.0</ele><time>2026-05-01T12:18:54.762Z</time></trkpt><trkpt lat="42.6695527" lon="13.7971093"><ele>300.0</ele><time>2026-05-01T12:18:55.762Z</time></trkpt><trkpt lat="42.6695684" lon="13.7973146"><ele>299.5</ele><time>2026-05-01T12:18:56.762Z</time></trkpt><trkpt lat="42.6695653" lon="13.7975207"><ele>299.0</ele><time>2026-05-01T12:18:57.76Z</time></trkpt><trkpt lat="42.6695637" lon="13.7977134"><ele>298.5</ele><time>2026-05-01T12:18:58.76Z</time></trkpt><trkpt lat="42.669554" lon="13.7978891"><ele>298.0</ele><time>2026-05-01T12:18:59.761Z</time></trkpt><trkpt lat="42.6695164" lon="13.798033"><ele>298.0</ele><time>2026-05-01T12:19:00.762Z</time></trkpt><trkpt lat="42.6694596" lon="13.7981435"><ele>298.0</ele><time>2026-05-01T12:19:01.762Z</time></trkpt><trkpt lat="42.6693821" lon="13.7981989"><ele>298.0</ele><time>2026-05-01T12:19:02.762Z</time></trkpt><trkpt lat="42.669296" lon="13.7981853"><ele>298.0</ele><time>2026-05-01T12:19:03.761Z</time></trkpt><trkpt lat="42.6692188" lon="13.7981063"><ele>298.0</ele><time>2026-05-01T12:19:04.76Z</time></trkpt><trkpt lat="42.669155" lon="13.7979653"><ele>301.0</ele><time>2026-05-01T12:19:05.76Z</time></trkpt><trkpt lat="42.6690866" lon="13.7978045"><ele>304.0</ele><time>2026-05-01T12:19:06.76Z</time></trkpt><trkpt lat="42.6690062" lon="13.79763"><ele>307.0</ele><time>2026-05-01T12:19:07.762Z</time></trkpt><trkpt lat="42.6689162" lon="13.7974516"><ele>310.0</ele><time>2026-05-01T12:19:08.761Z</time></trkpt><trkpt lat="42.6688083" lon="13.7973067"><ele>310.0</ele><time>2026-05-01T12:19:09.761Z</time></trkpt><trkpt lat="42.6686762" lon="13.7971958"><ele>310.0</ele><time>2026-05-01T12:19:10.76Z</time></trkpt><trkpt lat="42.6685108" lon="13.7971123"><ele>310.0</ele><time>2026-05-01T12:19:11.76Z</time></trkpt><trkpt lat="42.6683467" lon="13.7970438"><ele>315.25</ele><time>2026-05-01T12:19:12.761Z</time></trkpt><trkpt lat="42.6681934" lon="13.7969768"><ele>320.5</ele><time>2026-05-01T12:19:13.76Z</time></trkpt><trkpt lat="42.6680603" lon="13.7969083"><ele>325.75</ele><time>2026-05-01T12:19:14.761Z</time></trkpt><trkpt lat="42.6679501" lon="13.7968579"><ele>331.0</ele><time>2026-05-01T12:19:15.761Z</time></trkpt><trkpt lat="42.6678506" lon="13.7968511"><ele>331.0</ele><time>2026-05-01T12:19:16.761Z</time></trkpt><trkpt lat="42.6677809" lon="13.7968944"><ele>331.0</ele><time>2026-05-01T12:19:17.762Z</time></trkpt><trkpt lat="42.6677495" lon="13.7969733"><ele>331.0</ele><time>2026-05-01T12:19:18.762Z</time></trkpt><trkpt lat="42.6677531" lon="13.7970659"><ele>331.0</ele><time>2026-05-01T12:19:19.761Z</time></trkpt><trkpt lat="42.6678068" lon="13.7971472"><ele>331.0</ele><time>2026-05-01T12:19:20.761Z</time></trkpt><trkpt lat="42.6679107" lon="13.7972269"><ele>331.0</ele><time>2026-05-01T12:19:21.761Z</time></trkpt><trkpt lat="42.6680278" lon="13.7973109"><ele>331.0</ele><time>2026-05-01T12:19:22.76Z</time></trkpt><trkpt lat="42.6681304" lon="13.7974004"><ele>331.0</ele><time>2026-05-01T12:19:23.76Z</time></trkpt><trkpt lat="42.6682482" lon="13.7974897"><ele>331.0</ele><time>2026-05-01T12:19:24.76Z</time></trkpt><trkpt lat="42.6683396" lon="13.7976107"><ele>331.0</ele><time>2026-05-01T12:19:25.76Z</time></trkpt><trkpt lat="42.6683978" lon="13.79777"><ele>332.75</ele><time>2026-05-01T12:19:26.76Z</time></trkpt><trkpt lat="42.6684195" lon="13.7979485"><ele>334.5</ele><time>2026-05-01T12:19:27.761Z</time></trkpt><trkpt lat="42.6684004" lon="13.7981357"><ele>336.25</ele><time>2026-05-01T12:19:28.761Z</time></trkpt><trkpt lat="42.6683462" lon="13.7983508"><ele>338.0</ele><time>2026-05-01T12:19:29.762Z</time></trkpt><trkpt lat="42.6682625" lon="13.798596"><ele>338.0</ele><time>2026-05-01T12:19:30.761Z</time></trkpt><trkpt lat="42.6681674" lon="13.7988647"><ele>338.0</ele><time>2026-05-01T12:19:31.762Z</time></trkpt><trkpt lat="42.6680684" lon="13.7991431"><ele>338.0</ele><time>2026-05-01T12:19:32.761Z</time></trkpt><trkpt lat="42.6679613" lon="13.7994316"><ele>339.0</ele><time>2026-05-01T12:19:33.761Z</time></trkpt><trkpt lat="42.6678683" lon="13.7996934"><ele>340.0</ele><time>2026-05-01T12:19:34.761Z</time></trkpt><trkpt lat="42.6677867" lon="13.7999372"><ele>341.0</ele><time>2026-05-01T12:19:35.761Z</time></trkpt><trkpt lat="42.6677086" lon="13.8001448"><ele>344.25</ele><time>2026-05-01T12:19:36.761Z</time></trkpt><trkpt lat="42.6676277" lon="13.8003155"><ele>347.5</ele><time>2026-05-01T12:19:37.761Z</time></trkpt><trkpt lat="42.6675335" lon="13.8004429"><ele>350.75</ele><time>2026-05-01T12:19:38.762Z</time></trkpt><trkpt lat="42.6674255" lon="13.8005305"><ele>354.0</ele><time>2026-05-01T12:19:39.761Z</time></trkpt><trkpt lat="42.667312" lon="13.8005731"><ele>354.0</ele><time>2026-05-01T12:19:40.761Z</time></trkpt><trkpt lat="42.6672002" lon="13.8005644"><ele>354.0</ele><time>2026-05-01T12:19:41.761Z</time></trkpt><trkpt lat="42.6671107" lon="13.8005117"><ele>354.0</ele><time>2026-05-01T12:19:42.76Z</time></trkpt><trkpt lat="42.6670386" lon="13.8004115"><ele>354.0</ele><time>2026-05-01T12:19:43.761Z</time></trkpt><trkpt lat="42.6669799" lon="13.8002669"><ele>354.0</ele><time>2026-05-01T12:19:44.76Z</time></trkpt><trkpt lat="42.6669158" lon="13.8000544"><ele>355.6666666666667</ele><time>2026-05-01T12:19:45.762Z</time></trkpt><trkpt lat="42.6668312" lon="13.7997877"><ele>357.33333333333337</ele><time>2026-05-01T12:19:46.761Z</time></trkpt><trkpt lat="42.6667281" lon="13.7995182"><ele>359.0</ele><time>2026-05-01T12:19:47.761Z</time></trkpt><trkpt lat="42.666601" lon="13.7992433"><ele>359.0</ele><time>2026-05-01T12:19:48.761Z</time></trkpt><trkpt lat="42.6664686" lon="13.7989703"><ele>359.0</ele><time>2026-05-01T12:19:49.762Z</time></trkpt><trkpt lat="42.6662915" lon="13.7986905"><ele>360.0</ele><time>2026-05-01T12:19:50.761Z</time></trkpt><trkpt lat="42.6661285" lon="13.7984217"><ele>361.0</ele><time>2026-05-01T12:19:51.762Z</time></trkpt><trkpt lat="42.6659575" lon="13.7981954"><ele>363.3333333333333</ele><time>2026-05-01T12:19:52.761Z</time></trkpt><trkpt lat="42.6657839" lon="13.7980163"><ele>365.6666666666667</ele><time>2026-05-01T12:19:53.761Z</time></trkpt><trkpt lat="42.6656324" lon="13.797844"><ele>368.0</ele><time>2026-05-01T12:19:54.762Z</time></trkpt><trkpt lat="42.6654979" lon="13.797688"><ele>368.33333333333337</ele><time>2026-05-01T12:19:55.762Z</time></trkpt><trkpt lat="42.6653898" lon="13.7975261"><ele>368.6666666666667</ele><time>2026-05-01T12:19:56.761Z</time></trkpt><trkpt lat="42.66531" lon="13.7973502"><ele>369.0</ele><time>2026-05-01T12:19:57.76Z</time></trkpt><trkpt lat="42.6652661" lon="13.7971571"><ele>370.3333333333333</ele><time>2026-05-01T12:19:58.761Z</time></trkpt><trkpt lat="42.6652618" lon="13.7969292"><ele>371.66666666666663</ele><time>2026-05-01T12:19:59.76Z</time></trkpt><trkpt lat="42.6652878" lon="13.796667"><ele>373.0</ele><time>2026-05-01T12:20:00.761Z</time></trkpt><trkpt lat="42.6653187" lon="13.7963782"><ele>367.0</ele><time>2026-05-01T12:20:01.76Z</time></trkpt><trkpt lat="42.6653553" lon="13.7960572"><ele>361.0</ele><time>2026-05-01T12:20:02.761Z</time></trkpt><trkpt lat="42.6653966" lon="13.7957395"><ele>360.66666666666663</ele><time>2026-05-01T12:20:03.761Z</time></trkpt><trkpt lat="42.6654524" lon="13.7954486"><ele>360.3333333333333</ele><time>2026-05-01T12:20:04.761Z</time></trkpt><trkpt lat="42.6655165" lon="13.7951773"><ele>360.0</ele><time>2026-05-01T12:20:05.761Z</time></trkpt><trkpt lat="42.6655785" lon="13.7949286"><ele>360.0</ele><time>2026-05-01T12:20:06.761Z</time></trkpt><trkpt lat="42.6656348" lon="13.7947017"><ele>360.0</ele><time>2026-05-01T12:20:07.76Z</time></trkpt><trkpt lat="42.6656733" lon="13.7944961"><ele>360.0</ele><time>2026-05-01T12:20:08.76Z</time></trkpt><trkpt lat="42.6656702" lon="13.7942922"><ele>361.3333333333333</ele><time>2026-05-01T12:20:09.761Z</time></trkpt><trkpt lat="42.665628" lon="13.7940921"><ele>362.66666666666663</ele><time>2026-05-01T12:20:10.761Z</time></trkpt><trkpt lat="42.6655438" lon="13.7939046"><ele>364.0</ele><time>2026-05-01T12:20:11.761Z</time></trkpt><trkpt lat="42.6654193" lon="13.793737"><ele>364.0</ele><time>2026-05-01T12:20:12.762Z</time></trkpt><trkpt lat="42.6652874" lon="13.7935873"><ele>364.0</ele><time>2026-05-01T12:20:13.761Z</time></trkpt><trkpt lat="42.6651835" lon="13.7934163"><ele>364.0</ele><time>2026-05-01T12:20:14.761Z</time></trkpt><trkpt lat="42.6651086" lon="13.7932193"><ele>365.3333333333333</ele><time>2026-05-01T12:20:15.761Z</time></trkpt><trkpt lat="42.6650761" lon="13.7930115"><ele>366.6666666666667</ele><time>2026-05-01T12:20:16.76Z</time></trkpt><trkpt lat="42.6650878" lon="13.7927972"><ele>368.0</ele><time>2026-05-01T12:20:17.762Z</time></trkpt><trkpt lat="42.6651455" lon="13.7925967"><ele>368.0</ele><time>2026-05-01T12:20:18.76Z</time></trkpt><trkpt lat="42.6652142" lon="13.7923949"><ele>368.0</ele><time>2026-05-01T12:20:19.76Z</time></trkpt><trkpt lat="42.6652399" lon="13.7921869"><ele>368.0</ele><time>2026-05-01T12:20:20.761Z</time></trkpt><trkpt lat="42.6652222" lon="13.7919791"><ele>368.0</ele><time>2026-05-01T12:20:21.761Z</time></trkpt><trkpt lat="42.665175" lon="13.7917969"><ele>368.0</ele><time>2026-05-01T12:20:22.76Z</time></trkpt><trkpt lat="42.6651345" lon="13.7916378"><ele>368.0</ele><time>2026-05-01T12:20:23.76Z</time></trkpt><trkpt lat="42.665102" lon="13.7915018"><ele>368.0</ele><time>2026-05-01T12:20:24.761Z</time></trkpt><trkpt lat="42.6650693" lon="13.7913908"><ele>368.0</ele><time>2026-05-01T12:20:25.76Z</time></trkpt><trkpt lat="42.6650334" lon="13.7913147"><ele>368.0</ele><time>2026-05-01T12:20:26.761Z</time></trkpt><trkpt lat="42.6649648" lon="13.7912395"><ele>368.0</ele><time>2026-05-01T12:20:28.76Z</time></trkpt></trkseg></trk></gpx>